<?xml version='1.0' encoding='UTF-8'?><gpx version="1.1" creator="JPX - https://github.com/jenetics/jpx" xmlns="http://www.topografix.com/GPX/1/1"><trk><trkseg><trkpt lat="43.6547524" lon="11.1830911"><ele>293.0</ele><time>2026-03-28T08:07:37.94Z</time></trkpt><trkpt lat="43.6548569" lon="11.1830887"><ele>293.0</ele><time>2026-03-28T08:08:59.941Z</time></trkpt><trkpt lat="43.6549344" lon="11.1830956"><ele>293.0</ele><time>2026-03-28T08:09:00.939Z</time></trkpt><trkpt lat="43.6549988" lon="11.1831309"><ele>293.0</ele><time>2026-03-28T08:09:02.94Z</time></trkpt><trkpt lat="43.655038" lon="11.1832241"><ele>293.0</ele><time>2026-03-28T08:09:05.94Z</time></trkpt><trkpt lat="43.6550219" lon="11.18313"><ele>293.0</ele><time>2026-03-28T08:09:10.94Z</time></trkpt><trkpt lat="43.6548884" lon="11.1831003"><ele>293.0</ele><time>2026-03-28T08:09:12.941Z</time></trkpt><trkpt lat="43.6548001" lon="11.1830927"><ele>293.0</ele><time>2026-03-28T08:09:13.939Z</time></trkpt><trkpt lat="43.6547041" lon="11.1830776"><ele>293.0</ele><time>2026-03-28T08:09:14.941Z</time></trkpt><trkpt lat="43.6546038" lon="11.1830613"><ele>293.0</ele><time>2026-03-28T08:09:15.94Z</time></trkpt><trkpt lat="43.6545143" lon="11.1830501"><ele>293.0</ele><time>2026-03-28T08:09:16.939Z</time></trkpt><trkpt lat="43.6544402" lon="11.1830458"><ele>294.0</ele><time>2026-03-28T08:09:17.941Z</time></trkpt><trkpt lat="43.6543763" lon="11.1830424"><ele>295.0</ele><time>2026-03-28T08:09:18.94Z</time></trkpt><trkpt lat="43.6542904" lon="11.1831018"><ele>296.0</ele><time>2026-03-28T08:09:20.941Z</time></trkpt><trkpt lat="43.6542729" lon="11.1831924"><ele>297.0</ele><time>2026-03-28T08:09:21.94Z</time></trkpt><trkpt lat="43.6542604" lon="11.1832915"><ele>298.0</ele><time>2026-03-28T08:09:22.94Z</time></trkpt><trkpt lat="43.6541837" lon="11.1833847"><ele>299.0</ele><time>2026-03-28T08:09:24.941Z</time></trkpt><trkpt lat="43.6541362" lon="11.1834448"><ele>299.6666666666667</ele><time>2026-03-28T08:09:26.941Z</time></trkpt><trkpt lat="43.6541975" lon="11.1835098"><ele>300.33333333333337</ele><time>2026-03-28T08:09:28.941Z</time></trkpt><trkpt lat="43.6542166" lon="11.1836078"><ele>301.0</ele><time>2026-03-28T08:09:31.939Z</time></trkpt><trkpt lat="43.6541118" lon="11.1835997"><ele>301.6666666666667</ele><time>2026-03-28T08:09:33.941Z</time></trkpt><trkpt lat="43.6540345" lon="11.1835891"><ele>302.3333333333333</ele><time>2026-03-28T08:09:34.94Z</time></trkpt><trkpt lat="43.6539391" lon="11.1835665"><ele>303.0</ele><time>2026-03-28T08:09:35.941Z</time></trkpt><trkpt lat="43.6538127" lon="11.1835659"><ele>303.0</ele><time>2026-03-28T08:09:36.94Z</time></trkpt><trkpt lat="43.6536729" lon="11.1835311"><ele>303.0</ele><time>2026-03-28T08:09:37.939Z</time></trkpt><trkpt lat="43.6535229" lon="11.183499"><ele>303.0</ele><time>2026-03-28T08:09:38.94Z</time></trkpt><trkpt lat="43.6533647" lon="11.1834528"><ele>301.5</ele><time>2026-03-28T08:09:39.94Z</time></trkpt><trkpt lat="43.653216" lon="11.1834107"><ele>300.0</ele><time>2026-03-28T08:09:40.939Z</time></trkpt><trkpt lat="43.6530752" lon="11.1833604"><ele>298.5</ele><time>2026-03-28T08:09:41.941Z</time></trkpt><trkpt lat="43.6529466" lon="11.1833098"><ele>297.0</ele><time>2026-03-28T08:09:42.94Z</time></trkpt><trkpt lat="43.652823" lon="11.1832543"><ele>295.4</ele><time>2026-03-28T08:09:43.941Z</time></trkpt><trkpt lat="43.6527126" lon="11.1831951"><ele>293.79999999999995</ele><time>2026-03-28T08:09:44.941Z</time></trkpt><trkpt lat="43.6526106" lon="11.1831368"><ele>292.2</ele><time>2026-03-28T08:09:45.94Z</time></trkpt><trkpt lat="43.6525203" lon="11.1830831"><ele>290.59999999999997</ele><time>2026-03-28T08:09:46.941Z</time></trkpt><trkpt lat="43.6524515" lon="11.1830611"><ele>289.0</ele><time>2026-03-28T08:09:47.94Z</time></trkpt><trkpt lat="43.6523511" lon="11.1831059"><ele>289.0</ele><time>2026-03-28T08:09:49.939Z</time></trkpt><trkpt lat="43.6523232" lon="11.1831847"><ele>289.0</ele><time>2026-03-28T08:09:51.94Z</time></trkpt><trkpt lat="43.6523222" lon="11.1833046"><ele>289.0</ele><time>2026-03-28T08:09:53.94Z</time></trkpt><trkpt lat="43.6523514" lon="11.1834139"><ele>289.0</ele><time>2026-03-28T08:09:54.94Z</time></trkpt><trkpt lat="43.6523973" lon="11.183513"><ele>289.0</ele><time>2026-03-28T08:09:55.939Z</time></trkpt><trkpt lat="43.6524529" lon="11.1836433"><ele>289.0</ele><time>2026-03-28T08:09:56.94Z</time></trkpt><trkpt lat="43.652524" lon="11.1837805"><ele>289.0</ele><time>2026-03-28T08:09:57.939Z</time></trkpt><trkpt lat="43.6526115" lon="11.18393"><ele>289.0</ele><time>2026-03-28T08:09:58.94Z</time></trkpt><trkpt lat="43.6527244" lon="11.184089"><ele>289.0</ele><time>2026-03-28T08:09:59.939Z</time></trkpt><trkpt lat="43.6528515" lon="11.1842446"><ele>290.0</ele><time>2026-03-28T08:10:00.939Z</time></trkpt><trkpt lat="43.6529963" lon="11.1843993"><ele>291.0</ele><time>2026-03-28T08:10:01.941Z</time></trkpt><trkpt lat="43.6531543" lon="11.1845341"><ele>292.0</ele><time>2026-03-28T08:10:02.941Z</time></trkpt><trkpt lat="43.6533244" lon="11.1846627"><ele>292.0</ele><time>2026-03-28T08:10:03.94Z</time></trkpt><trkpt lat="43.6535111" lon="11.1847636"><ele>292.0</ele><time>2026-03-28T08:10:04.94Z</time></trkpt><trkpt lat="43.6537114" lon="11.1848387"><ele>292.0</ele><time>2026-03-28T08:10:05.94Z</time></trkpt><trkpt lat="43.6539143" lon="11.1848854"><ele>289.66666666666663</ele><time>2026-03-28T08:10:06.941Z</time></trkpt><trkpt lat="43.6541292" lon="11.1849086"><ele>287.3333333333333</ele><time>2026-03-28T08:10:07.941Z</time></trkpt><trkpt lat="43.654347" lon="11.1849114"><ele>285.0</ele><time>2026-03-28T08:10:08.94Z</time></trkpt><trkpt lat="43.6545612" lon="11.1849068"><ele>285.0</ele><time>2026-03-28T08:10:09.941Z</time></trkpt><trkpt lat="43.6547583" lon="11.184903"><ele>285.0</ele><time>2026-03-28T08:10:10.941Z</time></trkpt><trkpt lat="43.6549381" lon="11.1849047"><ele>285.0</ele><time>2026-03-28T08:10:11.941Z</time></trkpt><trkpt lat="43.6550983" lon="11.1849074"><ele>285.0</ele><time>2026-03-28T08:10:12.941Z</time></trkpt><trkpt lat="43.6552196" lon="11.1849831"><ele>285.0</ele><time>2026-03-28T08:10:13.94Z</time></trkpt><trkpt lat="43.6553122" lon="11.1851024"><ele>285.0</ele><time>2026-03-28T08:10:14.94Z</time></trkpt><trkpt lat="43.6553885" lon="11.1852561"><ele>285.0</ele><time>2026-03-28T08:10:15.94Z</time></trkpt><trkpt lat="43.6554214" lon="11.1854289"><ele>285.75</ele><time>2026-03-28T08:10:16.941Z</time></trkpt><trkpt lat="43.6554097" lon="11.1856071"><ele>286.5</ele><time>2026-03-28T08:10:17.94Z</time></trkpt><trkpt lat="43.6553492" lon="11.1857706"><ele>287.25</ele><time>2026-03-28T08:10:18.94Z</time></trkpt><trkpt lat="43.655272" lon="11.1859458"><ele>288.0</ele><time>2026-03-28T08:10:19.94Z</time></trkpt><trkpt lat="43.6551705" lon="11.1861279"><ele>288.0</ele><time>2026-03-28T08:10:20.941Z</time></trkpt><trkpt lat="43.6550872" lon="11.1862954"><ele>288.0</ele><time>2026-03-28T08:10:21.94Z</time></trkpt><trkpt lat="43.6550172" lon="11.1864452"><ele>288.0</ele><time>2026-03-28T08:10:22.94Z</time></trkpt><trkpt lat="43.6549562" lon="11.1865753"><ele>288.0</ele><time>2026-03-28T08:10:23.939Z</time></trkpt><trkpt lat="43.6549061" lon="11.1866806"><ele>289.8333333333333</ele><time>2026-03-28T08:10:24.939Z</time></trkpt><trkpt lat="43.6548651" lon="11.1867565"><ele>291.6666666666667</ele><time>2026-03-28T08:10:25.94Z</time></trkpt><trkpt lat="43.6548344" lon="11.1868758"><ele>293.5</ele><time>2026-03-28T08:10:27.94Z</time></trkpt><trkpt lat="43.6548202" lon="11.1869615"><ele>295.33333333333337</ele><time>2026-03-28T08:10:46.939Z</time></trkpt><trkpt lat="43.6548389" lon="11.1870483"><ele>297.1666666666667</ele><time>2026-03-28T08:10:49.941Z</time></trkpt><trkpt lat="43.6549357" lon="11.1870676"><ele>299.0</ele><time>2026-03-28T08:10:53.941Z</time></trkpt><trkpt lat="43.6550306" lon="11.1871439"><ele>299.0</ele><time>2026-03-28T08:10:55.94Z</time></trkpt><trkpt lat="43.6550864" lon="11.187196"><ele>299.0</ele><time>2026-03-28T08:10:56.94Z</time></trkpt><trkpt lat="43.6551587" lon="11.1872506"><ele>299.0</ele><time>2026-03-28T08:10:57.941Z</time></trkpt><trkpt lat="43.6552443" lon="11.1873089"><ele>299.0</ele><time>2026-03-28T08:10:58.941Z</time></trkpt><trkpt lat="43.6553203" lon="11.1873556"><ele>299.0</ele><time>2026-03-28T08:10:59.938Z</time></trkpt><trkpt lat="43.6553881" lon="11.1873932"><ele>299.0</ele><time>2026-03-28T08:11:00.939Z</time></trkpt><trkpt lat="43.6554765" lon="11.1874609"><ele>299.8</ele><time>2026-03-28T08:11:02.94Z</time></trkpt><trkpt lat="43.6555116" lon="11.1875541"><ele>300.59999999999997</ele><time>2026-03-28T08:11:06.94Z</time></trkpt><trkpt lat="43.6554878" lon="11.187707"><ele>301.4</ele><time>2026-03-28T08:11:08.941Z</time></trkpt><trkpt lat="43.6554523" lon="11.1878239"><ele>302.2</ele><time>2026-03-28T08:11:09.941Z</time></trkpt><trkpt lat="43.6554141" lon="11.1879458"><ele>303.0</ele><time>2026-03-28T08:11:10.941Z</time></trkpt><trkpt lat="43.655374" lon="11.1880934"><ele>301.5</ele><time>2026-03-28T08:11:11.941Z</time></trkpt><trkpt lat="43.6553383" lon="11.1882527"><ele>300.0</ele><time>2026-03-28T08:11:12.939Z</time></trkpt><trkpt lat="43.6553096" lon="11.1884219"><ele>298.5</ele><time>2026-03-28T08:11:13.94Z</time></trkpt><trkpt lat="43.6552966" lon="11.1885701"><ele>297.0</ele><time>2026-03-28T08:11:14.939Z</time></trkpt><trkpt lat="43.6552904" lon="11.1887138"><ele>299.0</ele><time>2026-03-28T08:11:15.94Z</time></trkpt><trkpt lat="43.6552857" lon="11.1888595"><ele>301.0</ele><time>2026-03-28T08:11:16.941Z</time></trkpt><trkpt lat="43.6552833" lon="11.1889975"><ele>303.0</ele><time>2026-03-28T08:11:17.94Z</time></trkpt><trkpt lat="43.655281" lon="11.1891344"><ele>305.0</ele><time>2026-03-28T08:11:18.939Z</time></trkpt><trkpt lat="43.6552759" lon="11.1892741"><ele>307.0</ele><time>2026-03-28T08:11:19.94Z</time></trkpt><trkpt lat="43.6552588" lon="11.1894111"><ele>307.0</ele><time>2026-03-28T08:11:20.94Z</time></trkpt><trkpt lat="43.6552282" lon="11.189538"><ele>307.0</ele><time>2026-03-28T08:11:21.94Z</time></trkpt><trkpt lat="43.6551811" lon="11.189636"><ele>307.0</ele><time>2026-03-28T08:11:22.939Z</time></trkpt><trkpt lat="43.6551412" lon="11.1897255"><ele>307.0</ele><time>2026-03-28T08:11:23.94Z</time></trkpt><trkpt lat="43.6551016" lon="11.1898136"><ele>307.0</ele><time>2026-03-28T08:11:24.941Z</time></trkpt><trkpt lat="43.6550474" lon="11.1899352"><ele>307.0</ele><time>2026-03-28T08:11:26.94Z</time></trkpt><trkpt lat="43.6550861" lon="11.1900154"><ele>305.8</ele><time>2026-03-28T08:13:31.939Z</time></trkpt><trkpt lat="43.6551221" lon="11.1901625"><ele>304.6</ele><time>2026-03-28T08:13:33.94Z</time></trkpt><trkpt lat="43.6551387" lon="11.1902634"><ele>303.40000000000003</ele><time>2026-03-28T08:13:34.94Z</time></trkpt><trkpt lat="43.6551484" lon="11.1903827"><ele>302.2</ele><time>2026-03-28T08:13:35.941Z</time></trkpt><trkpt lat="43.6551534" lon="11.1905034"><ele>301.0</ele><time>2026-03-28T08:13:36.94Z</time></trkpt><trkpt lat="43.6551589" lon="11.1906358"><ele>299.6</ele><time>2026-03-28T08:13:37.941Z</time></trkpt><trkpt lat="43.6551606" lon="11.1907724"><ele>298.20000000000005</ele><time>2026-03-28T08:13:38.94Z</time></trkpt><trkpt lat="43.655156" lon="11.1909203"><ele>296.79999999999995</ele><time>2026-03-28T08:13:39.94Z</time></trkpt><trkpt lat="43.6551449" lon="11.1910677"><ele>295.4</ele><time>2026-03-28T08:13:40.94Z</time></trkpt><trkpt lat="43.6551211" lon="11.1912138"><ele>294.0</ele><time>2026-03-28T08:13:41.939Z</time></trkpt><trkpt lat="43.6550847" lon="11.1913705"><ele>293.25</ele><time>2026-03-28T08:13:42.94Z</time></trkpt><trkpt lat="43.6550388" lon="11.1915202"><ele>292.5</ele><time>2026-03-28T08:13:43.94Z</time></trkpt><trkpt lat="43.6549769" lon="11.1916775"><ele>291.75</ele><time>2026-03-28T08:13:44.941Z</time></trkpt><trkpt lat="43.6549154" lon="11.1918404"><ele>291.0</ele><time>2026-03-28T08:13:45.941Z</time></trkpt><trkpt lat="43.6548566" lon="11.1919984"><ele>291.0</ele><time>2026-03-28T08:13:46.941Z</time></trkpt><trkpt lat="43.6547943" lon="11.1921516"><ele>291.0</ele><time>2026-03-28T08:13:47.939Z</time></trkpt><trkpt lat="43.6547309" lon="11.1923159"><ele>291.0</ele><time>2026-03-28T08:13:48.94Z</time></trkpt><trkpt lat="43.6546653" lon="11.1924897"><ele>291.0</ele><time>2026-03-28T08:13:49.939Z</time></trkpt><trkpt lat="43.6546003" lon="11.1926573"><ele>291.0</ele><time>2026-03-28T08:13:50.94Z</time></trkpt><trkpt lat="43.6545276" lon="11.1928279"><ele>291.0</ele><time>2026-03-28T08:13:51.941Z</time></trkpt><trkpt lat="43.6544589" lon="11.1929961"><ele>291.0</ele><time>2026-03-28T08:13:52.94Z</time></trkpt><trkpt lat="43.6543953" lon="11.1931637"><ele>291.0</ele><time>2026-03-28T08:13:53.94Z</time></trkpt><trkpt lat="43.6543296" lon="11.1933432"><ele>289.75</ele><time>2026-03-28T08:13:54.94Z</time></trkpt><trkpt lat="43.6542627" lon="11.1935264"><ele>288.5</ele><time>2026-03-28T08:13:55.941Z</time></trkpt><trkpt lat="43.6541885" lon="11.1937059"><ele>287.25</ele><time>2026-03-28T08:13:56.94Z</time></trkpt><trkpt lat="43.6541258" lon="11.1938769"><ele>286.0</ele><time>2026-03-28T08:13:57.94Z</time></trkpt><trkpt lat="43.6540668" lon="11.194034"><ele>286.0</ele><time>2026-03-28T08:13:58.941Z</time></trkpt><trkpt lat="43.6540117" lon="11.1941867"><ele>286.0</ele><time>2026-03-28T08:13:59.941Z</time></trkpt><trkpt lat="43.653944" lon="11.1943433"><ele>286.0</ele><time>2026-03-28T08:14:00.94Z</time></trkpt><trkpt lat="43.6538617" lon="11.1945041"><ele>286.0</ele><time>2026-03-28T08:14:01.94Z</time></trkpt><trkpt lat="43.6537534" lon="11.1946431"><ele>286.0</ele><time>2026-03-28T08:14:02.94Z</time></trkpt><trkpt lat="43.6536296" lon="11.1947814"><ele>286.0</ele><time>2026-03-28T08:14:03.94Z</time></trkpt><trkpt lat="43.6534925" lon="11.1949211"><ele>286.0</ele><time>2026-03-28T08:14:04.94Z</time></trkpt><trkpt lat="43.6533501" lon="11.1950636"><ele>286.0</ele><time>2026-03-28T08:14:05.938Z</time></trkpt><trkpt lat="43.6532001" lon="11.1952025"><ele>286.0</ele><time>2026-03-28T08:14:06.94Z</time></trkpt><trkpt lat="43.653035" lon="11.1953287"><ele>286.0</ele><time>2026-03-28T08:14:07.94Z</time></trkpt><trkpt lat="43.652868" lon="11.1954364"><ele>286.66666666666663</ele><time>2026-03-28T08:14:08.941Z</time></trkpt><trkpt lat="43.6526893" lon="11.1955265"><ele>287.3333333333333</ele><time>2026-03-28T08:14:09.94Z</time></trkpt><trkpt lat="43.6525218" lon="11.1956284"><ele>288.0</ele><time>2026-03-28T08:14:10.94Z</time></trkpt><trkpt lat="43.6523655" lon="11.1957528"><ele>289.6666666666667</ele><time>2026-03-28T08:14:11.94Z</time></trkpt><trkpt lat="43.6522153" lon="11.1959103"><ele>291.33333333333337</ele><time>2026-03-28T08:14:12.941Z</time></trkpt><trkpt lat="43.6520698" lon="11.1960659"><ele>293.0</ele><time>2026-03-28T08:14:13.94Z</time></trkpt><trkpt lat="43.6519236" lon="11.1962127"><ele>295.6666666666667</ele><time>2026-03-28T08:14:14.94Z</time></trkpt><trkpt lat="43.6517739" lon="11.1963288"><ele>298.3333333333333</ele><time>2026-03-28T08:14:15.94Z</time></trkpt><trkpt lat="43.651621" lon="11.19642"><ele>301.0</ele><time>2026-03-28T08:14:16.941Z</time></trkpt><trkpt lat="43.6514601" lon="11.1964891"><ele>300.66666666666663</ele><time>2026-03-28T08:14:17.94Z</time></trkpt><trkpt lat="43.6512917" lon="11.1965486"><ele>300.3333333333333</ele><time>2026-03-28T08:14:18.94Z</time></trkpt><trkpt lat="43.651107" lon="11.1966175"><ele>300.0</ele><time>2026-03-28T08:14:19.941Z</time></trkpt><trkpt lat="43.6509188" lon="11.1967022"><ele>300.0</ele><time>2026-03-28T08:14:20.94Z</time></trkpt><trkpt lat="43.6507312" lon="11.1968018"><ele>300.0</ele><time>2026-03-28T08:14:21.941Z</time></trkpt><trkpt lat="43.6505382" lon="11.1969022"><ele>300.0</ele><time>2026-03-28T08:14:22.939Z</time></trkpt><trkpt lat="43.6503499" lon="11.1969961"><ele>299.6666666666667</ele><time>2026-03-28T08:14:23.94Z</time></trkpt><trkpt lat="43.6501708" lon="11.1970858"><ele>299.33333333333337</ele><time>2026-03-28T08:14:24.941Z</time></trkpt><trkpt lat="43.6500082" lon="11.1971678"><ele>299.0</ele><time>2026-03-28T08:14:25.941Z</time></trkpt><trkpt lat="43.64985" lon="11.1972451"><ele>299.0</ele><time>2026-03-28T08:14:26.94Z</time></trkpt><trkpt lat="43.6497136" lon="11.1973291"><ele>299.0</ele><time>2026-03-28T08:14:27.94Z</time></trkpt><trkpt lat="43.6496046" lon="11.197455"><ele>299.0</ele><time>2026-03-28T08:14:28.94Z</time></trkpt><trkpt lat="43.6495224" lon="11.1976169"><ele>299.0</ele><time>2026-03-28T08:14:29.941Z</time></trkpt><trkpt lat="43.6494674" lon="11.1978156"><ele>297.6666666666667</ele><time>2026-03-28T08:14:30.941Z</time></trkpt><trkpt lat="43.6494237" lon="11.1980161"><ele>296.3333333333333</ele><time>2026-03-28T08:14:31.939Z</time></trkpt><trkpt lat="43.6494028" lon="11.1982256"><ele>295.0</ele><time>2026-03-28T08:14:32.94Z</time></trkpt><trkpt lat="43.6493995" lon="11.1984445"><ele>293.3333333333333</ele><time>2026-03-28T08:14:33.94Z</time></trkpt><trkpt lat="43.6494152" lon="11.1986795"><ele>291.6666666666667</ele><time>2026-03-28T08:14:34.94Z</time></trkpt><trkpt lat="43.649431" lon="11.1989071"><ele>290.0</ele><time>2026-03-28T08:14:35.94Z</time></trkpt><trkpt lat="43.6494408" lon="11.1991202"><ele>290.0</ele><time>2026-03-28T08:14:36.939Z</time></trkpt><trkpt lat="43.649444" lon="11.1993286"><ele>290.0</ele><time>2026-03-28T08:14:37.94Z</time></trkpt><trkpt lat="43.6494384" lon="11.1995384"><ele>290.0</ele><time>2026-03-28T08:14:38.941Z</time></trkpt><trkpt lat="43.6494076" lon="11.199735"><ele>290.0</ele><time>2026-03-28T08:14:39.939Z</time></trkpt><trkpt lat="43.6493586" lon="11.1999308"><ele>290.0</ele><time>2026-03-28T08:14:40.94Z</time></trkpt><trkpt lat="43.6492892" lon="11.2001125"><ele>290.0</ele><time>2026-03-28T08:14:41.94Z</time></trkpt><trkpt lat="43.6492025" lon="11.20029"><ele>290.0</ele><time>2026-03-28T08:14:42.94Z</time></trkpt><trkpt lat="43.6491067" lon="11.2004607"><ele>290.0</ele><time>2026-03-28T08:14:43.941Z</time></trkpt><trkpt lat="43.6490087" lon="11.2006273"><ele>290.0</ele><time>2026-03-28T08:14:44.94Z</time></trkpt><trkpt lat="43.648914" lon="11.2007948"><ele>290.0</ele><time>2026-03-28T08:14:45.941Z</time></trkpt><trkpt lat="43.6488179" lon="11.2009602"><ele>292.0</ele><time>2026-03-28T08:14:46.941Z</time></trkpt><trkpt lat="43.6487188" lon="11.2011268"><ele>294.0</ele><time>2026-03-28T08:14:47.939Z</time></trkpt><trkpt lat="43.6486208" lon="11.2012884"><ele>296.0</ele><time>2026-03-28T08:14:48.94Z</time></trkpt><trkpt lat="43.6485221" lon="11.201435"><ele>296.5</ele><time>2026-03-28T08:14:49.94Z</time></trkpt><trkpt lat="43.6484172" lon="11.2015837"><ele>297.0</ele><time>2026-03-28T08:14:50.94Z</time></trkpt><trkpt lat="43.6483208" lon="11.2017443"><ele>297.5</ele><time>2026-03-28T08:14:51.94Z</time></trkpt><trkpt lat="43.6482406" lon="11.2019069"><ele>298.0</ele><time>2026-03-28T08:14:52.94Z</time></trkpt><trkpt lat="43.6481704" lon="11.2020695"><ele>298.0</ele><time>2026-03-28T08:14:53.94Z</time></trkpt><trkpt lat="43.6481142" lon="11.2022259"><ele>298.0</ele><time>2026-03-28T08:14:54.94Z</time></trkpt><trkpt lat="43.6480616" lon="11.202374"><ele>298.0</ele><time>2026-03-28T08:14:55.94Z</time></trkpt><trkpt lat="43.6480193" lon="11.2025041"><ele>298.0</ele><time>2026-03-28T08:14:56.94Z</time></trkpt><trkpt lat="43.6479775" lon="11.2026424"><ele>297.0</ele><time>2026-03-28T08:14:57.94Z</time></trkpt><trkpt lat="43.6479396" lon="11.2027934"><ele>296.0</ele><time>2026-03-28T08:14:58.94Z</time></trkpt><trkpt lat="43.6478899" lon="11.202965"><ele>295.0</ele><time>2026-03-28T08:14:59.94Z</time></trkpt><trkpt lat="43.6478262" lon="11.2031607"><ele>294.0</ele><time>2026-03-28T08:15:00.94Z</time></trkpt><trkpt lat="43.6477838" lon="11.203375"><ele>294.0</ele><time>2026-03-28T08:15:01.94Z</time></trkpt><trkpt lat="43.6477653" lon="11.2035952"><ele>294.0</ele><time>2026-03-28T08:15:02.94Z</time></trkpt><trkpt lat="43.6477707" lon="11.2038181"><ele>294.0</ele><time>2026-03-28T08:15:03.941Z</time></trkpt><trkpt lat="43.6478056" lon="11.204028"><ele>293.0</ele><time>2026-03-28T08:15:04.941Z</time></trkpt><trkpt lat="43.6478406" lon="11.2042231"><ele>292.0</ele><time>2026-03-28T08:15:05.94Z</time></trkpt><trkpt lat="43.6478841" lon="11.204374"><ele>291.0</ele><time>2026-03-28T08:15:06.94Z</time></trkpt><trkpt lat="43.6479458" lon="11.2045225"><ele>290.0</ele><time>2026-03-28T08:15:07.941Z</time></trkpt><trkpt lat="43.6480183" lon="11.204674"><ele>291.75</ele><time>2026-03-28T08:15:08.941Z</time></trkpt><trkpt lat="43.6480972" lon="11.204831"><ele>293.5</ele><time>2026-03-28T08:15:09.941Z</time></trkpt><trkpt lat="43.6481774" lon="11.2049939"><ele>295.25</ele><time>2026-03-28T08:15:10.941Z</time></trkpt><trkpt lat="43.6482572" lon="11.20516"><ele>297.0</ele><time>2026-03-28T08:15:11.94Z</time></trkpt><trkpt lat="43.6483382" lon="11.2053139"><ele>297.0</ele><time>2026-03-28T08:15:12.94Z</time></trkpt><trkpt lat="43.6484077" lon="11.2054557"><ele>297.0</ele><time>2026-03-28T08:15:13.94Z</time></trkpt><trkpt lat="43.6484709" lon="11.205583"><ele>297.0</ele><time>2026-03-28T08:15:14.941Z</time></trkpt><trkpt lat="43.6485251" lon="11.2057006"><ele>297.0</ele><time>2026-03-28T08:15:15.94Z</time></trkpt><trkpt lat="43.6485681" lon="11.2058029"><ele>297.0</ele><time>2026-03-28T08:15:16.94Z</time></trkpt><trkpt lat="43.6486433" lon="11.2059956"><ele>297.3333333333333</ele><time>2026-03-28T08:15:18.94Z</time></trkpt><trkpt lat="43.6486606" lon="11.2061547"><ele>297.6666666666667</ele><time>2026-03-28T08:15:20.941Z</time></trkpt><trkpt lat="43.6487034" lon="11.2062375"><ele>298.0</ele><time>2026-03-28T08:15:22.94Z</time></trkpt><trkpt lat="43.6488014" lon="11.206214"><ele>298.33333333333337</ele><time>2026-03-28T08:15:24.941Z</time></trkpt><trkpt lat="43.6488689" lon="11.2061889"><ele>298.6666666666667</ele><time>2026-03-28T08:15:25.94Z</time></trkpt><trkpt lat="43.6489345" lon="11.2061644"><ele>299.0</ele><time>2026-03-28T08:15:26.94Z</time></trkpt><trkpt lat="43.6490066" lon="11.2061367"><ele>299.0</ele><time>2026-03-28T08:15:27.939Z</time></trkpt><trkpt lat="43.6490769" lon="11.2061147"><ele>299.0</ele><time>2026-03-28T08:15:28.941Z</time></trkpt><trkpt lat="43.6491422" lon="11.2060949"><ele>299.0</ele><time>2026-03-28T08:15:29.94Z</time></trkpt><trkpt lat="43.6492093" lon="11.2060689"><ele>299.0</ele><time>2026-03-28T08:15:30.94Z</time></trkpt><trkpt lat="43.6492836" lon="11.2060482"><ele>299.0</ele><time>2026-03-28T08:15:31.941Z</time></trkpt><trkpt lat="43.6493565" lon="11.2060326"><ele>299.0</ele><time>2026-03-28T08:15:32.941Z</time></trkpt><trkpt lat="43.6494266" lon="11.2060306"><ele>299.0</ele><time>2026-03-28T08:15:33.941Z</time></trkpt><trkpt lat="43.6494974" lon="11.2060486"><ele>297.6666666666667</ele><time>2026-03-28T08:15:34.941Z</time></trkpt><trkpt lat="43.6495681" lon="11.2060823"><ele>296.33333333333337</ele><time>2026-03-28T08:15:35.941Z</time></trkpt><trkpt lat="43.6496444" lon="11.2061174"><ele>295.0</ele><time>2026-03-28T08:15:36.941Z</time></trkpt><trkpt lat="43.6497197" lon="11.2061589"><ele>293.6666666666667</ele><time>2026-03-28T08:15:37.941Z</time></trkpt><trkpt lat="43.6497967" lon="11.2062082"><ele>292.3333333333333</ele><time>2026-03-28T08:15:38.94Z</time></trkpt><trkpt lat="43.6498706" lon="11.2062518"><ele>291.0</ele><time>2026-03-28T08:15:39.94Z</time></trkpt><trkpt lat="43.649948" lon="11.2063053"><ele>291.0</ele><time>2026-03-28T08:15:40.94Z</time></trkpt><trkpt lat="43.6500322" lon="11.2063696"><ele>291.0</ele><time>2026-03-28T08:15:41.94Z</time></trkpt><trkpt lat="43.6501253" lon="11.2064348"><ele>291.0</ele><time>2026-03-28T08:15:42.94Z</time></trkpt><trkpt lat="43.6502141" lon="11.2065113"><ele>291.0</ele><time>2026-03-28T08:15:43.94Z</time></trkpt><trkpt lat="43.6503116" lon="11.2065912"><ele>291.0</ele><time>2026-03-28T08:15:44.941Z</time></trkpt><trkpt lat="43.650416" lon="11.2066825"><ele>289.0</ele><time>2026-03-28T08:15:45.94Z</time></trkpt><trkpt lat="43.6505107" lon="11.2067643"><ele>287.0</ele><time>2026-03-28T08:15:46.94Z</time></trkpt><trkpt lat="43.6506111" lon="11.2068491"><ele>285.0</ele><time>2026-03-28T08:15:47.939Z</time></trkpt><trkpt lat="43.6507119" lon="11.2069414"><ele>283.0</ele><time>2026-03-28T08:15:48.941Z</time></trkpt><trkpt lat="43.6508168" lon="11.2070234"><ele>283.0</ele><time>2026-03-28T08:15:49.94Z</time></trkpt><trkpt lat="43.650927" lon="11.2071145"><ele>283.0</ele><time>2026-03-28T08:15:50.94Z</time></trkpt><trkpt lat="43.6510356" lon="11.207205"><ele>283.0</ele><time>2026-03-28T08:15:51.939Z</time></trkpt><trkpt lat="43.6511383" lon="11.2072987"><ele>283.0</ele><time>2026-03-28T08:15:52.941Z</time></trkpt><trkpt lat="43.6512435" lon="11.2073917"><ele>282.5</ele><time>2026-03-28T08:15:53.94Z</time></trkpt><trkpt lat="43.6513546" lon="11.2074819"><ele>282.0</ele><time>2026-03-28T08:15:54.94Z</time></trkpt><trkpt lat="43.6514617" lon="11.2075716"><ele>281.5</ele><time>2026-03-28T08:15:55.94Z</time></trkpt><trkpt lat="43.6515772" lon="11.2076693"><ele>281.0</ele><time>2026-03-28T08:15:56.94Z</time></trkpt><trkpt lat="43.6516932" lon="11.2077685"><ele>281.0</ele><time>2026-03-28T08:15:57.94Z</time></trkpt><trkpt lat="43.6518137" lon="11.2078743"><ele>281.0</ele><time>2026-03-28T08:15:58.94Z</time></trkpt><trkpt lat="43.6519392" lon="11.2079881"><ele>281.0</ele><time>2026-03-28T08:15:59.94Z</time></trkpt><trkpt lat="43.6520632" lon="11.2080971"><ele>281.0</ele><time>2026-03-28T08:16:00.941Z</time></trkpt><trkpt lat="43.6521764" lon="11.2081938"><ele>279.25</ele><time>2026-03-28T08:16:01.941Z</time></trkpt><trkpt lat="43.6522894" lon="11.2082847"><ele>277.5</ele><time>2026-03-28T08:16:02.941Z</time></trkpt><trkpt lat="43.6524052" lon="11.2083733"><ele>275.75</ele><time>2026-03-28T08:16:03.941Z</time></trkpt><trkpt lat="43.6525207" lon="11.2084742"><ele>274.0</ele><time>2026-03-28T08:16:04.941Z</time></trkpt><trkpt lat="43.652626" lon="11.2085649"><ele>274.0</ele><time>2026-03-28T08:16:05.941Z</time></trkpt><trkpt lat="43.6527263" lon="11.2086525"><ele>274.0</ele><time>2026-03-28T08:16:06.941Z</time></trkpt><trkpt lat="43.6528118" lon="11.2087232"><ele>274.0</ele><time>2026-03-28T08:16:07.939Z</time></trkpt><trkpt lat="43.6529012" lon="11.2088002"><ele>274.0</ele><time>2026-03-28T08:16:08.94Z</time></trkpt><trkpt lat="43.6529906" lon="11.208878"><ele>274.0</ele><time>2026-03-28T08:16:09.939Z</time></trkpt><trkpt lat="43.6530771" lon="11.2089597"><ele>271.8</ele><time>2026-03-28T08:16:10.939Z</time></trkpt><trkpt lat="43.6531616" lon="11.2090531"><ele>269.59999999999997</ele><time>2026-03-28T08:16:11.94Z</time></trkpt><trkpt lat="43.6532347" lon="11.209141"><ele>267.4</ele><time>2026-03-28T08:16:12.94Z</time></trkpt><trkpt lat="43.6533033" lon="11.2092194"><ele>265.2</ele><time>2026-03-28T08:16:13.941Z</time></trkpt><trkpt lat="43.6533722" lon="11.2092995"><ele>263.0</ele><time>2026-03-28T08:16:14.941Z</time></trkpt><trkpt lat="43.6534381" lon="11.2093797"><ele>263.0</ele><time>2026-03-28T08:16:15.94Z</time></trkpt><trkpt lat="43.6534993" lon="11.2094528"><ele>263.0</ele><time>2026-03-28T08:16:16.94Z</time></trkpt><trkpt lat="43.6535529" lon="11.2095158"><ele>263.0</ele><time>2026-03-28T08:16:17.94Z</time></trkpt><trkpt lat="43.653601" lon="11.2095749"><ele>263.0</ele><time>2026-03-28T08:16:18.94Z</time></trkpt><trkpt lat="43.6536642" lon="11.2096313"><ele>263.0</ele><time>2026-03-28T08:16:19.94Z</time></trkpt><trkpt lat="43.6537401" lon="11.2096921"><ele>263.0</ele><time>2026-03-28T08:16:20.939Z</time></trkpt><trkpt lat="43.6538075" lon="11.2097399"><ele>262.5</ele><time>2026-03-28T08:16:21.94Z</time></trkpt><trkpt lat="43.6538694" lon="11.2097965"><ele>262.0</ele><time>2026-03-28T08:16:22.94Z</time></trkpt><trkpt lat="43.6539208" lon="11.209849"><ele>261.5</ele><time>2026-03-28T08:16:23.941Z</time></trkpt><trkpt lat="43.6539652" lon="11.2099138"><ele>261.0</ele><time>2026-03-28T08:16:24.939Z</time></trkpt><trkpt lat="43.654016" lon="11.2099873"><ele>260.5</ele><time>2026-03-28T08:16:25.94Z</time></trkpt><trkpt lat="43.6540745" lon="11.210051"><ele>260.0</ele><time>2026-03-28T08:16:26.94Z</time></trkpt><trkpt lat="43.6541674" lon="11.2101656"><ele>261.0</ele><time>2026-03-28T08:16:28.94Z</time></trkpt><trkpt lat="43.654236" lon="11.2102598"><ele>262.0</ele><time>2026-03-28T08:16:30.941Z</time></trkpt><trkpt lat="43.6542895" lon="11.2103151"><ele>263.0</ele><time>2026-03-28T08:16:32.94Z</time></trkpt><trkpt lat="43.6543543" lon="11.2103691"><ele>264.0</ele><time>2026-03-28T08:16:34.94Z</time></trkpt><trkpt lat="43.6544129" lon="11.2104261"><ele>265.0</ele><time>2026-03-28T08:16:36.94Z</time></trkpt><trkpt lat="43.6544647" lon="11.2104759"><ele>266.0</ele><time>2026-03-28T08:16:44.941Z</time></trkpt><trkpt lat="43.6545356" lon="11.21055"><ele>266.0</ele><time>2026-03-28T08:16:46.94Z</time></trkpt><trkpt lat="43.6546284" lon="11.2106592"><ele>266.0</ele><time>2026-03-28T08:16:48.939Z</time></trkpt><trkpt lat="43.6546776" lon="11.2107322"><ele>266.0</ele><time>2026-03-28T08:16:49.94Z</time></trkpt><trkpt lat="43.6547202" lon="11.210816"><ele>266.0</ele><time>2026-03-28T08:16:50.941Z</time></trkpt><trkpt lat="43.6547664" lon="11.2109016"><ele>266.0</ele><time>2026-03-28T08:16:51.94Z</time></trkpt><trkpt lat="43.6548175" lon="11.2109882"><ele>266.0</ele><time>2026-03-28T08:16:52.94Z</time></trkpt><trkpt lat="43.6548757" lon="11.2110767"><ele>266.0</ele><time>2026-03-28T08:16:53.94Z</time></trkpt><trkpt lat="43.6549364" lon="11.2111648"><ele>266.0</ele><time>2026-03-28T08:16:54.941Z</time></trkpt><trkpt lat="43.6549961" lon="11.2112545"><ele>266.0</ele><time>2026-03-28T08:16:55.94Z</time></trkpt><trkpt lat="43.6550613" lon="11.2113446"><ele>266.0</ele><time>2026-03-28T08:16:56.94Z</time></trkpt><trkpt lat="43.6551247" lon="11.2114397"><ele>266.0</ele><time>2026-03-28T08:16:57.94Z</time></trkpt><trkpt lat="43.6551796" lon="11.2115316"><ele>266.0</ele><time>2026-03-28T08:16:58.94Z</time></trkpt><trkpt lat="43.65523" lon="11.2116165"><ele>265.33333333333337</ele><time>2026-03-28T08:16:59.94Z</time></trkpt><trkpt lat="43.6552766" lon="11.2117088"><ele>264.6666666666667</ele><time>2026-03-28T08:17:00.941Z</time></trkpt><trkpt lat="43.6553238" lon="11.2117893"><ele>264.0</ele><time>2026-03-28T08:17:01.941Z</time></trkpt><trkpt lat="43.6553739" lon="11.2118691"><ele>263.3333333333333</ele><time>2026-03-28T08:17:02.94Z</time></trkpt><trkpt lat="43.6554315" lon="11.2119408"><ele>262.66666666666663</ele><time>2026-03-28T08:17:03.941Z</time></trkpt><trkpt lat="43.6554868" lon="11.2119894"><ele>262.0</ele><time>2026-03-28T08:17:04.941Z</time></trkpt><trkpt lat="43.6555548" lon="11.2120326"><ele>262.0</ele><time>2026-03-28T08:17:05.941Z</time></trkpt><trkpt lat="43.6556459" lon="11.2120737"><ele>262.0</ele><time>2026-03-28T08:17:06.94Z</time></trkpt><trkpt lat="43.655743" lon="11.2121028"><ele>262.0</ele><time>2026-03-28T08:17:07.941Z</time></trkpt><trkpt lat="43.6558316" lon="11.2121216"><ele>262.0</ele><time>2026-03-28T08:17:08.939Z</time></trkpt><trkpt lat="43.6559129" lon="11.2121368"><ele>262.0</ele><time>2026-03-28T08:17:09.94Z</time></trkpt><trkpt lat="43.6559967" lon="11.212141"><ele>262.0</ele><time>2026-03-28T08:17:10.94Z</time></trkpt><trkpt lat="43.6560948" lon="11.212159"><ele>262.0</ele><time>2026-03-28T08:17:11.94Z</time></trkpt><trkpt lat="43.6562069" lon="11.2121856"><ele>262.0</ele><time>2026-03-28T08:17:12.94Z</time></trkpt><trkpt lat="43.6563151" lon="11.2122083"><ele>262.0</ele><time>2026-03-28T08:17:13.94Z</time></trkpt><trkpt lat="43.6564151" lon="11.2122407"><ele>262.0</ele><time>2026-03-28T08:17:14.941Z</time></trkpt><trkpt lat="43.6565185" lon="11.2122786"><ele>262.4</ele><time>2026-03-28T08:17:15.94Z</time></trkpt><trkpt lat="43.656623" lon="11.212323"><ele>262.79999999999995</ele><time>2026-03-28T08:17:16.94Z</time></trkpt><trkpt lat="43.6567157" lon="11.2123699"><ele>263.2</ele><time>2026-03-28T08:17:17.94Z</time></trkpt><trkpt lat="43.6567994" lon="11.2124165"><ele>263.59999999999997</ele><time>2026-03-28T08:17:18.94Z</time></trkpt><trkpt lat="43.6568858" lon="11.2124674"><ele>264.0</ele><time>2026-03-28T08:17:19.941Z</time></trkpt><trkpt lat="43.6569599" lon="11.2125185"><ele>259.5</ele><time>2026-03-28T08:17:20.941Z</time></trkpt><trkpt lat="43.6570348" lon="11.2125629"><ele>255.0</ele><time>2026-03-28T08:17:21.94Z</time></trkpt><trkpt lat="43.6571101" lon="11.2125975"><ele>250.5</ele><time>2026-03-28T08:17:22.94Z</time></trkpt><trkpt lat="43.6571875" lon="11.212618"><ele>246.0</ele><time>2026-03-28T08:17:23.941Z</time></trkpt><trkpt lat="43.6572573" lon="11.2126286"><ele>241.5</ele><time>2026-03-28T08:17:24.941Z</time></trkpt><trkpt lat="43.6573455" lon="11.2126523"><ele>237.0</ele><time>2026-03-28T08:17:25.94Z</time></trkpt><trkpt lat="43.6574248" lon="11.2126631"><ele>237.0</ele><time>2026-03-28T08:17:26.94Z</time></trkpt><trkpt lat="43.657505" lon="11.2126639"><ele>237.0</ele><time>2026-03-28T08:17:27.941Z</time></trkpt><trkpt lat="43.657589" lon="11.2126459"><ele>237.0</ele><time>2026-03-28T08:17:28.941Z</time></trkpt><trkpt lat="43.657666" lon="11.2126074"><ele>237.0</ele><time>2026-03-28T08:17:29.94Z</time></trkpt><trkpt lat="43.657732" lon="11.2125606"><ele>237.0</ele><time>2026-03-28T08:17:30.941Z</time></trkpt><trkpt lat="43.6577861" lon="11.2124999"><ele>237.0</ele><time>2026-03-28T08:17:31.94Z</time></trkpt><trkpt lat="43.6578437" lon="11.2123626"><ele>236.8</ele><time>2026-03-28T08:17:33.94Z</time></trkpt><trkpt lat="43.6578439" lon="11.2121938"><ele>236.6</ele><time>2026-03-28T08:17:35.94Z</time></trkpt><trkpt lat="43.6578483" lon="11.2120281"><ele>236.40000000000003</ele><time>2026-03-28T08:17:37.942Z</time></trkpt><trkpt lat="43.6579064" lon="11.2119413"><ele>236.20000000000002</ele><time>2026-03-28T08:17:39.941Z</time></trkpt><trkpt lat="43.657976" lon="11.2119424"><ele>236.0</ele><time>2026-03-28T08:17:41.94Z</time></trkpt><trkpt lat="43.658058" lon="11.2119984"><ele>236.00000000000003</ele><time>2026-03-28T08:17:43.94Z</time></trkpt><trkpt lat="43.658128" lon="11.212046"><ele>236.0</ele><time>2026-03-28T08:17:45.941Z</time></trkpt><trkpt lat="43.6581857" lon="11.2120878"><ele>236.0</ele><time>2026-03-28T08:17:47.941Z</time></trkpt><trkpt lat="43.6582486" lon="11.2121205"><ele>236.0</ele><time>2026-03-28T08:18:27.94Z</time></trkpt><trkpt lat="43.6583522" lon="11.2121383"><ele>236.00000000000003</ele><time>2026-03-28T08:18:30.94Z</time></trkpt><trkpt lat="43.6584571" lon="11.2121083"><ele>236.0</ele><time>2026-03-28T08:18:32.94Z</time></trkpt><trkpt lat="43.6585041" lon="11.2120458"><ele>236.00000000000003</ele><time>2026-03-28T08:18:33.94Z</time></trkpt><trkpt lat="43.6585561" lon="11.2119813"><ele>236.0</ele><time>2026-03-28T08:18:34.94Z</time></trkpt><trkpt lat="43.6586021" lon="11.2118917"><ele>236.0</ele><time>2026-03-28T08:18:35.94Z</time></trkpt><trkpt lat="43.6586577" lon="11.2117924"><ele>236.0</ele><time>2026-03-28T08:18:36.94Z</time></trkpt><trkpt lat="43.658717" lon="11.2116807"><ele>236.00000000000003</ele><time>2026-03-28T08:18:37.94Z</time></trkpt><trkpt lat="43.6587777" lon="11.2115681"><ele>236.0</ele><time>2026-03-28T08:18:38.94Z</time></trkpt><trkpt lat="43.6588404" lon="11.2114515"><ele>235.50000000000003</ele><time>2026-03-28T08:18:39.94Z</time></trkpt><trkpt lat="43.6588999" lon="11.2113333"><ele>235.0</ele><time>2026-03-28T08:18:40.941Z</time></trkpt><trkpt lat="43.6589554" lon="11.2112227"><ele>234.5</ele><time>2026-03-28T08:18:41.941Z</time></trkpt><trkpt lat="43.6590069" lon="11.2111232"><ele>234.0</ele><time>2026-03-28T08:18:42.939Z</time></trkpt><trkpt lat="43.659074" lon="11.2110677"><ele>233.50000000000003</ele><time>2026-03-28T08:18:43.94Z</time></trkpt><trkpt lat="43.6591359" lon="11.2110068"><ele>233.0</ele><time>2026-03-28T08:18:44.941Z</time></trkpt><trkpt lat="43.6592394" lon="11.2109891"><ele>233.0</ele><time>2026-03-28T08:18:45.94Z</time></trkpt><trkpt lat="43.6593291" lon="11.2109442"><ele>233.0</ele><time>2026-03-28T08:18:46.94Z</time></trkpt><trkpt lat="43.6594281" lon="11.2109083"><ele>233.0</ele><time>2026-03-28T08:18:47.941Z</time></trkpt><trkpt lat="43.6595292" lon="11.210877"><ele>233.0</ele><time>2026-03-28T08:18:48.94Z</time></trkpt><trkpt lat="43.659623" lon="11.2108513"><ele>233.0</ele><time>2026-03-28T08:18:49.94Z</time></trkpt><trkpt lat="43.6597154" lon="11.2108283"><ele>229.66666666666669</ele><time>2026-03-28T08:18:50.94Z</time></trkpt><trkpt lat="43.6597875" lon="11.2107937"><ele>226.33333333333334</ele><time>2026-03-28T08:18:51.941Z</time></trkpt><trkpt lat="43.6598562" lon="11.2107517"><ele>223.0</ele><time>2026-03-28T08:18:52.939Z</time></trkpt><trkpt lat="43.6599267" lon="11.2106946"><ele>219.66666666666669</ele><time>2026-03-28T08:18:53.94Z</time></trkpt><trkpt lat="43.6599859" lon="11.2106201"><ele>216.33333333333334</ele><time>2026-03-28T08:18:54.94Z</time></trkpt><trkpt lat="43.66004" lon="11.2105573"><ele>213.0</ele><time>2026-03-28T08:18:55.94Z</time></trkpt><trkpt lat="43.6601016" lon="11.2105052"><ele>213.0</ele><time>2026-03-28T08:18:56.941Z</time></trkpt><trkpt lat="43.6601626" lon="11.2104574"><ele>213.0</ele><time>2026-03-28T08:18:57.941Z</time></trkpt><trkpt lat="43.6602295" lon="11.2104205"><ele>213.0</ele><time>2026-03-28T08:18:58.941Z</time></trkpt><trkpt lat="43.6603009" lon="11.2103898"><ele>213.0</ele><time>2026-03-28T08:18:59.94Z</time></trkpt><trkpt lat="43.6604076" lon="11.2104026"><ele>213.0</ele><time>2026-03-28T08:19:01.941Z</time></trkpt><trkpt lat="43.6604745" lon="11.2104376"><ele>213.0</ele><time>2026-03-28T08:19:03.941Z</time></trkpt><trkpt lat="43.6604402" lon="11.2105156"><ele>213.0</ele><time>2026-03-28T08:19:07.941Z</time></trkpt><trkpt lat="43.6603722" lon="11.2105352"><ele>213.0</ele><time>2026-03-28T08:19:10.941Z</time></trkpt><trkpt lat="43.6603097" lon="11.2105854"><ele>213.0</ele><time>2026-03-28T08:19:13.941Z</time></trkpt><trkpt lat="43.6602526" lon="11.210647"><ele>213.0</ele><time>2026-03-28T08:19:16.94Z</time></trkpt><trkpt lat="43.6602097" lon="11.2107145"><ele>213.0</ele><time>2026-03-28T08:19:18.94Z</time></trkpt><trkpt lat="43.6601703" lon="11.2108034"><ele>213.0</ele><time>2026-03-28T08:19:20.941Z</time></trkpt><trkpt lat="43.6601285" lon="11.2109753"><ele>211.66666666666666</ele><time>2026-03-28T08:19:22.94Z</time></trkpt><trkpt lat="43.6600911" lon="11.2110597"><ele>210.33333333333331</ele><time>2026-03-28T08:19:23.939Z</time></trkpt><trkpt lat="43.6600416" lon="11.2111464"><ele>209.0</ele><time>2026-03-28T08:19:24.94Z</time></trkpt><trkpt lat="43.6599892" lon="11.2112255"><ele>207.66666666666666</ele><time>2026-03-28T08:19:25.94Z</time></trkpt><trkpt lat="43.6599341" lon="11.2112925"><ele>206.33333333333331</ele><time>2026-03-28T08:19:26.941Z</time></trkpt><trkpt lat="43.6598732" lon="11.2113505"><ele>205.0</ele><time>2026-03-28T08:19:27.941Z</time></trkpt><trkpt lat="43.6597949" lon="11.2114026"><ele>205.0</ele><time>2026-03-28T08:19:28.941Z</time></trkpt><trkpt lat="43.6597196" lon="11.2114555"><ele>205.0</ele><time>2026-03-28T08:19:29.94Z</time></trkpt><trkpt lat="43.6596563" lon="11.2115227"><ele>205.0</ele><time>2026-03-28T08:19:30.94Z</time></trkpt><trkpt lat="43.6595874" lon="11.2116435"><ele>205.0</ele><time>2026-03-28T08:19:31.94Z</time></trkpt><trkpt lat="43.6595168" lon="11.2117664"><ele>205.0</ele><time>2026-03-28T08:19:32.942Z</time></trkpt><trkpt lat="43.6594362" lon="11.2118791"><ele>206.6</ele><time>2026-03-28T08:19:33.94Z</time></trkpt><trkpt lat="43.6593719" lon="11.2119915"><ele>208.2</ele><time>2026-03-28T08:19:34.942Z</time></trkpt><trkpt lat="43.6593016" lon="11.2121048"><ele>209.8</ele><time>2026-03-28T08:19:35.94Z</time></trkpt><trkpt lat="43.6592525" lon="11.2122286"><ele>211.4</ele><time>2026-03-28T08:19:36.94Z</time></trkpt><trkpt lat="43.6592119" lon="11.2123432"><ele>213.0</ele><time>2026-03-28T08:19:37.94Z</time></trkpt><trkpt lat="43.6591761" lon="11.2124615"><ele>208.8</ele><time>2026-03-28T08:19:38.94Z</time></trkpt><trkpt lat="43.6591434" lon="11.2125751"><ele>204.60000000000002</ele><time>2026-03-28T08:19:39.94Z</time></trkpt><trkpt lat="43.6590787" lon="11.2126643"><ele>200.39999999999998</ele><time>2026-03-28T08:19:40.941Z</time></trkpt><trkpt lat="43.6590179" lon="11.2127503"><ele>196.2</ele><time>2026-03-28T08:19:41.939Z</time></trkpt><trkpt lat="43.658975" lon="11.2129208"><ele>192.0</ele><time>2026-03-28T08:19:42.941Z</time></trkpt><trkpt lat="43.6589318" lon="11.2130586"><ele>189.8</ele><time>2026-03-28T08:19:43.94Z</time></trkpt><trkpt lat="43.6588795" lon="11.2131709"><ele>187.6</ele><time>2026-03-28T08:19:44.94Z</time></trkpt><trkpt lat="43.6588294" lon="11.2132717"><ele>185.4</ele><time>2026-03-28T08:19:45.94Z</time></trkpt><trkpt lat="43.6587773" lon="11.2133538"><ele>183.20000000000002</ele><time>2026-03-28T08:19:46.941Z</time></trkpt><trkpt lat="43.65871" lon="11.2134801"><ele>181.0</ele><time>2026-03-28T08:19:48.94Z</time></trkpt><trkpt lat="43.6587455" lon="11.2136285"><ele>181.0</ele><time>2026-03-28T08:19:50.941Z</time></trkpt><trkpt lat="43.658796" lon="11.2137169"><ele>181.0</ele><time>2026-03-28T08:19:51.94Z</time></trkpt><trkpt lat="43.658857" lon="11.2138126"><ele>181.0</ele><time>2026-03-28T08:19:52.94Z</time></trkpt><trkpt lat="43.6589301" lon="11.2139257"><ele>181.0</ele><time>2026-03-28T08:19:53.942Z</time></trkpt><trkpt lat="43.6590052" lon="11.2140656"><ele>181.0</ele><time>2026-03-28T08:19:54.941Z</time></trkpt><trkpt lat="43.6590763" lon="11.2141933"><ele>180.25</ele><time>2026-03-28T08:19:55.941Z</time></trkpt><trkpt lat="43.6591607" lon="11.2143022"><ele>179.5</ele><time>2026-03-28T08:19:56.941Z</time></trkpt><trkpt lat="43.6592554" lon="11.2143997"><ele>178.75</ele><time>2026-03-28T08:19:57.941Z</time></trkpt><trkpt lat="43.6593676" lon="11.2144798"><ele>178.0</ele><time>2026-03-28T08:19:58.939Z</time></trkpt><trkpt lat="43.6594823" lon="11.2145398"><ele>178.0</ele><time>2026-03-28T08:19:59.94Z</time></trkpt><trkpt lat="43.6595755" lon="11.2145923"><ele>178.0</ele><time>2026-03-28T08:20:00.94Z</time></trkpt><trkpt lat="43.659656" lon="11.2146735"><ele>178.0</ele><time>2026-03-28T08:20:01.942Z</time></trkpt><trkpt lat="43.659719" lon="11.2147717"><ele>178.0</ele><time>2026-03-28T08:20:02.941Z</time></trkpt><trkpt lat="43.6597666" lon="11.2148434"><ele>178.0</ele><time>2026-03-28T08:20:03.941Z</time></trkpt><trkpt lat="43.659861" lon="11.2149367"><ele>178.2</ele><time>2026-03-28T08:20:05.941Z</time></trkpt><trkpt lat="43.659959" lon="11.2149468"><ele>178.4</ele><time>2026-03-28T08:20:07.941Z</time></trkpt><trkpt lat="43.660067" lon="11.2149433"><ele>178.6</ele><time>2026-03-28T08:20:09.941Z</time></trkpt><trkpt lat="43.6601825" lon="11.2149423"><ele>178.79999999999998</ele><time>2026-03-28T08:20:11.941Z</time></trkpt><trkpt lat="43.6602496" lon="11.2149446"><ele>179.0</ele><time>2026-03-28T08:20:12.942Z</time></trkpt><trkpt lat="43.6603135" lon="11.2149442"><ele>179.0</ele><time>2026-03-28T08:20:13.94Z</time></trkpt><trkpt lat="43.6604269" lon="11.2149465"><ele>179.0</ele><time>2026-03-28T08:20:15.941Z</time></trkpt><trkpt lat="43.660549" lon="11.2149484"><ele>179.0</ele><time>2026-03-28T08:20:17.94Z</time></trkpt><trkpt lat="43.6606165" lon="11.2149545"><ele>179.0</ele><time>2026-03-28T08:20:18.94Z</time></trkpt><trkpt lat="43.6607001" lon="11.2149561"><ele>179.0</ele><time>2026-03-28T08:20:19.941Z</time></trkpt><trkpt lat="43.6607793" lon="11.2149545"><ele>179.0</ele><time>2026-03-28T08:20:20.941Z</time></trkpt><trkpt lat="43.6608661" lon="11.2149528"><ele>179.0</ele><time>2026-03-28T08:20:21.941Z</time></trkpt><trkpt lat="43.6609489" lon="11.2149542"><ele>179.0</ele><time>2026-03-28T08:20:22.94Z</time></trkpt><trkpt lat="43.6610379" lon="11.2149497"><ele>179.0</ele><time>2026-03-28T08:20:23.941Z</time></trkpt><trkpt lat="43.6611202" lon="11.2149503"><ele>179.0</ele><time>2026-03-28T08:20:24.941Z</time></trkpt><trkpt lat="43.6612011" lon="11.2149387"><ele>179.0</ele><time>2026-03-28T08:20:25.942Z</time></trkpt><trkpt lat="43.661279" lon="11.21492"><ele>178.00000000000003</ele><time>2026-03-28T08:20:26.941Z</time></trkpt><trkpt lat="43.6613456" lon="11.2148896"><ele>177.0</ele><time>2026-03-28T08:20:27.941Z</time></trkpt><trkpt lat="43.6614059" lon="11.2148337"><ele>176.0</ele><time>2026-03-28T08:20:28.941Z</time></trkpt><trkpt lat="43.6614544" lon="11.2147581"><ele>175.0</ele><time>2026-03-28T08:20:29.941Z</time></trkpt><trkpt lat="43.6615053" lon="11.2146756"><ele>174.0</ele><time>2026-03-28T08:20:30.94Z</time></trkpt><trkpt lat="43.6615571" lon="11.2145999"><ele>173.00000000000003</ele><time>2026-03-28T08:20:31.941Z</time></trkpt><trkpt lat="43.6616122" lon="11.2145201"><ele>172.0</ele><time>2026-03-28T08:20:32.942Z</time></trkpt><trkpt lat="43.6616735" lon="11.2144396"><ele>172.00000000000003</ele><time>2026-03-28T08:20:33.941Z</time></trkpt><trkpt lat="43.6617395" lon="11.2143688"><ele>172.0</ele><time>2026-03-28T08:20:34.941Z</time></trkpt><trkpt lat="43.6618007" lon="11.2143022"><ele>172.0</ele><time>2026-03-28T08:20:35.942Z</time></trkpt><trkpt lat="43.6618637" lon="11.2142603"><ele>172.0</ele><time>2026-03-28T08:20:36.941Z</time></trkpt><trkpt lat="43.6619294" lon="11.2142136"><ele>172.0</ele><time>2026-03-28T08:20:37.941Z</time></trkpt><trkpt lat="43.6619951" lon="11.2141712"><ele>172.00000000000003</ele><time>2026-03-28T08:20:38.94Z</time></trkpt><trkpt lat="43.6620631" lon="11.2141602"><ele>172.0</ele><time>2026-03-28T08:20:39.939Z</time></trkpt><trkpt lat="43.6622078" lon="11.2141608"><ele>170.66666666666669</ele><time>2026-03-28T08:20:41.942Z</time></trkpt><trkpt lat="43.662333" lon="11.2141582"><ele>169.33333333333334</ele><time>2026-03-28T08:20:43.941Z</time></trkpt><trkpt lat="43.6624003" lon="11.2141689"><ele>168.0</ele><time>2026-03-28T08:20:44.939Z</time></trkpt><trkpt lat="43.6624675" lon="11.2142142"><ele>166.66666666666666</ele><time>2026-03-28T08:20:45.94Z</time></trkpt><trkpt lat="43.6625043" lon="11.2142876"><ele>165.33333333333331</ele><time>2026-03-28T08:20:46.941Z</time></trkpt><trkpt lat="43.6625496" lon="11.2143855"><ele>164.0</ele><time>2026-03-28T08:20:47.939Z</time></trkpt><trkpt lat="43.66258" lon="11.2145132"><ele>164.0</ele><time>2026-03-28T08:20:48.941Z</time></trkpt><trkpt lat="43.6626093" lon="11.2146769"><ele>164.0</ele><time>2026-03-28T08:20:49.941Z</time></trkpt><trkpt lat="43.6626326" lon="11.2148514"><ele>164.0</ele><time>2026-03-28T08:20:50.941Z</time></trkpt><trkpt lat="43.6626644" lon="11.2150686"><ele>164.0</ele><time>2026-03-28T08:20:51.941Z</time></trkpt><trkpt lat="43.6626834" lon="11.2152711"><ele>161.25</ele><time>2026-03-28T08:20:52.939Z</time></trkpt><trkpt lat="43.6626917" lon="11.2154637"><ele>158.5</ele><time>2026-03-28T08:20:53.939Z</time></trkpt><trkpt lat="43.6626842" lon="11.215653"><ele>155.75</ele><time>2026-03-28T08:20:54.941Z</time></trkpt><trkpt lat="43.6626672" lon="11.2158257"><ele>153.0</ele><time>2026-03-28T08:20:55.94Z</time></trkpt><trkpt lat="43.6626503" lon="11.2159857"><ele>151.8</ele><time>2026-03-28T08:20:56.94Z</time></trkpt><trkpt lat="43.6626403" lon="11.216127"><ele>150.60000000000002</ele><time>2026-03-28T08:20:57.94Z</time></trkpt><trkpt lat="43.6626197" lon="11.2162609"><ele>149.39999999999998</ele><time>2026-03-28T08:20:58.941Z</time></trkpt><trkpt lat="43.6626062" lon="11.2163682"><ele>148.2</ele><time>2026-03-28T08:20:59.941Z</time></trkpt><trkpt lat="43.6625946" lon="11.2164586"><ele>147.0</ele><time>2026-03-28T08:21:00.94Z</time></trkpt><trkpt lat="43.6626524" lon="11.216583"><ele>142.5</ele><time>2026-03-28T08:21:02.942Z</time></trkpt><trkpt lat="43.6627917" lon="11.2166168"><ele>138.0</ele><time>2026-03-28T08:21:04.94Z</time></trkpt><trkpt lat="43.66288" lon="11.2166079"><ele>133.5</ele><time>2026-03-28T08:21:05.941Z</time></trkpt><trkpt lat="43.6629832" lon="11.2165838"><ele>129.0</ele><time>2026-03-28T08:21:06.94Z</time></trkpt><trkpt lat="43.6630977" lon="11.2165515"><ele>129.0</ele><time>2026-03-28T08:21:07.94Z</time></trkpt><trkpt lat="43.6632032" lon="11.2165165"><ele>129.0</ele><time>2026-03-28T08:21:08.942Z</time></trkpt><trkpt lat="43.6633191" lon="11.2164915"><ele>129.0</ele><time>2026-03-28T08:21:09.941Z</time></trkpt><trkpt lat="43.6634464" lon="11.216488"><ele>129.0</ele><time>2026-03-28T08:21:10.94Z</time></trkpt><trkpt lat="43.6635822" lon="11.2164949"><ele>127.25</ele><time>2026-03-28T08:21:11.941Z</time></trkpt><trkpt lat="43.6637049" lon="11.2165156"><ele>125.5</ele><time>2026-03-28T08:21:12.94Z</time></trkpt><trkpt lat="43.6638275" lon="11.2165401"><ele>123.75</ele><time>2026-03-28T08:21:13.941Z</time></trkpt><trkpt lat="43.6639349" lon="11.2165697"><ele>122.0</ele><time>2026-03-28T08:21:14.941Z</time></trkpt><trkpt lat="43.6640506" lon="11.216601"><ele>122.0</ele><time>2026-03-28T08:21:15.941Z</time></trkpt><trkpt lat="43.6641695" lon="11.2166263"><ele>122.0</ele><time>2026-03-28T08:21:16.94Z</time></trkpt><trkpt lat="43.6642998" lon="11.216628"><ele>122.0</ele><time>2026-03-28T08:21:17.94Z</time></trkpt><trkpt lat="43.6644245" lon="11.2166249"><ele>122.0</ele><time>2026-03-28T08:21:18.941Z</time></trkpt><trkpt lat="43.6645379" lon="11.2166128"><ele>120.6</ele><time>2026-03-28T08:21:19.941Z</time></trkpt><trkpt lat="43.6646411" lon="11.2165976"><ele>119.19999999999999</ele><time>2026-03-28T08:21:20.941Z</time></trkpt><trkpt lat="43.6647122" lon="11.2166038"><ele>117.8</ele><time>2026-03-28T08:21:21.941Z</time></trkpt><trkpt lat="43.6647827" lon="11.2166297"><ele>116.4</ele><time>2026-03-28T08:21:22.941Z</time></trkpt><trkpt lat="43.6648553" lon="11.2167428"><ele>115.0</ele><time>2026-03-28T08:21:24.94Z</time></trkpt><trkpt lat="43.664849" lon="11.2169008"><ele>115.00000000000001</ele><time>2026-03-28T08:21:26.941Z</time></trkpt><trkpt lat="43.6648228" lon="11.2170461"><ele>115.0</ele><time>2026-03-28T08:21:28.942Z</time></trkpt><trkpt lat="43.6648047" lon="11.2171617"><ele>115.0</ele><time>2026-03-28T08:21:30.941Z</time></trkpt><trkpt lat="43.6648559" lon="11.2172567"><ele>115.0</ele><time>2026-03-28T08:21:33.941Z</time></trkpt><trkpt lat="43.6649275" lon="11.2172856"><ele>115.00000000000001</ele><time>2026-03-28T08:21:36.941Z</time></trkpt><trkpt lat="43.6650105" lon="11.2173135"><ele>115.0</ele><time>2026-03-28T08:21:39.94Z</time></trkpt><trkpt lat="43.6650864" lon="11.2173382"><ele>114.6</ele><time>2026-03-28T08:21:42.94Z</time></trkpt><trkpt lat="43.6651724" lon="11.2173694"><ele>114.2</ele><time>2026-03-28T08:21:45.942Z</time></trkpt><trkpt lat="43.6652608" lon="11.2174012"><ele>113.80000000000001</ele><time>2026-03-28T08:21:47.94Z</time></trkpt><trkpt lat="43.6653918" lon="11.2174433"><ele>113.4</ele><time>2026-03-28T08:21:49.939Z</time></trkpt><trkpt lat="43.6654706" lon="11.2174772"><ele>113.0</ele><time>2026-03-28T08:21:50.94Z</time></trkpt><trkpt lat="43.6655423" lon="11.2175087"><ele>112.4</ele><time>2026-03-28T08:21:51.94Z</time></trkpt><trkpt lat="43.6656187" lon="11.2175421"><ele>111.80000000000001</ele><time>2026-03-28T08:21:52.94Z</time></trkpt><trkpt lat="43.6657119" lon="11.2175778"><ele>111.2</ele><time>2026-03-28T08:21:53.94Z</time></trkpt><trkpt lat="43.6658154" lon="11.2176237"><ele>110.6</ele><time>2026-03-28T08:21:54.941Z</time></trkpt><trkpt lat="43.6659309" lon="11.2176715"><ele>110.0</ele><time>2026-03-28T08:21:55.941Z</time></trkpt><trkpt lat="43.6660451" lon="11.217721"><ele>110.5</ele><time>2026-03-28T08:21:56.941Z</time></trkpt><trkpt lat="43.6661601" lon="11.2177804"><ele>111.0</ele><time>2026-03-28T08:21:57.94Z</time></trkpt><trkpt lat="43.6662674" lon="11.217847"><ele>111.5</ele><time>2026-03-28T08:21:58.94Z</time></trkpt><trkpt lat="43.6663705" lon="11.2179277"><ele>112.0</ele><time>2026-03-28T08:21:59.942Z</time></trkpt><trkpt lat="43.6664687" lon="11.2180249"><ele>112.00000000000001</ele><time>2026-03-28T08:22:00.941Z</time></trkpt><trkpt lat="43.6665562" lon="11.2181201"><ele>112.0</ele><time>2026-03-28T08:22:01.941Z</time></trkpt><trkpt lat="43.6666171" lon="11.2182092"><ele>112.0</ele><time>2026-03-28T08:22:02.94Z</time></trkpt><trkpt lat="43.6666663" lon="11.2182907"><ele>112.0</ele><time>2026-03-28T08:22:03.94Z</time></trkpt><trkpt lat="43.6666986" lon="11.2183723"><ele>112.00000000000001</ele><time>2026-03-28T08:22:04.942Z</time></trkpt><trkpt lat="43.6667282" lon="11.2184628"><ele>112.0</ele><time>2026-03-28T08:22:05.94Z</time></trkpt><trkpt lat="43.6667435" lon="11.2185709"><ele>113.0</ele><time>2026-03-28T08:22:06.941Z</time></trkpt><trkpt lat="43.6667436" lon="11.2187319"><ele>114.0</ele><time>2026-03-28T08:22:07.94Z</time></trkpt><trkpt lat="43.6667398" lon="11.2189084"><ele>115.0</ele><time>2026-03-28T08:22:08.941Z</time></trkpt><trkpt lat="43.6667443" lon="11.2191025"><ele>116.0</ele><time>2026-03-28T08:22:09.94Z</time></trkpt><trkpt lat="43.6667382" lon="11.2193282"><ele>116.0</ele><time>2026-03-28T08:22:10.94Z</time></trkpt><trkpt lat="43.6667332" lon="11.2195627"><ele>116.0</ele><time>2026-03-28T08:22:11.941Z</time></trkpt><trkpt lat="43.666728" lon="11.2198071"><ele>116.0</ele><time>2026-03-28T08:22:12.942Z</time></trkpt><trkpt lat="43.6666972" lon="11.2200829"><ele>116.33333333333333</ele><time>2026-03-28T08:22:13.941Z</time></trkpt><trkpt lat="43.6666507" lon="11.220355"><ele>116.66666666666666</ele><time>2026-03-28T08:22:14.94Z</time></trkpt><trkpt lat="43.6665859" lon="11.2206421"><ele>117.0</ele><time>2026-03-28T08:22:15.942Z</time></trkpt><trkpt lat="43.6665201" lon="11.2209365"><ele>117.33333333333334</ele><time>2026-03-28T08:22:16.941Z</time></trkpt><trkpt lat="43.6664598" lon="11.2212036"><ele>117.66666666666667</ele><time>2026-03-28T08:22:17.94Z</time></trkpt><trkpt lat="43.6664147" lon="11.2214778"><ele>118.0</ele><time>2026-03-28T08:22:18.941Z</time></trkpt><trkpt lat="43.6664134" lon="11.2217689"><ele>118.0</ele><time>2026-03-28T08:22:19.94Z</time></trkpt><trkpt lat="43.6664239" lon="11.2220696"><ele>118.0</ele><time>2026-03-28T08:22:20.94Z</time></trkpt><trkpt lat="43.6664463" lon="11.2223813"><ele>118.0</ele><time>2026-03-28T08:22:21.941Z</time></trkpt><trkpt lat="43.6664811" lon="11.2226999"><ele>118.0</ele><time>2026-03-28T08:22:22.941Z</time></trkpt><trkpt lat="43.6665098" lon="11.2230048"><ele>118.0</ele><time>2026-03-28T08:22:23.942Z</time></trkpt><trkpt lat="43.6665374" lon="11.2232965"><ele>118.0</ele><time>2026-03-28T08:22:24.941Z</time></trkpt><trkpt lat="43.6665596" lon="11.223576"><ele>118.33333333333334</ele><time>2026-03-28T08:22:25.941Z</time></trkpt><trkpt lat="43.6665823" lon="11.2238452"><ele>118.66666666666666</ele><time>2026-03-28T08:22:26.942Z</time></trkpt><trkpt lat="43.6666119" lon="11.2241064"><ele>119.0</ele><time>2026-03-28T08:22:27.942Z</time></trkpt><trkpt lat="43.6666319" lon="11.2243633"><ele>119.0</ele><time>2026-03-28T08:22:28.941Z</time></trkpt><trkpt lat="43.6666576" lon="11.2246374"><ele>119.0</ele><time>2026-03-28T08:22:29.941Z</time></trkpt><trkpt lat="43.6666968" lon="11.2249241"><ele>119.0</ele><time>2026-03-28T08:22:30.94Z</time></trkpt><trkpt lat="43.6667281" lon="11.2252246"><ele>119.0</ele><time>2026-03-28T08:22:31.94Z</time></trkpt><trkpt lat="43.6667526" lon="11.2255154"><ele>119.0</ele><time>2026-03-28T08:22:32.941Z</time></trkpt><trkpt lat="43.6667781" lon="11.2257976"><ele>119.0</ele><time>2026-03-28T08:22:33.941Z</time></trkpt><trkpt lat="43.66681" lon="11.2260387"><ele>119.0</ele><time>2026-03-28T08:22:34.941Z</time></trkpt><trkpt lat="43.6668317" lon="11.2262758"><ele>119.0</ele><time>2026-03-28T08:22:35.942Z</time></trkpt><trkpt lat="43.6668292" lon="11.2265132"><ele>119.0</ele><time>2026-03-28T08:22:36.941Z</time></trkpt><trkpt lat="43.6667966" lon="11.2267437"><ele>118.66666666666666</ele><time>2026-03-28T08:22:37.941Z</time></trkpt><trkpt lat="43.6667555" lon="11.2269907"><ele>118.33333333333334</ele><time>2026-03-28T08:22:38.941Z</time></trkpt><trkpt lat="43.6667" lon="11.2272529"><ele>118.0</ele><time>2026-03-28T08:22:39.941Z</time></trkpt><trkpt lat="43.6666295" lon="11.2275251"><ele>120.5</ele><time>2026-03-28T08:22:40.941Z</time></trkpt><trkpt lat="43.6665458" lon="11.2278145"><ele>123.0</ele><time>2026-03-28T08:22:41.94Z</time></trkpt><trkpt lat="43.6664758" lon="11.2281166"><ele>123.5</ele><time>2026-03-28T08:22:42.94Z</time></trkpt><trkpt lat="43.6664185" lon="11.2284354"><ele>124.0</ele><time>2026-03-28T08:22:43.942Z</time></trkpt><trkpt lat="43.6663899" lon="11.2287743"><ele>125.0</ele><time>2026-03-28T08:22:44.941Z</time></trkpt><trkpt lat="43.6663822" lon="11.2291259"><ele>126.0</ele><time>2026-03-28T08:22:45.941Z</time></trkpt><trkpt lat="43.666386" lon="11.2294811"><ele>128.0</ele><time>2026-03-28T08:22:46.94Z</time></trkpt><trkpt lat="43.6664017" lon="11.2298604"><ele>130.0</ele><time>2026-03-28T08:22:47.94Z</time></trkpt><trkpt lat="43.6664097" lon="11.2302431"><ele>130.0</ele><time>2026-03-28T08:22:48.941Z</time></trkpt><trkpt lat="43.6664175" lon="11.2306199"><ele>130.0</ele><time>2026-03-28T08:22:49.94Z</time></trkpt><trkpt lat="43.6664287" lon="11.2310008"><ele>130.0</ele><time>2026-03-28T08:22:50.94Z</time></trkpt><trkpt lat="43.6664376" lon="11.2313859"><ele>130.0</ele><time>2026-03-28T08:22:51.94Z</time></trkpt><trkpt lat="43.6664475" lon="11.231779"><ele>128.0</ele><time>2026-03-28T08:22:52.942Z</time></trkpt><trkpt lat="43.6664603" lon="11.2321643"><ele>126.0</ele><time>2026-03-28T08:22:53.94Z</time></trkpt><trkpt lat="43.6664697" lon="11.2325254"><ele>127.0</ele><time>2026-03-28T08:22:54.942Z</time></trkpt><trkpt lat="43.6664732" lon="11.2328789"><ele>128.0</ele><time>2026-03-28T08:22:55.941Z</time></trkpt><trkpt lat="43.6664623" lon="11.2332297"><ele>128.0</ele><time>2026-03-28T08:22:56.941Z</time></trkpt><trkpt lat="43.6664374" lon="11.2335801"><ele>128.0</ele><time>2026-03-28T08:22:57.941Z</time></trkpt><trkpt lat="43.6663475" lon="11.2339222"><ele>131.5</ele><time>2026-03-28T08:22:58.94Z</time></trkpt><trkpt lat="43.6662584" lon="11.2342694"><ele>135.0</ele><time>2026-03-28T08:22:59.941Z</time></trkpt><trkpt lat="43.6661643" lon="11.2346219"><ele>128.5</ele><time>2026-03-28T08:23:00.941Z</time></trkpt><trkpt lat="43.6660733" lon="11.234965"><ele>122.0</ele><time>2026-03-28T08:23:01.94Z</time></trkpt><trkpt lat="43.6659837" lon="11.2353025"><ele>122.0</ele><time>2026-03-28T08:23:02.94Z</time></trkpt><trkpt lat="43.6658909" lon="11.2356191"><ele>122.0</ele><time>2026-03-28T08:23:03.941Z</time></trkpt><trkpt lat="43.6658042" lon="11.2359191"><ele>124.33333333333333</ele><time>2026-03-28T08:23:04.941Z</time></trkpt><trkpt lat="43.6657289" lon="11.2362116"><ele>126.66666666666666</ele><time>2026-03-28T08:23:05.941Z</time></trkpt><trkpt lat="43.6656618" lon="11.2364797"><ele>129.0</ele><time>2026-03-28T08:23:06.941Z</time></trkpt><trkpt lat="43.6655982" lon="11.2367262"><ele>130.33333333333334</ele><time>2026-03-28T08:23:07.942Z</time></trkpt><trkpt lat="43.665537" lon="11.2369712"><ele>131.66666666666669</ele><time>2026-03-28T08:23:08.94Z</time></trkpt><trkpt lat="43.6654751" lon="11.2372194"><ele>133.0</ele><time>2026-03-28T08:23:09.94Z</time></trkpt><trkpt lat="43.6654121" lon="11.2374626"><ele>134.0</ele><time>2026-03-28T08:23:10.94Z</time></trkpt><trkpt lat="43.6653512" lon="11.2377006"><ele>135.0</ele><time>2026-03-28T08:23:11.942Z</time></trkpt><trkpt lat="43.6652862" lon="11.2379342"><ele>136.0</ele><time>2026-03-28T08:23:12.942Z</time></trkpt><trkpt lat="43.6652237" lon="11.2381654"><ele>131.0</ele><time>2026-03-28T08:23:13.942Z</time></trkpt><trkpt lat="43.6651644" lon="11.2384004"><ele>126.0</ele><time>2026-03-28T08:23:14.941Z</time></trkpt><trkpt lat="43.6651031" lon="11.2386407"><ele>121.0</ele><time>2026-03-28T08:23:15.941Z</time></trkpt><trkpt lat="43.665041" lon="11.2388865"><ele>122.33333333333334</ele><time>2026-03-28T08:23:16.942Z</time></trkpt><trkpt lat="43.6649754" lon="11.2391366"><ele>123.66666666666666</ele><time>2026-03-28T08:23:17.94Z</time></trkpt><trkpt lat="43.664907" lon="11.2393873"><ele>125.0</ele><time>2026-03-28T08:23:18.942Z</time></trkpt><trkpt lat="43.6648459" lon="11.2396312"><ele>126.66666666666666</ele><time>2026-03-28T08:23:19.941Z</time></trkpt><trkpt lat="43.6647892" lon="11.2398631"><ele>128.33333333333334</ele><time>2026-03-28T08:23:20.941Z</time></trkpt><trkpt lat="43.6647278" lon="11.2400824"><ele>130.0</ele><time>2026-03-28T08:23:21.941Z</time></trkpt><trkpt lat="43.6646469" lon="11.2402821"><ele>130.0</ele><time>2026-03-28T08:23:22.94Z</time></trkpt><trkpt lat="43.6645278" lon="11.2404436"><ele>130.0</ele><time>2026-03-28T08:23:23.941Z</time></trkpt><trkpt lat="43.664376" lon="11.2405497"><ele>130.0</ele><time>2026-03-28T08:23:24.94Z</time></trkpt><trkpt lat="43.6642085" lon="11.2405977"><ele>127.0</ele><time>2026-03-28T08:23:25.941Z</time></trkpt><trkpt lat="43.6640388" lon="11.2405766"><ele>124.0</ele><time>2026-03-28T08:23:26.941Z</time></trkpt><trkpt lat="43.66387" lon="11.2404979"><ele>121.0</ele><time>2026-03-28T08:23:27.942Z</time></trkpt><trkpt lat="43.6636914" lon="11.2403961"><ele>122.0</ele><time>2026-03-28T08:23:28.942Z</time></trkpt><trkpt lat="43.6634959" lon="11.2403046"><ele>123.0</ele><time>2026-03-28T08:23:29.94Z</time></trkpt><trkpt lat="43.6632847" lon="11.2402417"><ele>124.0</ele><time>2026-03-28T08:23:30.941Z</time></trkpt><trkpt lat="43.6630676" lon="11.2402099"><ele>124.0</ele><time>2026-03-28T08:23:31.94Z</time></trkpt><trkpt lat="43.6628422" lon="11.2401936"><ele>124.0</ele><time>2026-03-28T08:23:32.941Z</time></trkpt><trkpt lat="43.6626147" lon="11.2401943"><ele>124.66666666666667</ele><time>2026-03-28T08:23:33.94Z</time></trkpt><trkpt lat="43.6623873" lon="11.2402146"><ele>125.33333333333334</ele><time>2026-03-28T08:23:34.941Z</time></trkpt><trkpt lat="43.66217" lon="11.240259"><ele>126.0</ele><time>2026-03-28T08:23:35.94Z</time></trkpt><trkpt lat="43.6619526" lon="11.2403006"><ele>124.66666666666666</ele><time>2026-03-28T08:23:36.941Z</time></trkpt><trkpt lat="43.6617311" lon="11.2403461"><ele>123.33333333333333</ele><time>2026-03-28T08:23:37.941Z</time></trkpt><trkpt lat="43.6615187" lon="11.2403944"><ele>122.0</ele><time>2026-03-28T08:23:38.942Z</time></trkpt><trkpt lat="43.6613034" lon="11.2404416"><ele>122.33333333333333</ele><time>2026-03-28T08:23:39.94Z</time></trkpt><trkpt lat="43.6610957" lon="11.2404964"><ele>122.66666666666666</ele><time>2026-03-28T08:23:40.941Z</time></trkpt><trkpt lat="43.6608969" lon="11.2405561"><ele>123.0</ele><time>2026-03-28T08:23:41.941Z</time></trkpt><trkpt lat="43.6606948" lon="11.240604"><ele>123.66666666666666</ele><time>2026-03-28T08:23:42.94Z</time></trkpt><trkpt lat="43.6604951" lon="11.2406473"><ele>124.33333333333333</ele><time>2026-03-28T08:23:43.941Z</time></trkpt><trkpt lat="43.6603003" lon="11.2406953"><ele>125.0</ele><time>2026-03-28T08:23:44.941Z</time></trkpt><trkpt lat="43.6601078" lon="11.2407474"><ele>125.0</ele><time>2026-03-28T08:23:45.942Z</time></trkpt><trkpt lat="43.6599156" lon="11.2408028"><ele>125.0</ele><time>2026-03-28T08:23:46.94Z</time></trkpt><trkpt lat="43.6597214" lon="11.2408565"><ele>125.0</ele><time>2026-03-28T08:23:47.94Z</time></trkpt><trkpt lat="43.6595305" lon="11.2409109"><ele>124.0</ele><time>2026-03-28T08:23:48.941Z</time></trkpt><trkpt lat="43.6593416" lon="11.2409704"><ele>123.0</ele><time>2026-03-28T08:23:49.941Z</time></trkpt><trkpt lat="43.6591517" lon="11.2410468"><ele>122.0</ele><time>2026-03-28T08:23:50.94Z</time></trkpt><trkpt lat="43.658963" lon="11.2411555"><ele>122.0</ele><time>2026-03-28T08:23:51.942Z</time></trkpt><trkpt lat="43.6587863" lon="11.2412905"><ele>122.0</ele><time>2026-03-28T08:23:52.941Z</time></trkpt><trkpt lat="43.658624" lon="11.2414445"><ele>122.0</ele><time>2026-03-28T08:23:53.941Z</time></trkpt><trkpt lat="43.6584768" lon="11.2416196"><ele>123.0</ele><time>2026-03-28T08:23:54.942Z</time></trkpt><trkpt lat="43.6583591" lon="11.2418144"><ele>124.0</ele><time>2026-03-28T08:23:55.941Z</time></trkpt><trkpt lat="43.6582753" lon="11.2420396"><ele>125.0</ele><time>2026-03-28T08:23:56.941Z</time></trkpt><trkpt lat="43.6582267" lon="11.2422861"><ele>125.66666666666666</ele><time>2026-03-28T08:23:57.941Z</time></trkpt><trkpt lat="43.6582238" lon="11.2425547"><ele>126.33333333333334</ele><time>2026-03-28T08:23:58.941Z</time></trkpt><trkpt lat="43.6582505" lon="11.2428298"><ele>127.0</ele><time>2026-03-28T08:23:59.941Z</time></trkpt><trkpt lat="43.6583036" lon="11.2431064"><ele>126.66666666666667</ele><time>2026-03-28T08:24:00.941Z</time></trkpt><trkpt lat="43.6583825" lon="11.2433796"><ele>126.33333333333334</ele><time>2026-03-28T08:24:01.941Z</time></trkpt><trkpt lat="43.6584707" lon="11.2436499"><ele>126.0</ele><time>2026-03-28T08:24:02.942Z</time></trkpt><trkpt lat="43.65856" lon="11.2439145"><ele>128.33333333333334</ele><time>2026-03-28T08:24:03.94Z</time></trkpt><trkpt lat="43.6586491" lon="11.2441839"><ele>130.66666666666669</ele><time>2026-03-28T08:24:04.942Z</time></trkpt><trkpt lat="43.658734" lon="11.2444516"><ele>133.0</ele><time>2026-03-28T08:24:05.94Z</time></trkpt><trkpt lat="43.658811" lon="11.2447202"><ele>133.33333333333334</ele><time>2026-03-28T08:24:06.942Z</time></trkpt><trkpt lat="43.6588714" lon="11.2449919"><ele>133.66666666666666</ele><time>2026-03-28T08:24:07.941Z</time></trkpt><trkpt lat="43.6588998" lon="11.2452688"><ele>134.0</ele><time>2026-03-28T08:24:08.941Z</time></trkpt><trkpt lat="43.6588973" lon="11.245548"><ele>133.33333333333331</ele><time>2026-03-28T08:24:09.941Z</time></trkpt><trkpt lat="43.6588888" lon="11.2458315"><ele>132.66666666666666</ele><time>2026-03-28T08:24:10.941Z</time></trkpt><trkpt lat="43.658882" lon="11.2461087"><ele>132.0</ele><time>2026-03-28T08:24:11.941Z</time></trkpt><trkpt lat="43.6588727" lon="11.2463785"><ele>131.66666666666666</ele><time>2026-03-28T08:24:12.942Z</time></trkpt><trkpt lat="43.6588583" lon="11.2466441"><ele>131.33333333333331</ele><time>2026-03-28T08:24:13.941Z</time></trkpt><trkpt lat="43.6588463" lon="11.2469029"><ele>131.0</ele><time>2026-03-28T08:24:14.939Z</time></trkpt><trkpt lat="43.6588263" lon="11.2471572"><ele>131.0</ele><time>2026-03-28T08:24:15.942Z</time></trkpt><trkpt lat="43.6588039" lon="11.2474092"><ele>131.0</ele><time>2026-03-28T08:24:16.941Z</time></trkpt><trkpt lat="43.6587945" lon="11.2476535"><ele>131.0</ele><time>2026-03-28T08:24:17.94Z</time></trkpt><trkpt lat="43.6587779" lon="11.2478897"><ele>131.0</ele><time>2026-03-28T08:24:18.942Z</time></trkpt><trkpt lat="43.6587659" lon="11.2481242"><ele>131.0</ele><time>2026-03-28T08:24:19.941Z</time></trkpt><trkpt lat="43.6587547" lon="11.2483604"><ele>131.0</ele><time>2026-03-28T08:24:20.94Z</time></trkpt><trkpt lat="43.6587418" lon="11.2485993"><ele>131.0</ele><time>2026-03-28T08:24:21.941Z</time></trkpt><trkpt lat="43.6587315" lon="11.2488352"><ele>131.0</ele><time>2026-03-28T08:24:22.94Z</time></trkpt><trkpt lat="43.6587231" lon="11.2490721"><ele>131.0</ele><time>2026-03-28T08:24:23.941Z</time></trkpt><trkpt lat="43.6587126" lon="11.249297"><ele>131.0</ele><time>2026-03-28T08:24:24.941Z</time></trkpt><trkpt lat="43.6586993" lon="11.2495219"><ele>131.0</ele><time>2026-03-28T08:24:25.942Z</time></trkpt><trkpt lat="43.658686" lon="11.249746"><ele>131.0</ele><time>2026-03-28T08:24:26.941Z</time></trkpt><trkpt lat="43.6586748" lon="11.2499703"><ele>131.0</ele><time>2026-03-28T08:24:27.942Z</time></trkpt><trkpt lat="43.6586775" lon="11.2501812"><ele>131.0</ele><time>2026-03-28T08:24:28.941Z</time></trkpt><trkpt lat="43.6586822" lon="11.2503908"><ele>131.0</ele><time>2026-03-28T08:24:29.94Z</time></trkpt><trkpt lat="43.658694" lon="11.2505907"><ele>131.0</ele><time>2026-03-28T08:24:30.94Z</time></trkpt><trkpt lat="43.6587074" lon="11.2507776"><ele>131.25</ele><time>2026-03-28T08:24:31.942Z</time></trkpt><trkpt lat="43.6587163" lon="11.2509556"><ele>131.5</ele><time>2026-03-28T08:24:32.942Z</time></trkpt><trkpt lat="43.6587243" lon="11.2511206"><ele>131.75</ele><time>2026-03-28T08:24:33.942Z</time></trkpt><trkpt lat="43.6587338" lon="11.2512782"><ele>132.0</ele><time>2026-03-28T08:24:34.94Z</time></trkpt><trkpt lat="43.6587462" lon="11.251441"><ele>132.25</ele><time>2026-03-28T08:24:35.94Z</time></trkpt><trkpt lat="43.6587563" lon="11.2516068"><ele>132.5</ele><time>2026-03-28T08:24:36.941Z</time></trkpt><trkpt lat="43.6587656" lon="11.2517813"><ele>132.75</ele><time>2026-03-28T08:24:37.942Z</time></trkpt><trkpt lat="43.6587783" lon="11.2519551"><ele>133.0</ele><time>2026-03-28T08:24:38.941Z</time></trkpt><trkpt lat="43.658781" lon="11.2521343"><ele>133.25</ele><time>2026-03-28T08:24:39.941Z</time></trkpt><trkpt lat="43.658791" lon="11.2523189"><ele>133.5</ele><time>2026-03-28T08:24:40.941Z</time></trkpt><trkpt lat="43.6588031" lon="11.2525109"><ele>133.75</ele><time>2026-03-28T08:24:41.942Z</time></trkpt><trkpt lat="43.6588161" lon="11.2527007"><ele>134.0</ele><time>2026-03-28T08:24:42.94Z</time></trkpt><trkpt lat="43.6588299" lon="11.252903"><ele>134.0</ele><time>2026-03-28T08:24:43.939Z</time></trkpt><trkpt lat="43.6588427" lon="11.2530976"><ele>134.0</ele><time>2026-03-28T08:24:44.942Z</time></trkpt><trkpt lat="43.6588593" lon="11.2532985"><ele>134.0</ele><time>2026-03-28T08:24:45.941Z</time></trkpt><trkpt lat="43.6588715" lon="11.2535016"><ele>134.0</ele><time>2026-03-28T08:24:46.942Z</time></trkpt><trkpt lat="43.6588853" lon="11.2537117"><ele>133.5</ele><time>2026-03-28T08:24:47.942Z</time></trkpt><trkpt lat="43.6588927" lon="11.2539188"><ele>133.0</ele><time>2026-03-28T08:24:48.94Z</time></trkpt><trkpt lat="43.6589076" lon="11.2541225"><ele>132.5</ele><time>2026-03-28T08:24:49.94Z</time></trkpt><trkpt lat="43.6589198" lon="11.2543301"><ele>132.0</ele><time>2026-03-28T08:24:50.94Z</time></trkpt><trkpt lat="43.6589352" lon="11.2545402"><ele>132.0</ele><time>2026-03-28T08:24:51.94Z</time></trkpt><trkpt lat="43.6589416" lon="11.2547466"><ele>132.0</ele><time>2026-03-28T08:24:52.941Z</time></trkpt><trkpt lat="43.6589542" lon="11.2549495"><ele>132.0</ele><time>2026-03-28T08:24:53.94Z</time></trkpt><trkpt lat="43.6589683" lon="11.2551524"><ele>132.0</ele><time>2026-03-28T08:24:54.941Z</time></trkpt><trkpt lat="43.6589792" lon="11.2553569"><ele>132.75</ele><time>2026-03-28T08:24:55.94Z</time></trkpt><trkpt lat="43.6589915" lon="11.2555564"><ele>133.5</ele><time>2026-03-28T08:24:56.941Z</time></trkpt><trkpt lat="43.6590027" lon="11.2557586"><ele>134.25</ele><time>2026-03-28T08:24:57.941Z</time></trkpt><trkpt lat="43.6590082" lon="11.2559546"><ele>135.0</ele><time>2026-03-28T08:24:58.941Z</time></trkpt><trkpt lat="43.6590162" lon="11.2561481"><ele>135.25</ele><time>2026-03-28T08:24:59.941Z</time></trkpt><trkpt lat="43.6590137" lon="11.2563328"><ele>135.5</ele><time>2026-03-28T08:25:00.94Z</time></trkpt><trkpt lat="43.6590041" lon="11.2565124"><ele>135.75</ele><time>2026-03-28T08:25:01.94Z</time></trkpt><trkpt lat="43.6589764" lon="11.2566772"><ele>136.0</ele><time>2026-03-28T08:25:02.941Z</time></trkpt><trkpt lat="43.6589314" lon="11.2568454"><ele>135.25</ele><time>2026-03-28T08:25:03.942Z</time></trkpt><trkpt lat="43.6588631" lon="11.2569907"><ele>134.5</ele><time>2026-03-28T08:25:04.941Z</time></trkpt><trkpt lat="43.6587852" lon="11.2571212"><ele>133.75</ele><time>2026-03-28T08:25:05.941Z</time></trkpt><trkpt lat="43.6586847" lon="11.2572507"><ele>133.0</ele><time>2026-03-28T08:25:06.941Z</time></trkpt><trkpt lat="43.6585953" lon="11.2573741"><ele>132.8</ele><time>2026-03-28T08:25:07.94Z</time></trkpt><trkpt lat="43.658503" lon="11.2574943"><ele>132.60000000000002</ele><time>2026-03-28T08:25:08.941Z</time></trkpt><trkpt lat="43.6584133" lon="11.257603"><ele>132.39999999999998</ele><time>2026-03-28T08:25:09.94Z</time></trkpt><trkpt lat="43.6583334" lon="11.2576962"><ele>132.2</ele><time>2026-03-28T08:25:10.941Z</time></trkpt><trkpt lat="43.6582631" lon="11.2577844"><ele>132.0</ele><time>2026-03-28T08:25:11.941Z</time></trkpt><trkpt lat="43.6581914" lon="11.2578673"><ele>132.0</ele><time>2026-03-28T08:25:12.941Z</time></trkpt><trkpt lat="43.6581323" lon="11.2579369"><ele>132.0</ele><time>2026-03-28T08:25:13.94Z</time></trkpt><trkpt lat="43.6580965" lon="11.2580322"><ele>132.0</ele><time>2026-03-28T08:25:14.942Z</time></trkpt><trkpt lat="43.6580906" lon="11.2581459"><ele>132.0</ele><time>2026-03-28T08:25:15.941Z</time></trkpt><trkpt lat="43.6580952" lon="11.2582755"><ele>132.0</ele><time>2026-03-28T08:25:16.94Z</time></trkpt><trkpt lat="43.6581009" lon="11.2584141"><ele>132.0</ele><time>2026-03-28T08:25:17.941Z</time></trkpt><trkpt lat="43.6581008" lon="11.2585548"><ele>132.75</ele><time>2026-03-28T08:25:18.941Z</time></trkpt><trkpt lat="43.6581076" lon="11.2587238"><ele>133.5</ele><time>2026-03-28T08:25:19.942Z</time></trkpt><trkpt lat="43.6581076" lon="11.2588929"><ele>134.25</ele><time>2026-03-28T08:25:20.941Z</time></trkpt><trkpt lat="43.6581117" lon="11.259076"><ele>135.0</ele><time>2026-03-28T08:25:21.941Z</time></trkpt><trkpt lat="43.6581098" lon="11.2592621"><ele>135.25</ele><time>2026-03-28T08:25:22.941Z</time></trkpt><trkpt lat="43.6581102" lon="11.2594543"><ele>135.5</ele><time>2026-03-28T08:25:23.939Z</time></trkpt><trkpt lat="43.6581076" lon="11.2596542"><ele>135.75</ele><time>2026-03-28T08:25:24.941Z</time></trkpt><trkpt lat="43.6581102" lon="11.259868"><ele>136.0</ele><time>2026-03-28T08:25:25.942Z</time></trkpt><trkpt lat="43.6581102" lon="11.2600842"><ele>136.33333333333334</ele><time>2026-03-28T08:25:26.941Z</time></trkpt><trkpt lat="43.6581071" lon="11.2602973"><ele>136.66666666666666</ele><time>2026-03-28T08:25:27.942Z</time></trkpt><trkpt lat="43.6581156" lon="11.2605116"><ele>137.0</ele><time>2026-03-28T08:25:28.941Z</time></trkpt><trkpt lat="43.6581325" lon="11.2607357"><ele>137.33333333333331</ele><time>2026-03-28T08:25:29.942Z</time></trkpt><trkpt lat="43.6581615" lon="11.2609626"><ele>137.66666666666666</ele><time>2026-03-28T08:25:30.941Z</time></trkpt><trkpt lat="43.6581922" lon="11.2611889"><ele>138.0</ele><time>2026-03-28T08:25:31.942Z</time></trkpt><trkpt lat="43.6582272" lon="11.261419"><ele>137.66666666666666</ele><time>2026-03-28T08:25:32.941Z</time></trkpt><trkpt lat="43.6582594" lon="11.2616537"><ele>137.33333333333331</ele><time>2026-03-28T08:25:33.941Z</time></trkpt><trkpt lat="43.6582929" lon="11.2618973"><ele>137.0</ele><time>2026-03-28T08:25:34.941Z</time></trkpt><trkpt lat="43.6583262" lon="11.2621417"><ele>136.66666666666666</ele><time>2026-03-28T08:25:35.941Z</time></trkpt><trkpt lat="43.6583606" lon="11.26238"><ele>136.33333333333334</ele><time>2026-03-28T08:25:36.942Z</time></trkpt><trkpt lat="43.6583877" lon="11.2626044"><ele>136.0</ele><time>2026-03-28T08:25:37.941Z</time></trkpt><trkpt lat="43.6584245" lon="11.2628257"><ele>136.0</ele><time>2026-03-28T08:25:38.941Z</time></trkpt><trkpt lat="43.658475" lon="11.2630414"><ele>136.0</ele><time>2026-03-28T08:25:39.942Z</time></trkpt><trkpt lat="43.6585442" lon="11.2632476"><ele>136.0</ele><time>2026-03-28T08:25:40.941Z</time></trkpt><trkpt lat="43.6586344" lon="11.263448"><ele>137.66666666666669</ele><time>2026-03-28T08:25:41.941Z</time></trkpt><trkpt lat="43.6587341" lon="11.2636437"><ele>139.33333333333334</ele><time>2026-03-28T08:25:42.941Z</time></trkpt><trkpt lat="43.6588328" lon="11.2638305"><ele>141.0</ele><time>2026-03-28T08:25:43.941Z</time></trkpt><trkpt lat="43.6589259" lon="11.2640105"><ele>141.0</ele><time>2026-03-28T08:25:44.941Z</time></trkpt><trkpt lat="43.6590226" lon="11.2641806"><ele>141.0</ele><time>2026-03-28T08:25:45.941Z</time></trkpt><trkpt lat="43.659115" lon="11.2643521"><ele>141.0</ele><time>2026-03-28T08:25:46.941Z</time></trkpt><trkpt lat="43.6592029" lon="11.2645181"><ele>141.0</ele><time>2026-03-28T08:25:47.941Z</time></trkpt><trkpt lat="43.6592764" lon="11.2646845"><ele>141.0</ele><time>2026-03-28T08:25:48.941Z</time></trkpt><trkpt lat="43.6593349" lon="11.2648675"><ele>141.0</ele><time>2026-03-28T08:25:49.94Z</time></trkpt><trkpt lat="43.6593733" lon="11.2650613"><ele>141.0</ele><time>2026-03-28T08:25:50.942Z</time></trkpt><trkpt lat="43.6593992" lon="11.2652683"><ele>139.66666666666666</ele><time>2026-03-28T08:25:51.941Z</time></trkpt><trkpt lat="43.6594165" lon="11.2654844"><ele>138.33333333333331</ele><time>2026-03-28T08:25:52.94Z</time></trkpt><trkpt lat="43.6594549" lon="11.2656958"><ele>137.0</ele><time>2026-03-28T08:25:53.941Z</time></trkpt><trkpt lat="43.6594819" lon="11.2658903"><ele>139.5</ele><time>2026-03-28T08:25:54.942Z</time></trkpt><trkpt lat="43.6595217" lon="11.2660753"><ele>142.0</ele><time>2026-03-28T08:25:55.94Z</time></trkpt><trkpt lat="43.6595617" lon="11.2662387"><ele>144.5</ele><time>2026-03-28T08:25:56.942Z</time></trkpt><trkpt lat="43.6595941" lon="11.2663819"><ele>147.0</ele><time>2026-03-28T08:25:57.94Z</time></trkpt><trkpt lat="43.6596303" lon="11.2665082"><ele>147.0</ele><time>2026-03-28T08:25:58.941Z</time></trkpt><trkpt lat="43.659664" lon="11.2666058"><ele>147.0</ele><time>2026-03-28T08:25:59.941Z</time></trkpt><trkpt lat="43.6597097" lon="11.2667361"><ele>147.0</ele><time>2026-03-28T08:26:01.942Z</time></trkpt><trkpt lat="43.6597623" lon="11.2668091"><ele>147.0</ele><time>2026-03-28T08:26:35.941Z</time></trkpt><trkpt lat="43.6598251" lon="11.2669438"><ele>147.0</ele><time>2026-03-28T08:26:37.942Z</time></trkpt><trkpt lat="43.6598677" lon="11.2670274"><ele>147.0</ele><time>2026-03-28T08:26:38.941Z</time></trkpt><trkpt lat="43.6599231" lon="11.2671301"><ele>147.0</ele><time>2026-03-28T08:26:39.941Z</time></trkpt><trkpt lat="43.6599807" lon="11.2672441"><ele>147.0</ele><time>2026-03-28T08:26:40.941Z</time></trkpt><trkpt lat="43.660036" lon="11.2673476"><ele>147.0</ele><time>2026-03-28T08:26:41.942Z</time></trkpt><trkpt lat="43.6600941" lon="11.2674598"><ele>147.0</ele><time>2026-03-28T08:26:42.941Z</time></trkpt><trkpt lat="43.6601528" lon="11.2675777"><ele>147.0</ele><time>2026-03-28T08:26:43.942Z</time></trkpt><trkpt lat="43.6602092" lon="11.2677025"><ele>145.75</ele><time>2026-03-28T08:26:44.941Z</time></trkpt><trkpt lat="43.6602603" lon="11.2678411"><ele>144.5</ele><time>2026-03-28T08:26:45.941Z</time></trkpt><trkpt lat="43.660306" lon="11.2679948"><ele>143.25</ele><time>2026-03-28T08:26:46.942Z</time></trkpt><trkpt lat="43.6603443" lon="11.268158"><ele>142.0</ele><time>2026-03-28T08:26:47.941Z</time></trkpt><trkpt lat="43.6603657" lon="11.268322"><ele>143.25</ele><time>2026-03-28T08:26:48.942Z</time></trkpt><trkpt lat="43.6603896" lon="11.2684907"><ele>144.5</ele><time>2026-03-28T08:26:49.942Z</time></trkpt><trkpt lat="43.6604177" lon="11.2686599"><ele>145.75</ele><time>2026-03-28T08:26:50.942Z</time></trkpt><trkpt lat="43.6604708" lon="11.2688143"><ele>147.0</ele><time>2026-03-28T08:26:51.941Z</time></trkpt><trkpt lat="43.6605232" lon="11.2689583"><ele>147.0</ele><time>2026-03-28T08:26:52.941Z</time></trkpt><trkpt lat="43.6605818" lon="11.2690909"><ele>147.0</ele><time>2026-03-28T08:26:53.942Z</time></trkpt><trkpt lat="43.6606396" lon="11.2692254"><ele>147.0</ele><time>2026-03-28T08:26:54.941Z</time></trkpt><trkpt lat="43.6606958" lon="11.2693502"><ele>147.0</ele><time>2026-03-28T08:26:55.94Z</time></trkpt><trkpt lat="43.6607353" lon="11.2694686"><ele>147.0</ele><time>2026-03-28T08:26:56.942Z</time></trkpt><trkpt lat="43.6607702" lon="11.269583"><ele>147.0</ele><time>2026-03-28T08:26:57.941Z</time></trkpt><trkpt lat="43.6607912" lon="11.2696842"><ele>147.0</ele><time>2026-03-28T08:26:58.941Z</time></trkpt><trkpt lat="43.6608064" lon="11.2697823"><ele>147.0</ele><time>2026-03-28T08:26:59.942Z</time></trkpt><trkpt lat="43.6608654" lon="11.2699083"><ele>147.0</ele><time>2026-03-28T08:27:01.94Z</time></trkpt><trkpt lat="43.6609371" lon="11.2699889"><ele>147.0</ele><time>2026-03-28T08:27:03.942Z</time></trkpt><trkpt lat="43.6609998" lon="11.2700849"><ele>147.0</ele><time>2026-03-28T08:27:05.942Z</time></trkpt><trkpt lat="43.6610562" lon="11.2702168"><ele>147.16666666666666</ele><time>2026-03-28T08:27:07.942Z</time></trkpt><trkpt lat="43.6610751" lon="11.2703801"><ele>147.33333333333334</ele><time>2026-03-28T08:27:09.941Z</time></trkpt><trkpt lat="43.6610789" lon="11.2704758"><ele>147.5</ele><time>2026-03-28T08:27:10.941Z</time></trkpt><trkpt lat="43.6610755" lon="11.2705677"><ele>147.66666666666669</ele><time>2026-03-28T08:27:11.941Z</time></trkpt><trkpt lat="43.661113" lon="11.2706869"><ele>147.83333333333334</ele><time>2026-03-28T08:27:13.942Z</time></trkpt><trkpt lat="43.6611569" lon="11.2708076"><ele>148.0</ele><time>2026-03-28T08:27:15.941Z</time></trkpt><trkpt lat="43.6612137" lon="11.2709168"><ele>152.0</ele><time>2026-03-28T08:27:17.942Z</time></trkpt><trkpt lat="43.6613124" lon="11.2710279"><ele>156.0</ele><time>2026-03-28T08:27:19.941Z</time></trkpt><trkpt lat="43.6613934" lon="11.2711443"><ele>160.0</ele><time>2026-03-28T08:27:21.942Z</time></trkpt><trkpt lat="43.6614636" lon="11.2712432"><ele>164.0</ele><time>2026-03-28T08:27:23.942Z</time></trkpt><trkpt lat="43.6615646" lon="11.2713247"><ele>164.0</ele><time>2026-03-28T08:27:25.941Z</time></trkpt><trkpt lat="43.6616497" lon="11.2714314"><ele>164.0</ele><time>2026-03-28T08:27:27.941Z</time></trkpt><trkpt lat="43.6617413" lon="11.2715333"><ele>164.0</ele><time>2026-03-28T08:27:29.942Z</time></trkpt><trkpt lat="43.6618428" lon="11.2715826"><ele>164.0</ele><time>2026-03-28T08:27:31.942Z</time></trkpt><trkpt lat="43.6619428" lon="11.271596"><ele>164.0</ele><time>2026-03-28T08:27:33.941Z</time></trkpt><trkpt lat="43.6620161" lon="11.2716917"><ele>166.6</ele><time>2026-03-28T08:27:35.942Z</time></trkpt><trkpt lat="43.6620961" lon="11.2718126"><ele>169.2</ele><time>2026-03-28T08:27:37.941Z</time></trkpt><trkpt lat="43.6621897" lon="11.2718913"><ele>171.79999999999998</ele><time>2026-03-28T08:27:39.942Z</time></trkpt><trkpt lat="43.6622702" lon="11.2719288"><ele>174.39999999999998</ele><time>2026-03-28T08:27:41.941Z</time></trkpt><trkpt lat="43.662353" lon="11.2719638"><ele>177.0</ele><time>2026-03-28T08:27:43.941Z</time></trkpt><trkpt lat="43.662405" lon="11.2720348"><ele>177.0</ele><time>2026-03-28T08:27:45.942Z</time></trkpt><trkpt lat="43.6624259" lon="11.2721507"><ele>177.0</ele><time>2026-03-28T08:27:47.941Z</time></trkpt><trkpt lat="43.6624599" lon="11.2723023"><ele>177.0</ele><time>2026-03-28T08:27:49.941Z</time></trkpt><trkpt lat="43.6625093" lon="11.2724179"><ele>177.0</ele><time>2026-03-28T08:27:51.941Z</time></trkpt><trkpt lat="43.6625632" lon="11.2725093"><ele>177.0</ele><time>2026-03-28T08:29:53.941Z</time></trkpt><trkpt lat="43.6626483" lon="11.2726097"><ele>178.33333333333334</ele><time>2026-03-28T08:29:55.941Z</time></trkpt><trkpt lat="43.6627156" lon="11.2726455"><ele>179.66666666666666</ele><time>2026-03-28T08:29:56.942Z</time></trkpt><trkpt lat="43.6627774" lon="11.2726946"><ele>181.0</ele><time>2026-03-28T08:29:57.942Z</time></trkpt><trkpt lat="43.6628376" lon="11.2727476"><ele>182.33333333333331</ele><time>2026-03-28T08:29:58.941Z</time></trkpt><trkpt lat="43.6629154" lon="11.272891"><ele>183.66666666666666</ele><time>2026-03-28T08:30:00.941Z</time></trkpt><trkpt lat="43.6629608" lon="11.2729932"><ele>185.0</ele><time>2026-03-28T08:30:01.942Z</time></trkpt><trkpt lat="43.6629998" lon="11.2730766"><ele>186.57142857142856</ele><time>2026-03-28T08:30:02.942Z</time></trkpt><trkpt lat="43.6630209" lon="11.2731627"><ele>188.14285714285714</ele><time>2026-03-28T08:30:03.943Z</time></trkpt><trkpt lat="43.6630357" lon="11.2732489"><ele>189.71428571428572</ele><time>2026-03-28T08:30:04.941Z</time></trkpt><trkpt lat="43.6630521" lon="11.2733436"><ele>191.28571428571428</ele><time>2026-03-28T08:30:05.941Z</time></trkpt><trkpt lat="43.66308" lon="11.2734327"><ele>192.85714285714286</ele><time>2026-03-28T08:30:06.942Z</time></trkpt><trkpt lat="43.6631336" lon="11.2735005"><ele>194.42857142857142</ele><time>2026-03-28T08:30:07.941Z</time></trkpt><trkpt lat="43.6631849" lon="11.2735741"><ele>196.0</ele><time>2026-03-28T08:30:08.941Z</time></trkpt><trkpt lat="43.6632422" lon="11.2736661"><ele>196.0</ele><time>2026-03-28T08:30:09.942Z</time></trkpt><trkpt lat="43.6632834" lon="11.2737642"><ele>196.0</ele><time>2026-03-28T08:30:10.941Z</time></trkpt><trkpt lat="43.6633287" lon="11.2739195"><ele>196.0</ele><time>2026-03-28T08:30:12.943Z</time></trkpt><trkpt lat="43.6633591" lon="11.2739969"><ele>196.0</ele><time>2026-03-28T08:30:13.943Z</time></trkpt><trkpt lat="43.6633937" lon="11.2741082"><ele>196.0</ele><time>2026-03-28T08:30:15.942Z</time></trkpt><trkpt lat="43.6634362" lon="11.2742565"><ele>197.16666666666666</ele><time>2026-03-28T08:30:17.942Z</time></trkpt><trkpt lat="43.6634612" lon="11.2744223"><ele>198.33333333333331</ele><time>2026-03-28T08:30:19.942Z</time></trkpt><trkpt lat="43.6634822" lon="11.2745224"><ele>199.5</ele><time>2026-03-28T08:30:20.942Z</time></trkpt><trkpt lat="43.6635004" lon="11.2746291"><ele>200.66666666666669</ele><time>2026-03-28T08:30:21.941Z</time></trkpt><trkpt lat="43.6635265" lon="11.2747346"><ele>201.83333333333334</ele><time>2026-03-28T08:30:22.942Z</time></trkpt><trkpt lat="43.6635629" lon="11.2748452"><ele>203.0</ele><time>2026-03-28T08:30:23.941Z</time></trkpt><trkpt lat="43.6635971" lon="11.2749658"><ele>204.33333333333334</ele><time>2026-03-28T08:30:24.94Z</time></trkpt><trkpt lat="43.6636175" lon="11.275088"><ele>205.66666666666669</ele><time>2026-03-28T08:30:25.941Z</time></trkpt><trkpt lat="43.6636343" lon="11.275188"><ele>207.0</ele><time>2026-03-28T08:30:26.942Z</time></trkpt><trkpt lat="43.6636722" lon="11.2753067"><ele>208.33333333333331</ele><time>2026-03-28T08:30:27.941Z</time></trkpt><trkpt lat="43.6637045" lon="11.2754164"><ele>209.66666666666666</ele><time>2026-03-28T08:30:28.941Z</time></trkpt><trkpt lat="43.6637407" lon="11.2755083"><ele>211.0</ele><time>2026-03-28T08:30:29.942Z</time></trkpt><trkpt lat="43.6637826" lon="11.2755903"><ele>212.83333333333331</ele><time>2026-03-28T08:30:30.943Z</time></trkpt><trkpt lat="43.6638359" lon="11.2756646"><ele>214.66666666666666</ele><time>2026-03-28T08:30:31.942Z</time></trkpt><trkpt lat="43.6638569" lon="11.2758234"><ele>216.5</ele><time>2026-03-28T08:30:33.942Z</time></trkpt><trkpt lat="43.6638553" lon="11.275916"><ele>218.33333333333331</ele><time>2026-03-28T08:30:34.942Z</time></trkpt><trkpt lat="43.6638644" lon="11.2760248"><ele>220.16666666666666</ele><time>2026-03-28T08:30:35.942Z</time></trkpt><trkpt lat="43.6638898" lon="11.2761533"><ele>222.0</ele><time>2026-03-28T08:30:36.943Z</time></trkpt><trkpt lat="43.6639044" lon="11.2762535"><ele>222.0</ele><time>2026-03-28T08:30:37.941Z</time></trkpt><trkpt lat="43.6639223" lon="11.2763436"><ele>222.0</ele><time>2026-03-28T08:30:38.942Z</time></trkpt><trkpt lat="43.6639843" lon="11.2764924"><ele>222.0</ele><time>2026-03-28T08:30:40.943Z</time></trkpt><trkpt lat="43.6640561" lon="11.2766014"><ele>222.0</ele><time>2026-03-28T08:30:42.943Z</time></trkpt><trkpt lat="43.6641001" lon="11.2766684"><ele>222.0</ele><time>2026-03-28T08:30:43.942Z</time></trkpt><trkpt lat="43.6641538" lon="11.276755"><ele>222.0</ele><time>2026-03-28T08:30:44.942Z</time></trkpt><trkpt lat="43.6642021" lon="11.276855"><ele>222.39999999999998</ele><time>2026-03-28T08:30:45.941Z</time></trkpt><trkpt lat="43.6642578" lon="11.2769573"><ele>222.79999999999998</ele><time>2026-03-28T08:30:46.942Z</time></trkpt><trkpt lat="43.6643343" lon="11.2770669"><ele>223.2</ele><time>2026-03-28T08:30:47.941Z</time></trkpt><trkpt lat="43.6644125" lon="11.2771759"><ele>223.6</ele><time>2026-03-28T08:30:48.942Z</time></trkpt><trkpt lat="43.664498" lon="11.2772924"><ele>224.0</ele><time>2026-03-28T08:30:49.941Z</time></trkpt><trkpt lat="43.6645887" lon="11.2773897"><ele>224.33333333333334</ele><time>2026-03-28T08:30:50.941Z</time></trkpt><trkpt lat="43.6646656" lon="11.2774801"><ele>224.66666666666669</ele><time>2026-03-28T08:30:51.941Z</time></trkpt><trkpt lat="43.6647172" lon="11.2775648"><ele>225.0</ele><time>2026-03-28T08:30:52.942Z</time></trkpt><trkpt lat="43.6647615" lon="11.2776331"><ele>225.33333333333331</ele><time>2026-03-28T08:30:53.942Z</time></trkpt><trkpt lat="43.6648159" lon="11.2776951"><ele>225.66666666666666</ele><time>2026-03-28T08:30:54.942Z</time></trkpt><trkpt lat="43.6648768" lon="11.277749"><ele>226.0</ele><time>2026-03-28T08:30:55.942Z</time></trkpt><trkpt lat="43.6649397" lon="11.2777895"><ele>225.99999999999997</ele><time>2026-03-28T08:30:56.943Z</time></trkpt><trkpt lat="43.6650076" lon="11.2778162"><ele>226.0</ele><time>2026-03-28T08:30:57.941Z</time></trkpt><trkpt lat="43.6650961" lon="11.2778703"><ele>226.0</ele><time>2026-03-28T08:30:59.942Z</time></trkpt><trkpt lat="43.6651317" lon="11.2779561"><ele>226.0</ele><time>2026-03-28T08:31:01.941Z</time></trkpt><trkpt lat="43.665154" lon="11.2780421"><ele>225.99999999999997</ele><time>2026-03-28T08:31:05.941Z</time></trkpt><trkpt lat="43.6651992" lon="11.278175"><ele>226.0</ele><time>2026-03-28T08:31:37.94Z</time></trkpt><trkpt lat="43.6652184" lon="11.2783171"><ele>225.4</ele><time>2026-03-28T08:31:39.942Z</time></trkpt><trkpt lat="43.6652765" lon="11.2784618"><ele>224.8</ele><time>2026-03-28T08:31:41.941Z</time></trkpt><trkpt lat="43.6653372" lon="11.2785418"><ele>224.20000000000002</ele><time>2026-03-28T08:31:42.942Z</time></trkpt><trkpt lat="43.6654022" lon="11.2786361"><ele>223.60000000000002</ele><time>2026-03-28T08:31:43.942Z</time></trkpt><trkpt lat="43.6654644" lon="11.2787561"><ele>223.0</ele><time>2026-03-28T08:31:44.941Z</time></trkpt><trkpt lat="43.6655165" lon="11.2788749"><ele>223.8</ele><time>2026-03-28T08:31:45.942Z</time></trkpt><trkpt lat="43.665574" lon="11.2789972"><ele>224.60000000000002</ele><time>2026-03-28T08:31:46.942Z</time></trkpt><trkpt lat="43.6656206" lon="11.2791163"><ele>225.39999999999998</ele><time>2026-03-28T08:31:47.942Z</time></trkpt><trkpt lat="43.6656464" lon="11.2792475"><ele>226.2</ele><time>2026-03-28T08:31:48.942Z</time></trkpt><trkpt lat="43.6656759" lon="11.2793718"><ele>227.0</ele><time>2026-03-28T08:31:49.941Z</time></trkpt><trkpt lat="43.6657249" lon="11.2795101"><ele>227.0</ele><time>2026-03-28T08:31:50.942Z</time></trkpt><trkpt lat="43.6657735" lon="11.2796378"><ele>227.0</ele><time>2026-03-28T08:31:51.943Z</time></trkpt><trkpt lat="43.6658187" lon="11.2797372"><ele>227.0</ele><time>2026-03-28T08:31:52.941Z</time></trkpt><trkpt lat="43.6658692" lon="11.2798307"><ele>227.0</ele><time>2026-03-28T08:31:53.941Z</time></trkpt><trkpt lat="43.6659444" lon="11.2799268"><ele>227.0</ele><time>2026-03-28T08:31:55.941Z</time></trkpt><trkpt lat="43.6660335" lon="11.2800057"><ele>226.39999999999998</ele><time>2026-03-28T08:31:57.942Z</time></trkpt><trkpt lat="43.6661216" lon="11.2800868"><ele>225.79999999999998</ele><time>2026-03-28T08:31:59.942Z</time></trkpt><trkpt lat="43.6662059" lon="11.2802025"><ele>225.2</ele><time>2026-03-28T08:32:01.942Z</time></trkpt><trkpt lat="43.6662473" lon="11.2802941"><ele>224.6</ele><time>2026-03-28T08:32:02.943Z</time></trkpt><trkpt lat="43.6662768" lon="11.280389"><ele>224.0</ele><time>2026-03-28T08:32:03.942Z</time></trkpt><trkpt lat="43.6663057" lon="11.2804867"><ele>224.79999999999998</ele><time>2026-03-28T08:32:04.942Z</time></trkpt><trkpt lat="43.6663564" lon="11.2806296"><ele>225.59999999999997</ele><time>2026-03-28T08:32:06.942Z</time></trkpt><trkpt lat="43.6664013" lon="11.2807883"><ele>226.4</ele><time>2026-03-28T08:32:08.942Z</time></trkpt><trkpt lat="43.66643" lon="11.2808764"><ele>227.2</ele><time>2026-03-28T08:32:09.941Z</time></trkpt><trkpt lat="43.6664587" lon="11.2809772"><ele>228.0</ele><time>2026-03-28T08:32:10.941Z</time></trkpt><trkpt lat="43.6664733" lon="11.2810798"><ele>228.0</ele><time>2026-03-28T08:32:11.942Z</time></trkpt><trkpt lat="43.6664998" lon="11.2812004"><ele>228.0</ele><time>2026-03-28T08:32:12.942Z</time></trkpt><trkpt lat="43.6665261" lon="11.2813127"><ele>228.0</ele><time>2026-03-28T08:32:13.941Z</time></trkpt><trkpt lat="43.6665524" lon="11.2814287"><ele>228.0</ele><time>2026-03-28T08:32:14.94Z</time></trkpt><trkpt lat="43.6665741" lon="11.281548"><ele>228.0</ele><time>2026-03-28T08:32:15.942Z</time></trkpt><trkpt lat="43.6665867" lon="11.2816698"><ele>228.0</ele><time>2026-03-28T08:32:16.942Z</time></trkpt><trkpt lat="43.6665949" lon="11.2818058"><ele>229.4</ele><time>2026-03-28T08:32:17.943Z</time></trkpt><trkpt lat="43.6666168" lon="11.2819394"><ele>230.8</ele><time>2026-03-28T08:32:18.942Z</time></trkpt><trkpt lat="43.6666404" lon="11.2820775"><ele>232.2</ele><time>2026-03-28T08:32:19.942Z</time></trkpt><trkpt lat="43.6666556" lon="11.2822204"><ele>233.6</ele><time>2026-03-28T08:32:20.943Z</time></trkpt><trkpt lat="43.6666727" lon="11.2823564"><ele>235.0</ele><time>2026-03-28T08:32:21.943Z</time></trkpt><trkpt lat="43.6666886" lon="11.2824795"><ele>236.33333333333331</ele><time>2026-03-28T08:32:22.942Z</time></trkpt><trkpt lat="43.6667036" lon="11.2825957"><ele>237.66666666666666</ele><time>2026-03-28T08:32:23.941Z</time></trkpt><trkpt lat="43.6667153" lon="11.2826909"><ele>239.0</ele><time>2026-03-28T08:32:24.943Z</time></trkpt><trkpt lat="43.6667357" lon="11.2828113"><ele>240.33333333333331</ele><time>2026-03-28T08:32:26.942Z</time></trkpt><trkpt lat="43.6668002" lon="11.2829168"><ele>241.66666666666666</ele><time>2026-03-28T08:32:28.943Z</time></trkpt><trkpt lat="43.6668541" lon="11.2829736"><ele>243.0</ele><time>2026-03-28T08:32:29.941Z</time></trkpt><trkpt lat="43.6669151" lon="11.283028"><ele>242.5</ele><time>2026-03-28T08:32:30.942Z</time></trkpt><trkpt lat="43.6669904" lon="11.2830915"><ele>242.0</ele><time>2026-03-28T08:32:31.942Z</time></trkpt><trkpt lat="43.6670518" lon="11.2831691"><ele>241.5</ele><time>2026-03-28T08:32:32.941Z</time></trkpt><trkpt lat="43.6671002" lon="11.2832586"><ele>241.0</ele><time>2026-03-28T08:32:33.941Z</time></trkpt><trkpt lat="43.6671313" lon="11.2833595"><ele>240.5</ele><time>2026-03-28T08:32:34.942Z</time></trkpt><trkpt lat="43.6671626" lon="11.2834676"><ele>240.0</ele><time>2026-03-28T08:32:35.942Z</time></trkpt><trkpt lat="43.6671835" lon="11.2835973"><ele>240.0</ele><time>2026-03-28T08:32:36.941Z</time></trkpt><trkpt lat="43.6672066" lon="11.2837122"><ele>240.0</ele><time>2026-03-28T08:32:37.942Z</time></trkpt><trkpt lat="43.6672244" lon="11.2838413"><ele>240.0</ele><time>2026-03-28T08:32:38.943Z</time></trkpt><trkpt lat="43.6672554" lon="11.2839716"><ele>240.0</ele><time>2026-03-28T08:32:39.942Z</time></trkpt><trkpt lat="43.667273" lon="11.2840896"><ele>240.0</ele><time>2026-03-28T08:32:40.941Z</time></trkpt><trkpt lat="43.6672784" lon="11.2841905"><ele>240.0</ele><time>2026-03-28T08:32:41.941Z</time></trkpt><trkpt lat="43.6672919" lon="11.2842954"><ele>241.0</ele><time>2026-03-28T08:32:42.94Z</time></trkpt><trkpt lat="43.667302" lon="11.2843991"><ele>242.0</ele><time>2026-03-28T08:32:43.942Z</time></trkpt><trkpt lat="43.6673208" lon="11.2844932"><ele>243.0</ele><time>2026-03-28T08:32:44.942Z</time></trkpt><trkpt lat="43.6673525" lon="11.2845914"><ele>244.0</ele><time>2026-03-28T08:32:45.941Z</time></trkpt><trkpt lat="43.6673934" lon="11.2846981"><ele>245.0</ele><time>2026-03-28T08:32:46.942Z</time></trkpt><trkpt lat="43.6674358" lon="11.2848075"><ele>246.0</ele><time>2026-03-28T08:32:47.941Z</time></trkpt><trkpt lat="43.6674807" lon="11.2849205"><ele>246.0</ele><time>2026-03-28T08:32:48.943Z</time></trkpt><trkpt lat="43.6675233" lon="11.2850258"><ele>246.0</ele><time>2026-03-28T08:32:49.941Z</time></trkpt><trkpt lat="43.6675625" lon="11.2851232"><ele>246.0</ele><time>2026-03-28T08:32:50.943Z</time></trkpt><trkpt lat="43.6676027" lon="11.2852153"><ele>246.0</ele><time>2026-03-28T08:32:51.941Z</time></trkpt><trkpt lat="43.6676427" lon="11.2853059"><ele>246.0</ele><time>2026-03-28T08:32:52.942Z</time></trkpt><trkpt lat="43.6676834" lon="11.2854021"><ele>246.0</ele><time>2026-03-28T08:32:53.943Z</time></trkpt><trkpt lat="43.6677316" lon="11.2854961"><ele>246.0</ele><time>2026-03-28T08:32:54.941Z</time></trkpt><trkpt lat="43.6677936" lon="11.2855897"><ele>246.0</ele><time>2026-03-28T08:32:55.943Z</time></trkpt><trkpt lat="43.6678447" lon="11.2856655"><ele>246.0</ele><time>2026-03-28T08:32:56.941Z</time></trkpt><trkpt lat="43.6679007" lon="11.2857354"><ele>246.0</ele><time>2026-03-28T08:32:57.941Z</time></trkpt><trkpt lat="43.667959" lon="11.2857859"><ele>246.0</ele><time>2026-03-28T08:32:58.943Z</time></trkpt><trkpt lat="43.6680292" lon="11.2858296"><ele>246.0</ele><time>2026-03-28T08:32:59.942Z</time></trkpt><trkpt lat="43.6680982" lon="11.2858603"><ele>246.0</ele><time>2026-03-28T08:33:00.941Z</time></trkpt><trkpt lat="43.6681655" lon="11.2858865"><ele>246.0</ele><time>2026-03-28T08:33:01.942Z</time></trkpt><trkpt lat="43.6682692" lon="11.2859276"><ele>246.0</ele><time>2026-03-28T08:33:03.941Z</time></trkpt><trkpt lat="43.6683343" lon="11.2859753"><ele>246.0</ele><time>2026-03-28T08:33:05.941Z</time></trkpt><trkpt lat="43.6684107" lon="11.2860123"><ele>246.0</ele><time>2026-03-28T08:33:08.942Z</time></trkpt><trkpt lat="43.6684702" lon="11.2860572"><ele>246.0</ele><time>2026-03-28T08:33:10.941Z</time></trkpt><trkpt lat="43.6685495" lon="11.2861575"><ele>246.16666666666666</ele><time>2026-03-28T08:33:12.942Z</time></trkpt><trkpt lat="43.6686255" lon="11.2862585"><ele>246.33333333333331</ele><time>2026-03-28T08:33:14.941Z</time></trkpt><trkpt lat="43.6686759" lon="11.2863809"><ele>246.5</ele><time>2026-03-28T08:33:16.941Z</time></trkpt><trkpt lat="43.6686934" lon="11.2864744"><ele>246.66666666666666</ele><time>2026-03-28T08:33:17.943Z</time></trkpt><trkpt lat="43.6687034" lon="11.2865794"><ele>246.83333333333331</ele><time>2026-03-28T08:33:18.942Z</time></trkpt><trkpt lat="43.6687289" lon="11.2866897"><ele>247.0</ele><time>2026-03-28T08:33:19.943Z</time></trkpt><trkpt lat="43.6687597" lon="11.286808"><ele>247.2</ele><time>2026-03-28T08:33:20.942Z</time></trkpt><trkpt lat="43.6687959" lon="11.2869331"><ele>247.39999999999998</ele><time>2026-03-28T08:33:21.943Z</time></trkpt><trkpt lat="43.6688367" lon="11.2870726"><ele>247.60000000000002</ele><time>2026-03-28T08:33:22.941Z</time></trkpt><trkpt lat="43.6688729" lon="11.2872073"><ele>247.8</ele><time>2026-03-28T08:33:23.942Z</time></trkpt><trkpt lat="43.6689049" lon="11.2873429"><ele>248.0</ele><time>2026-03-28T08:33:24.942Z</time></trkpt><trkpt lat="43.6689304" lon="11.2874814"><ele>248.0</ele><time>2026-03-28T08:33:25.942Z</time></trkpt><trkpt lat="43.6689578" lon="11.2876236"><ele>248.0</ele><time>2026-03-28T08:33:26.942Z</time></trkpt><trkpt lat="43.6689881" lon="11.2877801"><ele>248.0</ele><time>2026-03-28T08:33:27.94Z</time></trkpt><trkpt lat="43.6690128" lon="11.287936"><ele>248.0</ele><time>2026-03-28T08:33:28.941Z</time></trkpt><trkpt lat="43.6690323" lon="11.2880985"><ele>248.0</ele><time>2026-03-28T08:33:29.941Z</time></trkpt><trkpt lat="43.6690533" lon="11.2882707"><ele>248.0</ele><time>2026-03-28T08:33:30.941Z</time></trkpt><trkpt lat="43.6690711" lon="11.2884457"><ele>248.0</ele><time>2026-03-28T08:33:31.942Z</time></trkpt><trkpt lat="43.6690861" lon="11.2886228"><ele>248.0</ele><time>2026-03-28T08:33:32.941Z</time></trkpt><trkpt lat="43.6691003" lon="11.2888047"><ele>246.5</ele><time>2026-03-28T08:33:33.941Z</time></trkpt><trkpt lat="43.6691131" lon="11.2889884"><ele>245.0</ele><time>2026-03-28T08:33:34.94Z</time></trkpt><trkpt lat="43.6691118" lon="11.2891778"><ele>243.5</ele><time>2026-03-28T08:33:35.942Z</time></trkpt><trkpt lat="43.6691094" lon="11.2893734"><ele>242.0</ele><time>2026-03-28T08:33:36.941Z</time></trkpt><trkpt lat="43.6690981" lon="11.2895732"><ele>241.5</ele><time>2026-03-28T08:33:37.942Z</time></trkpt><trkpt lat="43.6690864" lon="11.2897767"><ele>241.0</ele><time>2026-03-28T08:33:38.943Z</time></trkpt><trkpt lat="43.6690657" lon="11.2899715"><ele>240.5</ele><time>2026-03-28T08:33:39.943Z</time></trkpt><trkpt lat="43.6690417" lon="11.2901694"><ele>240.0</ele><time>2026-03-28T08:33:40.942Z</time></trkpt><trkpt lat="43.6690173" lon="11.290356"><ele>240.0</ele><time>2026-03-28T08:33:41.942Z</time></trkpt><trkpt lat="43.6689855" lon="11.2905509"><ele>240.0</ele><time>2026-03-28T08:33:42.942Z</time></trkpt><trkpt lat="43.6689443" lon="11.2907444"><ele>240.0</ele><time>2026-03-28T08:33:43.941Z</time></trkpt><trkpt lat="43.6689002" lon="11.2909357"><ele>240.0</ele><time>2026-03-28T08:33:44.94Z</time></trkpt><trkpt lat="43.6688514" lon="11.2911239"><ele>240.25</ele><time>2026-03-28T08:33:45.941Z</time></trkpt><trkpt lat="43.6687917" lon="11.291315"><ele>240.5</ele><time>2026-03-28T08:33:46.942Z</time></trkpt><trkpt lat="43.668725" lon="11.2914905"><ele>240.75</ele><time>2026-03-28T08:33:47.941Z</time></trkpt><trkpt lat="43.6686431" lon="11.2916567"><ele>241.0</ele><time>2026-03-28T08:33:48.942Z</time></trkpt><trkpt lat="43.6685594" lon="11.2918054"><ele>240.20000000000002</ele><time>2026-03-28T08:33:49.941Z</time></trkpt><trkpt lat="43.6684845" lon="11.2919404"><ele>239.40000000000003</ele><time>2026-03-28T08:33:50.942Z</time></trkpt><trkpt lat="43.6684197" lon="11.2920598"><ele>238.6</ele><time>2026-03-28T08:33:51.942Z</time></trkpt><trkpt lat="43.6683549" lon="11.2921778"><ele>237.8</ele><time>2026-03-28T08:33:52.941Z</time></trkpt><trkpt lat="43.6683071" lon="11.2922734"><ele>237.0</ele><time>2026-03-28T08:33:53.943Z</time></trkpt><trkpt lat="43.6682659" lon="11.2923486"><ele>237.0</ele><time>2026-03-28T08:33:54.942Z</time></trkpt><trkpt lat="43.6681777" lon="11.2924488"><ele>237.0</ele><time>2026-03-28T08:33:56.941Z</time></trkpt><trkpt lat="43.668097" lon="11.2924762"><ele>237.0</ele><time>2026-03-28T08:33:57.941Z</time></trkpt><trkpt lat="43.668004" lon="11.2924999"><ele>237.0</ele><time>2026-03-28T08:33:58.943Z</time></trkpt><trkpt lat="43.6679063" lon="11.292527"><ele>237.0</ele><time>2026-03-28T08:33:59.943Z</time></trkpt><trkpt lat="43.6678008" lon="11.2925549"><ele>237.75</ele><time>2026-03-28T08:34:00.943Z</time></trkpt><trkpt lat="43.6676988" lon="11.2925895"><ele>238.5</ele><time>2026-03-28T08:34:01.941Z</time></trkpt><trkpt lat="43.6675844" lon="11.292634"><ele>239.25</ele><time>2026-03-28T08:34:02.941Z</time></trkpt><trkpt lat="43.6674663" lon="11.2926849"><ele>240.0</ele><time>2026-03-28T08:34:03.943Z</time></trkpt><trkpt lat="43.6673583" lon="11.2927269"><ele>240.0</ele><time>2026-03-28T08:34:04.942Z</time></trkpt><trkpt lat="43.6672446" lon="11.292766"><ele>240.0</ele><time>2026-03-28T08:34:05.942Z</time></trkpt><trkpt lat="43.667124" lon="11.2928212"><ele>240.0</ele><time>2026-03-28T08:34:06.942Z</time></trkpt><trkpt lat="43.6670051" lon="11.2928691"><ele>240.0</ele><time>2026-03-28T08:34:07.943Z</time></trkpt><trkpt lat="43.6668814" lon="11.2929211"><ele>240.5</ele><time>2026-03-28T08:34:08.942Z</time></trkpt><trkpt lat="43.6667586" lon="11.2929683"><ele>241.0</ele><time>2026-03-28T08:34:09.941Z</time></trkpt><trkpt lat="43.6666335" lon="11.2929994"><ele>241.5</ele><time>2026-03-28T08:34:10.942Z</time></trkpt><trkpt lat="43.666509" lon="11.2930332"><ele>242.0</ele><time>2026-03-28T08:34:11.94Z</time></trkpt><trkpt lat="43.6663749" lon="11.2930737"><ele>241.25</ele><time>2026-03-28T08:34:12.941Z</time></trkpt><trkpt lat="43.6662416" lon="11.2931191"><ele>240.5</ele><time>2026-03-28T08:34:13.943Z</time></trkpt><trkpt lat="43.6661192" lon="11.2931628"><ele>239.75</ele><time>2026-03-28T08:34:14.942Z</time></trkpt><trkpt lat="43.6659854" lon="11.2932097"><ele>239.0</ele><time>2026-03-28T08:34:15.942Z</time></trkpt><trkpt lat="43.6658427" lon="11.2932561"><ele>239.0</ele><time>2026-03-28T08:34:16.941Z</time></trkpt><trkpt lat="43.6657109" lon="11.2932954"><ele>239.0</ele><time>2026-03-28T08:34:17.94Z</time></trkpt><trkpt lat="43.6655673" lon="11.2933178"><ele>239.0</ele><time>2026-03-28T08:34:18.942Z</time></trkpt><trkpt lat="43.66543" lon="11.2933256"><ele>239.0</ele><time>2026-03-28T08:34:19.941Z</time></trkpt><trkpt lat="43.6652895" lon="11.2933429"><ele>240.0</ele><time>2026-03-28T08:34:20.941Z</time></trkpt><trkpt lat="43.6651572" lon="11.2933586"><ele>241.0</ele><time>2026-03-28T08:34:21.942Z</time></trkpt><trkpt lat="43.6650271" lon="11.2933818"><ele>242.0</ele><time>2026-03-28T08:34:22.942Z</time></trkpt><trkpt lat="43.6649004" lon="11.2934082"><ele>243.0</ele><time>2026-03-28T08:34:23.941Z</time></trkpt><trkpt lat="43.6647848" lon="11.293443"><ele>243.0</ele><time>2026-03-28T08:34:24.941Z</time></trkpt><trkpt lat="43.6646788" lon="11.2934747"><ele>243.0</ele><time>2026-03-28T08:34:25.941Z</time></trkpt><trkpt lat="43.664576" lon="11.2934955"><ele>243.0</ele><time>2026-03-28T08:34:26.942Z</time></trkpt><trkpt lat="43.6644798" lon="11.2934892"><ele>243.0</ele><time>2026-03-28T08:34:27.942Z</time></trkpt><trkpt lat="43.6644002" lon="11.2934529"><ele>243.0</ele><time>2026-03-28T08:34:28.942Z</time></trkpt><trkpt lat="43.6643309" lon="11.2933971"><ele>243.2</ele><time>2026-03-28T08:34:29.943Z</time></trkpt><trkpt lat="43.6642537" lon="11.2933653"><ele>243.4</ele><time>2026-03-28T08:34:30.941Z</time></trkpt><trkpt lat="43.6641673" lon="11.2933534"><ele>243.59999999999997</ele><time>2026-03-28T08:34:31.942Z</time></trkpt><trkpt lat="43.6640745" lon="11.2933597"><ele>243.79999999999998</ele><time>2026-03-28T08:34:32.943Z</time></trkpt><trkpt lat="43.6639747" lon="11.2933456"><ele>244.0</ele><time>2026-03-28T08:34:33.941Z</time></trkpt><trkpt lat="43.6638658" lon="11.293317"><ele>244.0</ele><time>2026-03-28T08:34:34.941Z</time></trkpt><trkpt lat="43.6637511" lon="11.2932775"><ele>244.0</ele><time>2026-03-28T08:34:35.943Z</time></trkpt><trkpt lat="43.6636354" lon="11.2932446"><ele>244.0</ele><time>2026-03-28T08:34:36.943Z</time></trkpt><trkpt lat="43.6635079" lon="11.2932355"><ele>244.0</ele><time>2026-03-28T08:34:37.942Z</time></trkpt><trkpt lat="43.6633804" lon="11.293234"><ele>242.5</ele><time>2026-03-28T08:34:38.942Z</time></trkpt><trkpt lat="43.6632526" lon="11.2932446"><ele>241.0</ele><time>2026-03-28T08:34:39.942Z</time></trkpt><trkpt lat="43.6631322" lon="11.293251"><ele>239.5</ele><time>2026-03-28T08:34:40.941Z</time></trkpt><trkpt lat="43.663017" lon="11.2932606"><ele>238.0</ele><time>2026-03-28T08:34:41.943Z</time></trkpt><trkpt lat="43.6629046" lon="11.2932644"><ele>238.0</ele><time>2026-03-28T08:34:42.941Z</time></trkpt><trkpt lat="43.6627945" lon="11.2932582"><ele>238.0</ele><time>2026-03-28T08:34:43.94Z</time></trkpt><trkpt lat="43.6626917" lon="11.2932516"><ele>238.0</ele><time>2026-03-28T08:34:44.941Z</time></trkpt><trkpt lat="43.6625957" lon="11.2932403"><ele>238.0</ele><time>2026-03-28T08:34:45.942Z</time></trkpt><trkpt lat="43.6624944" lon="11.2932213"><ele>238.0</ele><time>2026-03-28T08:34:46.942Z</time></trkpt><trkpt lat="43.6624044" lon="11.2932032"><ele>236.5</ele><time>2026-03-28T08:34:47.942Z</time></trkpt><trkpt lat="43.662307" lon="11.2931704"><ele>235.0</ele><time>2026-03-28T08:34:48.942Z</time></trkpt><trkpt lat="43.6622022" lon="11.2931288"><ele>233.5</ele><time>2026-03-28T08:34:49.943Z</time></trkpt><trkpt lat="43.6620908" lon="11.2930774"><ele>232.0</ele><time>2026-03-28T08:34:50.943Z</time></trkpt><trkpt lat="43.6619708" lon="11.2930123"><ele>230.5</ele><time>2026-03-28T08:34:51.942Z</time></trkpt><trkpt lat="43.6618453" lon="11.2929308"><ele>229.0</ele><time>2026-03-28T08:34:52.94Z</time></trkpt><trkpt lat="43.6617161" lon="11.2928452"><ele>227.5</ele><time>2026-03-28T08:34:53.942Z</time></trkpt><trkpt lat="43.6615887" lon="11.2927489"><ele>226.0</ele><time>2026-03-28T08:34:54.943Z</time></trkpt><trkpt lat="43.6614564" lon="11.2926506"><ele>226.0</ele><time>2026-03-28T08:34:55.942Z</time></trkpt><trkpt lat="43.6613267" lon="11.2925649"><ele>226.0</ele><time>2026-03-28T08:34:56.943Z</time></trkpt><trkpt lat="43.661187" lon="11.2924914"><ele>226.0</ele><time>2026-03-28T08:34:57.943Z</time></trkpt><trkpt lat="43.661042" lon="11.2924298"><ele>226.0</ele><time>2026-03-28T08:34:58.943Z</time></trkpt><trkpt lat="43.6608777" lon="11.2923911"><ele>225.66666666666666</ele><time>2026-03-28T08:34:59.943Z</time></trkpt><trkpt lat="43.6607086" lon="11.2923777"><ele>225.33333333333331</ele><time>2026-03-28T08:35:00.941Z</time></trkpt><trkpt lat="43.6605322" lon="11.2923968"><ele>225.0</ele><time>2026-03-28T08:35:01.941Z</time></trkpt><trkpt lat="43.6603581" lon="11.2924472"><ele>223.33333333333331</ele><time>2026-03-28T08:35:02.942Z</time></trkpt><trkpt lat="43.6601894" lon="11.2925353"><ele>221.66666666666666</ele><time>2026-03-28T08:35:03.941Z</time></trkpt><trkpt lat="43.6600347" lon="11.2926475"><ele>220.0</ele><time>2026-03-28T08:35:04.942Z</time></trkpt><trkpt lat="43.6598973" lon="11.2927727"><ele>220.0</ele><time>2026-03-28T08:35:05.942Z</time></trkpt><trkpt lat="43.6597768" lon="11.2929053"><ele>220.0</ele><time>2026-03-28T08:35:06.941Z</time></trkpt><trkpt lat="43.6596703" lon="11.2930307"><ele>220.0</ele><time>2026-03-28T08:35:07.942Z</time></trkpt><trkpt lat="43.6595777" lon="11.2931396"><ele>220.0</ele><time>2026-03-28T08:35:08.941Z</time></trkpt><trkpt lat="43.6594974" lon="11.2932289"><ele>220.99999999999997</ele><time>2026-03-28T08:35:09.943Z</time></trkpt><trkpt lat="43.6594195" lon="11.2932923"><ele>222.0</ele><time>2026-03-28T08:35:10.941Z</time></trkpt><trkpt lat="43.6593421" lon="11.2933333"><ele>223.0</ele><time>2026-03-28T08:35:11.941Z</time></trkpt><trkpt lat="43.6592745" lon="11.2933742"><ele>224.0</ele><time>2026-03-28T08:35:12.942Z</time></trkpt><trkpt lat="43.6592089" lon="11.2934514"><ele>224.99999999999997</ele><time>2026-03-28T08:35:13.942Z</time></trkpt><trkpt lat="43.659166" lon="11.2935616"><ele>226.0</ele><time>2026-03-28T08:35:14.943Z</time></trkpt><trkpt lat="43.6591227" lon="11.2937035"><ele>226.0</ele><time>2026-03-28T08:35:15.943Z</time></trkpt><trkpt lat="43.6590505" lon="11.2938273"><ele>226.0</ele><time>2026-03-28T08:35:16.942Z</time></trkpt><trkpt lat="43.6589532" lon="11.2939426"><ele>226.0</ele><time>2026-03-28T08:35:17.942Z</time></trkpt><trkpt lat="43.6588485" lon="11.294053"><ele>226.0</ele><time>2026-03-28T08:35:18.943Z</time></trkpt><trkpt lat="43.6587165" lon="11.2941578"><ele>228.0</ele><time>2026-03-28T08:35:19.943Z</time></trkpt><trkpt lat="43.6585954" lon="11.2942625"><ele>230.0</ele><time>2026-03-28T08:35:20.942Z</time></trkpt><trkpt lat="43.6584715" lon="11.2943724"><ele>232.0</ele><time>2026-03-28T08:35:21.941Z</time></trkpt><trkpt lat="43.6583359" lon="11.2944855"><ele>234.0</ele><time>2026-03-28T08:35:22.943Z</time></trkpt><trkpt lat="43.6582031" lon="11.2945948"><ele>234.0</ele><time>2026-03-28T08:35:23.943Z</time></trkpt><trkpt lat="43.6580725" lon="11.2947004"><ele>234.0</ele><time>2026-03-28T08:35:24.942Z</time></trkpt><trkpt lat="43.6579447" lon="11.2948106"><ele>234.0</ele><time>2026-03-28T08:35:25.942Z</time></trkpt><trkpt lat="43.6578122" lon="11.2949235"><ele>233.66666666666669</ele><time>2026-03-28T08:35:26.943Z</time></trkpt><trkpt lat="43.657687" lon="11.2950495"><ele>233.33333333333334</ele><time>2026-03-28T08:35:27.943Z</time></trkpt><trkpt lat="43.6575757" lon="11.2951899"><ele>233.0</ele><time>2026-03-28T08:35:28.942Z</time></trkpt><trkpt lat="43.6574647" lon="11.295327"><ele>233.0</ele><time>2026-03-28T08:35:29.943Z</time></trkpt><trkpt lat="43.6573801" lon="11.2954677"><ele>233.0</ele><time>2026-03-28T08:35:30.943Z</time></trkpt><trkpt lat="43.6572905" lon="11.2956042"><ele>233.0</ele><time>2026-03-28T08:35:31.943Z</time></trkpt><trkpt lat="43.657207" lon="11.2957453"><ele>233.0</ele><time>2026-03-28T08:35:32.942Z</time></trkpt><trkpt lat="43.6571307" lon="11.2958822"><ele>233.0</ele><time>2026-03-28T08:35:33.943Z</time></trkpt><trkpt lat="43.6570645" lon="11.2960184"><ele>233.0</ele><time>2026-03-28T08:35:34.94Z</time></trkpt><trkpt lat="43.6570142" lon="11.2961446"><ele>233.0</ele><time>2026-03-28T08:35:35.942Z</time></trkpt><trkpt lat="43.6569802" lon="11.2962572"><ele>233.0</ele><time>2026-03-28T08:35:36.941Z</time></trkpt><trkpt lat="43.6569642" lon="11.2963538"><ele>233.0</ele><time>2026-03-28T08:35:37.942Z</time></trkpt><trkpt lat="43.6570165" lon="11.2964645"><ele>233.0</ele><time>2026-03-28T08:35:39.943Z</time></trkpt><trkpt lat="43.6571076" lon="11.296478"><ele>233.0</ele><time>2026-03-28T08:35:41.942Z</time></trkpt><trkpt lat="43.6572006" lon="11.2964602"><ele>233.0</ele><time>2026-03-28T08:35:43.94Z</time></trkpt><trkpt lat="43.6573243" lon="11.2964334"><ele>233.0</ele><time>2026-03-28T08:35:45.943Z</time></trkpt><trkpt lat="43.657415" lon="11.2964177"><ele>233.0</ele><time>2026-03-28T08:35:46.942Z</time></trkpt><trkpt lat="43.6575162" lon="11.2964007"><ele>233.0</ele><time>2026-03-28T08:35:47.942Z</time></trkpt><trkpt lat="43.6576249" lon="11.2963852"><ele>233.0</ele><time>2026-03-28T08:35:48.942Z</time></trkpt><trkpt lat="43.6577256" lon="11.2963696"><ele>233.0</ele><time>2026-03-28T08:35:49.943Z</time></trkpt><trkpt lat="43.6578103" lon="11.2963558"><ele>233.0</ele><time>2026-03-28T08:35:50.943Z</time></trkpt><trkpt lat="43.6578852" lon="11.2963497"><ele>233.0</ele><time>2026-03-28T08:35:51.941Z</time></trkpt><trkpt lat="43.6580109" lon="11.296372"><ele>234.2</ele><time>2026-03-28T08:35:53.942Z</time></trkpt><trkpt lat="43.6581082" lon="11.2965096"><ele>235.4</ele><time>2026-03-28T08:35:55.941Z</time></trkpt><trkpt lat="43.6581616" lon="11.296618"><ele>236.59999999999997</ele><time>2026-03-28T08:35:56.942Z</time></trkpt><trkpt lat="43.6582078" lon="11.2967456"><ele>237.79999999999998</ele><time>2026-03-28T08:35:57.941Z</time></trkpt><trkpt lat="43.6582553" lon="11.2968854"><ele>239.0</ele><time>2026-03-28T08:35:58.943Z</time></trkpt><trkpt lat="43.6583096" lon="11.2970196"><ele>239.00000000000003</ele><time>2026-03-28T08:35:59.941Z</time></trkpt><trkpt lat="43.6583473" lon="11.2971384"><ele>239.0</ele><time>2026-03-28T08:36:00.941Z</time></trkpt><trkpt lat="43.6583747" lon="11.2972323"><ele>239.0</ele><time>2026-03-28T08:36:01.943Z</time></trkpt><trkpt lat="43.6584104" lon="11.297326"><ele>239.0</ele><time>2026-03-28T08:36:02.943Z</time></trkpt><trkpt lat="43.6584347" lon="11.2974664"><ele>239.00000000000003</ele><time>2026-03-28T08:36:04.941Z</time></trkpt><trkpt lat="43.6584537" lon="11.2975566"><ele>239.0</ele><time>2026-03-28T08:36:07.942Z</time></trkpt><trkpt lat="43.6584077" lon="11.2976367"><ele>240.00000000000003</ele><time>2026-03-28T08:36:09.942Z</time></trkpt><trkpt lat="43.6583731" lon="11.2977513"><ele>241.0</ele><time>2026-03-28T08:36:11.942Z</time></trkpt><trkpt lat="43.6583132" lon="11.2978798"><ele>242.0</ele><time>2026-03-28T08:36:13.943Z</time></trkpt><trkpt lat="43.6582779" lon="11.2979578"><ele>243.0</ele><time>2026-03-28T08:36:14.942Z</time></trkpt><trkpt lat="43.6582389" lon="11.2980386"><ele>244.00000000000003</ele><time>2026-03-28T08:36:15.942Z</time></trkpt><trkpt lat="43.6581974" lon="11.298136"><ele>245.0</ele><time>2026-03-28T08:36:16.943Z</time></trkpt><trkpt lat="43.6581599" lon="11.2982375"><ele>245.2</ele><time>2026-03-28T08:36:17.942Z</time></trkpt><trkpt lat="43.6581201" lon="11.298341"><ele>245.4</ele><time>2026-03-28T08:36:18.942Z</time></trkpt><trkpt lat="43.6580771" lon="11.2984508"><ele>245.60000000000002</ele><time>2026-03-28T08:36:19.943Z</time></trkpt><trkpt lat="43.6580303" lon="11.298572"><ele>245.8</ele><time>2026-03-28T08:36:20.943Z</time></trkpt><trkpt lat="43.6579811" lon="11.298697"><ele>246.0</ele><time>2026-03-28T08:36:21.942Z</time></trkpt><trkpt lat="43.6579313" lon="11.2988284"><ele>245.20000000000002</ele><time>2026-03-28T08:36:22.942Z</time></trkpt><trkpt lat="43.6578824" lon="11.2989599"><ele>244.40000000000003</ele><time>2026-03-28T08:36:23.941Z</time></trkpt><trkpt lat="43.6578398" lon="11.2990762"><ele>243.6</ele><time>2026-03-28T08:36:24.942Z</time></trkpt><trkpt lat="43.6577883" lon="11.2991936"><ele>242.8</ele><time>2026-03-28T08:36:25.942Z</time></trkpt><trkpt lat="43.6577305" lon="11.2993069"><ele>242.0</ele><time>2026-03-28T08:36:26.942Z</time></trkpt><trkpt lat="43.6576125" lon="11.299569"><ele>241.5</ele><time>2026-03-28T08:36:28.942Z</time></trkpt><trkpt lat="43.6575522" lon="11.2997024"><ele>241.0</ele><time>2026-03-28T08:36:29.943Z</time></trkpt><trkpt lat="43.6574946" lon="11.2998363"><ele>240.5</ele><time>2026-03-28T08:36:30.943Z</time></trkpt><trkpt lat="43.6574349" lon="11.299969"><ele>240.0</ele><time>2026-03-28T08:36:31.943Z</time></trkpt><trkpt lat="43.6573691" lon="11.3001052"><ele>239.5</ele><time>2026-03-28T08:36:32.94Z</time></trkpt><trkpt lat="43.6573054" lon="11.3002388"><ele>239.0</ele><time>2026-03-28T08:36:33.942Z</time></trkpt><trkpt lat="43.6572413" lon="11.3003815"><ele>238.5</ele><time>2026-03-28T08:36:34.941Z</time></trkpt><trkpt lat="43.6571747" lon="11.3005307"><ele>238.0</ele><time>2026-03-28T08:36:35.941Z</time></trkpt><trkpt lat="43.6571093" lon="11.3006775"><ele>237.25</ele><time>2026-03-28T08:36:36.942Z</time></trkpt><trkpt lat="43.6570481" lon="11.3008211"><ele>236.5</ele><time>2026-03-28T08:36:37.942Z</time></trkpt><trkpt lat="43.656982" lon="11.30097"><ele>235.75</ele><time>2026-03-28T08:36:38.943Z</time></trkpt><trkpt lat="43.6569147" lon="11.3011171"><ele>235.0</ele><time>2026-03-28T08:36:39.943Z</time></trkpt><trkpt lat="43.6568478" lon="11.3012729"><ele>236.25</ele><time>2026-03-28T08:36:40.942Z</time></trkpt><trkpt lat="43.6567767" lon="11.3014268"><ele>237.5</ele><time>2026-03-28T08:36:41.942Z</time></trkpt><trkpt lat="43.6567086" lon="11.3015838"><ele>238.75</ele><time>2026-03-28T08:36:42.942Z</time></trkpt><trkpt lat="43.6566379" lon="11.3017388"><ele>240.0</ele><time>2026-03-28T08:36:43.943Z</time></trkpt><trkpt lat="43.6565657" lon="11.3018943"><ele>240.0</ele><time>2026-03-28T08:36:44.943Z</time></trkpt><trkpt lat="43.6564949" lon="11.3020509"><ele>240.0</ele><time>2026-03-28T08:36:45.942Z</time></trkpt><trkpt lat="43.6564261" lon="11.302206"><ele>240.0</ele><time>2026-03-28T08:36:46.942Z</time></trkpt><trkpt lat="43.6563571" lon="11.3023694"><ele>240.0</ele><time>2026-03-28T08:36:47.942Z</time></trkpt><trkpt lat="43.6562901" lon="11.3025408"><ele>241.33333333333331</ele><time>2026-03-28T08:36:48.943Z</time></trkpt><trkpt lat="43.6562269" lon="11.3027227"><ele>242.66666666666666</ele><time>2026-03-28T08:36:49.943Z</time></trkpt><trkpt lat="43.6561671" lon="11.3029161"><ele>244.0</ele><time>2026-03-28T08:36:50.942Z</time></trkpt><trkpt lat="43.6561084" lon="11.3031185"><ele>241.33333333333331</ele><time>2026-03-28T08:36:51.942Z</time></trkpt><trkpt lat="43.6560548" lon="11.3033114"><ele>238.66666666666669</ele><time>2026-03-28T08:36:52.942Z</time></trkpt><trkpt lat="43.6559951" lon="11.3035089"><ele>236.0</ele><time>2026-03-28T08:36:53.943Z</time></trkpt><trkpt lat="43.6559338" lon="11.3037099"><ele>234.66666666666669</ele><time>2026-03-28T08:36:54.943Z</time></trkpt><trkpt lat="43.6558699" lon="11.3039171"><ele>233.33333333333331</ele><time>2026-03-28T08:36:55.942Z</time></trkpt><trkpt lat="43.6558116" lon="11.3041088"><ele>232.0</ele><time>2026-03-28T08:36:56.942Z</time></trkpt><trkpt lat="43.6557583" lon="11.3043044"><ele>232.0</ele><time>2026-03-28T08:36:57.942Z</time></trkpt><trkpt lat="43.655706" lon="11.3044975"><ele>232.0</ele><time>2026-03-28T08:36:58.943Z</time></trkpt><trkpt lat="43.6556538" lon="11.3047039"><ele>232.0</ele><time>2026-03-28T08:36:59.943Z</time></trkpt><trkpt lat="43.6555927" lon="11.3049131"><ele>232.0</ele><time>2026-03-28T08:37:00.941Z</time></trkpt><trkpt lat="43.6555205" lon="11.3051273"><ele>232.0</ele><time>2026-03-28T08:37:01.942Z</time></trkpt><trkpt lat="43.6554499" lon="11.3053348"><ele>232.0</ele><time>2026-03-28T08:37:02.942Z</time></trkpt><trkpt lat="43.6553815" lon="11.3055383"><ele>233.0</ele><time>2026-03-28T08:37:03.942Z</time></trkpt><trkpt lat="43.6553142" lon="11.3057273"><ele>234.0</ele><time>2026-03-28T08:37:04.943Z</time></trkpt><trkpt lat="43.6552435" lon="11.3059108"><ele>235.0</ele><time>2026-03-28T08:37:05.942Z</time></trkpt><trkpt lat="43.6551666" lon="11.3060858"><ele>232.0</ele><time>2026-03-28T08:37:06.942Z</time></trkpt><trkpt lat="43.6550849" lon="11.3062728"><ele>229.0</ele><time>2026-03-28T08:37:07.943Z</time></trkpt><trkpt lat="43.6550023" lon="11.3064567"><ele>226.0</ele><time>2026-03-28T08:37:08.942Z</time></trkpt><trkpt lat="43.6549184" lon="11.3066365"><ele>226.0</ele><time>2026-03-28T08:37:09.942Z</time></trkpt><trkpt lat="43.6548305" lon="11.3068162"><ele>226.0</ele><time>2026-03-28T08:37:10.942Z</time></trkpt><trkpt lat="43.6547422" lon="11.3069783"><ele>226.0</ele><time>2026-03-28T08:37:11.943Z</time></trkpt><trkpt lat="43.6546589" lon="11.3071207"><ele>226.0</ele><time>2026-03-28T08:37:12.941Z</time></trkpt><trkpt lat="43.6545704" lon="11.307244"><ele>225.25</ele><time>2026-03-28T08:37:13.941Z</time></trkpt><trkpt lat="43.6544548" lon="11.3073157"><ele>224.5</ele><time>2026-03-28T08:37:14.941Z</time></trkpt><trkpt lat="43.6543271" lon="11.3073682"><ele>223.75</ele><time>2026-03-28T08:37:15.942Z</time></trkpt><trkpt lat="43.6541852" lon="11.3074234"><ele>223.0</ele><time>2026-03-28T08:37:16.942Z</time></trkpt><trkpt lat="43.6540372" lon="11.3074829"><ele>222.33333333333331</ele><time>2026-03-28T08:37:17.942Z</time></trkpt><trkpt lat="43.6538874" lon="11.3075398"><ele>221.66666666666669</ele><time>2026-03-28T08:37:18.942Z</time></trkpt><trkpt lat="43.6537415" lon="11.307604"><ele>221.0</ele><time>2026-03-28T08:37:19.943Z</time></trkpt><trkpt lat="43.6535933" lon="11.3076748"><ele>220.5</ele><time>2026-03-28T08:37:20.942Z</time></trkpt><trkpt lat="43.653456" lon="11.3077437"><ele>220.0</ele><time>2026-03-28T08:37:21.942Z</time></trkpt><trkpt lat="43.6533323" lon="11.3078083"><ele>219.5</ele><time>2026-03-28T08:37:22.942Z</time></trkpt><trkpt lat="43.6532325" lon="11.3078584"><ele>219.0</ele><time>2026-03-28T08:37:23.942Z</time></trkpt><trkpt lat="43.6531482" lon="11.3079051"><ele>219.0</ele><time>2026-03-28T08:37:24.942Z</time></trkpt><trkpt lat="43.6530784" lon="11.307941"><ele>219.0</ele><time>2026-03-28T08:37:25.941Z</time></trkpt><trkpt lat="43.6529758" lon="11.3079948"><ele>219.0</ele><time>2026-03-28T08:37:27.943Z</time></trkpt><trkpt lat="43.6529195" lon="11.3080392"><ele>219.0</ele><time>2026-03-28T08:37:29.943Z</time></trkpt><trkpt lat="43.6529614" lon="11.3081315"><ele>219.0</ele><time>2026-03-28T08:37:31.943Z</time></trkpt><trkpt lat="43.6530404" lon="11.3081573"><ele>219.0</ele><time>2026-03-28T08:37:32.942Z</time></trkpt><trkpt lat="43.6531455" lon="11.3081732"><ele>217.25</ele><time>2026-03-28T08:37:33.942Z</time></trkpt><trkpt lat="43.6532527" lon="11.3081954"><ele>215.5</ele><time>2026-03-28T08:37:34.942Z</time></trkpt><trkpt lat="43.6533654" lon="11.3082145"><ele>213.75</ele><time>2026-03-28T08:37:35.943Z</time></trkpt><trkpt lat="43.6534942" lon="11.3082414"><ele>212.0</ele><time>2026-03-28T08:37:36.942Z</time></trkpt><trkpt lat="43.6536131" lon="11.3082659"><ele>211.25</ele><time>2026-03-28T08:37:37.943Z</time></trkpt><trkpt lat="43.6537413" lon="11.3083039"><ele>210.5</ele><time>2026-03-28T08:37:38.942Z</time></trkpt><trkpt lat="43.6538837" lon="11.3083504"><ele>209.75</ele><time>2026-03-28T08:37:39.943Z</time></trkpt><trkpt lat="43.6540335" lon="11.3084076"><ele>209.0</ele><time>2026-03-28T08:37:40.941Z</time></trkpt><trkpt lat="43.6541764" lon="11.3084657"><ele>209.0</ele><time>2026-03-28T08:37:41.942Z</time></trkpt><trkpt lat="43.6543097" lon="11.3085204"><ele>209.0</ele><time>2026-03-28T08:37:42.941Z</time></trkpt><trkpt lat="43.6544458" lon="11.308579"><ele>209.0</ele><time>2026-03-28T08:37:43.943Z</time></trkpt><trkpt lat="43.6545925" lon="11.3086405"><ele>209.0</ele><time>2026-03-28T08:37:44.942Z</time></trkpt><trkpt lat="43.6547438" lon="11.3087033"><ele>209.33333333333334</ele><time>2026-03-28T08:37:45.942Z</time></trkpt><trkpt lat="43.6548947" lon="11.3087664"><ele>209.66666666666669</ele><time>2026-03-28T08:37:46.943Z</time></trkpt><trkpt lat="43.6550468" lon="11.3088323"><ele>210.0</ele><time>2026-03-28T08:37:47.943Z</time></trkpt><trkpt lat="43.6552042" lon="11.3089016"><ele>206.66666666666669</ele><time>2026-03-28T08:37:48.942Z</time></trkpt><trkpt lat="43.65536" lon="11.3089773"><ele>203.33333333333334</ele><time>2026-03-28T08:37:49.942Z</time></trkpt><trkpt lat="43.6555139" lon="11.3090607"><ele>200.0</ele><time>2026-03-28T08:37:50.943Z</time></trkpt><trkpt lat="43.6556699" lon="11.3091479"><ele>200.0</ele><time>2026-03-28T08:37:51.941Z</time></trkpt><trkpt lat="43.6558275" lon="11.3092414"><ele>200.0</ele><time>2026-03-28T08:37:52.942Z</time></trkpt><trkpt lat="43.6559823" lon="11.3093373"><ele>200.0</ele><time>2026-03-28T08:37:53.942Z</time></trkpt><trkpt lat="43.6561384" lon="11.3094382"><ele>201.33333333333334</ele><time>2026-03-28T08:37:54.942Z</time></trkpt><trkpt lat="43.6562893" lon="11.3095449"><ele>202.66666666666669</ele><time>2026-03-28T08:37:55.943Z</time></trkpt><trkpt lat="43.656439" lon="11.3096663"><ele>204.0</ele><time>2026-03-28T08:37:56.943Z</time></trkpt><trkpt lat="43.6565757" lon="11.3097898"><ele>200.66666666666669</ele><time>2026-03-28T08:37:57.941Z</time></trkpt><trkpt lat="43.6567032" lon="11.3099122"><ele>197.33333333333334</ele><time>2026-03-28T08:37:58.942Z</time></trkpt><trkpt lat="43.6568298" lon="11.3100246"><ele>194.0</ele><time>2026-03-28T08:37:59.943Z</time></trkpt><trkpt lat="43.6569554" lon="11.3101362"><ele>194.0</ele><time>2026-03-28T08:38:00.942Z</time></trkpt><trkpt lat="43.6570913" lon="11.3102333"><ele>194.0</ele><time>2026-03-28T08:38:01.942Z</time></trkpt><trkpt lat="43.6572349" lon="11.310306"><ele>194.0</ele><time>2026-03-28T08:38:02.943Z</time></trkpt><trkpt lat="43.6573876" lon="11.3103332"><ele>194.0</ele><time>2026-03-28T08:38:03.942Z</time></trkpt><trkpt lat="43.6575203" lon="11.3103866"><ele>194.0</ele><time>2026-03-28T08:38:04.943Z</time></trkpt><trkpt lat="43.6576512" lon="11.3104639"><ele>194.0</ele><time>2026-03-28T08:38:05.943Z</time></trkpt><trkpt lat="43.6577449" lon="11.3105892"><ele>194.0</ele><time>2026-03-28T08:38:06.943Z</time></trkpt><trkpt lat="43.6578048" lon="11.3107377"><ele>194.0</ele><time>2026-03-28T08:38:07.943Z</time></trkpt><trkpt lat="43.6578358" lon="11.3109158"><ele>194.0</ele><time>2026-03-28T08:38:08.943Z</time></trkpt><trkpt lat="43.6578584" lon="11.3111302"><ele>194.0</ele><time>2026-03-28T08:38:09.942Z</time></trkpt><trkpt lat="43.6579007" lon="11.311344"><ele>190.33333333333334</ele><time>2026-03-28T08:38:10.943Z</time></trkpt><trkpt lat="43.6579759" lon="11.3115513"><ele>186.66666666666669</ele><time>2026-03-28T08:38:11.942Z</time></trkpt><trkpt lat="43.6580695" lon="11.3117417"><ele>183.0</ele><time>2026-03-28T08:38:12.943Z</time></trkpt><trkpt lat="43.6582117" lon="11.3119279"><ele>183.0</ele><time>2026-03-28T08:38:13.942Z</time></trkpt><trkpt lat="43.658353" lon="11.3121309"><ele>183.0</ele><time>2026-03-28T08:38:14.943Z</time></trkpt><trkpt lat="43.6584963" lon="11.3123352"><ele>183.0</ele><time>2026-03-28T08:38:15.943Z</time></trkpt><trkpt lat="43.6586468" lon="11.3125455"><ele>182.0</ele><time>2026-03-28T08:38:16.943Z</time></trkpt><trkpt lat="43.6587922" lon="11.31275"><ele>181.0</ele><time>2026-03-28T08:38:17.942Z</time></trkpt><trkpt lat="43.6589319" lon="11.3129406"><ele>180.0</ele><time>2026-03-28T08:38:18.941Z</time></trkpt><trkpt lat="43.6590811" lon="11.3131193"><ele>178.0</ele><time>2026-03-28T08:38:19.942Z</time></trkpt><trkpt lat="43.6592499" lon="11.3132766"><ele>176.0</ele><time>2026-03-28T08:38:20.941Z</time></trkpt><trkpt lat="43.6594366" lon="11.3134212"><ele>174.0</ele><time>2026-03-28T08:38:21.942Z</time></trkpt><trkpt lat="43.6596174" lon="11.3135461"><ele>174.0</ele><time>2026-03-28T08:38:22.942Z</time></trkpt><trkpt lat="43.659796" lon="11.3136633"><ele>174.0</ele><time>2026-03-28T08:38:23.943Z</time></trkpt><trkpt lat="43.6599847" lon="11.3137484"><ele>174.0</ele><time>2026-03-28T08:38:24.943Z</time></trkpt><trkpt lat="43.6601811" lon="11.3137997"><ele>174.66666666666666</ele><time>2026-03-28T08:38:25.942Z</time></trkpt><trkpt lat="43.6603859" lon="11.3138201"><ele>175.33333333333331</ele><time>2026-03-28T08:38:26.942Z</time></trkpt><trkpt lat="43.6605936" lon="11.3138326"><ele>176.0</ele><time>2026-03-28T08:38:27.942Z</time></trkpt><trkpt lat="43.6607971" lon="11.313852"><ele>176.0</ele><time>2026-03-28T08:38:28.942Z</time></trkpt><trkpt lat="43.6609977" lon="11.3138834"><ele>176.0</ele><time>2026-03-28T08:38:29.942Z</time></trkpt><trkpt lat="43.6611985" lon="11.3139548"><ele>176.0</ele><time>2026-03-28T08:38:30.942Z</time></trkpt><trkpt lat="43.6613994" lon="11.3140427"><ele>170.33333333333331</ele><time>2026-03-28T08:38:31.943Z</time></trkpt><trkpt lat="43.6615974" lon="11.3141332"><ele>164.66666666666666</ele><time>2026-03-28T08:38:32.942Z</time></trkpt><trkpt lat="43.6617999" lon="11.3142376"><ele>159.0</ele><time>2026-03-28T08:38:33.942Z</time></trkpt><trkpt lat="43.6619936" lon="11.3143497"><ele>159.0</ele><time>2026-03-28T08:38:34.942Z</time></trkpt><trkpt lat="43.662157" lon="11.3144745"><ele>159.0</ele><time>2026-03-28T08:38:35.942Z</time></trkpt><trkpt lat="43.6623195" lon="11.3145938"><ele>159.0</ele><time>2026-03-28T08:38:36.943Z</time></trkpt><trkpt lat="43.6624869" lon="11.3147064"><ele>155.33333333333334</ele><time>2026-03-28T08:38:37.943Z</time></trkpt><trkpt lat="43.6626592" lon="11.3147959"><ele>151.66666666666669</ele><time>2026-03-28T08:38:38.943Z</time></trkpt><trkpt lat="43.66284" lon="11.3148539"><ele>148.0</ele><time>2026-03-28T08:38:39.942Z</time></trkpt><trkpt lat="43.6630123" lon="11.3148677"><ele>147.33333333333334</ele><time>2026-03-28T08:38:40.943Z</time></trkpt><trkpt lat="43.6631839" lon="11.3148425"><ele>146.66666666666666</ele><time>2026-03-28T08:38:41.943Z</time></trkpt><trkpt lat="43.6633432" lon="11.3147677"><ele>146.0</ele><time>2026-03-28T08:38:42.942Z</time></trkpt><trkpt lat="43.663492" lon="11.3146814"><ele>145.33333333333331</ele><time>2026-03-28T08:38:43.942Z</time></trkpt><trkpt lat="43.6636342" lon="11.3146055"><ele>144.66666666666666</ele><time>2026-03-28T08:38:44.942Z</time></trkpt><trkpt lat="43.6637854" lon="11.314547"><ele>144.0</ele><time>2026-03-28T08:38:45.943Z</time></trkpt><trkpt lat="43.6639403" lon="11.3145388"><ele>144.0</ele><time>2026-03-28T08:38:46.942Z</time></trkpt><trkpt lat="43.6640955" lon="11.3145514"><ele>144.0</ele><time>2026-03-28T08:38:47.943Z</time></trkpt><trkpt lat="43.6642425" lon="11.3145756"><ele>144.0</ele><time>2026-03-28T08:38:48.942Z</time></trkpt><trkpt lat="43.6643804" lon="11.3146026"><ele>144.0</ele><time>2026-03-28T08:38:49.942Z</time></trkpt><trkpt lat="43.6645196" lon="11.3146266"><ele>143.25</ele><time>2026-03-28T08:38:50.943Z</time></trkpt><trkpt lat="43.6646569" lon="11.3146677"><ele>142.5</ele><time>2026-03-28T08:38:51.943Z</time></trkpt><trkpt lat="43.664788" lon="11.314726"><ele>141.75</ele><time>2026-03-28T08:38:52.942Z</time></trkpt><trkpt lat="43.66491" lon="11.3148061"><ele>141.0</ele><time>2026-03-28T08:38:53.942Z</time></trkpt><trkpt lat="43.6650246" lon="11.3148978"><ele>141.0</ele><time>2026-03-28T08:38:54.943Z</time></trkpt><trkpt lat="43.6651299" lon="11.3150166"><ele>141.0</ele><time>2026-03-28T08:38:55.942Z</time></trkpt><trkpt lat="43.6652244" lon="11.3151586"><ele>141.0</ele><time>2026-03-28T08:38:56.943Z</time></trkpt><trkpt lat="43.6652939" lon="11.3153234"><ele>141.0</ele><time>2026-03-28T08:38:57.942Z</time></trkpt><trkpt lat="43.6653465" lon="11.3154915"><ele>142.25</ele><time>2026-03-28T08:38:58.942Z</time></trkpt><trkpt lat="43.6653915" lon="11.3156655"><ele>143.5</ele><time>2026-03-28T08:38:59.943Z</time></trkpt><trkpt lat="43.6654315" lon="11.3158375"><ele>144.75</ele><time>2026-03-28T08:39:00.942Z</time></trkpt><trkpt lat="43.6654771" lon="11.3160092"><ele>146.0</ele><time>2026-03-28T08:39:01.943Z</time></trkpt><trkpt lat="43.6655181" lon="11.3161768"><ele>146.0</ele><time>2026-03-28T08:39:02.942Z</time></trkpt><trkpt lat="43.6655518" lon="11.3163392"><ele>146.0</ele><time>2026-03-28T08:39:03.943Z</time></trkpt><trkpt lat="43.6655902" lon="11.3165042"><ele>146.0</ele><time>2026-03-28T08:39:04.942Z</time></trkpt><trkpt lat="43.6656296" lon="11.3166679"><ele>146.0</ele><time>2026-03-28T08:39:05.943Z</time></trkpt><trkpt lat="43.6656695" lon="11.3168376"><ele>146.0</ele><time>2026-03-28T08:39:06.942Z</time></trkpt><trkpt lat="43.6657088" lon="11.3170089"><ele>146.0</ele><time>2026-03-28T08:39:07.943Z</time></trkpt><trkpt lat="43.6657414" lon="11.317172"><ele>146.0</ele><time>2026-03-28T08:39:08.942Z</time></trkpt><trkpt lat="43.6657792" lon="11.3173325"><ele>146.0</ele><time>2026-03-28T08:39:09.942Z</time></trkpt><trkpt lat="43.6658223" lon="11.3174962"><ele>146.0</ele><time>2026-03-28T08:39:10.943Z</time></trkpt><trkpt lat="43.6658656" lon="11.3176618"><ele>146.0</ele><time>2026-03-28T08:39:11.942Z</time></trkpt><trkpt lat="43.6659047" lon="11.3178293"><ele>146.0</ele><time>2026-03-28T08:39:12.943Z</time></trkpt><trkpt lat="43.665941" lon="11.3179838"><ele>146.0</ele><time>2026-03-28T08:39:13.943Z</time></trkpt><trkpt lat="43.6659824" lon="11.3181373"><ele>146.0</ele><time>2026-03-28T08:39:14.942Z</time></trkpt><trkpt lat="43.6660317" lon="11.3183044"><ele>146.0</ele><time>2026-03-28T08:39:15.942Z</time></trkpt><trkpt lat="43.6660855" lon="11.3184973"><ele>146.0</ele><time>2026-03-28T08:39:16.942Z</time></trkpt><trkpt lat="43.6661347" lon="11.3187191"><ele>146.0</ele><time>2026-03-28T08:39:17.943Z</time></trkpt><trkpt lat="43.6661807" lon="11.3189403"><ele>148.0</ele><time>2026-03-28T08:39:18.942Z</time></trkpt><trkpt lat="43.6662327" lon="11.3191686"><ele>150.0</ele><time>2026-03-28T08:39:19.943Z</time></trkpt><trkpt lat="43.6662865" lon="11.3193992"><ele>152.0</ele><time>2026-03-28T08:39:20.943Z</time></trkpt><trkpt lat="43.6663389" lon="11.3196313"><ele>151.33333333333331</ele><time>2026-03-28T08:39:21.943Z</time></trkpt><trkpt lat="43.6663928" lon="11.319854"><ele>150.66666666666666</ele><time>2026-03-28T08:39:22.943Z</time></trkpt><trkpt lat="43.6664443" lon="11.3200701"><ele>150.0</ele><time>2026-03-28T08:39:23.942Z</time></trkpt><trkpt lat="43.6664984" lon="11.3202869"><ele>150.0</ele><time>2026-03-28T08:39:24.943Z</time></trkpt><trkpt lat="43.6665434" lon="11.3204967"><ele>150.0</ele><time>2026-03-28T08:39:25.943Z</time></trkpt><trkpt lat="43.666589" lon="11.3206899"><ele>150.0</ele><time>2026-03-28T08:39:26.943Z</time></trkpt><trkpt lat="43.6666338" lon="11.3208699"><ele>150.0</ele><time>2026-03-28T08:39:27.942Z</time></trkpt><trkpt lat="43.6666719" lon="11.3210369"><ele>150.0</ele><time>2026-03-28T08:39:28.942Z</time></trkpt><trkpt lat="43.6667067" lon="11.3211868"><ele>150.0</ele><time>2026-03-28T08:39:29.942Z</time></trkpt><trkpt lat="43.6667416" lon="11.3213252"><ele>150.0</ele><time>2026-03-28T08:39:30.943Z</time></trkpt><trkpt lat="43.6667711" lon="11.3214296"><ele>150.0</ele><time>2026-03-28T08:39:31.942Z</time></trkpt><trkpt lat="43.666797" lon="11.3215262"><ele>150.0</ele><time>2026-03-28T08:39:32.943Z</time></trkpt><trkpt lat="43.6668695" lon="11.3215452"><ele>150.0</ele><time>2026-03-28T08:39:34.943Z</time></trkpt><trkpt lat="43.6669058" lon="11.321338"><ele>150.0</ele><time>2026-03-28T08:39:38.942Z</time></trkpt><trkpt lat="43.6669098" lon="11.3212279"><ele>150.0</ele><time>2026-03-28T08:39:39.943Z</time></trkpt><trkpt lat="43.6669036" lon="11.321103"><ele>150.0</ele><time>2026-03-28T08:39:40.943Z</time></trkpt><trkpt lat="43.6668992" lon="11.3209811"><ele>150.0</ele><time>2026-03-28T08:39:41.942Z</time></trkpt><trkpt lat="43.6669209" lon="11.3208783"><ele>150.0</ele><time>2026-03-28T08:39:42.942Z</time></trkpt><trkpt lat="43.6669578" lon="11.3207831"><ele>150.0</ele><time>2026-03-28T08:39:43.942Z</time></trkpt><trkpt lat="43.6670114" lon="11.3206881"><ele>152.0</ele><time>2026-03-28T08:39:44.941Z</time></trkpt><trkpt lat="43.6670992" lon="11.3206241"><ele>154.0</ele><time>2026-03-28T08:39:45.943Z</time></trkpt><trkpt lat="43.6671925" lon="11.3205643"><ele>156.0</ele><time>2026-03-28T08:39:46.943Z</time></trkpt><trkpt lat="43.667307" lon="11.3205087"><ele>158.0</ele><time>2026-03-28T08:39:47.943Z</time></trkpt><trkpt lat="43.667419" lon="11.3204203"><ele>158.0</ele><time>2026-03-28T08:39:48.942Z</time></trkpt><trkpt lat="43.6675051" lon="11.3202988"><ele>158.0</ele><time>2026-03-28T08:39:49.943Z</time></trkpt><trkpt lat="43.6675625" lon="11.3201506"><ele>158.0</ele><time>2026-03-28T08:39:50.943Z</time></trkpt><trkpt lat="43.6675858" lon="11.3200125"><ele>158.0</ele><time>2026-03-28T08:39:51.942Z</time></trkpt><trkpt lat="43.6676233" lon="11.3199113"><ele>158.0</ele><time>2026-03-28T08:39:52.941Z</time></trkpt><trkpt lat="43.6676752" lon="11.3198487"><ele>158.0</ele><time>2026-03-28T08:39:53.942Z</time></trkpt><trkpt lat="43.6677414" lon="11.3198434"><ele>158.0</ele><time>2026-03-28T08:39:54.942Z</time></trkpt><trkpt lat="43.6678103" lon="11.3198687"><ele>158.0</ele><time>2026-03-28T08:39:55.942Z</time></trkpt><trkpt lat="43.6678926" lon="11.3199865"><ele>158.0</ele><time>2026-03-28T08:39:56.942Z</time></trkpt><trkpt lat="43.6679712" lon="11.3200832"><ele>158.0</ele><time>2026-03-28T08:39:57.942Z</time></trkpt><trkpt lat="43.6680685" lon="11.3201514"><ele>161.0</ele><time>2026-03-28T08:39:58.943Z</time></trkpt><trkpt lat="43.6681711" lon="11.32018"><ele>164.0</ele><time>2026-03-28T08:39:59.942Z</time></trkpt><trkpt lat="43.6682946" lon="11.3201697"><ele>167.0</ele><time>2026-03-28T08:40:00.943Z</time></trkpt><trkpt lat="43.668424" lon="11.3201307"><ele>170.0</ele><time>2026-03-28T08:40:01.942Z</time></trkpt><trkpt lat="43.6685391" lon="11.3200733"><ele>171.4</ele><time>2026-03-28T08:40:02.943Z</time></trkpt><trkpt lat="43.6686267" lon="11.3200102"><ele>172.8</ele><time>2026-03-28T08:40:03.942Z</time></trkpt><trkpt lat="43.6686976" lon="11.3199355"><ele>174.2</ele><time>2026-03-28T08:40:04.942Z</time></trkpt><trkpt lat="43.6686851" lon="11.3198192"><ele>175.6</ele><time>2026-03-28T08:40:05.943Z</time></trkpt><trkpt lat="43.6686542" lon="11.3197053"><ele>177.0</ele><time>2026-03-28T08:40:06.943Z</time></trkpt><trkpt lat="43.6685984" lon="11.3195795"><ele>177.0</ele><time>2026-03-28T08:40:07.942Z</time></trkpt><trkpt lat="43.6685391" lon="11.3194539"><ele>177.0</ele><time>2026-03-28T08:40:08.942Z</time></trkpt><trkpt lat="43.6685263" lon="11.3193575"><ele>177.0</ele><time>2026-03-28T08:40:09.941Z</time></trkpt><trkpt lat="43.6685332" lon="11.3192518"><ele>177.0</ele><time>2026-03-28T08:40:10.942Z</time></trkpt><trkpt lat="43.6685785" lon="11.3191709"><ele>177.0</ele><time>2026-03-28T08:40:11.942Z</time></trkpt><trkpt lat="43.6686578" lon="11.3190949"><ele>177.0</ele><time>2026-03-28T08:40:12.942Z</time></trkpt><trkpt lat="43.6687599" lon="11.3190363"><ele>179.25</ele><time>2026-03-28T08:40:13.942Z</time></trkpt><trkpt lat="43.6688739" lon="11.3189753"><ele>181.5</ele><time>2026-03-28T08:40:14.942Z</time></trkpt><trkpt lat="43.6690055" lon="11.3189104"><ele>183.75</ele><time>2026-03-28T08:40:15.943Z</time></trkpt><trkpt lat="43.6691439" lon="11.3188476"><ele>186.0</ele><time>2026-03-28T08:40:16.942Z</time></trkpt><trkpt lat="43.6692672" lon="11.3187894"><ele>187.20000000000002</ele><time>2026-03-28T08:40:17.942Z</time></trkpt><trkpt lat="43.6693762" lon="11.3187244"><ele>188.4</ele><time>2026-03-28T08:40:18.943Z</time></trkpt><trkpt lat="43.6694556" lon="11.3186542"><ele>189.6</ele><time>2026-03-28T08:40:19.942Z</time></trkpt><trkpt lat="43.6695107" lon="11.3185465"><ele>190.8</ele><time>2026-03-28T08:40:20.943Z</time></trkpt><trkpt lat="43.6695178" lon="11.3184251"><ele>192.0</ele><time>2026-03-28T08:40:21.942Z</time></trkpt><trkpt lat="43.6694883" lon="11.3182902"><ele>192.0</ele><time>2026-03-28T08:40:22.943Z</time></trkpt><trkpt lat="43.6694319" lon="11.3181604"><ele>192.0</ele><time>2026-03-28T08:40:23.943Z</time></trkpt><trkpt lat="43.6693741" lon="11.3180675"><ele>192.0</ele><time>2026-03-28T08:40:24.944Z</time></trkpt><trkpt lat="43.6693277" lon="11.317937"><ele>192.0</ele><time>2026-03-28T08:40:26.943Z</time></trkpt><trkpt lat="43.669385" lon="11.3178498"><ele>192.0</ele><time>2026-03-28T08:40:28.942Z</time></trkpt><trkpt lat="43.6695175" lon="11.3178475"><ele>196.2</ele><time>2026-03-28T08:40:30.942Z</time></trkpt><trkpt lat="43.6696004" lon="11.3178863"><ele>200.39999999999998</ele><time>2026-03-28T08:40:31.943Z</time></trkpt><trkpt lat="43.6696998" lon="11.3179286"><ele>204.60000000000002</ele><time>2026-03-28T08:40:32.943Z</time></trkpt><trkpt lat="43.6698004" lon="11.317961"><ele>208.8</ele><time>2026-03-28T08:40:33.943Z</time></trkpt><trkpt lat="43.6699031" lon="11.3180086"><ele>213.0</ele><time>2026-03-28T08:40:34.943Z</time></trkpt><trkpt lat="43.6700175" lon="11.3180563"><ele>213.0</ele><time>2026-03-28T08:40:35.942Z</time></trkpt><trkpt lat="43.6701387" lon="11.318113"><ele>213.0</ele><time>2026-03-28T08:40:36.943Z</time></trkpt><trkpt lat="43.67028" lon="11.318164"><ele>213.0</ele><time>2026-03-28T08:40:37.942Z</time></trkpt><trkpt lat="43.6704235" lon="11.318212"><ele>213.0</ele><time>2026-03-28T08:40:38.943Z</time></trkpt><trkpt lat="43.6705817" lon="11.3182447"><ele>213.0</ele><time>2026-03-28T08:40:39.943Z</time></trkpt><trkpt lat="43.6707124" lon="11.3182734"><ele>213.0</ele><time>2026-03-28T08:40:40.943Z</time></trkpt><trkpt lat="43.6708434" lon="11.3182917"><ele>213.0</ele><time>2026-03-28T08:40:41.942Z</time></trkpt><trkpt lat="43.6709654" lon="11.3182887"><ele>213.0</ele><time>2026-03-28T08:40:42.943Z</time></trkpt><trkpt lat="43.6710354" lon="11.3182421"><ele>213.33333333333334</ele><time>2026-03-28T08:40:43.943Z</time></trkpt><trkpt lat="43.6711131" lon="11.3182064"><ele>213.66666666666669</ele><time>2026-03-28T08:40:44.943Z</time></trkpt><trkpt lat="43.6711788" lon="11.3181762"><ele>214.0</ele><time>2026-03-28T08:40:45.942Z</time></trkpt><trkpt lat="43.6712689" lon="11.3181952"><ele>214.33333333333334</ele><time>2026-03-28T08:40:47.943Z</time></trkpt><trkpt lat="43.6712748" lon="11.318286"><ele>214.66666666666669</ele><time>2026-03-28T08:40:50.944Z</time></trkpt><trkpt lat="43.6712358" lon="11.3183674"><ele>215.0</ele><time>2026-03-28T08:40:53.942Z</time></trkpt><trkpt lat="43.6711754" lon="11.3184916"><ele>215.00000000000003</ele><time>2026-03-28T08:40:55.942Z</time></trkpt><trkpt lat="43.6711499" lon="11.3185817"><ele>215.0</ele><time>2026-03-28T08:40:56.943Z</time></trkpt><trkpt lat="43.6711336" lon="11.3186882"><ele>215.0</ele><time>2026-03-28T08:40:57.943Z</time></trkpt><trkpt lat="43.6711294" lon="11.3187983"><ele>215.0</ele><time>2026-03-28T08:40:58.942Z</time></trkpt><trkpt lat="43.6711395" lon="11.3189159"><ele>215.00000000000003</ele><time>2026-03-28T08:40:59.942Z</time></trkpt><trkpt lat="43.6711594" lon="11.3190419"><ele>215.0</ele><time>2026-03-28T08:41:00.942Z</time></trkpt><trkpt lat="43.6711806" lon="11.3191784"><ele>215.2</ele><time>2026-03-28T08:41:01.942Z</time></trkpt><trkpt lat="43.6711994" lon="11.3193231"><ele>215.4</ele><time>2026-03-28T08:41:02.943Z</time></trkpt><trkpt lat="43.6712122" lon="11.3194723"><ele>215.60000000000002</ele><time>2026-03-28T08:41:03.942Z</time></trkpt><trkpt lat="43.6712205" lon="11.3196154"><ele>215.8</ele><time>2026-03-28T08:41:04.944Z</time></trkpt><trkpt lat="43.6712263" lon="11.3197525"><ele>216.0</ele><time>2026-03-28T08:41:05.941Z</time></trkpt><trkpt lat="43.6712197" lon="11.3198878"><ele>216.0</ele><time>2026-03-28T08:41:06.941Z</time></trkpt><trkpt lat="43.6712035" lon="11.3200259"><ele>216.00000000000003</ele><time>2026-03-28T08:41:07.943Z</time></trkpt><trkpt lat="43.6711733" lon="11.3201566"><ele>216.00000000000003</ele><time>2026-03-28T08:41:08.942Z</time></trkpt><trkpt lat="43.6711406" lon="11.3202874"><ele>216.0</ele><time>2026-03-28T08:41:09.943Z</time></trkpt><trkpt lat="43.6711021" lon="11.3204245"><ele>216.0</ele><time>2026-03-28T08:41:10.943Z</time></trkpt><trkpt lat="43.6710631" lon="11.3205727"><ele>215.4</ele><time>2026-03-28T08:41:11.943Z</time></trkpt><trkpt lat="43.671027" lon="11.3207127"><ele>214.8</ele><time>2026-03-28T08:41:12.943Z</time></trkpt><trkpt lat="43.6709907" lon="11.3208434"><ele>214.20000000000002</ele><time>2026-03-28T08:41:13.942Z</time></trkpt><trkpt lat="43.6709631" lon="11.3209746"><ele>213.60000000000002</ele><time>2026-03-28T08:41:14.942Z</time></trkpt><trkpt lat="43.6709349" lon="11.3211171"><ele>213.0</ele><time>2026-03-28T08:41:15.942Z</time></trkpt><trkpt lat="43.6709065" lon="11.3212655"><ele>212.60000000000002</ele><time>2026-03-28T08:41:16.943Z</time></trkpt><trkpt lat="43.6708707" lon="11.3214113"><ele>212.20000000000002</ele><time>2026-03-28T08:41:17.943Z</time></trkpt><trkpt lat="43.6708352" lon="11.3215536"><ele>211.8</ele><time>2026-03-28T08:41:18.943Z</time></trkpt><trkpt lat="43.6708014" lon="11.3217012"><ele>211.4</ele><time>2026-03-28T08:41:19.943Z</time></trkpt><trkpt lat="43.6707668" lon="11.321845"><ele>211.0</ele><time>2026-03-28T08:41:20.943Z</time></trkpt><trkpt lat="43.6707356" lon="11.3219855"><ele>211.0</ele><time>2026-03-28T08:41:21.943Z</time></trkpt><trkpt lat="43.6707039" lon="11.3221137"><ele>211.0</ele><time>2026-03-28T08:41:22.944Z</time></trkpt><trkpt lat="43.67067" lon="11.3222439"><ele>211.0</ele><time>2026-03-28T08:41:23.943Z</time></trkpt><trkpt lat="43.6706428" lon="11.322377"><ele>211.0</ele><time>2026-03-28T08:41:24.943Z</time></trkpt><trkpt lat="43.6706293" lon="11.3225168"><ele>211.0</ele><time>2026-03-28T08:41:25.943Z</time></trkpt><trkpt lat="43.6706298" lon="11.3226534"><ele>210.99999999999997</ele><time>2026-03-28T08:41:26.943Z</time></trkpt><trkpt lat="43.6706694" lon="11.3227719"><ele>211.0</ele><time>2026-03-28T08:41:27.942Z</time></trkpt><trkpt lat="43.6706998" lon="11.3228842"><ele>211.0</ele><time>2026-03-28T08:41:28.943Z</time></trkpt><trkpt lat="43.6707076" lon="11.3229809"><ele>211.0</ele><time>2026-03-28T08:41:29.941Z</time></trkpt><trkpt lat="43.6706936" lon="11.3230702"><ele>210.99999999999997</ele><time>2026-03-28T08:41:30.941Z</time></trkpt><trkpt lat="43.6706017" lon="11.3231915"><ele>211.0</ele><time>2026-03-28T08:41:32.943Z</time></trkpt><trkpt lat="43.6705428" lon="11.3232245"><ele>211.33333333333331</ele><time>2026-03-28T08:41:33.942Z</time></trkpt><trkpt lat="43.6704644" lon="11.3232327"><ele>211.66666666666666</ele><time>2026-03-28T08:41:34.942Z</time></trkpt><trkpt lat="43.6703994" lon="11.3232456"><ele>212.0</ele><time>2026-03-28T08:41:35.942Z</time></trkpt><trkpt lat="43.6703323" lon="11.3233323"><ele>212.33333333333331</ele><time>2026-03-28T08:41:37.943Z</time></trkpt><trkpt lat="43.6703243" lon="11.3234777"><ele>212.66666666666666</ele><time>2026-03-28T08:41:39.943Z</time></trkpt><trkpt lat="43.6703484" lon="11.3235779"><ele>213.0</ele><time>2026-03-28T08:41:40.942Z</time></trkpt><trkpt lat="43.6703783" lon="11.3236909"><ele>213.0</ele><time>2026-03-28T08:41:41.943Z</time></trkpt><trkpt lat="43.6704007" lon="11.3238039"><ele>213.0</ele><time>2026-03-28T08:41:42.943Z</time></trkpt><trkpt lat="43.6704275" lon="11.3239122"><ele>213.0</ele><time>2026-03-28T08:41:43.942Z</time></trkpt><trkpt lat="43.6704677" lon="11.3240231"><ele>213.0</ele><time>2026-03-28T08:41:44.942Z</time></trkpt><trkpt lat="43.6705267" lon="11.3241491"><ele>213.0</ele><time>2026-03-28T08:41:45.943Z</time></trkpt><trkpt lat="43.6705994" lon="11.3242741"><ele>214.2</ele><time>2026-03-28T08:41:46.943Z</time></trkpt><trkpt lat="43.6706631" lon="11.324385"><ele>215.4</ele><time>2026-03-28T08:41:47.943Z</time></trkpt><trkpt lat="43.6707386" lon="11.3244684"><ele>216.59999999999997</ele><time>2026-03-28T08:41:48.944Z</time></trkpt><trkpt lat="43.6708328" lon="11.3245322"><ele>217.79999999999998</ele><time>2026-03-28T08:41:49.943Z</time></trkpt><trkpt lat="43.6709404" lon="11.3245805"><ele>219.0</ele><time>2026-03-28T08:41:50.943Z</time></trkpt><trkpt lat="43.6710511" lon="11.324632"><ele>218.75</ele><time>2026-03-28T08:41:51.943Z</time></trkpt><trkpt lat="43.6711651" lon="11.3246943"><ele>218.5</ele><time>2026-03-28T08:41:52.943Z</time></trkpt><trkpt lat="43.671281" lon="11.3247434"><ele>218.25</ele><time>2026-03-28T08:41:53.944Z</time></trkpt><trkpt lat="43.6713873" lon="11.3247961"><ele>218.0</ele><time>2026-03-28T08:41:54.943Z</time></trkpt><trkpt lat="43.67149" lon="11.324848"><ele>221.25</ele><time>2026-03-28T08:41:55.943Z</time></trkpt><trkpt lat="43.6715884" lon="11.3249144"><ele>224.5</ele><time>2026-03-28T08:41:56.943Z</time></trkpt><trkpt lat="43.6716625" lon="11.3249905"><ele>227.75</ele><time>2026-03-28T08:41:57.941Z</time></trkpt><trkpt lat="43.6717575" lon="11.32509"><ele>231.0</ele><time>2026-03-28T08:41:58.943Z</time></trkpt><trkpt lat="43.6718588" lon="11.325202"><ele>230.25</ele><time>2026-03-28T08:41:59.942Z</time></trkpt><trkpt lat="43.6719488" lon="11.3253222"><ele>229.5</ele><time>2026-03-28T08:42:00.942Z</time></trkpt><trkpt lat="43.6720352" lon="11.325453"><ele>228.75</ele><time>2026-03-28T08:42:01.943Z</time></trkpt><trkpt lat="43.6721134" lon="11.3256064"><ele>228.0</ele><time>2026-03-28T08:42:02.943Z</time></trkpt><trkpt lat="43.672194" lon="11.3257555"><ele>229.75</ele><time>2026-03-28T08:42:03.943Z</time></trkpt><trkpt lat="43.6722741" lon="11.3259156"><ele>231.5</ele><time>2026-03-28T08:42:04.944Z</time></trkpt><trkpt lat="43.6723529" lon="11.3260815"><ele>233.25</ele><time>2026-03-28T08:42:05.942Z</time></trkpt><trkpt lat="43.6724131" lon="11.3262259"><ele>235.0</ele><time>2026-03-28T08:42:06.942Z</time></trkpt><trkpt lat="43.6724709" lon="11.3263417"><ele>236.6</ele><time>2026-03-28T08:42:07.943Z</time></trkpt><trkpt lat="43.6725345" lon="11.3264566"><ele>238.2</ele><time>2026-03-28T08:42:08.943Z</time></trkpt><trkpt lat="43.6726063" lon="11.3265361"><ele>239.8</ele><time>2026-03-28T08:42:09.942Z</time></trkpt><trkpt lat="43.6726792" lon="11.3266218"><ele>241.4</ele><time>2026-03-28T08:42:10.942Z</time></trkpt><trkpt lat="43.6727877" lon="11.3266784"><ele>243.0</ele><time>2026-03-28T08:42:11.942Z</time></trkpt><trkpt lat="43.6728905" lon="11.3267475"><ele>243.0</ele><time>2026-03-28T08:42:12.943Z</time></trkpt><trkpt lat="43.6729813" lon="11.3268095"><ele>243.0</ele><time>2026-03-28T08:42:13.943Z</time></trkpt><trkpt lat="43.6730714" lon="11.3268675"><ele>243.0</ele><time>2026-03-28T08:42:14.943Z</time></trkpt><trkpt lat="43.6731676" lon="11.326903"><ele>243.0</ele><time>2026-03-28T08:42:15.943Z</time></trkpt><trkpt lat="43.6732614" lon="11.3269089"><ele>243.0</ele><time>2026-03-28T08:42:16.944Z</time></trkpt><trkpt lat="43.6733628" lon="11.3268918"><ele>243.0</ele><time>2026-03-28T08:42:17.943Z</time></trkpt><trkpt lat="43.6734613" lon="11.3268535"><ele>243.0</ele><time>2026-03-28T08:42:18.943Z</time></trkpt><trkpt lat="43.6735666" lon="11.326827"><ele>243.0</ele><time>2026-03-28T08:42:19.943Z</time></trkpt><trkpt lat="43.6736676" lon="11.326804"><ele>243.0</ele><time>2026-03-28T08:42:20.942Z</time></trkpt><trkpt lat="43.6737552" lon="11.3267968"><ele>243.0</ele><time>2026-03-28T08:42:21.942Z</time></trkpt><trkpt lat="43.6738392" lon="11.3268033"><ele>243.83333333333334</ele><time>2026-03-28T08:42:22.942Z</time></trkpt><trkpt lat="43.6739183" lon="11.3268346"><ele>244.66666666666669</ele><time>2026-03-28T08:42:23.943Z</time></trkpt><trkpt lat="43.673988" lon="11.3268914"><ele>245.5</ele><time>2026-03-28T08:42:24.943Z</time></trkpt><trkpt lat="43.674053" lon="11.3269734"><ele>246.33333333333334</ele><time>2026-03-28T08:42:25.943Z</time></trkpt><trkpt lat="43.6741089" lon="11.3270761"><ele>247.16666666666669</ele><time>2026-03-28T08:42:26.943Z</time></trkpt><trkpt lat="43.6741595" lon="11.327193"><ele>248.0</ele><time>2026-03-28T08:42:27.943Z</time></trkpt><trkpt lat="43.6742114" lon="11.3273245"><ele>250.0</ele><time>2026-03-28T08:42:28.943Z</time></trkpt><trkpt lat="43.6742646" lon="11.3274637"><ele>252.0</ele><time>2026-03-28T08:42:29.942Z</time></trkpt><trkpt lat="43.6743203" lon="11.3276061"><ele>254.0</ele><time>2026-03-28T08:42:30.942Z</time></trkpt><trkpt lat="43.6743764" lon="11.3277488"><ele>256.0</ele><time>2026-03-28T08:42:31.943Z</time></trkpt><trkpt lat="43.6744304" lon="11.3278901"><ele>255.20000000000002</ele><time>2026-03-28T08:42:32.943Z</time></trkpt><trkpt lat="43.6744872" lon="11.3280323"><ele>254.40000000000003</ele><time>2026-03-28T08:42:33.944Z</time></trkpt><trkpt lat="43.674549" lon="11.3281712"><ele>253.6</ele><time>2026-03-28T08:42:34.943Z</time></trkpt><trkpt lat="43.6746069" lon="11.3282985"><ele>252.8</ele><time>2026-03-28T08:42:35.943Z</time></trkpt><trkpt lat="43.6746629" lon="11.3284166"><ele>252.0</ele><time>2026-03-28T08:42:36.942Z</time></trkpt><trkpt lat="43.6747245" lon="11.3285142"><ele>252.0</ele><time>2026-03-28T08:42:37.942Z</time></trkpt><trkpt lat="43.6747946" lon="11.3285901"><ele>252.0</ele><time>2026-03-28T08:42:38.942Z</time></trkpt><trkpt lat="43.6749212" lon="11.3286776"><ele>252.0</ele><time>2026-03-28T08:42:39.943Z</time></trkpt><trkpt lat="43.6750496" lon="11.3287639"><ele>252.0</ele><time>2026-03-28T08:42:40.943Z</time></trkpt><trkpt lat="43.6751611" lon="11.3288467"><ele>253.0</ele><time>2026-03-28T08:42:41.942Z</time></trkpt><trkpt lat="43.6752666" lon="11.3289249"><ele>254.0</ele><time>2026-03-28T08:42:42.942Z</time></trkpt><trkpt lat="43.6753693" lon="11.3289993"><ele>255.0</ele><time>2026-03-28T08:42:43.942Z</time></trkpt><trkpt lat="43.6754882" lon="11.3290742"><ele>256.0</ele><time>2026-03-28T08:42:44.943Z</time></trkpt><trkpt lat="43.6756088" lon="11.329139"><ele>258.0</ele><time>2026-03-28T08:42:45.942Z</time></trkpt><trkpt lat="43.6757249" lon="11.3292013"><ele>260.0</ele><time>2026-03-28T08:42:46.942Z</time></trkpt><trkpt lat="43.6758388" lon="11.3292672"><ele>262.0</ele><time>2026-03-28T08:42:47.942Z</time></trkpt><trkpt lat="43.6759548" lon="11.3293262"><ele>264.0</ele><time>2026-03-28T08:42:48.942Z</time></trkpt><trkpt lat="43.676073" lon="11.3293681"><ele>265.4</ele><time>2026-03-28T08:42:49.943Z</time></trkpt><trkpt lat="43.6761933" lon="11.329391"><ele>266.79999999999995</ele><time>2026-03-28T08:42:50.943Z</time></trkpt><trkpt lat="43.6763085" lon="11.3294181"><ele>268.20000000000005</ele><time>2026-03-28T08:42:51.944Z</time></trkpt><trkpt lat="43.6764151" lon="11.3294434"><ele>269.6</ele><time>2026-03-28T08:42:52.942Z</time></trkpt><trkpt lat="43.6764969" lon="11.3294578"><ele>271.0</ele><time>2026-03-28T08:42:53.943Z</time></trkpt><trkpt lat="43.6765662" lon="11.3294718"><ele>271.0</ele><time>2026-03-28T08:42:54.942Z</time></trkpt><trkpt lat="43.676636" lon="11.3295012"><ele>271.0</ele><time>2026-03-28T08:42:55.943Z</time></trkpt><trkpt lat="43.6767075" lon="11.3295491"><ele>271.0</ele><time>2026-03-28T08:42:56.943Z</time></trkpt><trkpt lat="43.6767872" lon="11.3296106"><ele>271.0</ele><time>2026-03-28T08:42:57.943Z</time></trkpt><trkpt lat="43.6768663" lon="11.3296859"><ele>271.0</ele><time>2026-03-28T08:42:58.942Z</time></trkpt><trkpt lat="43.6769452" lon="11.3297779"><ele>271.0</ele><time>2026-03-28T08:42:59.943Z</time></trkpt><trkpt lat="43.6770135" lon="11.3298762"><ele>271.2</ele><time>2026-03-28T08:43:00.943Z</time></trkpt><trkpt lat="43.6770621" lon="11.3299876"><ele>271.40000000000003</ele><time>2026-03-28T08:43:01.942Z</time></trkpt><trkpt lat="43.6770858" lon="11.3301041"><ele>271.6</ele><time>2026-03-28T08:43:02.944Z</time></trkpt><trkpt lat="43.6771001" lon="11.3302183"><ele>271.8</ele><time>2026-03-28T08:43:03.943Z</time></trkpt><trkpt lat="43.6771165" lon="11.3303157"><ele>272.0</ele><time>2026-03-28T08:43:04.944Z</time></trkpt><trkpt lat="43.6771502" lon="11.3304667"><ele>273.2</ele><time>2026-03-28T08:43:06.943Z</time></trkpt><trkpt lat="43.6771801" lon="11.3305879"><ele>274.4</ele><time>2026-03-28T08:43:08.942Z</time></trkpt><trkpt lat="43.6772216" lon="11.3307068"><ele>275.6</ele><time>2026-03-28T08:43:10.944Z</time></trkpt><trkpt lat="43.6772764" lon="11.3308367"><ele>276.8</ele><time>2026-03-28T08:43:12.944Z</time></trkpt><trkpt lat="43.6773463" lon="11.330962"><ele>278.0</ele><time>2026-03-28T08:43:14.942Z</time></trkpt><trkpt lat="43.6773886" lon="11.3310291"><ele>278.0</ele><time>2026-03-28T08:43:15.942Z</time></trkpt><trkpt lat="43.677435" lon="11.3310956"><ele>278.0</ele><time>2026-03-28T08:43:16.942Z</time></trkpt><trkpt lat="43.6774829" lon="11.3311664"><ele>278.0</ele><time>2026-03-28T08:43:17.942Z</time></trkpt><trkpt lat="43.6775383" lon="11.3312425"><ele>278.0</ele><time>2026-03-28T08:43:18.944Z</time></trkpt><trkpt lat="43.6776011" lon="11.3313317"><ele>278.0</ele><time>2026-03-28T08:43:19.942Z</time></trkpt><trkpt lat="43.6776661" lon="11.3314188"><ele>278.0</ele><time>2026-03-28T08:43:20.943Z</time></trkpt><trkpt lat="43.6777309" lon="11.3315066"><ele>277.6</ele><time>2026-03-28T08:43:21.942Z</time></trkpt><trkpt lat="43.6777921" lon="11.3315966"><ele>277.20000000000005</ele><time>2026-03-28T08:43:22.943Z</time></trkpt><trkpt lat="43.6778538" lon="11.3316831"><ele>276.8</ele><time>2026-03-28T08:43:23.942Z</time></trkpt><trkpt lat="43.6779234" lon="11.331771"><ele>276.40000000000003</ele><time>2026-03-28T08:43:24.942Z</time></trkpt><trkpt lat="43.6779907" lon="11.3318593"><ele>276.0</ele><time>2026-03-28T08:43:25.942Z</time></trkpt><trkpt lat="43.6780564" lon="11.331957"><ele>276.0</ele><time>2026-03-28T08:43:26.943Z</time></trkpt><trkpt lat="43.6781218" lon="11.3320504"><ele>276.0</ele><time>2026-03-28T08:43:27.943Z</time></trkpt><trkpt lat="43.6781892" lon="11.3321389"><ele>276.0</ele><time>2026-03-28T08:43:28.943Z</time></trkpt><trkpt lat="43.6782541" lon="11.3322279"><ele>276.0</ele><time>2026-03-28T08:43:29.943Z</time></trkpt><trkpt lat="43.6783226" lon="11.3323096"><ele>276.0</ele><time>2026-03-28T08:43:30.941Z</time></trkpt><trkpt lat="43.6783928" lon="11.3323932"><ele>277.3333333333333</ele><time>2026-03-28T08:43:31.944Z</time></trkpt><trkpt lat="43.6784593" lon="11.3324665"><ele>278.6666666666667</ele><time>2026-03-28T08:43:32.942Z</time></trkpt><trkpt lat="43.6785259" lon="11.3325326"><ele>280.0</ele><time>2026-03-28T08:43:33.942Z</time></trkpt><trkpt lat="43.6785989" lon="11.3325933"><ele>281.33333333333337</ele><time>2026-03-28T08:43:34.943Z</time></trkpt><trkpt lat="43.6786769" lon="11.3326559"><ele>282.6666666666667</ele><time>2026-03-28T08:43:35.942Z</time></trkpt><trkpt lat="43.6787532" lon="11.3327237"><ele>284.0</ele><time>2026-03-28T08:43:36.941Z</time></trkpt><trkpt lat="43.6788233" lon="11.3327887"><ele>284.33333333333337</ele><time>2026-03-28T08:43:37.942Z</time></trkpt><trkpt lat="43.6788815" lon="11.3328426"><ele>284.6666666666667</ele><time>2026-03-28T08:43:38.943Z</time></trkpt><trkpt lat="43.6789339" lon="11.3329762"><ele>285.0</ele><time>2026-03-28T08:43:40.942Z</time></trkpt><trkpt lat="43.6789323" lon="11.3330657"><ele>285.3333333333333</ele><time>2026-03-28T08:43:41.942Z</time></trkpt><trkpt lat="43.6789259" lon="11.3331632"><ele>285.66666666666663</ele><time>2026-03-28T08:43:42.943Z</time></trkpt><trkpt lat="43.6789322" lon="11.3332586"><ele>286.0</ele><time>2026-03-28T08:43:43.943Z</time></trkpt><trkpt lat="43.6789513" lon="11.3333569"><ele>287.66666666666663</ele><time>2026-03-28T08:43:44.943Z</time></trkpt><trkpt lat="43.6789798" lon="11.333463"><ele>289.3333333333333</ele><time>2026-03-28T08:43:45.942Z</time></trkpt><trkpt lat="43.6790171" lon="11.333572"><ele>291.0</ele><time>2026-03-28T08:43:46.941Z</time></trkpt><trkpt lat="43.679052" lon="11.3336777"><ele>292.6666666666667</ele><time>2026-03-28T08:43:47.943Z</time></trkpt><trkpt lat="43.6790892" lon="11.3337917"><ele>294.33333333333337</ele><time>2026-03-28T08:43:48.942Z</time></trkpt><trkpt lat="43.6791248" lon="11.3338973"><ele>296.0</ele><time>2026-03-28T08:43:49.943Z</time></trkpt><trkpt lat="43.6791698" lon="11.3339992"><ele>296.5</ele><time>2026-03-28T08:43:50.942Z</time></trkpt><trkpt lat="43.6792062" lon="11.3340984"><ele>297.0</ele><time>2026-03-28T08:43:51.943Z</time></trkpt><trkpt lat="43.6792385" lon="11.3341877"><ele>297.5</ele><time>2026-03-28T08:43:52.943Z</time></trkpt><trkpt lat="43.6792802" lon="11.3342708"><ele>298.0</ele><time>2026-03-28T08:43:53.943Z</time></trkpt><trkpt lat="43.6793374" lon="11.3343531"><ele>298.5</ele><time>2026-03-28T08:43:54.942Z</time></trkpt><trkpt lat="43.6793977" lon="11.3344344"><ele>299.0</ele><time>2026-03-28T08:43:55.943Z</time></trkpt><trkpt lat="43.6794588" lon="11.3345165"><ele>300.2</ele><time>2026-03-28T08:43:56.943Z</time></trkpt><trkpt lat="43.6795315" lon="11.3346063"><ele>301.4</ele><time>2026-03-28T08:43:57.941Z</time></trkpt><trkpt lat="43.6795982" lon="11.3346989"><ele>302.6</ele><time>2026-03-28T08:43:58.943Z</time></trkpt><trkpt lat="43.6796618" lon="11.3347976"><ele>303.8</ele><time>2026-03-28T08:43:59.941Z</time></trkpt><trkpt lat="43.6797197" lon="11.3349088"><ele>305.0</ele><time>2026-03-28T08:44:00.943Z</time></trkpt><trkpt lat="43.6797707" lon="11.3350233"><ele>305.6</ele><time>2026-03-28T08:44:01.944Z</time></trkpt><trkpt lat="43.6798068" lon="11.3351426"><ele>306.2</ele><time>2026-03-28T08:44:02.943Z</time></trkpt><trkpt lat="43.679854" lon="11.335252"><ele>306.8</ele><time>2026-03-28T08:44:03.942Z</time></trkpt><trkpt lat="43.6799123" lon="11.3353564"><ele>307.4</ele><time>2026-03-28T08:44:04.943Z</time></trkpt><trkpt lat="43.6799719" lon="11.3354575"><ele>308.0</ele><time>2026-03-28T08:44:05.942Z</time></trkpt><trkpt lat="43.6800401" lon="11.3355495"><ele>308.1666666666667</ele><time>2026-03-28T08:44:06.944Z</time></trkpt><trkpt lat="43.6801144" lon="11.3356175"><ele>308.33333333333337</ele><time>2026-03-28T08:44:07.942Z</time></trkpt><trkpt lat="43.68019" lon="11.3356713"><ele>308.5</ele><time>2026-03-28T08:44:08.942Z</time></trkpt><trkpt lat="43.6802784" lon="11.3357004"><ele>308.6666666666667</ele><time>2026-03-28T08:44:09.944Z</time></trkpt><trkpt lat="43.6803724" lon="11.3357036"><ele>308.8333333333333</ele><time>2026-03-28T08:44:10.943Z</time></trkpt><trkpt lat="43.6804449" lon="11.3356892"><ele>309.0</ele><time>2026-03-28T08:44:11.943Z</time></trkpt><trkpt lat="43.6805591" lon="11.3357255"><ele>309.0</ele><time>2026-03-28T08:44:13.943Z</time></trkpt><trkpt lat="43.6806167" lon="11.3357833"><ele>309.0</ele><time>2026-03-28T08:44:14.943Z</time></trkpt><trkpt lat="43.6806748" lon="11.3358578"><ele>309.0</ele><time>2026-03-28T08:44:15.941Z</time></trkpt><trkpt lat="43.680736" lon="11.3359338"><ele>309.0</ele><time>2026-03-28T08:44:16.943Z</time></trkpt><trkpt lat="43.6807963" lon="11.336016"><ele>309.0</ele><time>2026-03-28T08:44:17.943Z</time></trkpt><trkpt lat="43.6808563" lon="11.336103"><ele>309.0</ele><time>2026-03-28T08:44:18.943Z</time></trkpt><trkpt lat="43.6809204" lon="11.3361973"><ele>309.0</ele><time>2026-03-28T08:44:19.944Z</time></trkpt><trkpt lat="43.680985" lon="11.3362866"><ele>309.0</ele><time>2026-03-28T08:44:20.943Z</time></trkpt><trkpt lat="43.6810593" lon="11.33637"><ele>309.0</ele><time>2026-03-28T08:44:21.943Z</time></trkpt><trkpt lat="43.6811355" lon="11.3364602"><ele>309.0</ele><time>2026-03-28T08:44:22.943Z</time></trkpt><trkpt lat="43.6812091" lon="11.3365445"><ele>309.0</ele><time>2026-03-28T08:44:23.944Z</time></trkpt><trkpt lat="43.6812811" lon="11.3366201"><ele>309.1666666666667</ele><time>2026-03-28T08:44:24.942Z</time></trkpt><trkpt lat="43.6813512" lon="11.3367035"><ele>309.3333333333333</ele><time>2026-03-28T08:44:25.943Z</time></trkpt><trkpt lat="43.6814159" lon="11.3367851"><ele>309.5</ele><time>2026-03-28T08:44:26.944Z</time></trkpt><trkpt lat="43.6814821" lon="11.3368529"><ele>309.66666666666663</ele><time>2026-03-28T08:44:27.941Z</time></trkpt><trkpt lat="43.6815555" lon="11.3368958"><ele>309.8333333333333</ele><time>2026-03-28T08:44:28.944Z</time></trkpt><trkpt lat="43.6816262" lon="11.3369334"><ele>310.0</ele><time>2026-03-28T08:44:29.943Z</time></trkpt><trkpt lat="43.6816934" lon="11.3369742"><ele>310.0</ele><time>2026-03-28T08:44:30.943Z</time></trkpt><trkpt lat="43.681772" lon="11.3370562"><ele>310.0</ele><time>2026-03-28T08:44:32.942Z</time></trkpt><trkpt lat="43.6818299" lon="11.3371264"><ele>310.0</ele><time>2026-03-28T08:44:35.943Z</time></trkpt><trkpt lat="43.6819133" lon="11.3371343"><ele>310.0</ele><time>2026-03-28T08:45:11.942Z</time></trkpt><trkpt lat="43.6820078" lon="11.3371663"><ele>310.0</ele><time>2026-03-28T08:45:13.943Z</time></trkpt><trkpt lat="43.6821165" lon="11.3372169"><ele>308.16666666666663</ele><time>2026-03-28T08:45:15.943Z</time></trkpt><trkpt lat="43.68218" lon="11.3372445"><ele>306.3333333333333</ele><time>2026-03-28T08:45:16.943Z</time></trkpt><trkpt lat="43.6822434" lon="11.3372709"><ele>304.5</ele><time>2026-03-28T08:45:17.943Z</time></trkpt><trkpt lat="43.6823054" lon="11.3372986"><ele>302.6666666666667</ele><time>2026-03-28T08:45:18.944Z</time></trkpt><trkpt lat="43.6823621" lon="11.3373373"><ele>300.83333333333337</ele><time>2026-03-28T08:45:19.943Z</time></trkpt><trkpt lat="43.6824674" lon="11.3374315"><ele>299.0</ele><time>2026-03-28T08:45:21.944Z</time></trkpt><trkpt lat="43.6825168" lon="11.3375118"><ele>299.0</ele><time>2026-03-28T08:45:22.943Z</time></trkpt><trkpt lat="43.6825714" lon="11.3375947"><ele>299.0</ele><time>2026-03-28T08:45:23.943Z</time></trkpt><trkpt lat="43.6826308" lon="11.3376907"><ele>299.0</ele><time>2026-03-28T08:45:24.944Z</time></trkpt><trkpt lat="43.6826802" lon="11.3377902"><ele>299.0</ele><time>2026-03-28T08:45:25.943Z</time></trkpt><trkpt lat="43.6827257" lon="11.3378886"><ele>299.0</ele><time>2026-03-28T08:45:26.943Z</time></trkpt><trkpt lat="43.6827845" lon="11.3379934"><ele>299.0</ele><time>2026-03-28T08:45:27.943Z</time></trkpt><trkpt lat="43.6828399" lon="11.3381114"><ele>296.4</ele><time>2026-03-28T08:45:28.942Z</time></trkpt><trkpt lat="43.6828963" lon="11.3382212"><ele>293.79999999999995</ele><time>2026-03-28T08:45:29.942Z</time></trkpt><trkpt lat="43.6829625" lon="11.3383433"><ele>291.20000000000005</ele><time>2026-03-28T08:45:30.943Z</time></trkpt><trkpt lat="43.6830226" lon="11.3384589"><ele>288.6</ele><time>2026-03-28T08:45:31.944Z</time></trkpt><trkpt lat="43.6830806" lon="11.3385631"><ele>286.0</ele><time>2026-03-28T08:45:32.942Z</time></trkpt><trkpt lat="43.6831356" lon="11.3386586"><ele>286.0</ele><time>2026-03-28T08:45:33.941Z</time></trkpt><trkpt lat="43.6831875" lon="11.3387492"><ele>286.0</ele><time>2026-03-28T08:45:34.943Z</time></trkpt><trkpt lat="43.683231" lon="11.3388277"><ele>286.0</ele><time>2026-03-28T08:45:35.943Z</time></trkpt><trkpt lat="43.6832706" lon="11.3388974"><ele>286.0</ele><time>2026-03-28T08:45:36.942Z</time></trkpt><trkpt lat="43.6833306" lon="11.3390111"><ele>286.0</ele><time>2026-03-28T08:45:38.943Z</time></trkpt><trkpt lat="43.6833706" lon="11.3390865"><ele>286.0</ele><time>2026-03-28T08:45:40.942Z</time></trkpt><trkpt lat="43.6834092" lon="11.3391723"><ele>286.0</ele><time>2026-03-28T08:45:42.942Z</time></trkpt><trkpt lat="43.6834991" lon="11.3393202"><ele>286.0</ele><time>2026-03-28T08:45:44.942Z</time></trkpt><trkpt lat="43.6835505" lon="11.3394156"><ele>286.0</ele><time>2026-03-28T08:45:45.943Z</time></trkpt><trkpt lat="43.6835952" lon="11.339508"><ele>286.0</ele><time>2026-03-28T08:45:46.942Z</time></trkpt><trkpt lat="43.6836355" lon="11.3395982"><ele>286.0</ele><time>2026-03-28T08:45:47.944Z</time></trkpt><trkpt lat="43.6836928" lon="11.3396983"><ele>286.8333333333333</ele><time>2026-03-28T08:45:48.942Z</time></trkpt><trkpt lat="43.6837488" lon="11.3397968"><ele>287.66666666666663</ele><time>2026-03-28T08:45:49.942Z</time></trkpt><trkpt lat="43.6838061" lon="11.3398978"><ele>288.5</ele><time>2026-03-28T08:45:50.942Z</time></trkpt><trkpt lat="43.6838528" lon="11.3399841"><ele>289.3333333333333</ele><time>2026-03-28T08:45:51.943Z</time></trkpt><trkpt lat="43.6839219" lon="11.3401063"><ele>290.1666666666667</ele><time>2026-03-28T08:45:53.942Z</time></trkpt><trkpt lat="43.6839547" lon="11.3401812"><ele>291.0</ele><time>2026-03-28T08:46:08.942Z</time></trkpt><trkpt lat="43.6840146" lon="11.3402284"><ele>291.0</ele><time>2026-03-28T08:46:10.944Z</time></trkpt><trkpt lat="43.6840956" lon="11.3403215"><ele>291.0</ele><time>2026-03-28T08:46:12.943Z</time></trkpt><trkpt lat="43.6841565" lon="11.3404434"><ele>291.0</ele><time>2026-03-28T08:46:14.943Z</time></trkpt><trkpt lat="43.6842086" lon="11.3405726"><ele>291.0</ele><time>2026-03-28T08:46:16.944Z</time></trkpt><trkpt lat="43.6843043" lon="11.3406525"><ele>291.0</ele><time>2026-03-28T08:46:18.942Z</time></trkpt><trkpt lat="43.6843662" lon="11.3406849"><ele>294.0</ele><time>2026-03-28T08:46:19.944Z</time></trkpt><trkpt lat="43.6844334" lon="11.3407103"><ele>297.0</ele><time>2026-03-28T08:46:20.943Z</time></trkpt><trkpt lat="43.6844998" lon="11.340729"><ele>300.0</ele><time>2026-03-28T08:46:21.944Z</time></trkpt><trkpt lat="43.684561" lon="11.3407529"><ele>303.0</ele><time>2026-03-28T08:46:22.943Z</time></trkpt><trkpt lat="43.684643" lon="11.3407984"><ele>306.0</ele><time>2026-03-28T08:46:24.943Z</time></trkpt><trkpt lat="43.6846457" lon="11.340894"><ele>309.0</ele><time>2026-03-28T08:46:46.943Z</time></trkpt><trkpt lat="43.6845667" lon="11.3409601"><ele>309.0</ele><time>2026-03-28T08:48:21.943Z</time></trkpt><trkpt lat="43.6845211" lon="11.3410667"><ele>309.0</ele><time>2026-03-28T08:48:23.943Z</time></trkpt><trkpt lat="43.6845092" lon="11.3411993"><ele>309.0</ele><time>2026-03-28T08:48:25.944Z</time></trkpt><trkpt lat="43.6844914" lon="11.34131"><ele>309.0</ele><time>2026-03-28T08:48:27.943Z</time></trkpt><trkpt lat="43.6844776" lon="11.3414092"><ele>309.0</ele><time>2026-03-28T08:48:29.944Z</time></trkpt><trkpt lat="43.6844561" lon="11.3415432"><ele>309.0</ele><time>2026-03-28T08:48:31.944Z</time></trkpt><trkpt lat="43.6844432" lon="11.3416778"><ele>312.79999999999995</ele><time>2026-03-28T08:48:33.943Z</time></trkpt><trkpt lat="43.6844541" lon="11.3418321"><ele>316.59999999999997</ele><time>2026-03-28T08:48:35.943Z</time></trkpt><trkpt lat="43.6845174" lon="11.3419576"><ele>320.4</ele><time>2026-03-28T08:48:37.943Z</time></trkpt><trkpt lat="43.6845788" lon="11.3420596"><ele>324.2</ele><time>2026-03-28T08:48:39.943Z</time></trkpt><trkpt lat="43.6846259" lon="11.3421589"><ele>328.0</ele><time>2026-03-28T08:48:41.944Z</time></trkpt><trkpt lat="43.6846785" lon="11.3422727"><ele>332.0</ele><time>2026-03-28T08:48:43.944Z</time></trkpt><trkpt lat="43.6847399" lon="11.3423859"><ele>336.0</ele><time>2026-03-28T08:48:45.943Z</time></trkpt><trkpt lat="43.684816" lon="11.3425042"><ele>340.0</ele><time>2026-03-28T08:48:47.944Z</time></trkpt><trkpt lat="43.6848743" lon="11.342621"><ele>344.0</ele><time>2026-03-28T08:48:49.944Z</time></trkpt><trkpt lat="43.6849279" lon="11.3427401"><ele>348.0</ele><time>2026-03-28T08:48:51.943Z</time></trkpt><trkpt lat="43.6850194" lon="11.342861"><ele>348.0</ele><time>2026-03-28T08:48:53.943Z</time></trkpt><trkpt lat="43.6850737" lon="11.3429154"><ele>348.0</ele><time>2026-03-28T08:48:54.943Z</time></trkpt><trkpt lat="43.6851637" lon="11.343017"><ele>348.0</ele><time>2026-03-28T08:48:56.944Z</time></trkpt><trkpt lat="43.685224" lon="11.3431131"><ele>348.0</ele><time>2026-03-28T08:48:58.943Z</time></trkpt><trkpt lat="43.6852152" lon="11.3432006"><ele>348.0</ele><time>2026-03-28T08:49:39.944Z</time></trkpt><trkpt lat="43.6851594" lon="11.3432614"><ele>348.0</ele><time>2026-03-28T08:49:41.943Z</time></trkpt><trkpt lat="43.6851181" lon="11.3433935"><ele>350.0</ele><time>2026-03-28T08:51:59.943Z</time></trkpt><trkpt lat="43.6850678" lon="11.3435071"><ele>352.0</ele><time>2026-03-28T08:52:00.944Z</time></trkpt><trkpt lat="43.6850225" lon="11.3435872"><ele>354.0</ele><time>2026-03-28T08:52:01.944Z</time></trkpt><trkpt lat="43.6849749" lon="11.3436573"><ele>356.0</ele><time>2026-03-28T08:52:02.943Z</time></trkpt><trkpt lat="43.6849362" lon="11.3437908"><ele>358.0</ele><time>2026-03-28T08:52:04.944Z</time></trkpt><trkpt lat="43.6849714" lon="11.3439541"><ele>359.5</ele><time>2026-03-28T08:52:06.944Z</time></trkpt><trkpt lat="43.685005" lon="11.3440352"><ele>361.0</ele><time>2026-03-28T08:52:07.943Z</time></trkpt><trkpt lat="43.6850349" lon="11.3441124"><ele>362.5</ele><time>2026-03-28T08:52:08.944Z</time></trkpt><trkpt lat="43.6851078" lon="11.3442425"><ele>364.0</ele><time>2026-03-28T08:52:10.943Z</time></trkpt><trkpt lat="43.6851616" lon="11.344313"><ele>365.5</ele><time>2026-03-28T08:52:11.944Z</time></trkpt><trkpt lat="43.6852119" lon="11.3443785"><ele>367.0</ele><time>2026-03-28T08:52:12.943Z</time></trkpt><trkpt lat="43.6852601" lon="11.3445082"><ele>368.0</ele><time>2026-03-28T08:52:14.944Z</time></trkpt><trkpt lat="43.6853145" lon="11.3445789"><ele>369.0</ele><time>2026-03-28T08:52:16.944Z</time></trkpt><trkpt lat="43.6854019" lon="11.3445037"><ele>370.0</ele><time>2026-03-28T08:52:18.944Z</time></trkpt><trkpt lat="43.6854721" lon="11.344417"><ele>371.0</ele><time>2026-03-28T08:52:20.943Z</time></trkpt><trkpt lat="43.6855339" lon="11.3443305"><ele>372.0</ele><time>2026-03-28T08:52:22.944Z</time></trkpt><trkpt lat="43.6856226" lon="11.3442886"><ele>372.0</ele><time>2026-03-28T08:52:51.944Z</time></trkpt><trkpt lat="43.6856959" lon="11.3443187"><ele>372.0</ele><time>2026-03-28T08:52:53.944Z</time></trkpt><trkpt lat="43.6858028" lon="11.3443693"><ele>372.0</ele><time>2026-03-28T08:52:56.943Z</time></trkpt><trkpt lat="43.6858902" lon="11.3444195"><ele>372.0</ele><time>2026-03-28T08:52:58.943Z</time></trkpt><trkpt lat="43.6859529" lon="11.3444993"><ele>372.0</ele><time>2026-03-28T08:53:00.943Z</time></trkpt><trkpt lat="43.6860433" lon="11.3446098"><ele>371.8333333333333</ele><time>2026-03-28T08:53:02.943Z</time></trkpt><trkpt lat="43.6861272" lon="11.3447291"><ele>371.6666666666667</ele><time>2026-03-28T08:53:04.943Z</time></trkpt><trkpt lat="43.6861767" lon="11.344804"><ele>371.5</ele><time>2026-03-28T08:53:05.943Z</time></trkpt><trkpt lat="43.6862152" lon="11.3448866"><ele>371.33333333333337</ele><time>2026-03-28T08:53:06.943Z</time></trkpt><trkpt lat="43.6862485" lon="11.3449697"><ele>371.1666666666667</ele><time>2026-03-28T08:53:07.943Z</time></trkpt><trkpt lat="43.6862841" lon="11.3450496"><ele>371.0</ele><time>2026-03-28T08:53:08.944Z</time></trkpt><trkpt lat="43.6863195" lon="11.3451392"><ele>371.0</ele><time>2026-03-28T08:53:09.943Z</time></trkpt><trkpt lat="43.6863474" lon="11.3452285"><ele>371.0</ele><time>2026-03-28T08:53:10.943Z</time></trkpt><trkpt lat="43.6863779" lon="11.3453097"><ele>371.0</ele><time>2026-03-28T08:53:11.944Z</time></trkpt><trkpt lat="43.6864074" lon="11.345391"><ele>371.0</ele><time>2026-03-28T08:53:12.943Z</time></trkpt><trkpt lat="43.6864441" lon="11.3455344"><ele>371.0</ele><time>2026-03-28T08:53:14.943Z</time></trkpt><trkpt lat="43.6864572" lon="11.3456693"><ele>371.0</ele><time>2026-03-28T08:53:16.944Z</time></trkpt><trkpt lat="43.6864844" lon="11.3458373"><ele>373.6666666666667</ele><time>2026-03-28T08:53:18.943Z</time></trkpt><trkpt lat="43.6864991" lon="11.3459232"><ele>376.33333333333337</ele><time>2026-03-28T08:53:19.944Z</time></trkpt><trkpt lat="43.6865257" lon="11.3460139"><ele>379.0</ele><time>2026-03-28T08:53:20.943Z</time></trkpt><trkpt lat="43.6865734" lon="11.3461108"><ele>381.6666666666667</ele><time>2026-03-28T08:53:21.943Z</time></trkpt><trkpt lat="43.6866155" lon="11.3462051"><ele>384.3333333333333</ele><time>2026-03-28T08:53:22.944Z</time></trkpt><trkpt lat="43.6866462" lon="11.3463011"><ele>387.0</ele><time>2026-03-28T08:53:23.942Z</time></trkpt><trkpt lat="43.6866774" lon="11.3463991"><ele>390.3333333333333</ele><time>2026-03-28T08:53:24.945Z</time></trkpt><trkpt lat="43.6867067" lon="11.3465024"><ele>393.66666666666663</ele><time>2026-03-28T08:53:25.943Z</time></trkpt><trkpt lat="43.6867398" lon="11.3466149"><ele>397.0</ele><time>2026-03-28T08:53:26.943Z</time></trkpt><trkpt lat="43.6867576" lon="11.3467104"><ele>400.3333333333333</ele><time>2026-03-28T08:53:27.944Z</time></trkpt><trkpt lat="43.6867827" lon="11.3468025"><ele>403.66666666666663</ele><time>2026-03-28T08:53:28.944Z</time></trkpt><trkpt lat="43.686856" lon="11.3469279"><ele>407.0</ele><time>2026-03-28T08:53:30.944Z</time></trkpt><trkpt lat="43.6869235" lon="11.3469445"><ele>405.8</ele><time>2026-03-28T08:53:31.943Z</time></trkpt><trkpt lat="43.6870318" lon="11.346932"><ele>404.6</ele><time>2026-03-28T08:53:33.943Z</time></trkpt><trkpt lat="43.6871365" lon="11.3469613"><ele>403.40000000000003</ele><time>2026-03-28T08:53:35.944Z</time></trkpt><trkpt lat="43.6872304" lon="11.3469986"><ele>402.20000000000005</ele><time>2026-03-28T08:53:37.943Z</time></trkpt><trkpt lat="43.6873342" lon="11.3470486"><ele>401.0</ele><time>2026-03-28T08:53:39.944Z</time></trkpt><trkpt lat="43.6874247" lon="11.3471271"><ele>400.99999999999994</ele><time>2026-03-28T08:53:41.943Z</time></trkpt><trkpt lat="43.6875194" lon="11.3471516"><ele>401.0</ele><time>2026-03-28T08:53:43.943Z</time></trkpt><trkpt lat="43.6875948" lon="11.3471301"><ele>401.0</ele><time>2026-03-28T08:53:46.944Z</time></trkpt><trkpt lat="43.6876847" lon="11.3471115"><ele>401.0</ele><time>2026-03-28T08:53:49.944Z</time></trkpt><trkpt lat="43.6877752" lon="11.3470969"><ele>400.99999999999994</ele><time>2026-03-28T08:53:51.944Z</time></trkpt><trkpt lat="43.6878559" lon="11.3471062"><ele>401.0</ele><time>2026-03-28T08:53:53.944Z</time></trkpt><trkpt lat="43.6879442" lon="11.3471522"><ele>402.66666666666663</ele><time>2026-03-28T08:53:55.943Z</time></trkpt><trkpt lat="43.6880153" lon="11.3472215"><ele>404.3333333333333</ele><time>2026-03-28T08:53:57.944Z</time></trkpt><trkpt lat="43.6880827" lon="11.3472793"><ele>406.0</ele><time>2026-03-28T08:54:00.944Z</time></trkpt><trkpt lat="43.6881475" lon="11.3473561"><ele>407.66666666666663</ele><time>2026-03-28T08:54:12.945Z</time></trkpt><trkpt lat="43.6882446" lon="11.3474408"><ele>409.3333333333333</ele><time>2026-03-28T08:54:14.943Z</time></trkpt><trkpt lat="43.6882889" lon="11.3475162"><ele>411.0</ele><time>2026-03-28T08:54:16.944Z</time></trkpt><trkpt lat="43.6882411" lon="11.3475999"><ele>411.0</ele><time>2026-03-28T08:54:29.943Z</time></trkpt><trkpt lat="43.6883049" lon="11.3476156"><ele>411.0</ele><time>2026-03-28T08:54:52.943Z</time></trkpt><trkpt lat="43.6883883" lon="11.3476843"><ele>411.0</ele><time>2026-03-28T08:54:54.944Z</time></trkpt><trkpt lat="43.6884697" lon="11.3477228"><ele>411.0</ele><time>2026-03-28T08:54:56.943Z</time></trkpt><trkpt lat="43.6885553" lon="11.3477613"><ele>411.0</ele><time>2026-03-28T08:54:58.944Z</time></trkpt><trkpt lat="43.688653" lon="11.3478033"><ele>411.0</ele><time>2026-03-28T08:55:00.943Z</time></trkpt><trkpt lat="43.6887469" lon="11.3478776"><ele>411.20000000000005</ele><time>2026-03-28T08:55:02.943Z</time></trkpt><trkpt lat="43.6888262" lon="11.3479696"><ele>411.40000000000003</ele><time>2026-03-28T08:55:04.943Z</time></trkpt><trkpt lat="43.6889059" lon="11.348041"><ele>411.6</ele><time>2026-03-28T08:55:06.944Z</time></trkpt><trkpt lat="43.6889686" lon="11.3481238"><ele>411.8</ele><time>2026-03-28T08:55:08.943Z</time></trkpt><trkpt lat="43.6890571" lon="11.3482166"><ele>412.0</ele><time>2026-03-28T08:55:11.944Z</time></trkpt><trkpt lat="43.6891487" lon="11.348286"><ele>409.6666666666667</ele><time>2026-03-28T08:55:13.943Z</time></trkpt><trkpt lat="43.6892574" lon="11.3483474"><ele>407.33333333333337</ele><time>2026-03-28T08:55:15.943Z</time></trkpt><trkpt lat="43.6893515" lon="11.3483573"><ele>405.0</ele><time>2026-03-28T08:55:17.944Z</time></trkpt><trkpt lat="43.6894131" lon="11.3483256"><ele>402.66666666666663</ele><time>2026-03-28T08:55:45.943Z</time></trkpt><trkpt lat="43.6894669" lon="11.3482484"><ele>400.3333333333333</ele><time>2026-03-28T08:55:48.944Z</time></trkpt><trkpt lat="43.6894006" lon="11.3482503"><ele>398.0</ele><time>2026-03-28T08:55:54.943Z</time></trkpt><trkpt lat="43.689408" lon="11.3483469"><ele>397.99999999999994</ele><time>2026-03-28T08:55:57.944Z</time></trkpt><trkpt lat="43.6893474" lon="11.3483879"><ele>398.0</ele><time>2026-03-28T08:56:05.943Z</time></trkpt><trkpt lat="43.689285" lon="11.3483697"><ele>398.0</ele><time>2026-03-28T08:56:07.944Z</time></trkpt><trkpt lat="43.6892106" lon="11.3483439"><ele>398.0</ele><time>2026-03-28T08:56:09.945Z</time></trkpt><trkpt lat="43.6891492" lon="11.3482876"><ele>398.0</ele><time>2026-03-28T08:56:18.945Z</time></trkpt><trkpt lat="43.6890772" lon="11.3482185"><ele>397.99999999999994</ele><time>2026-03-28T08:56:21.943Z</time></trkpt><trkpt lat="43.6890233" lon="11.3481689"><ele>398.0</ele><time>2026-03-28T08:56:23.944Z</time></trkpt><trkpt lat="43.6889708" lon="11.3481136"><ele>397.99999999999994</ele><time>2026-03-28T08:56:24.943Z</time></trkpt><trkpt lat="43.688918" lon="11.3480563"><ele>398.0</ele><time>2026-03-28T08:56:25.944Z</time></trkpt><trkpt lat="43.6888404" lon="11.3479624"><ele>398.0</ele><time>2026-03-28T08:56:27.943Z</time></trkpt><trkpt lat="43.688787" lon="11.3479012"><ele>398.0</ele><time>2026-03-28T08:56:28.944Z</time></trkpt><trkpt lat="43.6886972" lon="11.3478334"><ele>397.99999999999994</ele><time>2026-03-28T08:56:30.943Z</time></trkpt><trkpt lat="43.6886379" lon="11.3478033"><ele>398.0</ele><time>2026-03-28T08:56:31.943Z</time></trkpt><trkpt lat="43.6885144" lon="11.3477532"><ele>400.59999999999997</ele><time>2026-03-28T08:56:33.944Z</time></trkpt><trkpt lat="43.6884485" lon="11.3477255"><ele>403.2</ele><time>2026-03-28T08:56:34.943Z</time></trkpt><trkpt lat="43.688354" lon="11.3476454"><ele>405.8</ele><time>2026-03-28T08:56:36.944Z</time></trkpt><trkpt lat="43.688244" lon="11.3476186"><ele>408.4</ele><time>2026-03-28T08:56:38.943Z</time></trkpt><trkpt lat="43.6881231" lon="11.347664"><ele>411.0</ele><time>2026-03-28T08:56:40.943Z</time></trkpt><trkpt lat="43.6880502" lon="11.3476999"><ele>411.0</ele><time>2026-03-28T08:56:41.943Z</time></trkpt><trkpt lat="43.6879842" lon="11.3477349"><ele>411.0</ele><time>2026-03-28T08:56:42.943Z</time></trkpt><trkpt lat="43.6879152" lon="11.3477724"><ele>411.0</ele><time>2026-03-28T08:56:43.944Z</time></trkpt><trkpt lat="43.687854" lon="11.3477938"><ele>411.0</ele><time>2026-03-28T08:56:44.945Z</time></trkpt><trkpt lat="43.6877907" lon="11.3478153"><ele>411.0</ele><time>2026-03-28T08:56:45.944Z</time></trkpt><trkpt lat="43.6876654" lon="11.3478772"><ele>411.0</ele><time>2026-03-28T08:56:47.944Z</time></trkpt><trkpt lat="43.6876" lon="11.3479089"><ele>411.7142857142857</ele><time>2026-03-28T08:56:48.943Z</time></trkpt><trkpt lat="43.6875315" lon="11.3479419"><ele>412.42857142857144</ele><time>2026-03-28T08:56:49.944Z</time></trkpt><trkpt lat="43.6874656" lon="11.3479567"><ele>413.1428571428571</ele><time>2026-03-28T08:56:50.944Z</time></trkpt><trkpt lat="43.6873951" lon="11.3479279"><ele>413.8571428571429</ele><time>2026-03-28T08:56:51.942Z</time></trkpt><trkpt lat="43.6873325" lon="11.3479185"><ele>414.5714285714286</ele><time>2026-03-28T08:56:52.943Z</time></trkpt><trkpt lat="43.6872618" lon="11.347892"><ele>415.2857142857143</ele><time>2026-03-28T08:56:53.944Z</time></trkpt><trkpt lat="43.6871943" lon="11.3478679"><ele>416.0</ele><time>2026-03-28T08:56:54.944Z</time></trkpt><trkpt lat="43.6871206" lon="11.3478399"><ele>415.99999999999994</ele><time>2026-03-28T08:56:55.944Z</time></trkpt><trkpt lat="43.6870356" lon="11.3477986"><ele>416.0</ele><time>2026-03-28T08:56:56.943Z</time></trkpt><trkpt lat="43.686946" lon="11.3477587"><ele>416.0</ele><time>2026-03-28T08:56:57.943Z</time></trkpt><trkpt lat="43.6868614" lon="11.3477277"><ele>416.0</ele><time>2026-03-28T08:56:58.943Z</time></trkpt><trkpt lat="43.6867923" lon="11.3476994"><ele>415.99999999999994</ele><time>2026-03-28T08:56:59.945Z</time></trkpt><trkpt lat="43.6867139" lon="11.3476561"><ele>416.0</ele><time>2026-03-28T08:57:00.943Z</time></trkpt><trkpt lat="43.6866461" lon="11.3476124"><ele>417.66666666666663</ele><time>2026-03-28T08:57:01.944Z</time></trkpt><trkpt lat="43.6865803" lon="11.3475812"><ele>419.3333333333333</ele><time>2026-03-28T08:57:02.945Z</time></trkpt><trkpt lat="43.6865174" lon="11.3475642"><ele>421.0</ele><time>2026-03-28T08:57:03.944Z</time></trkpt><trkpt lat="43.6864493" lon="11.3475689"><ele>422.66666666666663</ele><time>2026-03-28T08:57:04.943Z</time></trkpt><trkpt lat="43.68639" lon="11.3475995"><ele>424.3333333333333</ele><time>2026-03-28T08:57:05.944Z</time></trkpt><trkpt lat="43.6863243" lon="11.3477216"><ele>426.0</ele><time>2026-03-28T08:57:07.944Z</time></trkpt><trkpt lat="43.6863103" lon="11.3478308"><ele>426.0</ele><time>2026-03-28T08:57:08.943Z</time></trkpt><trkpt lat="43.6862948" lon="11.3479402"><ele>426.0</ele><time>2026-03-28T08:57:09.943Z</time></trkpt><trkpt lat="43.6862649" lon="11.3480915"><ele>426.0</ele><time>2026-03-28T08:57:10.945Z</time></trkpt><trkpt lat="43.686229" lon="11.348252"><ele>426.0</ele><time>2026-03-28T08:57:11.944Z</time></trkpt><trkpt lat="43.6861935" lon="11.3484165"><ele>426.0</ele><time>2026-03-28T08:57:12.944Z</time></trkpt><trkpt lat="43.6861615" lon="11.3485672"><ele>427.0</ele><time>2026-03-28T08:57:13.943Z</time></trkpt><trkpt lat="43.6861099" lon="11.3486978"><ele>428.0</ele><time>2026-03-28T08:57:14.943Z</time></trkpt><trkpt lat="43.6860502" lon="11.3488118"><ele>429.0</ele><time>2026-03-28T08:57:15.944Z</time></trkpt><trkpt lat="43.6859807" lon="11.3489146"><ele>430.0</ele><time>2026-03-28T08:57:16.943Z</time></trkpt><trkpt lat="43.6858982" lon="11.3490068"><ele>431.0</ele><time>2026-03-28T08:57:17.943Z</time></trkpt><trkpt lat="43.6858144" lon="11.3490705"><ele>433.99999999999994</ele><time>2026-03-28T08:57:18.944Z</time></trkpt><trkpt lat="43.6857306" lon="11.3491412"><ele>437.0</ele><time>2026-03-28T08:57:19.944Z</time></trkpt><trkpt lat="43.6856572" lon="11.349222"><ele>440.0</ele><time>2026-03-28T08:57:20.944Z</time></trkpt><trkpt lat="43.6856006" lon="11.3493064"><ele>443.0</ele><time>2026-03-28T08:57:21.944Z</time></trkpt><trkpt lat="43.685573" lon="11.3493993"><ele>445.99999999999994</ele><time>2026-03-28T08:57:22.942Z</time></trkpt><trkpt lat="43.6855986" lon="11.3495258"><ele>449.0</ele><time>2026-03-28T08:57:24.944Z</time></trkpt><trkpt lat="43.6856661" lon="11.3496322"><ele>449.66666666666663</ele><time>2026-03-28T08:57:26.943Z</time></trkpt><trkpt lat="43.685699" lon="11.3497164"><ele>450.3333333333333</ele><time>2026-03-28T08:57:28.944Z</time></trkpt><trkpt lat="43.6857149" lon="11.3498272"><ele>451.0</ele><time>2026-03-28T08:57:32.944Z</time></trkpt><trkpt lat="43.685713" lon="11.3499317"><ele>451.66666666666663</ele><time>2026-03-28T08:57:34.945Z</time></trkpt><trkpt lat="43.6856636" lon="11.3500259"><ele>452.3333333333333</ele><time>2026-03-28T08:57:36.944Z</time></trkpt><trkpt lat="43.6855489" lon="11.3500321"><ele>453.0</ele><time>2026-03-28T08:57:38.945Z</time></trkpt><trkpt lat="43.6854435" lon="11.3499901"><ele>453.0</ele><time>2026-03-28T08:57:40.944Z</time></trkpt><trkpt lat="43.6853894" lon="11.3499452"><ele>452.99999999999994</ele><time>2026-03-28T08:57:41.943Z</time></trkpt><trkpt lat="43.6852967" lon="11.3498385"><ele>452.99999999999994</ele><time>2026-03-28T08:57:43.943Z</time></trkpt><trkpt lat="43.6852252" lon="11.3497155"><ele>453.0</ele><time>2026-03-28T08:57:45.943Z</time></trkpt><trkpt lat="43.6851526" lon="11.3495952"><ele>453.0</ele><time>2026-03-28T08:57:47.943Z</time></trkpt><trkpt lat="43.6850943" lon="11.349465"><ele>449.6666666666667</ele><time>2026-03-28T08:57:49.943Z</time></trkpt><trkpt lat="43.6850408" lon="11.3493244"><ele>446.33333333333337</ele><time>2026-03-28T08:57:51.944Z</time></trkpt><trkpt lat="43.6849646" lon="11.3492639"><ele>443.0</ele><time>2026-03-28T08:57:53.945Z</time></trkpt><trkpt lat="43.6848756" lon="11.3493123"><ele>439.6666666666667</ele><time>2026-03-28T08:57:55.943Z</time></trkpt><trkpt lat="43.6848504" lon="11.3494015"><ele>436.33333333333337</ele><time>2026-03-28T08:57:56.944Z</time></trkpt><trkpt lat="43.6848343" lon="11.3494892"><ele>433.0</ele><time>2026-03-28T08:57:57.943Z</time></trkpt><trkpt lat="43.6848188" lon="11.3496595"><ele>433.0</ele><time>2026-03-28T08:57:59.943Z</time></trkpt><trkpt lat="43.6847872" lon="11.3498286"><ele>432.99999999999994</ele><time>2026-03-28T08:58:01.944Z</time></trkpt><trkpt lat="43.6847642" lon="11.3499129"><ele>432.99999999999994</ele><time>2026-03-28T08:58:02.944Z</time></trkpt><trkpt lat="43.6846891" lon="11.350022"><ele>433.0</ele><time>2026-03-28T08:58:04.943Z</time></trkpt><trkpt lat="43.6845794" lon="11.350014"><ele>433.0</ele><time>2026-03-28T08:58:06.943Z</time></trkpt><trkpt lat="43.6844912" lon="11.3498967"><ele>432.99999999999994</ele><time>2026-03-28T08:58:08.944Z</time></trkpt><trkpt lat="43.6844453" lon="11.3498286"><ele>433.0</ele><time>2026-03-28T08:58:09.945Z</time></trkpt><trkpt lat="43.6843826" lon="11.3497966"><ele>433.0</ele><time>2026-03-28T08:58:10.943Z</time></trkpt><trkpt lat="43.684317" lon="11.349789"><ele>433.0</ele><time>2026-03-28T08:58:11.945Z</time></trkpt><trkpt lat="43.6842426" lon="11.3498145"><ele>433.0</ele><time>2026-03-28T08:58:12.943Z</time></trkpt><trkpt lat="43.6841718" lon="11.3498594"><ele>432.99999999999994</ele><time>2026-03-28T08:58:13.945Z</time></trkpt><trkpt lat="43.6840925" lon="11.3498997"><ele>433.0</ele><time>2026-03-28T08:58:14.944Z</time></trkpt><trkpt lat="43.6840086" lon="11.3499115"><ele>429.4</ele><time>2026-03-28T08:58:15.944Z</time></trkpt><trkpt lat="43.6839207" lon="11.3498998"><ele>425.79999999999995</ele><time>2026-03-28T08:58:16.944Z</time></trkpt><trkpt lat="43.6838285" lon="11.3498691"><ele>422.2</ele><time>2026-03-28T08:58:17.945Z</time></trkpt><trkpt lat="43.6837352" lon="11.3498222"><ele>418.6</ele><time>2026-03-28T08:58:18.944Z</time></trkpt><trkpt lat="43.6836343" lon="11.3497969"><ele>415.0</ele><time>2026-03-28T08:58:19.942Z</time></trkpt><trkpt lat="43.6835345" lon="11.3497799"><ele>413.6</ele><time>2026-03-28T08:58:20.943Z</time></trkpt><trkpt lat="43.6834396" lon="11.349793"><ele>412.2</ele><time>2026-03-28T08:58:21.943Z</time></trkpt><trkpt lat="43.683346" lon="11.3498155"><ele>410.79999999999995</ele><time>2026-03-28T08:58:22.944Z</time></trkpt><trkpt lat="43.6832559" lon="11.3498551"><ele>409.4</ele><time>2026-03-28T08:58:23.944Z</time></trkpt><trkpt lat="43.6831765" lon="11.3499025"><ele>408.0</ele><time>2026-03-28T08:58:24.944Z</time></trkpt><trkpt lat="43.6831077" lon="11.34996"><ele>408.0</ele><time>2026-03-28T08:58:25.944Z</time></trkpt><trkpt lat="43.6830584" lon="11.3500296"><ele>408.0</ele><time>2026-03-28T08:58:26.944Z</time></trkpt><trkpt lat="43.6830141" lon="11.3501166"><ele>408.0</ele><time>2026-03-28T08:58:27.944Z</time></trkpt><trkpt lat="43.6829768" lon="11.3502231"><ele>408.0</ele><time>2026-03-28T08:58:28.944Z</time></trkpt><trkpt lat="43.6829504" lon="11.3503421"><ele>408.0</ele><time>2026-03-28T08:58:29.944Z</time></trkpt><trkpt lat="43.6829354" lon="11.3504573"><ele>408.0</ele><time>2026-03-28T08:58:30.945Z</time></trkpt><trkpt lat="43.6829249" lon="11.3505927"><ele>408.1666666666667</ele><time>2026-03-28T08:58:31.943Z</time></trkpt><trkpt lat="43.6829167" lon="11.3507262"><ele>408.33333333333337</ele><time>2026-03-28T08:58:32.942Z</time></trkpt><trkpt lat="43.6829121" lon="11.3508539"><ele>408.5</ele><time>2026-03-28T08:58:33.944Z</time></trkpt><trkpt lat="43.6829128" lon="11.3509714"><ele>408.6666666666667</ele><time>2026-03-28T08:58:34.943Z</time></trkpt><trkpt lat="43.6829179" lon="11.3510902"><ele>408.83333333333337</ele><time>2026-03-28T08:58:35.944Z</time></trkpt><trkpt lat="43.6829201" lon="11.3512045"><ele>409.0</ele><time>2026-03-28T08:58:36.943Z</time></trkpt><trkpt lat="43.6829374" lon="11.351313"><ele>407.50000000000006</ele><time>2026-03-28T08:58:37.944Z</time></trkpt><trkpt lat="43.6829695" lon="11.3514091"><ele>406.0</ele><time>2026-03-28T08:58:38.944Z</time></trkpt><trkpt lat="43.683015" lon="11.3514913"><ele>404.5</ele><time>2026-03-28T08:58:39.944Z</time></trkpt><trkpt lat="43.6830562" lon="11.3515712"><ele>403.0</ele><time>2026-03-28T08:58:40.943Z</time></trkpt><trkpt lat="43.6831019" lon="11.3516444"><ele>401.50000000000006</ele><time>2026-03-28T08:58:41.943Z</time></trkpt><trkpt lat="43.683154" lon="11.3517067"><ele>400.0</ele><time>2026-03-28T08:58:42.944Z</time></trkpt><trkpt lat="43.6832174" lon="11.3518259"><ele>400.00000000000006</ele><time>2026-03-28T08:58:44.944Z</time></trkpt><trkpt lat="43.6831851" lon="11.3519614"><ele>400.0</ele><time>2026-03-28T08:58:46.944Z</time></trkpt><trkpt lat="43.6831271" lon="11.3520195"><ele>400.0</ele><time>2026-03-28T08:58:47.945Z</time></trkpt><trkpt lat="43.6830541" lon="11.3520682"><ele>400.0</ele><time>2026-03-28T08:58:48.944Z</time></trkpt><trkpt lat="43.6829853" lon="11.3521112"><ele>400.00000000000006</ele><time>2026-03-28T08:58:49.944Z</time></trkpt><trkpt lat="43.6829177" lon="11.3521596"><ele>400.0</ele><time>2026-03-28T08:58:50.944Z</time></trkpt><trkpt lat="43.6828495" lon="11.3522055"><ele>397.33333333333337</ele><time>2026-03-28T08:58:51.944Z</time></trkpt><trkpt lat="43.682786" lon="11.3522957"><ele>394.6666666666667</ele><time>2026-03-28T08:58:52.943Z</time></trkpt><trkpt lat="43.6827288" lon="11.3523811"><ele>392.0</ele><time>2026-03-28T08:58:53.943Z</time></trkpt><trkpt lat="43.6826721" lon="11.3524535"><ele>389.33333333333337</ele><time>2026-03-28T08:58:54.944Z</time></trkpt><trkpt lat="43.6826051" lon="11.3524634"><ele>386.6666666666667</ele><time>2026-03-28T08:58:55.942Z</time></trkpt><trkpt lat="43.6825011" lon="11.3524015"><ele>384.0</ele><time>2026-03-28T08:58:57.945Z</time></trkpt><trkpt lat="43.6824446" lon="11.3523242"><ele>384.0</ele><time>2026-03-28T08:58:58.944Z</time></trkpt><trkpt lat="43.6823856" lon="11.3522333"><ele>384.0</ele><time>2026-03-28T08:58:59.944Z</time></trkpt><trkpt lat="43.6823379" lon="11.3521571"><ele>384.0</ele><time>2026-03-28T08:59:00.942Z</time></trkpt><trkpt lat="43.6822904" lon="11.3520966"><ele>384.0</ele><time>2026-03-28T08:59:01.945Z</time></trkpt><trkpt lat="43.6822176" lon="11.3519972"><ele>384.0</ele><time>2026-03-28T08:59:03.943Z</time></trkpt><trkpt lat="43.6821239" lon="11.3519574"><ele>384.0</ele><time>2026-03-28T08:59:05.945Z</time></trkpt><trkpt lat="43.6820578" lon="11.3519406"><ele>385.3333333333333</ele><time>2026-03-28T08:59:06.945Z</time></trkpt><trkpt lat="43.6819914" lon="11.3519297"><ele>386.66666666666663</ele><time>2026-03-28T08:59:07.943Z</time></trkpt><trkpt lat="43.6819281" lon="11.3519059"><ele>388.0</ele><time>2026-03-28T08:59:08.943Z</time></trkpt><trkpt lat="43.6818587" lon="11.3518557"><ele>389.3333333333333</ele><time>2026-03-28T08:59:09.942Z</time></trkpt><trkpt lat="43.6817937" lon="11.3517916"><ele>390.66666666666663</ele><time>2026-03-28T08:59:10.944Z</time></trkpt><trkpt lat="43.6817385" lon="11.3516869"><ele>392.0</ele><time>2026-03-28T08:59:11.944Z</time></trkpt><trkpt lat="43.6816952" lon="11.3515839"><ele>389.16666666666663</ele><time>2026-03-28T08:59:12.945Z</time></trkpt><trkpt lat="43.6816604" lon="11.3514824"><ele>386.3333333333333</ele><time>2026-03-28T08:59:13.944Z</time></trkpt><trkpt lat="43.6816325" lon="11.3513747"><ele>383.5</ele><time>2026-03-28T08:59:14.944Z</time></trkpt><trkpt lat="43.6816025" lon="11.3512686"><ele>380.66666666666663</ele><time>2026-03-28T08:59:15.943Z</time></trkpt><trkpt lat="43.6815617" lon="11.3511819"><ele>377.8333333333333</ele><time>2026-03-28T08:59:16.945Z</time></trkpt><trkpt lat="43.6815162" lon="11.3510889"><ele>375.0</ele><time>2026-03-28T08:59:17.942Z</time></trkpt><trkpt lat="43.6814641" lon="11.350995"><ele>374.8</ele><time>2026-03-28T08:59:18.945Z</time></trkpt><trkpt lat="43.681411" lon="11.3509006"><ele>374.6</ele><time>2026-03-28T08:59:19.943Z</time></trkpt><trkpt lat="43.6813545" lon="11.3508008"><ele>374.4</ele><time>2026-03-28T08:59:20.944Z</time></trkpt><trkpt lat="43.6813009" lon="11.3506864"><ele>374.2</ele><time>2026-03-28T08:59:21.944Z</time></trkpt><trkpt lat="43.6812541" lon="11.3505536"><ele>374.0</ele><time>2026-03-28T08:59:22.944Z</time></trkpt><trkpt lat="43.6812087" lon="11.3503962"><ele>374.0</ele><time>2026-03-28T08:59:23.943Z</time></trkpt><trkpt lat="43.6811654" lon="11.3502457"><ele>374.0</ele><time>2026-03-28T08:59:24.945Z</time></trkpt><trkpt lat="43.6811161" lon="11.3501106"><ele>374.0</ele><time>2026-03-28T08:59:25.943Z</time></trkpt><trkpt lat="43.6810581" lon="11.3499826"><ele>374.0</ele><time>2026-03-28T08:59:26.943Z</time></trkpt><trkpt lat="43.6809923" lon="11.34987"><ele>374.0</ele><time>2026-03-28T08:59:27.943Z</time></trkpt><trkpt lat="43.6809217" lon="11.3497663"><ele>371.6</ele><time>2026-03-28T08:59:28.944Z</time></trkpt><trkpt lat="43.6808317" lon="11.3496887"><ele>369.2</ele><time>2026-03-28T08:59:29.944Z</time></trkpt><trkpt lat="43.6807538" lon="11.3496079"><ele>366.8</ele><time>2026-03-28T08:59:30.945Z</time></trkpt><trkpt lat="43.6806697" lon="11.3495244"><ele>364.40000000000003</ele><time>2026-03-28T08:59:31.944Z</time></trkpt><trkpt lat="43.6805906" lon="11.3494418"><ele>362.0</ele><time>2026-03-28T08:59:32.944Z</time></trkpt><trkpt lat="43.6805129" lon="11.3493638"><ele>362.0</ele><time>2026-03-28T08:59:33.945Z</time></trkpt><trkpt lat="43.6804263" lon="11.3492946"><ele>362.0</ele><time>2026-03-28T08:59:34.944Z</time></trkpt><trkpt lat="43.6803549" lon="11.3492147"><ele>362.0</ele><time>2026-03-28T08:59:35.943Z</time></trkpt><trkpt lat="43.6802661" lon="11.3491554"><ele>362.0</ele><time>2026-03-28T08:59:36.944Z</time></trkpt><trkpt lat="43.6801738" lon="11.3490924"><ele>362.0</ele><time>2026-03-28T08:59:37.944Z</time></trkpt><trkpt lat="43.6800729" lon="11.3490858"><ele>358.0</ele><time>2026-03-28T08:59:38.944Z</time></trkpt><trkpt lat="43.6799739" lon="11.3490705"><ele>354.0</ele><time>2026-03-28T08:59:39.944Z</time></trkpt><trkpt lat="43.6798797" lon="11.349061"><ele>350.0</ele><time>2026-03-28T08:59:40.945Z</time></trkpt><trkpt lat="43.6797865" lon="11.3490607"><ele>346.0</ele><time>2026-03-28T08:59:41.945Z</time></trkpt><trkpt lat="43.6796942" lon="11.3490621"><ele>342.0</ele><time>2026-03-28T08:59:42.943Z</time></trkpt><trkpt lat="43.6796051" lon="11.3490706"><ele>342.0</ele><time>2026-03-28T08:59:43.945Z</time></trkpt><trkpt lat="43.679523" lon="11.3490818"><ele>342.0</ele><time>2026-03-28T08:59:44.943Z</time></trkpt><trkpt lat="43.6794415" lon="11.3490814"><ele>342.0</ele><time>2026-03-28T08:59:45.944Z</time></trkpt><trkpt lat="43.679354" lon="11.3490757"><ele>342.0</ele><time>2026-03-28T08:59:46.944Z</time></trkpt><trkpt lat="43.6792712" lon="11.3490719"><ele>342.0</ele><time>2026-03-28T08:59:47.943Z</time></trkpt><trkpt lat="43.6791873" lon="11.3490468"><ele>342.0</ele><time>2026-03-28T08:59:48.944Z</time></trkpt><trkpt lat="43.6791071" lon="11.3490073"><ele>339.6</ele><time>2026-03-28T08:59:49.942Z</time></trkpt><trkpt lat="43.6790271" lon="11.3489479"><ele>337.20000000000005</ele><time>2026-03-28T08:59:50.943Z</time></trkpt><trkpt lat="43.6789374" lon="11.348869"><ele>334.8</ele><time>2026-03-28T08:59:51.943Z</time></trkpt><trkpt lat="43.6788405" lon="11.3487922"><ele>332.4</ele><time>2026-03-28T08:59:52.945Z</time></trkpt><trkpt lat="43.6787375" lon="11.348714"><ele>330.0</ele><time>2026-03-28T08:59:53.943Z</time></trkpt><trkpt lat="43.6786432" lon="11.3486303"><ele>326.8</ele><time>2026-03-28T08:59:54.943Z</time></trkpt><trkpt lat="43.6785475" lon="11.3485492"><ele>323.6</ele><time>2026-03-28T08:59:55.943Z</time></trkpt><trkpt lat="43.6784527" lon="11.3484764"><ele>320.4</ele><time>2026-03-28T08:59:56.945Z</time></trkpt><trkpt lat="43.6783607" lon="11.3484186"><ele>317.2</ele><time>2026-03-28T08:59:57.944Z</time></trkpt><trkpt lat="43.678264" lon="11.3483757"><ele>314.0</ele><time>2026-03-28T08:59:58.943Z</time></trkpt><trkpt lat="43.6781551" lon="11.3483368"><ele>314.0</ele><time>2026-03-28T08:59:59.945Z</time></trkpt><trkpt lat="43.6780422" lon="11.3483116"><ele>314.0</ele><time>2026-03-28T09:00:00.944Z</time></trkpt><trkpt lat="43.6779386" lon="11.3482916"><ele>314.0</ele><time>2026-03-28T09:00:01.945Z</time></trkpt><trkpt lat="43.6778409" lon="11.3482712"><ele>314.0</ele><time>2026-03-28T09:00:02.943Z</time></trkpt><trkpt lat="43.6777466" lon="11.348247"><ele>314.0</ele><time>2026-03-28T09:00:03.945Z</time></trkpt><trkpt lat="43.6776513" lon="11.3482165"><ele>313.33333333333337</ele><time>2026-03-28T09:00:04.944Z</time></trkpt><trkpt lat="43.6775506" lon="11.3481887"><ele>312.6666666666667</ele><time>2026-03-28T09:00:05.944Z</time></trkpt><trkpt lat="43.6774636" lon="11.3481675"><ele>312.0</ele><time>2026-03-28T09:00:06.943Z</time></trkpt><trkpt lat="43.677378" lon="11.3481554"><ele>311.3333333333333</ele><time>2026-03-28T09:00:07.944Z</time></trkpt><trkpt lat="43.6772942" lon="11.3481484"><ele>310.66666666666663</ele><time>2026-03-28T09:00:08.944Z</time></trkpt><trkpt lat="43.6772077" lon="11.3481337"><ele>310.0</ele><time>2026-03-28T09:00:09.943Z</time></trkpt><trkpt lat="43.6771304" lon="11.3481108"><ele>310.0</ele><time>2026-03-28T09:00:10.944Z</time></trkpt><trkpt lat="43.6770581" lon="11.3480726"><ele>310.0</ele><time>2026-03-28T09:00:11.945Z</time></trkpt><trkpt lat="43.676991" lon="11.3480256"><ele>310.0</ele><time>2026-03-28T09:00:12.944Z</time></trkpt><trkpt lat="43.6769293" lon="11.3479758"><ele>310.0</ele><time>2026-03-28T09:00:13.943Z</time></trkpt><trkpt lat="43.6768674" lon="11.3479445"><ele>310.0</ele><time>2026-03-28T09:00:14.944Z</time></trkpt><trkpt lat="43.6767983" lon="11.3479249"><ele>310.0</ele><time>2026-03-28T09:00:15.943Z</time></trkpt><trkpt lat="43.6767353" lon="11.3479168"><ele>310.0</ele><time>2026-03-28T09:00:16.944Z</time></trkpt><trkpt lat="43.67662" lon="11.347921"><ele>308.3333333333333</ele><time>2026-03-28T09:00:18.944Z</time></trkpt><trkpt lat="43.6765318" lon="11.3478959"><ele>306.66666666666663</ele><time>2026-03-28T09:00:20.943Z</time></trkpt><trkpt lat="43.6765071" lon="11.347799"><ele>305.0</ele><time>2026-03-28T09:00:22.943Z</time></trkpt><trkpt lat="43.6765502" lon="11.3477017"><ele>303.3333333333333</ele><time>2026-03-28T09:00:24.945Z</time></trkpt><trkpt lat="43.6766137" lon="11.3476121"><ele>301.6666666666667</ele><time>2026-03-28T09:00:26.944Z</time></trkpt><trkpt lat="43.6766981" lon="11.3475395"><ele>300.0</ele><time>2026-03-28T09:00:28.944Z</time></trkpt><trkpt lat="43.6767787" lon="11.3474833"><ele>300.0</ele><time>2026-03-28T09:00:30.945Z</time></trkpt><trkpt lat="43.6768157" lon="11.3473965"><ele>300.0</ele><time>2026-03-28T09:00:33.943Z</time></trkpt><trkpt lat="43.6767285" lon="11.3473947"><ele>300.0</ele><time>2026-03-28T09:00:36.945Z</time></trkpt><trkpt lat="43.6766624" lon="11.3474524"><ele>300.0</ele><time>2026-03-28T09:00:37.944Z</time></trkpt><trkpt lat="43.6765987" lon="11.3475146"><ele>300.0</ele><time>2026-03-28T09:00:38.945Z</time></trkpt><trkpt lat="43.6765369" lon="11.3475947"><ele>300.0</ele><time>2026-03-28T09:00:39.944Z</time></trkpt><trkpt lat="43.676477" lon="11.3476895"><ele>300.0</ele><time>2026-03-28T09:00:40.945Z</time></trkpt><trkpt lat="43.6764266" lon="11.3477841"><ele>300.0</ele><time>2026-03-28T09:00:41.944Z</time></trkpt><trkpt lat="43.6763781" lon="11.3478808"><ele>300.0</ele><time>2026-03-28T09:00:42.944Z</time></trkpt><trkpt lat="43.6763264" lon="11.347984"><ele>300.0</ele><time>2026-03-28T09:00:43.943Z</time></trkpt><trkpt lat="43.6762862" lon="11.3481179"><ele>300.0</ele><time>2026-03-28T09:00:44.943Z</time></trkpt><trkpt lat="43.6762604" lon="11.3482623"><ele>300.25</ele><time>2026-03-28T09:00:45.942Z</time></trkpt><trkpt lat="43.6762454" lon="11.3484152"><ele>300.5</ele><time>2026-03-28T09:00:46.944Z</time></trkpt><trkpt lat="43.6762474" lon="11.3485741"><ele>300.75</ele><time>2026-03-28T09:00:47.943Z</time></trkpt><trkpt lat="43.6762703" lon="11.3487439"><ele>301.0</ele><time>2026-03-28T09:00:48.945Z</time></trkpt><trkpt lat="43.6763048" lon="11.34891"><ele>298.75</ele><time>2026-03-28T09:00:49.944Z</time></trkpt><trkpt lat="43.6763433" lon="11.3490647"><ele>296.5</ele><time>2026-03-28T09:00:50.944Z</time></trkpt><trkpt lat="43.676386" lon="11.3492156"><ele>294.25</ele><time>2026-03-28T09:00:51.945Z</time></trkpt><trkpt lat="43.6764361" lon="11.3493468"><ele>292.0</ele><time>2026-03-28T09:00:52.943Z</time></trkpt><trkpt lat="43.676502" lon="11.3494691"><ele>292.0</ele><time>2026-03-28T09:00:53.944Z</time></trkpt><trkpt lat="43.6765738" lon="11.3495873"><ele>292.0</ele><time>2026-03-28T09:00:54.943Z</time></trkpt><trkpt lat="43.6766676" lon="11.3496865"><ele>292.0</ele><time>2026-03-28T09:00:55.943Z</time></trkpt><trkpt lat="43.6767512" lon="11.3497878"><ele>292.0</ele><time>2026-03-28T09:00:56.945Z</time></trkpt><trkpt lat="43.6768358" lon="11.3498869"><ele>291.0</ele><time>2026-03-28T09:00:57.945Z</time></trkpt><trkpt lat="43.6769178" lon="11.3499809"><ele>290.0</ele><time>2026-03-28T09:00:58.944Z</time></trkpt><trkpt lat="43.6769787" lon="11.3500917"><ele>289.0</ele><time>2026-03-28T09:00:59.943Z</time></trkpt><trkpt lat="43.6770096" lon="11.3502213"><ele>288.0</ele><time>2026-03-28T09:01:00.943Z</time></trkpt><trkpt lat="43.6770018" lon="11.3503652"><ele>287.0</ele><time>2026-03-28T09:01:01.943Z</time></trkpt><trkpt lat="43.676936" lon="11.3504889"><ele>283.5</ele><time>2026-03-28T09:01:02.944Z</time></trkpt><trkpt lat="43.6768371" lon="11.3506002"><ele>280.0</ele><time>2026-03-28T09:01:03.944Z</time></trkpt><trkpt lat="43.6767149" lon="11.3507176"><ele>276.5</ele><time>2026-03-28T09:01:04.945Z</time></trkpt><trkpt lat="43.6765879" lon="11.3508419"><ele>273.0</ele><time>2026-03-28T09:01:05.943Z</time></trkpt><trkpt lat="43.676467" lon="11.3509584"><ele>273.0</ele><time>2026-03-28T09:01:06.944Z</time></trkpt><trkpt lat="43.6763495" lon="11.3510679"><ele>273.0</ele><time>2026-03-28T09:01:07.944Z</time></trkpt><trkpt lat="43.6762368" lon="11.3511653"><ele>273.0</ele><time>2026-03-28T09:01:08.943Z</time></trkpt><trkpt lat="43.6761517" lon="11.3512289"><ele>273.0</ele><time>2026-03-28T09:01:09.944Z</time></trkpt><trkpt lat="43.6760617" lon="11.3512759"><ele>271.1666666666667</ele><time>2026-03-28T09:01:10.944Z</time></trkpt><trkpt lat="43.6759814" lon="11.3512705"><ele>269.3333333333333</ele><time>2026-03-28T09:01:11.943Z</time></trkpt><trkpt lat="43.6759123" lon="11.3512382"><ele>267.5</ele><time>2026-03-28T09:01:12.944Z</time></trkpt><trkpt lat="43.6759094" lon="11.3511277"><ele>265.66666666666663</ele><time>2026-03-28T09:01:13.942Z</time></trkpt><trkpt lat="43.6759379" lon="11.3510404"><ele>263.8333333333333</ele><time>2026-03-28T09:01:14.945Z</time></trkpt><trkpt lat="43.6760021" lon="11.3509484"><ele>262.0</ele><time>2026-03-28T09:01:15.944Z</time></trkpt><trkpt lat="43.6760755" lon="11.3508672"><ele>262.0</ele><time>2026-03-28T09:01:16.943Z</time></trkpt><trkpt lat="43.6761257" lon="11.3507817"><ele>262.0</ele><time>2026-03-28T09:01:17.945Z</time></trkpt><trkpt lat="43.6761365" lon="11.3506922"><ele>262.0</ele><time>2026-03-28T09:01:18.944Z</time></trkpt><trkpt lat="43.6760438" lon="11.3505612"><ele>262.0</ele><time>2026-03-28T09:01:20.943Z</time></trkpt><trkpt lat="43.6759632" lon="11.3505692"><ele>262.0</ele><time>2026-03-28T09:01:21.944Z</time></trkpt><trkpt lat="43.675869" lon="11.3506264"><ele>262.0</ele><time>2026-03-28T09:01:22.944Z</time></trkpt><trkpt lat="43.6757838" lon="11.3507035"><ele>262.0</ele><time>2026-03-28T09:01:23.945Z</time></trkpt><trkpt lat="43.6756999" lon="11.3507703"><ele>262.0</ele><time>2026-03-28T09:01:24.943Z</time></trkpt><trkpt lat="43.6756213" lon="11.350839"><ele>262.0</ele><time>2026-03-28T09:01:25.943Z</time></trkpt><trkpt lat="43.6755355" lon="11.3509126"><ele>262.0</ele><time>2026-03-28T09:01:26.945Z</time></trkpt><trkpt lat="43.6754427" lon="11.3509942"><ele>262.0</ele><time>2026-03-28T09:01:27.945Z</time></trkpt><trkpt lat="43.6753521" lon="11.3510824"><ele>262.0</ele><time>2026-03-28T09:01:28.944Z</time></trkpt><trkpt lat="43.6752593" lon="11.351176"><ele>262.0</ele><time>2026-03-28T09:01:29.944Z</time></trkpt><trkpt lat="43.6751599" lon="11.3512666"><ele>262.0</ele><time>2026-03-28T09:01:30.945Z</time></trkpt><trkpt lat="43.6750571" lon="11.3513602"><ele>260.25</ele><time>2026-03-28T09:01:31.945Z</time></trkpt><trkpt lat="43.6749546" lon="11.3514515"><ele>258.5</ele><time>2026-03-28T09:01:32.945Z</time></trkpt><trkpt lat="43.6748518" lon="11.351544"><ele>256.75</ele><time>2026-03-28T09:01:33.943Z</time></trkpt><trkpt lat="43.6747519" lon="11.3516359"><ele>255.0</ele><time>2026-03-28T09:01:34.943Z</time></trkpt><trkpt lat="43.6746481" lon="11.3517276"><ele>255.0</ele><time>2026-03-28T09:01:35.944Z</time></trkpt><trkpt lat="43.6745401" lon="11.3518232"><ele>255.0</ele><time>2026-03-28T09:01:36.944Z</time></trkpt><trkpt lat="43.674426" lon="11.3519224"><ele>255.0</ele><time>2026-03-28T09:01:37.945Z</time></trkpt><trkpt lat="43.6743057" lon="11.3520241"><ele>255.0</ele><time>2026-03-28T09:01:38.943Z</time></trkpt><trkpt lat="43.6741813" lon="11.3521327"><ele>253.66666666666669</ele><time>2026-03-28T09:01:39.945Z</time></trkpt><trkpt lat="43.6740542" lon="11.3522349"><ele>252.33333333333334</ele><time>2026-03-28T09:01:40.944Z</time></trkpt><trkpt lat="43.6739239" lon="11.3523355"><ele>251.0</ele><time>2026-03-28T09:01:41.943Z</time></trkpt><trkpt lat="43.673787" lon="11.352444"><ele>251.0</ele><time>2026-03-28T09:01:42.945Z</time></trkpt><trkpt lat="43.6736498" lon="11.3525574"><ele>251.0</ele><time>2026-03-28T09:01:43.944Z</time></trkpt><trkpt lat="43.6735203" lon="11.3526764"><ele>251.0</ele><time>2026-03-28T09:01:44.944Z</time></trkpt><trkpt lat="43.6733948" lon="11.3528001"><ele>250.0</ele><time>2026-03-28T09:01:45.945Z</time></trkpt><trkpt lat="43.6732638" lon="11.3529298"><ele>249.0</ele><time>2026-03-28T09:01:46.943Z</time></trkpt><trkpt lat="43.6731296" lon="11.3530657"><ele>248.0</ele><time>2026-03-28T09:01:47.943Z</time></trkpt><trkpt lat="43.6729906" lon="11.353203"><ele>248.0</ele><time>2026-03-28T09:01:48.945Z</time></trkpt><trkpt lat="43.6728477" lon="11.3533443"><ele>248.0</ele><time>2026-03-28T09:01:49.944Z</time></trkpt><trkpt lat="43.6727106" lon="11.3534837"><ele>248.0</ele><time>2026-03-28T09:01:50.944Z</time></trkpt><trkpt lat="43.6725778" lon="11.3536189"><ele>245.5</ele><time>2026-03-28T09:01:51.945Z</time></trkpt><trkpt lat="43.6724541" lon="11.3537467"><ele>243.0</ele><time>2026-03-28T09:01:52.943Z</time></trkpt><trkpt lat="43.6723334" lon="11.3538647"><ele>240.5</ele><time>2026-03-28T09:01:53.943Z</time></trkpt><trkpt lat="43.6722231" lon="11.3539768"><ele>238.0</ele><time>2026-03-28T09:01:54.943Z</time></trkpt><trkpt lat="43.6721139" lon="11.3540912"><ele>238.0</ele><time>2026-03-28T09:01:55.944Z</time></trkpt><trkpt lat="43.6720326" lon="11.3541917"><ele>238.0</ele><time>2026-03-28T09:01:56.945Z</time></trkpt><trkpt lat="43.671944" lon="11.3543002"><ele>238.0</ele><time>2026-03-28T09:01:57.943Z</time></trkpt><trkpt lat="43.6718649" lon="11.3543982"><ele>238.0</ele><time>2026-03-28T09:01:58.944Z</time></trkpt><trkpt lat="43.6717931" lon="11.354499"><ele>238.0</ele><time>2026-03-28T09:01:59.944Z</time></trkpt><trkpt lat="43.6717285" lon="11.3545894"><ele>236.66666666666666</ele><time>2026-03-28T09:02:00.944Z</time></trkpt><trkpt lat="43.6716626" lon="11.3546566"><ele>235.33333333333331</ele><time>2026-03-28T09:02:01.944Z</time></trkpt><trkpt lat="43.6715633" lon="11.3547007"><ele>234.0</ele><time>2026-03-28T09:02:03.944Z</time></trkpt><trkpt lat="43.671498" lon="11.354662"><ele>232.66666666666669</ele><time>2026-03-28T09:02:05.944Z</time></trkpt><trkpt lat="43.6714556" lon="11.3545973"><ele>231.33333333333334</ele><time>2026-03-28T09:02:07.944Z</time></trkpt><trkpt lat="43.6714679" lon="11.3545058"><ele>230.0</ele><time>2026-03-28T09:02:09.944Z</time></trkpt><trkpt lat="43.6715307" lon="11.3544684"><ele>230.00000000000003</ele><time>2026-03-28T09:02:12.944Z</time></trkpt><trkpt lat="43.6714954" lon="11.3545475"><ele>230.0</ele><time>2026-03-28T09:02:17.943Z</time></trkpt><trkpt lat="43.6714429" lon="11.3546089"><ele>230.0</ele><time>2026-03-28T09:02:20.943Z</time></trkpt><trkpt lat="43.6715081" lon="11.3547082"><ele>230.0</ele><time>2026-03-28T09:02:22.944Z</time></trkpt><trkpt lat="43.6716026" lon="11.3547709"><ele>230.00000000000003</ele><time>2026-03-28T09:02:24.944Z</time></trkpt><trkpt lat="43.6716797" lon="11.3547055"><ele>230.0</ele><time>2026-03-28T09:02:27.944Z</time></trkpt><trkpt lat="43.6717011" lon="11.3545527"><ele>230.00000000000003</ele><time>2026-03-28T09:02:29.944Z</time></trkpt><trkpt lat="43.6716914" lon="11.3544331"><ele>230.0</ele><time>2026-03-28T09:02:31.943Z</time></trkpt><trkpt lat="43.6717524" lon="11.3543388"><ele>230.0</ele><time>2026-03-28T09:06:36.944Z</time></trkpt><trkpt lat="43.6718087" lon="11.3542944"><ele>230.0</ele><time>2026-03-28T09:06:38.944Z</time></trkpt><trkpt lat="43.6718717" lon="11.3543196"><ele>230.00000000000003</ele><time>2026-03-28T09:06:40.945Z</time></trkpt><trkpt lat="43.6718884" lon="11.3544076"><ele>230.0</ele><time>2026-03-28T09:07:03.945Z</time></trkpt><trkpt lat="43.6718215" lon="11.3545242"><ele>230.00000000000003</ele><time>2026-03-28T09:07:06.945Z</time></trkpt><trkpt lat="43.6717322" lon="11.3546354"><ele>230.0</ele><time>2026-03-28T09:07:08.944Z</time></trkpt><trkpt lat="43.6716683" lon="11.3546803"><ele>230.0</ele><time>2026-03-28T09:07:09.944Z</time></trkpt><trkpt lat="43.6716022" lon="11.3546924"><ele>230.0</ele><time>2026-03-28T09:07:10.945Z</time></trkpt><trkpt lat="43.6715404" lon="11.3546678"><ele>230.00000000000003</ele><time>2026-03-28T09:07:11.944Z</time></trkpt><trkpt lat="43.6714839" lon="11.3546029"><ele>230.0</ele><time>2026-03-28T09:07:12.945Z</time></trkpt><trkpt lat="43.6714192" lon="11.3545255"><ele>230.0</ele><time>2026-03-28T09:07:13.943Z</time></trkpt><trkpt lat="43.6713457" lon="11.354431"><ele>230.0</ele><time>2026-03-28T09:07:14.943Z</time></trkpt><trkpt lat="43.671271" lon="11.354334"><ele>230.0</ele><time>2026-03-28T09:07:15.943Z</time></trkpt><trkpt lat="43.6711865" lon="11.3542242"><ele>230.0</ele><time>2026-03-28T09:07:16.945Z</time></trkpt><trkpt lat="43.6710887" lon="11.3541131"><ele>230.0</ele><time>2026-03-28T09:07:17.943Z</time></trkpt><trkpt lat="43.670993" lon="11.353993"><ele>231.0</ele><time>2026-03-28T09:07:18.945Z</time></trkpt><trkpt lat="43.6708825" lon="11.3538562"><ele>232.0</ele><time>2026-03-28T09:07:19.945Z</time></trkpt><trkpt lat="43.6707712" lon="11.3537181"><ele>233.0</ele><time>2026-03-28T09:07:20.945Z</time></trkpt><trkpt lat="43.6706526" lon="11.3535708"><ele>233.0</ele><time>2026-03-28T09:07:21.944Z</time></trkpt><trkpt lat="43.6705249" lon="11.353411"><ele>233.0</ele><time>2026-03-28T09:07:22.944Z</time></trkpt><trkpt lat="43.6703874" lon="11.3532533"><ele>233.0</ele><time>2026-03-28T09:07:23.944Z</time></trkpt><trkpt lat="43.6702605" lon="11.3530989"><ele>237.0</ele><time>2026-03-28T09:07:24.944Z</time></trkpt><trkpt lat="43.6701348" lon="11.3529661"><ele>241.0</ele><time>2026-03-28T09:07:25.945Z</time></trkpt><trkpt lat="43.6700132" lon="11.352869"><ele>245.0</ele><time>2026-03-28T09:07:26.944Z</time></trkpt><trkpt lat="43.669894" lon="11.3528007"><ele>249.0</ele><time>2026-03-28T09:07:27.945Z</time></trkpt><trkpt lat="43.6697585" lon="11.3527853"><ele>249.0</ele><time>2026-03-28T09:07:28.944Z</time></trkpt><trkpt lat="43.6696077" lon="11.3528154"><ele>249.0</ele><time>2026-03-28T09:07:29.945Z</time></trkpt><trkpt lat="43.6694402" lon="11.352875"><ele>249.0</ele><time>2026-03-28T09:07:30.943Z</time></trkpt><trkpt lat="43.6692718" lon="11.3529507"><ele>243.66666666666669</ele><time>2026-03-28T09:07:31.944Z</time></trkpt><trkpt lat="43.6690981" lon="11.3530484"><ele>238.33333333333334</ele><time>2026-03-28T09:07:32.945Z</time></trkpt><trkpt lat="43.6689173" lon="11.3531519"><ele>233.0</ele><time>2026-03-28T09:07:33.945Z</time></trkpt><trkpt lat="43.6687391" lon="11.3532476"><ele>234.33333333333334</ele><time>2026-03-28T09:07:34.943Z</time></trkpt><trkpt lat="43.6685742" lon="11.3533227"><ele>235.66666666666669</ele><time>2026-03-28T09:07:35.944Z</time></trkpt><trkpt lat="43.6684221" lon="11.3533567"><ele>237.0</ele><time>2026-03-28T09:07:36.944Z</time></trkpt><trkpt lat="43.6682885" lon="11.3533483"><ele>237.0</ele><time>2026-03-28T09:07:37.945Z</time></trkpt><trkpt lat="43.6681741" lon="11.3532869"><ele>237.0</ele><time>2026-03-28T09:07:38.943Z</time></trkpt><trkpt lat="43.6680865" lon="11.3531736"><ele>237.0</ele><time>2026-03-28T09:07:39.944Z</time></trkpt><trkpt lat="43.6680123" lon="11.353011"><ele>237.0</ele><time>2026-03-28T09:07:40.944Z</time></trkpt><trkpt lat="43.6679413" lon="11.352815"><ele>237.75</ele><time>2026-03-28T09:07:41.943Z</time></trkpt><trkpt lat="43.6678696" lon="11.3526238"><ele>238.5</ele><time>2026-03-28T09:07:42.943Z</time></trkpt><trkpt lat="43.667811" lon="11.3524578"><ele>239.25</ele><time>2026-03-28T09:07:43.944Z</time></trkpt><trkpt lat="43.6677797" lon="11.3523047"><ele>240.0</ele><time>2026-03-28T09:07:44.943Z</time></trkpt><trkpt lat="43.6677843" lon="11.3521666"><ele>237.25</ele><time>2026-03-28T09:07:45.944Z</time></trkpt><trkpt lat="43.6678381" lon="11.3520501"><ele>234.5</ele><time>2026-03-28T09:07:46.944Z</time></trkpt><trkpt lat="43.6679241" lon="11.3519675"><ele>231.75</ele><time>2026-03-28T09:07:47.943Z</time></trkpt><trkpt lat="43.6680413" lon="11.3519223"><ele>229.0</ele><time>2026-03-28T09:07:48.943Z</time></trkpt><trkpt lat="43.6681658" lon="11.3518705"><ele>229.0</ele><time>2026-03-28T09:07:49.944Z</time></trkpt><trkpt lat="43.6682766" lon="11.3517746"><ele>229.0</ele><time>2026-03-28T09:07:50.945Z</time></trkpt><trkpt lat="43.6683664" lon="11.3516372"><ele>229.0</ele><time>2026-03-28T09:07:51.944Z</time></trkpt><trkpt lat="43.6684329" lon="11.3514569"><ele>229.0</ele><time>2026-03-28T09:07:52.945Z</time></trkpt><trkpt lat="43.6684821" lon="11.3512437"><ele>226.66666666666666</ele><time>2026-03-28T09:07:53.945Z</time></trkpt><trkpt lat="43.6685279" lon="11.3510282"><ele>224.33333333333331</ele><time>2026-03-28T09:07:54.944Z</time></trkpt><trkpt lat="43.6685983" lon="11.3508196"><ele>222.0</ele><time>2026-03-28T09:07:55.942Z</time></trkpt><trkpt lat="43.668699" lon="11.3506118"><ele>225.0</ele><time>2026-03-28T09:07:56.944Z</time></trkpt><trkpt lat="43.6688146" lon="11.3504156"><ele>228.0</ele><time>2026-03-28T09:07:57.944Z</time></trkpt><trkpt lat="43.6689527" lon="11.3502282"><ele>231.0</ele><time>2026-03-28T09:07:58.942Z</time></trkpt><trkpt lat="43.6691176" lon="11.3500411"><ele>231.0</ele><time>2026-03-28T09:07:59.944Z</time></trkpt><trkpt lat="43.6692776" lon="11.3498566"><ele>231.0</ele><time>2026-03-28T09:08:00.944Z</time></trkpt><trkpt lat="43.6694316" lon="11.3496827"><ele>231.0</ele><time>2026-03-28T09:08:01.945Z</time></trkpt><trkpt lat="43.669568" lon="11.3495157"><ele>236.66666666666669</ele><time>2026-03-28T09:08:02.943Z</time></trkpt><trkpt lat="43.6696858" lon="11.3493386"><ele>242.33333333333334</ele><time>2026-03-28T09:08:03.944Z</time></trkpt><trkpt lat="43.6697766" lon="11.3491529"><ele>248.0</ele><time>2026-03-28T09:08:04.944Z</time></trkpt><trkpt lat="43.6698371" lon="11.3489584"><ele>247.25</ele><time>2026-03-28T09:08:05.944Z</time></trkpt><trkpt lat="43.6698722" lon="11.3487681"><ele>246.5</ele><time>2026-03-28T09:08:06.944Z</time></trkpt><trkpt lat="43.6698769" lon="11.3485871"><ele>245.75</ele><time>2026-03-28T09:08:07.943Z</time></trkpt><trkpt lat="43.6698375" lon="11.3484269"><ele>245.0</ele><time>2026-03-28T09:08:08.945Z</time></trkpt><trkpt lat="43.6697669" lon="11.348285"><ele>245.0</ele><time>2026-03-28T09:08:09.943Z</time></trkpt><trkpt lat="43.6696631" lon="11.3481666"><ele>245.0</ele><time>2026-03-28T09:08:10.943Z</time></trkpt><trkpt lat="43.6695363" lon="11.3480547"><ele>245.0</ele><time>2026-03-28T09:08:11.944Z</time></trkpt><trkpt lat="43.6693919" lon="11.3479489"><ele>245.0</ele><time>2026-03-28T09:08:12.944Z</time></trkpt><trkpt lat="43.669252" lon="11.3478575"><ele>242.0</ele><time>2026-03-28T09:08:13.944Z</time></trkpt><trkpt lat="43.6691158" lon="11.3477946"><ele>239.0</ele><time>2026-03-28T09:08:14.944Z</time></trkpt><trkpt lat="43.668999" lon="11.3477224"><ele>236.0</ele><time>2026-03-28T09:08:15.942Z</time></trkpt><trkpt lat="43.6689023" lon="11.3476265"><ele>233.0</ele><time>2026-03-28T09:08:16.944Z</time></trkpt><trkpt lat="43.6688412" lon="11.3474989"><ele>233.0</ele><time>2026-03-28T09:08:17.943Z</time></trkpt><trkpt lat="43.6688119" lon="11.3473377"><ele>233.0</ele><time>2026-03-28T09:08:18.942Z</time></trkpt><trkpt lat="43.6687999" lon="11.3471495"><ele>233.0</ele><time>2026-03-28T09:08:19.944Z</time></trkpt><trkpt lat="43.6687858" lon="11.3469315"><ele>233.0</ele><time>2026-03-28T09:08:20.945Z</time></trkpt><trkpt lat="43.6687695" lon="11.3467041"><ele>237.66666666666669</ele><time>2026-03-28T09:08:21.944Z</time></trkpt><trkpt lat="43.6687427" lon="11.3464558"><ele>242.33333333333331</ele><time>2026-03-28T09:08:22.943Z</time></trkpt><trkpt lat="43.6687078" lon="11.3461943"><ele>247.0</ele><time>2026-03-28T09:08:23.943Z</time></trkpt><trkpt lat="43.6686694" lon="11.3459246"><ele>248.33333333333331</ele><time>2026-03-28T09:08:24.944Z</time></trkpt><trkpt lat="43.668634" lon="11.3456501"><ele>249.66666666666669</ele><time>2026-03-28T09:08:25.943Z</time></trkpt><trkpt lat="43.6685993" lon="11.3453788"><ele>251.0</ele><time>2026-03-28T09:08:26.944Z</time></trkpt><trkpt lat="43.6685943" lon="11.3451013"><ele>246.33333333333334</ele><time>2026-03-28T09:08:27.942Z</time></trkpt><trkpt lat="43.6685996" lon="11.3448137"><ele>241.66666666666669</ele><time>2026-03-28T09:08:28.942Z</time></trkpt><trkpt lat="43.6686129" lon="11.3445477"><ele>237.0</ele><time>2026-03-28T09:08:29.944Z</time></trkpt><trkpt lat="43.6686108" lon="11.3442914"><ele>227.66666666666669</ele><time>2026-03-28T09:08:30.943Z</time></trkpt><trkpt lat="43.6685918" lon="11.3440519"><ele>218.33333333333334</ele><time>2026-03-28T09:08:31.944Z</time></trkpt><trkpt lat="43.6685735" lon="11.3438504"><ele>209.0</ele><time>2026-03-28T09:08:32.943Z</time></trkpt><trkpt lat="43.6685674" lon="11.3436612"><ele>208.25</ele><time>2026-03-28T09:08:33.943Z</time></trkpt><trkpt lat="43.6686045" lon="11.3434774"><ele>207.5</ele><time>2026-03-28T09:08:34.944Z</time></trkpt><trkpt lat="43.6686599" lon="11.3432873"><ele>206.75</ele><time>2026-03-28T09:08:35.943Z</time></trkpt><trkpt lat="43.6687215" lon="11.3430802"><ele>206.0</ele><time>2026-03-28T09:08:36.944Z</time></trkpt><trkpt lat="43.6687752" lon="11.3428777"><ele>213.0</ele><time>2026-03-28T09:08:37.944Z</time></trkpt><trkpt lat="43.6688075" lon="11.3426516"><ele>220.0</ele><time>2026-03-28T09:08:38.944Z</time></trkpt><trkpt lat="43.6688138" lon="11.3424129"><ele>227.0</ele><time>2026-03-28T09:08:39.945Z</time></trkpt><trkpt lat="43.6688007" lon="11.3421548"><ele>227.0</ele><time>2026-03-28T09:08:40.943Z</time></trkpt><trkpt lat="43.6687702" lon="11.3418831"><ele>227.0</ele><time>2026-03-28T09:08:41.944Z</time></trkpt><trkpt lat="43.6687253" lon="11.3416085"><ele>227.0</ele><time>2026-03-28T09:08:42.944Z</time></trkpt><trkpt lat="43.6686868" lon="11.3413313"><ele>231.66666666666669</ele><time>2026-03-28T09:08:43.944Z</time></trkpt><trkpt lat="43.6686423" lon="11.3410661"><ele>236.33333333333331</ele><time>2026-03-28T09:08:44.944Z</time></trkpt><trkpt lat="43.6685759" lon="11.3408101"><ele>241.0</ele><time>2026-03-28T09:08:45.944Z</time></trkpt><trkpt lat="43.6684818" lon="11.3405744"><ele>234.33333333333331</ele><time>2026-03-28T09:08:46.944Z</time></trkpt><trkpt lat="43.6683718" lon="11.3403525"><ele>227.66666666666669</ele><time>2026-03-28T09:08:47.945Z</time></trkpt><trkpt lat="43.6682337" lon="11.3401513"><ele>221.0</ele><time>2026-03-28T09:08:48.943Z</time></trkpt><trkpt lat="43.6680926" lon="11.3399735"><ele>221.0</ele><time>2026-03-28T09:08:49.944Z</time></trkpt><trkpt lat="43.6679595" lon="11.3397989"><ele>221.0</ele><time>2026-03-28T09:08:50.945Z</time></trkpt><trkpt lat="43.6678458" lon="11.3396228"><ele>221.0</ele><time>2026-03-28T09:08:51.945Z</time></trkpt><trkpt lat="43.6677589" lon="11.3394423"><ele>213.33333333333334</ele><time>2026-03-28T09:08:52.945Z</time></trkpt><trkpt lat="43.6676966" lon="11.3392556"><ele>205.66666666666669</ele><time>2026-03-28T09:08:53.944Z</time></trkpt><trkpt lat="43.6676712" lon="11.3390437"><ele>198.0</ele><time>2026-03-28T09:08:54.943Z</time></trkpt><trkpt lat="43.6676589" lon="11.3388181"><ele>197.66666666666669</ele><time>2026-03-28T09:08:55.943Z</time></trkpt><trkpt lat="43.6676609" lon="11.338578"><ele>197.33333333333334</ele><time>2026-03-28T09:08:56.943Z</time></trkpt><trkpt lat="43.6676607" lon="11.338342"><ele>197.0</ele><time>2026-03-28T09:08:57.943Z</time></trkpt><trkpt lat="43.6676915" lon="11.3381213"><ele>194.33333333333334</ele><time>2026-03-28T09:08:58.944Z</time></trkpt><trkpt lat="43.6677457" lon="11.3378928"><ele>191.66666666666669</ele><time>2026-03-28T09:08:59.944Z</time></trkpt><trkpt lat="43.667828" lon="11.3376648"><ele>189.0</ele><time>2026-03-28T09:09:00.944Z</time></trkpt><trkpt lat="43.6679176" lon="11.3374437"><ele>198.0</ele><time>2026-03-28T09:09:01.943Z</time></trkpt><trkpt lat="43.6679938" lon="11.3372368"><ele>207.0</ele><time>2026-03-28T09:09:02.943Z</time></trkpt><trkpt lat="43.6680478" lon="11.3370262"><ele>216.0</ele><time>2026-03-28T09:09:03.945Z</time></trkpt><trkpt lat="43.6680678" lon="11.3368031"><ele>216.0</ele><time>2026-03-28T09:09:04.944Z</time></trkpt><trkpt lat="43.6680604" lon="11.336557"><ele>216.0</ele><time>2026-03-28T09:09:05.943Z</time></trkpt><trkpt lat="43.6680372" lon="11.3362961"><ele>216.0</ele><time>2026-03-28T09:09:06.943Z</time></trkpt><trkpt lat="43.6679949" lon="11.3360291"><ele>216.66666666666669</ele><time>2026-03-28T09:09:07.943Z</time></trkpt><trkpt lat="43.6679242" lon="11.3357536"><ele>217.33333333333334</ele><time>2026-03-28T09:09:08.944Z</time></trkpt><trkpt lat="43.6678478" lon="11.335501"><ele>218.0</ele><time>2026-03-28T09:09:09.944Z</time></trkpt><trkpt lat="43.6677561" lon="11.3352665"><ele>209.25</ele><time>2026-03-28T09:09:10.944Z</time></trkpt><trkpt lat="43.6676708" lon="11.3350561"><ele>200.5</ele><time>2026-03-28T09:09:11.943Z</time></trkpt><trkpt lat="43.6676123" lon="11.3348795"><ele>191.75</ele><time>2026-03-28T09:09:12.945Z</time></trkpt><trkpt lat="43.667592" lon="11.3347335"><ele>183.0</ele><time>2026-03-28T09:09:13.944Z</time></trkpt><trkpt lat="43.6676131" lon="11.3345915"><ele>182.0</ele><time>2026-03-28T09:09:14.945Z</time></trkpt><trkpt lat="43.6676776" lon="11.3344438"><ele>181.0</ele><time>2026-03-28T09:09:15.945Z</time></trkpt><trkpt lat="43.667738" lon="11.334283"><ele>180.0</ele><time>2026-03-28T09:09:16.944Z</time></trkpt><trkpt lat="43.6677767" lon="11.3340891"><ele>179.0</ele><time>2026-03-28T09:09:17.942Z</time></trkpt><trkpt lat="43.6677833" lon="11.3338714"><ele>182.0</ele><time>2026-03-28T09:09:18.943Z</time></trkpt><trkpt lat="43.6677917" lon="11.3336586"><ele>185.0</ele><time>2026-03-28T09:09:19.945Z</time></trkpt><trkpt lat="43.6678297" lon="11.3334443"><ele>188.0</ele><time>2026-03-28T09:09:20.943Z</time></trkpt><trkpt lat="43.6678984" lon="11.333249"><ele>188.0</ele><time>2026-03-28T09:09:21.944Z</time></trkpt><trkpt lat="43.6680008" lon="11.3330893"><ele>188.0</ele><time>2026-03-28T09:09:22.944Z</time></trkpt><trkpt lat="43.6681348" lon="11.3329752"><ele>188.0</ele><time>2026-03-28T09:09:23.945Z</time></trkpt><trkpt lat="43.6682837" lon="11.3328727"><ele>186.33333333333331</ele><time>2026-03-28T09:09:24.944Z</time></trkpt><trkpt lat="43.6684535" lon="11.332799"><ele>184.66666666666666</ele><time>2026-03-28T09:09:25.943Z</time></trkpt><trkpt lat="43.668633" lon="11.3327316"><ele>183.0</ele><time>2026-03-28T09:09:26.943Z</time></trkpt><trkpt lat="43.6688003" lon="11.3326759"><ele>183.0</ele><time>2026-03-28T09:09:27.944Z</time></trkpt><trkpt lat="43.6689503" lon="11.3326229"><ele>183.0</ele><time>2026-03-28T09:09:28.943Z</time></trkpt><trkpt lat="43.6690811" lon="11.3325686"><ele>183.0</ele><time>2026-03-28T09:09:29.944Z</time></trkpt><trkpt lat="43.6692026" lon="11.3324862"><ele>183.0</ele><time>2026-03-28T09:09:30.945Z</time></trkpt><trkpt lat="43.6692964" lon="11.3323529"><ele>180.75</ele><time>2026-03-28T09:09:31.945Z</time></trkpt><trkpt lat="43.6693603" lon="11.3321879"><ele>178.5</ele><time>2026-03-28T09:09:32.944Z</time></trkpt><trkpt lat="43.6693869" lon="11.3320087"><ele>176.25</ele><time>2026-03-28T09:09:33.945Z</time></trkpt><trkpt lat="43.6693748" lon="11.3318285"><ele>174.0</ele><time>2026-03-28T09:09:34.943Z</time></trkpt><trkpt lat="43.6693232" lon="11.3316598"><ele>174.0</ele><time>2026-03-28T09:09:35.943Z</time></trkpt><trkpt lat="43.6692298" lon="11.3315338"><ele>174.0</ele><time>2026-03-28T09:09:36.943Z</time></trkpt><trkpt lat="43.6691099" lon="11.3314452"><ele>174.0</ele><time>2026-03-28T09:09:37.944Z</time></trkpt><trkpt lat="43.668955" lon="11.3314109"><ele>174.0</ele><time>2026-03-28T09:09:38.945Z</time></trkpt><trkpt lat="43.6687855" lon="11.3314028"><ele>174.66666666666666</ele><time>2026-03-28T09:09:39.944Z</time></trkpt><trkpt lat="43.6686158" lon="11.3313818"><ele>175.33333333333331</ele><time>2026-03-28T09:09:40.944Z</time></trkpt><trkpt lat="43.6684505" lon="11.3313343"><ele>176.0</ele><time>2026-03-28T09:09:41.944Z</time></trkpt><trkpt lat="43.6682853" lon="11.3312674"><ele>176.0</ele><time>2026-03-28T09:09:42.944Z</time></trkpt><trkpt lat="43.6681255" lon="11.3311651"><ele>176.0</ele><time>2026-03-28T09:09:43.945Z</time></trkpt><trkpt lat="43.667972" lon="11.3310187"><ele>176.0</ele><time>2026-03-28T09:09:44.944Z</time></trkpt><trkpt lat="43.6678164" lon="11.3308475"><ele>175.0</ele><time>2026-03-28T09:09:45.944Z</time></trkpt><trkpt lat="43.6676568" lon="11.3306711"><ele>174.0</ele><time>2026-03-28T09:09:46.944Z</time></trkpt><trkpt lat="43.6675037" lon="11.3304998"><ele>173.0</ele><time>2026-03-28T09:09:47.945Z</time></trkpt><trkpt lat="43.6673599" lon="11.3303478"><ele>173.0</ele><time>2026-03-28T09:09:48.944Z</time></trkpt><trkpt lat="43.6672281" lon="11.3302024"><ele>173.0</ele><time>2026-03-28T09:09:49.944Z</time></trkpt><trkpt lat="43.6671673" lon="11.3301058"><ele>173.0</ele><time>2026-03-28T09:09:50.944Z</time></trkpt><trkpt lat="43.6671146" lon="11.3300441"><ele>173.0</ele><time>2026-03-28T09:09:51.944Z</time></trkpt><trkpt lat="43.6670544" lon="11.3300937"><ele>173.0</ele><time>2026-03-28T09:09:54.944Z</time></trkpt><trkpt lat="43.6670608" lon="11.3301842"><ele>173.0</ele><time>2026-03-28T09:09:56.944Z</time></trkpt><trkpt lat="43.6670531" lon="11.3302887"><ele>173.0</ele><time>2026-03-28T09:09:58.945Z</time></trkpt><trkpt lat="43.6669837" lon="11.3303467"><ele>173.0</ele><time>2026-03-28T09:10:00.944Z</time></trkpt><trkpt lat="43.6668824" lon="11.3303597"><ele>173.0</ele><time>2026-03-28T09:10:02.944Z</time></trkpt><trkpt lat="43.6668172" lon="11.3303617"><ele>173.0</ele><time>2026-03-28T09:10:03.944Z</time></trkpt><trkpt lat="43.6666928" lon="11.3303511"><ele>173.0</ele><time>2026-03-28T09:10:05.944Z</time></trkpt><trkpt lat="43.6665873" lon="11.3303844"><ele>171.66666666666666</ele><time>2026-03-28T09:10:07.943Z</time></trkpt><trkpt lat="43.6665249" lon="11.3305223"><ele>170.33333333333331</ele><time>2026-03-28T09:10:09.943Z</time></trkpt><trkpt lat="43.6665036" lon="11.3306094"><ele>169.0</ele><time>2026-03-28T09:10:10.943Z</time></trkpt><trkpt lat="43.66648" lon="11.3307005"><ele>167.66666666666666</ele><time>2026-03-28T09:10:11.943Z</time></trkpt><trkpt lat="43.6664564" lon="11.3307959"><ele>166.33333333333334</ele><time>2026-03-28T09:10:12.944Z</time></trkpt><trkpt lat="43.6664405" lon="11.3308926"><ele>165.0</ele><time>2026-03-28T09:10:13.944Z</time></trkpt><trkpt lat="43.6664228" lon="11.3309857"><ele>165.0</ele><time>2026-03-28T09:10:14.944Z</time></trkpt><trkpt lat="43.6664053" lon="11.3310917"><ele>165.0</ele><time>2026-03-28T09:10:15.945Z</time></trkpt><trkpt lat="43.6663874" lon="11.3312046"><ele>165.0</ele><time>2026-03-28T09:10:16.943Z</time></trkpt><trkpt lat="43.6663854" lon="11.3313159"><ele>165.0</ele><time>2026-03-28T09:10:17.943Z</time></trkpt><trkpt lat="43.6663753" lon="11.3314242"><ele>165.0</ele><time>2026-03-28T09:10:18.944Z</time></trkpt><trkpt lat="43.6663436" lon="11.3315195"><ele>165.0</ele><time>2026-03-28T09:10:19.943Z</time></trkpt><trkpt lat="43.6662883" lon="11.3315829"><ele>165.5</ele><time>2026-03-28T09:10:20.944Z</time></trkpt><trkpt lat="43.6661961" lon="11.3316232"><ele>166.0</ele><time>2026-03-28T09:10:21.943Z</time></trkpt><trkpt lat="43.6660805" lon="11.3316673"><ele>166.5</ele><time>2026-03-28T09:10:22.944Z</time></trkpt><trkpt lat="43.6659666" lon="11.3317362"><ele>167.0</ele><time>2026-03-28T09:10:23.943Z</time></trkpt><trkpt lat="43.6658485" lon="11.3318212"><ele>169.8</ele><time>2026-03-28T09:10:24.944Z</time></trkpt><trkpt lat="43.6657305" lon="11.3319037"><ele>172.6</ele><time>2026-03-28T09:10:25.944Z</time></trkpt><trkpt lat="43.6656233" lon="11.3319601"><ele>175.4</ele><time>2026-03-28T09:10:26.945Z</time></trkpt><trkpt lat="43.6655327" lon="11.3319716"><ele>178.20000000000002</ele><time>2026-03-28T09:10:27.943Z</time></trkpt><trkpt lat="43.665468" lon="11.3319338"><ele>181.0</ele><time>2026-03-28T09:10:28.943Z</time></trkpt><trkpt lat="43.6654222" lon="11.3318541"><ele>181.0</ele><time>2026-03-28T09:10:29.944Z</time></trkpt><trkpt lat="43.6653976" lon="11.3317366"><ele>181.0</ele><time>2026-03-28T09:10:30.945Z</time></trkpt><trkpt lat="43.6653767" lon="11.3316181"><ele>181.0</ele><time>2026-03-28T09:10:31.944Z</time></trkpt><trkpt lat="43.6653288" lon="11.3315299"><ele>181.0</ele><time>2026-03-28T09:10:32.943Z</time></trkpt><trkpt lat="43.6652576" lon="11.331501"><ele>181.0</ele><time>2026-03-28T09:10:33.945Z</time></trkpt><trkpt lat="43.6651731" lon="11.3315249"><ele>181.0</ele><time>2026-03-28T09:10:34.944Z</time></trkpt><trkpt lat="43.6650809" lon="11.331604"><ele>184.5</ele><time>2026-03-28T09:10:35.942Z</time></trkpt><trkpt lat="43.6649816" lon="11.3317029"><ele>188.0</ele><time>2026-03-28T09:10:36.945Z</time></trkpt><trkpt lat="43.6648757" lon="11.3318076"><ele>191.5</ele><time>2026-03-28T09:10:37.943Z</time></trkpt><trkpt lat="43.6647459" lon="11.3319099"><ele>195.0</ele><time>2026-03-28T09:10:38.944Z</time></trkpt><trkpt lat="43.6646168" lon="11.3320082"><ele>195.0</ele><time>2026-03-28T09:10:39.944Z</time></trkpt><trkpt lat="43.6645038" lon="11.332112"><ele>195.0</ele><time>2026-03-28T09:10:40.942Z</time></trkpt><trkpt lat="43.664403" lon="11.332189"><ele>195.0</ele><time>2026-03-28T09:10:41.943Z</time></trkpt><trkpt lat="43.6643007" lon="11.3322443"><ele>195.0</ele><time>2026-03-28T09:10:42.943Z</time></trkpt><trkpt lat="43.6641967" lon="11.3322969"><ele>198.8</ele><time>2026-03-28T09:10:43.944Z</time></trkpt><trkpt lat="43.6641036" lon="11.3323761"><ele>202.6</ele><time>2026-03-28T09:10:44.944Z</time></trkpt><trkpt lat="43.6640406" lon="11.3325167"><ele>206.39999999999998</ele><time>2026-03-28T09:10:45.944Z</time></trkpt><trkpt lat="43.663989" lon="11.332658"><ele>210.2</ele><time>2026-03-28T09:10:46.944Z</time></trkpt><trkpt lat="43.663929" lon="11.3327726"><ele>214.0</ele><time>2026-03-28T09:10:47.943Z</time></trkpt><trkpt lat="43.6638525" lon="11.3328437"><ele>214.0</ele><time>2026-03-28T09:10:48.944Z</time></trkpt><trkpt lat="43.663761" lon="11.3328637"><ele>213.99999999999997</ele><time>2026-03-28T09:10:49.943Z</time></trkpt><trkpt lat="43.6636579" lon="11.3328391"><ele>213.99999999999997</ele><time>2026-03-28T09:10:50.943Z</time></trkpt><trkpt lat="43.6635496" lon="11.3327896"><ele>214.0</ele><time>2026-03-28T09:10:51.943Z</time></trkpt><trkpt lat="43.6634232" lon="11.3327515"><ele>214.0</ele><time>2026-03-28T09:10:52.944Z</time></trkpt><trkpt lat="43.6633119" lon="11.3327273"><ele>215.99999999999997</ele><time>2026-03-28T09:10:53.944Z</time></trkpt><trkpt lat="43.6632251" lon="11.3327014"><ele>218.0</ele><time>2026-03-28T09:10:54.944Z</time></trkpt><trkpt lat="43.6631507" lon="11.3326506"><ele>220.0</ele><time>2026-03-28T09:10:55.945Z</time></trkpt><trkpt lat="43.6630921" lon="11.3325877"><ele>222.0</ele><time>2026-03-28T09:10:56.944Z</time></trkpt><trkpt lat="43.6630481" lon="11.3325026"><ele>223.99999999999997</ele><time>2026-03-28T09:10:57.944Z</time></trkpt><trkpt lat="43.6630416" lon="11.3324147"><ele>226.0</ele><time>2026-03-28T09:10:58.944Z</time></trkpt><trkpt lat="43.6630547" lon="11.3322978"><ele>227.75</ele><time>2026-03-28T09:10:59.945Z</time></trkpt><trkpt lat="43.663095" lon="11.3321651"><ele>229.5</ele><time>2026-03-28T09:11:00.944Z</time></trkpt><trkpt lat="43.6631459" lon="11.3320133"><ele>231.25</ele><time>2026-03-28T09:11:01.944Z</time></trkpt><trkpt lat="43.663211" lon="11.3318641"><ele>233.0</ele><time>2026-03-28T09:11:02.944Z</time></trkpt><trkpt lat="43.6632742" lon="11.3317298"><ele>233.00000000000003</ele><time>2026-03-28T09:11:03.944Z</time></trkpt><trkpt lat="43.6633224" lon="11.3316049"><ele>233.0</ele><time>2026-03-28T09:11:04.944Z</time></trkpt><trkpt lat="43.6633393" lon="11.3314928"><ele>233.0</ele><time>2026-03-28T09:11:05.944Z</time></trkpt><trkpt lat="43.6633117" lon="11.3314085"><ele>233.0</ele><time>2026-03-28T09:11:06.944Z</time></trkpt><trkpt lat="43.6632068" lon="11.3313681"><ele>233.00000000000003</ele><time>2026-03-28T09:11:08.943Z</time></trkpt><trkpt lat="43.6631216" lon="11.3313902"><ele>233.0</ele><time>2026-03-28T09:11:10.943Z</time></trkpt><trkpt lat="43.6630582" lon="11.3313303"><ele>233.2</ele><time>2026-03-28T09:11:14.944Z</time></trkpt><trkpt lat="43.6630182" lon="11.3312557"><ele>233.4</ele><time>2026-03-28T09:11:16.944Z</time></trkpt><trkpt lat="43.6629511" lon="11.3311584"><ele>233.59999999999997</ele><time>2026-03-28T09:11:18.943Z</time></trkpt><trkpt lat="43.6628939" lon="11.3310345"><ele>233.79999999999998</ele><time>2026-03-28T09:11:20.944Z</time></trkpt><trkpt lat="43.6628751" lon="11.3308707"><ele>234.0</ele><time>2026-03-28T09:11:22.944Z</time></trkpt><trkpt lat="43.6628837" lon="11.3307601"><ele>234.0</ele><time>2026-03-28T09:11:23.945Z</time></trkpt><trkpt lat="43.6628937" lon="11.3306461"><ele>234.0</ele><time>2026-03-28T09:11:24.944Z</time></trkpt><trkpt lat="43.6628993" lon="11.3305327"><ele>234.0</ele><time>2026-03-28T09:11:25.943Z</time></trkpt><trkpt lat="43.6628963" lon="11.3304137"><ele>234.0</ele><time>2026-03-28T09:11:26.944Z</time></trkpt><trkpt lat="43.6628807" lon="11.3302935"><ele>234.0</ele><time>2026-03-28T09:11:27.945Z</time></trkpt><trkpt lat="43.6628548" lon="11.3301686"><ele>234.0</ele><time>2026-03-28T09:11:28.945Z</time></trkpt><trkpt lat="43.6628269" lon="11.3300581"><ele>234.16666666666666</ele><time>2026-03-28T09:11:29.944Z</time></trkpt><trkpt lat="43.6628008" lon="11.3299746"><ele>234.33333333333331</ele><time>2026-03-28T09:11:30.944Z</time></trkpt><trkpt lat="43.662775" lon="11.3298912"><ele>234.5</ele><time>2026-03-28T09:11:31.944Z</time></trkpt><trkpt lat="43.6627702" lon="11.3297256"><ele>234.66666666666666</ele><time>2026-03-28T09:11:33.943Z</time></trkpt><trkpt lat="43.6628012" lon="11.3296492"><ele>234.83333333333331</ele><time>2026-03-28T09:11:34.945Z</time></trkpt><trkpt lat="43.6628432" lon="11.3295701"><ele>235.0</ele><time>2026-03-28T09:11:35.944Z</time></trkpt><trkpt lat="43.6628857" lon="11.3294992"><ele>235.0</ele><time>2026-03-28T09:11:36.944Z</time></trkpt><trkpt lat="43.6629318" lon="11.3294276"><ele>235.0</ele><time>2026-03-28T09:11:37.944Z</time></trkpt><trkpt lat="43.6629731" lon="11.3293539"><ele>235.0</ele><time>2026-03-28T09:11:38.945Z</time></trkpt><trkpt lat="43.6630168" lon="11.3291966"><ele>235.0</ele><time>2026-03-28T09:11:40.945Z</time></trkpt><trkpt lat="43.6630413" lon="11.3290326"><ele>235.0</ele><time>2026-03-28T09:11:42.944Z</time></trkpt><trkpt lat="43.6630786" lon="11.3288777"><ele>233.6</ele><time>2026-03-28T09:11:44.944Z</time></trkpt><trkpt lat="43.663119" lon="11.3288039"><ele>232.2</ele><time>2026-03-28T09:11:45.943Z</time></trkpt><trkpt lat="43.6632284" lon="11.3287222"><ele>230.8</ele><time>2026-03-28T09:11:47.943Z</time></trkpt><trkpt lat="43.6633358" lon="11.3286083"><ele>229.4</ele><time>2026-03-28T09:11:49.945Z</time></trkpt><trkpt lat="43.6633875" lon="11.3285309"><ele>228.0</ele><time>2026-03-28T09:11:50.944Z</time></trkpt><trkpt lat="43.6634357" lon="11.3284357"><ele>228.0</ele><time>2026-03-28T09:11:51.944Z</time></trkpt><trkpt lat="43.6634833" lon="11.3283372"><ele>228.0</ele><time>2026-03-28T09:11:52.945Z</time></trkpt><trkpt lat="43.6635269" lon="11.3282356"><ele>228.0</ele><time>2026-03-28T09:11:53.944Z</time></trkpt><trkpt lat="43.6635752" lon="11.3281346"><ele>228.0</ele><time>2026-03-28T09:11:54.945Z</time></trkpt><trkpt lat="43.6636123" lon="11.3280307"><ele>228.0</ele><time>2026-03-28T09:11:55.945Z</time></trkpt><trkpt lat="43.6636332" lon="11.3279234"><ele>228.0</ele><time>2026-03-28T09:11:56.945Z</time></trkpt><trkpt lat="43.6636437" lon="11.3278176"><ele>226.16666666666666</ele><time>2026-03-28T09:11:57.944Z</time></trkpt><trkpt lat="43.6636463" lon="11.3277051"><ele>224.33333333333331</ele><time>2026-03-28T09:11:58.944Z</time></trkpt><trkpt lat="43.6636439" lon="11.3275928"><ele>222.5</ele><time>2026-03-28T09:11:59.943Z</time></trkpt><trkpt lat="43.6636268" lon="11.3274757"><ele>220.66666666666666</ele><time>2026-03-28T09:12:00.944Z</time></trkpt><trkpt lat="43.6636054" lon="11.3273576"><ele>218.83333333333331</ele><time>2026-03-28T09:12:01.944Z</time></trkpt><trkpt lat="43.6635759" lon="11.3272516"><ele>217.0</ele><time>2026-03-28T09:12:02.943Z</time></trkpt><trkpt lat="43.6635431" lon="11.3271677"><ele>215.16666666666666</ele><time>2026-03-28T09:12:03.943Z</time></trkpt><trkpt lat="43.6635206" lon="11.3270818"><ele>213.33333333333331</ele><time>2026-03-28T09:12:04.944Z</time></trkpt><trkpt lat="43.6635154" lon="11.3269223"><ele>211.5</ele><time>2026-03-28T09:12:06.945Z</time></trkpt><trkpt lat="43.663606" lon="11.326821"><ele>209.66666666666669</ele><time>2026-03-28T09:12:08.944Z</time></trkpt><trkpt lat="43.6636706" lon="11.3267831"><ele>207.83333333333334</ele><time>2026-03-28T09:12:09.943Z</time></trkpt><trkpt lat="43.6637285" lon="11.3267417"><ele>206.0</ele><time>2026-03-28T09:12:10.944Z</time></trkpt><trkpt lat="43.6637784" lon="11.3266738"><ele>204.16666666666669</ele><time>2026-03-28T09:12:11.944Z</time></trkpt><trkpt lat="43.6638247" lon="11.3265822"><ele>202.33333333333334</ele><time>2026-03-28T09:12:12.944Z</time></trkpt><trkpt lat="43.6638661" lon="11.3264783"><ele>200.5</ele><time>2026-03-28T09:12:13.943Z</time></trkpt><trkpt lat="43.6638996" lon="11.3263645"><ele>198.66666666666669</ele><time>2026-03-28T09:12:14.944Z</time></trkpt><trkpt lat="43.6639344" lon="11.3262553"><ele>196.83333333333334</ele><time>2026-03-28T09:12:15.944Z</time></trkpt><trkpt lat="43.6639686" lon="11.3261477"><ele>195.0</ele><time>2026-03-28T09:12:16.945Z</time></trkpt><trkpt lat="43.6640033" lon="11.3260245"><ele>193.8</ele><time>2026-03-28T09:12:17.944Z</time></trkpt><trkpt lat="43.6640461" lon="11.3259035"><ele>192.6</ele><time>2026-03-28T09:12:18.945Z</time></trkpt><trkpt lat="43.6641047" lon="11.325769"><ele>191.39999999999998</ele><time>2026-03-28T09:12:19.944Z</time></trkpt><trkpt lat="43.6641738" lon="11.3256281"><ele>190.2</ele><time>2026-03-28T09:12:20.944Z</time></trkpt><trkpt lat="43.664235" lon="11.3254933"><ele>189.0</ele><time>2026-03-28T09:12:21.943Z</time></trkpt><trkpt lat="43.6643007" lon="11.3253649"><ele>188.79999999999998</ele><time>2026-03-28T09:12:22.944Z</time></trkpt><trkpt lat="43.664367" lon="11.3252443"><ele>188.6</ele><time>2026-03-28T09:12:23.943Z</time></trkpt><trkpt lat="43.6644341" lon="11.3251158"><ele>188.4</ele><time>2026-03-28T09:12:24.945Z</time></trkpt><trkpt lat="43.6644876" lon="11.3249871"><ele>188.2</ele><time>2026-03-28T09:12:25.944Z</time></trkpt><trkpt lat="43.6645255" lon="11.324845"><ele>188.0</ele><time>2026-03-28T09:12:26.943Z</time></trkpt><trkpt lat="43.6645509" lon="11.3246737"><ele>185.2</ele><time>2026-03-28T09:12:27.944Z</time></trkpt><trkpt lat="43.6645676" lon="11.324496"><ele>182.4</ele><time>2026-03-28T09:12:28.944Z</time></trkpt><trkpt lat="43.6645785" lon="11.3243355"><ele>179.6</ele><time>2026-03-28T09:12:29.943Z</time></trkpt><trkpt lat="43.6645722" lon="11.3241833"><ele>176.79999999999998</ele><time>2026-03-28T09:12:30.945Z</time></trkpt><trkpt lat="43.6645508" lon="11.3240639"><ele>174.0</ele><time>2026-03-28T09:12:31.945Z</time></trkpt><trkpt lat="43.6645396" lon="11.3239482"><ele>173.16666666666666</ele><time>2026-03-28T09:12:32.944Z</time></trkpt><trkpt lat="43.6645399" lon="11.3238483"><ele>172.33333333333334</ele><time>2026-03-28T09:12:33.944Z</time></trkpt><trkpt lat="43.6645636" lon="11.3237569"><ele>171.5</ele><time>2026-03-28T09:12:34.943Z</time></trkpt><trkpt lat="43.6646019" lon="11.3236854"><ele>170.66666666666669</ele><time>2026-03-28T09:12:35.944Z</time></trkpt><trkpt lat="43.6647003" lon="11.3235804"><ele>169.83333333333334</ele><time>2026-03-28T09:12:37.944Z</time></trkpt><trkpt lat="43.6647467" lon="11.3235205"><ele>169.0</ele><time>2026-03-28T09:12:38.944Z</time></trkpt><trkpt lat="43.6648053" lon="11.3234596"><ele>169.0</ele><time>2026-03-28T09:12:39.944Z</time></trkpt><trkpt lat="43.6648652" lon="11.3233964"><ele>169.0</ele><time>2026-03-28T09:12:40.945Z</time></trkpt><trkpt lat="43.6649317" lon="11.3233396"><ele>169.0</ele><time>2026-03-28T09:12:41.943Z</time></trkpt><trkpt lat="43.6649963" lon="11.3232908"><ele>169.0</ele><time>2026-03-28T09:12:42.943Z</time></trkpt><trkpt lat="43.665057" lon="11.3232478"><ele>169.0</ele><time>2026-03-28T09:12:43.944Z</time></trkpt><trkpt lat="43.665122" lon="11.3232027"><ele>169.0</ele><time>2026-03-28T09:12:44.945Z</time></trkpt><trkpt lat="43.6651966" lon="11.3231569"><ele>169.0</ele><time>2026-03-28T09:12:45.944Z</time></trkpt><trkpt lat="43.6652654" lon="11.3231116"><ele>169.0</ele><time>2026-03-28T09:12:46.945Z</time></trkpt><trkpt lat="43.6653354" lon="11.3230704"><ele>169.0</ele><time>2026-03-28T09:12:47.945Z</time></trkpt><trkpt lat="43.6654063" lon="11.3230293"><ele>169.0</ele><time>2026-03-28T09:12:48.944Z</time></trkpt><trkpt lat="43.6654738" lon="11.3229893"><ele>169.0</ele><time>2026-03-28T09:12:49.944Z</time></trkpt><trkpt lat="43.6655372" lon="11.3229405"><ele>169.0</ele><time>2026-03-28T09:12:50.944Z</time></trkpt><trkpt lat="43.6656055" lon="11.3228976"><ele>166.0</ele><time>2026-03-28T09:12:51.943Z</time></trkpt><trkpt lat="43.6656744" lon="11.3228678"><ele>163.0</ele><time>2026-03-28T09:12:52.944Z</time></trkpt><trkpt lat="43.6657395" lon="11.3228342"><ele>160.0</ele><time>2026-03-28T09:12:53.944Z</time></trkpt><trkpt lat="43.6658033" lon="11.3228099"><ele>157.0</ele><time>2026-03-28T09:12:54.944Z</time></trkpt><trkpt lat="43.6658654" lon="11.3227887"><ele>154.0</ele><time>2026-03-28T09:12:55.945Z</time></trkpt><trkpt lat="43.6659932" lon="11.3227828"><ele>151.0</ele><time>2026-03-28T09:12:57.944Z</time></trkpt><trkpt lat="43.666066" lon="11.3227988"><ele>151.4</ele><time>2026-03-28T09:12:58.943Z</time></trkpt><trkpt lat="43.6661476" lon="11.3228384"><ele>151.8</ele><time>2026-03-28T09:12:59.944Z</time></trkpt><trkpt lat="43.6662384" lon="11.3228708"><ele>152.20000000000002</ele><time>2026-03-28T09:13:00.945Z</time></trkpt><trkpt lat="43.6663266" lon="11.3229032"><ele>152.6</ele><time>2026-03-28T09:13:01.945Z</time></trkpt><trkpt lat="43.6664925" lon="11.3229571"><ele>153.0</ele><time>2026-03-28T09:13:03.943Z</time></trkpt><trkpt lat="43.666559" lon="11.3229702"><ele>153.0</ele><time>2026-03-28T09:13:04.944Z</time></trkpt><trkpt lat="43.6666435" lon="11.3229939"><ele>153.0</ele><time>2026-03-28T09:13:06.944Z</time></trkpt><trkpt lat="43.6667086" lon="11.3229937"><ele>153.0</ele><time>2026-03-28T09:13:09.944Z</time></trkpt><trkpt lat="43.6667875" lon="11.3228716"><ele>153.0</ele><time>2026-03-28T09:13:35.945Z</time></trkpt><trkpt lat="43.6668192" lon="11.3227941"><ele>153.0</ele><time>2026-03-28T09:13:36.945Z</time></trkpt><trkpt lat="43.6668448" lon="11.3226939"><ele>153.0</ele><time>2026-03-28T09:13:37.944Z</time></trkpt><trkpt lat="43.6668627" lon="11.3225873"><ele>153.0</ele><time>2026-03-28T09:13:38.945Z</time></trkpt><trkpt lat="43.6668768" lon="11.322471"><ele>153.0</ele><time>2026-03-28T09:13:39.944Z</time></trkpt><trkpt lat="43.6668851" lon="11.3223461"><ele>153.0</ele><time>2026-03-28T09:13:40.944Z</time></trkpt><trkpt lat="43.6668899" lon="11.3222132"><ele>153.0</ele><time>2026-03-28T09:13:41.945Z</time></trkpt><trkpt lat="43.6668893" lon="11.3220726"><ele>153.0</ele><time>2026-03-28T09:13:42.944Z</time></trkpt><trkpt lat="43.6668839" lon="11.3219349"><ele>152.6</ele><time>2026-03-28T09:13:43.943Z</time></trkpt><trkpt lat="43.6668728" lon="11.3218007"><ele>152.20000000000002</ele><time>2026-03-28T09:13:44.945Z</time></trkpt><trkpt lat="43.6668539" lon="11.3216682"><ele>151.8</ele><time>2026-03-28T09:13:45.945Z</time></trkpt><trkpt lat="43.6668253" lon="11.3215412"><ele>151.4</ele><time>2026-03-28T09:13:46.945Z</time></trkpt><trkpt lat="43.6668014" lon="11.3214069"><ele>151.0</ele><time>2026-03-28T09:13:47.944Z</time></trkpt><trkpt lat="43.6667715" lon="11.3212791"><ele>150.8</ele><time>2026-03-28T09:13:48.944Z</time></trkpt><trkpt lat="43.6667388" lon="11.3211504"><ele>150.6</ele><time>2026-03-28T09:13:49.945Z</time></trkpt><trkpt lat="43.6667049" lon="11.3210238"><ele>150.4</ele><time>2026-03-28T09:13:50.943Z</time></trkpt><trkpt lat="43.6666742" lon="11.320887"><ele>150.2</ele><time>2026-03-28T09:13:51.943Z</time></trkpt><trkpt lat="43.66664" lon="11.3207497"><ele>150.0</ele><time>2026-03-28T09:13:52.945Z</time></trkpt><trkpt lat="43.666607" lon="11.320615"><ele>150.0</ele><time>2026-03-28T09:13:53.945Z</time></trkpt><trkpt lat="43.6665712" lon="11.3204672"><ele>150.0</ele><time>2026-03-28T09:13:54.944Z</time></trkpt><trkpt lat="43.6665381" lon="11.320322"><ele>150.0</ele><time>2026-03-28T09:13:55.943Z</time></trkpt><trkpt lat="43.6665054" lon="11.3201752"><ele>150.0</ele><time>2026-03-28T09:13:56.945Z</time></trkpt><trkpt lat="43.666469" lon="11.3200286"><ele>150.0</ele><time>2026-03-28T09:13:57.944Z</time></trkpt><trkpt lat="43.6664332" lon="11.3198807"><ele>150.5</ele><time>2026-03-28T09:13:58.944Z</time></trkpt><trkpt lat="43.6663983" lon="11.319731"><ele>151.0</ele><time>2026-03-28T09:13:59.945Z</time></trkpt><trkpt lat="43.6663619" lon="11.3195786"><ele>151.5</ele><time>2026-03-28T09:14:00.944Z</time></trkpt><trkpt lat="43.6663264" lon="11.3194274"><ele>152.0</ele><time>2026-03-28T09:14:01.943Z</time></trkpt><trkpt lat="43.6662887" lon="11.3192696"><ele>152.0</ele><time>2026-03-28T09:14:02.945Z</time></trkpt><trkpt lat="43.6662524" lon="11.3191157"><ele>152.0</ele><time>2026-03-28T09:14:03.943Z</time></trkpt><trkpt lat="43.6661787" lon="11.3188036"><ele>152.0</ele><time>2026-03-28T09:14:05.943Z</time></trkpt><trkpt lat="43.666141" lon="11.3186535"><ele>150.75</ele><time>2026-03-28T09:14:06.945Z</time></trkpt><trkpt lat="43.6661055" lon="11.3184999"><ele>149.5</ele><time>2026-03-28T09:14:07.944Z</time></trkpt><trkpt lat="43.6660689" lon="11.3183359"><ele>148.25</ele><time>2026-03-28T09:14:08.944Z</time></trkpt><trkpt lat="43.6660298" lon="11.3181737"><ele>147.0</ele><time>2026-03-28T09:14:09.945Z</time></trkpt><trkpt lat="43.6659897" lon="11.3180137"><ele>147.0</ele><time>2026-03-28T09:14:10.945Z</time></trkpt><trkpt lat="43.6659519" lon="11.3178562"><ele>147.0</ele><time>2026-03-28T09:14:11.943Z</time></trkpt><trkpt lat="43.6659086" lon="11.317694"><ele>147.0</ele><time>2026-03-28T09:14:12.944Z</time></trkpt><trkpt lat="43.6658723" lon="11.3175228"><ele>147.0</ele><time>2026-03-28T09:14:13.945Z</time></trkpt><trkpt lat="43.6658326" lon="11.3173494"><ele>146.75</ele><time>2026-03-28T09:14:14.945Z</time></trkpt><trkpt lat="43.6657895" lon="11.3171723"><ele>146.5</ele><time>2026-03-28T09:14:15.943Z</time></trkpt><trkpt lat="43.6657458" lon="11.3169876"><ele>146.25</ele><time>2026-03-28T09:14:16.943Z</time></trkpt><trkpt lat="43.6657037" lon="11.3168097"><ele>146.0</ele><time>2026-03-28T09:14:17.944Z</time></trkpt><trkpt lat="43.665659" lon="11.3166257"><ele>146.0</ele><time>2026-03-28T09:14:18.944Z</time></trkpt><trkpt lat="43.6656123" lon="11.3164308"><ele>146.0</ele><time>2026-03-28T09:14:19.943Z</time></trkpt><trkpt lat="43.6655685" lon="11.3162327"><ele>146.0</ele><time>2026-03-28T09:14:20.944Z</time></trkpt><trkpt lat="43.6655172" lon="11.3160285"><ele>146.0</ele><time>2026-03-28T09:14:21.944Z</time></trkpt><trkpt lat="43.6654667" lon="11.3158277"><ele>146.0</ele><time>2026-03-28T09:14:22.945Z</time></trkpt><trkpt lat="43.665416" lon="11.3156277"><ele>146.0</ele><time>2026-03-28T09:14:23.943Z</time></trkpt><trkpt lat="43.6653701" lon="11.3154271"><ele>144.66666666666666</ele><time>2026-03-28T09:14:24.945Z</time></trkpt><trkpt lat="43.6653122" lon="11.3152468"><ele>143.33333333333334</ele><time>2026-03-28T09:14:25.944Z</time></trkpt><trkpt lat="43.6652288" lon="11.3150711"><ele>142.0</ele><time>2026-03-28T09:14:26.945Z</time></trkpt><trkpt lat="43.6651134" lon="11.3149218"><ele>141.66666666666669</ele><time>2026-03-28T09:14:27.943Z</time></trkpt><trkpt lat="43.6649701" lon="11.3147943"><ele>141.33333333333334</ele><time>2026-03-28T09:14:28.944Z</time></trkpt><trkpt lat="43.6648158" lon="11.3146946"><ele>141.0</ele><time>2026-03-28T09:14:29.944Z</time></trkpt><trkpt lat="43.6646462" lon="11.3146366"><ele>140.66666666666666</ele><time>2026-03-28T09:14:30.945Z</time></trkpt><trkpt lat="43.66447" lon="11.3145901"><ele>140.33333333333331</ele><time>2026-03-28T09:14:31.944Z</time></trkpt><trkpt lat="43.6642917" lon="11.3145535"><ele>140.0</ele><time>2026-03-28T09:14:32.944Z</time></trkpt><trkpt lat="43.6641164" lon="11.3145224"><ele>141.33333333333331</ele><time>2026-03-28T09:14:33.944Z</time></trkpt><trkpt lat="43.6639427" lon="11.3145023"><ele>142.66666666666666</ele><time>2026-03-28T09:14:34.944Z</time></trkpt><trkpt lat="43.6637663" lon="11.3145291"><ele>144.0</ele><time>2026-03-28T09:14:35.945Z</time></trkpt><trkpt lat="43.6635963" lon="11.314612"><ele>144.66666666666666</ele><time>2026-03-28T09:14:36.944Z</time></trkpt><trkpt lat="43.6634223" lon="11.3147022"><ele>145.33333333333331</ele><time>2026-03-28T09:14:37.944Z</time></trkpt><trkpt lat="43.6632342" lon="11.3147853"><ele>146.0</ele><time>2026-03-28T09:14:38.945Z</time></trkpt><trkpt lat="43.6630472" lon="11.3148173"><ele>146.0</ele><time>2026-03-28T09:14:39.945Z</time></trkpt><trkpt lat="43.6628623" lon="11.31481"><ele>146.0</ele><time>2026-03-28T09:14:40.945Z</time></trkpt><trkpt lat="43.6626836" lon="11.3147478"><ele>146.0</ele><time>2026-03-28T09:14:41.944Z</time></trkpt><trkpt lat="43.6625028" lon="11.3146467"><ele>149.33333333333331</ele><time>2026-03-28T09:14:42.945Z</time></trkpt><trkpt lat="43.6623225" lon="11.3145367"><ele>152.66666666666666</ele><time>2026-03-28T09:14:43.944Z</time></trkpt><trkpt lat="43.6621367" lon="11.3143976"><ele>156.0</ele><time>2026-03-28T09:14:44.944Z</time></trkpt><trkpt lat="43.6619469" lon="11.3142879"><ele>156.0</ele><time>2026-03-28T09:14:45.944Z</time></trkpt><trkpt lat="43.6617469" lon="11.3141817"><ele>156.0</ele><time>2026-03-28T09:14:46.944Z</time></trkpt><trkpt lat="43.6615398" lon="11.3140692"><ele>156.0</ele><time>2026-03-28T09:14:47.943Z</time></trkpt><trkpt lat="43.6613429" lon="11.3139742"><ele>160.66666666666666</ele><time>2026-03-28T09:14:48.944Z</time></trkpt><trkpt lat="43.6611571" lon="11.313901"><ele>165.33333333333331</ele><time>2026-03-28T09:14:49.944Z</time></trkpt><trkpt lat="43.6609701" lon="11.3138484"><ele>170.0</ele><time>2026-03-28T09:14:50.944Z</time></trkpt><trkpt lat="43.6607768" lon="11.3138213"><ele>171.33333333333331</ele><time>2026-03-28T09:14:51.944Z</time></trkpt><trkpt lat="43.660597" lon="11.3138071"><ele>172.66666666666666</ele><time>2026-03-28T09:14:52.944Z</time></trkpt><trkpt lat="43.6604316" lon="11.3137946"><ele>174.0</ele><time>2026-03-28T09:14:53.945Z</time></trkpt><trkpt lat="43.660267" lon="11.3137883"><ele>174.0</ele><time>2026-03-28T09:14:54.944Z</time></trkpt><trkpt lat="43.6601057" lon="11.3137628"><ele>174.0</ele><time>2026-03-28T09:14:55.943Z</time></trkpt><trkpt lat="43.6599544" lon="11.3136967"><ele>174.0</ele><time>2026-03-28T09:14:56.943Z</time></trkpt><trkpt lat="43.6598061" lon="11.3136128"><ele>174.0</ele><time>2026-03-28T09:14:57.944Z</time></trkpt><trkpt lat="43.6596568" lon="11.313523"><ele>174.0</ele><time>2026-03-28T09:14:58.945Z</time></trkpt><trkpt lat="43.6595102" lon="11.3134297"><ele>174.0</ele><time>2026-03-28T09:14:59.944Z</time></trkpt><trkpt lat="43.659366" lon="11.3133284"><ele>172.33333333333334</ele><time>2026-03-28T09:15:00.943Z</time></trkpt><trkpt lat="43.659231" lon="11.31322"><ele>170.66666666666669</ele><time>2026-03-28T09:15:01.945Z</time></trkpt><trkpt lat="43.6591035" lon="11.3130912"><ele>169.0</ele><time>2026-03-28T09:15:02.944Z</time></trkpt><trkpt lat="43.6589858" lon="11.3129448"><ele>174.5</ele><time>2026-03-28T09:15:03.944Z</time></trkpt><trkpt lat="43.6587619" lon="11.312629"><ele>180.0</ele><time>2026-03-28T09:15:05.944Z</time></trkpt><trkpt lat="43.658649" lon="11.312472"><ele>181.0</ele><time>2026-03-28T09:15:06.944Z</time></trkpt><trkpt lat="43.6585315" lon="11.3123122"><ele>182.0</ele><time>2026-03-28T09:15:07.945Z</time></trkpt><trkpt lat="43.6584154" lon="11.3121516"><ele>183.0</ele><time>2026-03-28T09:15:08.944Z</time></trkpt><trkpt lat="43.6583019" lon="11.3119875"><ele>183.0</ele><time>2026-03-28T09:15:09.944Z</time></trkpt><trkpt lat="43.6581819" lon="11.3118233"><ele>183.0</ele><time>2026-03-28T09:15:10.944Z</time></trkpt><trkpt lat="43.658073" lon="11.3116578"><ele>183.0</ele><time>2026-03-28T09:15:11.944Z</time></trkpt><trkpt lat="43.6579825" lon="11.3114758"><ele>186.66666666666669</ele><time>2026-03-28T09:15:12.944Z</time></trkpt><trkpt lat="43.6579252" lon="11.3112672"><ele>190.33333333333334</ele><time>2026-03-28T09:15:13.944Z</time></trkpt><trkpt lat="43.6578997" lon="11.3110505"><ele>194.0</ele><time>2026-03-28T09:15:14.945Z</time></trkpt><trkpt lat="43.6578845" lon="11.3108495"><ele>194.0</ele><time>2026-03-28T09:15:15.944Z</time></trkpt><trkpt lat="43.6578534" lon="11.3106644"><ele>194.0</ele><time>2026-03-28T09:15:16.944Z</time></trkpt><trkpt lat="43.6577844" lon="11.3105079"><ele>194.0</ele><time>2026-03-28T09:15:17.945Z</time></trkpt><trkpt lat="43.6576819" lon="11.3103935"><ele>194.0</ele><time>2026-03-28T09:15:18.944Z</time></trkpt><trkpt lat="43.6575511" lon="11.3103349"><ele>194.0</ele><time>2026-03-28T09:15:19.944Z</time></trkpt><trkpt lat="43.6574063" lon="11.3102983"><ele>194.0</ele><time>2026-03-28T09:15:20.945Z</time></trkpt><trkpt lat="43.6572577" lon="11.3102481"><ele>194.0</ele><time>2026-03-28T09:15:21.945Z</time></trkpt><trkpt lat="43.6570992" lon="11.3101738"><ele>194.0</ele><time>2026-03-28T09:15:22.943Z</time></trkpt><trkpt lat="43.6569556" lon="11.310066"><ele>194.0</ele><time>2026-03-28T09:15:23.945Z</time></trkpt><trkpt lat="43.6568102" lon="11.3099361"><ele>194.0</ele><time>2026-03-28T09:15:24.944Z</time></trkpt><trkpt lat="43.6566631" lon="11.3098017"><ele>197.33333333333334</ele><time>2026-03-28T09:15:25.944Z</time></trkpt><trkpt lat="43.6565137" lon="11.3096607"><ele>200.66666666666669</ele><time>2026-03-28T09:15:26.944Z</time></trkpt><trkpt lat="43.6563523" lon="11.3095177"><ele>204.0</ele><time>2026-03-28T09:15:27.944Z</time></trkpt><trkpt lat="43.6561805" lon="11.3093944"><ele>202.66666666666669</ele><time>2026-03-28T09:15:28.945Z</time></trkpt><trkpt lat="43.6560083" lon="11.3092848"><ele>201.33333333333334</ele><time>2026-03-28T09:15:29.945Z</time></trkpt><trkpt lat="43.6558342" lon="11.3091819"><ele>200.0</ele><time>2026-03-28T09:15:30.945Z</time></trkpt><trkpt lat="43.6556676" lon="11.3090837"><ele>200.0</ele><time>2026-03-28T09:15:31.944Z</time></trkpt><trkpt lat="43.655497" lon="11.3089889"><ele>200.0</ele><time>2026-03-28T09:15:32.944Z</time></trkpt><trkpt lat="43.6553295" lon="11.3088978"><ele>200.0</ele><time>2026-03-28T09:15:33.945Z</time></trkpt><trkpt lat="43.6551599" lon="11.3088207"><ele>203.33333333333334</ele><time>2026-03-28T09:15:34.944Z</time></trkpt><trkpt lat="43.6549956" lon="11.3087476"><ele>206.66666666666669</ele><time>2026-03-28T09:15:35.945Z</time></trkpt><trkpt lat="43.6548365" lon="11.3086856"><ele>210.0</ele><time>2026-03-28T09:15:36.944Z</time></trkpt><trkpt lat="43.6546808" lon="11.3086243"><ele>210.0</ele><time>2026-03-28T09:15:37.945Z</time></trkpt><trkpt lat="43.6545352" lon="11.3085646"><ele>210.0</ele><time>2026-03-28T09:15:38.942Z</time></trkpt><trkpt lat="43.6543975" lon="11.308512"><ele>210.0</ele><time>2026-03-28T09:15:39.943Z</time></trkpt><trkpt lat="43.6542593" lon="11.3084583"><ele>210.0</ele><time>2026-03-28T09:15:40.944Z</time></trkpt><trkpt lat="43.6541203" lon="11.3084105"><ele>209.75</ele><time>2026-03-28T09:15:41.943Z</time></trkpt><trkpt lat="43.6539836" lon="11.3083653"><ele>209.5</ele><time>2026-03-28T09:15:42.944Z</time></trkpt><trkpt lat="43.6538482" lon="11.3083179"><ele>209.25</ele><time>2026-03-28T09:15:43.944Z</time></trkpt><trkpt lat="43.6537173" lon="11.3082706"><ele>209.0</ele><time>2026-03-28T09:15:44.945Z</time></trkpt><trkpt lat="43.6535897" lon="11.3082339"><ele>209.6</ele><time>2026-03-28T09:15:45.943Z</time></trkpt><trkpt lat="43.6534706" lon="11.3082095"><ele>210.2</ele><time>2026-03-28T09:15:46.944Z</time></trkpt><trkpt lat="43.6533681" lon="11.3081886"><ele>210.79999999999998</ele><time>2026-03-28T09:15:47.944Z</time></trkpt><trkpt lat="43.6532759" lon="11.3081695"><ele>211.39999999999998</ele><time>2026-03-28T09:15:48.945Z</time></trkpt><trkpt lat="43.6531978" lon="11.308159"><ele>212.0</ele><time>2026-03-28T09:15:49.944Z</time></trkpt><trkpt lat="43.6531303" lon="11.3081497"><ele>212.00000000000003</ele><time>2026-03-28T09:15:50.945Z</time></trkpt><trkpt lat="43.6530609" lon="11.3081352"><ele>212.0</ele><time>2026-03-28T09:15:52.945Z</time></trkpt><trkpt lat="43.6529874" lon="11.3080991"><ele>212.0</ele><time>2026-03-28T09:15:57.944Z</time></trkpt><trkpt lat="43.6529246" lon="11.3080419"><ele>212.0</ele><time>2026-03-28T09:16:00.944Z</time></trkpt><trkpt lat="43.6528209" lon="11.3080626"><ele>212.00000000000003</ele><time>2026-03-28T09:16:02.944Z</time></trkpt><trkpt lat="43.6527575" lon="11.3080918"><ele>212.0</ele><time>2026-03-28T09:16:03.943Z</time></trkpt><trkpt lat="43.652691" lon="11.3081272"><ele>212.2857142857143</ele><time>2026-03-28T09:16:04.945Z</time></trkpt><trkpt lat="43.652616" lon="11.3081571"><ele>212.57142857142856</ele><time>2026-03-28T09:16:05.944Z</time></trkpt><trkpt lat="43.6525407" lon="11.3081677"><ele>212.85714285714286</ele><time>2026-03-28T09:16:06.944Z</time></trkpt><trkpt lat="43.6524598" lon="11.3081609"><ele>213.14285714285717</ele><time>2026-03-28T09:16:07.945Z</time></trkpt><trkpt lat="43.6523933" lon="11.3081428"><ele>213.42857142857144</ele><time>2026-03-28T09:16:08.945Z</time></trkpt><trkpt lat="43.6523331" lon="11.3081169"><ele>213.71428571428572</ele><time>2026-03-28T09:16:09.944Z</time></trkpt><trkpt lat="43.6522648" lon="11.308105"><ele>214.0</ele><time>2026-03-28T09:16:10.944Z</time></trkpt><trkpt lat="43.6521907" lon="11.3081247"><ele>214.0</ele><time>2026-03-28T09:16:11.944Z</time></trkpt><trkpt lat="43.6521238" lon="11.3081849"><ele>213.99999999999997</ele><time>2026-03-28T09:16:12.944Z</time></trkpt><trkpt lat="43.6520554" lon="11.3082796"><ele>213.99999999999997</ele><time>2026-03-28T09:16:13.945Z</time></trkpt><trkpt lat="43.6519784" lon="11.3083815"><ele>214.0</ele><time>2026-03-28T09:16:14.942Z</time></trkpt><trkpt lat="43.6519001" lon="11.3084922"><ele>214.0</ele><time>2026-03-28T09:16:15.944Z</time></trkpt><trkpt lat="43.6518078" lon="11.3086153"><ele>214.0</ele><time>2026-03-28T09:16:16.944Z</time></trkpt><trkpt lat="43.6517228" lon="11.3087341"><ele>214.0</ele><time>2026-03-28T09:16:17.944Z</time></trkpt><trkpt lat="43.6516383" lon="11.3088426"><ele>214.0</ele><time>2026-03-28T09:16:18.945Z</time></trkpt><trkpt lat="43.6515495" lon="11.3089403"><ele>214.0</ele><time>2026-03-28T09:16:19.944Z</time></trkpt><trkpt lat="43.6514644" lon="11.3090261"><ele>214.16666666666666</ele><time>2026-03-28T09:16:20.944Z</time></trkpt><trkpt lat="43.6513816" lon="11.3091079"><ele>214.33333333333331</ele><time>2026-03-28T09:16:21.943Z</time></trkpt><trkpt lat="43.6513048" lon="11.309181"><ele>214.5</ele><time>2026-03-28T09:16:22.944Z</time></trkpt><trkpt lat="43.6512306" lon="11.3092494"><ele>214.66666666666669</ele><time>2026-03-28T09:16:23.944Z</time></trkpt><trkpt lat="43.6511707" lon="11.3093169"><ele>214.83333333333334</ele><time>2026-03-28T09:16:24.944Z</time></trkpt><trkpt lat="43.651115" lon="11.3093976"><ele>215.0</ele><time>2026-03-28T09:16:25.944Z</time></trkpt><trkpt lat="43.6510612" lon="11.309486"><ele>215.50000000000003</ele><time>2026-03-28T09:16:26.944Z</time></trkpt><trkpt lat="43.6510128" lon="11.3095826"><ele>216.0</ele><time>2026-03-28T09:16:27.945Z</time></trkpt><trkpt lat="43.6509659" lon="11.3096816"><ele>216.5</ele><time>2026-03-28T09:16:28.944Z</time></trkpt><trkpt lat="43.6509225" lon="11.3097754"><ele>217.0</ele><time>2026-03-28T09:16:29.944Z</time></trkpt><trkpt lat="43.650882" lon="11.3098531"><ele>217.50000000000003</ele><time>2026-03-28T09:16:30.944Z</time></trkpt><trkpt lat="43.6508375" lon="11.3099557"><ele>218.0</ele><time>2026-03-28T09:16:32.944Z</time></trkpt><trkpt lat="43.6508073" lon="11.3100322"><ele>218.00000000000003</ele><time>2026-03-28T09:16:34.944Z</time></trkpt><trkpt lat="43.6507758" lon="11.3101079"><ele>218.0</ele><time>2026-03-28T09:16:37.944Z</time></trkpt><trkpt lat="43.6508557" lon="11.3100295"><ele>218.0</ele><time>2026-03-28T09:16:45.944Z</time></trkpt><trkpt lat="43.6508929" lon="11.3099394"><ele>218.0</ele><time>2026-03-28T09:16:46.944Z</time></trkpt><trkpt lat="43.6509418" lon="11.3098377"><ele>218.00000000000003</ele><time>2026-03-28T09:16:47.944Z</time></trkpt><trkpt lat="43.6509904" lon="11.3097352"><ele>218.0</ele><time>2026-03-28T09:16:48.944Z</time></trkpt><trkpt lat="43.6510366" lon="11.3096505"><ele>218.0</ele><time>2026-03-28T09:16:49.945Z</time></trkpt><trkpt lat="43.6510817" lon="11.3095286"><ele>218.0</ele><time>2026-03-28T09:16:51.945Z</time></trkpt><trkpt lat="43.6510019" lon="11.3094738"><ele>218.0</ele><time>2026-03-28T09:17:04.944Z</time></trkpt><trkpt lat="43.6508917" lon="11.3095697"><ele>218.0</ele><time>2026-03-28T09:17:06.944Z</time></trkpt><trkpt lat="43.6508144" lon="11.3096421"><ele>218.0</ele><time>2026-03-28T09:17:07.945Z</time></trkpt><trkpt lat="43.6507291" lon="11.3097228"><ele>218.5</ele><time>2026-03-28T09:17:08.944Z</time></trkpt><trkpt lat="43.6506345" lon="11.3098154"><ele>219.0</ele><time>2026-03-28T09:17:09.943Z</time></trkpt><trkpt lat="43.6505271" lon="11.309913"><ele>219.5</ele><time>2026-03-28T09:17:10.944Z</time></trkpt><trkpt lat="43.650417" lon="11.3100036"><ele>220.0</ele><time>2026-03-28T09:17:11.944Z</time></trkpt><trkpt lat="43.6503075" lon="11.3101057"><ele>220.5</ele><time>2026-03-28T09:17:12.945Z</time></trkpt><trkpt lat="43.6501922" lon="11.3102171"><ele>221.0</ele><time>2026-03-28T09:17:13.945Z</time></trkpt><trkpt lat="43.6500655" lon="11.3103336"><ele>221.5</ele><time>2026-03-28T09:17:14.945Z</time></trkpt><trkpt lat="43.6499423" lon="11.3104454"><ele>222.0</ele><time>2026-03-28T09:17:15.945Z</time></trkpt><trkpt lat="43.6498183" lon="11.3105606"><ele>223.33333333333331</ele><time>2026-03-28T09:17:16.945Z</time></trkpt><trkpt lat="43.6496949" lon="11.3106749"><ele>224.66666666666666</ele><time>2026-03-28T09:17:17.945Z</time></trkpt><trkpt lat="43.6495647" lon="11.3107706"><ele>226.0</ele><time>2026-03-28T09:17:18.944Z</time></trkpt><trkpt lat="43.6494115" lon="11.3108392"><ele>226.66666666666666</ele><time>2026-03-28T09:17:19.945Z</time></trkpt><trkpt lat="43.6492491" lon="11.3108887"><ele>227.33333333333331</ele><time>2026-03-28T09:17:20.943Z</time></trkpt><trkpt lat="43.6490678" lon="11.3109335"><ele>228.0</ele><time>2026-03-28T09:17:21.945Z</time></trkpt><trkpt lat="43.6488843" lon="11.3109696"><ele>228.0</ele><time>2026-03-28T09:17:22.945Z</time></trkpt><trkpt lat="43.6486909" lon="11.3110151"><ele>228.0</ele><time>2026-03-28T09:17:23.945Z</time></trkpt><trkpt lat="43.6485083" lon="11.311057"><ele>228.0</ele><time>2026-03-28T09:17:24.944Z</time></trkpt><trkpt lat="43.6483303" lon="11.3110899"><ele>229.33333333333331</ele><time>2026-03-28T09:17:25.945Z</time></trkpt><trkpt lat="43.6481539" lon="11.3111268"><ele>230.66666666666666</ele><time>2026-03-28T09:17:26.945Z</time></trkpt><trkpt lat="43.6479821" lon="11.3111608"><ele>232.0</ele><time>2026-03-28T09:17:27.943Z</time></trkpt><trkpt lat="43.6478063" lon="11.3112005"><ele>233.33333333333331</ele><time>2026-03-28T09:17:28.944Z</time></trkpt><trkpt lat="43.647634" lon="11.3112412"><ele>234.66666666666669</ele><time>2026-03-28T09:17:29.945Z</time></trkpt><trkpt lat="43.6474588" lon="11.311292"><ele>236.0</ele><time>2026-03-28T09:17:30.944Z</time></trkpt><trkpt lat="43.6472842" lon="11.3113508"><ele>239.0</ele><time>2026-03-28T09:17:31.944Z</time></trkpt><trkpt lat="43.6471033" lon="11.311416"><ele>242.0</ele><time>2026-03-28T09:17:32.945Z</time></trkpt><trkpt lat="43.6469166" lon="11.3114781"><ele>245.0</ele><time>2026-03-28T09:17:33.944Z</time></trkpt><trkpt lat="43.646731" lon="11.3115383"><ele>245.0</ele><time>2026-03-28T09:17:34.944Z</time></trkpt><trkpt lat="43.6465384" lon="11.3116018"><ele>245.0</ele><time>2026-03-28T09:17:35.943Z</time></trkpt><trkpt lat="43.6463481" lon="11.3116747"><ele>245.0</ele><time>2026-03-28T09:17:36.944Z</time></trkpt><trkpt lat="43.6461543" lon="11.3117595"><ele>244.33333333333334</ele><time>2026-03-28T09:17:37.944Z</time></trkpt><trkpt lat="43.645966" lon="11.3118618"><ele>243.66666666666669</ele><time>2026-03-28T09:17:38.945Z</time></trkpt><trkpt lat="43.645775" lon="11.3119535"><ele>243.0</ele><time>2026-03-28T09:17:39.944Z</time></trkpt><trkpt lat="43.6455725" lon="11.3120347"><ele>243.0</ele><time>2026-03-28T09:17:40.945Z</time></trkpt><trkpt lat="43.6453592" lon="11.3120982"><ele>243.0</ele><time>2026-03-28T09:17:41.944Z</time></trkpt><trkpt lat="43.6451484" lon="11.3121436"><ele>243.0</ele><time>2026-03-28T09:17:42.943Z</time></trkpt><trkpt lat="43.6449448" lon="11.3121772"><ele>243.0</ele><time>2026-03-28T09:17:43.944Z</time></trkpt><trkpt lat="43.6447423" lon="11.3122095"><ele>243.0</ele><time>2026-03-28T09:17:44.944Z</time></trkpt><trkpt lat="43.6445422" lon="11.3122449"><ele>243.0</ele><time>2026-03-28T09:17:45.944Z</time></trkpt><trkpt lat="43.6443465" lon="11.3122796"><ele>246.33333333333331</ele><time>2026-03-28T09:17:46.945Z</time></trkpt><trkpt lat="43.6441492" lon="11.3123114"><ele>249.66666666666666</ele><time>2026-03-28T09:17:47.944Z</time></trkpt><trkpt lat="43.6439465" lon="11.312345"><ele>253.0</ele><time>2026-03-28T09:17:48.943Z</time></trkpt><trkpt lat="43.6437493" lon="11.3123797"><ele>253.33333333333331</ele><time>2026-03-28T09:17:49.944Z</time></trkpt><trkpt lat="43.64355" lon="11.312404"><ele>253.66666666666669</ele><time>2026-03-28T09:17:50.944Z</time></trkpt><trkpt lat="43.6433483" lon="11.3124412"><ele>254.0</ele><time>2026-03-28T09:17:51.945Z</time></trkpt><trkpt lat="43.6431419" lon="11.3124745"><ele>254.0</ele><time>2026-03-28T09:17:52.945Z</time></trkpt><trkpt lat="43.6429359" lon="11.312503"><ele>254.0</ele><time>2026-03-28T09:17:53.945Z</time></trkpt><trkpt lat="43.6427293" lon="11.3125358"><ele>254.0</ele><time>2026-03-28T09:17:54.945Z</time></trkpt><trkpt lat="43.6425289" lon="11.3125701"><ele>255.66666666666669</ele><time>2026-03-28T09:17:55.945Z</time></trkpt><trkpt lat="43.642329" lon="11.3126099"><ele>257.3333333333333</ele><time>2026-03-28T09:17:56.944Z</time></trkpt><trkpt lat="43.6421307" lon="11.3126482"><ele>259.0</ele><time>2026-03-28T09:17:57.945Z</time></trkpt><trkpt lat="43.64193" lon="11.3126832"><ele>261.3333333333333</ele><time>2026-03-28T09:17:58.944Z</time></trkpt><trkpt lat="43.6417301" lon="11.3127195"><ele>263.6666666666667</ele><time>2026-03-28T09:17:59.944Z</time></trkpt><trkpt lat="43.6415327" lon="11.3127588"><ele>266.0</ele><time>2026-03-28T09:18:00.944Z</time></trkpt><trkpt lat="43.6413342" lon="11.3128085"><ele>266.0</ele><time>2026-03-28T09:18:01.945Z</time></trkpt><trkpt lat="43.6411461" lon="11.3128881"><ele>266.0</ele><time>2026-03-28T09:18:02.944Z</time></trkpt><trkpt lat="43.6409666" lon="11.3129939"><ele>266.0</ele><time>2026-03-28T09:18:03.944Z</time></trkpt><trkpt lat="43.6407842" lon="11.3131123"><ele>267.33333333333337</ele><time>2026-03-28T09:18:04.944Z</time></trkpt><trkpt lat="43.6406" lon="11.3132147"><ele>268.6666666666667</ele><time>2026-03-28T09:18:05.944Z</time></trkpt><trkpt lat="43.6404129" lon="11.3132822"><ele>270.0</ele><time>2026-03-28T09:18:06.944Z</time></trkpt><trkpt lat="43.6402406" lon="11.3133008"><ele>272.6666666666667</ele><time>2026-03-28T09:18:07.944Z</time></trkpt><trkpt lat="43.6400734" lon="11.3133193"><ele>275.33333333333337</ele><time>2026-03-28T09:18:08.944Z</time></trkpt><trkpt lat="43.6399229" lon="11.3133402"><ele>278.0</ele><time>2026-03-28T09:18:09.944Z</time></trkpt><trkpt lat="43.6397889" lon="11.3133586"><ele>278.0</ele><time>2026-03-28T09:18:10.945Z</time></trkpt><trkpt lat="43.6396572" lon="11.3133762"><ele>278.0</ele><time>2026-03-28T09:18:11.943Z</time></trkpt><trkpt lat="43.6395395" lon="11.3133976"><ele>278.0</ele><time>2026-03-28T09:18:12.944Z</time></trkpt><trkpt lat="43.6394277" lon="11.3134201"><ele>278.0</ele><time>2026-03-28T09:18:13.944Z</time></trkpt><trkpt lat="43.6393154" lon="11.3134496"><ele>277.75</ele><time>2026-03-28T09:18:14.945Z</time></trkpt><trkpt lat="43.6392039" lon="11.3134769"><ele>277.5</ele><time>2026-03-28T09:18:15.945Z</time></trkpt><trkpt lat="43.6391003" lon="11.3135183"><ele>277.25</ele><time>2026-03-28T09:18:16.944Z</time></trkpt><trkpt lat="43.6389916" lon="11.3135681"><ele>277.0</ele><time>2026-03-28T09:18:17.944Z</time></trkpt><trkpt lat="43.6388843" lon="11.3136254"><ele>277.0</ele><time>2026-03-28T09:18:18.945Z</time></trkpt><trkpt lat="43.6387789" lon="11.3136815"><ele>277.0</ele><time>2026-03-28T09:18:19.944Z</time></trkpt><trkpt lat="43.6386742" lon="11.3137398"><ele>277.0</ele><time>2026-03-28T09:18:20.945Z</time></trkpt><trkpt lat="43.6385658" lon="11.3137987"><ele>277.0</ele><time>2026-03-28T09:18:21.945Z</time></trkpt><trkpt lat="43.6384614" lon="11.3138551"><ele>275.75</ele><time>2026-03-28T09:18:22.944Z</time></trkpt><trkpt lat="43.6383497" lon="11.3138872"><ele>274.5</ele><time>2026-03-28T09:18:23.944Z</time></trkpt><trkpt lat="43.638237" lon="11.3139122"><ele>273.25</ele><time>2026-03-28T09:18:24.945Z</time></trkpt><trkpt lat="43.638117" lon="11.3139313"><ele>272.0</ele><time>2026-03-28T09:18:25.944Z</time></trkpt><trkpt lat="43.6379965" lon="11.3139468"><ele>274.75</ele><time>2026-03-28T09:18:26.945Z</time></trkpt><trkpt lat="43.6378736" lon="11.3139561"><ele>277.5</ele><time>2026-03-28T09:18:27.944Z</time></trkpt><trkpt lat="43.6377514" lon="11.3139687"><ele>280.25</ele><time>2026-03-28T09:18:28.945Z</time></trkpt><trkpt lat="43.6376298" lon="11.313979"><ele>283.0</ele><time>2026-03-28T09:18:29.943Z</time></trkpt><trkpt lat="43.6375113" lon="11.3139923"><ele>284.25</ele><time>2026-03-28T09:18:30.944Z</time></trkpt><trkpt lat="43.6373914" lon="11.3140053"><ele>285.5</ele><time>2026-03-28T09:18:31.944Z</time></trkpt><trkpt lat="43.6372739" lon="11.3140192"><ele>286.75</ele><time>2026-03-28T09:18:32.944Z</time></trkpt><trkpt lat="43.6371554" lon="11.3140196"><ele>288.0</ele><time>2026-03-28T09:18:33.944Z</time></trkpt><trkpt lat="43.637039" lon="11.314002"><ele>288.5</ele><time>2026-03-28T09:18:34.943Z</time></trkpt><trkpt lat="43.6369246" lon="11.3139586"><ele>289.0</ele><time>2026-03-28T09:18:35.944Z</time></trkpt><trkpt lat="43.6368167" lon="11.313902"><ele>289.5</ele><time>2026-03-28T09:18:36.943Z</time></trkpt><trkpt lat="43.6367086" lon="11.3138375"><ele>290.0</ele><time>2026-03-28T09:18:37.945Z</time></trkpt><trkpt lat="43.6365984" lon="11.3137642"><ele>290.0</ele><time>2026-03-28T09:18:38.944Z</time></trkpt><trkpt lat="43.6364879" lon="11.3137044"><ele>290.0</ele><time>2026-03-28T09:18:39.943Z</time></trkpt><trkpt lat="43.6363746" lon="11.3136418"><ele>290.0</ele><time>2026-03-28T09:18:40.944Z</time></trkpt><trkpt lat="43.6362535" lon="11.3135859"><ele>290.0</ele><time>2026-03-28T09:18:41.945Z</time></trkpt><trkpt lat="43.6361312" lon="11.3135453"><ele>292.5</ele><time>2026-03-28T09:18:42.945Z</time></trkpt><trkpt lat="43.6360008" lon="11.313522"><ele>295.0</ele><time>2026-03-28T09:18:43.945Z</time></trkpt><trkpt lat="43.6358639" lon="11.3134925"><ele>297.5</ele><time>2026-03-28T09:18:44.944Z</time></trkpt><trkpt lat="43.6357186" lon="11.3134607"><ele>300.0</ele><time>2026-03-28T09:18:45.945Z</time></trkpt><trkpt lat="43.635563" lon="11.3134296"><ele>300.0</ele><time>2026-03-28T09:18:46.944Z</time></trkpt><trkpt lat="43.6353955" lon="11.3134246"><ele>300.0</ele><time>2026-03-28T09:18:47.946Z</time></trkpt><trkpt lat="43.6352172" lon="11.3134724"><ele>300.0</ele><time>2026-03-28T09:18:48.944Z</time></trkpt><trkpt lat="43.6350409" lon="11.3135588"><ele>300.0</ele><time>2026-03-28T09:18:49.943Z</time></trkpt><trkpt lat="43.634867" lon="11.3136758"><ele>300.0</ele><time>2026-03-28T09:18:50.944Z</time></trkpt><trkpt lat="43.6347051" lon="11.3137998"><ele>300.0</ele><time>2026-03-28T09:18:51.945Z</time></trkpt><trkpt lat="43.6345457" lon="11.3138986"><ele>301.6666666666667</ele><time>2026-03-28T09:18:52.946Z</time></trkpt><trkpt lat="43.6343812" lon="11.3139645"><ele>303.33333333333337</ele><time>2026-03-28T09:18:53.944Z</time></trkpt><trkpt lat="43.6342076" lon="11.3139598"><ele>305.0</ele><time>2026-03-28T09:18:54.944Z</time></trkpt><trkpt lat="43.6340321" lon="11.3138956"><ele>304.33333333333337</ele><time>2026-03-28T09:18:55.945Z</time></trkpt><trkpt lat="43.6338614" lon="11.3138043"><ele>303.6666666666667</ele><time>2026-03-28T09:18:56.944Z</time></trkpt><trkpt lat="43.6336783" lon="11.3137565"><ele>303.0</ele><time>2026-03-28T09:18:57.945Z</time></trkpt><trkpt lat="43.6334863" lon="11.3137546"><ele>303.0</ele><time>2026-03-28T09:18:58.945Z</time></trkpt><trkpt lat="43.6332913" lon="11.3137821"><ele>303.0</ele><time>2026-03-28T09:18:59.945Z</time></trkpt><trkpt lat="43.6330965" lon="11.3138126"><ele>303.0</ele><time>2026-03-28T09:19:00.944Z</time></trkpt><trkpt lat="43.6329079" lon="11.3138007"><ele>304.3333333333333</ele><time>2026-03-28T09:19:01.945Z</time></trkpt><trkpt lat="43.6327117" lon="11.3137231"><ele>305.66666666666663</ele><time>2026-03-28T09:19:02.945Z</time></trkpt><trkpt lat="43.632522" lon="11.3135973"><ele>307.0</ele><time>2026-03-28T09:19:03.945Z</time></trkpt><trkpt lat="43.6323201" lon="11.3134615"><ele>307.0</ele><time>2026-03-28T09:19:04.945Z</time></trkpt><trkpt lat="43.6321136" lon="11.3133452"><ele>307.0</ele><time>2026-03-28T09:19:05.944Z</time></trkpt><trkpt lat="43.6318927" lon="11.3132419"><ele>306.5</ele><time>2026-03-28T09:19:06.945Z</time></trkpt><trkpt lat="43.6316663" lon="11.3131431"><ele>306.0</ele><time>2026-03-28T09:19:07.944Z</time></trkpt><trkpt lat="43.6314692" lon="11.3130308"><ele>306.0</ele><time>2026-03-28T09:19:08.945Z</time></trkpt><trkpt lat="43.6313076" lon="11.3128737"><ele>306.0</ele><time>2026-03-28T09:19:09.944Z</time></trkpt><trkpt lat="43.631146" lon="11.3127236"><ele>306.0</ele><time>2026-03-28T09:19:10.944Z</time></trkpt><trkpt lat="43.6309745" lon="11.3126068"><ele>311.0</ele><time>2026-03-28T09:19:11.944Z</time></trkpt><trkpt lat="43.6307894" lon="11.312505"><ele>316.0</ele><time>2026-03-28T09:19:12.944Z</time></trkpt><trkpt lat="43.6305967" lon="11.3124193"><ele>321.0</ele><time>2026-03-28T09:19:13.945Z</time></trkpt><trkpt lat="43.6304016" lon="11.3123277"><ele>321.6666666666667</ele><time>2026-03-28T09:19:14.945Z</time></trkpt><trkpt lat="43.6302002" lon="11.3122195"><ele>322.33333333333337</ele><time>2026-03-28T09:19:15.946Z</time></trkpt><trkpt lat="43.6299977" lon="11.312105"><ele>323.0</ele><time>2026-03-28T09:19:16.944Z</time></trkpt><trkpt lat="43.6298191" lon="11.311991"><ele>323.0</ele><time>2026-03-28T09:19:17.944Z</time></trkpt><trkpt lat="43.6296655" lon="11.3118752"><ele>323.0</ele><time>2026-03-28T09:19:18.944Z</time></trkpt><trkpt lat="43.6295333" lon="11.3117587"><ele>323.0</ele><time>2026-03-28T09:19:19.944Z</time></trkpt><trkpt lat="43.6294166" lon="11.3116634"><ele>326.2</ele><time>2026-03-28T09:19:20.945Z</time></trkpt><trkpt lat="43.6293035" lon="11.3115794"><ele>329.4</ele><time>2026-03-28T09:19:21.945Z</time></trkpt><trkpt lat="43.629188" lon="11.3115448"><ele>332.59999999999997</ele><time>2026-03-28T09:19:22.944Z</time></trkpt><trkpt lat="43.6290907" lon="11.3115241"><ele>335.79999999999995</ele><time>2026-03-28T09:19:23.944Z</time></trkpt><trkpt lat="43.6289945" lon="11.3115123"><ele>339.0</ele><time>2026-03-28T09:19:24.946Z</time></trkpt><trkpt lat="43.6289169" lon="11.3115026"><ele>339.0</ele><time>2026-03-28T09:19:25.944Z</time></trkpt><trkpt lat="43.6287943" lon="11.3114902"><ele>339.0</ele><time>2026-03-28T09:19:27.946Z</time></trkpt><trkpt lat="43.628733" lon="11.3115996"><ele>339.0</ele><time>2026-03-28T09:19:29.945Z</time></trkpt><trkpt lat="43.6287033" lon="11.3116811"><ele>339.0</ele><time>2026-03-28T09:19:30.945Z</time></trkpt><trkpt lat="43.6286549" lon="11.3118487"><ele>339.0</ele><time>2026-03-28T09:19:32.944Z</time></trkpt><trkpt lat="43.6286199" lon="11.3119461"><ele>339.8333333333333</ele><time>2026-03-28T09:19:33.944Z</time></trkpt><trkpt lat="43.6285868" lon="11.3120453"><ele>340.6666666666667</ele><time>2026-03-28T09:19:34.944Z</time></trkpt><trkpt lat="43.6285575" lon="11.3121477"><ele>341.5</ele><time>2026-03-28T09:19:35.944Z</time></trkpt><trkpt lat="43.6285334" lon="11.3122481"><ele>342.33333333333337</ele><time>2026-03-28T09:19:36.945Z</time></trkpt><trkpt lat="43.6285353" lon="11.3123643"><ele>343.1666666666667</ele><time>2026-03-28T09:19:37.944Z</time></trkpt><trkpt lat="43.6285562" lon="11.3124829"><ele>344.0</ele><time>2026-03-28T09:19:38.945Z</time></trkpt><trkpt lat="43.6285885" lon="11.3125936"><ele>343.83333333333337</ele><time>2026-03-28T09:19:39.944Z</time></trkpt><trkpt lat="43.6286268" lon="11.312709"><ele>343.6666666666667</ele><time>2026-03-28T09:19:40.945Z</time></trkpt><trkpt lat="43.6286656" lon="11.3128166"><ele>343.5</ele><time>2026-03-28T09:19:41.945Z</time></trkpt><trkpt lat="43.6286999" lon="11.3129268"><ele>343.3333333333333</ele><time>2026-03-28T09:19:42.945Z</time></trkpt><trkpt lat="43.6287415" lon="11.3130252"><ele>343.16666666666663</ele><time>2026-03-28T09:19:43.944Z</time></trkpt><trkpt lat="43.6287757" lon="11.3131228"><ele>343.0</ele><time>2026-03-28T09:19:44.946Z</time></trkpt><trkpt lat="43.6288052" lon="11.3132244"><ele>346.0</ele><time>2026-03-28T09:19:45.945Z</time></trkpt><trkpt lat="43.6288452" lon="11.3133267"><ele>349.0</ele><time>2026-03-28T09:19:46.944Z</time></trkpt><trkpt lat="43.6288813" lon="11.3134478"><ele>352.0</ele><time>2026-03-28T09:19:47.946Z</time></trkpt><trkpt lat="43.6289276" lon="11.3135793"><ele>355.0</ele><time>2026-03-28T09:19:48.945Z</time></trkpt><trkpt lat="43.6289738" lon="11.3137083"><ele>358.0</ele><time>2026-03-28T09:19:49.944Z</time></trkpt><trkpt lat="43.6290246" lon="11.3138363"><ele>358.2</ele><time>2026-03-28T09:19:50.944Z</time></trkpt><trkpt lat="43.6290776" lon="11.3139634"><ele>358.4</ele><time>2026-03-28T09:19:51.945Z</time></trkpt><trkpt lat="43.6291289" lon="11.3140842"><ele>358.59999999999997</ele><time>2026-03-28T09:19:52.944Z</time></trkpt><trkpt lat="43.6291772" lon="11.3141921"><ele>358.79999999999995</ele><time>2026-03-28T09:19:53.945Z</time></trkpt><trkpt lat="43.6292304" lon="11.3142887"><ele>359.0</ele><time>2026-03-28T09:19:54.945Z</time></trkpt><trkpt lat="43.6292813" lon="11.3143748"><ele>359.0</ele><time>2026-03-28T09:19:55.945Z</time></trkpt><trkpt lat="43.6293275" lon="11.3144561"><ele>359.0</ele><time>2026-03-28T09:19:56.944Z</time></trkpt><trkpt lat="43.6293824" lon="11.3145419"><ele>359.0</ele><time>2026-03-28T09:19:57.945Z</time></trkpt><trkpt lat="43.6294388" lon="11.3146435"><ele>359.0</ele><time>2026-03-28T09:19:58.945Z</time></trkpt><trkpt lat="43.629501" lon="11.3147357"><ele>359.0</ele><time>2026-03-28T09:19:59.943Z</time></trkpt><trkpt lat="43.6295579" lon="11.3148458"><ele>359.0</ele><time>2026-03-28T09:20:00.945Z</time></trkpt><trkpt lat="43.6296211" lon="11.314961"><ele>359.6</ele><time>2026-03-28T09:20:01.944Z</time></trkpt><trkpt lat="43.6296823" lon="11.3150757"><ele>360.2</ele><time>2026-03-28T09:20:02.945Z</time></trkpt><trkpt lat="43.6297509" lon="11.3151928"><ele>360.8</ele><time>2026-03-28T09:20:03.944Z</time></trkpt><trkpt lat="43.6298223" lon="11.3153092"><ele>361.40000000000003</ele><time>2026-03-28T09:20:04.944Z</time></trkpt><trkpt lat="43.6299055" lon="11.3154411"><ele>362.0</ele><time>2026-03-28T09:20:05.944Z</time></trkpt><trkpt lat="43.6299951" lon="11.3155802"><ele>360.25</ele><time>2026-03-28T09:20:06.945Z</time></trkpt><trkpt lat="43.6300693" lon="11.3157143"><ele>358.5</ele><time>2026-03-28T09:20:07.946Z</time></trkpt><trkpt lat="43.6301388" lon="11.3158426"><ele>356.75</ele><time>2026-03-28T09:20:08.945Z</time></trkpt><trkpt lat="43.6302139" lon="11.3159549"><ele>355.0</ele><time>2026-03-28T09:20:09.945Z</time></trkpt><trkpt lat="43.6302916" lon="11.3160471"><ele>356.66666666666663</ele><time>2026-03-28T09:20:10.945Z</time></trkpt><trkpt lat="43.6303555" lon="11.3161319"><ele>358.3333333333333</ele><time>2026-03-28T09:20:11.944Z</time></trkpt><trkpt lat="43.6303965" lon="11.3162174"><ele>360.0</ele><time>2026-03-28T09:20:12.945Z</time></trkpt><trkpt lat="43.6304386" lon="11.3163063"><ele>361.6666666666667</ele><time>2026-03-28T09:20:13.944Z</time></trkpt><trkpt lat="43.6304472" lon="11.3164101"><ele>363.33333333333337</ele><time>2026-03-28T09:20:14.945Z</time></trkpt><trkpt lat="43.6304315" lon="11.3165367"><ele>365.0</ele><time>2026-03-28T09:20:15.944Z</time></trkpt><trkpt lat="43.6303914" lon="11.3166454"><ele>365.1666666666667</ele><time>2026-03-28T09:20:16.944Z</time></trkpt><trkpt lat="43.6303436" lon="11.3167383"><ele>365.33333333333337</ele><time>2026-03-28T09:20:17.945Z</time></trkpt><trkpt lat="43.6302468" lon="11.3168"><ele>365.5</ele><time>2026-03-28T09:20:18.945Z</time></trkpt><trkpt lat="43.6301614" lon="11.3168482"><ele>365.6666666666667</ele><time>2026-03-28T09:20:19.945Z</time></trkpt><trkpt lat="43.6300727" lon="11.3168652"><ele>365.8333333333333</ele><time>2026-03-28T09:20:20.945Z</time></trkpt><trkpt lat="43.6299999" lon="11.3168826"><ele>366.0</ele><time>2026-03-28T09:20:21.944Z</time></trkpt><trkpt lat="43.6299348" lon="11.3169131"><ele>365.0</ele><time>2026-03-28T09:20:22.945Z</time></trkpt><trkpt lat="43.6298661" lon="11.3170395"><ele>364.0</ele><time>2026-03-28T09:20:24.944Z</time></trkpt><trkpt lat="43.6298731" lon="11.3171359"><ele>363.0</ele><time>2026-03-28T09:20:25.946Z</time></trkpt><trkpt lat="43.6298894" lon="11.317233"><ele>362.0</ele><time>2026-03-28T09:20:26.946Z</time></trkpt><trkpt lat="43.6299212" lon="11.3173206"><ele>361.0</ele><time>2026-03-28T09:20:27.945Z</time></trkpt><trkpt lat="43.6298948" lon="11.3174728"><ele>360.0</ele><time>2026-03-28T09:20:29.944Z</time></trkpt><trkpt lat="43.6298539" lon="11.3175482"><ele>360.0</ele><time>2026-03-28T09:20:30.945Z</time></trkpt><trkpt lat="43.6297868" lon="11.3176223"><ele>360.0</ele><time>2026-03-28T09:20:31.943Z</time></trkpt><trkpt lat="43.6297034" lon="11.3176735"><ele>360.0</ele><time>2026-03-28T09:20:32.946Z</time></trkpt><trkpt lat="43.629604" lon="11.3176974"><ele>360.0</ele><time>2026-03-28T09:20:33.944Z</time></trkpt><trkpt lat="43.6295088" lon="11.3177002"><ele>360.0</ele><time>2026-03-28T09:20:34.944Z</time></trkpt><trkpt lat="43.6294067" lon="11.3176483"><ele>359.0</ele><time>2026-03-28T09:20:35.945Z</time></trkpt><trkpt lat="43.6293069" lon="11.3175922"><ele>358.0</ele><time>2026-03-28T09:20:36.944Z</time></trkpt><trkpt lat="43.6292168" lon="11.3175558"><ele>357.0</ele><time>2026-03-28T09:20:37.944Z</time></trkpt><trkpt lat="43.6291363" lon="11.3175465"><ele>356.0</ele><time>2026-03-28T09:20:38.943Z</time></trkpt><trkpt lat="43.6290558" lon="11.3175666"><ele>355.0</ele><time>2026-03-28T09:20:39.945Z</time></trkpt><trkpt lat="43.6289709" lon="11.3175875"><ele>355.0</ele><time>2026-03-28T09:20:40.945Z</time></trkpt><trkpt lat="43.6289084" lon="11.3176317"><ele>355.0</ele><time>2026-03-28T09:20:41.944Z</time></trkpt><trkpt lat="43.628846" lon="11.3176866"><ele>355.0</ele><time>2026-03-28T09:20:42.945Z</time></trkpt><trkpt lat="43.6287896" lon="11.317759"><ele>355.0</ele><time>2026-03-28T09:20:43.946Z</time></trkpt><trkpt lat="43.6287378" lon="11.3178461"><ele>355.0</ele><time>2026-03-28T09:20:44.944Z</time></trkpt><trkpt lat="43.6287028" lon="11.3179403"><ele>355.0</ele><time>2026-03-28T09:20:45.944Z</time></trkpt><trkpt lat="43.628687" lon="11.3180397"><ele>357.16666666666663</ele><time>2026-03-28T09:20:46.945Z</time></trkpt><trkpt lat="43.6286862" lon="11.3181545"><ele>359.3333333333333</ele><time>2026-03-28T09:20:47.944Z</time></trkpt><trkpt lat="43.6287085" lon="11.3182383"><ele>361.5</ele><time>2026-03-28T09:20:48.945Z</time></trkpt><trkpt lat="43.6287513" lon="11.3183589"><ele>363.6666666666667</ele><time>2026-03-28T09:20:49.945Z</time></trkpt><trkpt lat="43.6287928" lon="11.3184695"><ele>365.83333333333337</ele><time>2026-03-28T09:20:50.946Z</time></trkpt><trkpt lat="43.6288217" lon="11.318585"><ele>368.0</ele><time>2026-03-28T09:20:51.945Z</time></trkpt><trkpt lat="43.6288494" lon="11.3187027"><ele>368.0</ele><time>2026-03-28T09:20:52.944Z</time></trkpt><trkpt lat="43.628875" lon="11.318828"><ele>368.0</ele><time>2026-03-28T09:20:53.945Z</time></trkpt><trkpt lat="43.6288953" lon="11.3189248"><ele>368.0</ele><time>2026-03-28T09:20:54.945Z</time></trkpt><trkpt lat="43.6289149" lon="11.3190265"><ele>368.0</ele><time>2026-03-28T09:20:55.945Z</time></trkpt><trkpt lat="43.6289386" lon="11.3191236"><ele>368.0</ele><time>2026-03-28T09:20:56.945Z</time></trkpt><trkpt lat="43.6289704" lon="11.3192272"><ele>368.0</ele><time>2026-03-28T09:20:57.944Z</time></trkpt><trkpt lat="43.6290005" lon="11.3193263"><ele>369.0</ele><time>2026-03-28T09:20:58.943Z</time></trkpt><trkpt lat="43.629022" lon="11.319425"><ele>370.0</ele><time>2026-03-28T09:20:59.944Z</time></trkpt><trkpt lat="43.6290343" lon="11.3195213"><ele>371.0</ele><time>2026-03-28T09:21:00.943Z</time></trkpt><trkpt lat="43.6290444" lon="11.3196224"><ele>372.0</ele><time>2026-03-28T09:21:01.944Z</time></trkpt><trkpt lat="43.6290502" lon="11.3197152"><ele>373.0</ele><time>2026-03-28T09:21:02.944Z</time></trkpt><trkpt lat="43.6290143" lon="11.3198423"><ele>374.0</ele><time>2026-03-28T09:21:04.945Z</time></trkpt><trkpt lat="43.628938" lon="11.3198915"><ele>373.79999999999995</ele><time>2026-03-28T09:21:06.944Z</time></trkpt><trkpt lat="43.6288721" lon="11.3199053"><ele>373.59999999999997</ele><time>2026-03-28T09:21:07.946Z</time></trkpt><trkpt lat="43.6287627" lon="11.3198662"><ele>373.4</ele><time>2026-03-28T09:21:08.945Z</time></trkpt><trkpt lat="43.6286633" lon="11.3198365"><ele>373.2</ele><time>2026-03-28T09:21:09.944Z</time></trkpt><trkpt lat="43.6285791" lon="11.319811"><ele>373.0</ele><time>2026-03-28T09:21:10.944Z</time></trkpt><trkpt lat="43.6284959" lon="11.3198083"><ele>373.0</ele><time>2026-03-28T09:21:11.944Z</time></trkpt><trkpt lat="43.6283716" lon="11.3198396"><ele>373.0</ele><time>2026-03-28T09:21:13.943Z</time></trkpt><trkpt lat="43.6283073" lon="11.3198734"><ele>373.0</ele><time>2026-03-28T09:21:14.944Z</time></trkpt><trkpt lat="43.628265" lon="11.3199423"><ele>373.0</ele><time>2026-03-28T09:21:15.943Z</time></trkpt><trkpt lat="43.6282231" lon="11.3200133"><ele>373.0</ele><time>2026-03-28T09:21:16.944Z</time></trkpt><trkpt lat="43.6282031" lon="11.3201038"><ele>373.0</ele><time>2026-03-28T09:21:17.944Z</time></trkpt><trkpt lat="43.6281857" lon="11.3203057"><ele>373.0</ele><time>2026-03-28T09:21:19.944Z</time></trkpt><trkpt lat="43.6281776" lon="11.32041"><ele>373.0</ele><time>2026-03-28T09:21:20.944Z</time></trkpt><trkpt lat="43.6281585" lon="11.320515"><ele>373.0</ele><time>2026-03-28T09:21:21.946Z</time></trkpt><trkpt lat="43.6281267" lon="11.3205938"><ele>373.0</ele><time>2026-03-28T09:21:22.944Z</time></trkpt><trkpt lat="43.6280885" lon="11.3206777"><ele>373.0</ele><time>2026-03-28T09:21:23.944Z</time></trkpt><trkpt lat="43.6280505" lon="11.320776"><ele>373.0</ele><time>2026-03-28T09:21:24.944Z</time></trkpt><trkpt lat="43.628012" lon="11.3209001"><ele>372.2</ele><time>2026-03-28T09:21:25.943Z</time></trkpt><trkpt lat="43.6279777" lon="11.3210249"><ele>371.4</ele><time>2026-03-28T09:21:26.945Z</time></trkpt><trkpt lat="43.6279254" lon="11.3211277"><ele>370.59999999999997</ele><time>2026-03-28T09:21:27.944Z</time></trkpt><trkpt lat="43.6278612" lon="11.3212314"><ele>369.79999999999995</ele><time>2026-03-28T09:21:28.945Z</time></trkpt><trkpt lat="43.6277855" lon="11.3212946"><ele>369.0</ele><time>2026-03-28T09:21:29.945Z</time></trkpt><trkpt lat="43.6277138" lon="11.3213386"><ele>369.0</ele><time>2026-03-28T09:21:30.944Z</time></trkpt><trkpt lat="43.6276268" lon="11.3213501"><ele>369.0</ele><time>2026-03-28T09:21:31.944Z</time></trkpt><trkpt lat="43.6275386" lon="11.3212809"><ele>369.0</ele><time>2026-03-28T09:21:32.943Z</time></trkpt><trkpt lat="43.6274445" lon="11.3212185"><ele>369.0</ele><time>2026-03-28T09:21:33.946Z</time></trkpt><trkpt lat="43.6273723" lon="11.3211413"><ele>369.0</ele><time>2026-03-28T09:21:34.945Z</time></trkpt><trkpt lat="43.6273023" lon="11.3210718"><ele>369.0</ele><time>2026-03-28T09:21:35.945Z</time></trkpt><trkpt lat="43.6272383" lon="11.3210395"><ele>369.0</ele><time>2026-03-28T09:21:36.945Z</time></trkpt><trkpt lat="43.6271503" lon="11.3210775"><ele>369.0</ele><time>2026-03-28T09:21:38.944Z</time></trkpt><trkpt lat="43.6271288" lon="11.3212085"><ele>369.0</ele><time>2026-03-28T09:21:40.944Z</time></trkpt><trkpt lat="43.6271299" lon="11.3213159"><ele>369.0</ele><time>2026-03-28T09:21:41.945Z</time></trkpt><trkpt lat="43.6271403" lon="11.3214569"><ele>369.0</ele><time>2026-03-28T09:21:42.944Z</time></trkpt><trkpt lat="43.6271542" lon="11.3215867"><ele>370.4</ele><time>2026-03-28T09:21:43.945Z</time></trkpt><trkpt lat="43.6271485" lon="11.3217024"><ele>371.79999999999995</ele><time>2026-03-28T09:21:44.945Z</time></trkpt><trkpt lat="43.6271293" lon="11.3217989"><ele>373.20000000000005</ele><time>2026-03-28T09:21:45.945Z</time></trkpt><trkpt lat="43.6270324" lon="11.3218728"><ele>374.6</ele><time>2026-03-28T09:21:47.946Z</time></trkpt><trkpt lat="43.626925" lon="11.3217909"><ele>376.0</ele><time>2026-03-28T09:21:49.944Z</time></trkpt><trkpt lat="43.6268692" lon="11.3217257"><ele>376.0</ele><time>2026-03-28T09:21:50.944Z</time></trkpt><trkpt lat="43.6267884" lon="11.3216247"><ele>376.0</ele><time>2026-03-28T09:21:51.943Z</time></trkpt><trkpt lat="43.6266986" lon="11.3214801"><ele>376.0</ele><time>2026-03-28T09:21:52.945Z</time></trkpt><trkpt lat="43.6266236" lon="11.3213457"><ele>376.0</ele><time>2026-03-28T09:21:53.945Z</time></trkpt><trkpt lat="43.6265575" lon="11.3211907"><ele>373.5</ele><time>2026-03-28T09:21:54.944Z</time></trkpt><trkpt lat="43.6264812" lon="11.3210124"><ele>371.0</ele><time>2026-03-28T09:21:55.945Z</time></trkpt><trkpt lat="43.6264107" lon="11.3208464"><ele>368.5</ele><time>2026-03-28T09:21:56.945Z</time></trkpt><trkpt lat="43.6263376" lon="11.3206735"><ele>366.0</ele><time>2026-03-28T09:21:57.945Z</time></trkpt><trkpt lat="43.6262713" lon="11.320518"><ele>365.20000000000005</ele><time>2026-03-28T09:21:58.945Z</time></trkpt><trkpt lat="43.626228" lon="11.3203816"><ele>364.40000000000003</ele><time>2026-03-28T09:21:59.945Z</time></trkpt><trkpt lat="43.626174" lon="11.3202351"><ele>363.6</ele><time>2026-03-28T09:22:00.945Z</time></trkpt><trkpt lat="43.6261144" lon="11.3201035"><ele>362.8</ele><time>2026-03-28T09:22:01.946Z</time></trkpt><trkpt lat="43.6260653" lon="11.320001"><ele>362.0</ele><time>2026-03-28T09:22:02.944Z</time></trkpt><trkpt lat="43.6260178" lon="11.3199171"><ele>362.0</ele><time>2026-03-28T09:22:03.945Z</time></trkpt><trkpt lat="43.6259512" lon="11.3198635"><ele>362.0</ele><time>2026-03-28T09:22:04.944Z</time></trkpt><trkpt lat="43.6258884" lon="11.3198405"><ele>362.0</ele><time>2026-03-28T09:22:05.946Z</time></trkpt><trkpt lat="43.6258212" lon="11.3198314"><ele>362.0</ele><time>2026-03-28T09:22:06.945Z</time></trkpt><trkpt lat="43.6257534" lon="11.3198637"><ele>362.0</ele><time>2026-03-28T09:22:07.945Z</time></trkpt><trkpt lat="43.6256914" lon="11.3199206"><ele>362.0</ele><time>2026-03-28T09:22:08.945Z</time></trkpt><trkpt lat="43.6256427" lon="11.3200172"><ele>362.0</ele><time>2026-03-28T09:22:09.944Z</time></trkpt><trkpt lat="43.6256092" lon="11.3201566"><ele>362.0</ele><time>2026-03-28T09:22:10.945Z</time></trkpt><trkpt lat="43.6255852" lon="11.3203101"><ele>362.0</ele><time>2026-03-28T09:22:11.944Z</time></trkpt><trkpt lat="43.6255461" lon="11.3204666"><ele>362.0</ele><time>2026-03-28T09:22:12.944Z</time></trkpt><trkpt lat="43.6255026" lon="11.3206316"><ele>362.0</ele><time>2026-03-28T09:22:13.945Z</time></trkpt><trkpt lat="43.6254454" lon="11.3208049"><ele>360.5</ele><time>2026-03-28T09:22:14.945Z</time></trkpt><trkpt lat="43.6253804" lon="11.3209571"><ele>359.0</ele><time>2026-03-28T09:22:15.945Z</time></trkpt><trkpt lat="43.6253275" lon="11.3210977"><ele>357.5</ele><time>2026-03-28T09:22:16.945Z</time></trkpt><trkpt lat="43.6252832" lon="11.3212341"><ele>356.0</ele><time>2026-03-28T09:22:17.944Z</time></trkpt><trkpt lat="43.6252459" lon="11.3213847"><ele>357.8</ele><time>2026-03-28T09:22:18.946Z</time></trkpt><trkpt lat="43.6252222" lon="11.3215434"><ele>359.6</ele><time>2026-03-28T09:22:19.945Z</time></trkpt><trkpt lat="43.6252354" lon="11.321683"><ele>361.4</ele><time>2026-03-28T09:22:20.946Z</time></trkpt><trkpt lat="43.625254" lon="11.3218301"><ele>363.2</ele><time>2026-03-28T09:22:21.945Z</time></trkpt><trkpt lat="43.6252829" lon="11.32197"><ele>365.0</ele><time>2026-03-28T09:22:22.945Z</time></trkpt><trkpt lat="43.6253096" lon="11.3220922"><ele>365.0</ele><time>2026-03-28T09:22:23.944Z</time></trkpt><trkpt lat="43.6252967" lon="11.3221813"><ele>365.0</ele><time>2026-03-28T09:22:24.945Z</time></trkpt><trkpt lat="43.6252258" lon="11.3222465"><ele>365.0</ele><time>2026-03-28T09:22:26.943Z</time></trkpt><trkpt lat="43.6251186" lon="11.3222075"><ele>365.0</ele><time>2026-03-28T09:22:28.946Z</time></trkpt><trkpt lat="43.6250324" lon="11.3221017"><ele>365.0</ele><time>2026-03-28T09:22:29.944Z</time></trkpt><trkpt lat="43.6249699" lon="11.3220089"><ele>365.0</ele><time>2026-03-28T09:22:30.945Z</time></trkpt><trkpt lat="43.6249117" lon="11.3218793"><ele>365.0</ele><time>2026-03-28T09:22:31.945Z</time></trkpt><trkpt lat="43.6248588" lon="11.3217021"><ele>365.0</ele><time>2026-03-28T09:22:32.946Z</time></trkpt><trkpt lat="43.6247957" lon="11.3215175"><ele>365.0</ele><time>2026-03-28T09:22:33.944Z</time></trkpt><trkpt lat="43.6247254" lon="11.3213283"><ele>365.25</ele><time>2026-03-28T09:22:34.944Z</time></trkpt><trkpt lat="43.6246602" lon="11.3211462"><ele>365.5</ele><time>2026-03-28T09:22:35.945Z</time></trkpt><trkpt lat="43.6245923" lon="11.3209772"><ele>365.75</ele><time>2026-03-28T09:22:36.944Z</time></trkpt><trkpt lat="43.6245319" lon="11.3208158"><ele>366.0</ele><time>2026-03-28T09:22:37.945Z</time></trkpt><trkpt lat="43.6244767" lon="11.3206737"><ele>363.20000000000005</ele><time>2026-03-28T09:22:38.946Z</time></trkpt><trkpt lat="43.6244237" lon="11.3205386"><ele>360.40000000000003</ele><time>2026-03-28T09:22:39.944Z</time></trkpt><trkpt lat="43.6243829" lon="11.3204017"><ele>357.6</ele><time>2026-03-28T09:22:40.945Z</time></trkpt><trkpt lat="43.6243461" lon="11.3202687"><ele>354.8</ele><time>2026-03-28T09:22:41.946Z</time></trkpt><trkpt lat="43.6243331" lon="11.3201451"><ele>352.0</ele><time>2026-03-28T09:22:42.946Z</time></trkpt><trkpt lat="43.6243168" lon="11.3200199"><ele>352.0</ele><time>2026-03-28T09:22:43.945Z</time></trkpt><trkpt lat="43.6243045" lon="11.3198869"><ele>352.0</ele><time>2026-03-28T09:22:44.945Z</time></trkpt><trkpt lat="43.6243098" lon="11.3197612"><ele>352.0</ele><time>2026-03-28T09:22:45.946Z</time></trkpt><trkpt lat="43.6242951" lon="11.3196632"><ele>352.0</ele><time>2026-03-28T09:22:46.946Z</time></trkpt><trkpt lat="43.6242725" lon="11.3195612"><ele>352.0</ele><time>2026-03-28T09:22:47.944Z</time></trkpt><trkpt lat="43.624241" lon="11.3194822"><ele>352.0</ele><time>2026-03-28T09:22:48.944Z</time></trkpt><trkpt lat="43.6241456" lon="11.3193992"><ele>352.0</ele><time>2026-03-28T09:22:50.945Z</time></trkpt><trkpt lat="43.6240252" lon="11.3194144"><ele>352.0</ele><time>2026-03-28T09:22:52.945Z</time></trkpt><trkpt lat="43.6239663" lon="11.3194614"><ele>352.0</ele><time>2026-03-28T09:22:53.945Z</time></trkpt><trkpt lat="43.623912" lon="11.3195459"><ele>352.0</ele><time>2026-03-28T09:22:54.944Z</time></trkpt><trkpt lat="43.6238525" lon="11.3196391"><ele>352.0</ele><time>2026-03-28T09:22:55.945Z</time></trkpt><trkpt lat="43.6237865" lon="11.3197193"><ele>352.0</ele><time>2026-03-28T09:22:56.945Z</time></trkpt><trkpt lat="43.6237203" lon="11.319757"><ele>350.0</ele><time>2026-03-28T09:22:57.944Z</time></trkpt><trkpt lat="43.6236382" lon="11.3197855"><ele>348.0</ele><time>2026-03-28T09:22:58.946Z</time></trkpt><trkpt lat="43.6235552" lon="11.319802"><ele>346.0</ele><time>2026-03-28T09:22:59.945Z</time></trkpt><trkpt lat="43.6234486" lon="11.3197946"><ele>344.0</ele><time>2026-03-28T09:23:00.945Z</time></trkpt><trkpt lat="43.6233491" lon="11.3197735"><ele>342.0</ele><time>2026-03-28T09:23:01.946Z</time></trkpt><trkpt lat="43.6232595" lon="11.3197522"><ele>338.5</ele><time>2026-03-28T09:23:02.945Z</time></trkpt><trkpt lat="43.6231792" lon="11.31971"><ele>335.0</ele><time>2026-03-28T09:23:03.944Z</time></trkpt><trkpt lat="43.6231032" lon="11.3196533"><ele>331.5</ele><time>2026-03-28T09:23:04.945Z</time></trkpt><trkpt lat="43.6230334" lon="11.3195986"><ele>328.0</ele><time>2026-03-28T09:23:05.945Z</time></trkpt><trkpt lat="43.6229783" lon="11.3195216"><ele>324.5</ele><time>2026-03-28T09:23:06.945Z</time></trkpt><trkpt lat="43.622918" lon="11.3194516"><ele>321.0</ele><time>2026-03-28T09:23:07.945Z</time></trkpt><trkpt lat="43.6228002" lon="11.3194515"><ele>320.2</ele><time>2026-03-28T09:23:09.946Z</time></trkpt><trkpt lat="43.6227359" lon="11.3195025"><ele>319.40000000000003</ele><time>2026-03-28T09:23:10.945Z</time></trkpt><trkpt lat="43.6226718" lon="11.3195782"><ele>318.6</ele><time>2026-03-28T09:23:11.946Z</time></trkpt><trkpt lat="43.6226177" lon="11.3196786"><ele>317.8</ele><time>2026-03-28T09:23:12.945Z</time></trkpt><trkpt lat="43.6225781" lon="11.3198084"><ele>317.0</ele><time>2026-03-28T09:23:13.944Z</time></trkpt><trkpt lat="43.6225415" lon="11.3199661"><ele>319.5</ele><time>2026-03-28T09:23:14.944Z</time></trkpt><trkpt lat="43.6225104" lon="11.3201225"><ele>322.0</ele><time>2026-03-28T09:23:15.944Z</time></trkpt><trkpt lat="43.6224729" lon="11.3202781"><ele>324.5</ele><time>2026-03-28T09:23:16.944Z</time></trkpt><trkpt lat="43.6224392" lon="11.3204409"><ele>327.0</ele><time>2026-03-28T09:23:17.944Z</time></trkpt><trkpt lat="43.6223776" lon="11.3205991"><ele>328.8</ele><time>2026-03-28T09:23:18.946Z</time></trkpt><trkpt lat="43.6223241" lon="11.3207401"><ele>330.6</ele><time>2026-03-28T09:23:19.945Z</time></trkpt><trkpt lat="43.6222744" lon="11.3208577"><ele>332.40000000000003</ele><time>2026-03-28T09:23:20.946Z</time></trkpt><trkpt lat="43.6222278" lon="11.3209829"><ele>334.20000000000005</ele><time>2026-03-28T09:23:21.946Z</time></trkpt><trkpt lat="43.6221566" lon="11.3210749"><ele>336.0</ele><time>2026-03-28T09:23:22.945Z</time></trkpt><trkpt lat="43.6220604" lon="11.32116"><ele>335.8333333333333</ele><time>2026-03-28T09:23:23.946Z</time></trkpt><trkpt lat="43.6219732" lon="11.3212202"><ele>335.6666666666667</ele><time>2026-03-28T09:23:24.945Z</time></trkpt><trkpt lat="43.6218993" lon="11.3212681"><ele>335.5</ele><time>2026-03-28T09:23:25.945Z</time></trkpt><trkpt lat="43.6218359" lon="11.3212795"><ele>335.33333333333337</ele><time>2026-03-28T09:23:26.943Z</time></trkpt><trkpt lat="43.621736" lon="11.3212077"><ele>335.1666666666667</ele><time>2026-03-28T09:23:28.944Z</time></trkpt><trkpt lat="43.6216992" lon="11.3211369"><ele>335.0</ele><time>2026-03-28T09:23:29.946Z</time></trkpt><trkpt lat="43.6216817" lon="11.3210101"><ele>335.0</ele><time>2026-03-28T09:23:30.945Z</time></trkpt><trkpt lat="43.6216541" lon="11.3209009"><ele>335.0</ele><time>2026-03-28T09:23:31.944Z</time></trkpt><trkpt lat="43.6216127" lon="11.3208076"><ele>335.0</ele><time>2026-03-28T09:23:32.946Z</time></trkpt><trkpt lat="43.6215706" lon="11.3207392"><ele>335.0</ele><time>2026-03-28T09:23:33.945Z</time></trkpt><trkpt lat="43.6215066" lon="11.3206984"><ele>335.0</ele><time>2026-03-28T09:23:34.944Z</time></trkpt><trkpt lat="43.6214343" lon="11.3206832"><ele>335.0</ele><time>2026-03-28T09:23:35.945Z</time></trkpt><trkpt lat="43.6213487" lon="11.3206825"><ele>335.0</ele><time>2026-03-28T09:23:36.945Z</time></trkpt><trkpt lat="43.6212521" lon="11.3206938"><ele>335.0</ele><time>2026-03-28T09:23:37.945Z</time></trkpt><trkpt lat="43.6211533" lon="11.3207165"><ele>335.0</ele><time>2026-03-28T09:23:38.945Z</time></trkpt><trkpt lat="43.6210473" lon="11.320736"><ele>335.0</ele><time>2026-03-28T09:23:39.945Z</time></trkpt><trkpt lat="43.6209445" lon="11.3207518"><ele>335.0</ele><time>2026-03-28T09:23:40.946Z</time></trkpt><trkpt lat="43.6208423" lon="11.3207858"><ele>338.75</ele><time>2026-03-28T09:23:41.945Z</time></trkpt><trkpt lat="43.6207306" lon="11.3208409"><ele>342.5</ele><time>2026-03-28T09:23:42.945Z</time></trkpt><trkpt lat="43.6206211" lon="11.3208997"><ele>346.25</ele><time>2026-03-28T09:23:43.946Z</time></trkpt><trkpt lat="43.6205093" lon="11.3209581"><ele>350.0</ele><time>2026-03-28T09:23:44.945Z</time></trkpt><trkpt lat="43.6204039" lon="11.3210055"><ele>351.8</ele><time>2026-03-28T09:23:45.945Z</time></trkpt><trkpt lat="43.6202967" lon="11.3210545"><ele>353.6</ele><time>2026-03-28T09:23:46.946Z</time></trkpt><trkpt lat="43.6202168" lon="11.3210963"><ele>355.4</ele><time>2026-03-28T09:23:47.944Z</time></trkpt><trkpt lat="43.6201445" lon="11.3211288"><ele>357.2</ele><time>2026-03-28T09:23:48.946Z</time></trkpt><trkpt lat="43.6200351" lon="11.3211513"><ele>359.0</ele><time>2026-03-28T09:23:50.946Z</time></trkpt><trkpt lat="43.6199458" lon="11.3210291"><ele>359.0</ele><time>2026-03-28T09:23:52.946Z</time></trkpt><trkpt lat="43.6199062" lon="11.3209486"><ele>359.0</ele><time>2026-03-28T09:23:53.944Z</time></trkpt><trkpt lat="43.6198748" lon="11.3208642"><ele>359.0</ele><time>2026-03-28T09:23:54.945Z</time></trkpt><trkpt lat="43.6198395" lon="11.3207782"><ele>359.0</ele><time>2026-03-28T09:23:55.945Z</time></trkpt><trkpt lat="43.6197708" lon="11.3205555"><ele>359.0</ele><time>2026-03-28T09:23:58.946Z</time></trkpt><trkpt lat="43.6197201" lon="11.3204274"><ele>358.79999999999995</ele><time>2026-03-28T09:24:00.945Z</time></trkpt><trkpt lat="43.6196677" lon="11.3203088"><ele>358.59999999999997</ele><time>2026-03-28T09:24:02.944Z</time></trkpt><trkpt lat="43.6195949" lon="11.3202199"><ele>358.4</ele><time>2026-03-28T09:24:04.945Z</time></trkpt><trkpt lat="43.619519" lon="11.3201211"><ele>358.2</ele><time>2026-03-28T09:24:06.945Z</time></trkpt><trkpt lat="43.6194486" lon="11.3200347"><ele>358.0</ele><time>2026-03-28T09:24:08.945Z</time></trkpt><trkpt lat="43.6193747" lon="11.3199384"><ele>357.8333333333333</ele><time>2026-03-28T09:24:10.945Z</time></trkpt><trkpt lat="43.619277" lon="11.3198206"><ele>357.66666666666663</ele><time>2026-03-28T09:24:12.945Z</time></trkpt><trkpt lat="43.6192235" lon="11.3197448"><ele>357.5</ele><time>2026-03-28T09:24:13.944Z</time></trkpt><trkpt lat="43.619174" lon="11.3196746"><ele>357.3333333333333</ele><time>2026-03-28T09:24:14.944Z</time></trkpt><trkpt lat="43.6191153" lon="11.3196019"><ele>357.1666666666667</ele><time>2026-03-28T09:24:15.945Z</time></trkpt><trkpt lat="43.6190553" lon="11.3195238"><ele>357.0</ele><time>2026-03-28T09:24:16.945Z</time></trkpt><trkpt lat="43.618996" lon="11.3194453"><ele>357.0</ele><time>2026-03-28T09:24:17.945Z</time></trkpt><trkpt lat="43.6189313" lon="11.319367"><ele>357.0</ele><time>2026-03-28T09:24:18.945Z</time></trkpt><trkpt lat="43.6188712" lon="11.3192861"><ele>357.0</ele><time>2026-03-28T09:24:19.945Z</time></trkpt><trkpt lat="43.6188094" lon="11.3192084"><ele>357.0</ele><time>2026-03-28T09:24:20.944Z</time></trkpt><trkpt lat="43.6187414" lon="11.3191275"><ele>357.0</ele><time>2026-03-28T09:24:21.945Z</time></trkpt><trkpt lat="43.6186757" lon="11.3190505"><ele>357.0</ele><time>2026-03-28T09:24:22.944Z</time></trkpt><trkpt lat="43.6186097" lon="11.3189676"><ele>357.8333333333333</ele><time>2026-03-28T09:24:23.945Z</time></trkpt><trkpt lat="43.6185499" lon="11.3188931"><ele>358.6666666666667</ele><time>2026-03-28T09:24:24.945Z</time></trkpt><trkpt lat="43.6184958" lon="11.318814"><ele>359.5</ele><time>2026-03-28T09:24:25.946Z</time></trkpt><trkpt lat="43.618437" lon="11.3187363"><ele>360.33333333333337</ele><time>2026-03-28T09:24:26.945Z</time></trkpt><trkpt lat="43.6183797" lon="11.3186476"><ele>361.1666666666667</ele><time>2026-03-28T09:24:27.944Z</time></trkpt><trkpt lat="43.6183235" lon="11.3185578"><ele>362.0</ele><time>2026-03-28T09:24:28.945Z</time></trkpt><trkpt lat="43.61825" lon="11.3184772"><ele>362.0</ele><time>2026-03-28T09:24:29.945Z</time></trkpt><trkpt lat="43.6181735" lon="11.3184044"><ele>362.0</ele><time>2026-03-28T09:24:30.945Z</time></trkpt><trkpt lat="43.6180797" lon="11.3183275"><ele>362.0</ele><time>2026-03-28T09:24:31.945Z</time></trkpt><trkpt lat="43.617987" lon="11.3182634"><ele>362.0</ele><time>2026-03-28T09:24:32.945Z</time></trkpt><trkpt lat="43.6178854" lon="11.318199"><ele>362.0</ele><time>2026-03-28T09:24:33.946Z</time></trkpt><trkpt lat="43.6177936" lon="11.3181286"><ele>361.83333333333337</ele><time>2026-03-28T09:24:34.946Z</time></trkpt><trkpt lat="43.6177099" lon="11.3180693"><ele>361.6666666666667</ele><time>2026-03-28T09:24:35.945Z</time></trkpt><trkpt lat="43.6176348" lon="11.3180105"><ele>361.5</ele><time>2026-03-28T09:24:36.945Z</time></trkpt><trkpt lat="43.6175674" lon="11.3179575"><ele>361.3333333333333</ele><time>2026-03-28T09:24:37.945Z</time></trkpt><trkpt lat="43.6174944" lon="11.317899"><ele>361.16666666666663</ele><time>2026-03-28T09:24:38.945Z</time></trkpt><trkpt lat="43.617425" lon="11.3178468"><ele>361.0</ele><time>2026-03-28T09:24:39.946Z</time></trkpt><trkpt lat="43.6173669" lon="11.3177974"><ele>361.0</ele><time>2026-03-28T09:24:40.946Z</time></trkpt><trkpt lat="43.6173022" lon="11.3177459"><ele>361.0</ele><time>2026-03-28T09:24:41.944Z</time></trkpt><trkpt lat="43.6172274" lon="11.3177019"><ele>361.0</ele><time>2026-03-28T09:24:42.944Z</time></trkpt><trkpt lat="43.6171448" lon="11.3176625"><ele>361.0</ele><time>2026-03-28T09:24:43.946Z</time></trkpt><trkpt lat="43.61706" lon="11.317585"><ele>361.0</ele><time>2026-03-28T09:24:44.945Z</time></trkpt><trkpt lat="43.6169725" lon="11.3174985"><ele>360.6</ele><time>2026-03-28T09:24:45.944Z</time></trkpt><trkpt lat="43.616891" lon="11.3174007"><ele>360.20000000000005</ele><time>2026-03-28T09:24:46.945Z</time></trkpt><trkpt lat="43.6168185" lon="11.3173014"><ele>359.79999999999995</ele><time>2026-03-28T09:24:47.946Z</time></trkpt><trkpt lat="43.6167441" lon="11.3172045"><ele>359.4</ele><time>2026-03-28T09:24:48.946Z</time></trkpt><trkpt lat="43.6166808" lon="11.3171144"><ele>359.0</ele><time>2026-03-28T09:24:49.945Z</time></trkpt><trkpt lat="43.6166171" lon="11.3170352"><ele>359.0</ele><time>2026-03-28T09:24:50.945Z</time></trkpt><trkpt lat="43.6165603" lon="11.3169572"><ele>359.0</ele><time>2026-03-28T09:24:51.945Z</time></trkpt><trkpt lat="43.6165043" lon="11.3168728"><ele>359.0</ele><time>2026-03-28T09:24:52.944Z</time></trkpt><trkpt lat="43.6164449" lon="11.316803"><ele>359.0</ele><time>2026-03-28T09:24:53.945Z</time></trkpt><trkpt lat="43.6163782" lon="11.3167475"><ele>359.0</ele><time>2026-03-28T09:24:54.946Z</time></trkpt><trkpt lat="43.6162893" lon="11.316712"><ele>359.0</ele><time>2026-03-28T09:24:55.945Z</time></trkpt><trkpt lat="43.6161991" lon="11.3166831"><ele>358.83333333333337</ele><time>2026-03-28T09:24:56.944Z</time></trkpt><trkpt lat="43.6161125" lon="11.3166419"><ele>358.6666666666667</ele><time>2026-03-28T09:24:57.945Z</time></trkpt><trkpt lat="43.6160313" lon="11.3165946"><ele>358.5</ele><time>2026-03-28T09:24:58.945Z</time></trkpt><trkpt lat="43.6159533" lon="11.3165391"><ele>358.3333333333333</ele><time>2026-03-28T09:24:59.945Z</time></trkpt><trkpt lat="43.6158758" lon="11.3164878"><ele>358.16666666666663</ele><time>2026-03-28T09:25:00.945Z</time></trkpt><trkpt lat="43.6157973" lon="11.3164341"><ele>358.0</ele><time>2026-03-28T09:25:01.946Z</time></trkpt><trkpt lat="43.6157107" lon="11.3163947"><ele>358.0</ele><time>2026-03-28T09:25:02.945Z</time></trkpt><trkpt lat="43.615624" lon="11.3163799"><ele>358.0</ele><time>2026-03-28T09:25:03.945Z</time></trkpt><trkpt lat="43.6155257" lon="11.3163674"><ele>358.0</ele><time>2026-03-28T09:25:04.945Z</time></trkpt><trkpt lat="43.6154158" lon="11.3163684"><ele>358.0</ele><time>2026-03-28T09:25:05.946Z</time></trkpt><trkpt lat="43.615306" lon="11.3163778"><ele>358.0</ele><time>2026-03-28T09:25:06.946Z</time></trkpt><trkpt lat="43.6152012" lon="11.3163806"><ele>355.5</ele><time>2026-03-28T09:25:07.944Z</time></trkpt><trkpt lat="43.6150894" lon="11.3163777"><ele>353.0</ele><time>2026-03-28T09:25:08.945Z</time></trkpt><trkpt lat="43.61497" lon="11.316364"><ele>350.5</ele><time>2026-03-28T09:25:09.946Z</time></trkpt><trkpt lat="43.6148413" lon="11.316344"><ele>348.0</ele><time>2026-03-28T09:25:10.946Z</time></trkpt><trkpt lat="43.6147122" lon="11.3163266"><ele>348.0</ele><time>2026-03-28T09:25:11.945Z</time></trkpt><trkpt lat="43.6145754" lon="11.3163145"><ele>348.0</ele><time>2026-03-28T09:25:12.946Z</time></trkpt><trkpt lat="43.614431" lon="11.3163056"><ele>348.0</ele><time>2026-03-28T09:25:13.945Z</time></trkpt><trkpt lat="43.6142846" lon="11.3163052"><ele>348.0</ele><time>2026-03-28T09:25:14.945Z</time></trkpt><trkpt lat="43.6141357" lon="11.3163017"><ele>343.3333333333333</ele><time>2026-03-28T09:25:15.945Z</time></trkpt><trkpt lat="43.613983" lon="11.3162753"><ele>338.66666666666663</ele><time>2026-03-28T09:25:16.944Z</time></trkpt><trkpt lat="43.6138249" lon="11.3162415"><ele>334.0</ele><time>2026-03-28T09:25:17.946Z</time></trkpt><trkpt lat="43.6136496" lon="11.3161982"><ele>331.0</ele><time>2026-03-28T09:25:18.946Z</time></trkpt><trkpt lat="43.6134902" lon="11.3161576"><ele>328.0</ele><time>2026-03-28T09:25:19.946Z</time></trkpt><trkpt lat="43.613339" lon="11.316119"><ele>325.0</ele><time>2026-03-28T09:25:20.945Z</time></trkpt><trkpt lat="43.6131953" lon="11.316082"><ele>325.0</ele><time>2026-03-28T09:25:21.946Z</time></trkpt><trkpt lat="43.6130595" lon="11.3160376"><ele>325.0</ele><time>2026-03-28T09:25:22.943Z</time></trkpt><trkpt lat="43.6129377" lon="11.3159929"><ele>325.0</ele><time>2026-03-28T09:25:23.946Z</time></trkpt><trkpt lat="43.6128162" lon="11.3159525"><ele>325.0</ele><time>2026-03-28T09:25:24.944Z</time></trkpt><trkpt lat="43.6127025" lon="11.3159274"><ele>323.8</ele><time>2026-03-28T09:25:25.945Z</time></trkpt><trkpt lat="43.6125994" lon="11.3159088"><ele>322.6</ele><time>2026-03-28T09:25:26.945Z</time></trkpt><trkpt lat="43.6125048" lon="11.3158874"><ele>321.4</ele><time>2026-03-28T09:25:27.945Z</time></trkpt><trkpt lat="43.6124114" lon="11.3158782"><ele>320.2</ele><time>2026-03-28T09:25:28.945Z</time></trkpt><trkpt lat="43.6123168" lon="11.3158649"><ele>319.0</ele><time>2026-03-28T09:25:29.946Z</time></trkpt><trkpt lat="43.6122325" lon="11.3158489"><ele>319.0</ele><time>2026-03-28T09:25:30.945Z</time></trkpt><trkpt lat="43.612148" lon="11.3158176"><ele>319.0</ele><time>2026-03-28T09:25:31.946Z</time></trkpt><trkpt lat="43.6120629" lon="11.3157743"><ele>319.0</ele><time>2026-03-28T09:25:32.944Z</time></trkpt><trkpt lat="43.6119689" lon="11.3157108"><ele>319.0</ele><time>2026-03-28T09:25:33.944Z</time></trkpt><trkpt lat="43.611873" lon="11.3156476"><ele>319.0</ele><time>2026-03-28T09:25:34.945Z</time></trkpt><trkpt lat="43.6117672" lon="11.3155803"><ele>316.5</ele><time>2026-03-28T09:25:35.944Z</time></trkpt><trkpt lat="43.6116542" lon="11.3155189"><ele>314.0</ele><time>2026-03-28T09:25:36.946Z</time></trkpt><trkpt lat="43.6115426" lon="11.3154707"><ele>311.5</ele><time>2026-03-28T09:25:37.944Z</time></trkpt><trkpt lat="43.6114369" lon="11.3154258"><ele>309.0</ele><time>2026-03-28T09:25:38.946Z</time></trkpt><trkpt lat="43.6113399" lon="11.3153701"><ele>309.0</ele><time>2026-03-28T09:25:39.944Z</time></trkpt><trkpt lat="43.6112469" lon="11.3153059"><ele>309.0</ele><time>2026-03-28T09:25:40.943Z</time></trkpt><trkpt lat="43.6111501" lon="11.315211"><ele>309.0</ele><time>2026-03-28T09:25:41.946Z</time></trkpt><trkpt lat="43.6110483" lon="11.3151118"><ele>309.0</ele><time>2026-03-28T09:25:42.946Z</time></trkpt><trkpt lat="43.6109469" lon="11.3150215"><ele>308.4</ele><time>2026-03-28T09:25:43.945Z</time></trkpt><trkpt lat="43.6108502" lon="11.3149414"><ele>307.79999999999995</ele><time>2026-03-28T09:25:44.944Z</time></trkpt><trkpt lat="43.6107624" lon="11.3148574"><ele>307.20000000000005</ele><time>2026-03-28T09:25:45.945Z</time></trkpt><trkpt lat="43.6106771" lon="11.3147726"><ele>306.6</ele><time>2026-03-28T09:25:46.945Z</time></trkpt><trkpt lat="43.6105936" lon="11.3146937"><ele>306.0</ele><time>2026-03-28T09:25:47.945Z</time></trkpt><trkpt lat="43.6105089" lon="11.3146015"><ele>303.6</ele><time>2026-03-28T09:25:48.945Z</time></trkpt><trkpt lat="43.6104245" lon="11.3145147"><ele>301.20000000000005</ele><time>2026-03-28T09:25:49.945Z</time></trkpt><trkpt lat="43.6103439" lon="11.3144296"><ele>298.79999999999995</ele><time>2026-03-28T09:25:50.945Z</time></trkpt><trkpt lat="43.6102609" lon="11.3143291"><ele>296.4</ele><time>2026-03-28T09:25:51.945Z</time></trkpt><trkpt lat="43.6101713" lon="11.3142227"><ele>294.0</ele><time>2026-03-28T09:25:52.945Z</time></trkpt><trkpt lat="43.6100822" lon="11.3141223"><ele>293.8</ele><time>2026-03-28T09:25:53.946Z</time></trkpt><trkpt lat="43.6099951" lon="11.314027"><ele>293.59999999999997</ele><time>2026-03-28T09:25:54.946Z</time></trkpt><trkpt lat="43.6099021" lon="11.3139357"><ele>293.4</ele><time>2026-03-28T09:25:55.944Z</time></trkpt><trkpt lat="43.6098048" lon="11.3138758"><ele>293.2</ele><time>2026-03-28T09:25:56.946Z</time></trkpt><trkpt lat="43.6097059" lon="11.3138262"><ele>293.0</ele><time>2026-03-28T09:25:57.945Z</time></trkpt><trkpt lat="43.6096026" lon="11.3137693"><ele>290.25</ele><time>2026-03-28T09:25:58.945Z</time></trkpt><trkpt lat="43.6094997" lon="11.3137103"><ele>287.5</ele><time>2026-03-28T09:25:59.946Z</time></trkpt><trkpt lat="43.6093944" lon="11.3136446"><ele>284.75</ele><time>2026-03-28T09:26:00.946Z</time></trkpt><trkpt lat="43.6092894" lon="11.3135812"><ele>282.0</ele><time>2026-03-28T09:26:01.946Z</time></trkpt><trkpt lat="43.6091917" lon="11.3135032"><ele>281.75</ele><time>2026-03-28T09:26:02.945Z</time></trkpt><trkpt lat="43.6091019" lon="11.3134034"><ele>281.5</ele><time>2026-03-28T09:26:03.946Z</time></trkpt><trkpt lat="43.6090245" lon="11.3132845"><ele>281.25</ele><time>2026-03-28T09:26:04.945Z</time></trkpt><trkpt lat="43.6089478" lon="11.3131637"><ele>281.0</ele><time>2026-03-28T09:26:05.946Z</time></trkpt><trkpt lat="43.6088816" lon="11.3130388"><ele>279.0</ele><time>2026-03-28T09:26:06.945Z</time></trkpt><trkpt lat="43.6088093" lon="11.3129209"><ele>277.0</ele><time>2026-03-28T09:26:07.945Z</time></trkpt><trkpt lat="43.6087382" lon="11.3127984"><ele>275.0</ele><time>2026-03-28T09:26:08.945Z</time></trkpt><trkpt lat="43.6086549" lon="11.3126882"><ele>273.0</ele><time>2026-03-28T09:26:09.946Z</time></trkpt><trkpt lat="43.608568" lon="11.3125775"><ele>270.75</ele><time>2026-03-28T09:26:10.946Z</time></trkpt><trkpt lat="43.6084667" lon="11.3124817"><ele>268.5</ele><time>2026-03-28T09:26:11.945Z</time></trkpt><trkpt lat="43.608383" lon="11.3123852"><ele>266.25</ele><time>2026-03-28T09:26:12.945Z</time></trkpt><trkpt lat="43.6082987" lon="11.3122871"><ele>264.0</ele><time>2026-03-28T09:26:13.944Z</time></trkpt><trkpt lat="43.6082189" lon="11.3121767"><ele>263.75</ele><time>2026-03-28T09:26:14.944Z</time></trkpt><trkpt lat="43.6081492" lon="11.3120552"><ele>263.5</ele><time>2026-03-28T09:26:15.945Z</time></trkpt><trkpt lat="43.6080767" lon="11.3119104"><ele>263.25</ele><time>2026-03-28T09:26:16.946Z</time></trkpt><trkpt lat="43.6080111" lon="11.3117694"><ele>263.0</ele><time>2026-03-28T09:26:17.946Z</time></trkpt><trkpt lat="43.6079457" lon="11.3116332"><ele>263.0</ele><time>2026-03-28T09:26:18.946Z</time></trkpt><trkpt lat="43.6078858" lon="11.3115072"><ele>263.0</ele><time>2026-03-28T09:26:19.947Z</time></trkpt><trkpt lat="43.6078273" lon="11.3113857"><ele>263.0</ele><time>2026-03-28T09:26:20.946Z</time></trkpt><trkpt lat="43.6077724" lon="11.3112736"><ele>263.0</ele><time>2026-03-28T09:26:21.946Z</time></trkpt><trkpt lat="43.607716" lon="11.3111538"><ele>263.0</ele><time>2026-03-28T09:26:22.946Z</time></trkpt><trkpt lat="43.6076506" lon="11.311035"><ele>260.0</ele><time>2026-03-28T09:26:23.945Z</time></trkpt><trkpt lat="43.6075682" lon="11.3109155"><ele>257.0</ele><time>2026-03-28T09:26:24.945Z</time></trkpt><trkpt lat="43.6074801" lon="11.3107998"><ele>254.0</ele><time>2026-03-28T09:26:25.946Z</time></trkpt><trkpt lat="43.6073941" lon="11.3106873"><ele>251.0</ele><time>2026-03-28T09:26:26.945Z</time></trkpt><trkpt lat="43.6073097" lon="11.3105844"><ele>248.8</ele><time>2026-03-28T09:26:27.943Z</time></trkpt><trkpt lat="43.6072281" lon="11.3104816"><ele>246.60000000000002</ele><time>2026-03-28T09:26:28.945Z</time></trkpt><trkpt lat="43.6071432" lon="11.3103759"><ele>244.4</ele><time>2026-03-28T09:26:29.946Z</time></trkpt><trkpt lat="43.6070724" lon="11.3102761"><ele>242.2</ele><time>2026-03-28T09:26:30.945Z</time></trkpt><trkpt lat="43.6070076" lon="11.3101724"><ele>240.0</ele><time>2026-03-28T09:26:31.945Z</time></trkpt><trkpt lat="43.6069544" lon="11.310072"><ele>239.8</ele><time>2026-03-28T09:26:32.945Z</time></trkpt><trkpt lat="43.6069028" lon="11.3099609"><ele>239.6</ele><time>2026-03-28T09:26:33.945Z</time></trkpt><trkpt lat="43.6068476" lon="11.3098525"><ele>239.39999999999998</ele><time>2026-03-28T09:26:34.946Z</time></trkpt><trkpt lat="43.6067714" lon="11.3097461"><ele>239.2</ele><time>2026-03-28T09:26:35.946Z</time></trkpt><trkpt lat="43.6066988" lon="11.309643"><ele>239.0</ele><time>2026-03-28T09:26:36.946Z</time></trkpt><trkpt lat="43.6066166" lon="11.309545"><ele>236.75</ele><time>2026-03-28T09:26:37.945Z</time></trkpt><trkpt lat="43.6065192" lon="11.3094448"><ele>234.5</ele><time>2026-03-28T09:26:38.945Z</time></trkpt><trkpt lat="43.606407" lon="11.3093494"><ele>232.25</ele><time>2026-03-28T09:26:39.946Z</time></trkpt><trkpt lat="43.6063074" lon="11.3092574"><ele>230.0</ele><time>2026-03-28T09:26:40.946Z</time></trkpt><trkpt lat="43.6062175" lon="11.3091449"><ele>229.75</ele><time>2026-03-28T09:26:41.944Z</time></trkpt><trkpt lat="43.606132" lon="11.309026"><ele>229.5</ele><time>2026-03-28T09:26:42.944Z</time></trkpt><trkpt lat="43.60604" lon="11.3089016"><ele>229.25</ele><time>2026-03-28T09:26:43.945Z</time></trkpt><trkpt lat="43.6059468" lon="11.3087687"><ele>229.0</ele><time>2026-03-28T09:26:44.945Z</time></trkpt><trkpt lat="43.6058484" lon="11.308635"><ele>228.5</ele><time>2026-03-28T09:26:45.945Z</time></trkpt><trkpt lat="43.6057505" lon="11.3085156"><ele>228.0</ele><time>2026-03-28T09:26:46.945Z</time></trkpt><trkpt lat="43.6056578" lon="11.3083963"><ele>227.5</ele><time>2026-03-28T09:26:47.946Z</time></trkpt><trkpt lat="43.6055722" lon="11.3082988"><ele>227.0</ele><time>2026-03-28T09:26:48.946Z</time></trkpt><trkpt lat="43.605496" lon="11.3082132"><ele>227.00000000000003</ele><time>2026-03-28T09:26:49.945Z</time></trkpt><trkpt lat="43.6054228" lon="11.3081312"><ele>227.0</ele><time>2026-03-28T09:26:50.945Z</time></trkpt><trkpt lat="43.6053476" lon="11.3080506"><ele>227.0</ele><time>2026-03-28T09:26:51.945Z</time></trkpt><trkpt lat="43.6052841" lon="11.3079843"><ele>227.0</ele><time>2026-03-28T09:26:52.945Z</time></trkpt><trkpt lat="43.6052254" lon="11.3079257"><ele>227.00000000000003</ele><time>2026-03-28T09:26:53.946Z</time></trkpt><trkpt lat="43.6051609" lon="11.3078943"><ele>227.0</ele><time>2026-03-28T09:26:54.945Z</time></trkpt><trkpt lat="43.6050955" lon="11.3078853"><ele>226.39999999999998</ele><time>2026-03-28T09:26:55.946Z</time></trkpt><trkpt lat="43.6050183" lon="11.3079027"><ele>225.79999999999998</ele><time>2026-03-28T09:26:56.945Z</time></trkpt><trkpt lat="43.6049294" lon="11.3079285"><ele>225.2</ele><time>2026-03-28T09:26:57.944Z</time></trkpt><trkpt lat="43.6048406" lon="11.3079495"><ele>224.6</ele><time>2026-03-28T09:26:58.945Z</time></trkpt><trkpt lat="43.6047439" lon="11.3079578"><ele>224.0</ele><time>2026-03-28T09:26:59.945Z</time></trkpt><trkpt lat="43.6046462" lon="11.30795"><ele>224.00000000000003</ele><time>2026-03-28T09:27:00.945Z</time></trkpt><trkpt lat="43.6045541" lon="11.3079356"><ele>224.0</ele><time>2026-03-28T09:27:01.946Z</time></trkpt><trkpt lat="43.604479" lon="11.3079133"><ele>224.0</ele><time>2026-03-28T09:27:02.945Z</time></trkpt><trkpt lat="43.6044157" lon="11.3078976"><ele>224.0</ele><time>2026-03-28T09:27:03.946Z</time></trkpt><trkpt lat="43.6043132" lon="11.3079569"><ele>224.00000000000003</ele><time>2026-03-28T09:27:05.946Z</time></trkpt><trkpt lat="43.6042907" lon="11.3080965"><ele>224.0</ele><time>2026-03-28T09:27:07.946Z</time></trkpt><trkpt lat="43.6042723" lon="11.3082346"><ele>222.66666666666669</ele><time>2026-03-28T09:27:09.946Z</time></trkpt><trkpt lat="43.6042311" lon="11.3083329"><ele>221.33333333333334</ele><time>2026-03-28T09:27:11.946Z</time></trkpt><trkpt lat="43.6041475" lon="11.3084448"><ele>220.0</ele><time>2026-03-28T09:27:14.945Z</time></trkpt><trkpt lat="43.6041123" lon="11.3085224"><ele>218.66666666666669</ele><time>2026-03-28T09:27:15.944Z</time></trkpt><trkpt lat="43.604073" lon="11.3086022"><ele>217.33333333333334</ele><time>2026-03-28T09:27:16.945Z</time></trkpt><trkpt lat="43.6040289" lon="11.3087077"><ele>216.0</ele><time>2026-03-28T09:27:17.945Z</time></trkpt><trkpt lat="43.603982" lon="11.3088194"><ele>216.0</ele><time>2026-03-28T09:27:18.945Z</time></trkpt><trkpt lat="43.6039211" lon="11.3089434"><ele>216.0</ele><time>2026-03-28T09:27:19.945Z</time></trkpt><trkpt lat="43.6038476" lon="11.3090659"><ele>216.0</ele><time>2026-03-28T09:27:20.945Z</time></trkpt><trkpt lat="43.6037505" lon="11.3091656"><ele>216.0</ele><time>2026-03-28T09:27:21.945Z</time></trkpt><trkpt lat="43.6036543" lon="11.3092449"><ele>215.25</ele><time>2026-03-28T09:27:22.945Z</time></trkpt><trkpt lat="43.6035457" lon="11.3093202"><ele>214.5</ele><time>2026-03-28T09:27:23.946Z</time></trkpt><trkpt lat="43.6034324" lon="11.3093958"><ele>213.75</ele><time>2026-03-28T09:27:24.945Z</time></trkpt><trkpt lat="43.6033225" lon="11.3094659"><ele>213.0</ele><time>2026-03-28T09:27:25.945Z</time></trkpt><trkpt lat="43.6032211" lon="11.3095334"><ele>213.0</ele><time>2026-03-28T09:27:26.946Z</time></trkpt><trkpt lat="43.6031244" lon="11.3095858"><ele>213.0</ele><time>2026-03-28T09:27:27.946Z</time></trkpt><trkpt lat="43.6030324" lon="11.3096267"><ele>213.0</ele><time>2026-03-28T09:27:28.945Z</time></trkpt><trkpt lat="43.6029537" lon="11.3096561"><ele>213.0</ele><time>2026-03-28T09:27:29.945Z</time></trkpt><trkpt lat="43.6028823" lon="11.3096677"><ele>213.0</ele><time>2026-03-28T09:27:30.945Z</time></trkpt><trkpt lat="43.6027956" lon="11.3095522"><ele>212.83333333333334</ele><time>2026-03-28T09:27:32.945Z</time></trkpt><trkpt lat="43.602759" lon="11.3094787"><ele>212.66666666666669</ele><time>2026-03-28T09:27:33.945Z</time></trkpt><trkpt lat="43.6027229" lon="11.3093824"><ele>212.5</ele><time>2026-03-28T09:27:34.945Z</time></trkpt><trkpt lat="43.6026808" lon="11.3092769"><ele>212.33333333333334</ele><time>2026-03-28T09:27:35.946Z</time></trkpt><trkpt lat="43.6026446" lon="11.3091591"><ele>212.16666666666669</ele><time>2026-03-28T09:27:36.946Z</time></trkpt><trkpt lat="43.6025965" lon="11.3090446"><ele>212.0</ele><time>2026-03-28T09:27:37.946Z</time></trkpt><trkpt lat="43.6025516" lon="11.3089446"><ele>211.83333333333334</ele><time>2026-03-28T09:27:38.946Z</time></trkpt><trkpt lat="43.6025048" lon="11.3088423"><ele>211.66666666666669</ele><time>2026-03-28T09:27:39.944Z</time></trkpt><trkpt lat="43.6024672" lon="11.3087403"><ele>211.5</ele><time>2026-03-28T09:27:40.946Z</time></trkpt><trkpt lat="43.6024364" lon="11.308637"><ele>211.33333333333331</ele><time>2026-03-28T09:27:41.945Z</time></trkpt><trkpt lat="43.6023896" lon="11.3085263"><ele>211.16666666666666</ele><time>2026-03-28T09:27:42.945Z</time></trkpt><trkpt lat="43.602335" lon="11.3084159"><ele>211.0</ele><time>2026-03-28T09:27:43.946Z</time></trkpt><trkpt lat="43.6022886" lon="11.3082886"><ele>211.0</ele><time>2026-03-28T09:27:44.946Z</time></trkpt><trkpt lat="43.6022356" lon="11.3081751"><ele>211.0</ele><time>2026-03-28T09:27:45.946Z</time></trkpt><trkpt lat="43.602186" lon="11.3080503"><ele>211.0</ele><time>2026-03-28T09:27:46.946Z</time></trkpt><trkpt lat="43.6021418" lon="11.307932"><ele>211.0</ele><time>2026-03-28T09:27:47.945Z</time></trkpt><trkpt lat="43.6020921" lon="11.3078168"><ele>211.0</ele><time>2026-03-28T09:27:48.947Z</time></trkpt><trkpt lat="43.6020492" lon="11.3077112"><ele>210.60000000000002</ele><time>2026-03-28T09:27:49.946Z</time></trkpt><trkpt lat="43.6020079" lon="11.3075924"><ele>210.2</ele><time>2026-03-28T09:27:50.946Z</time></trkpt><trkpt lat="43.6019618" lon="11.3074775"><ele>209.8</ele><time>2026-03-28T09:27:51.945Z</time></trkpt><trkpt lat="43.6019216" lon="11.3073752"><ele>209.39999999999998</ele><time>2026-03-28T09:27:52.946Z</time></trkpt><trkpt lat="43.6018654" lon="11.3072554"><ele>209.0</ele><time>2026-03-28T09:27:53.946Z</time></trkpt><trkpt lat="43.6018151" lon="11.3071472"><ele>210.50000000000003</ele><time>2026-03-28T09:27:54.946Z</time></trkpt><trkpt lat="43.6017692" lon="11.3070321"><ele>212.0</ele><time>2026-03-28T09:27:55.945Z</time></trkpt><trkpt lat="43.6017366" lon="11.3069466"><ele>213.5</ele><time>2026-03-28T09:27:56.945Z</time></trkpt><trkpt lat="43.6017156" lon="11.3068597"><ele>215.0</ele><time>2026-03-28T09:27:57.946Z</time></trkpt><trkpt lat="43.6017019" lon="11.30676"><ele>216.50000000000003</ele><time>2026-03-28T09:27:58.946Z</time></trkpt><trkpt lat="43.6017092" lon="11.306653"><ele>218.0</ele><time>2026-03-28T09:27:59.945Z</time></trkpt><trkpt lat="43.6017145" lon="11.3065189"><ele>217.50000000000003</ele><time>2026-03-28T09:28:00.945Z</time></trkpt><trkpt lat="43.6017244" lon="11.3064034"><ele>217.0</ele><time>2026-03-28T09:28:01.946Z</time></trkpt><trkpt lat="43.6017292" lon="11.3062919"><ele>216.5</ele><time>2026-03-28T09:28:02.946Z</time></trkpt><trkpt lat="43.6017293" lon="11.3061859"><ele>216.0</ele><time>2026-03-28T09:28:03.945Z</time></trkpt><trkpt lat="43.6017166" lon="11.3060929"><ele>215.50000000000003</ele><time>2026-03-28T09:28:04.946Z</time></trkpt><trkpt lat="43.6016379" lon="11.3059756"><ele>215.0</ele><time>2026-03-28T09:28:06.945Z</time></trkpt><trkpt lat="43.6015612" lon="11.3059491"><ele>215.0</ele><time>2026-03-28T09:28:07.946Z</time></trkpt><trkpt lat="43.6014631" lon="11.3059466"><ele>215.0</ele><time>2026-03-28T09:28:08.946Z</time></trkpt><trkpt lat="43.6013589" lon="11.3059652"><ele>215.0</ele><time>2026-03-28T09:28:09.946Z</time></trkpt><trkpt lat="43.601253" lon="11.3059817"><ele>215.0</ele><time>2026-03-28T09:28:10.947Z</time></trkpt><trkpt lat="43.6011338" lon="11.3059863"><ele>215.0</ele><time>2026-03-28T09:28:11.946Z</time></trkpt><trkpt lat="43.6010192" lon="11.3059893"><ele>217.2</ele><time>2026-03-28T09:28:12.945Z</time></trkpt><trkpt lat="43.6009066" lon="11.3059892"><ele>219.4</ele><time>2026-03-28T09:28:13.945Z</time></trkpt><trkpt lat="43.6007942" lon="11.305993"><ele>221.60000000000002</ele><time>2026-03-28T09:28:14.945Z</time></trkpt><trkpt lat="43.6006772" lon="11.3059894"><ele>223.8</ele><time>2026-03-28T09:28:15.945Z</time></trkpt><trkpt lat="43.600575" lon="11.3059953"><ele>226.0</ele><time>2026-03-28T09:28:16.946Z</time></trkpt><trkpt lat="43.6004651" lon="11.3059894"><ele>226.0</ele><time>2026-03-28T09:28:17.946Z</time></trkpt><trkpt lat="43.6003542" lon="11.305984"><ele>226.00000000000003</ele><time>2026-03-28T09:28:18.945Z</time></trkpt><trkpt lat="43.6002432" lon="11.3059752"><ele>226.00000000000003</ele><time>2026-03-28T09:28:19.946Z</time></trkpt><trkpt lat="43.6001426" lon="11.3059708"><ele>226.0</ele><time>2026-03-28T09:28:20.945Z</time></trkpt><trkpt lat="43.6000472" lon="11.3059594"><ele>226.0</ele><time>2026-03-28T09:28:21.947Z</time></trkpt><trkpt lat="43.5999689" lon="11.305956"><ele>227.60000000000002</ele><time>2026-03-28T09:28:22.945Z</time></trkpt><trkpt lat="43.5999003" lon="11.3059718"><ele>229.20000000000002</ele><time>2026-03-28T09:28:23.945Z</time></trkpt><trkpt lat="43.5998462" lon="11.3060211"><ele>230.79999999999998</ele><time>2026-03-28T09:28:24.946Z</time></trkpt><trkpt lat="43.5997905" lon="11.3061659"><ele>232.39999999999998</ele><time>2026-03-28T09:28:26.945Z</time></trkpt><trkpt lat="43.5998182" lon="11.3063223"><ele>234.0</ele><time>2026-03-28T09:28:28.945Z</time></trkpt><trkpt lat="43.5997831" lon="11.3064613"><ele>234.6</ele><time>2026-03-28T09:28:30.945Z</time></trkpt><trkpt lat="43.5997191" lon="11.3065171"><ele>235.2</ele><time>2026-03-28T09:28:31.946Z</time></trkpt><trkpt lat="43.5996393" lon="11.3065568"><ele>235.79999999999998</ele><time>2026-03-28T09:28:32.946Z</time></trkpt><trkpt lat="43.5995351" lon="11.3065596"><ele>236.39999999999998</ele><time>2026-03-28T09:28:33.946Z</time></trkpt><trkpt lat="43.5994406" lon="11.3065547"><ele>237.0</ele><time>2026-03-28T09:28:34.945Z</time></trkpt><trkpt lat="43.5993323" lon="11.3065467"><ele>237.2</ele><time>2026-03-28T09:28:35.946Z</time></trkpt><trkpt lat="43.5992203" lon="11.3065541"><ele>237.39999999999998</ele><time>2026-03-28T09:28:36.945Z</time></trkpt><trkpt lat="43.5991307" lon="11.3065638"><ele>237.60000000000002</ele><time>2026-03-28T09:28:37.945Z</time></trkpt><trkpt lat="43.599042" lon="11.3065996"><ele>237.8</ele><time>2026-03-28T09:28:38.945Z</time></trkpt><trkpt lat="43.5989635" lon="11.3066558"><ele>238.0</ele><time>2026-03-28T09:28:39.946Z</time></trkpt><trkpt lat="43.5988914" lon="11.3067148"><ele>238.0</ele><time>2026-03-28T09:28:40.944Z</time></trkpt><trkpt lat="43.5988209" lon="11.3067699"><ele>238.0</ele><time>2026-03-28T09:28:41.946Z</time></trkpt><trkpt lat="43.5987747" lon="11.3068371"><ele>238.0</ele><time>2026-03-28T09:28:42.945Z</time></trkpt><trkpt lat="43.5987391" lon="11.3069194"><ele>238.0</ele><time>2026-03-28T09:28:43.946Z</time></trkpt><trkpt lat="43.5987261" lon="11.3070092"><ele>238.0</ele><time>2026-03-28T09:28:44.946Z</time></trkpt><trkpt lat="43.5987214" lon="11.3071218"><ele>238.0</ele><time>2026-03-28T09:28:45.945Z</time></trkpt><trkpt lat="43.598704" lon="11.3072263"><ele>238.0</ele><time>2026-03-28T09:28:46.945Z</time></trkpt><trkpt lat="43.5986715" lon="11.307342"><ele>241.2</ele><time>2026-03-28T09:28:47.945Z</time></trkpt><trkpt lat="43.598617" lon="11.3074458"><ele>244.4</ele><time>2026-03-28T09:28:48.945Z</time></trkpt><trkpt lat="43.5985425" lon="11.3075352"><ele>247.59999999999997</ele><time>2026-03-28T09:28:49.946Z</time></trkpt><trkpt lat="43.5984544" lon="11.3076168"><ele>250.79999999999998</ele><time>2026-03-28T09:28:50.946Z</time></trkpt><trkpt lat="43.5983809" lon="11.3076807"><ele>254.0</ele><time>2026-03-28T09:28:51.946Z</time></trkpt><trkpt lat="43.5982957" lon="11.3077288"><ele>254.0</ele><time>2026-03-28T09:28:52.946Z</time></trkpt><trkpt lat="43.5981978" lon="11.3077613"><ele>253.99999999999997</ele><time>2026-03-28T09:28:53.945Z</time></trkpt><trkpt lat="43.5980933" lon="11.307783"><ele>253.99999999999997</ele><time>2026-03-28T09:28:54.945Z</time></trkpt><trkpt lat="43.5979889" lon="11.3078123"><ele>254.0</ele><time>2026-03-28T09:28:55.945Z</time></trkpt><trkpt lat="43.5978942" lon="11.3078554"><ele>254.0</ele><time>2026-03-28T09:28:56.947Z</time></trkpt><trkpt lat="43.5978023" lon="11.3078979"><ele>255.0</ele><time>2026-03-28T09:28:57.946Z</time></trkpt><trkpt lat="43.5977052" lon="11.3079324"><ele>255.99999999999997</ele><time>2026-03-28T09:28:58.945Z</time></trkpt><trkpt lat="43.5976" lon="11.307955"><ele>257.0</ele><time>2026-03-28T09:28:59.945Z</time></trkpt><trkpt lat="43.5974927" lon="11.3079865"><ele>258.0</ele><time>2026-03-28T09:29:00.945Z</time></trkpt><trkpt lat="43.5973836" lon="11.3079974"><ele>259.0</ele><time>2026-03-28T09:29:01.946Z</time></trkpt><trkpt lat="43.597267" lon="11.3080105"><ele>259.0</ele><time>2026-03-28T09:29:02.945Z</time></trkpt><trkpt lat="43.5971448" lon="11.3080369"><ele>259.0</ele><time>2026-03-28T09:29:03.945Z</time></trkpt><trkpt lat="43.597022" lon="11.3080652"><ele>259.0</ele><time>2026-03-28T09:29:04.945Z</time></trkpt><trkpt lat="43.5968863" lon="11.3080804"><ele>259.0</ele><time>2026-03-28T09:29:05.945Z</time></trkpt><trkpt lat="43.5967672" lon="11.3081065"><ele>260.0</ele><time>2026-03-28T09:29:06.946Z</time></trkpt><trkpt lat="43.5966648" lon="11.308136"><ele>261.0</ele><time>2026-03-28T09:29:07.945Z</time></trkpt><trkpt lat="43.5965698" lon="11.3081613"><ele>262.0</ele><time>2026-03-28T09:29:08.947Z</time></trkpt><trkpt lat="43.5964902" lon="11.3081785"><ele>263.0</ele><time>2026-03-28T09:29:09.946Z</time></trkpt><trkpt lat="43.5964173" lon="11.3081964"><ele>264.0</ele><time>2026-03-28T09:29:10.945Z</time></trkpt><trkpt lat="43.5963446" lon="11.3082165"><ele>265.0</ele><time>2026-03-28T09:29:11.946Z</time></trkpt><trkpt lat="43.5962372" lon="11.3081958"><ele>265.0</ele><time>2026-03-28T09:29:13.945Z</time></trkpt><trkpt lat="43.5962178" lon="11.3080829"><ele>265.0</ele><time>2026-03-28T09:29:15.947Z</time></trkpt><trkpt lat="43.5962517" lon="11.3079474"><ele>265.0</ele><time>2026-03-28T09:29:17.946Z</time></trkpt><trkpt lat="43.5962151" lon="11.3078465"><ele>265.0</ele><time>2026-03-28T09:29:19.945Z</time></trkpt><trkpt lat="43.5961004" lon="11.307826"><ele>265.0</ele><time>2026-03-28T09:29:21.944Z</time></trkpt><trkpt lat="43.596027" lon="11.307836"><ele>265.71428571428567</ele><time>2026-03-28T09:29:22.946Z</time></trkpt><trkpt lat="43.5959564" lon="11.307854"><ele>266.42857142857144</ele><time>2026-03-28T09:29:23.945Z</time></trkpt><trkpt lat="43.5958937" lon="11.307867"><ele>267.1428571428571</ele><time>2026-03-28T09:29:24.945Z</time></trkpt><trkpt lat="43.5958235" lon="11.307885"><ele>267.85714285714283</ele><time>2026-03-28T09:29:25.945Z</time></trkpt><trkpt lat="43.5957482" lon="11.3078924"><ele>268.57142857142856</ele><time>2026-03-28T09:29:26.945Z</time></trkpt><trkpt lat="43.5956629" lon="11.3079119"><ele>269.2857142857143</ele><time>2026-03-28T09:29:27.945Z</time></trkpt><trkpt lat="43.5955871" lon="11.3079416"><ele>270.0</ele><time>2026-03-28T09:29:28.946Z</time></trkpt><trkpt lat="43.5955062" lon="11.3079598"><ele>270.0</ele><time>2026-03-28T09:29:29.947Z</time></trkpt><trkpt lat="43.5954322" lon="11.3079653"><ele>270.0</ele><time>2026-03-28T09:29:30.946Z</time></trkpt><trkpt lat="43.5953588" lon="11.3079789"><ele>270.0</ele><time>2026-03-28T09:29:31.945Z</time></trkpt><trkpt lat="43.5952421" lon="11.3080079"><ele>270.0</ele><time>2026-03-28T09:29:33.945Z</time></trkpt><trkpt lat="43.595177" lon="11.3081308"><ele>270.0</ele><time>2026-03-28T09:29:35.945Z</time></trkpt><trkpt lat="43.5951865" lon="11.3082676"><ele>269.6666666666667</ele><time>2026-03-28T09:29:37.946Z</time></trkpt><trkpt lat="43.5951969" lon="11.3084015"><ele>269.3333333333333</ele><time>2026-03-28T09:29:39.945Z</time></trkpt><trkpt lat="43.5951668" lon="11.3085039"><ele>269.0</ele><time>2026-03-28T09:29:41.945Z</time></trkpt><trkpt lat="43.5950846" lon="11.3085501"><ele>268.66666666666663</ele><time>2026-03-28T09:29:43.946Z</time></trkpt><trkpt lat="43.5950147" lon="11.3085692"><ele>268.3333333333333</ele><time>2026-03-28T09:29:44.946Z</time></trkpt><trkpt lat="43.5949397" lon="11.3085834"><ele>268.0</ele><time>2026-03-28T09:29:45.946Z</time></trkpt><trkpt lat="43.5948474" lon="11.3086023"><ele>268.0</ele><time>2026-03-28T09:29:46.946Z</time></trkpt><trkpt lat="43.5947588" lon="11.3086193"><ele>268.0</ele><time>2026-03-28T09:29:47.946Z</time></trkpt><trkpt lat="43.5946775" lon="11.3086375"><ele>268.0</ele><time>2026-03-28T09:29:48.945Z</time></trkpt><trkpt lat="43.5945966" lon="11.3086556"><ele>268.0</ele><time>2026-03-28T09:29:49.946Z</time></trkpt><trkpt lat="43.5945185" lon="11.3086792"><ele>268.0</ele><time>2026-03-28T09:29:50.945Z</time></trkpt><trkpt lat="43.5944451" lon="11.3086973"><ele>268.0</ele><time>2026-03-28T09:29:51.946Z</time></trkpt><trkpt lat="43.5943791" lon="11.3087108"><ele>266.8</ele><time>2026-03-28T09:29:52.945Z</time></trkpt><trkpt lat="43.5942854" lon="11.3087454"><ele>265.6</ele><time>2026-03-28T09:29:54.946Z</time></trkpt><trkpt lat="43.5942357" lon="11.3088045"><ele>264.4</ele><time>2026-03-28T09:29:56.945Z</time></trkpt><trkpt lat="43.5941835" lon="11.3089525"><ele>263.2</ele><time>2026-03-28T09:29:58.945Z</time></trkpt><trkpt lat="43.5941534" lon="11.3090694"><ele>262.0</ele><time>2026-03-28T09:29:59.945Z</time></trkpt><trkpt lat="43.5941222" lon="11.309202"><ele>261.8</ele><time>2026-03-28T09:30:00.946Z</time></trkpt><trkpt lat="43.5940899" lon="11.309339"><ele>261.6</ele><time>2026-03-28T09:30:01.946Z</time></trkpt><trkpt lat="43.5940568" lon="11.3094875"><ele>261.40000000000003</ele><time>2026-03-28T09:30:02.946Z</time></trkpt><trkpt lat="43.5940207" lon="11.3096377"><ele>261.2</ele><time>2026-03-28T09:30:03.946Z</time></trkpt><trkpt lat="43.5939905" lon="11.3097822"><ele>261.0</ele><time>2026-03-28T09:30:04.944Z</time></trkpt><trkpt lat="43.5939526" lon="11.3099109"><ele>260.6</ele><time>2026-03-28T09:30:05.946Z</time></trkpt><trkpt lat="43.5939028" lon="11.3100239"><ele>260.20000000000005</ele><time>2026-03-28T09:30:06.947Z</time></trkpt><trkpt lat="43.5938353" lon="11.3101326"><ele>259.79999999999995</ele><time>2026-03-28T09:30:07.945Z</time></trkpt><trkpt lat="43.5937418" lon="11.3102264"><ele>259.4</ele><time>2026-03-28T09:30:08.945Z</time></trkpt><trkpt lat="43.593626" lon="11.3102991"><ele>259.0</ele><time>2026-03-28T09:30:09.946Z</time></trkpt><trkpt lat="43.5934983" lon="11.3103649"><ele>257.25</ele><time>2026-03-28T09:30:10.945Z</time></trkpt><trkpt lat="43.5933765" lon="11.3104379"><ele>255.5</ele><time>2026-03-28T09:30:11.946Z</time></trkpt><trkpt lat="43.5932531" lon="11.3105042"><ele>253.75</ele><time>2026-03-28T09:30:12.946Z</time></trkpt><trkpt lat="43.5931285" lon="11.3105615"><ele>252.0</ele><time>2026-03-28T09:30:13.945Z</time></trkpt><trkpt lat="43.5930115" lon="11.3106259"><ele>252.0</ele><time>2026-03-28T09:30:14.945Z</time></trkpt><trkpt lat="43.5929043" lon="11.310687"><ele>252.0</ele><time>2026-03-28T09:30:15.947Z</time></trkpt><trkpt lat="43.5928008" lon="11.3107413"><ele>252.0</ele><time>2026-03-28T09:30:16.947Z</time></trkpt><trkpt lat="43.5926973" lon="11.3107896"><ele>252.0</ele><time>2026-03-28T09:30:17.945Z</time></trkpt><trkpt lat="43.5925931" lon="11.3108254"><ele>252.0</ele><time>2026-03-28T09:30:18.946Z</time></trkpt><trkpt lat="43.5924903" lon="11.3108316"><ele>250.5</ele><time>2026-03-28T09:30:19.946Z</time></trkpt><trkpt lat="43.5923767" lon="11.3108304"><ele>249.0</ele><time>2026-03-28T09:30:20.945Z</time></trkpt><trkpt lat="43.5922497" lon="11.3108348"><ele>247.5</ele><time>2026-03-28T09:30:21.945Z</time></trkpt><trkpt lat="43.5921242" lon="11.3108355"><ele>246.0</ele><time>2026-03-28T09:30:22.946Z</time></trkpt><trkpt lat="43.591991" lon="11.3108306"><ele>242.75</ele><time>2026-03-28T09:30:23.946Z</time></trkpt><trkpt lat="43.5918542" lon="11.3108338"><ele>239.5</ele><time>2026-03-28T09:30:24.947Z</time></trkpt><trkpt lat="43.5917143" lon="11.3108248"><ele>236.25</ele><time>2026-03-28T09:30:25.946Z</time></trkpt><trkpt lat="43.591562" lon="11.3108175"><ele>233.0</ele><time>2026-03-28T09:30:26.945Z</time></trkpt><trkpt lat="43.5914066" lon="11.3108047"><ele>233.0</ele><time>2026-03-28T09:30:27.945Z</time></trkpt><trkpt lat="43.5912574" lon="11.3107971"><ele>233.0</ele><time>2026-03-28T09:30:28.945Z</time></trkpt><trkpt lat="43.5911063" lon="11.3108027"><ele>233.0</ele><time>2026-03-28T09:30:29.946Z</time></trkpt><trkpt lat="43.5909634" lon="11.3108414"><ele>233.0</ele><time>2026-03-28T09:30:30.947Z</time></trkpt><trkpt lat="43.590822" lon="11.3109301"><ele>231.0</ele><time>2026-03-28T09:30:31.945Z</time></trkpt><trkpt lat="43.5906956" lon="11.3110555"><ele>229.0</ele><time>2026-03-28T09:30:32.947Z</time></trkpt><trkpt lat="43.5905905" lon="11.3111884"><ele>227.0</ele><time>2026-03-28T09:30:33.946Z</time></trkpt><trkpt lat="43.590499" lon="11.3113272"><ele>225.0</ele><time>2026-03-28T09:30:34.945Z</time></trkpt><trkpt lat="43.5904216" lon="11.3114908"><ele>224.33333333333331</ele><time>2026-03-28T09:30:35.946Z</time></trkpt><trkpt lat="43.5903618" lon="11.3116821"><ele>223.66666666666666</ele><time>2026-03-28T09:30:36.945Z</time></trkpt><trkpt lat="43.5903227" lon="11.3118827"><ele>223.0</ele><time>2026-03-28T09:30:37.945Z</time></trkpt><trkpt lat="43.5902902" lon="11.3120867"><ele>222.75</ele><time>2026-03-28T09:30:38.945Z</time></trkpt><trkpt lat="43.5902609" lon="11.3122775"><ele>222.5</ele><time>2026-03-28T09:30:39.945Z</time></trkpt><trkpt lat="43.5902317" lon="11.3124682"><ele>222.25</ele><time>2026-03-28T09:30:40.946Z</time></trkpt><trkpt lat="43.5902142" lon="11.3126447"><ele>222.0</ele><time>2026-03-28T09:30:41.945Z</time></trkpt><trkpt lat="43.5901978" lon="11.3128079"><ele>222.0</ele><time>2026-03-28T09:30:42.946Z</time></trkpt><trkpt lat="43.5901872" lon="11.3129667"><ele>222.0</ele><time>2026-03-28T09:30:43.946Z</time></trkpt><trkpt lat="43.5901847" lon="11.3131151"><ele>222.0</ele><time>2026-03-28T09:30:44.945Z</time></trkpt><trkpt lat="43.5901821" lon="11.3132711"><ele>222.0</ele><time>2026-03-28T09:30:45.946Z</time></trkpt><trkpt lat="43.5901837" lon="11.3134128"><ele>222.0</ele><time>2026-03-28T09:30:46.947Z</time></trkpt><trkpt lat="43.5901832" lon="11.3135377"><ele>221.83333333333334</ele><time>2026-03-28T09:30:47.947Z</time></trkpt><trkpt lat="43.5901836" lon="11.3136553"><ele>221.66666666666669</ele><time>2026-03-28T09:30:48.946Z</time></trkpt><trkpt lat="43.5901624" lon="11.3137579"><ele>221.5</ele><time>2026-03-28T09:30:49.947Z</time></trkpt><trkpt lat="43.5901171" lon="11.3138535"><ele>221.33333333333334</ele><time>2026-03-28T09:30:50.945Z</time></trkpt><trkpt lat="43.5900682" lon="11.3139316"><ele>221.16666666666669</ele><time>2026-03-28T09:30:51.946Z</time></trkpt><trkpt lat="43.5899852" lon="11.3139966"><ele>221.0</ele><time>2026-03-28T09:30:52.946Z</time></trkpt><trkpt lat="43.5898697" lon="11.31401"><ele>221.4</ele><time>2026-03-28T09:30:53.946Z</time></trkpt><trkpt lat="43.5897637" lon="11.314013"><ele>221.8</ele><time>2026-03-28T09:30:54.946Z</time></trkpt><trkpt lat="43.5896592" lon="11.3139971"><ele>222.20000000000002</ele><time>2026-03-28T09:30:55.945Z</time></trkpt><trkpt lat="43.5895509" lon="11.3139867"><ele>222.60000000000002</ele><time>2026-03-28T09:30:56.945Z</time></trkpt><trkpt lat="43.5894355" lon="11.3139844"><ele>223.0</ele><time>2026-03-28T09:30:57.945Z</time></trkpt><trkpt lat="43.5893117" lon="11.3139698"><ele>223.5</ele><time>2026-03-28T09:30:58.947Z</time></trkpt><trkpt lat="43.5891914" lon="11.3139584"><ele>224.0</ele><time>2026-03-28T09:30:59.946Z</time></trkpt><trkpt lat="43.5890727" lon="11.3139497"><ele>224.5</ele><time>2026-03-28T09:31:00.945Z</time></trkpt><trkpt lat="43.5889516" lon="11.3139322"><ele>225.0</ele><time>2026-03-28T09:31:01.946Z</time></trkpt><trkpt lat="43.5888358" lon="11.3139156"><ele>224.75</ele><time>2026-03-28T09:31:02.945Z</time></trkpt><trkpt lat="43.5887151" lon="11.313899"><ele>224.5</ele><time>2026-03-28T09:31:03.944Z</time></trkpt><trkpt lat="43.5885965" lon="11.3138835"><ele>224.25</ele><time>2026-03-28T09:31:04.945Z</time></trkpt><trkpt lat="43.5884794" lon="11.3138727"><ele>224.0</ele><time>2026-03-28T09:31:05.945Z</time></trkpt><trkpt lat="43.5883659" lon="11.3138617"><ele>224.75</ele><time>2026-03-28T09:31:06.945Z</time></trkpt><trkpt lat="43.5882537" lon="11.3138499"><ele>225.5</ele><time>2026-03-28T09:31:07.947Z</time></trkpt><trkpt lat="43.588138" lon="11.3138269"><ele>226.25</ele><time>2026-03-28T09:31:08.946Z</time></trkpt><trkpt lat="43.5880215" lon="11.3138112"><ele>227.0</ele><time>2026-03-28T09:31:09.946Z</time></trkpt><trkpt lat="43.58791" lon="11.3137944"><ele>227.6</ele><time>2026-03-28T09:31:10.945Z</time></trkpt><trkpt lat="43.5878021" lon="11.313781"><ele>228.2</ele><time>2026-03-28T09:31:11.945Z</time></trkpt><trkpt lat="43.5876985" lon="11.3137637"><ele>228.8</ele><time>2026-03-28T09:31:12.947Z</time></trkpt><trkpt lat="43.5875954" lon="11.3137485"><ele>229.4</ele><time>2026-03-28T09:31:13.947Z</time></trkpt><trkpt lat="43.5874868" lon="11.3137411"><ele>230.0</ele><time>2026-03-28T09:31:14.947Z</time></trkpt><trkpt lat="43.5873789" lon="11.3137314"><ele>230.0</ele><time>2026-03-28T09:31:15.945Z</time></trkpt><trkpt lat="43.5872717" lon="11.3137171"><ele>230.0</ele><time>2026-03-28T09:31:16.946Z</time></trkpt><trkpt lat="43.5871663" lon="11.3137033"><ele>230.0</ele><time>2026-03-28T09:31:17.945Z</time></trkpt><trkpt lat="43.587065" lon="11.3136866"><ele>230.0</ele><time>2026-03-28T09:31:18.945Z</time></trkpt><trkpt lat="43.5869803" lon="11.3136738"><ele>230.0</ele><time>2026-03-28T09:31:19.946Z</time></trkpt><trkpt lat="43.5868995" lon="11.313659"><ele>229.83333333333334</ele><time>2026-03-28T09:31:20.947Z</time></trkpt><trkpt lat="43.586827" lon="11.3136399"><ele>229.66666666666669</ele><time>2026-03-28T09:31:21.946Z</time></trkpt><trkpt lat="43.5867638" lon="11.3136304"><ele>229.5</ele><time>2026-03-28T09:31:22.946Z</time></trkpt><trkpt lat="43.5866662" lon="11.3136566"><ele>229.33333333333331</ele><time>2026-03-28T09:31:24.945Z</time></trkpt><trkpt lat="43.5866082" lon="11.3137049"><ele>229.16666666666666</ele><time>2026-03-28T09:31:26.946Z</time></trkpt><trkpt lat="43.5865871" lon="11.3138208"><ele>229.0</ele><time>2026-03-28T09:31:29.946Z</time></trkpt><trkpt lat="43.58665" lon="11.3139133"><ele>228.83333333333331</ele><time>2026-03-28T09:31:31.945Z</time></trkpt><trkpt lat="43.5867149" lon="11.3139776"><ele>228.66666666666666</ele><time>2026-03-28T09:31:33.945Z</time></trkpt><trkpt lat="43.5867359" lon="11.3140879"><ele>228.5</ele><time>2026-03-28T09:31:35.945Z</time></trkpt><trkpt lat="43.5866895" lon="11.3141981"><ele>228.33333333333331</ele><time>2026-03-28T09:31:37.946Z</time></trkpt><trkpt lat="43.5866134" lon="11.3143223"><ele>228.16666666666666</ele><time>2026-03-28T09:31:39.946Z</time></trkpt><trkpt lat="43.5865729" lon="11.3143918"><ele>228.0</ele><time>2026-03-28T09:31:40.946Z</time></trkpt><trkpt lat="43.5865313" lon="11.3144612"><ele>228.0</ele><time>2026-03-28T09:31:41.947Z</time></trkpt><trkpt lat="43.5864851" lon="11.3145322"><ele>228.0</ele><time>2026-03-28T09:31:42.947Z</time></trkpt><trkpt lat="43.5864023" lon="11.3146593"><ele>228.0</ele><time>2026-03-28T09:31:44.946Z</time></trkpt><trkpt lat="43.5863337" lon="11.314784"><ele>228.0</ele><time>2026-03-28T09:31:46.946Z</time></trkpt><trkpt lat="43.5862911" lon="11.3148828"><ele>228.0</ele><time>2026-03-28T09:31:48.947Z</time></trkpt><trkpt lat="43.5862436" lon="11.3149672"><ele>228.0</ele><time>2026-03-28T09:31:50.946Z</time></trkpt><trkpt lat="43.5862235" lon="11.3150552"><ele>228.0</ele><time>2026-03-28T09:32:54.947Z</time></trkpt><trkpt lat="43.5861719" lon="11.3151398"><ele>228.0</ele><time>2026-03-28T09:32:56.946Z</time></trkpt><trkpt lat="43.5860767" lon="11.3151439"><ele>228.0</ele><time>2026-03-28T09:32:58.946Z</time></trkpt><trkpt lat="43.5860182" lon="11.3150866"><ele>228.0</ele><time>2026-03-28T09:33:00.946Z</time></trkpt><trkpt lat="43.5860844" lon="11.3150494"><ele>228.0</ele><time>2026-03-28T09:33:03.947Z</time></trkpt><trkpt lat="43.5861145" lon="11.3149495"><ele>228.0</ele><time>2026-03-28T09:44:54.947Z</time></trkpt><trkpt lat="43.5860802" lon="11.3150263"><ele>228.0</ele><time>2026-03-28T09:48:27.946Z</time></trkpt><trkpt lat="43.586081" lon="11.3151192"><ele>228.0</ele><time>2026-03-28T09:54:23.948Z</time></trkpt><trkpt lat="43.5860047" lon="11.315102"><ele>228.0</ele><time>2026-03-28T09:54:43.947Z</time></trkpt><trkpt lat="43.5859355" lon="11.3151568"><ele>228.0</ele><time>2026-03-28T09:54:47.969Z</time></trkpt><trkpt lat="43.5859169" lon="11.3152489"><ele>228.0</ele><time>2026-03-28T09:54:50.947Z</time></trkpt><trkpt lat="43.585769" lon="11.3152481"><ele>228.0</ele><time>2026-03-28T09:54:51.947Z</time></trkpt><trkpt lat="43.5856478" lon="11.3152605"><ele>228.0</ele><time>2026-03-28T09:54:52.947Z</time></trkpt><trkpt lat="43.5855276" lon="11.3152798"><ele>228.0</ele><time>2026-03-28T09:54:53.946Z</time></trkpt><trkpt lat="43.5853981" lon="11.3153027"><ele>228.0</ele><time>2026-03-28T09:54:54.948Z</time></trkpt><trkpt lat="43.5852821" lon="11.3153269"><ele>228.4</ele><time>2026-03-28T09:54:55.948Z</time></trkpt><trkpt lat="43.5851875" lon="11.3153431"><ele>228.8</ele><time>2026-03-28T09:54:56.947Z</time></trkpt><trkpt lat="43.5850993" lon="11.3153581"><ele>229.2</ele><time>2026-03-28T09:54:57.947Z</time></trkpt><trkpt lat="43.5850033" lon="11.3153799"><ele>229.6</ele><time>2026-03-28T09:54:58.946Z</time></trkpt><trkpt lat="43.5849057" lon="11.3154008"><ele>230.0</ele><time>2026-03-28T09:54:59.947Z</time></trkpt><trkpt lat="43.5848143" lon="11.3154247"><ele>230.0</ele><time>2026-03-28T09:55:00.948Z</time></trkpt><trkpt lat="43.5847157" lon="11.3154593"><ele>230.0</ele><time>2026-03-28T09:55:01.947Z</time></trkpt><trkpt lat="43.5846265" lon="11.3154919"><ele>230.0</ele><time>2026-03-28T09:55:02.947Z</time></trkpt><trkpt lat="43.5845418" lon="11.3155283"><ele>230.0</ele><time>2026-03-28T09:55:03.947Z</time></trkpt><trkpt lat="43.5844615" lon="11.315563"><ele>230.0</ele><time>2026-03-28T09:55:04.947Z</time></trkpt><trkpt lat="43.5843748" lon="11.3155934"><ele>230.2</ele><time>2026-03-28T09:55:05.948Z</time></trkpt><trkpt lat="43.5842963" lon="11.3156385"><ele>230.4</ele><time>2026-03-28T09:55:06.947Z</time></trkpt><trkpt lat="43.5842179" lon="11.3156983"><ele>230.60000000000002</ele><time>2026-03-28T09:55:07.948Z</time></trkpt><trkpt lat="43.5841443" lon="11.3157705"><ele>230.8</ele><time>2026-03-28T09:55:08.948Z</time></trkpt><trkpt lat="43.5840821" lon="11.3158623"><ele>231.0</ele><time>2026-03-28T09:55:09.947Z</time></trkpt><trkpt lat="43.5840289" lon="11.3159698"><ele>231.0</ele><time>2026-03-28T09:55:10.947Z</time></trkpt><trkpt lat="43.5839773" lon="11.3160716"><ele>231.0</ele><time>2026-03-28T09:55:11.947Z</time></trkpt><trkpt lat="43.5839343" lon="11.3161736"><ele>231.0</ele><time>2026-03-28T09:55:12.948Z</time></trkpt><trkpt lat="43.5838919" lon="11.3162641"><ele>231.0</ele><time>2026-03-28T09:55:13.947Z</time></trkpt><trkpt lat="43.5838536" lon="11.3163504"><ele>231.0</ele><time>2026-03-28T09:55:14.947Z</time></trkpt><trkpt lat="43.5838156" lon="11.3164338"><ele>231.0</ele><time>2026-03-28T09:55:15.947Z</time></trkpt><trkpt lat="43.5837784" lon="11.3165156"><ele>230.83333333333334</ele><time>2026-03-28T09:55:16.947Z</time></trkpt><trkpt lat="43.5837401" lon="11.3165982"><ele>230.66666666666669</ele><time>2026-03-28T09:55:17.948Z</time></trkpt><trkpt lat="43.5837061" lon="11.3166746"><ele>230.5</ele><time>2026-03-28T09:55:18.947Z</time></trkpt><trkpt lat="43.5836462" lon="11.316816"><ele>230.33333333333334</ele><time>2026-03-28T09:55:20.948Z</time></trkpt><trkpt lat="43.5835948" lon="11.3169271"><ele>230.16666666666669</ele><time>2026-03-28T09:55:22.947Z</time></trkpt><trkpt lat="43.5835599" lon="11.3170046"><ele>230.0</ele><time>2026-03-28T09:55:24.947Z</time></trkpt><trkpt lat="43.5835162" lon="11.3170885"><ele>230.66666666666669</ele><time>2026-03-28T09:55:27.948Z</time></trkpt><trkpt lat="43.5834822" lon="11.317162"><ele>231.33333333333334</ele><time>2026-03-28T09:55:32.948Z</time></trkpt><trkpt lat="43.5834462" lon="11.3172486"><ele>232.0</ele><time>2026-03-28T09:56:08.948Z</time></trkpt><trkpt lat="43.5833874" lon="11.3173223"><ele>232.66666666666669</ele><time>2026-03-28T09:56:12.948Z</time></trkpt><trkpt lat="43.5832979" lon="11.3174233"><ele>233.33333333333334</ele><time>2026-03-28T09:56:14.947Z</time></trkpt><trkpt lat="43.5832188" lon="11.3174973"><ele>234.0</ele><time>2026-03-28T09:56:16.949Z</time></trkpt><trkpt lat="43.5831348" lon="11.31755"><ele>234.0</ele><time>2026-03-28T09:56:19.948Z</time></trkpt><trkpt lat="43.5830659" lon="11.3176125"><ele>234.0</ele><time>2026-03-28T09:56:21.948Z</time></trkpt><trkpt lat="43.5829642" lon="11.3176812"><ele>234.0</ele><time>2026-03-28T09:56:23.948Z</time></trkpt><trkpt lat="43.5829075" lon="11.3177196"><ele>234.0</ele><time>2026-03-28T09:56:24.949Z</time></trkpt><trkpt lat="43.5828371" lon="11.3177551"><ele>234.0</ele><time>2026-03-28T09:56:25.947Z</time></trkpt><trkpt lat="43.5827627" lon="11.3177808"><ele>234.0</ele><time>2026-03-28T09:56:26.948Z</time></trkpt><trkpt lat="43.5826647" lon="11.3178165"><ele>234.33333333333334</ele><time>2026-03-28T09:56:27.948Z</time></trkpt><trkpt lat="43.5825662" lon="11.3178579"><ele>234.66666666666669</ele><time>2026-03-28T09:56:28.946Z</time></trkpt><trkpt lat="43.5824702" lon="11.317894"><ele>235.0</ele><time>2026-03-28T09:56:29.949Z</time></trkpt><trkpt lat="43.582384" lon="11.3179182"><ele>235.33333333333334</ele><time>2026-03-28T09:56:30.947Z</time></trkpt><trkpt lat="43.5823091" lon="11.3179438"><ele>235.66666666666669</ele><time>2026-03-28T09:56:31.948Z</time></trkpt><trkpt lat="43.5822424" lon="11.3179538"><ele>236.0</ele><time>2026-03-28T09:56:32.948Z</time></trkpt><trkpt lat="43.5821762" lon="11.3179691"><ele>236.00000000000003</ele><time>2026-03-28T09:56:33.947Z</time></trkpt><trkpt lat="43.5820715" lon="11.3179818"><ele>236.0</ele><time>2026-03-28T09:56:35.948Z</time></trkpt><trkpt lat="43.5819842" lon="11.3179618"><ele>236.0</ele><time>2026-03-28T09:56:37.948Z</time></trkpt><trkpt lat="43.5818926" lon="11.3179468"><ele>236.0</ele><time>2026-03-28T09:56:39.948Z</time></trkpt><trkpt lat="43.5818303" lon="11.3179227"><ele>236.00000000000003</ele><time>2026-03-28T09:56:41.947Z</time></trkpt><trkpt lat="43.581767" lon="11.3179115"><ele>236.0</ele><time>2026-03-28T09:56:48.947Z</time></trkpt><trkpt lat="43.58169" lon="11.3178863"><ele>236.60000000000002</ele><time>2026-03-28T09:56:52.947Z</time></trkpt><trkpt lat="43.581575" lon="11.3178687"><ele>237.20000000000002</ele><time>2026-03-28T09:56:54.948Z</time></trkpt><trkpt lat="43.581495" lon="11.3178762"><ele>237.79999999999998</ele><time>2026-03-28T09:56:55.948Z</time></trkpt><trkpt lat="43.5813999" lon="11.3178834"><ele>238.39999999999998</ele><time>2026-03-28T09:56:56.948Z</time></trkpt><trkpt lat="43.5812951" lon="11.3178832"><ele>239.0</ele><time>2026-03-28T09:56:57.949Z</time></trkpt><trkpt lat="43.5811957" lon="11.3178857"><ele>238.5</ele><time>2026-03-28T09:56:58.948Z</time></trkpt><trkpt lat="43.5810905" lon="11.3178825"><ele>238.0</ele><time>2026-03-28T09:56:59.948Z</time></trkpt><trkpt lat="43.58099" lon="11.317856"><ele>237.5</ele><time>2026-03-28T09:57:00.947Z</time></trkpt><trkpt lat="43.5808849" lon="11.3177961"><ele>237.0</ele><time>2026-03-28T09:57:01.948Z</time></trkpt><trkpt lat="43.5807618" lon="11.3177038"><ele>237.0</ele><time>2026-03-28T09:57:02.947Z</time></trkpt><trkpt lat="43.5806388" lon="11.317613"><ele>237.0</ele><time>2026-03-28T09:57:03.947Z</time></trkpt><trkpt lat="43.5805215" lon="11.3175283"><ele>237.0</ele><time>2026-03-28T09:57:04.947Z</time></trkpt><trkpt lat="43.5804104" lon="11.3174272"><ele>237.0</ele><time>2026-03-28T09:57:05.948Z</time></trkpt><trkpt lat="43.5803174" lon="11.3173118"><ele>238.5</ele><time>2026-03-28T09:57:06.947Z</time></trkpt><trkpt lat="43.5802278" lon="11.3172078"><ele>240.0</ele><time>2026-03-28T09:57:07.948Z</time></trkpt><trkpt lat="43.5801327" lon="11.3171101"><ele>241.5</ele><time>2026-03-28T09:57:08.948Z</time></trkpt><trkpt lat="43.5800178" lon="11.3170295"><ele>243.0</ele><time>2026-03-28T09:57:09.949Z</time></trkpt><trkpt lat="43.579887" lon="11.3169754"><ele>243.0</ele><time>2026-03-28T09:57:10.948Z</time></trkpt><trkpt lat="43.5797522" lon="11.3169285"><ele>243.0</ele><time>2026-03-28T09:57:11.949Z</time></trkpt><trkpt lat="43.5796121" lon="11.3168907"><ele>243.0</ele><time>2026-03-28T09:57:12.948Z</time></trkpt><trkpt lat="43.5794823" lon="11.3168461"><ele>243.0</ele><time>2026-03-28T09:57:13.947Z</time></trkpt><trkpt lat="43.5793533" lon="11.3167983"><ele>242.0</ele><time>2026-03-28T09:57:14.947Z</time></trkpt><trkpt lat="43.5792219" lon="11.3167473"><ele>241.0</ele><time>2026-03-28T09:57:15.948Z</time></trkpt><trkpt lat="43.5790864" lon="11.3166931"><ele>240.0</ele><time>2026-03-28T09:57:16.947Z</time></trkpt><trkpt lat="43.5789496" lon="11.3166321"><ele>239.0</ele><time>2026-03-28T09:57:17.948Z</time></trkpt><trkpt lat="43.5788025" lon="11.3165861"><ele>239.33333333333334</ele><time>2026-03-28T09:57:18.946Z</time></trkpt><trkpt lat="43.578647" lon="11.3165586"><ele>239.66666666666669</ele><time>2026-03-28T09:57:19.948Z</time></trkpt><trkpt lat="43.5784836" lon="11.3165477"><ele>240.0</ele><time>2026-03-28T09:57:20.948Z</time></trkpt><trkpt lat="43.5783125" lon="11.3165631"><ele>240.0</ele><time>2026-03-28T09:57:21.948Z</time></trkpt><trkpt lat="43.5781454" lon="11.3166035"><ele>240.0</ele><time>2026-03-28T09:57:22.948Z</time></trkpt><trkpt lat="43.577981" lon="11.3166531"><ele>240.0</ele><time>2026-03-28T09:57:23.947Z</time></trkpt><trkpt lat="43.5778207" lon="11.316715"><ele>241.33333333333331</ele><time>2026-03-28T09:57:24.947Z</time></trkpt><trkpt lat="43.5776648" lon="11.3167733"><ele>242.66666666666666</ele><time>2026-03-28T09:57:25.948Z</time></trkpt><trkpt lat="43.5775023" lon="11.3168285"><ele>244.0</ele><time>2026-03-28T09:57:26.948Z</time></trkpt><trkpt lat="43.5773417" lon="11.3168936"><ele>244.0</ele><time>2026-03-28T09:57:27.948Z</time></trkpt><trkpt lat="43.5771691" lon="11.3169553"><ele>244.0</ele><time>2026-03-28T09:57:28.949Z</time></trkpt><trkpt lat="43.5769913" lon="11.3170377"><ele>244.0</ele><time>2026-03-28T09:57:29.947Z</time></trkpt><trkpt lat="43.576798" lon="11.3171364"><ele>242.66666666666666</ele><time>2026-03-28T09:57:30.947Z</time></trkpt><trkpt lat="43.5766154" lon="11.3172273"><ele>241.33333333333331</ele><time>2026-03-28T09:57:31.947Z</time></trkpt><trkpt lat="43.5764435" lon="11.3173174"><ele>240.0</ele><time>2026-03-28T09:57:32.947Z</time></trkpt><trkpt lat="43.5762787" lon="11.3174031"><ele>241.33333333333331</ele><time>2026-03-28T09:57:33.947Z</time></trkpt><trkpt lat="43.5761199" lon="11.3174828"><ele>242.66666666666666</ele><time>2026-03-28T09:57:34.947Z</time></trkpt><trkpt lat="43.5759615" lon="11.317569"><ele>244.0</ele><time>2026-03-28T09:57:35.948Z</time></trkpt><trkpt lat="43.5758007" lon="11.3176518"><ele>244.0</ele><time>2026-03-28T09:57:36.947Z</time></trkpt><trkpt lat="43.5756446" lon="11.3177239"><ele>244.0</ele><time>2026-03-28T09:57:37.948Z</time></trkpt><trkpt lat="43.5754864" lon="11.3178065"><ele>244.0</ele><time>2026-03-28T09:57:38.947Z</time></trkpt><trkpt lat="43.5753197" lon="11.3178982"><ele>243.66666666666666</ele><time>2026-03-28T09:57:39.947Z</time></trkpt><trkpt lat="43.5751535" lon="11.3179892"><ele>243.33333333333331</ele><time>2026-03-28T09:57:40.949Z</time></trkpt><trkpt lat="43.5749704" lon="11.3180715"><ele>243.0</ele><time>2026-03-28T09:57:41.947Z</time></trkpt><trkpt lat="43.5747782" lon="11.3181676"><ele>243.0</ele><time>2026-03-28T09:57:42.948Z</time></trkpt><trkpt lat="43.5745841" lon="11.3182607"><ele>243.0</ele><time>2026-03-28T09:57:43.947Z</time></trkpt><trkpt lat="43.574399" lon="11.3183505"><ele>243.0</ele><time>2026-03-28T09:57:44.947Z</time></trkpt><trkpt lat="43.5742183" lon="11.3184466"><ele>248.0</ele><time>2026-03-28T09:57:45.947Z</time></trkpt><trkpt lat="43.5740366" lon="11.318536"><ele>253.0</ele><time>2026-03-28T09:57:46.948Z</time></trkpt><trkpt lat="43.5738534" lon="11.3186243"><ele>258.0</ele><time>2026-03-28T09:57:47.948Z</time></trkpt><trkpt lat="43.573671" lon="11.3187166"><ele>255.0</ele><time>2026-03-28T09:57:48.947Z</time></trkpt><trkpt lat="43.5734909" lon="11.3188065"><ele>252.0</ele><time>2026-03-28T09:57:49.948Z</time></trkpt><trkpt lat="43.573313" lon="11.3188973"><ele>249.0</ele><time>2026-03-28T09:57:50.947Z</time></trkpt><trkpt lat="43.5731301" lon="11.3189872"><ele>249.0</ele><time>2026-03-28T09:57:51.948Z</time></trkpt><trkpt lat="43.5729472" lon="11.3190792"><ele>249.0</ele><time>2026-03-28T09:57:52.948Z</time></trkpt><trkpt lat="43.5727676" lon="11.3191683"><ele>249.0</ele><time>2026-03-28T09:57:53.948Z</time></trkpt><trkpt lat="43.5725941" lon="11.3192555"><ele>252.0</ele><time>2026-03-28T09:57:54.947Z</time></trkpt><trkpt lat="43.572418" lon="11.3193434"><ele>255.0</ele><time>2026-03-28T09:57:55.947Z</time></trkpt><trkpt lat="43.572241" lon="11.3194339"><ele>258.0</ele><time>2026-03-28T09:57:56.948Z</time></trkpt><trkpt lat="43.5720615" lon="11.3195277"><ele>255.33333333333331</ele><time>2026-03-28T09:57:57.948Z</time></trkpt><trkpt lat="43.5718847" lon="11.3196154"><ele>252.66666666666666</ele><time>2026-03-28T09:57:58.946Z</time></trkpt><trkpt lat="43.5717035" lon="11.3197096"><ele>250.0</ele><time>2026-03-28T09:57:59.948Z</time></trkpt><trkpt lat="43.5715208" lon="11.319801"><ele>250.0</ele><time>2026-03-28T09:58:00.947Z</time></trkpt><trkpt lat="43.5713372" lon="11.3198853"><ele>250.0</ele><time>2026-03-28T09:58:01.949Z</time></trkpt><trkpt lat="43.5711498" lon="11.3199746"><ele>250.0</ele><time>2026-03-28T09:58:02.949Z</time></trkpt><trkpt lat="43.5709629" lon="11.3200686"><ele>253.0</ele><time>2026-03-28T09:58:03.948Z</time></trkpt><trkpt lat="43.5707858" lon="11.3201583"><ele>256.0</ele><time>2026-03-28T09:58:04.949Z</time></trkpt><trkpt lat="43.5706035" lon="11.3202467"><ele>259.0</ele><time>2026-03-28T09:58:05.948Z</time></trkpt><trkpt lat="43.5704203" lon="11.3203137"><ele>260.0</ele><time>2026-03-28T09:58:06.948Z</time></trkpt><trkpt lat="43.5702387" lon="11.3203653"><ele>261.0</ele><time>2026-03-28T09:58:07.949Z</time></trkpt><trkpt lat="43.5700539" lon="11.3204119"><ele>262.0</ele><time>2026-03-28T09:58:08.948Z</time></trkpt><trkpt lat="43.5698704" lon="11.3204582"><ele>262.0</ele><time>2026-03-28T09:58:09.948Z</time></trkpt><trkpt lat="43.5697022" lon="11.3205003"><ele>262.0</ele><time>2026-03-28T09:58:10.948Z</time></trkpt><trkpt lat="43.5695544" lon="11.3205552"><ele>262.0</ele><time>2026-03-28T09:58:11.947Z</time></trkpt><trkpt lat="43.5694334" lon="11.3206165"><ele>263.25</ele><time>2026-03-28T09:58:12.948Z</time></trkpt><trkpt lat="43.5693443" lon="11.3207032"><ele>264.5</ele><time>2026-03-28T09:58:13.947Z</time></trkpt><trkpt lat="43.5692792" lon="11.3208291"><ele>265.75</ele><time>2026-03-28T09:58:14.949Z</time></trkpt><trkpt lat="43.5692375" lon="11.3209873"><ele>267.0</ele><time>2026-03-28T09:58:15.947Z</time></trkpt><trkpt lat="43.5692123" lon="11.3211711"><ele>267.0</ele><time>2026-03-28T09:58:16.948Z</time></trkpt><trkpt lat="43.5691891" lon="11.3213667"><ele>267.0</ele><time>2026-03-28T09:58:17.947Z</time></trkpt><trkpt lat="43.5691447" lon="11.3215735"><ele>267.0</ele><time>2026-03-28T09:58:18.949Z</time></trkpt><trkpt lat="43.5690692" lon="11.3217836"><ele>265.6666666666667</ele><time>2026-03-28T09:58:19.947Z</time></trkpt><trkpt lat="43.5689802" lon="11.3219909"><ele>264.33333333333337</ele><time>2026-03-28T09:58:20.947Z</time></trkpt><trkpt lat="43.5688698" lon="11.3221655"><ele>263.0</ele><time>2026-03-28T09:58:21.948Z</time></trkpt><trkpt lat="43.5687809" lon="11.3223225"><ele>267.0</ele><time>2026-03-28T09:58:22.948Z</time></trkpt><trkpt lat="43.5686698" lon="11.3224464"><ele>271.0</ele><time>2026-03-28T09:58:23.948Z</time></trkpt><trkpt lat="43.5685407" lon="11.3225227"><ele>275.0</ele><time>2026-03-28T09:58:24.948Z</time></trkpt><trkpt lat="43.5683892" lon="11.3225768"><ele>279.0</ele><time>2026-03-28T09:58:25.947Z</time></trkpt><trkpt lat="43.5682114" lon="11.3226117"><ele>279.0</ele><time>2026-03-28T09:58:26.947Z</time></trkpt><trkpt lat="43.5680165" lon="11.3226474"><ele>279.0</ele><time>2026-03-28T09:58:27.948Z</time></trkpt><trkpt lat="43.56782" lon="11.3226942"><ele>279.0</ele><time>2026-03-28T09:58:28.948Z</time></trkpt><trkpt lat="43.5676497" lon="11.3227336"><ele>281.3333333333333</ele><time>2026-03-28T09:58:29.948Z</time></trkpt><trkpt lat="43.5674783" lon="11.3227454"><ele>283.66666666666663</ele><time>2026-03-28T09:58:30.948Z</time></trkpt><trkpt lat="43.5673096" lon="11.3226978"><ele>286.0</ele><time>2026-03-28T09:58:31.947Z</time></trkpt><trkpt lat="43.567142" lon="11.322603"><ele>284.66666666666663</ele><time>2026-03-28T09:58:32.949Z</time></trkpt><trkpt lat="43.566973" lon="11.3224898"><ele>283.3333333333333</ele><time>2026-03-28T09:58:33.947Z</time></trkpt><trkpt lat="43.566779" lon="11.3224091"><ele>282.0</ele><time>2026-03-28T09:58:34.948Z</time></trkpt><trkpt lat="43.566585" lon="11.3223488"><ele>282.0</ele><time>2026-03-28T09:58:35.949Z</time></trkpt><trkpt lat="43.5663925" lon="11.3223277"><ele>282.0</ele><time>2026-03-28T09:58:36.948Z</time></trkpt><trkpt lat="43.5662068" lon="11.3223533"><ele>282.0</ele><time>2026-03-28T09:58:37.948Z</time></trkpt><trkpt lat="43.5660049" lon="11.3224119"><ele>283.0</ele><time>2026-03-28T09:58:38.947Z</time></trkpt><trkpt lat="43.5658085" lon="11.3224738"><ele>284.0</ele><time>2026-03-28T09:58:39.947Z</time></trkpt><trkpt lat="43.5656103" lon="11.3225201"><ele>285.0</ele><time>2026-03-28T09:58:40.947Z</time></trkpt><trkpt lat="43.56542" lon="11.3225397"><ele>288.3333333333333</ele><time>2026-03-28T09:58:41.948Z</time></trkpt><trkpt lat="43.5652301" lon="11.3225699"><ele>291.66666666666663</ele><time>2026-03-28T09:58:42.949Z</time></trkpt><trkpt lat="43.5650615" lon="11.3226502"><ele>295.0</ele><time>2026-03-28T09:58:43.948Z</time></trkpt><trkpt lat="43.5648973" lon="11.3227603"><ele>295.0</ele><time>2026-03-28T09:58:44.947Z</time></trkpt><trkpt lat="43.5647475" lon="11.3228791"><ele>295.0</ele><time>2026-03-28T09:58:45.948Z</time></trkpt><trkpt lat="43.5646075" lon="11.3229832"><ele>295.0</ele><time>2026-03-28T09:58:46.949Z</time></trkpt><trkpt lat="43.5644495" lon="11.3230705"><ele>295.3333333333333</ele><time>2026-03-28T09:58:47.947Z</time></trkpt><trkpt lat="43.5642782" lon="11.3231177"><ele>295.6666666666667</ele><time>2026-03-28T09:58:48.948Z</time></trkpt><trkpt lat="43.5641014" lon="11.3231459"><ele>296.0</ele><time>2026-03-28T09:58:49.948Z</time></trkpt><trkpt lat="43.5639193" lon="11.323174"><ele>296.0</ele><time>2026-03-28T09:58:50.948Z</time></trkpt><trkpt lat="43.5637327" lon="11.3232416"><ele>296.0</ele><time>2026-03-28T09:58:51.947Z</time></trkpt><trkpt lat="43.5635407" lon="11.3233506"><ele>296.0</ele><time>2026-03-28T09:58:52.947Z</time></trkpt><trkpt lat="43.5633547" lon="11.3234912"><ele>299.6666666666667</ele><time>2026-03-28T09:58:53.947Z</time></trkpt><trkpt lat="43.563179" lon="11.3236211"><ele>303.3333333333333</ele><time>2026-03-28T09:58:54.947Z</time></trkpt><trkpt lat="43.5630019" lon="11.3237208"><ele>307.0</ele><time>2026-03-28T09:58:55.947Z</time></trkpt><trkpt lat="43.5628045" lon="11.3237871"><ele>305.66666666666663</ele><time>2026-03-28T09:58:56.949Z</time></trkpt><trkpt lat="43.5625987" lon="11.3238213"><ele>304.3333333333333</ele><time>2026-03-28T09:58:57.948Z</time></trkpt><trkpt lat="43.562391" lon="11.3238964"><ele>303.0</ele><time>2026-03-28T09:58:58.948Z</time></trkpt><trkpt lat="43.5622122" lon="11.324017"><ele>303.0</ele><time>2026-03-28T09:58:59.949Z</time></trkpt><trkpt lat="43.5620432" lon="11.3241427"><ele>303.0</ele><time>2026-03-28T09:59:00.948Z</time></trkpt><trkpt lat="43.5618577" lon="11.3242341"><ele>303.0</ele><time>2026-03-28T09:59:01.947Z</time></trkpt><trkpt lat="43.5616628" lon="11.3243018"><ele>307.3333333333333</ele><time>2026-03-28T09:59:02.948Z</time></trkpt><trkpt lat="43.5614748" lon="11.3243634"><ele>311.66666666666663</ele><time>2026-03-28T09:59:03.948Z</time></trkpt><trkpt lat="43.5612807" lon="11.3243829"><ele>316.0</ele><time>2026-03-28T09:59:04.948Z</time></trkpt><trkpt lat="43.5610779" lon="11.3243827"><ele>318.0</ele><time>2026-03-28T09:59:05.947Z</time></trkpt><trkpt lat="43.5608864" lon="11.3243667"><ele>320.0</ele><time>2026-03-28T09:59:06.948Z</time></trkpt><trkpt lat="43.5607268" lon="11.3242894"><ele>322.0</ele><time>2026-03-28T09:59:07.947Z</time></trkpt><trkpt lat="43.5605711" lon="11.3242153"><ele>322.0</ele><time>2026-03-28T09:59:08.947Z</time></trkpt><trkpt lat="43.5604432" lon="11.3241369"><ele>322.0</ele><time>2026-03-28T09:59:09.947Z</time></trkpt><trkpt lat="43.5603122" lon="11.3240421"><ele>322.0</ele><time>2026-03-28T09:59:10.947Z</time></trkpt><trkpt lat="43.560188" lon="11.3239221"><ele>322.0</ele><time>2026-03-28T09:59:11.948Z</time></trkpt><trkpt lat="43.5600643" lon="11.3237959"><ele>324.0</ele><time>2026-03-28T09:59:12.947Z</time></trkpt><trkpt lat="43.5599448" lon="11.3236723"><ele>326.0</ele><time>2026-03-28T09:59:13.948Z</time></trkpt><trkpt lat="43.5598215" lon="11.3235503"><ele>328.0</ele><time>2026-03-28T09:59:14.948Z</time></trkpt><trkpt lat="43.5597025" lon="11.323424"><ele>328.0</ele><time>2026-03-28T09:59:15.947Z</time></trkpt><trkpt lat="43.5595895" lon="11.3232965"><ele>328.0</ele><time>2026-03-28T09:59:16.948Z</time></trkpt><trkpt lat="43.5595121" lon="11.3231375"><ele>328.0</ele><time>2026-03-28T09:59:17.949Z</time></trkpt><trkpt lat="43.5594464" lon="11.3229781"><ele>328.0</ele><time>2026-03-28T09:59:18.948Z</time></trkpt><trkpt lat="43.5593949" lon="11.3228155"><ele>329.25</ele><time>2026-03-28T09:59:19.948Z</time></trkpt><trkpt lat="43.5593298" lon="11.3226564"><ele>330.5</ele><time>2026-03-28T09:59:20.948Z</time></trkpt><trkpt lat="43.5592509" lon="11.3225299"><ele>331.75</ele><time>2026-03-28T09:59:21.946Z</time></trkpt><trkpt lat="43.5591462" lon="11.3224404"><ele>333.0</ele><time>2026-03-28T09:59:22.948Z</time></trkpt><trkpt lat="43.5590243" lon="11.3223958"><ele>333.0</ele><time>2026-03-28T09:59:23.948Z</time></trkpt><trkpt lat="43.558895" lon="11.3223772"><ele>333.0</ele><time>2026-03-28T09:59:24.949Z</time></trkpt><trkpt lat="43.558764" lon="11.3224293"><ele>333.0</ele><time>2026-03-28T09:59:25.948Z</time></trkpt><trkpt lat="43.5586374" lon="11.3224731"><ele>333.0</ele><time>2026-03-28T09:59:26.948Z</time></trkpt><trkpt lat="43.5585189" lon="11.3225171"><ele>334.0</ele><time>2026-03-28T09:59:27.948Z</time></trkpt><trkpt lat="43.5584041" lon="11.3225574"><ele>335.0</ele><time>2026-03-28T09:59:28.948Z</time></trkpt><trkpt lat="43.5582948" lon="11.3226048"><ele>336.0</ele><time>2026-03-28T09:59:29.949Z</time></trkpt><trkpt lat="43.5582307" lon="11.322638"><ele>337.0</ele><time>2026-03-28T09:59:30.947Z</time></trkpt><trkpt lat="43.5581692" lon="11.3226829"><ele>338.0</ele><time>2026-03-28T09:59:31.948Z</time></trkpt><trkpt lat="43.558086" lon="11.3227272"><ele>338.0</ele><time>2026-03-28T09:59:33.948Z</time></trkpt><trkpt lat="43.5581644" lon="11.3226663"><ele>338.0</ele><time>2026-03-28T09:59:43.948Z</time></trkpt><trkpt lat="43.5582319" lon="11.32266"><ele>338.0</ele><time>2026-03-28T09:59:45.947Z</time></trkpt><trkpt lat="43.5583036" lon="11.3226454"><ele>338.0</ele><time>2026-03-28T10:00:19.948Z</time></trkpt><trkpt lat="43.5584163" lon="11.322603"><ele>338.0</ele><time>2026-03-28T10:00:21.949Z</time></trkpt><trkpt lat="43.5584955" lon="11.3225702"><ele>338.0</ele><time>2026-03-28T10:00:22.948Z</time></trkpt><trkpt lat="43.5585841" lon="11.3225373"><ele>338.0</ele><time>2026-03-28T10:00:23.948Z</time></trkpt><trkpt lat="43.558683" lon="11.3225007"><ele>338.0</ele><time>2026-03-28T10:00:24.949Z</time></trkpt><trkpt lat="43.5587923" lon="11.3224722"><ele>338.0</ele><time>2026-03-28T10:00:25.949Z</time></trkpt><trkpt lat="43.5589017" lon="11.322447"><ele>338.0</ele><time>2026-03-28T10:00:26.949Z</time></trkpt><trkpt lat="43.5590191" lon="11.3224452"><ele>338.0</ele><time>2026-03-28T10:00:27.949Z</time></trkpt><trkpt lat="43.5591261" lon="11.322489"><ele>336.75</ele><time>2026-03-28T10:00:28.947Z</time></trkpt><trkpt lat="43.5592341" lon="11.3225622"><ele>335.5</ele><time>2026-03-28T10:00:29.946Z</time></trkpt><trkpt lat="43.5593176" lon="11.3226795"><ele>334.25</ele><time>2026-03-28T10:00:30.947Z</time></trkpt><trkpt lat="43.55939" lon="11.3228288"><ele>333.0</ele><time>2026-03-28T10:00:31.948Z</time></trkpt><trkpt lat="43.5594397" lon="11.3229951"><ele>331.3333333333333</ele><time>2026-03-28T10:00:32.947Z</time></trkpt><trkpt lat="43.5595017" lon="11.3231584"><ele>329.66666666666663</ele><time>2026-03-28T10:00:33.948Z</time></trkpt><trkpt lat="43.5595971" lon="11.3233205"><ele>328.0</ele><time>2026-03-28T10:00:34.948Z</time></trkpt><trkpt lat="43.5597182" lon="11.323477"><ele>328.0</ele><time>2026-03-28T10:00:35.949Z</time></trkpt><trkpt lat="43.5598529" lon="11.3236239"><ele>328.0</ele><time>2026-03-28T10:00:36.948Z</time></trkpt><trkpt lat="43.5599838" lon="11.3237662"><ele>328.0</ele><time>2026-03-28T10:00:37.949Z</time></trkpt><trkpt lat="43.5601124" lon="11.3239004"><ele>326.0</ele><time>2026-03-28T10:00:38.949Z</time></trkpt><trkpt lat="43.5602518" lon="11.3240357"><ele>324.0</ele><time>2026-03-28T10:00:39.948Z</time></trkpt><trkpt lat="43.5604087" lon="11.324144"><ele>322.0</ele><time>2026-03-28T10:00:40.947Z</time></trkpt><trkpt lat="43.560565" lon="11.3242439"><ele>322.0</ele><time>2026-03-28T10:00:41.949Z</time></trkpt><trkpt lat="43.5607171" lon="11.3243165"><ele>322.0</ele><time>2026-03-28T10:00:42.948Z</time></trkpt><trkpt lat="43.5608744" lon="11.3243623"><ele>322.0</ele><time>2026-03-28T10:00:43.948Z</time></trkpt><trkpt lat="43.5610348" lon="11.3243985"><ele>320.0</ele><time>2026-03-28T10:00:44.947Z</time></trkpt><trkpt lat="43.5612042" lon="11.3244102"><ele>318.0</ele><time>2026-03-28T10:00:45.949Z</time></trkpt><trkpt lat="43.5613652" lon="11.3244024"><ele>316.0</ele><time>2026-03-28T10:00:46.949Z</time></trkpt><trkpt lat="43.5615316" lon="11.3243619"><ele>316.0</ele><time>2026-03-28T10:00:47.949Z</time></trkpt><trkpt lat="43.561698" lon="11.3243154"><ele>316.0</ele><time>2026-03-28T10:00:48.948Z</time></trkpt><trkpt lat="43.5618618" lon="11.3242563"><ele>316.0</ele><time>2026-03-28T10:00:49.947Z</time></trkpt><trkpt lat="43.5620157" lon="11.324178"><ele>311.66666666666663</ele><time>2026-03-28T10:00:50.949Z</time></trkpt><trkpt lat="43.562164" lon="11.324073"><ele>307.3333333333333</ele><time>2026-03-28T10:00:51.947Z</time></trkpt><trkpt lat="43.5623145" lon="11.3239696"><ele>303.0</ele><time>2026-03-28T10:00:52.948Z</time></trkpt><trkpt lat="43.5624687" lon="11.3238974"><ele>304.3333333333333</ele><time>2026-03-28T10:00:53.949Z</time></trkpt><trkpt lat="43.5626333" lon="11.3238556"><ele>305.66666666666663</ele><time>2026-03-28T10:00:54.948Z</time></trkpt><trkpt lat="43.5628172" lon="11.3238207"><ele>307.0</ele><time>2026-03-28T10:00:55.948Z</time></trkpt><trkpt lat="43.563007" lon="11.3237224"><ele>307.0</ele><time>2026-03-28T10:00:56.948Z</time></trkpt><trkpt lat="43.5631937" lon="11.323611"><ele>307.0</ele><time>2026-03-28T10:00:57.948Z</time></trkpt><trkpt lat="43.5633734" lon="11.3234866"><ele>307.0</ele><time>2026-03-28T10:00:58.946Z</time></trkpt><trkpt lat="43.5635313" lon="11.3233725"><ele>303.3333333333333</ele><time>2026-03-28T10:00:59.948Z</time></trkpt><trkpt lat="43.5636987" lon="11.3232713"><ele>299.6666666666667</ele><time>2026-03-28T10:01:00.948Z</time></trkpt><trkpt lat="43.5638788" lon="11.3232052"><ele>296.0</ele><time>2026-03-28T10:01:01.948Z</time></trkpt><trkpt lat="43.5640543" lon="11.3231657"><ele>296.0</ele><time>2026-03-28T10:01:02.947Z</time></trkpt><trkpt lat="43.5642266" lon="11.3231459"><ele>296.0</ele><time>2026-03-28T10:01:03.947Z</time></trkpt><trkpt lat="43.5643845" lon="11.32311"><ele>296.0</ele><time>2026-03-28T10:01:04.947Z</time></trkpt><trkpt lat="43.5645277" lon="11.3230441"><ele>295.8</ele><time>2026-03-28T10:01:05.949Z</time></trkpt><trkpt lat="43.5646522" lon="11.3229669"><ele>295.6</ele><time>2026-03-28T10:01:06.947Z</time></trkpt><trkpt lat="43.5647697" lon="11.3228815"><ele>295.4</ele><time>2026-03-28T10:01:07.948Z</time></trkpt><trkpt lat="43.5648487" lon="11.3228151"><ele>295.2</ele><time>2026-03-28T10:01:08.948Z</time></trkpt><trkpt lat="43.5649252" lon="11.3227604"><ele>295.0</ele><time>2026-03-28T10:01:09.948Z</time></trkpt><trkpt lat="43.5649965" lon="11.3227066"><ele>295.0</ele><time>2026-03-28T10:01:10.948Z</time></trkpt><trkpt lat="43.5650708" lon="11.3226698"><ele>295.0</ele><time>2026-03-28T10:01:12.947Z</time></trkpt><trkpt lat="43.5651268" lon="11.3225863"><ele>295.0</ele><time>2026-03-28T10:01:15.948Z</time></trkpt><trkpt lat="43.5650666" lon="11.3225419"><ele>295.0</ele><time>2026-03-28T10:01:19.949Z</time></trkpt><trkpt lat="43.5649863" lon="11.3225448"><ele>295.0</ele><time>2026-03-28T10:01:24.949Z</time></trkpt><trkpt lat="43.5649185" lon="11.3225521"><ele>295.0</ele><time>2026-03-28T10:01:25.948Z</time></trkpt><trkpt lat="43.564846" lon="11.322563"><ele>295.0</ele><time>2026-03-28T10:01:26.949Z</time></trkpt><trkpt lat="43.5647537" lon="11.3225804"><ele>295.0</ele><time>2026-03-28T10:01:27.947Z</time></trkpt><trkpt lat="43.5646492" lon="11.3225939"><ele>295.0</ele><time>2026-03-28T10:01:28.947Z</time></trkpt><trkpt lat="43.5645405" lon="11.3226053"><ele>295.0</ele><time>2026-03-28T10:01:29.949Z</time></trkpt><trkpt lat="43.5644318" lon="11.322615"><ele>295.0</ele><time>2026-03-28T10:01:30.948Z</time></trkpt><trkpt lat="43.5643197" lon="11.3226278"><ele>297.75</ele><time>2026-03-28T10:01:31.948Z</time></trkpt><trkpt lat="43.5642064" lon="11.3226318"><ele>300.5</ele><time>2026-03-28T10:01:32.949Z</time></trkpt><trkpt lat="43.564092" lon="11.3226432"><ele>303.25</ele><time>2026-03-28T10:01:33.947Z</time></trkpt><trkpt lat="43.5639827" lon="11.3226448"><ele>306.0</ele><time>2026-03-28T10:01:34.949Z</time></trkpt><trkpt lat="43.5638688" lon="11.3226637"><ele>306.0</ele><time>2026-03-28T10:01:35.949Z</time></trkpt><trkpt lat="43.5637534" lon="11.3226666"><ele>306.0</ele><time>2026-03-28T10:01:36.948Z</time></trkpt><trkpt lat="43.5636361" lon="11.322685"><ele>306.0</ele><time>2026-03-28T10:01:37.949Z</time></trkpt><trkpt lat="43.5635278" lon="11.3226972"><ele>306.0</ele><time>2026-03-28T10:01:38.948Z</time></trkpt><trkpt lat="43.5634101" lon="11.3227145"><ele>308.40000000000003</ele><time>2026-03-28T10:01:39.948Z</time></trkpt><trkpt lat="43.5632986" lon="11.322722"><ele>310.8</ele><time>2026-03-28T10:01:40.947Z</time></trkpt><trkpt lat="43.5631919" lon="11.3227248"><ele>313.20000000000005</ele><time>2026-03-28T10:01:41.948Z</time></trkpt><trkpt lat="43.5630854" lon="11.3227224"><ele>315.6</ele><time>2026-03-28T10:01:42.949Z</time></trkpt><trkpt lat="43.5629723" lon="11.3227222"><ele>318.0</ele><time>2026-03-28T10:01:43.948Z</time></trkpt><trkpt lat="43.5628652" lon="11.3227243"><ele>319.6</ele><time>2026-03-28T10:01:44.947Z</time></trkpt><trkpt lat="43.5627542" lon="11.3227181"><ele>321.20000000000005</ele><time>2026-03-28T10:01:45.949Z</time></trkpt><trkpt lat="43.5626561" lon="11.3227188"><ele>322.8</ele><time>2026-03-28T10:01:46.948Z</time></trkpt><trkpt lat="43.5625653" lon="11.3227"><ele>324.40000000000003</ele><time>2026-03-28T10:01:47.947Z</time></trkpt><trkpt lat="43.5624589" lon="11.322669"><ele>326.0</ele><time>2026-03-28T10:01:48.947Z</time></trkpt><trkpt lat="43.5623518" lon="11.3226456"><ele>326.0</ele><time>2026-03-28T10:01:49.949Z</time></trkpt><trkpt lat="43.5622613" lon="11.3226359"><ele>326.0</ele><time>2026-03-28T10:01:50.948Z</time></trkpt><trkpt lat="43.5621426" lon="11.3226045"><ele>326.0</ele><time>2026-03-28T10:01:51.948Z</time></trkpt><trkpt lat="43.5620262" lon="11.3226174"><ele>326.0</ele><time>2026-03-28T10:01:52.949Z</time></trkpt><trkpt lat="43.5619169" lon="11.322624"><ele>326.0</ele><time>2026-03-28T10:01:53.949Z</time></trkpt><trkpt lat="43.5618023" lon="11.3226128"><ele>328.0</ele><time>2026-03-28T10:01:54.947Z</time></trkpt><trkpt lat="43.5616953" lon="11.3225979"><ele>330.0</ele><time>2026-03-28T10:01:55.947Z</time></trkpt><trkpt lat="43.5615787" lon="11.3225188"><ele>332.0</ele><time>2026-03-28T10:01:56.949Z</time></trkpt><trkpt lat="43.5614598" lon="11.322461"><ele>334.0</ele><time>2026-03-28T10:01:57.948Z</time></trkpt><trkpt lat="43.5613286" lon="11.3223879"><ele>334.0</ele><time>2026-03-28T10:01:58.948Z</time></trkpt><trkpt lat="43.5612114" lon="11.3223298"><ele>334.0</ele><time>2026-03-28T10:01:59.948Z</time></trkpt><trkpt lat="43.5611058" lon="11.3222914"><ele>334.0</ele><time>2026-03-28T10:02:00.948Z</time></trkpt><trkpt lat="43.5610115" lon="11.3222492"><ele>334.0</ele><time>2026-03-28T10:02:01.946Z</time></trkpt><trkpt lat="43.5609172" lon="11.3222047"><ele>334.0</ele><time>2026-03-28T10:02:02.948Z</time></trkpt><trkpt lat="43.5608199" lon="11.3221697"><ele>334.16666666666663</ele><time>2026-03-28T10:02:03.946Z</time></trkpt><trkpt lat="43.5607153" lon="11.3221338"><ele>334.3333333333333</ele><time>2026-03-28T10:02:04.948Z</time></trkpt><trkpt lat="43.5606352" lon="11.3220939"><ele>334.5</ele><time>2026-03-28T10:02:05.948Z</time></trkpt><trkpt lat="43.5605648" lon="11.3220548"><ele>334.6666666666667</ele><time>2026-03-28T10:02:06.949Z</time></trkpt><trkpt lat="43.5604893" lon="11.3220209"><ele>334.83333333333337</ele><time>2026-03-28T10:02:07.948Z</time></trkpt><trkpt lat="43.5604261" lon="11.3220006"><ele>335.0</ele><time>2026-03-28T10:02:08.948Z</time></trkpt><trkpt lat="43.5603402" lon="11.3219525"><ele>336.1428571428571</ele><time>2026-03-28T10:02:10.949Z</time></trkpt><trkpt lat="43.5602546" lon="11.3219148"><ele>337.2857142857143</ele><time>2026-03-28T10:02:12.947Z</time></trkpt><trkpt lat="43.5601955" lon="11.3218825"><ele>338.42857142857144</ele><time>2026-03-28T10:02:13.949Z</time></trkpt><trkpt lat="43.5601329" lon="11.3218216"><ele>339.57142857142856</ele><time>2026-03-28T10:02:14.949Z</time></trkpt><trkpt lat="43.5600719" lon="11.321779"><ele>340.7142857142857</ele><time>2026-03-28T10:02:15.948Z</time></trkpt><trkpt lat="43.5600154" lon="11.3217291"><ele>341.85714285714283</ele><time>2026-03-28T10:02:16.948Z</time></trkpt><trkpt lat="43.5599577" lon="11.3216931"><ele>343.0</ele><time>2026-03-28T10:02:17.948Z</time></trkpt><trkpt lat="43.5598512" lon="11.3216489"><ele>343.0</ele><time>2026-03-28T10:02:19.948Z</time></trkpt><trkpt lat="43.5597416" lon="11.3216384"><ele>343.0</ele><time>2026-03-28T10:02:21.948Z</time></trkpt><trkpt lat="43.5596317" lon="11.3216362"><ele>343.0</ele><time>2026-03-28T10:02:23.948Z</time></trkpt><trkpt lat="43.5595515" lon="11.3216241"><ele>343.0</ele><time>2026-03-28T10:02:26.948Z</time></trkpt><trkpt lat="43.5594736" lon="11.3216404"><ele>343.0</ele><time>2026-03-28T10:06:00.949Z</time></trkpt><trkpt lat="43.5594067" lon="11.3216526"><ele>343.0</ele><time>2026-03-28T10:06:02.949Z</time></trkpt><trkpt lat="43.5593366" lon="11.321668"><ele>343.4</ele><time>2026-03-28T10:06:03.948Z</time></trkpt><trkpt lat="43.5592205" lon="11.3217136"><ele>343.79999999999995</ele><time>2026-03-28T10:06:05.949Z</time></trkpt><trkpt lat="43.5591161" lon="11.3217711"><ele>344.2</ele><time>2026-03-28T10:06:06.948Z</time></trkpt><trkpt lat="43.5590333" lon="11.3218158"><ele>344.6</ele><time>2026-03-28T10:06:07.949Z</time></trkpt><trkpt lat="43.5589524" lon="11.3218376"><ele>345.0</ele><time>2026-03-28T10:06:08.949Z</time></trkpt><trkpt lat="43.5588493" lon="11.3218509"><ele>345.0</ele><time>2026-03-28T10:06:09.949Z</time></trkpt><trkpt lat="43.5587253" lon="11.3218689"><ele>345.0</ele><time>2026-03-28T10:06:10.949Z</time></trkpt><trkpt lat="43.5586043" lon="11.3218861"><ele>345.0</ele><time>2026-03-28T10:06:11.948Z</time></trkpt><trkpt lat="43.5584853" lon="11.3219001"><ele>345.0</ele><time>2026-03-28T10:06:12.949Z</time></trkpt><trkpt lat="43.5583629" lon="11.3219116"><ele>349.0</ele><time>2026-03-28T10:06:13.948Z</time></trkpt><trkpt lat="43.558248" lon="11.321926"><ele>353.0</ele><time>2026-03-28T10:06:14.948Z</time></trkpt><trkpt lat="43.5581325" lon="11.321946"><ele>357.0</ele><time>2026-03-28T10:06:15.949Z</time></trkpt><trkpt lat="43.5580214" lon="11.3219638"><ele>361.0</ele><time>2026-03-28T10:06:16.948Z</time></trkpt><trkpt lat="43.5579151" lon="11.3219793"><ele>362.5</ele><time>2026-03-28T10:06:17.949Z</time></trkpt><trkpt lat="43.557806" lon="11.3219842"><ele>364.0</ele><time>2026-03-28T10:06:18.947Z</time></trkpt><trkpt lat="43.5576921" lon="11.3219906"><ele>365.5</ele><time>2026-03-28T10:06:19.949Z</time></trkpt><trkpt lat="43.5575668" lon="11.3219873"><ele>367.0</ele><time>2026-03-28T10:06:20.948Z</time></trkpt><trkpt lat="43.5574228" lon="11.3219711"><ele>367.0</ele><time>2026-03-28T10:06:21.949Z</time></trkpt><trkpt lat="43.5572781" lon="11.3219426"><ele>367.0</ele><time>2026-03-28T10:06:22.949Z</time></trkpt><trkpt lat="43.5571259" lon="11.3219176"><ele>367.0</ele><time>2026-03-28T10:06:23.948Z</time></trkpt><trkpt lat="43.5569732" lon="11.3218873"><ele>367.0</ele><time>2026-03-28T10:06:24.948Z</time></trkpt><trkpt lat="43.556826" lon="11.3218674"><ele>367.0</ele><time>2026-03-28T10:06:25.949Z</time></trkpt><trkpt lat="43.5566732" lon="11.3218529"><ele>367.0</ele><time>2026-03-28T10:06:26.948Z</time></trkpt><trkpt lat="43.5565289" lon="11.32183"><ele>367.0</ele><time>2026-03-28T10:06:27.948Z</time></trkpt><trkpt lat="43.5563939" lon="11.3218157"><ele>367.0</ele><time>2026-03-28T10:06:28.948Z</time></trkpt><trkpt lat="43.5562685" lon="11.3218028"><ele>367.0</ele><time>2026-03-28T10:06:29.948Z</time></trkpt><trkpt lat="43.5561574" lon="11.3217921"><ele>367.0</ele><time>2026-03-28T10:06:30.949Z</time></trkpt><trkpt lat="43.5560455" lon="11.3217783"><ele>367.0</ele><time>2026-03-28T10:06:31.948Z</time></trkpt><trkpt lat="43.5559387" lon="11.3217802"><ele>369.5</ele><time>2026-03-28T10:06:32.948Z</time></trkpt><trkpt lat="43.5558572" lon="11.3217736"><ele>372.0</ele><time>2026-03-28T10:06:33.949Z</time></trkpt><trkpt lat="43.5557772" lon="11.3217746"><ele>374.5</ele><time>2026-03-28T10:06:34.949Z</time></trkpt><trkpt lat="43.5557022" lon="11.3217942"><ele>377.0</ele><time>2026-03-28T10:06:35.949Z</time></trkpt><trkpt lat="43.555642" lon="11.3218308"><ele>379.5</ele><time>2026-03-28T10:06:36.948Z</time></trkpt><trkpt lat="43.55559" lon="11.3218864"><ele>382.0</ele><time>2026-03-28T10:06:37.949Z</time></trkpt><trkpt lat="43.5555374" lon="11.3220099"><ele>382.0</ele><time>2026-03-28T10:06:39.947Z</time></trkpt><trkpt lat="43.5554937" lon="11.3221857"><ele>382.0</ele><time>2026-03-28T10:06:41.949Z</time></trkpt><trkpt lat="43.5554719" lon="11.3222772"><ele>382.0</ele><time>2026-03-28T10:06:42.948Z</time></trkpt><trkpt lat="43.5554263" lon="11.322371"><ele>382.0</ele><time>2026-03-28T10:06:43.948Z</time></trkpt><trkpt lat="43.5553803" lon="11.3224381"><ele>382.0</ele><time>2026-03-28T10:06:44.948Z</time></trkpt><trkpt lat="43.5553192" lon="11.3224869"><ele>382.0</ele><time>2026-03-28T10:06:45.948Z</time></trkpt><trkpt lat="43.5552498" lon="11.3225151"><ele>384.5</ele><time>2026-03-28T10:06:46.948Z</time></trkpt><trkpt lat="43.5551713" lon="11.3225246"><ele>387.0</ele><time>2026-03-28T10:06:47.947Z</time></trkpt><trkpt lat="43.5550801" lon="11.3225254"><ele>389.5</ele><time>2026-03-28T10:06:48.948Z</time></trkpt><trkpt lat="43.5549871" lon="11.3225239"><ele>392.0</ele><time>2026-03-28T10:06:49.949Z</time></trkpt><trkpt lat="43.5549117" lon="11.3225142"><ele>394.50000000000006</ele><time>2026-03-28T10:06:50.948Z</time></trkpt><trkpt lat="43.5548397" lon="11.3225014"><ele>397.0</ele><time>2026-03-28T10:06:51.949Z</time></trkpt><trkpt lat="43.5547146" lon="11.3223956"><ele>397.0</ele><time>2026-03-28T10:06:53.949Z</time></trkpt><trkpt lat="43.5546317" lon="11.3223055"><ele>397.0</ele><time>2026-03-28T10:06:54.948Z</time></trkpt><trkpt lat="43.5545492" lon="11.3222139"><ele>397.0</ele><time>2026-03-28T10:06:55.947Z</time></trkpt><trkpt lat="43.5544665" lon="11.322145"><ele>397.0</ele><time>2026-03-28T10:06:56.948Z</time></trkpt><trkpt lat="43.5543928" lon="11.3220878"><ele>397.0</ele><time>2026-03-28T10:06:57.949Z</time></trkpt><trkpt lat="43.5542995" lon="11.3220562"><ele>400.0</ele><time>2026-03-28T10:06:58.949Z</time></trkpt><trkpt lat="43.5541835" lon="11.3220494"><ele>403.0</ele><time>2026-03-28T10:06:59.948Z</time></trkpt><trkpt lat="43.5540532" lon="11.322037"><ele>406.0</ele><time>2026-03-28T10:07:00.948Z</time></trkpt><trkpt lat="43.5539119" lon="11.3220182"><ele>409.0</ele><time>2026-03-28T10:07:01.948Z</time></trkpt><trkpt lat="43.5537813" lon="11.3220054"><ele>410.0</ele><time>2026-03-28T10:07:02.949Z</time></trkpt><trkpt lat="43.5536555" lon="11.3220009"><ele>411.0</ele><time>2026-03-28T10:07:03.949Z</time></trkpt><trkpt lat="43.5535304" lon="11.3219929"><ele>412.0</ele><time>2026-03-28T10:07:04.948Z</time></trkpt><trkpt lat="43.5534092" lon="11.3219819"><ele>413.0</ele><time>2026-03-28T10:07:05.949Z</time></trkpt><trkpt lat="43.5532878" lon="11.3219718"><ele>413.0</ele><time>2026-03-28T10:07:06.949Z</time></trkpt><trkpt lat="43.5531678" lon="11.3219606"><ele>413.0</ele><time>2026-03-28T10:07:07.949Z</time></trkpt><trkpt lat="43.5530519" lon="11.3219586"><ele>413.0</ele><time>2026-03-28T10:07:08.948Z</time></trkpt><trkpt lat="43.5529292" lon="11.3219654"><ele>413.0</ele><time>2026-03-28T10:07:09.948Z</time></trkpt><trkpt lat="43.5528076" lon="11.3219783"><ele>414.5</ele><time>2026-03-28T10:07:10.949Z</time></trkpt><trkpt lat="43.5526848" lon="11.3219973"><ele>416.0</ele><time>2026-03-28T10:07:11.948Z</time></trkpt><trkpt lat="43.5525717" lon="11.3220203"><ele>417.5</ele><time>2026-03-28T10:07:12.948Z</time></trkpt><trkpt lat="43.5524622" lon="11.3220223"><ele>419.0</ele><time>2026-03-28T10:07:13.949Z</time></trkpt><trkpt lat="43.5523487" lon="11.3220138"><ele>419.0</ele><time>2026-03-28T10:07:14.949Z</time></trkpt><trkpt lat="43.5522488" lon="11.3219958"><ele>419.0</ele><time>2026-03-28T10:07:15.948Z</time></trkpt><trkpt lat="43.5521476" lon="11.3219704"><ele>419.0</ele><time>2026-03-28T10:07:16.949Z</time></trkpt><trkpt lat="43.5520503" lon="11.3219415"><ele>419.0</ele><time>2026-03-28T10:07:17.949Z</time></trkpt><trkpt lat="43.5519501" lon="11.3219142"><ele>419.0</ele><time>2026-03-28T10:07:18.949Z</time></trkpt><trkpt lat="43.5518467" lon="11.3218868"><ele>420.0</ele><time>2026-03-28T10:07:19.948Z</time></trkpt><trkpt lat="43.5517314" lon="11.321836"><ele>421.0</ele><time>2026-03-28T10:07:20.948Z</time></trkpt><trkpt lat="43.5516145" lon="11.321775"><ele>422.0</ele><time>2026-03-28T10:07:21.949Z</time></trkpt><trkpt lat="43.5515013" lon="11.3217092"><ele>423.0</ele><time>2026-03-28T10:07:22.948Z</time></trkpt><trkpt lat="43.5514112" lon="11.3216464"><ele>423.0</ele><time>2026-03-28T10:07:23.948Z</time></trkpt><trkpt lat="43.5513084" lon="11.3215901"><ele>423.0</ele><time>2026-03-28T10:07:24.949Z</time></trkpt><trkpt lat="43.5512146" lon="11.3215346"><ele>423.0</ele><time>2026-03-28T10:07:25.949Z</time></trkpt><trkpt lat="43.5511148" lon="11.3214665"><ele>423.0</ele><time>2026-03-28T10:07:26.949Z</time></trkpt><trkpt lat="43.5510182" lon="11.3213888"><ele>423.0</ele><time>2026-03-28T10:07:27.948Z</time></trkpt><trkpt lat="43.5509194" lon="11.3213148"><ele>422.25</ele><time>2026-03-28T10:07:28.949Z</time></trkpt><trkpt lat="43.5508156" lon="11.3212404"><ele>421.5</ele><time>2026-03-28T10:07:29.948Z</time></trkpt><trkpt lat="43.5507108" lon="11.3211613"><ele>420.75</ele><time>2026-03-28T10:07:30.948Z</time></trkpt><trkpt lat="43.5506131" lon="11.3210814"><ele>420.0</ele><time>2026-03-28T10:07:31.949Z</time></trkpt><trkpt lat="43.5505114" lon="11.3210053"><ele>420.0</ele><time>2026-03-28T10:07:32.949Z</time></trkpt><trkpt lat="43.5504141" lon="11.3209279"><ele>420.0</ele><time>2026-03-28T10:07:33.949Z</time></trkpt><trkpt lat="43.550302" lon="11.3208524"><ele>420.0</ele><time>2026-03-28T10:07:34.948Z</time></trkpt><trkpt lat="43.550188" lon="11.3207847"><ele>420.0</ele><time>2026-03-28T10:07:35.95Z</time></trkpt><trkpt lat="43.5500621" lon="11.320719"><ele>420.25</ele><time>2026-03-28T10:07:36.948Z</time></trkpt><trkpt lat="43.5499247" lon="11.3206512"><ele>420.5</ele><time>2026-03-28T10:07:37.948Z</time></trkpt><trkpt lat="43.5497893" lon="11.3205888"><ele>420.75</ele><time>2026-03-28T10:07:38.948Z</time></trkpt><trkpt lat="43.5496663" lon="11.3205197"><ele>421.0</ele><time>2026-03-28T10:07:39.949Z</time></trkpt><trkpt lat="43.5495453" lon="11.3204616"><ele>423.25</ele><time>2026-03-28T10:07:40.948Z</time></trkpt><trkpt lat="43.5494196" lon="11.3204162"><ele>425.5</ele><time>2026-03-28T10:07:41.948Z</time></trkpt><trkpt lat="43.5493009" lon="11.3203645"><ele>427.75</ele><time>2026-03-28T10:07:42.949Z</time></trkpt><trkpt lat="43.5491935" lon="11.3203242"><ele>430.0</ele><time>2026-03-28T10:07:43.949Z</time></trkpt><trkpt lat="43.5490918" lon="11.3202804"><ele>430.00000000000006</ele><time>2026-03-28T10:07:44.949Z</time></trkpt><trkpt lat="43.5489937" lon="11.3202322"><ele>430.0</ele><time>2026-03-28T10:07:45.949Z</time></trkpt><trkpt lat="43.5489094" lon="11.3201934"><ele>430.0</ele><time>2026-03-28T10:07:46.949Z</time></trkpt><trkpt lat="43.5488342" lon="11.3201672"><ele>430.0</ele><time>2026-03-28T10:07:47.948Z</time></trkpt><trkpt lat="43.5487665" lon="11.3201735"><ele>430.00000000000006</ele><time>2026-03-28T10:07:48.948Z</time></trkpt><trkpt lat="43.5487024" lon="11.3201888"><ele>430.0</ele><time>2026-03-28T10:07:49.949Z</time></trkpt><trkpt lat="43.5486369" lon="11.3202027"><ele>432.2</ele><time>2026-03-28T10:07:50.948Z</time></trkpt><trkpt lat="43.5485597" lon="11.3202134"><ele>434.4</ele><time>2026-03-28T10:07:51.949Z</time></trkpt><trkpt lat="43.548472" lon="11.3202322"><ele>436.6</ele><time>2026-03-28T10:07:52.95Z</time></trkpt><trkpt lat="43.5483684" lon="11.3202446"><ele>438.8</ele><time>2026-03-28T10:07:53.948Z</time></trkpt><trkpt lat="43.5482559" lon="11.3202531"><ele>441.0</ele><time>2026-03-28T10:07:54.948Z</time></trkpt><trkpt lat="43.5481489" lon="11.3202774"><ele>441.0</ele><time>2026-03-28T10:07:55.948Z</time></trkpt><trkpt lat="43.5480391" lon="11.3202989"><ele>441.0</ele><time>2026-03-28T10:07:56.947Z</time></trkpt><trkpt lat="43.5479277" lon="11.3203125"><ele>441.0</ele><time>2026-03-28T10:07:57.95Z</time></trkpt><trkpt lat="43.5478341" lon="11.3203295"><ele>441.0</ele><time>2026-03-28T10:07:58.948Z</time></trkpt><trkpt lat="43.5477474" lon="11.3203452"><ele>441.0</ele><time>2026-03-28T10:07:59.947Z</time></trkpt><trkpt lat="43.5476591" lon="11.3203457"><ele>442.8</ele><time>2026-03-28T10:08:01.948Z</time></trkpt><trkpt lat="43.547584" lon="11.3203661"><ele>444.6</ele><time>2026-03-28T10:08:11.949Z</time></trkpt><trkpt lat="43.5475667" lon="11.3205167"><ele>446.4</ele><time>2026-03-28T10:08:13.948Z</time></trkpt><trkpt lat="43.5475466" lon="11.3206286"><ele>448.2</ele><time>2026-03-28T10:08:14.949Z</time></trkpt><trkpt lat="43.5474906" lon="11.3207374"><ele>450.0</ele><time>2026-03-28T10:08:15.948Z</time></trkpt><trkpt lat="43.5473996" lon="11.3208341"><ele>450.0</ele><time>2026-03-28T10:08:16.947Z</time></trkpt><trkpt lat="43.5472928" lon="11.3209147"><ele>450.0</ele><time>2026-03-28T10:08:17.949Z</time></trkpt><trkpt lat="43.5471352" lon="11.3209469"><ele>450.0</ele><time>2026-03-28T10:08:18.95Z</time></trkpt><trkpt lat="43.5469681" lon="11.3210101"><ele>452.33333333333337</ele><time>2026-03-28T10:08:19.948Z</time></trkpt><trkpt lat="43.5468218" lon="11.3210936"><ele>454.6666666666667</ele><time>2026-03-28T10:08:20.948Z</time></trkpt><trkpt lat="43.5466786" lon="11.3211595"><ele>457.0</ele><time>2026-03-28T10:08:21.949Z</time></trkpt><trkpt lat="43.5465288" lon="11.3212092"><ele>457.0</ele><time>2026-03-28T10:08:22.948Z</time></trkpt><trkpt lat="43.5463727" lon="11.3212424"><ele>457.0</ele><time>2026-03-28T10:08:23.948Z</time></trkpt><trkpt lat="43.5461891" lon="11.3212448"><ele>457.0</ele><time>2026-03-28T10:08:24.949Z</time></trkpt><trkpt lat="43.5460143" lon="11.3212646"><ele>456.6666666666667</ele><time>2026-03-28T10:08:25.95Z</time></trkpt><trkpt lat="43.5458407" lon="11.3212631"><ele>456.33333333333337</ele><time>2026-03-28T10:08:26.949Z</time></trkpt><trkpt lat="43.5456736" lon="11.3212588"><ele>456.0</ele><time>2026-03-28T10:08:27.948Z</time></trkpt><trkpt lat="43.5454933" lon="11.3212627"><ele>454.66666666666663</ele><time>2026-03-28T10:08:28.948Z</time></trkpt><trkpt lat="43.5453274" lon="11.3212705"><ele>453.3333333333333</ele><time>2026-03-28T10:08:29.948Z</time></trkpt><trkpt lat="43.5451533" lon="11.3212776"><ele>452.0</ele><time>2026-03-28T10:08:30.949Z</time></trkpt><trkpt lat="43.5449819" lon="11.321287"><ele>452.0</ele><time>2026-03-28T10:08:31.949Z</time></trkpt><trkpt lat="43.5448293" lon="11.3212969"><ele>452.0</ele><time>2026-03-28T10:08:32.948Z</time></trkpt><trkpt lat="43.5446771" lon="11.3212961"><ele>452.0</ele><time>2026-03-28T10:08:33.949Z</time></trkpt><trkpt lat="43.5445522" lon="11.3212951"><ele>452.0</ele><time>2026-03-28T10:08:34.95Z</time></trkpt><trkpt lat="43.5444287" lon="11.3212983"><ele>451.6</ele><time>2026-03-28T10:08:35.948Z</time></trkpt><trkpt lat="43.5443186" lon="11.3213168"><ele>451.20000000000005</ele><time>2026-03-28T10:08:36.949Z</time></trkpt><trkpt lat="43.5442203" lon="11.3213649"><ele>450.8</ele><time>2026-03-28T10:08:37.949Z</time></trkpt><trkpt lat="43.5441406" lon="11.3214477"><ele>450.4</ele><time>2026-03-28T10:08:38.949Z</time></trkpt><trkpt lat="43.5440782" lon="11.321573"><ele>450.0</ele><time>2026-03-28T10:08:39.949Z</time></trkpt><trkpt lat="43.5440607" lon="11.3217241"><ele>447.0</ele><time>2026-03-28T10:08:40.948Z</time></trkpt><trkpt lat="43.5440718" lon="11.3218946"><ele>444.0</ele><time>2026-03-28T10:08:41.947Z</time></trkpt><trkpt lat="43.5441171" lon="11.3220811"><ele>441.0</ele><time>2026-03-28T10:08:42.949Z</time></trkpt><trkpt lat="43.5441836" lon="11.3222746"><ele>438.0</ele><time>2026-03-28T10:08:43.949Z</time></trkpt><trkpt lat="43.5442462" lon="11.3224725"><ele>437.5</ele><time>2026-03-28T10:08:44.948Z</time></trkpt><trkpt lat="43.5443134" lon="11.3226561"><ele>437.0</ele><time>2026-03-28T10:08:45.948Z</time></trkpt><trkpt lat="43.5443844" lon="11.3228329"><ele>436.5</ele><time>2026-03-28T10:08:46.949Z</time></trkpt><trkpt lat="43.5444475" lon="11.3230084"><ele>436.0</ele><time>2026-03-28T10:08:47.948Z</time></trkpt><trkpt lat="43.544508" lon="11.3231902"><ele>431.5</ele><time>2026-03-28T10:08:48.949Z</time></trkpt><trkpt lat="43.5445623" lon="11.3233731"><ele>427.0</ele><time>2026-03-28T10:08:49.949Z</time></trkpt><trkpt lat="43.5445869" lon="11.3235541"><ele>422.5</ele><time>2026-03-28T10:08:50.947Z</time></trkpt><trkpt lat="43.5445924" lon="11.3237394"><ele>418.0</ele><time>2026-03-28T10:08:51.95Z</time></trkpt><trkpt lat="43.544564" lon="11.3239247"><ele>420.75</ele><time>2026-03-28T10:08:52.948Z</time></trkpt><trkpt lat="43.544506" lon="11.324092"><ele>423.5</ele><time>2026-03-28T10:08:53.947Z</time></trkpt><trkpt lat="43.5444248" lon="11.3242365"><ele>426.25</ele><time>2026-03-28T10:08:54.948Z</time></trkpt><trkpt lat="43.5443284" lon="11.3243616"><ele>429.0</ele><time>2026-03-28T10:08:55.948Z</time></trkpt><trkpt lat="43.5442403" lon="11.3245098"><ele>429.0</ele><time>2026-03-28T10:08:56.949Z</time></trkpt><trkpt lat="43.5441847" lon="11.324688"><ele>429.0</ele><time>2026-03-28T10:08:57.949Z</time></trkpt><trkpt lat="43.5441469" lon="11.3248835"><ele>429.0</ele><time>2026-03-28T10:08:58.949Z</time></trkpt><trkpt lat="43.5441614" lon="11.3251065"><ele>426.66666666666663</ele><time>2026-03-28T10:08:59.949Z</time></trkpt><trkpt lat="43.5441689" lon="11.3253253"><ele>424.3333333333333</ele><time>2026-03-28T10:09:00.949Z</time></trkpt><trkpt lat="43.5441864" lon="11.3255435"><ele>422.0</ele><time>2026-03-28T10:09:01.949Z</time></trkpt><trkpt lat="43.5442143" lon="11.3257611"><ele>421.3333333333333</ele><time>2026-03-28T10:09:02.948Z</time></trkpt><trkpt lat="43.5442451" lon="11.3259763"><ele>420.66666666666663</ele><time>2026-03-28T10:09:03.949Z</time></trkpt><trkpt lat="43.5442799" lon="11.3261808"><ele>420.0</ele><time>2026-03-28T10:09:04.949Z</time></trkpt><trkpt lat="43.5443097" lon="11.3263698"><ele>421.0</ele><time>2026-03-28T10:09:05.95Z</time></trkpt><trkpt lat="43.544336" lon="11.3265584"><ele>422.0</ele><time>2026-03-28T10:09:06.948Z</time></trkpt><trkpt lat="43.5443707" lon="11.3267301"><ele>423.0</ele><time>2026-03-28T10:09:07.948Z</time></trkpt><trkpt lat="43.5444093" lon="11.326888"><ele>424.0</ele><time>2026-03-28T10:09:08.948Z</time></trkpt><trkpt lat="43.5444619" lon="11.3270133"><ele>424.00000000000006</ele><time>2026-03-28T10:09:09.949Z</time></trkpt><trkpt lat="43.5445295" lon="11.3271076"><ele>424.0</ele><time>2026-03-28T10:09:10.949Z</time></trkpt><trkpt lat="43.5446123" lon="11.3271623"><ele>424.0</ele><time>2026-03-28T10:09:11.949Z</time></trkpt><trkpt lat="43.544699" lon="11.3271954"><ele>424.0</ele><time>2026-03-28T10:09:12.948Z</time></trkpt><trkpt lat="43.5447661" lon="11.3272142"><ele>424.00000000000006</ele><time>2026-03-28T10:09:13.948Z</time></trkpt><trkpt lat="43.5448504" lon="11.3272516"><ele>424.0</ele><time>2026-03-28T10:09:15.948Z</time></trkpt><trkpt lat="43.5449046" lon="11.3273683"><ele>421.79999999999995</ele><time>2026-03-28T10:09:18.949Z</time></trkpt><trkpt lat="43.5448928" lon="11.3275058"><ele>419.59999999999997</ele><time>2026-03-28T10:09:20.948Z</time></trkpt><trkpt lat="43.5448855" lon="11.3276376"><ele>417.4</ele><time>2026-03-28T10:09:22.948Z</time></trkpt><trkpt lat="43.5448645" lon="11.32776"><ele>415.2</ele><time>2026-03-28T10:09:24.949Z</time></trkpt><trkpt lat="43.5448074" lon="11.3278729"><ele>413.0</ele><time>2026-03-28T10:09:26.948Z</time></trkpt><trkpt lat="43.5447693" lon="11.3279589"><ele>411.66666666666663</ele><time>2026-03-28T10:09:27.949Z</time></trkpt><trkpt lat="43.5447515" lon="11.3280721"><ele>410.3333333333333</ele><time>2026-03-28T10:09:28.949Z</time></trkpt><trkpt lat="43.5447368" lon="11.3281932"><ele>409.0</ele><time>2026-03-28T10:09:29.948Z</time></trkpt><trkpt lat="43.5447136" lon="11.3283058"><ele>407.66666666666663</ele><time>2026-03-28T10:09:30.949Z</time></trkpt><trkpt lat="43.5446996" lon="11.3284204"><ele>406.3333333333333</ele><time>2026-03-28T10:09:31.949Z</time></trkpt><trkpt lat="43.5447137" lon="11.3285361"><ele>405.0</ele><time>2026-03-28T10:09:32.948Z</time></trkpt><trkpt lat="43.5447418" lon="11.3286453"><ele>405.0</ele><time>2026-03-28T10:09:33.947Z</time></trkpt><trkpt lat="43.5447932" lon="11.3287541"><ele>405.0</ele><time>2026-03-28T10:09:34.948Z</time></trkpt><trkpt lat="43.5448519" lon="11.328831"><ele>405.0</ele><time>2026-03-28T10:09:35.947Z</time></trkpt><trkpt lat="43.5449211" lon="11.3289027"><ele>405.0</ele><time>2026-03-28T10:09:36.949Z</time></trkpt><trkpt lat="43.5450044" lon="11.3289616"><ele>405.0</ele><time>2026-03-28T10:09:37.948Z</time></trkpt><trkpt lat="43.5450719" lon="11.3290192"><ele>405.0</ele><time>2026-03-28T10:09:38.948Z</time></trkpt><trkpt lat="43.5451403" lon="11.3290819"><ele>406.6</ele><time>2026-03-28T10:09:39.949Z</time></trkpt><trkpt lat="43.5452034" lon="11.3291589"><ele>408.2</ele><time>2026-03-28T10:09:40.949Z</time></trkpt><trkpt lat="43.5452594" lon="11.3292509"><ele>409.79999999999995</ele><time>2026-03-28T10:09:41.95Z</time></trkpt><trkpt lat="43.5453054" lon="11.3293689"><ele>411.4</ele><time>2026-03-28T10:09:42.947Z</time></trkpt><trkpt lat="43.5453541" lon="11.3294949"><ele>413.0</ele><time>2026-03-28T10:09:43.948Z</time></trkpt><trkpt lat="43.5453999" lon="11.3296187"><ele>409.2</ele><time>2026-03-28T10:09:44.949Z</time></trkpt><trkpt lat="43.5454503" lon="11.329737"><ele>405.4</ele><time>2026-03-28T10:09:45.948Z</time></trkpt><trkpt lat="43.545498" lon="11.3298326"><ele>401.59999999999997</ele><time>2026-03-28T10:09:46.949Z</time></trkpt><trkpt lat="43.5455429" lon="11.3299536"><ele>397.79999999999995</ele><time>2026-03-28T10:09:47.948Z</time></trkpt><trkpt lat="43.5455809" lon="11.3300853"><ele>394.0</ele><time>2026-03-28T10:09:48.949Z</time></trkpt><trkpt lat="43.5456157" lon="11.3302492"><ele>394.0</ele><time>2026-03-28T10:09:49.948Z</time></trkpt><trkpt lat="43.5456584" lon="11.330414"><ele>394.0</ele><time>2026-03-28T10:09:50.949Z</time></trkpt><trkpt lat="43.5457383" lon="11.3306935"><ele>394.0</ele><time>2026-03-28T10:09:52.949Z</time></trkpt><trkpt lat="43.5457668" lon="11.3308261"><ele>394.0</ele><time>2026-03-28T10:09:53.949Z</time></trkpt><trkpt lat="43.5457919" lon="11.3309539"><ele>394.4</ele><time>2026-03-28T10:09:54.95Z</time></trkpt><trkpt lat="43.5457677" lon="11.3310831"><ele>394.79999999999995</ele><time>2026-03-28T10:09:55.948Z</time></trkpt><trkpt lat="43.5457293" lon="11.3312058"><ele>395.20000000000005</ele><time>2026-03-28T10:09:56.948Z</time></trkpt><trkpt lat="43.5456684" lon="11.3313255"><ele>395.6</ele><time>2026-03-28T10:09:57.947Z</time></trkpt><trkpt lat="43.5455938" lon="11.3314583"><ele>396.0</ele><time>2026-03-28T10:09:58.948Z</time></trkpt><trkpt lat="43.5455141" lon="11.3315848"><ele>394.75</ele><time>2026-03-28T10:09:59.949Z</time></trkpt><trkpt lat="43.5454414" lon="11.3317078"><ele>393.5</ele><time>2026-03-28T10:10:00.948Z</time></trkpt><trkpt lat="43.5453695" lon="11.3318413"><ele>392.25</ele><time>2026-03-28T10:10:01.949Z</time></trkpt><trkpt lat="43.5452968" lon="11.331964"><ele>391.0</ele><time>2026-03-28T10:10:02.95Z</time></trkpt><trkpt lat="43.5452178" lon="11.3320829"><ele>390.0</ele><time>2026-03-28T10:10:03.949Z</time></trkpt><trkpt lat="43.5451515" lon="11.3322098"><ele>389.0</ele><time>2026-03-28T10:10:04.949Z</time></trkpt><trkpt lat="43.5450838" lon="11.3323283"><ele>388.0</ele><time>2026-03-28T10:10:05.948Z</time></trkpt><trkpt lat="43.5450106" lon="11.3324461"><ele>387.0</ele><time>2026-03-28T10:10:06.95Z</time></trkpt><trkpt lat="43.5449377" lon="11.3325643"><ele>386.0</ele><time>2026-03-28T10:10:07.948Z</time></trkpt><trkpt lat="43.5448665" lon="11.3326641"><ele>386.0</ele><time>2026-03-28T10:10:08.949Z</time></trkpt><trkpt lat="43.5447844" lon="11.3327643"><ele>386.0</ele><time>2026-03-28T10:10:09.949Z</time></trkpt><trkpt lat="43.5447107" lon="11.3328463"><ele>386.0</ele><time>2026-03-28T10:10:10.948Z</time></trkpt><trkpt lat="43.5446258" lon="11.3329176"><ele>386.0</ele><time>2026-03-28T10:10:11.948Z</time></trkpt><trkpt lat="43.5445413" lon="11.3329891"><ele>386.0</ele><time>2026-03-28T10:10:12.948Z</time></trkpt><trkpt lat="43.5444641" lon="11.3330405"><ele>384.66666666666663</ele><time>2026-03-28T10:10:13.949Z</time></trkpt><trkpt lat="43.544406" lon="11.3330998"><ele>383.3333333333333</ele><time>2026-03-28T10:10:14.948Z</time></trkpt><trkpt lat="43.5443561" lon="11.3331973"><ele>382.0</ele><time>2026-03-28T10:10:15.948Z</time></trkpt><trkpt lat="43.5443187" lon="11.333314"><ele>380.66666666666663</ele><time>2026-03-28T10:10:16.948Z</time></trkpt><trkpt lat="43.5442743" lon="11.333433"><ele>379.3333333333333</ele><time>2026-03-28T10:10:17.948Z</time></trkpt><trkpt lat="43.5442379" lon="11.3335595"><ele>378.0</ele><time>2026-03-28T10:10:18.949Z</time></trkpt><trkpt lat="43.5442159" lon="11.3336812"><ele>378.0</ele><time>2026-03-28T10:10:19.949Z</time></trkpt><trkpt lat="43.5442071" lon="11.3338164"><ele>378.0</ele><time>2026-03-28T10:10:20.949Z</time></trkpt><trkpt lat="43.5442078" lon="11.3339553"><ele>378.0</ele><time>2026-03-28T10:10:21.948Z</time></trkpt><trkpt lat="43.5442239" lon="11.3341078"><ele>378.0</ele><time>2026-03-28T10:10:22.948Z</time></trkpt><trkpt lat="43.5442322" lon="11.3342533"><ele>378.0</ele><time>2026-03-28T10:10:23.948Z</time></trkpt><trkpt lat="43.5442383" lon="11.334364"><ele>377.8333333333333</ele><time>2026-03-28T10:10:24.949Z</time></trkpt><trkpt lat="43.5442351" lon="11.3344724"><ele>377.6666666666667</ele><time>2026-03-28T10:10:25.95Z</time></trkpt><trkpt lat="43.5442182" lon="11.3345768"><ele>377.5</ele><time>2026-03-28T10:10:26.949Z</time></trkpt><trkpt lat="43.5441738" lon="11.3346812"><ele>377.33333333333337</ele><time>2026-03-28T10:10:27.949Z</time></trkpt><trkpt lat="43.5441447" lon="11.3347745"><ele>377.1666666666667</ele><time>2026-03-28T10:10:28.949Z</time></trkpt><trkpt lat="43.5441214" lon="11.3348608"><ele>377.0</ele><time>2026-03-28T10:10:29.949Z</time></trkpt><trkpt lat="43.5441386" lon="11.3349803"><ele>376.33333333333337</ele><time>2026-03-28T10:10:31.949Z</time></trkpt><trkpt lat="43.5442383" lon="11.3350169"><ele>375.6666666666667</ele><time>2026-03-28T10:10:33.95Z</time></trkpt><trkpt lat="43.5443104" lon="11.3349952"><ele>375.0</ele><time>2026-03-28T10:10:34.948Z</time></trkpt><trkpt lat="43.5443792" lon="11.3349751"><ele>374.3333333333333</ele><time>2026-03-28T10:10:35.949Z</time></trkpt><trkpt lat="43.5444774" lon="11.3349751"><ele>373.66666666666663</ele><time>2026-03-28T10:10:36.949Z</time></trkpt><trkpt lat="43.5445531" lon="11.3349805"><ele>373.0</ele><time>2026-03-28T10:10:37.95Z</time></trkpt><trkpt lat="43.544623" lon="11.334997"><ele>373.0</ele><time>2026-03-28T10:10:38.95Z</time></trkpt><trkpt lat="43.5446835" lon="11.3350395"><ele>373.0</ele><time>2026-03-28T10:10:39.948Z</time></trkpt><trkpt lat="43.5447521" lon="11.3351096"><ele>373.0</ele><time>2026-03-28T10:10:40.948Z</time></trkpt><trkpt lat="43.5448141" lon="11.3352105"><ele>373.0</ele><time>2026-03-28T10:10:41.949Z</time></trkpt><trkpt lat="43.5448712" lon="11.3352998"><ele>373.0</ele><time>2026-03-28T10:10:42.948Z</time></trkpt><trkpt lat="43.5449296" lon="11.3353709"><ele>373.0</ele><time>2026-03-28T10:10:43.949Z</time></trkpt><trkpt lat="43.5449951" lon="11.3353911"><ele>373.0</ele><time>2026-03-28T10:10:44.95Z</time></trkpt><trkpt lat="43.5450695" lon="11.3353935"><ele>373.0</ele><time>2026-03-28T10:10:45.949Z</time></trkpt><trkpt lat="43.5451481" lon="11.3354"><ele>373.0</ele><time>2026-03-28T10:10:46.949Z</time></trkpt><trkpt lat="43.5452268" lon="11.3354433"><ele>373.0</ele><time>2026-03-28T10:10:47.949Z</time></trkpt><trkpt lat="43.5452954" lon="11.3355074"><ele>373.0</ele><time>2026-03-28T10:10:48.947Z</time></trkpt><trkpt lat="43.5453767" lon="11.3355887"><ele>373.0</ele><time>2026-03-28T10:10:49.949Z</time></trkpt><trkpt lat="43.5454583" lon="11.3356866"><ele>374.8333333333333</ele><time>2026-03-28T10:10:50.95Z</time></trkpt><trkpt lat="43.5455207" lon="11.3357411"><ele>376.66666666666663</ele><time>2026-03-28T10:10:51.95Z</time></trkpt><trkpt lat="43.5455868" lon="11.3358011"><ele>378.5</ele><time>2026-03-28T10:10:52.95Z</time></trkpt><trkpt lat="43.545648" lon="11.3359116"><ele>380.3333333333333</ele><time>2026-03-28T10:10:54.948Z</time></trkpt><trkpt lat="43.5456809" lon="11.336068"><ele>382.1666666666667</ele><time>2026-03-28T10:10:56.949Z</time></trkpt><trkpt lat="43.5456953" lon="11.3361561"><ele>384.0</ele><time>2026-03-28T10:10:57.949Z</time></trkpt><trkpt lat="43.545726" lon="11.3362467"><ele>383.99999999999994</ele><time>2026-03-28T10:10:58.949Z</time></trkpt><trkpt lat="43.5457648" lon="11.3363274"><ele>384.0</ele><time>2026-03-28T10:10:59.948Z</time></trkpt><trkpt lat="43.5457932" lon="11.3364188"><ele>384.0</ele><time>2026-03-28T10:11:00.948Z</time></trkpt><trkpt lat="43.545826" lon="11.3365026"><ele>384.0</ele><time>2026-03-28T10:11:01.95Z</time></trkpt><trkpt lat="43.5458518" lon="11.3365937"><ele>384.0</ele><time>2026-03-28T10:11:02.948Z</time></trkpt><trkpt lat="43.5458672" lon="11.3367078"><ele>383.99999999999994</ele><time>2026-03-28T10:11:03.948Z</time></trkpt><trkpt lat="43.5458993" lon="11.3367883"><ele>384.0</ele><time>2026-03-28T10:11:04.949Z</time></trkpt><trkpt lat="43.5460062" lon="11.3368672"><ele>385.5</ele><time>2026-03-28T10:11:06.949Z</time></trkpt><trkpt lat="43.546083" lon="11.3368706"><ele>387.0</ele><time>2026-03-28T10:11:07.948Z</time></trkpt><trkpt lat="43.546163" lon="11.336866"><ele>388.5</ele><time>2026-03-28T10:11:08.95Z</time></trkpt><trkpt lat="43.5462569" lon="11.3368775"><ele>390.0</ele><time>2026-03-28T10:11:09.948Z</time></trkpt><trkpt lat="43.5463511" lon="11.3369089"><ele>391.5</ele><time>2026-03-28T10:11:10.948Z</time></trkpt><trkpt lat="43.5464317" lon="11.3369681"><ele>393.0</ele><time>2026-03-28T10:11:11.949Z</time></trkpt><trkpt lat="43.5465126" lon="11.337053"><ele>393.0</ele><time>2026-03-28T10:11:12.948Z</time></trkpt><trkpt lat="43.5465896" lon="11.3371555"><ele>393.0</ele><time>2026-03-28T10:11:13.95Z</time></trkpt><trkpt lat="43.5466652" lon="11.3372578"><ele>393.0</ele><time>2026-03-28T10:11:14.949Z</time></trkpt><trkpt lat="43.546749" lon="11.3373529"><ele>393.0</ele><time>2026-03-28T10:11:15.95Z</time></trkpt><trkpt lat="43.5468259" lon="11.3374215"><ele>393.0</ele><time>2026-03-28T10:11:16.948Z</time></trkpt><trkpt lat="43.5468948" lon="11.3374989"><ele>394.6666666666667</ele><time>2026-03-28T10:11:17.949Z</time></trkpt><trkpt lat="43.5469479" lon="11.3375638"><ele>396.33333333333337</ele><time>2026-03-28T10:11:18.948Z</time></trkpt><trkpt lat="43.5469998" lon="11.3376492"><ele>398.0</ele><time>2026-03-28T10:11:19.948Z</time></trkpt><trkpt lat="43.5470167" lon="11.3377776"><ele>399.6666666666667</ele><time>2026-03-28T10:11:20.95Z</time></trkpt><trkpt lat="43.5470394" lon="11.3378897"><ele>401.33333333333337</ele><time>2026-03-28T10:11:21.949Z</time></trkpt><trkpt lat="43.5470624" lon="11.3379808"><ele>403.0</ele><time>2026-03-28T10:11:22.949Z</time></trkpt><trkpt lat="43.5471553" lon="11.3380557"><ele>403.00000000000006</ele><time>2026-03-28T10:11:24.949Z</time></trkpt><trkpt lat="43.5472832" lon="11.3379934"><ele>403.0</ele><time>2026-03-28T10:11:26.949Z</time></trkpt><trkpt lat="43.5473506" lon="11.3379551"><ele>403.0</ele><time>2026-03-28T10:11:27.949Z</time></trkpt><trkpt lat="43.5474316" lon="11.3379335"><ele>403.0</ele><time>2026-03-28T10:11:28.949Z</time></trkpt><trkpt lat="43.5475005" lon="11.3379403"><ele>403.00000000000006</ele><time>2026-03-28T10:11:29.948Z</time></trkpt><trkpt lat="43.547566" lon="11.3379785"><ele>403.0</ele><time>2026-03-28T10:11:30.95Z</time></trkpt><trkpt lat="43.5476164" lon="11.3380586"><ele>406.2</ele><time>2026-03-28T10:11:31.949Z</time></trkpt><trkpt lat="43.5476733" lon="11.3381726"><ele>409.4</ele><time>2026-03-28T10:11:32.948Z</time></trkpt><trkpt lat="43.5477299" lon="11.338285"><ele>412.59999999999997</ele><time>2026-03-28T10:11:33.95Z</time></trkpt><trkpt lat="43.5477918" lon="11.3383678"><ele>415.79999999999995</ele><time>2026-03-28T10:11:34.948Z</time></trkpt><trkpt lat="43.5478593" lon="11.338431"><ele>419.0</ele><time>2026-03-28T10:11:35.948Z</time></trkpt><trkpt lat="43.54795" lon="11.3384465"><ele>419.4</ele><time>2026-03-28T10:11:36.949Z</time></trkpt><trkpt lat="43.5480408" lon="11.3384092"><ele>419.79999999999995</ele><time>2026-03-28T10:11:37.95Z</time></trkpt><trkpt lat="43.5481324" lon="11.3383587"><ele>420.20000000000005</ele><time>2026-03-28T10:11:38.948Z</time></trkpt><trkpt lat="43.5482223" lon="11.3382869"><ele>420.6</ele><time>2026-03-28T10:11:39.95Z</time></trkpt><trkpt lat="43.548319" lon="11.3382261"><ele>421.0</ele><time>2026-03-28T10:11:40.949Z</time></trkpt><trkpt lat="43.5484246" lon="11.3381664"><ele>421.0</ele><time>2026-03-28T10:11:41.948Z</time></trkpt><trkpt lat="43.5485291" lon="11.3381222"><ele>421.0</ele><time>2026-03-28T10:11:42.95Z</time></trkpt><trkpt lat="43.5486338" lon="11.3380876"><ele>421.0</ele><time>2026-03-28T10:11:43.948Z</time></trkpt><trkpt lat="43.5487323" lon="11.3380826"><ele>421.0</ele><time>2026-03-28T10:11:44.947Z</time></trkpt><trkpt lat="43.548843" lon="11.338098"><ele>421.0</ele><time>2026-03-28T10:11:45.949Z</time></trkpt><trkpt lat="43.5489627" lon="11.3381103"><ele>422.25</ele><time>2026-03-28T10:11:46.949Z</time></trkpt><trkpt lat="43.5490911" lon="11.3381225"><ele>423.5</ele><time>2026-03-28T10:11:47.949Z</time></trkpt><trkpt lat="43.5492167" lon="11.3381268"><ele>424.75</ele><time>2026-03-28T10:11:48.949Z</time></trkpt><trkpt lat="43.5493263" lon="11.3381287"><ele>426.0</ele><time>2026-03-28T10:11:49.949Z</time></trkpt><trkpt lat="43.5494404" lon="11.3381281"><ele>426.0</ele><time>2026-03-28T10:11:50.95Z</time></trkpt><trkpt lat="43.5495279" lon="11.3381137"><ele>426.0</ele><time>2026-03-28T10:11:51.948Z</time></trkpt><trkpt lat="43.5496158" lon="11.3381038"><ele>426.0</ele><time>2026-03-28T10:11:52.949Z</time></trkpt><trkpt lat="43.5496984" lon="11.3380936"><ele>426.0</ele><time>2026-03-28T10:11:53.948Z</time></trkpt><trkpt lat="43.54978" lon="11.338107"><ele>426.0</ele><time>2026-03-28T10:11:54.949Z</time></trkpt><trkpt lat="43.5498491" lon="11.3381473"><ele>426.0</ele><time>2026-03-28T10:11:55.949Z</time></trkpt><trkpt lat="43.5499055" lon="11.3382066"><ele>424.8</ele><time>2026-03-28T10:11:56.95Z</time></trkpt><trkpt lat="43.5499215" lon="11.338369"><ele>423.6</ele><time>2026-03-28T10:11:58.949Z</time></trkpt><trkpt lat="43.5498372" lon="11.3384726"><ele>422.4</ele><time>2026-03-28T10:12:00.948Z</time></trkpt><trkpt lat="43.5497729" lon="11.338521"><ele>421.2</ele><time>2026-03-28T10:12:01.949Z</time></trkpt><trkpt lat="43.5497061" lon="11.3385791"><ele>420.0</ele><time>2026-03-28T10:12:02.948Z</time></trkpt><trkpt lat="43.5496432" lon="11.3386371"><ele>420.0</ele><time>2026-03-28T10:12:03.949Z</time></trkpt><trkpt lat="43.5495692" lon="11.3387008"><ele>420.0</ele><time>2026-03-28T10:12:04.95Z</time></trkpt><trkpt lat="43.5494915" lon="11.3387831"><ele>420.0</ele><time>2026-03-28T10:12:05.949Z</time></trkpt><trkpt lat="43.5494074" lon="11.3388581"><ele>420.0</ele><time>2026-03-28T10:12:06.949Z</time></trkpt><trkpt lat="43.5493131" lon="11.3389334"><ele>420.0</ele><time>2026-03-28T10:12:07.948Z</time></trkpt><trkpt lat="43.5492274" lon="11.339013"><ele>423.2</ele><time>2026-03-28T10:12:08.949Z</time></trkpt><trkpt lat="43.549146" lon="11.3390884"><ele>426.4</ele><time>2026-03-28T10:12:09.95Z</time></trkpt><trkpt lat="43.5490595" lon="11.3391519"><ele>429.6</ele><time>2026-03-28T10:12:10.95Z</time></trkpt><trkpt lat="43.5489702" lon="11.3392105"><ele>432.8</ele><time>2026-03-28T10:12:11.949Z</time></trkpt><trkpt lat="43.5488963" lon="11.3392786"><ele>436.0</ele><time>2026-03-28T10:12:12.948Z</time></trkpt><trkpt lat="43.5488213" lon="11.3393368"><ele>436.00000000000006</ele><time>2026-03-28T10:12:13.949Z</time></trkpt><trkpt lat="43.5487571" lon="11.3393902"><ele>436.0</ele><time>2026-03-28T10:12:14.947Z</time></trkpt><trkpt lat="43.5486947" lon="11.339429"><ele>436.0</ele><time>2026-03-28T10:12:15.948Z</time></trkpt><trkpt lat="43.5485888" lon="11.3394419"><ele>436.0</ele><time>2026-03-28T10:12:17.948Z</time></trkpt><trkpt lat="43.548522" lon="11.3394433"><ele>436.00000000000006</ele><time>2026-03-28T10:12:18.95Z</time></trkpt><trkpt lat="43.548444" lon="11.33944"><ele>436.0</ele><time>2026-03-28T10:12:19.949Z</time></trkpt><trkpt lat="43.5483725" lon="11.3394456"><ele>436.33333333333337</ele><time>2026-03-28T10:12:20.95Z</time></trkpt><trkpt lat="43.5483011" lon="11.3394611"><ele>436.6666666666667</ele><time>2026-03-28T10:12:21.95Z</time></trkpt><trkpt lat="43.5482346" lon="11.3395061"><ele>437.0</ele><time>2026-03-28T10:12:22.948Z</time></trkpt><trkpt lat="43.5481634" lon="11.3395731"><ele>437.33333333333337</ele><time>2026-03-28T10:12:23.949Z</time></trkpt><trkpt lat="43.5480883" lon="11.3396503"><ele>437.6666666666667</ele><time>2026-03-28T10:12:24.948Z</time></trkpt><trkpt lat="43.5480176" lon="11.3397163"><ele>438.0</ele><time>2026-03-28T10:12:25.948Z</time></trkpt><trkpt lat="43.5479539" lon="11.3397833"><ele>439.5</ele><time>2026-03-28T10:12:26.95Z</time></trkpt><trkpt lat="43.5479112" lon="11.3398549"><ele>441.0</ele><time>2026-03-28T10:12:27.949Z</time></trkpt><trkpt lat="43.5478638" lon="11.3399207"><ele>442.5</ele><time>2026-03-28T10:12:29.948Z</time></trkpt><trkpt lat="43.5477849" lon="11.3400056"><ele>444.0</ele><time>2026-03-28T10:12:31.949Z</time></trkpt><trkpt lat="43.5477186" lon="11.3400626"><ele>445.5</ele><time>2026-03-28T10:12:32.95Z</time></trkpt><trkpt lat="43.5476495" lon="11.3400761"><ele>447.0</ele><time>2026-03-28T10:12:33.95Z</time></trkpt><trkpt lat="43.5475761" lon="11.3400675"><ele>449.0</ele><time>2026-03-28T10:12:34.949Z</time></trkpt><trkpt lat="43.5475105" lon="11.3400593"><ele>451.0</ele><time>2026-03-28T10:12:35.95Z</time></trkpt><trkpt lat="43.5474055" lon="11.3400327"><ele>453.0</ele><time>2026-03-28T10:12:37.949Z</time></trkpt><trkpt lat="43.5473504" lon="11.3399855"><ele>455.0</ele><time>2026-03-28T10:12:38.95Z</time></trkpt><trkpt lat="43.5472677" lon="11.3398899"><ele>457.0</ele><time>2026-03-28T10:12:40.948Z</time></trkpt><trkpt lat="43.5472054" lon="11.3398235"><ele>459.0</ele><time>2026-03-28T10:12:58.948Z</time></trkpt><trkpt lat="43.5471171" lon="11.3397419"><ele>461.5</ele><time>2026-03-28T10:13:00.948Z</time></trkpt><trkpt lat="43.5470177" lon="11.3396727"><ele>464.0</ele><time>2026-03-28T10:13:02.95Z</time></trkpt><trkpt lat="43.5469076" lon="11.3396862"><ele>466.5</ele><time>2026-03-28T10:13:04.948Z</time></trkpt><trkpt lat="43.5467857" lon="11.3397409"><ele>469.0</ele><time>2026-03-28T10:13:06.95Z</time></trkpt><trkpt lat="43.5466666" lon="11.3397816"><ele>469.0</ele><time>2026-03-28T10:13:08.949Z</time></trkpt><trkpt lat="43.5465756" lon="11.3397854"><ele>469.0</ele><time>2026-03-28T10:13:09.95Z</time></trkpt><trkpt lat="43.5464887" lon="11.3397925"><ele>469.0</ele><time>2026-03-28T10:13:10.947Z</time></trkpt><trkpt lat="43.5464053" lon="11.3397936"><ele>469.0</ele><time>2026-03-28T10:13:11.949Z</time></trkpt><trkpt lat="43.546336" lon="11.339777"><ele>469.0</ele><time>2026-03-28T10:13:12.949Z</time></trkpt><trkpt lat="43.5462205" lon="11.3397281"><ele>466.4</ele><time>2026-03-28T10:13:14.948Z</time></trkpt><trkpt lat="43.5461723" lon="11.3396543"><ele>463.79999999999995</ele><time>2026-03-28T10:13:15.949Z</time></trkpt><trkpt lat="43.5460747" lon="11.3395208"><ele>461.20000000000005</ele><time>2026-03-28T10:13:17.949Z</time></trkpt><trkpt lat="43.5460078" lon="11.3394663"><ele>458.6</ele><time>2026-03-28T10:13:18.949Z</time></trkpt><trkpt lat="43.5459482" lon="11.3394063"><ele>456.0</ele><time>2026-03-28T10:13:19.949Z</time></trkpt><trkpt lat="43.5458684" lon="11.339312"><ele>456.0</ele><time>2026-03-28T10:13:21.949Z</time></trkpt><trkpt lat="43.5457811" lon="11.3392407"><ele>456.0</ele><time>2026-03-28T10:13:23.949Z</time></trkpt><trkpt lat="43.5456643" lon="11.339265"><ele>456.0</ele><time>2026-03-28T10:13:25.949Z</time></trkpt><trkpt lat="43.5455979" lon="11.3392902"><ele>456.0</ele><time>2026-03-28T10:13:26.949Z</time></trkpt><trkpt lat="43.5454946" lon="11.3393188"><ele>456.0</ele><time>2026-03-28T10:13:28.949Z</time></trkpt><trkpt lat="43.5454314" lon="11.3392678"><ele>456.0</ele><time>2026-03-28T10:13:30.95Z</time></trkpt><trkpt lat="43.5454303" lon="11.3391565"><ele>456.0</ele><time>2026-03-28T10:13:31.95Z</time></trkpt><trkpt lat="43.5454129" lon="11.3390579"><ele>456.0</ele><time>2026-03-28T10:13:32.949Z</time></trkpt><trkpt lat="43.5454015" lon="11.338952"><ele>456.0</ele><time>2026-03-28T10:13:33.95Z</time></trkpt><trkpt lat="43.5453895" lon="11.3388421"><ele>456.0</ele><time>2026-03-28T10:13:34.949Z</time></trkpt><trkpt lat="43.545315" lon="11.3387107"><ele>456.0</ele><time>2026-03-28T10:13:36.949Z</time></trkpt><trkpt lat="43.545198" lon="11.3386788"><ele>457.20000000000005</ele><time>2026-03-28T10:13:38.949Z</time></trkpt><trkpt lat="43.5450708" lon="11.3386772"><ele>458.40000000000003</ele><time>2026-03-28T10:13:40.948Z</time></trkpt><trkpt lat="43.5449984" lon="11.3386778"><ele>459.6</ele><time>2026-03-28T10:13:41.947Z</time></trkpt><trkpt lat="43.5448807" lon="11.3386391"><ele>460.8</ele><time>2026-03-28T10:13:43.948Z</time></trkpt><trkpt lat="43.5448147" lon="11.3386307"><ele>462.0</ele><time>2026-03-28T10:13:44.948Z</time></trkpt><trkpt lat="43.5447478" lon="11.3386518"><ele>462.0</ele><time>2026-03-28T10:13:45.95Z</time></trkpt><trkpt lat="43.5446733" lon="11.338699"><ele>462.00000000000006</ele><time>2026-03-28T10:13:46.95Z</time></trkpt><trkpt lat="43.5445846" lon="11.3387436"><ele>462.00000000000006</ele><time>2026-03-28T10:13:47.95Z</time></trkpt><trkpt lat="43.5444773" lon="11.3388041"><ele>462.0</ele><time>2026-03-28T10:13:48.949Z</time></trkpt><trkpt lat="43.54439" lon="11.3388506"><ele>462.0</ele><time>2026-03-28T10:13:49.95Z</time></trkpt><trkpt lat="43.5442781" lon="11.3388938"><ele>463.6</ele><time>2026-03-28T10:13:51.949Z</time></trkpt><trkpt lat="43.544188" lon="11.3388573"><ele>465.20000000000005</ele><time>2026-03-28T10:13:53.949Z</time></trkpt><trkpt lat="43.5441045" lon="11.3388139"><ele>466.8</ele><time>2026-03-28T10:13:55.95Z</time></trkpt><trkpt lat="43.543971" lon="11.3388031"><ele>468.4</ele><time>2026-03-28T10:13:57.948Z</time></trkpt><trkpt lat="43.5438989" lon="11.3387664"><ele>470.0</ele><time>2026-03-28T10:13:58.949Z</time></trkpt><trkpt lat="43.543772" lon="11.3387501"><ele>472.3333333333333</ele><time>2026-03-28T10:14:00.95Z</time></trkpt><trkpt lat="43.5436575" lon="11.3387065"><ele>474.66666666666663</ele><time>2026-03-28T10:14:02.95Z</time></trkpt><trkpt lat="43.5435971" lon="11.3386577"><ele>477.0</ele><time>2026-03-28T10:14:03.948Z</time></trkpt><trkpt lat="43.5435252" lon="11.3385996"><ele>479.33333333333337</ele><time>2026-03-28T10:14:04.95Z</time></trkpt><trkpt lat="43.5434422" lon="11.3385368"><ele>481.6666666666667</ele><time>2026-03-28T10:14:05.95Z</time></trkpt><trkpt lat="43.5433766" lon="11.3384967"><ele>484.0</ele><time>2026-03-28T10:14:06.949Z</time></trkpt><trkpt lat="43.5432654" lon="11.3384873"><ele>484.00000000000006</ele><time>2026-03-28T10:14:08.95Z</time></trkpt><trkpt lat="43.5432002" lon="11.3384859"><ele>484.0</ele><time>2026-03-28T10:14:09.949Z</time></trkpt><trkpt lat="43.5431275" lon="11.3384521"><ele>484.0</ele><time>2026-03-28T10:14:10.949Z</time></trkpt><trkpt lat="43.5430362" lon="11.3383969"><ele>484.0</ele><time>2026-03-28T10:14:11.95Z</time></trkpt><trkpt lat="43.5429622" lon="11.338342"><ele>484.00000000000006</ele><time>2026-03-28T10:14:12.95Z</time></trkpt><trkpt lat="43.5428885" lon="11.3383169"><ele>484.0</ele><time>2026-03-28T10:14:13.95Z</time></trkpt><trkpt lat="43.542804" lon="11.3383061"><ele>484.2</ele><time>2026-03-28T10:14:15.949Z</time></trkpt><trkpt lat="43.5427169" lon="11.338348"><ele>484.4</ele><time>2026-03-28T10:14:18.949Z</time></trkpt><trkpt lat="43.5425883" lon="11.3384149"><ele>484.6</ele><time>2026-03-28T10:14:20.949Z</time></trkpt><trkpt lat="43.5425233" lon="11.3384568"><ele>484.8</ele><time>2026-03-28T10:14:21.95Z</time></trkpt><trkpt lat="43.5424084" lon="11.3385294"><ele>485.0</ele><time>2026-03-28T10:14:23.949Z</time></trkpt><trkpt lat="43.5423568" lon="11.33858"><ele>484.99999999999994</ele><time>2026-03-28T10:14:24.948Z</time></trkpt><trkpt lat="43.5422814" lon="11.3386693"><ele>485.0</ele><time>2026-03-28T10:14:26.95Z</time></trkpt><trkpt lat="43.5421998" lon="11.338684"><ele>485.0</ele><time>2026-03-28T10:14:28.949Z</time></trkpt><trkpt lat="43.5421587" lon="11.3385981"><ele>485.0</ele><time>2026-03-28T10:14:30.949Z</time></trkpt><trkpt lat="43.5421593" lon="11.3384841"><ele>484.99999999999994</ele><time>2026-03-28T10:14:32.95Z</time></trkpt><trkpt lat="43.5421493" lon="11.3383743"><ele>485.0</ele><time>2026-03-28T10:14:35.948Z</time></trkpt><trkpt lat="43.5421022" lon="11.3382701"><ele>487.0</ele><time>2026-03-28T10:14:37.949Z</time></trkpt><trkpt lat="43.5420403" lon="11.338194"><ele>489.0</ele><time>2026-03-28T10:14:39.949Z</time></trkpt><trkpt lat="43.5420366" lon="11.3381048"><ele>491.0</ele><time>2026-03-28T10:17:17.95Z</time></trkpt><trkpt lat="43.5419679" lon="11.3380139"><ele>493.0</ele><time>2026-03-28T10:17:20.949Z</time></trkpt><trkpt lat="43.5418539" lon="11.3380069"><ele>495.0</ele><time>2026-03-28T10:17:22.949Z</time></trkpt><trkpt lat="43.5417321" lon="11.3380702"><ele>495.0</ele><time>2026-03-28T10:17:24.948Z</time></trkpt><trkpt lat="43.541639" lon="11.3381405"><ele>495.0</ele><time>2026-03-28T10:17:25.95Z</time></trkpt><trkpt lat="43.5415698" lon="11.3381947"><ele>495.0</ele><time>2026-03-28T10:17:26.949Z</time></trkpt><trkpt lat="43.5414963" lon="11.3382476"><ele>495.0</ele><time>2026-03-28T10:17:27.95Z</time></trkpt><trkpt lat="43.5414275" lon="11.3382991"><ele>495.0</ele><time>2026-03-28T10:17:28.949Z</time></trkpt><trkpt lat="43.5413653" lon="11.3383367"><ele>495.0</ele><time>2026-03-28T10:17:29.949Z</time></trkpt><trkpt lat="43.5412776" lon="11.3383132"><ele>495.0</ele><time>2026-03-28T10:17:31.95Z</time></trkpt><trkpt lat="43.541216" lon="11.3381271"><ele>495.0</ele><time>2026-03-28T10:17:33.949Z</time></trkpt><trkpt lat="43.5411902" lon="11.3380202"><ele>495.0</ele><time>2026-03-28T10:17:34.949Z</time></trkpt><trkpt lat="43.5411582" lon="11.3379251"><ele>495.0</ele><time>2026-03-28T10:17:35.949Z</time></trkpt><trkpt lat="43.541101" lon="11.3378227"><ele>495.0</ele><time>2026-03-28T10:17:36.95Z</time></trkpt><trkpt lat="43.5410544" lon="11.3377113"><ele>494.5</ele><time>2026-03-28T10:17:37.95Z</time></trkpt><trkpt lat="43.5410076" lon="11.3376142"><ele>494.0</ele><time>2026-03-28T10:17:38.949Z</time></trkpt><trkpt lat="43.5409486" lon="11.337577"><ele>493.5</ele><time>2026-03-28T10:17:39.95Z</time></trkpt><trkpt lat="43.5408735" lon="11.337528"><ele>493.0</ele><time>2026-03-28T10:17:40.949Z</time></trkpt><trkpt lat="43.5407728" lon="11.3375018"><ele>492.5</ele><time>2026-03-28T10:17:41.948Z</time></trkpt><trkpt lat="43.5406607" lon="11.3374756"><ele>492.0</ele><time>2026-03-28T10:17:42.949Z</time></trkpt><trkpt lat="43.5405406" lon="11.337448"><ele>492.0</ele><time>2026-03-28T10:17:43.949Z</time></trkpt><trkpt lat="43.5404252" lon="11.3374063"><ele>492.00000000000006</ele><time>2026-03-28T10:17:44.949Z</time></trkpt><trkpt lat="43.5403378" lon="11.3373487"><ele>492.00000000000006</ele><time>2026-03-28T10:17:45.95Z</time></trkpt><trkpt lat="43.5402801" lon="11.3373075"><ele>492.0</ele><time>2026-03-28T10:17:46.949Z</time></trkpt><trkpt lat="43.5401828" lon="11.3373087"><ele>492.0</ele><time>2026-03-28T10:17:47.949Z</time></trkpt><trkpt lat="43.540106" lon="11.3373004"><ele>491.6666666666667</ele><time>2026-03-28T10:17:48.948Z</time></trkpt><trkpt lat="43.5400329" lon="11.3372658"><ele>491.33333333333337</ele><time>2026-03-28T10:17:49.95Z</time></trkpt><trkpt lat="43.5399911" lon="11.3371909"><ele>491.0</ele><time>2026-03-28T10:17:50.949Z</time></trkpt><trkpt lat="43.5399357" lon="11.337102"><ele>490.6666666666667</ele><time>2026-03-28T10:17:51.95Z</time></trkpt><trkpt lat="43.5398892" lon="11.3370235"><ele>490.33333333333337</ele><time>2026-03-28T10:17:52.949Z</time></trkpt><trkpt lat="43.539824" lon="11.3369573"><ele>490.0</ele><time>2026-03-28T10:17:53.949Z</time></trkpt><trkpt lat="43.5397557" lon="11.336908"><ele>490.0</ele><time>2026-03-28T10:17:54.949Z</time></trkpt><trkpt lat="43.5396217" lon="11.3368757"><ele>490.0</ele><time>2026-03-28T10:17:55.949Z</time></trkpt><trkpt lat="43.5395021" lon="11.3368286"><ele>490.0</ele><time>2026-03-28T10:17:56.95Z</time></trkpt><trkpt lat="43.5393939" lon="11.3367872"><ele>490.0</ele><time>2026-03-28T10:17:57.95Z</time></trkpt><trkpt lat="43.5392853" lon="11.3367337"><ele>490.75</ele><time>2026-03-28T10:17:58.949Z</time></trkpt><trkpt lat="43.5391812" lon="11.336611"><ele>491.5</ele><time>2026-03-28T10:17:59.949Z</time></trkpt><trkpt lat="43.539074" lon="11.3364855"><ele>492.25</ele><time>2026-03-28T10:18:00.948Z</time></trkpt><trkpt lat="43.5389808" lon="11.3363464"><ele>493.0</ele><time>2026-03-28T10:18:01.95Z</time></trkpt><trkpt lat="43.5388827" lon="11.336227"><ele>493.0</ele><time>2026-03-28T10:18:02.949Z</time></trkpt><trkpt lat="43.538789" lon="11.33611"><ele>493.0</ele><time>2026-03-28T10:18:03.949Z</time></trkpt><trkpt lat="43.5386958" lon="11.3360208"><ele>493.0</ele><time>2026-03-28T10:18:04.949Z</time></trkpt><trkpt lat="43.5385905" lon="11.3359499"><ele>493.0</ele><time>2026-03-28T10:18:05.949Z</time></trkpt><trkpt lat="43.5384849" lon="11.3358878"><ele>498.75</ele><time>2026-03-28T10:18:06.949Z</time></trkpt><trkpt lat="43.5383822" lon="11.3358436"><ele>504.5</ele><time>2026-03-28T10:18:07.948Z</time></trkpt><trkpt lat="43.5382493" lon="11.3358098"><ele>510.25</ele><time>2026-03-28T10:18:08.949Z</time></trkpt><trkpt lat="43.5381257" lon="11.3357762"><ele>516.0</ele><time>2026-03-28T10:18:09.949Z</time></trkpt><trkpt lat="43.5380389" lon="11.3357217"><ele>516.0</ele><time>2026-03-28T10:18:10.949Z</time></trkpt><trkpt lat="43.5379478" lon="11.3356922"><ele>516.0</ele><time>2026-03-28T10:18:11.95Z</time></trkpt><trkpt lat="43.5378699" lon="11.3357082"><ele>516.0</ele><time>2026-03-28T10:18:12.95Z</time></trkpt><trkpt lat="43.5377721" lon="11.3357518"><ele>516.0</ele><time>2026-03-28T10:18:13.948Z</time></trkpt><trkpt lat="43.5376778" lon="11.3358097"><ele>516.0</ele><time>2026-03-28T10:18:14.949Z</time></trkpt><trkpt lat="43.5375991" lon="11.3358492"><ele>516.0</ele><time>2026-03-28T10:18:15.949Z</time></trkpt><trkpt lat="43.5374783" lon="11.3357879"><ele>516.0</ele><time>2026-03-28T10:18:17.948Z</time></trkpt><trkpt lat="43.537432" lon="11.3357046"><ele>516.0</ele><time>2026-03-28T10:18:18.95Z</time></trkpt><trkpt lat="43.5374071" lon="11.3355693"><ele>516.0</ele><time>2026-03-28T10:18:19.947Z</time></trkpt><trkpt lat="43.5373985" lon="11.3353848"><ele>516.0</ele><time>2026-03-28T10:18:20.95Z</time></trkpt><trkpt lat="43.5373922" lon="11.3352088"><ele>516.0</ele><time>2026-03-28T10:18:21.949Z</time></trkpt><trkpt lat="43.5373833" lon="11.3350465"><ele>516.0</ele><time>2026-03-28T10:18:22.949Z</time></trkpt><trkpt lat="43.5373732" lon="11.3349177"><ele>516.0</ele><time>2026-03-28T10:18:23.95Z</time></trkpt><trkpt lat="43.5373651" lon="11.3348111"><ele>516.0</ele><time>2026-03-28T10:18:24.949Z</time></trkpt><trkpt lat="43.5373415" lon="11.3347235"><ele>516.0</ele><time>2026-03-28T10:18:38.949Z</time></trkpt><trkpt lat="43.5372697" lon="11.3347046"><ele>516.0</ele><time>2026-03-28T10:18:41.949Z</time></trkpt><trkpt lat="43.5371747" lon="11.3347303"><ele>515.8</ele><time>2026-03-28T10:18:43.949Z</time></trkpt><trkpt lat="43.5370402" lon="11.3347573"><ele>515.6</ele><time>2026-03-28T10:18:45.949Z</time></trkpt><trkpt lat="43.5369487" lon="11.3347699"><ele>515.4</ele><time>2026-03-28T10:18:46.949Z</time></trkpt><trkpt lat="43.5368528" lon="11.3347851"><ele>515.2</ele><time>2026-03-28T10:18:47.949Z</time></trkpt><trkpt lat="43.53676" lon="11.334797"><ele>515.0</ele><time>2026-03-28T10:18:48.949Z</time></trkpt><trkpt lat="43.5366756" lon="11.3348109"><ele>515.0</ele><time>2026-03-28T10:18:49.949Z</time></trkpt><trkpt lat="43.5366021" lon="11.3348225"><ele>515.0</ele><time>2026-03-28T10:18:50.95Z</time></trkpt><trkpt lat="43.5365363" lon="11.3348358"><ele>515.0</ele><time>2026-03-28T10:18:51.949Z</time></trkpt><trkpt lat="43.5364395" lon="11.3348436"><ele>515.0</ele><time>2026-03-28T10:18:52.949Z</time></trkpt><trkpt lat="43.536344" lon="11.3348319"><ele>515.0</ele><time>2026-03-28T10:18:53.95Z</time></trkpt><trkpt lat="43.536244" lon="11.3348256"><ele>515.0</ele><time>2026-03-28T10:18:54.95Z</time></trkpt><trkpt lat="43.5361693" lon="11.3348184"><ele>515.0</ele><time>2026-03-28T10:18:55.95Z</time></trkpt><trkpt lat="43.536098" lon="11.3348242"><ele>515.0</ele><time>2026-03-28T10:18:56.949Z</time></trkpt><trkpt lat="43.5360157" lon="11.3348327"><ele>515.0</ele><time>2026-03-28T10:18:58.949Z</time></trkpt><trkpt lat="43.5359105" lon="11.3348417"><ele>515.0</ele><time>2026-03-28T10:19:01.949Z</time></trkpt><trkpt lat="43.5357868" lon="11.3348637"><ele>515.0</ele><time>2026-03-28T10:19:03.951Z</time></trkpt><trkpt lat="43.5357076" lon="11.3348729"><ele>515.0</ele><time>2026-03-28T10:19:04.949Z</time></trkpt><trkpt lat="43.5356181" lon="11.334885"><ele>515.0</ele><time>2026-03-28T10:19:05.949Z</time></trkpt><trkpt lat="43.535551" lon="11.334883"><ele>515.0</ele><time>2026-03-28T10:19:06.949Z</time></trkpt><trkpt lat="43.5354868" lon="11.334887"><ele>515.0</ele><time>2026-03-28T10:19:07.95Z</time></trkpt><trkpt lat="43.5354148" lon="11.3348908"><ele>515.0</ele><time>2026-03-28T10:19:08.949Z</time></trkpt><trkpt lat="43.5353358" lon="11.3348999"><ele>515.0</ele><time>2026-03-28T10:19:09.95Z</time></trkpt><trkpt lat="43.5352471" lon="11.3349148"><ele>513.5</ele><time>2026-03-28T10:19:10.949Z</time></trkpt><trkpt lat="43.5351597" lon="11.3349305"><ele>512.0</ele><time>2026-03-28T10:19:11.949Z</time></trkpt><trkpt lat="43.5350718" lon="11.3349437"><ele>510.5</ele><time>2026-03-28T10:19:12.95Z</time></trkpt><trkpt lat="43.5349948" lon="11.3349477"><ele>509.0</ele><time>2026-03-28T10:19:13.949Z</time></trkpt><trkpt lat="43.5349196" lon="11.3349592"><ele>507.49999999999994</ele><time>2026-03-28T10:19:14.95Z</time></trkpt><trkpt lat="43.5348525" lon="11.3349719"><ele>506.0</ele><time>2026-03-28T10:19:15.949Z</time></trkpt><trkpt lat="43.5347895" lon="11.3349763"><ele>506.0</ele><time>2026-03-28T10:19:16.949Z</time></trkpt><trkpt lat="43.5347082" lon="11.3349649"><ele>506.0</ele><time>2026-03-28T10:19:18.949Z</time></trkpt><trkpt lat="43.5347682" lon="11.3349965"><ele>506.0</ele><time>2026-03-28T10:19:28.95Z</time></trkpt><trkpt lat="43.5348814" lon="11.3349592"><ele>506.0</ele><time>2026-03-28T10:19:43.95Z</time></trkpt><trkpt lat="43.5350076" lon="11.3349532"><ele>506.0</ele><time>2026-03-28T10:19:45.949Z</time></trkpt><trkpt lat="43.5350894" lon="11.3349365"><ele>506.0</ele><time>2026-03-28T10:19:46.95Z</time></trkpt><trkpt lat="43.5351812" lon="11.3349186"><ele>506.0</ele><time>2026-03-28T10:19:47.948Z</time></trkpt><trkpt lat="43.5352838" lon="11.3349111"><ele>506.0</ele><time>2026-03-28T10:19:48.949Z</time></trkpt><trkpt lat="43.5354085" lon="11.3349054"><ele>506.0</ele><time>2026-03-28T10:19:49.949Z</time></trkpt><trkpt lat="43.5355326" lon="11.3348958"><ele>506.0</ele><time>2026-03-28T10:19:50.95Z</time></trkpt><trkpt lat="43.5356701" lon="11.3348869"><ele>507.8</ele><time>2026-03-28T10:19:51.949Z</time></trkpt><trkpt lat="43.5357917" lon="11.3348716"><ele>509.6</ele><time>2026-03-28T10:19:52.95Z</time></trkpt><trkpt lat="43.5359047" lon="11.334856"><ele>511.4</ele><time>2026-03-28T10:19:53.95Z</time></trkpt><trkpt lat="43.536009" lon="11.3348489"><ele>513.2</ele><time>2026-03-28T10:19:54.95Z</time></trkpt><trkpt lat="43.5360931" lon="11.3348433"><ele>515.0</ele><time>2026-03-28T10:19:55.949Z</time></trkpt><trkpt lat="43.5361638" lon="11.3348425"><ele>515.0</ele><time>2026-03-28T10:19:56.949Z</time></trkpt><trkpt lat="43.536247" lon="11.3348225"><ele>515.0</ele><time>2026-03-28T10:19:58.95Z</time></trkpt><trkpt lat="43.536216" lon="11.334732"><ele>515.0</ele><time>2026-03-28T10:20:01.95Z</time></trkpt><trkpt lat="43.5361596" lon="11.3346775"><ele>515.0</ele><time>2026-03-28T10:20:02.951Z</time></trkpt><trkpt lat="43.5360912" lon="11.3346267"><ele>515.0</ele><time>2026-03-28T10:20:03.951Z</time></trkpt><trkpt lat="43.5360091" lon="11.3345947"><ele>515.0</ele><time>2026-03-28T10:20:04.951Z</time></trkpt><trkpt lat="43.5359275" lon="11.3345828"><ele>511.8</ele><time>2026-03-28T10:20:05.951Z</time></trkpt><trkpt lat="43.5358419" lon="11.3345667"><ele>508.6</ele><time>2026-03-28T10:20:06.949Z</time></trkpt><trkpt lat="43.5357378" lon="11.3345298"><ele>505.4</ele><time>2026-03-28T10:20:07.95Z</time></trkpt><trkpt lat="43.5356431" lon="11.3344953"><ele>502.2</ele><time>2026-03-28T10:20:08.95Z</time></trkpt><trkpt lat="43.5355459" lon="11.3344275"><ele>499.0</ele><time>2026-03-28T10:20:09.95Z</time></trkpt><trkpt lat="43.5354562" lon="11.3343575"><ele>498.4</ele><time>2026-03-28T10:20:10.95Z</time></trkpt><trkpt lat="43.5353709" lon="11.3342883"><ele>497.79999999999995</ele><time>2026-03-28T10:20:11.949Z</time></trkpt><trkpt lat="43.5352817" lon="11.3342223"><ele>497.20000000000005</ele><time>2026-03-28T10:20:12.949Z</time></trkpt><trkpt lat="43.5351954" lon="11.3341632"><ele>496.6</ele><time>2026-03-28T10:20:13.949Z</time></trkpt><trkpt lat="43.5351072" lon="11.3340916"><ele>496.0</ele><time>2026-03-28T10:20:14.949Z</time></trkpt><trkpt lat="43.5350305" lon="11.3340089"><ele>496.0</ele><time>2026-03-28T10:20:15.949Z</time></trkpt><trkpt lat="43.5349495" lon="11.3339389"><ele>496.0</ele><time>2026-03-28T10:20:16.949Z</time></trkpt><trkpt lat="43.5348875" lon="11.3338546"><ele>496.0</ele><time>2026-03-28T10:20:17.951Z</time></trkpt><trkpt lat="43.5348279" lon="11.3337618"><ele>496.0</ele><time>2026-03-28T10:20:18.95Z</time></trkpt><trkpt lat="43.5347749" lon="11.3336422"><ele>496.0</ele><time>2026-03-28T10:20:19.95Z</time></trkpt><trkpt lat="43.5347283" lon="11.3335355"><ele>493.6666666666667</ele><time>2026-03-28T10:20:20.949Z</time></trkpt><trkpt lat="43.5346769" lon="11.3334455"><ele>491.33333333333337</ele><time>2026-03-28T10:20:21.95Z</time></trkpt><trkpt lat="43.5346188" lon="11.3333664"><ele>489.0</ele><time>2026-03-28T10:20:22.949Z</time></trkpt><trkpt lat="43.5345581" lon="11.3332987"><ele>486.66666666666663</ele><time>2026-03-28T10:20:23.949Z</time></trkpt><trkpt lat="43.5344894" lon="11.3332274"><ele>484.3333333333333</ele><time>2026-03-28T10:20:24.949Z</time></trkpt><trkpt lat="43.5343934" lon="11.3331825"><ele>482.0</ele><time>2026-03-28T10:20:25.95Z</time></trkpt><trkpt lat="43.5343136" lon="11.333134"><ele>481.75</ele><time>2026-03-28T10:20:26.949Z</time></trkpt><trkpt lat="43.5342126" lon="11.3331291"><ele>481.5</ele><time>2026-03-28T10:20:27.95Z</time></trkpt><trkpt lat="43.534094" lon="11.3331378"><ele>481.25</ele><time>2026-03-28T10:20:28.95Z</time></trkpt><trkpt lat="43.5339706" lon="11.3331542"><ele>481.0</ele><time>2026-03-28T10:20:29.949Z</time></trkpt><trkpt lat="43.5338432" lon="11.3331673"><ele>481.0</ele><time>2026-03-28T10:20:30.95Z</time></trkpt><trkpt lat="43.5337311" lon="11.3331502"><ele>481.0</ele><time>2026-03-28T10:20:31.95Z</time></trkpt><trkpt lat="43.533616" lon="11.3331324"><ele>481.0</ele><time>2026-03-28T10:20:32.95Z</time></trkpt><trkpt lat="43.5335067" lon="11.3331037"><ele>481.0</ele><time>2026-03-28T10:20:33.949Z</time></trkpt><trkpt lat="43.5333867" lon="11.3330738"><ele>479.25</ele><time>2026-03-28T10:20:34.949Z</time></trkpt><trkpt lat="43.5332767" lon="11.3330436"><ele>477.5</ele><time>2026-03-28T10:20:35.95Z</time></trkpt><trkpt lat="43.5331646" lon="11.3330082"><ele>475.75</ele><time>2026-03-28T10:20:36.949Z</time></trkpt><trkpt lat="43.5330636" lon="11.3329661"><ele>474.0</ele><time>2026-03-28T10:20:37.95Z</time></trkpt><trkpt lat="43.5329466" lon="11.3329496"><ele>473.4</ele><time>2026-03-28T10:20:38.95Z</time></trkpt><trkpt lat="43.5328332" lon="11.3329412"><ele>472.79999999999995</ele><time>2026-03-28T10:20:39.949Z</time></trkpt><trkpt lat="43.5327265" lon="11.3329296"><ele>472.20000000000005</ele><time>2026-03-28T10:20:40.949Z</time></trkpt><trkpt lat="43.5326274" lon="11.3329216"><ele>471.6</ele><time>2026-03-28T10:20:41.949Z</time></trkpt><trkpt lat="43.532533" lon="11.3329113"><ele>471.0</ele><time>2026-03-28T10:20:42.95Z</time></trkpt><trkpt lat="43.5324478" lon="11.3328973"><ele>471.0</ele><time>2026-03-28T10:20:43.949Z</time></trkpt><trkpt lat="43.5323781" lon="11.3328408"><ele>471.0</ele><time>2026-03-28T10:20:44.95Z</time></trkpt><trkpt lat="43.5322991" lon="11.3327942"><ele>471.0</ele><time>2026-03-28T10:20:45.95Z</time></trkpt><trkpt lat="43.5322219" lon="11.3327486"><ele>471.0</ele><time>2026-03-28T10:20:46.95Z</time></trkpt><trkpt lat="43.5321473" lon="11.3326748"><ele>471.0</ele><time>2026-03-28T10:20:47.948Z</time></trkpt><trkpt lat="43.532077" lon="11.3325991"><ele>471.0</ele><time>2026-03-28T10:20:48.949Z</time></trkpt><trkpt lat="43.5320185" lon="11.3325045"><ele>468.4</ele><time>2026-03-28T10:20:49.949Z</time></trkpt><trkpt lat="43.5319554" lon="11.3324139"><ele>465.8</ele><time>2026-03-28T10:20:50.95Z</time></trkpt><trkpt lat="43.5318988" lon="11.3323124"><ele>463.19999999999993</ele><time>2026-03-28T10:20:51.95Z</time></trkpt><trkpt lat="43.5318479" lon="11.3322064"><ele>460.59999999999997</ele><time>2026-03-28T10:20:52.949Z</time></trkpt><trkpt lat="43.5318013" lon="11.332102"><ele>458.0</ele><time>2026-03-28T10:20:53.95Z</time></trkpt><trkpt lat="43.531749" lon="11.3320012"><ele>457.99999999999994</ele><time>2026-03-28T10:20:54.949Z</time></trkpt><trkpt lat="43.5317128" lon="11.3319107"><ele>458.0</ele><time>2026-03-28T10:20:55.949Z</time></trkpt><trkpt lat="43.5316781" lon="11.3318061"><ele>458.0</ele><time>2026-03-28T10:20:56.949Z</time></trkpt><trkpt lat="43.5316569" lon="11.3316897"><ele>458.0</ele><time>2026-03-28T10:20:57.95Z</time></trkpt><trkpt lat="43.5316231" lon="11.3315736"><ele>457.99999999999994</ele><time>2026-03-28T10:20:58.949Z</time></trkpt><trkpt lat="43.5315755" lon="11.3314429"><ele>458.0</ele><time>2026-03-28T10:20:59.95Z</time></trkpt><trkpt lat="43.5315321" lon="11.3313179"><ele>456.8333333333333</ele><time>2026-03-28T10:21:00.95Z</time></trkpt><trkpt lat="43.5314835" lon="11.3312082"><ele>455.66666666666663</ele><time>2026-03-28T10:21:01.949Z</time></trkpt><trkpt lat="43.5314275" lon="11.3311153"><ele>454.5</ele><time>2026-03-28T10:21:02.948Z</time></trkpt><trkpt lat="43.531364" lon="11.3310551"><ele>453.33333333333337</ele><time>2026-03-28T10:21:03.95Z</time></trkpt><trkpt lat="43.5312852" lon="11.3310083"><ele>452.1666666666667</ele><time>2026-03-28T10:21:04.949Z</time></trkpt><trkpt lat="43.531198" lon="11.3309675"><ele>451.0</ele><time>2026-03-28T10:21:05.95Z</time></trkpt><trkpt lat="43.5311118" lon="11.3309201"><ele>450.20000000000005</ele><time>2026-03-28T10:21:06.949Z</time></trkpt><trkpt lat="43.5310211" lon="11.3308621"><ele>449.40000000000003</ele><time>2026-03-28T10:21:07.949Z</time></trkpt><trkpt lat="43.5309305" lon="11.330793"><ele>448.6</ele><time>2026-03-28T10:21:08.95Z</time></trkpt><trkpt lat="43.5308395" lon="11.330727"><ele>447.8</ele><time>2026-03-28T10:21:09.951Z</time></trkpt><trkpt lat="43.5307469" lon="11.3306607"><ele>447.0</ele><time>2026-03-28T10:21:10.95Z</time></trkpt><trkpt lat="43.5306594" lon="11.3305976"><ele>446.1666666666667</ele><time>2026-03-28T10:21:11.951Z</time></trkpt><trkpt lat="43.5305793" lon="11.3305131"><ele>445.33333333333337</ele><time>2026-03-28T10:21:12.949Z</time></trkpt><trkpt lat="43.5305062" lon="11.3304301"><ele>444.5</ele><time>2026-03-28T10:21:13.95Z</time></trkpt><trkpt lat="43.5304321" lon="11.3303667"><ele>443.6666666666667</ele><time>2026-03-28T10:21:14.949Z</time></trkpt><trkpt lat="43.5303571" lon="11.3303217"><ele>442.83333333333337</ele><time>2026-03-28T10:21:15.95Z</time></trkpt><trkpt lat="43.5302788" lon="11.330278"><ele>442.0</ele><time>2026-03-28T10:21:16.95Z</time></trkpt><trkpt lat="43.5302293" lon="11.3302021"><ele>441.00000000000006</ele><time>2026-03-28T10:21:17.95Z</time></trkpt><trkpt lat="43.5301822" lon="11.3301298"><ele>440.0</ele><time>2026-03-28T10:21:18.95Z</time></trkpt><trkpt lat="43.5301652" lon="11.33003"><ele>439.0</ele><time>2026-03-28T10:21:19.95Z</time></trkpt><trkpt lat="43.5301405" lon="11.3299459"><ele>438.0</ele><time>2026-03-28T10:21:20.949Z</time></trkpt><trkpt lat="43.5300805" lon="11.3298612"><ele>437.00000000000006</ele><time>2026-03-28T10:21:21.949Z</time></trkpt><trkpt lat="43.5299991" lon="11.3297793"><ele>436.0</ele><time>2026-03-28T10:21:22.949Z</time></trkpt><trkpt lat="43.5299132" lon="11.3296988"><ele>434.83333333333337</ele><time>2026-03-28T10:21:23.95Z</time></trkpt><trkpt lat="43.529849" lon="11.3296131"><ele>433.6666666666667</ele><time>2026-03-28T10:21:24.949Z</time></trkpt><trkpt lat="43.529787" lon="11.3295228"><ele>432.5</ele><time>2026-03-28T10:21:25.95Z</time></trkpt><trkpt lat="43.5297424" lon="11.3294547"><ele>431.33333333333337</ele><time>2026-03-28T10:21:26.95Z</time></trkpt><trkpt lat="43.5296836" lon="11.3293768"><ele>430.1666666666667</ele><time>2026-03-28T10:21:27.949Z</time></trkpt><trkpt lat="43.5296316" lon="11.3293139"><ele>429.0</ele><time>2026-03-28T10:21:28.95Z</time></trkpt><trkpt lat="43.5295806" lon="11.32926"><ele>428.8333333333333</ele><time>2026-03-28T10:21:29.949Z</time></trkpt><trkpt lat="43.5294963" lon="11.3291566"><ele>428.66666666666663</ele><time>2026-03-28T10:21:31.949Z</time></trkpt><trkpt lat="43.529454" lon="11.3290907"><ele>428.5</ele><time>2026-03-28T10:21:32.95Z</time></trkpt><trkpt lat="43.5294087" lon="11.3290237"><ele>428.3333333333333</ele><time>2026-03-28T10:21:33.949Z</time></trkpt><trkpt lat="43.5293597" lon="11.3289556"><ele>428.16666666666663</ele><time>2026-03-28T10:21:34.949Z</time></trkpt><trkpt lat="43.5293127" lon="11.3288916"><ele>428.0</ele><time>2026-03-28T10:21:35.948Z</time></trkpt><trkpt lat="43.5292196" lon="11.3287714"><ele>427.59999999999997</ele><time>2026-03-28T10:21:37.951Z</time></trkpt><trkpt lat="43.5291583" lon="11.3286976"><ele>427.19999999999993</ele><time>2026-03-28T10:21:38.949Z</time></trkpt><trkpt lat="43.5291028" lon="11.328615"><ele>426.8</ele><time>2026-03-28T10:21:39.951Z</time></trkpt><trkpt lat="43.5290311" lon="11.3285148"><ele>426.4</ele><time>2026-03-28T10:21:40.95Z</time></trkpt><trkpt lat="43.5289425" lon="11.3283953"><ele>426.0</ele><time>2026-03-28T10:21:41.949Z</time></trkpt><trkpt lat="43.5288285" lon="11.3282407"><ele>425.66666666666663</ele><time>2026-03-28T10:21:42.95Z</time></trkpt><trkpt lat="43.5287145" lon="11.3280745"><ele>425.3333333333333</ele><time>2026-03-28T10:21:43.95Z</time></trkpt><trkpt lat="43.5286029" lon="11.3279279"><ele>425.0</ele><time>2026-03-28T10:21:44.949Z</time></trkpt><trkpt lat="43.5285029" lon="11.327798"><ele>425.0</ele><time>2026-03-28T10:21:45.948Z</time></trkpt><trkpt lat="43.5284181" lon="11.3276721"><ele>425.0</ele><time>2026-03-28T10:21:46.949Z</time></trkpt><trkpt lat="43.5283416" lon="11.3275661"><ele>425.0</ele><time>2026-03-28T10:21:47.949Z</time></trkpt><trkpt lat="43.5282898" lon="11.3274789"><ele>425.0</ele><time>2026-03-28T10:21:48.949Z</time></trkpt><trkpt lat="43.5282433" lon="11.3273611"><ele>425.0</ele><time>2026-03-28T10:21:50.948Z</time></trkpt><trkpt lat="43.5282478" lon="11.327467"><ele>425.0</ele><time>2026-03-28T10:22:04.949Z</time></trkpt><trkpt lat="43.5283352" lon="11.3275894"><ele>425.0</ele><time>2026-03-28T10:22:06.95Z</time></trkpt><trkpt lat="43.5283968" lon="11.3276756"><ele>425.0</ele><time>2026-03-28T10:22:07.95Z</time></trkpt><trkpt lat="43.5284654" lon="11.3277762"><ele>425.0</ele><time>2026-03-28T10:22:08.95Z</time></trkpt><trkpt lat="43.5285424" lon="11.3278793"><ele>425.0</ele><time>2026-03-28T10:22:09.949Z</time></trkpt><trkpt lat="43.5286283" lon="11.3279921"><ele>425.0</ele><time>2026-03-28T10:22:10.951Z</time></trkpt><trkpt lat="43.5287182" lon="11.3281177"><ele>425.0</ele><time>2026-03-28T10:22:11.95Z</time></trkpt><trkpt lat="43.5288092" lon="11.3282503"><ele>425.0</ele><time>2026-03-28T10:22:12.949Z</time></trkpt><trkpt lat="43.528913" lon="11.3283884"><ele>425.0</ele><time>2026-03-28T10:22:13.95Z</time></trkpt><trkpt lat="43.5290253" lon="11.3285459"><ele>425.25</ele><time>2026-03-28T10:22:14.949Z</time></trkpt><trkpt lat="43.5291217" lon="11.3286843"><ele>425.5</ele><time>2026-03-28T10:22:15.949Z</time></trkpt><trkpt lat="43.5292159" lon="11.3288093"><ele>425.75</ele><time>2026-03-28T10:22:16.948Z</time></trkpt><trkpt lat="43.5292988" lon="11.3289257"><ele>426.0</ele><time>2026-03-28T10:22:17.95Z</time></trkpt><trkpt lat="43.5293801" lon="11.3290287"><ele>426.4</ele><time>2026-03-28T10:22:18.949Z</time></trkpt><trkpt lat="43.5294455" lon="11.3291099"><ele>426.8</ele><time>2026-03-28T10:22:19.951Z</time></trkpt><trkpt lat="43.5294923" lon="11.329183"><ele>427.19999999999993</ele><time>2026-03-28T10:22:20.948Z</time></trkpt><trkpt lat="43.5295316" lon="11.3293222"><ele>427.59999999999997</ele><time>2026-03-28T10:22:22.949Z</time></trkpt><trkpt lat="43.5293811" lon="11.3294407"><ele>428.0</ele><time>2026-03-28T10:22:24.949Z</time></trkpt><trkpt lat="43.5292835" lon="11.3294867"><ele>428.0</ele><time>2026-03-28T10:22:25.95Z</time></trkpt><trkpt lat="43.5291888" lon="11.3295392"><ele>427.99999999999994</ele><time>2026-03-28T10:22:26.95Z</time></trkpt><trkpt lat="43.5291047" lon="11.3295974"><ele>427.99999999999994</ele><time>2026-03-28T10:22:27.949Z</time></trkpt><trkpt lat="43.5290213" lon="11.329651"><ele>428.0</ele><time>2026-03-28T10:22:28.951Z</time></trkpt><trkpt lat="43.5289328" lon="11.3297098"><ele>428.0</ele><time>2026-03-28T10:22:29.95Z</time></trkpt><trkpt lat="43.5288325" lon="11.3297635"><ele>427.2</ele><time>2026-03-28T10:22:30.949Z</time></trkpt><trkpt lat="43.528735" lon="11.3298307"><ele>426.4</ele><time>2026-03-28T10:22:31.95Z</time></trkpt><trkpt lat="43.5286309" lon="11.3298924"><ele>425.59999999999997</ele><time>2026-03-28T10:22:32.95Z</time></trkpt><trkpt lat="43.5285313" lon="11.3299485"><ele>424.79999999999995</ele><time>2026-03-28T10:22:33.95Z</time></trkpt><trkpt lat="43.5284307" lon="11.3300148"><ele>424.0</ele><time>2026-03-28T10:22:34.951Z</time></trkpt><trkpt lat="43.5283279" lon="11.3300828"><ele>421.0</ele><time>2026-03-28T10:22:35.95Z</time></trkpt><trkpt lat="43.5282243" lon="11.3301567"><ele>418.0</ele><time>2026-03-28T10:22:36.949Z</time></trkpt><trkpt lat="43.5281253" lon="11.3302253"><ele>415.0</ele><time>2026-03-28T10:22:37.95Z</time></trkpt><trkpt lat="43.52802" lon="11.3302878"><ele>412.0</ele><time>2026-03-28T10:22:38.949Z</time></trkpt><trkpt lat="43.5279204" lon="11.3303494"><ele>410.20000000000005</ele><time>2026-03-28T10:22:39.95Z</time></trkpt><trkpt lat="43.527823" lon="11.330416"><ele>408.4</ele><time>2026-03-28T10:22:40.95Z</time></trkpt><trkpt lat="43.5277316" lon="11.3304743"><ele>406.6</ele><time>2026-03-28T10:22:41.951Z</time></trkpt><trkpt lat="43.5276427" lon="11.330526"><ele>404.79999999999995</ele><time>2026-03-28T10:22:42.949Z</time></trkpt><trkpt lat="43.5275555" lon="11.3305712"><ele>403.0</ele><time>2026-03-28T10:22:43.95Z</time></trkpt><trkpt lat="43.5274798" lon="11.3306167"><ele>401.6666666666667</ele><time>2026-03-28T10:22:44.949Z</time></trkpt><trkpt lat="43.5274042" lon="11.3306588"><ele>400.33333333333337</ele><time>2026-03-28T10:22:45.949Z</time></trkpt><trkpt lat="43.5273439" lon="11.3306993"><ele>399.0</ele><time>2026-03-28T10:22:46.949Z</time></trkpt><trkpt lat="43.5272687" lon="11.3308264"><ele>397.66666666666663</ele><time>2026-03-28T10:22:48.95Z</time></trkpt><trkpt lat="43.5272488" lon="11.3309089"><ele>396.3333333333333</ele><time>2026-03-28T10:22:49.95Z</time></trkpt><trkpt lat="43.5272658" lon="11.3309971"><ele>395.0</ele><time>2026-03-28T10:22:50.949Z</time></trkpt><trkpt lat="43.5272819" lon="11.3310914"><ele>394.99999999999994</ele><time>2026-03-28T10:22:51.95Z</time></trkpt><trkpt lat="43.5273022" lon="11.3311946"><ele>395.0</ele><time>2026-03-28T10:22:52.949Z</time></trkpt><trkpt lat="43.5273189" lon="11.3313009"><ele>395.0</ele><time>2026-03-28T10:22:53.951Z</time></trkpt><trkpt lat="43.5273428" lon="11.3314031"><ele>395.0</ele><time>2026-03-28T10:22:54.95Z</time></trkpt><trkpt lat="43.5273634" lon="11.3315225"><ele>394.99999999999994</ele><time>2026-03-28T10:22:55.949Z</time></trkpt><trkpt lat="43.5273992" lon="11.331645"><ele>395.0</ele><time>2026-03-28T10:22:56.95Z</time></trkpt><trkpt lat="43.5274326" lon="11.3317647"><ele>392.6</ele><time>2026-03-28T10:22:57.951Z</time></trkpt><trkpt lat="43.5274657" lon="11.3318798"><ele>390.2</ele><time>2026-03-28T10:22:58.949Z</time></trkpt><trkpt lat="43.5274957" lon="11.331985"><ele>387.79999999999995</ele><time>2026-03-28T10:22:59.951Z</time></trkpt><trkpt lat="43.5275318" lon="11.3320899"><ele>385.4</ele><time>2026-03-28T10:23:00.949Z</time></trkpt><trkpt lat="43.5275788" lon="11.3322161"><ele>383.0</ele><time>2026-03-28T10:23:01.95Z</time></trkpt><trkpt lat="43.5276245" lon="11.3323517"><ele>381.5</ele><time>2026-03-28T10:23:02.949Z</time></trkpt><trkpt lat="43.5276698" lon="11.3324853"><ele>380.0</ele><time>2026-03-28T10:23:03.95Z</time></trkpt><trkpt lat="43.5277281" lon="11.33263"><ele>378.5</ele><time>2026-03-28T10:23:04.949Z</time></trkpt><trkpt lat="43.5277829" lon="11.3327692"><ele>377.0</ele><time>2026-03-28T10:23:05.949Z</time></trkpt><trkpt lat="43.5278522" lon="11.3328945"><ele>377.6</ele><time>2026-03-28T10:23:06.95Z</time></trkpt><trkpt lat="43.5279108" lon="11.3330091"><ele>378.20000000000005</ele><time>2026-03-28T10:23:07.951Z</time></trkpt><trkpt lat="43.527969" lon="11.3331154"><ele>378.8</ele><time>2026-03-28T10:23:08.95Z</time></trkpt><trkpt lat="43.5280278" lon="11.3332203"><ele>379.4</ele><time>2026-03-28T10:23:09.949Z</time></trkpt><trkpt lat="43.5280795" lon="11.3333276"><ele>380.0</ele><time>2026-03-28T10:23:10.949Z</time></trkpt><trkpt lat="43.5281273" lon="11.3334353"><ele>380.0</ele><time>2026-03-28T10:23:11.95Z</time></trkpt><trkpt lat="43.5281815" lon="11.3335302"><ele>380.0</ele><time>2026-03-28T10:23:12.951Z</time></trkpt><trkpt lat="43.5282197" lon="11.3336267"><ele>380.0</ele><time>2026-03-28T10:23:13.949Z</time></trkpt><trkpt lat="43.5282489" lon="11.333727"><ele>380.0</ele><time>2026-03-28T10:23:14.951Z</time></trkpt><trkpt lat="43.5282782" lon="11.3338318"><ele>380.0</ele><time>2026-03-28T10:23:15.949Z</time></trkpt><trkpt lat="43.5282761" lon="11.3339277"><ele>380.0</ele><time>2026-03-28T10:23:16.951Z</time></trkpt><trkpt lat="43.5282554" lon="11.3340232"><ele>379.6666666666667</ele><time>2026-03-28T10:23:17.95Z</time></trkpt><trkpt lat="43.5282109" lon="11.3341121"><ele>379.33333333333337</ele><time>2026-03-28T10:23:18.949Z</time></trkpt><trkpt lat="43.5281481" lon="11.3341745"><ele>379.0</ele><time>2026-03-28T10:23:19.95Z</time></trkpt><trkpt lat="43.5280706" lon="11.3342024"><ele>378.6666666666667</ele><time>2026-03-28T10:23:20.949Z</time></trkpt><trkpt lat="43.5279699" lon="11.3341937"><ele>378.3333333333333</ele><time>2026-03-28T10:23:21.951Z</time></trkpt><trkpt lat="43.5278687" lon="11.3341642"><ele>378.0</ele><time>2026-03-28T10:23:22.95Z</time></trkpt><trkpt lat="43.5277383" lon="11.3341521"><ele>378.0</ele><time>2026-03-28T10:23:23.95Z</time></trkpt><trkpt lat="43.5276276" lon="11.3341727"><ele>378.0</ele><time>2026-03-28T10:23:24.949Z</time></trkpt><trkpt lat="43.5275137" lon="11.3342116"><ele>378.0</ele><time>2026-03-28T10:23:25.949Z</time></trkpt><trkpt lat="43.5273951" lon="11.3342479"><ele>378.0</ele><time>2026-03-28T10:23:26.95Z</time></trkpt><trkpt lat="43.5272728" lon="11.3342616"><ele>378.0</ele><time>2026-03-28T10:23:27.949Z</time></trkpt><trkpt lat="43.5271465" lon="11.3342378"><ele>378.0</ele><time>2026-03-28T10:23:28.95Z</time></trkpt><trkpt lat="43.5270354" lon="11.3342005"><ele>378.0</ele><time>2026-03-28T10:23:29.95Z</time></trkpt><trkpt lat="43.5269326" lon="11.3341563"><ele>378.0</ele><time>2026-03-28T10:23:30.95Z</time></trkpt><trkpt lat="43.5268719" lon="11.3341033"><ele>378.0</ele><time>2026-03-28T10:23:31.95Z</time></trkpt><trkpt lat="43.5267961" lon="11.3340679"><ele>377.0</ele><time>2026-03-28T10:23:32.95Z</time></trkpt><trkpt lat="43.5267095" lon="11.3340477"><ele>376.0</ele><time>2026-03-28T10:23:33.951Z</time></trkpt><trkpt lat="43.5266202" lon="11.3340253"><ele>375.0</ele><time>2026-03-28T10:23:34.948Z</time></trkpt><trkpt lat="43.5265402" lon="11.3339614"><ele>374.0</ele><time>2026-03-28T10:23:35.949Z</time></trkpt><trkpt lat="43.5264652" lon="11.3338437"><ele>373.0</ele><time>2026-03-28T10:23:36.951Z</time></trkpt><trkpt lat="43.5264006" lon="11.3337267"><ele>373.0</ele><time>2026-03-28T10:23:37.95Z</time></trkpt><trkpt lat="43.5263295" lon="11.3336241"><ele>373.0</ele><time>2026-03-28T10:23:38.95Z</time></trkpt><trkpt lat="43.5262543" lon="11.3335882"><ele>373.0</ele><time>2026-03-28T10:23:39.949Z</time></trkpt><trkpt lat="43.5261722" lon="11.3335679"><ele>373.0</ele><time>2026-03-28T10:23:40.949Z</time></trkpt><trkpt lat="43.526093" lon="11.3335811"><ele>373.0</ele><time>2026-03-28T10:23:41.951Z</time></trkpt><trkpt lat="43.5260071" lon="11.3336119"><ele>373.0</ele><time>2026-03-28T10:23:42.95Z</time></trkpt><trkpt lat="43.5258957" lon="11.3336478"><ele>376.75</ele><time>2026-03-28T10:23:43.949Z</time></trkpt><trkpt lat="43.5257904" lon="11.3336682"><ele>380.5</ele><time>2026-03-28T10:23:44.949Z</time></trkpt><trkpt lat="43.5256788" lon="11.333676"><ele>384.25</ele><time>2026-03-28T10:23:45.949Z</time></trkpt><trkpt lat="43.5255593" lon="11.333638"><ele>388.0</ele><time>2026-03-28T10:23:46.949Z</time></trkpt><trkpt lat="43.5254485" lon="11.3336198"><ele>390.4</ele><time>2026-03-28T10:23:47.949Z</time></trkpt><trkpt lat="43.5253352" lon="11.333586"><ele>392.79999999999995</ele><time>2026-03-28T10:23:48.95Z</time></trkpt><trkpt lat="43.525242" lon="11.3335662"><ele>395.2</ele><time>2026-03-28T10:23:49.949Z</time></trkpt><trkpt lat="43.5251462" lon="11.3335663"><ele>397.6</ele><time>2026-03-28T10:23:50.95Z</time></trkpt><trkpt lat="43.5250563" lon="11.3335953"><ele>400.0</ele><time>2026-03-28T10:23:51.951Z</time></trkpt><trkpt lat="43.5249597" lon="11.3336292"><ele>400.0</ele><time>2026-03-28T10:23:52.951Z</time></trkpt><trkpt lat="43.5248456" lon="11.3336939"><ele>400.0</ele><time>2026-03-28T10:23:53.95Z</time></trkpt><trkpt lat="43.5247132" lon="11.3337465"><ele>400.0</ele><time>2026-03-28T10:23:54.949Z</time></trkpt><trkpt lat="43.5245852" lon="11.3337697"><ele>400.0</ele><time>2026-03-28T10:23:55.95Z</time></trkpt><trkpt lat="43.5244437" lon="11.3337422"><ele>402.0</ele><time>2026-03-28T10:23:56.95Z</time></trkpt><trkpt lat="43.52431" lon="11.3337201"><ele>404.0</ele><time>2026-03-28T10:23:57.949Z</time></trkpt><trkpt lat="43.5242227" lon="11.3337006"><ele>406.0</ele><time>2026-03-28T10:23:58.949Z</time></trkpt><trkpt lat="43.5241199" lon="11.3336928"><ele>408.0</ele><time>2026-03-28T10:23:59.95Z</time></trkpt><trkpt lat="43.5240348" lon="11.3337573"><ele>410.0</ele><time>2026-03-28T10:24:00.95Z</time></trkpt><trkpt lat="43.5239406" lon="11.3338266"><ele>409.99999999999994</ele><time>2026-03-28T10:24:01.95Z</time></trkpt><trkpt lat="43.5238549" lon="11.333887"><ele>410.0</ele><time>2026-03-28T10:24:02.949Z</time></trkpt><trkpt lat="43.5237725" lon="11.3339138"><ele>410.0</ele><time>2026-03-28T10:24:03.95Z</time></trkpt><trkpt lat="43.5236882" lon="11.3339015"><ele>410.0</ele><time>2026-03-28T10:24:04.95Z</time></trkpt><trkpt lat="43.5236103" lon="11.3338446"><ele>409.99999999999994</ele><time>2026-03-28T10:24:05.95Z</time></trkpt><trkpt lat="43.5235274" lon="11.3337802"><ele>410.0</ele><time>2026-03-28T10:24:06.951Z</time></trkpt><trkpt lat="43.523443" lon="11.3337305"><ele>411.99999999999994</ele><time>2026-03-28T10:24:07.951Z</time></trkpt><trkpt lat="43.523365" lon="11.3337095"><ele>414.0</ele><time>2026-03-28T10:24:08.949Z</time></trkpt><trkpt lat="43.5232957" lon="11.3337269"><ele>416.0</ele><time>2026-03-28T10:24:09.951Z</time></trkpt><trkpt lat="43.5232229" lon="11.3337785"><ele>418.0</ele><time>2026-03-28T10:24:10.949Z</time></trkpt><trkpt lat="43.5231455" lon="11.3338302"><ele>419.99999999999994</ele><time>2026-03-28T10:24:11.949Z</time></trkpt><trkpt lat="43.5230526" lon="11.3338847"><ele>422.0</ele><time>2026-03-28T10:24:12.951Z</time></trkpt><trkpt lat="43.5229311" lon="11.3339435"><ele>424.40000000000003</ele><time>2026-03-28T10:24:13.95Z</time></trkpt><trkpt lat="43.5228166" lon="11.3339801"><ele>426.8</ele><time>2026-03-28T10:24:14.949Z</time></trkpt><trkpt lat="43.5227184" lon="11.3340115"><ele>429.2</ele><time>2026-03-28T10:24:15.951Z</time></trkpt><trkpt lat="43.5226296" lon="11.3340436"><ele>431.6</ele><time>2026-03-28T10:24:16.95Z</time></trkpt><trkpt lat="43.5225431" lon="11.3340863"><ele>434.0</ele><time>2026-03-28T10:24:17.95Z</time></trkpt><trkpt lat="43.5224609" lon="11.3341241"><ele>433.99999999999994</ele><time>2026-03-28T10:24:18.95Z</time></trkpt><trkpt lat="43.5223874" lon="11.3341392"><ele>434.0</ele><time>2026-03-28T10:24:19.949Z</time></trkpt><trkpt lat="43.5222989" lon="11.3341497"><ele>434.0</ele><time>2026-03-28T10:24:20.949Z</time></trkpt><trkpt lat="43.522203" lon="11.3341559"><ele>434.0</ele><time>2026-03-28T10:24:21.95Z</time></trkpt><trkpt lat="43.5221126" lon="11.3341643"><ele>433.99999999999994</ele><time>2026-03-28T10:24:22.951Z</time></trkpt><trkpt lat="43.5220214" lon="11.334192"><ele>434.0</ele><time>2026-03-28T10:24:23.949Z</time></trkpt><trkpt lat="43.5219291" lon="11.3342275"><ele>432.6</ele><time>2026-03-28T10:24:24.949Z</time></trkpt><trkpt lat="43.5218191" lon="11.3343016"><ele>431.2</ele><time>2026-03-28T10:24:25.949Z</time></trkpt><trkpt lat="43.521726" lon="11.3343654"><ele>429.80000000000007</ele><time>2026-03-28T10:24:26.949Z</time></trkpt><trkpt lat="43.521654" lon="11.3344147"><ele>428.40000000000003</ele><time>2026-03-28T10:24:27.95Z</time></trkpt><trkpt lat="43.5215668" lon="11.3344794"><ele>427.0</ele><time>2026-03-28T10:24:28.95Z</time></trkpt><trkpt lat="43.5214982" lon="11.3345225"><ele>427.00000000000006</ele><time>2026-03-28T10:24:29.949Z</time></trkpt><trkpt lat="43.5214362" lon="11.3345562"><ele>427.0</ele><time>2026-03-28T10:24:30.95Z</time></trkpt><trkpt lat="43.521323" lon="11.3345771"><ele>427.0</ele><time>2026-03-28T10:24:32.95Z</time></trkpt><trkpt lat="43.5212547" lon="11.3344938"><ele>427.0</ele><time>2026-03-28T10:24:34.95Z</time></trkpt><trkpt lat="43.5212407" lon="11.3344083"><ele>427.00000000000006</ele><time>2026-03-28T10:24:35.95Z</time></trkpt><trkpt lat="43.5212438" lon="11.3342823"><ele>427.0</ele><time>2026-03-28T10:24:36.95Z</time></trkpt><trkpt lat="43.5212475" lon="11.3341583"><ele>427.00000000000006</ele><time>2026-03-28T10:24:37.949Z</time></trkpt><trkpt lat="43.5212602" lon="11.3340286"><ele>427.0</ele><time>2026-03-28T10:24:38.95Z</time></trkpt><trkpt lat="43.5212383" lon="11.3339372"><ele>427.0</ele><time>2026-03-28T10:24:39.95Z</time></trkpt><trkpt lat="43.5212145" lon="11.3338403"><ele>427.0</ele><time>2026-03-28T10:24:40.95Z</time></trkpt><trkpt lat="43.5211855" lon="11.3337348"><ele>427.00000000000006</ele><time>2026-03-28T10:24:41.95Z</time></trkpt><trkpt lat="43.5211516" lon="11.3336297"><ele>427.0</ele><time>2026-03-28T10:24:42.949Z</time></trkpt><trkpt lat="43.5211154" lon="11.3335301"><ele>427.33333333333337</ele><time>2026-03-28T10:24:43.951Z</time></trkpt><trkpt lat="43.521078" lon="11.3334283"><ele>427.6666666666667</ele><time>2026-03-28T10:24:44.95Z</time></trkpt><trkpt lat="43.5210524" lon="11.3333445"><ele>428.0</ele><time>2026-03-28T10:24:45.95Z</time></trkpt><trkpt lat="43.5210357" lon="11.3332574"><ele>428.33333333333337</ele><time>2026-03-28T10:24:46.951Z</time></trkpt><trkpt lat="43.5210107" lon="11.3331738"><ele>428.6666666666667</ele><time>2026-03-28T10:24:47.951Z</time></trkpt><trkpt lat="43.5209735" lon="11.3330283"><ele>429.0</ele><time>2026-03-28T10:24:49.949Z</time></trkpt><trkpt lat="43.5208986" lon="11.3329268"><ele>429.0</ele><time>2026-03-28T10:24:51.95Z</time></trkpt><trkpt lat="43.5207926" lon="11.3328804"><ele>429.0</ele><time>2026-03-28T10:25:20.949Z</time></trkpt><trkpt lat="43.5207038" lon="11.3328164"><ele>429.0</ele><time>2026-03-28T10:25:22.951Z</time></trkpt><trkpt lat="43.5206686" lon="11.3327204"><ele>429.0</ele><time>2026-03-28T10:25:23.951Z</time></trkpt><trkpt lat="43.5206494" lon="11.332626"><ele>429.0</ele><time>2026-03-28T10:25:24.951Z</time></trkpt><trkpt lat="43.5206515" lon="11.3325065"><ele>429.0</ele><time>2026-03-28T10:25:25.949Z</time></trkpt><trkpt lat="43.5206828" lon="11.3323586"><ele>429.0</ele><time>2026-03-28T10:25:26.949Z</time></trkpt><trkpt lat="43.5207295" lon="11.3322189"><ele>429.0</ele><time>2026-03-28T10:25:27.95Z</time></trkpt><trkpt lat="43.5207842" lon="11.3320894"><ele>429.0</ele><time>2026-03-28T10:25:28.95Z</time></trkpt><trkpt lat="43.5208297" lon="11.3319685"><ele>429.0</ele><time>2026-03-28T10:25:29.95Z</time></trkpt><trkpt lat="43.5208625" lon="11.3318493"><ele>429.0</ele><time>2026-03-28T10:25:30.95Z</time></trkpt><trkpt lat="43.5208681" lon="11.3317337"><ele>429.0</ele><time>2026-03-28T10:25:31.951Z</time></trkpt><trkpt lat="43.520844" lon="11.3315909"><ele>429.0</ele><time>2026-03-28T10:25:32.95Z</time></trkpt><trkpt lat="43.5208113" lon="11.3314643"><ele>429.0</ele><time>2026-03-28T10:25:33.949Z</time></trkpt><trkpt lat="43.5207069" lon="11.3313183"><ele>429.0</ele><time>2026-03-28T10:25:34.949Z</time></trkpt><trkpt lat="43.5206148" lon="11.3311945"><ele>428.6</ele><time>2026-03-28T10:25:35.949Z</time></trkpt><trkpt lat="43.5205303" lon="11.3310818"><ele>428.2</ele><time>2026-03-28T10:25:36.951Z</time></trkpt><trkpt lat="43.5204501" lon="11.3309643"><ele>427.80000000000007</ele><time>2026-03-28T10:25:37.949Z</time></trkpt><trkpt lat="43.520409" lon="11.3308304"><ele>427.40000000000003</ele><time>2026-03-28T10:25:38.95Z</time></trkpt><trkpt lat="43.5203554" lon="11.3307004"><ele>427.0</ele><time>2026-03-28T10:25:39.949Z</time></trkpt><trkpt lat="43.5203483" lon="11.3305235"><ele>432.0</ele><time>2026-03-28T10:25:40.951Z</time></trkpt><trkpt lat="43.5203509" lon="11.3303682"><ele>437.0</ele><time>2026-03-28T10:25:41.949Z</time></trkpt><trkpt lat="43.5203484" lon="11.3302144"><ele>442.0</ele><time>2026-03-28T10:25:42.95Z</time></trkpt><trkpt lat="43.5203329" lon="11.3300558"><ele>447.0</ele><time>2026-03-28T10:25:43.95Z</time></trkpt><trkpt lat="43.5202912" lon="11.3298987"><ele>447.0</ele><time>2026-03-28T10:25:44.948Z</time></trkpt><trkpt lat="43.5202416" lon="11.3297776"><ele>447.0</ele><time>2026-03-28T10:25:45.95Z</time></trkpt><trkpt lat="43.5201916" lon="11.3296784"><ele>447.0</ele><time>2026-03-28T10:25:46.95Z</time></trkpt><trkpt lat="43.5201357" lon="11.3295887"><ele>447.0</ele><time>2026-03-28T10:25:47.95Z</time></trkpt><trkpt lat="43.5200654" lon="11.3295288"><ele>447.0</ele><time>2026-03-28T10:25:48.949Z</time></trkpt><trkpt lat="43.5199823" lon="11.3294779"><ele>447.0</ele><time>2026-03-28T10:25:49.949Z</time></trkpt><trkpt lat="43.5199051" lon="11.3294407"><ele>446.1666666666667</ele><time>2026-03-28T10:25:50.949Z</time></trkpt><trkpt lat="43.5198314" lon="11.3294148"><ele>445.33333333333337</ele><time>2026-03-28T10:25:51.95Z</time></trkpt><trkpt lat="43.519764" lon="11.3293792"><ele>444.5</ele><time>2026-03-28T10:25:52.95Z</time></trkpt><trkpt lat="43.519689" lon="11.3293368"><ele>443.6666666666667</ele><time>2026-03-28T10:25:53.951Z</time></trkpt><trkpt lat="43.5196146" lon="11.3292799"><ele>442.83333333333337</ele><time>2026-03-28T10:25:54.951Z</time></trkpt><trkpt lat="43.5195236" lon="11.3292079"><ele>442.0</ele><time>2026-03-28T10:25:55.951Z</time></trkpt><trkpt lat="43.5194199" lon="11.3291235"><ele>442.00000000000006</ele><time>2026-03-28T10:25:56.95Z</time></trkpt><trkpt lat="43.5193223" lon="11.3290215"><ele>442.0</ele><time>2026-03-28T10:25:57.948Z</time></trkpt><trkpt lat="43.5192427" lon="11.3289392"><ele>442.0</ele><time>2026-03-28T10:25:58.949Z</time></trkpt><trkpt lat="43.5191703" lon="11.3288845"><ele>442.0</ele><time>2026-03-28T10:25:59.949Z</time></trkpt><trkpt lat="43.5191069" lon="11.32884"><ele>442.00000000000006</ele><time>2026-03-28T10:26:00.95Z</time></trkpt><trkpt lat="43.5190354" lon="11.3288292"><ele>442.0</ele><time>2026-03-28T10:26:01.95Z</time></trkpt><trkpt lat="43.518958" lon="11.32882"><ele>442.20000000000005</ele><time>2026-03-28T10:26:02.95Z</time></trkpt><trkpt lat="43.5188815" lon="11.3288138"><ele>442.40000000000003</ele><time>2026-03-28T10:26:03.95Z</time></trkpt><trkpt lat="43.5187873" lon="11.328837"><ele>442.59999999999997</ele><time>2026-03-28T10:26:04.95Z</time></trkpt><trkpt lat="43.5187018" lon="11.3288676"><ele>442.79999999999995</ele><time>2026-03-28T10:26:05.95Z</time></trkpt><trkpt lat="43.5186123" lon="11.3289123"><ele>443.0</ele><time>2026-03-28T10:26:06.949Z</time></trkpt><trkpt lat="43.5185221" lon="11.328961"><ele>443.0</ele><time>2026-03-28T10:26:07.951Z</time></trkpt><trkpt lat="43.5184225" lon="11.3290206"><ele>442.99999999999994</ele><time>2026-03-28T10:26:08.951Z</time></trkpt><trkpt lat="43.5183285" lon="11.3290728"><ele>442.99999999999994</ele><time>2026-03-28T10:26:09.951Z</time></trkpt><trkpt lat="43.5182375" lon="11.3291299"><ele>443.0</ele><time>2026-03-28T10:26:10.949Z</time></trkpt><trkpt lat="43.5181595" lon="11.3291579"><ele>443.0</ele><time>2026-03-28T10:26:11.95Z</time></trkpt><trkpt lat="43.5180769" lon="11.3291646"><ele>443.0</ele><time>2026-03-28T10:26:12.95Z</time></trkpt><trkpt lat="43.5179886" lon="11.329161"><ele>442.99999999999994</ele><time>2026-03-28T10:26:13.951Z</time></trkpt><trkpt lat="43.5179018" lon="11.3291046"><ele>442.99999999999994</ele><time>2026-03-28T10:26:14.949Z</time></trkpt><trkpt lat="43.5178089" lon="11.3290587"><ele>443.0</ele><time>2026-03-28T10:26:15.949Z</time></trkpt><trkpt lat="43.5177184" lon="11.3290168"><ele>443.0</ele><time>2026-03-28T10:26:16.95Z</time></trkpt><trkpt lat="43.5176406" lon="11.3289794"><ele>442.0</ele><time>2026-03-28T10:26:17.948Z</time></trkpt><trkpt lat="43.5175523" lon="11.3289735"><ele>440.99999999999994</ele><time>2026-03-28T10:26:18.949Z</time></trkpt><trkpt lat="43.517461" lon="11.3289846"><ele>439.99999999999994</ele><time>2026-03-28T10:26:19.949Z</time></trkpt><trkpt lat="43.5173635" lon="11.3290259"><ele>439.0</ele><time>2026-03-28T10:26:20.95Z</time></trkpt><trkpt lat="43.5172552" lon="11.3290741"><ele>438.0</ele><time>2026-03-28T10:26:21.949Z</time></trkpt><trkpt lat="43.5171441" lon="11.3291198"><ele>437.25</ele><time>2026-03-28T10:26:22.948Z</time></trkpt><trkpt lat="43.5170083" lon="11.3291642"><ele>436.5</ele><time>2026-03-28T10:26:23.95Z</time></trkpt><trkpt lat="43.5168764" lon="11.3291964"><ele>435.75</ele><time>2026-03-28T10:26:24.951Z</time></trkpt><trkpt lat="43.5167755" lon="11.3292137"><ele>435.0</ele><time>2026-03-28T10:26:25.95Z</time></trkpt><trkpt lat="43.5166772" lon="11.3292351"><ele>435.0</ele><time>2026-03-28T10:26:26.951Z</time></trkpt><trkpt lat="43.5165843" lon="11.3292516"><ele>435.0</ele><time>2026-03-28T10:26:27.949Z</time></trkpt><trkpt lat="43.5164968" lon="11.3292623"><ele>435.0</ele><time>2026-03-28T10:26:28.95Z</time></trkpt><trkpt lat="43.5164326" lon="11.3292465"><ele>435.0</ele><time>2026-03-28T10:26:29.95Z</time></trkpt><trkpt lat="43.5163467" lon="11.329214"><ele>435.0</ele><time>2026-03-28T10:26:31.949Z</time></trkpt><trkpt lat="43.5162796" lon="11.3291465"><ele>435.0</ele><time>2026-03-28T10:26:35.95Z</time></trkpt><trkpt lat="43.5162196" lon="11.3289956"><ele>434.1666666666667</ele><time>2026-03-28T10:26:37.95Z</time></trkpt><trkpt lat="43.5161821" lon="11.3288409"><ele>433.33333333333337</ele><time>2026-03-28T10:26:39.949Z</time></trkpt><trkpt lat="43.5161507" lon="11.3287527"><ele>432.5</ele><time>2026-03-28T10:26:41.951Z</time></trkpt><trkpt lat="43.5161013" lon="11.3286935"><ele>431.6666666666667</ele><time>2026-03-28T10:26:47.95Z</time></trkpt><trkpt lat="43.5160405" lon="11.3287211"><ele>430.83333333333337</ele><time>2026-03-28T10:26:56.95Z</time></trkpt><trkpt lat="43.515974" lon="11.3288334"><ele>430.0</ele><time>2026-03-28T10:26:58.95Z</time></trkpt><trkpt lat="43.5159383" lon="11.3289131"><ele>430.0</ele><time>2026-03-28T10:26:59.951Z</time></trkpt><trkpt lat="43.5158767" lon="11.3290003"><ele>430.0</ele><time>2026-03-28T10:27:00.949Z</time></trkpt><trkpt lat="43.5157882" lon="11.3290953"><ele>430.0</ele><time>2026-03-28T10:27:01.95Z</time></trkpt><trkpt lat="43.5156803" lon="11.3291762"><ele>430.0</ele><time>2026-03-28T10:27:02.95Z</time></trkpt><trkpt lat="43.51556" lon="11.3292345"><ele>430.0</ele><time>2026-03-28T10:27:03.951Z</time></trkpt><trkpt lat="43.5154234" lon="11.3292789"><ele>430.0</ele><time>2026-03-28T10:27:04.95Z</time></trkpt><trkpt lat="43.5152724" lon="11.3293168"><ele>430.0</ele><time>2026-03-28T10:27:05.95Z</time></trkpt><trkpt lat="43.5151198" lon="11.3293646"><ele>427.75</ele><time>2026-03-28T10:27:06.95Z</time></trkpt><trkpt lat="43.5149713" lon="11.3294238"><ele>425.5</ele><time>2026-03-28T10:27:07.95Z</time></trkpt><trkpt lat="43.5148393" lon="11.3294928"><ele>423.25</ele><time>2026-03-28T10:27:08.95Z</time></trkpt><trkpt lat="43.5147275" lon="11.3295581"><ele>421.0</ele><time>2026-03-28T10:27:09.951Z</time></trkpt><trkpt lat="43.5146201" lon="11.3296327"><ele>420.33333333333337</ele><time>2026-03-28T10:27:10.95Z</time></trkpt><trkpt lat="43.5145476" lon="11.3296712"><ele>419.6666666666667</ele><time>2026-03-28T10:27:11.95Z</time></trkpt><trkpt lat="43.5144826" lon="11.3296848"><ele>419.0</ele><time>2026-03-28T10:27:12.95Z</time></trkpt><trkpt lat="43.5144234" lon="11.3296517"><ele>418.33333333333337</ele><time>2026-03-28T10:27:13.95Z</time></trkpt><trkpt lat="43.5143707" lon="11.3295776"><ele>417.6666666666667</ele><time>2026-03-28T10:27:14.951Z</time></trkpt><trkpt lat="43.514313" lon="11.3294527"><ele>417.0</ele><time>2026-03-28T10:27:15.951Z</time></trkpt><trkpt lat="43.5142545" lon="11.3293145"><ele>417.0</ele><time>2026-03-28T10:27:16.95Z</time></trkpt><trkpt lat="43.5141956" lon="11.3291784"><ele>417.0</ele><time>2026-03-28T10:27:17.951Z</time></trkpt><trkpt lat="43.5141357" lon="11.3290483"><ele>417.0</ele><time>2026-03-28T10:27:18.951Z</time></trkpt><trkpt lat="43.5140741" lon="11.3289129"><ele>417.0</ele><time>2026-03-28T10:27:19.951Z</time></trkpt><trkpt lat="43.5140161" lon="11.3287807"><ele>415.3333333333333</ele><time>2026-03-28T10:27:20.951Z</time></trkpt><trkpt lat="43.5139605" lon="11.3286521"><ele>413.66666666666663</ele><time>2026-03-28T10:27:21.951Z</time></trkpt><trkpt lat="43.5139097" lon="11.3285378"><ele>412.0</ele><time>2026-03-28T10:27:22.951Z</time></trkpt><trkpt lat="43.5138626" lon="11.3284558"><ele>410.3333333333333</ele><time>2026-03-28T10:27:23.949Z</time></trkpt><trkpt lat="43.5138073" lon="11.3284"><ele>408.66666666666663</ele><time>2026-03-28T10:27:24.951Z</time></trkpt><trkpt lat="43.5137369" lon="11.328387"><ele>407.0</ele><time>2026-03-28T10:27:25.951Z</time></trkpt><trkpt lat="43.5136631" lon="11.3284119"><ele>406.0</ele><time>2026-03-28T10:27:26.95Z</time></trkpt><trkpt lat="43.513559" lon="11.3284651"><ele>405.0</ele><time>2026-03-28T10:27:27.951Z</time></trkpt><trkpt lat="43.5134473" lon="11.3285067"><ele>404.0</ele><time>2026-03-28T10:27:28.949Z</time></trkpt><trkpt lat="43.5133262" lon="11.3285249"><ele>403.0</ele><time>2026-03-28T10:27:29.95Z</time></trkpt><trkpt lat="43.5131967" lon="11.3285439"><ele>403.0</ele><time>2026-03-28T10:27:30.95Z</time></trkpt><trkpt lat="43.513059" lon="11.3285686"><ele>403.0</ele><time>2026-03-28T10:27:31.951Z</time></trkpt><trkpt lat="43.5128043" lon="11.3286275"><ele>403.0</ele><time>2026-03-28T10:27:33.951Z</time></trkpt><trkpt lat="43.512706" lon="11.3286595"><ele>403.59999999999997</ele><time>2026-03-28T10:27:34.95Z</time></trkpt><trkpt lat="43.5126214" lon="11.32869"><ele>404.2</ele><time>2026-03-28T10:27:35.95Z</time></trkpt><trkpt lat="43.512547" lon="11.328681"><ele>404.8</ele><time>2026-03-28T10:27:36.95Z</time></trkpt><trkpt lat="43.5124763" lon="11.3286277"><ele>405.4</ele><time>2026-03-28T10:27:37.951Z</time></trkpt><trkpt lat="43.5124156" lon="11.3285258"><ele>406.0</ele><time>2026-03-28T10:27:38.949Z</time></trkpt><trkpt lat="43.5123527" lon="11.3283794"><ele>406.0</ele><time>2026-03-28T10:27:39.95Z</time></trkpt><trkpt lat="43.5122929" lon="11.3282536"><ele>406.0</ele><time>2026-03-28T10:27:40.95Z</time></trkpt><trkpt lat="43.5122351" lon="11.3281411"><ele>406.0</ele><time>2026-03-28T10:27:41.95Z</time></trkpt><trkpt lat="43.5121876" lon="11.3280375"><ele>406.0</ele><time>2026-03-28T10:27:42.951Z</time></trkpt><trkpt lat="43.5121415" lon="11.3279547"><ele>406.0</ele><time>2026-03-28T10:27:43.951Z</time></trkpt><trkpt lat="43.5121027" lon="11.3278607"><ele>404.6666666666667</ele><time>2026-03-28T10:27:44.95Z</time></trkpt><trkpt lat="43.5120621" lon="11.3277548"><ele>403.33333333333337</ele><time>2026-03-28T10:27:45.95Z</time></trkpt><trkpt lat="43.5120317" lon="11.3276483"><ele>402.0</ele><time>2026-03-28T10:27:46.949Z</time></trkpt><trkpt lat="43.5120059" lon="11.3275509"><ele>400.66666666666663</ele><time>2026-03-28T10:27:47.95Z</time></trkpt><trkpt lat="43.5119898" lon="11.3274626"><ele>399.3333333333333</ele><time>2026-03-28T10:27:48.95Z</time></trkpt><trkpt lat="43.511907" lon="11.3273646"><ele>398.0</ele><time>2026-03-28T10:27:50.949Z</time></trkpt><trkpt lat="43.5118515" lon="11.3273017"><ele>397.99999999999994</ele><time>2026-03-28T10:27:51.949Z</time></trkpt><trkpt lat="43.5118111" lon="11.3272334"><ele>398.0</ele><time>2026-03-28T10:27:52.95Z</time></trkpt><trkpt lat="43.5117734" lon="11.3271438"><ele>398.0</ele><time>2026-03-28T10:27:53.949Z</time></trkpt><trkpt lat="43.5117393" lon="11.3270412"><ele>398.0</ele><time>2026-03-28T10:27:54.951Z</time></trkpt><trkpt lat="43.5117199" lon="11.3269431"><ele>398.0</ele><time>2026-03-28T10:27:55.951Z</time></trkpt><trkpt lat="43.5117086" lon="11.3268417"><ele>397.99999999999994</ele><time>2026-03-28T10:27:56.95Z</time></trkpt><trkpt lat="43.511717" lon="11.3267364"><ele>398.0</ele><time>2026-03-28T10:27:57.95Z</time></trkpt><trkpt lat="43.5117491" lon="11.3266255"><ele>397.71428571428567</ele><time>2026-03-28T10:27:58.95Z</time></trkpt><trkpt lat="43.5117868" lon="11.3265193"><ele>397.42857142857144</ele><time>2026-03-28T10:27:59.949Z</time></trkpt><trkpt lat="43.5118124" lon="11.3264188"><ele>397.1428571428571</ele><time>2026-03-28T10:28:00.951Z</time></trkpt><trkpt lat="43.5118166" lon="11.3263177"><ele>396.85714285714283</ele><time>2026-03-28T10:28:01.95Z</time></trkpt><trkpt lat="43.5118072" lon="11.3262301"><ele>396.57142857142856</ele><time>2026-03-28T10:28:02.951Z</time></trkpt><trkpt lat="43.5117888" lon="11.3261415"><ele>396.2857142857143</ele><time>2026-03-28T10:28:03.95Z</time></trkpt><trkpt lat="43.5117695" lon="11.3260488"><ele>396.0</ele><time>2026-03-28T10:28:04.951Z</time></trkpt><trkpt lat="43.5117534" lon="11.3259526"><ele>394.1666666666667</ele><time>2026-03-28T10:28:05.95Z</time></trkpt><trkpt lat="43.5117249" lon="11.3258414"><ele>392.33333333333337</ele><time>2026-03-28T10:28:06.95Z</time></trkpt><trkpt lat="43.5116847" lon="11.3257419"><ele>390.5</ele><time>2026-03-28T10:28:07.95Z</time></trkpt><trkpt lat="43.5116175" lon="11.3256694"><ele>388.6666666666667</ele><time>2026-03-28T10:28:08.95Z</time></trkpt><trkpt lat="43.5115444" lon="11.3256245"><ele>386.83333333333337</ele><time>2026-03-28T10:28:09.95Z</time></trkpt><trkpt lat="43.5114584" lon="11.3256147"><ele>385.0</ele><time>2026-03-28T10:28:10.95Z</time></trkpt><trkpt lat="43.5113629" lon="11.3256344"><ele>385.0</ele><time>2026-03-28T10:28:11.95Z</time></trkpt><trkpt lat="43.5112689" lon="11.3256831"><ele>385.0</ele><time>2026-03-28T10:28:12.951Z</time></trkpt><trkpt lat="43.5111563" lon="11.325706"><ele>385.0</ele><time>2026-03-28T10:28:13.951Z</time></trkpt><trkpt lat="43.511038" lon="11.3257198"><ele>385.0</ele><time>2026-03-28T10:28:14.95Z</time></trkpt><trkpt lat="43.5109215" lon="11.3257348"><ele>382.5</ele><time>2026-03-28T10:28:15.95Z</time></trkpt><trkpt lat="43.5107972" lon="11.3257291"><ele>380.0</ele><time>2026-03-28T10:28:16.949Z</time></trkpt><trkpt lat="43.510667" lon="11.3257075"><ele>377.5</ele><time>2026-03-28T10:28:17.948Z</time></trkpt><trkpt lat="43.5105394" lon="11.3256814"><ele>375.0</ele><time>2026-03-28T10:28:18.949Z</time></trkpt><trkpt lat="43.5104127" lon="11.3256438"><ele>372.25</ele><time>2026-03-28T10:28:19.95Z</time></trkpt><trkpt lat="43.5102857" lon="11.3256059"><ele>369.5</ele><time>2026-03-28T10:28:20.949Z</time></trkpt><trkpt lat="43.5101711" lon="11.32556"><ele>366.75</ele><time>2026-03-28T10:28:21.95Z</time></trkpt><trkpt lat="43.5100559" lon="11.3255061"><ele>364.0</ele><time>2026-03-28T10:28:22.95Z</time></trkpt><trkpt lat="43.5099539" lon="11.3254427"><ele>362.2</ele><time>2026-03-28T10:28:23.95Z</time></trkpt><trkpt lat="43.5098514" lon="11.3253937"><ele>360.4</ele><time>2026-03-28T10:28:24.95Z</time></trkpt><trkpt lat="43.5097534" lon="11.325374"><ele>358.6</ele><time>2026-03-28T10:28:25.951Z</time></trkpt><trkpt lat="43.509647" lon="11.3253661"><ele>356.8</ele><time>2026-03-28T10:28:26.95Z</time></trkpt><trkpt lat="43.5095391" lon="11.3253648"><ele>355.0</ele><time>2026-03-28T10:28:27.95Z</time></trkpt><trkpt lat="43.5094282" lon="11.3253757"><ele>352.0</ele><time>2026-03-28T10:28:28.949Z</time></trkpt><trkpt lat="43.5093167" lon="11.3253778"><ele>349.0</ele><time>2026-03-28T10:28:29.949Z</time></trkpt><trkpt lat="43.5092078" lon="11.325394"><ele>346.0</ele><time>2026-03-28T10:28:30.949Z</time></trkpt><trkpt lat="43.5090925" lon="11.325419"><ele>343.0</ele><time>2026-03-28T10:28:31.95Z</time></trkpt><trkpt lat="43.5089734" lon="11.3254528"><ele>343.0</ele><time>2026-03-28T10:28:32.95Z</time></trkpt><trkpt lat="43.5088529" lon="11.3255"><ele>343.0</ele><time>2026-03-28T10:28:33.95Z</time></trkpt><trkpt lat="43.5087322" lon="11.3255683"><ele>343.0</ele><time>2026-03-28T10:28:34.95Z</time></trkpt><trkpt lat="43.5086191" lon="11.3256628"><ele>343.0</ele><time>2026-03-28T10:28:35.95Z</time></trkpt><trkpt lat="43.508526" lon="11.3257677"><ele>340.79999999999995</ele><time>2026-03-28T10:28:36.951Z</time></trkpt><trkpt lat="43.5084543" lon="11.3258693"><ele>338.6</ele><time>2026-03-28T10:28:37.949Z</time></trkpt><trkpt lat="43.5083869" lon="11.3259952"><ele>336.4</ele><time>2026-03-28T10:28:38.951Z</time></trkpt><trkpt lat="43.5083219" lon="11.3261247"><ele>334.20000000000005</ele><time>2026-03-28T10:28:39.951Z</time></trkpt><trkpt lat="43.5082738" lon="11.3262521"><ele>332.0</ele><time>2026-03-28T10:28:40.95Z</time></trkpt><trkpt lat="43.5082312" lon="11.3263901"><ele>331.20000000000005</ele><time>2026-03-28T10:28:41.951Z</time></trkpt><trkpt lat="43.5082025" lon="11.3265234"><ele>330.4</ele><time>2026-03-28T10:28:42.948Z</time></trkpt><trkpt lat="43.5081918" lon="11.3266525"><ele>329.6</ele><time>2026-03-28T10:28:43.95Z</time></trkpt><trkpt lat="43.5081966" lon="11.3267798"><ele>328.79999999999995</ele><time>2026-03-28T10:28:44.95Z</time></trkpt><trkpt lat="43.5082338" lon="11.3268921"><ele>328.0</ele><time>2026-03-28T10:28:45.949Z</time></trkpt><trkpt lat="43.5082971" lon="11.3269973"><ele>328.0</ele><time>2026-03-28T10:28:46.95Z</time></trkpt><trkpt lat="43.5083738" lon="11.3270985"><ele>328.0</ele><time>2026-03-28T10:28:47.951Z</time></trkpt><trkpt lat="43.5084588" lon="11.3271945"><ele>328.0</ele><time>2026-03-28T10:28:48.95Z</time></trkpt><trkpt lat="43.5085322" lon="11.3272776"><ele>328.0</ele><time>2026-03-28T10:28:49.95Z</time></trkpt><trkpt lat="43.508577" lon="11.3273642"><ele>328.0</ele><time>2026-03-28T10:28:50.95Z</time></trkpt><trkpt lat="43.5086061" lon="11.3274428"><ele>325.66666666666663</ele><time>2026-03-28T10:28:51.948Z</time></trkpt><trkpt lat="43.5085618" lon="11.3275591"><ele>323.3333333333333</ele><time>2026-03-28T10:28:53.951Z</time></trkpt><trkpt lat="43.5084985" lon="11.3275673"><ele>321.0</ele><time>2026-03-28T10:28:54.949Z</time></trkpt><trkpt lat="43.5084361" lon="11.3275368"><ele>318.6666666666667</ele><time>2026-03-28T10:28:55.951Z</time></trkpt><trkpt lat="43.5083193" lon="11.3274663"><ele>316.33333333333337</ele><time>2026-03-28T10:28:57.95Z</time></trkpt><trkpt lat="43.5082501" lon="11.3274167"><ele>314.0</ele><time>2026-03-28T10:28:58.951Z</time></trkpt><trkpt lat="43.5081649" lon="11.3273448"><ele>314.0</ele><time>2026-03-28T10:28:59.95Z</time></trkpt><trkpt lat="43.508087" lon="11.3272817"><ele>314.0</ele><time>2026-03-28T10:29:00.95Z</time></trkpt><trkpt lat="43.5079993" lon="11.327215"><ele>314.0</ele><time>2026-03-28T10:29:01.951Z</time></trkpt><trkpt lat="43.50791" lon="11.3271642"><ele>314.0</ele><time>2026-03-28T10:29:02.951Z</time></trkpt><trkpt lat="43.5078346" lon="11.3271183"><ele>314.0</ele><time>2026-03-28T10:29:03.951Z</time></trkpt><trkpt lat="43.5077526" lon="11.3270811"><ele>312.6666666666667</ele><time>2026-03-28T10:29:04.95Z</time></trkpt><trkpt lat="43.5076726" lon="11.3270391"><ele>311.33333333333337</ele><time>2026-03-28T10:29:05.95Z</time></trkpt><trkpt lat="43.5075995" lon="11.3269953"><ele>310.0</ele><time>2026-03-28T10:29:06.95Z</time></trkpt><trkpt lat="43.5075381" lon="11.3269629"><ele>308.6666666666667</ele><time>2026-03-28T10:29:07.95Z</time></trkpt><trkpt lat="43.5074545" lon="11.3269143"><ele>307.3333333333333</ele><time>2026-03-28T10:29:09.95Z</time></trkpt><trkpt lat="43.5073884" lon="11.3268866"><ele>306.0</ele><time>2026-03-28T10:29:18.951Z</time></trkpt><trkpt lat="43.5072977" lon="11.3269788"><ele>306.0</ele><time>2026-03-28T10:29:20.95Z</time></trkpt><trkpt lat="43.5072332" lon="11.3270335"><ele>306.0</ele><time>2026-03-28T10:29:21.95Z</time></trkpt><trkpt lat="43.5071473" lon="11.3270794"><ele>306.0</ele><time>2026-03-28T10:29:22.951Z</time></trkpt><trkpt lat="43.5070421" lon="11.327112"><ele>306.0</ele><time>2026-03-28T10:29:23.951Z</time></trkpt><trkpt lat="43.5069318" lon="11.3271595"><ele>306.0</ele><time>2026-03-28T10:29:24.95Z</time></trkpt><trkpt lat="43.5068119" lon="11.3272083"><ele>304.0</ele><time>2026-03-28T10:29:25.949Z</time></trkpt><trkpt lat="43.506674" lon="11.3272707"><ele>302.0</ele><time>2026-03-28T10:29:26.95Z</time></trkpt><trkpt lat="43.5065407" lon="11.3273485"><ele>300.0</ele><time>2026-03-28T10:29:27.95Z</time></trkpt><trkpt lat="43.5064046" lon="11.3274356"><ele>298.0</ele><time>2026-03-28T10:29:28.951Z</time></trkpt><trkpt lat="43.5062691" lon="11.3275305"><ele>298.3333333333333</ele><time>2026-03-28T10:29:29.95Z</time></trkpt><trkpt lat="43.5061314" lon="11.3276406"><ele>298.6666666666667</ele><time>2026-03-28T10:29:30.95Z</time></trkpt><trkpt lat="43.5059963" lon="11.3277612"><ele>299.0</ele><time>2026-03-28T10:29:31.95Z</time></trkpt><trkpt lat="43.5058715" lon="11.3278893"><ele>299.0</ele><time>2026-03-28T10:29:32.95Z</time></trkpt><trkpt lat="43.5057439" lon="11.3280189"><ele>299.0</ele><time>2026-03-28T10:29:33.95Z</time></trkpt><trkpt lat="43.5056117" lon="11.3281584"><ele>299.0</ele><time>2026-03-28T10:29:34.95Z</time></trkpt><trkpt lat="43.505481" lon="11.3283002"><ele>300.6666666666667</ele><time>2026-03-28T10:29:35.95Z</time></trkpt><trkpt lat="43.5053377" lon="11.3284478"><ele>302.3333333333333</ele><time>2026-03-28T10:29:36.951Z</time></trkpt><trkpt lat="43.5051927" lon="11.3285833"><ele>304.0</ele><time>2026-03-28T10:29:37.949Z</time></trkpt><trkpt lat="43.5050398" lon="11.3287095"><ele>304.0</ele><time>2026-03-28T10:29:38.949Z</time></trkpt><trkpt lat="43.5048891" lon="11.3288247"><ele>304.0</ele><time>2026-03-28T10:29:39.95Z</time></trkpt><trkpt lat="43.5047384" lon="11.3289338"><ele>304.0</ele><time>2026-03-28T10:29:40.95Z</time></trkpt><trkpt lat="43.5045825" lon="11.3290412"><ele>304.3333333333333</ele><time>2026-03-28T10:29:41.951Z</time></trkpt><trkpt lat="43.5044327" lon="11.3291467"><ele>304.6666666666667</ele><time>2026-03-28T10:29:42.95Z</time></trkpt><trkpt lat="43.5042798" lon="11.329234"><ele>305.0</ele><time>2026-03-28T10:29:43.95Z</time></trkpt><trkpt lat="43.5041267" lon="11.329309"><ele>305.0</ele><time>2026-03-28T10:29:44.95Z</time></trkpt><trkpt lat="43.5039718" lon="11.3293926"><ele>305.0</ele><time>2026-03-28T10:29:45.95Z</time></trkpt><trkpt lat="43.5038269" lon="11.3295137"><ele>305.0</ele><time>2026-03-28T10:29:46.95Z</time></trkpt><trkpt lat="43.5036834" lon="11.3296475"><ele>306.33333333333337</ele><time>2026-03-28T10:29:47.95Z</time></trkpt><trkpt lat="43.5035609" lon="11.3298208"><ele>307.6666666666667</ele><time>2026-03-28T10:29:48.95Z</time></trkpt><trkpt lat="43.5034373" lon="11.3300287"><ele>309.0</ele><time>2026-03-28T10:29:49.951Z</time></trkpt><trkpt lat="43.5033316" lon="11.3302252"><ele>309.0</ele><time>2026-03-28T10:29:50.95Z</time></trkpt><trkpt lat="43.5032178" lon="11.330414"><ele>309.0</ele><time>2026-03-28T10:29:51.951Z</time></trkpt><trkpt lat="43.5031016" lon="11.3306064"><ele>309.0</ele><time>2026-03-28T10:29:52.95Z</time></trkpt><trkpt lat="43.5029704" lon="11.3307906"><ele>309.6666666666667</ele><time>2026-03-28T10:29:53.949Z</time></trkpt><trkpt lat="43.502836" lon="11.3309858"><ele>310.33333333333337</ele><time>2026-03-28T10:29:54.95Z</time></trkpt><trkpt lat="43.5027004" lon="11.3311835"><ele>311.0</ele><time>2026-03-28T10:29:55.95Z</time></trkpt><trkpt lat="43.5025673" lon="11.3314026"><ele>309.6666666666667</ele><time>2026-03-28T10:29:56.951Z</time></trkpt><trkpt lat="43.5024438" lon="11.3316192"><ele>308.3333333333333</ele><time>2026-03-28T10:29:57.95Z</time></trkpt><trkpt lat="43.5022987" lon="11.3318243"><ele>307.0</ele><time>2026-03-28T10:29:58.951Z</time></trkpt><trkpt lat="43.5021491" lon="11.3320209"><ele>307.66666666666663</ele><time>2026-03-28T10:29:59.951Z</time></trkpt><trkpt lat="43.5019964" lon="11.3321867"><ele>308.3333333333333</ele><time>2026-03-28T10:30:00.951Z</time></trkpt><trkpt lat="43.5018356" lon="11.3323419"><ele>309.0</ele><time>2026-03-28T10:30:01.95Z</time></trkpt><trkpt lat="43.5016676" lon="11.3324944"><ele>309.0</ele><time>2026-03-28T10:30:02.95Z</time></trkpt><trkpt lat="43.5014978" lon="11.3326489"><ele>309.0</ele><time>2026-03-28T10:30:03.951Z</time></trkpt><trkpt lat="43.5013314" lon="11.3328117"><ele>309.0</ele><time>2026-03-28T10:30:04.951Z</time></trkpt><trkpt lat="43.5011682" lon="11.332985"><ele>310.3333333333333</ele><time>2026-03-28T10:30:05.95Z</time></trkpt><trkpt lat="43.5010176" lon="11.3331634"><ele>311.66666666666663</ele><time>2026-03-28T10:30:06.951Z</time></trkpt><trkpt lat="43.5008695" lon="11.3333568"><ele>313.0</ele><time>2026-03-28T10:30:07.951Z</time></trkpt><trkpt lat="43.500729" lon="11.3335653"><ele>313.0</ele><time>2026-03-28T10:30:08.95Z</time></trkpt><trkpt lat="43.5006028" lon="11.3337854"><ele>313.0</ele><time>2026-03-28T10:30:09.95Z</time></trkpt><trkpt lat="43.5004771" lon="11.3340153"><ele>313.0</ele><time>2026-03-28T10:30:10.95Z</time></trkpt><trkpt lat="43.5003633" lon="11.3342476"><ele>312.3333333333333</ele><time>2026-03-28T10:30:11.951Z</time></trkpt><trkpt lat="43.5002543" lon="11.3344842"><ele>311.6666666666667</ele><time>2026-03-28T10:30:12.95Z</time></trkpt><trkpt lat="43.5001397" lon="11.3347274"><ele>311.0</ele><time>2026-03-28T10:30:13.951Z</time></trkpt><trkpt lat="43.500023" lon="11.3349697"><ele>311.0</ele><time>2026-03-28T10:30:14.951Z</time></trkpt><trkpt lat="43.4999062" lon="11.3352084"><ele>311.0</ele><time>2026-03-28T10:30:15.951Z</time></trkpt><trkpt lat="43.4997946" lon="11.3354427"><ele>311.0</ele><time>2026-03-28T10:30:16.95Z</time></trkpt><trkpt lat="43.4996874" lon="11.3356706"><ele>314.0</ele><time>2026-03-28T10:30:17.95Z</time></trkpt><trkpt lat="43.4995775" lon="11.3358999"><ele>317.0</ele><time>2026-03-28T10:30:18.95Z</time></trkpt><trkpt lat="43.4994686" lon="11.3361319"><ele>320.0</ele><time>2026-03-28T10:30:19.949Z</time></trkpt><trkpt lat="43.4993585" lon="11.3363525"><ele>317.33333333333337</ele><time>2026-03-28T10:30:20.951Z</time></trkpt><trkpt lat="43.4992446" lon="11.3365708"><ele>314.6666666666667</ele><time>2026-03-28T10:30:21.95Z</time></trkpt><trkpt lat="43.4991234" lon="11.3367882"><ele>312.0</ele><time>2026-03-28T10:30:22.95Z</time></trkpt><trkpt lat="43.4989994" lon="11.3369911"><ele>312.0</ele><time>2026-03-28T10:30:23.951Z</time></trkpt><trkpt lat="43.4988669" lon="11.33718"><ele>312.0</ele><time>2026-03-28T10:30:24.951Z</time></trkpt><trkpt lat="43.4987326" lon="11.3373557"><ele>312.0</ele><time>2026-03-28T10:30:25.949Z</time></trkpt><trkpt lat="43.4985877" lon="11.3375308"><ele>315.3333333333333</ele><time>2026-03-28T10:30:26.95Z</time></trkpt><trkpt lat="43.4984387" lon="11.3376997"><ele>318.66666666666663</ele><time>2026-03-28T10:30:27.951Z</time></trkpt><trkpt lat="43.4982916" lon="11.3378688"><ele>322.0</ele><time>2026-03-28T10:30:28.949Z</time></trkpt><trkpt lat="43.4981507" lon="11.338042"><ele>319.0</ele><time>2026-03-28T10:30:29.95Z</time></trkpt><trkpt lat="43.4980201" lon="11.3382358"><ele>316.0</ele><time>2026-03-28T10:30:30.951Z</time></trkpt><trkpt lat="43.4978933" lon="11.3384467"><ele>313.0</ele><time>2026-03-28T10:30:31.95Z</time></trkpt><trkpt lat="43.4977705" lon="11.3386624"><ele>314.66666666666663</ele><time>2026-03-28T10:30:32.949Z</time></trkpt><trkpt lat="43.4976529" lon="11.3388794"><ele>316.3333333333333</ele><time>2026-03-28T10:30:33.95Z</time></trkpt><trkpt lat="43.4975334" lon="11.3391064"><ele>318.0</ele><time>2026-03-28T10:30:34.951Z</time></trkpt><trkpt lat="43.4974287" lon="11.3393415"><ele>318.0</ele><time>2026-03-28T10:30:35.95Z</time></trkpt><trkpt lat="43.4973374" lon="11.3395827"><ele>318.0</ele><time>2026-03-28T10:30:36.951Z</time></trkpt><trkpt lat="43.4972544" lon="11.3398363"><ele>318.0</ele><time>2026-03-28T10:30:37.95Z</time></trkpt><trkpt lat="43.4971848" lon="11.3400865"><ele>318.6666666666667</ele><time>2026-03-28T10:30:38.951Z</time></trkpt><trkpt lat="43.4971065" lon="11.3403485"><ele>319.33333333333337</ele><time>2026-03-28T10:30:39.95Z</time></trkpt><trkpt lat="43.4970292" lon="11.34061"><ele>320.0</ele><time>2026-03-28T10:30:40.95Z</time></trkpt><trkpt lat="43.496961" lon="11.3408701"><ele>320.0</ele><time>2026-03-28T10:30:41.951Z</time></trkpt><trkpt lat="43.4968912" lon="11.3411336"><ele>320.0</ele><time>2026-03-28T10:30:42.951Z</time></trkpt><trkpt lat="43.4968202" lon="11.341384"><ele>320.0</ele><time>2026-03-28T10:30:43.951Z</time></trkpt><trkpt lat="43.4967505" lon="11.3416353"><ele>319.6666666666667</ele><time>2026-03-28T10:30:44.95Z</time></trkpt><trkpt lat="43.4966702" lon="11.3418845"><ele>319.3333333333333</ele><time>2026-03-28T10:30:45.951Z</time></trkpt><trkpt lat="43.4965829" lon="11.3421292"><ele>319.0</ele><time>2026-03-28T10:30:46.95Z</time></trkpt><trkpt lat="43.4964807" lon="11.3423628"><ele>319.0</ele><time>2026-03-28T10:30:47.95Z</time></trkpt><trkpt lat="43.4963588" lon="11.3425842"><ele>319.0</ele><time>2026-03-28T10:30:48.951Z</time></trkpt><trkpt lat="43.49622" lon="11.3427927"><ele>319.0</ele><time>2026-03-28T10:30:49.95Z</time></trkpt><trkpt lat="43.4960781" lon="11.3429937"><ele>319.66666666666663</ele><time>2026-03-28T10:30:50.949Z</time></trkpt><trkpt lat="43.4959408" lon="11.343216"><ele>320.3333333333333</ele><time>2026-03-28T10:30:51.951Z</time></trkpt><trkpt lat="43.4958061" lon="11.343455"><ele>321.0</ele><time>2026-03-28T10:30:52.951Z</time></trkpt><trkpt lat="43.4956822" lon="11.3437055"><ele>320.0</ele><time>2026-03-28T10:30:53.949Z</time></trkpt><trkpt lat="43.4955646" lon="11.3439605"><ele>319.0</ele><time>2026-03-28T10:30:54.951Z</time></trkpt><trkpt lat="43.4954518" lon="11.34423"><ele>318.0</ele><time>2026-03-28T10:30:55.951Z</time></trkpt><trkpt lat="43.4953442" lon="11.3444952"><ele>319.0</ele><time>2026-03-28T10:30:56.95Z</time></trkpt><trkpt lat="43.4952453" lon="11.3447697"><ele>320.0</ele><time>2026-03-28T10:30:57.95Z</time></trkpt><trkpt lat="43.4951408" lon="11.3450436"><ele>321.0</ele><time>2026-03-28T10:30:58.95Z</time></trkpt><trkpt lat="43.4950425" lon="11.3453193"><ele>320.6666666666667</ele><time>2026-03-28T10:30:59.951Z</time></trkpt><trkpt lat="43.4949437" lon="11.3455964"><ele>320.33333333333337</ele><time>2026-03-28T10:31:00.951Z</time></trkpt><trkpt lat="43.4948462" lon="11.3458689"><ele>320.0</ele><time>2026-03-28T10:31:01.951Z</time></trkpt><trkpt lat="43.4947482" lon="11.3461345"><ele>320.0</ele><time>2026-03-28T10:31:02.949Z</time></trkpt><trkpt lat="43.4946496" lon="11.3463981"><ele>320.0</ele><time>2026-03-28T10:31:03.951Z</time></trkpt><trkpt lat="43.4945578" lon="11.3466586"><ele>320.0</ele><time>2026-03-28T10:31:04.95Z</time></trkpt><trkpt lat="43.4944635" lon="11.3469168"><ele>322.0</ele><time>2026-03-28T10:31:05.95Z</time></trkpt><trkpt lat="43.4943643" lon="11.3471674"><ele>324.0</ele><time>2026-03-28T10:31:06.951Z</time></trkpt><trkpt lat="43.4942547" lon="11.3474231"><ele>326.0</ele><time>2026-03-28T10:31:07.951Z</time></trkpt><trkpt lat="43.4941389" lon="11.3476608"><ele>326.0</ele><time>2026-03-28T10:31:08.95Z</time></trkpt><trkpt lat="43.4940073" lon="11.347891"><ele>326.0</ele><time>2026-03-28T10:31:09.95Z</time></trkpt><trkpt lat="43.4938702" lon="11.3481024"><ele>326.0</ele><time>2026-03-28T10:31:10.95Z</time></trkpt><trkpt lat="43.493724" lon="11.3483132"><ele>326.0</ele><time>2026-03-28T10:31:11.951Z</time></trkpt><trkpt lat="43.4935767" lon="11.3485311"><ele>326.0</ele><time>2026-03-28T10:31:12.95Z</time></trkpt><trkpt lat="43.4934203" lon="11.3487409"><ele>326.0</ele><time>2026-03-28T10:31:13.95Z</time></trkpt><trkpt lat="43.4932594" lon="11.3489408"><ele>325.0</ele><time>2026-03-28T10:31:14.95Z</time></trkpt><trkpt lat="43.4930943" lon="11.3491139"><ele>324.0</ele><time>2026-03-28T10:31:15.951Z</time></trkpt><trkpt lat="43.4929217" lon="11.3492743"><ele>323.0</ele><time>2026-03-28T10:31:16.951Z</time></trkpt><trkpt lat="43.4927465" lon="11.3494319"><ele>323.6666666666667</ele><time>2026-03-28T10:31:17.95Z</time></trkpt><trkpt lat="43.4925655" lon="11.3495899"><ele>324.3333333333333</ele><time>2026-03-28T10:31:18.95Z</time></trkpt><trkpt lat="43.4923847" lon="11.3497545"><ele>325.0</ele><time>2026-03-28T10:31:19.951Z</time></trkpt><trkpt lat="43.492201" lon="11.3499296"><ele>328.0</ele><time>2026-03-28T10:31:20.951Z</time></trkpt><trkpt lat="43.4920192" lon="11.3501099"><ele>331.0</ele><time>2026-03-28T10:31:21.95Z</time></trkpt><trkpt lat="43.4918451" lon="11.3502864"><ele>334.0</ele><time>2026-03-28T10:31:22.951Z</time></trkpt><trkpt lat="43.4916707" lon="11.3504553"><ele>334.0</ele><time>2026-03-28T10:31:23.95Z</time></trkpt><trkpt lat="43.4915002" lon="11.3506177"><ele>334.0</ele><time>2026-03-28T10:31:24.95Z</time></trkpt><trkpt lat="43.4913308" lon="11.3507814"><ele>334.0</ele><time>2026-03-28T10:31:25.951Z</time></trkpt><trkpt lat="43.4911609" lon="11.3509128"><ele>334.0</ele><time>2026-03-28T10:31:26.95Z</time></trkpt><trkpt lat="43.4909731" lon="11.3510196"><ele>334.0</ele><time>2026-03-28T10:31:27.95Z</time></trkpt><trkpt lat="43.4907901" lon="11.351104"><ele>334.0</ele><time>2026-03-28T10:31:28.95Z</time></trkpt><trkpt lat="43.4906199" lon="11.3512117"><ele>334.0</ele><time>2026-03-28T10:31:29.95Z</time></trkpt><trkpt lat="43.4904748" lon="11.3513381"><ele>334.0</ele><time>2026-03-28T10:31:30.95Z</time></trkpt><trkpt lat="43.4903571" lon="11.351488"><ele>334.0</ele><time>2026-03-28T10:31:31.951Z</time></trkpt><trkpt lat="43.4902788" lon="11.3516601"><ele>333.75</ele><time>2026-03-28T10:31:32.951Z</time></trkpt><trkpt lat="43.4902377" lon="11.3518461"><ele>333.5</ele><time>2026-03-28T10:31:33.95Z</time></trkpt><trkpt lat="43.4902372" lon="11.352043"><ele>333.25</ele><time>2026-03-28T10:31:34.95Z</time></trkpt><trkpt lat="43.4902714" lon="11.3522509"><ele>333.0</ele><time>2026-03-28T10:31:35.95Z</time></trkpt><trkpt lat="43.4903324" lon="11.3524661"><ele>333.0</ele><time>2026-03-28T10:31:36.951Z</time></trkpt><trkpt lat="43.4904066" lon="11.3526774"><ele>333.0</ele><time>2026-03-28T10:31:37.951Z</time></trkpt><trkpt lat="43.4904944" lon="11.352894"><ele>333.0</ele><time>2026-03-28T10:31:38.951Z</time></trkpt><trkpt lat="43.4905659" lon="11.3530975"><ele>333.0</ele><time>2026-03-28T10:31:39.95Z</time></trkpt><trkpt lat="43.4906057" lon="11.3533173"><ele>333.0</ele><time>2026-03-28T10:31:40.95Z</time></trkpt><trkpt lat="43.4906471" lon="11.3535289"><ele>333.0</ele><time>2026-03-28T10:31:41.95Z</time></trkpt><trkpt lat="43.4906661" lon="11.3537458"><ele>333.6666666666667</ele><time>2026-03-28T10:31:42.951Z</time></trkpt><trkpt lat="43.4907009" lon="11.3539643"><ele>334.33333333333337</ele><time>2026-03-28T10:31:43.95Z</time></trkpt><trkpt lat="43.4907747" lon="11.3541467"><ele>335.0</ele><time>2026-03-28T10:31:44.95Z</time></trkpt><trkpt lat="43.4908692" lon="11.3543313"><ele>335.0</ele><time>2026-03-28T10:31:45.951Z</time></trkpt><trkpt lat="43.4909854" lon="11.3544723"><ele>335.0</ele><time>2026-03-28T10:31:46.951Z</time></trkpt><trkpt lat="43.4911026" lon="11.3545743"><ele>335.0</ele><time>2026-03-28T10:31:47.951Z</time></trkpt><trkpt lat="43.4912133" lon="11.3546488"><ele>335.0</ele><time>2026-03-28T10:31:48.95Z</time></trkpt><trkpt lat="43.4913069" lon="11.3547052"><ele>335.0</ele><time>2026-03-28T10:31:49.952Z</time></trkpt><trkpt lat="43.4914053" lon="11.3547466"><ele>335.0</ele><time>2026-03-28T10:31:50.95Z</time></trkpt><trkpt lat="43.4914765" lon="11.3547399"><ele>335.0</ele><time>2026-03-28T10:31:52.95Z</time></trkpt><trkpt lat="43.4914341" lon="11.3546703"><ele>335.0</ele><time>2026-03-28T10:31:55.951Z</time></trkpt><trkpt lat="43.491356" lon="11.3546455"><ele>335.0</ele><time>2026-03-28T10:31:56.951Z</time></trkpt><trkpt lat="43.4912353" lon="11.3545945"><ele>335.0</ele><time>2026-03-28T10:31:57.95Z</time></trkpt><trkpt lat="43.4911343" lon="11.3545383"><ele>335.0</ele><time>2026-03-28T10:31:58.95Z</time></trkpt><trkpt lat="43.4910482" lon="11.3544741"><ele>335.0</ele><time>2026-03-28T10:31:59.951Z</time></trkpt><trkpt lat="43.4909863" lon="11.3544076"><ele>335.0</ele><time>2026-03-28T10:32:00.951Z</time></trkpt><trkpt lat="43.4909619" lon="11.3543192"><ele>335.0</ele><time>2026-03-28T10:32:01.951Z</time></trkpt><trkpt lat="43.4909568" lon="11.3542006"><ele>335.0</ele><time>2026-03-28T10:32:02.951Z</time></trkpt><trkpt lat="43.490971" lon="11.3540563"><ele>335.0</ele><time>2026-03-28T10:32:03.95Z</time></trkpt><trkpt lat="43.4909866" lon="11.3539087"><ele>334.5</ele><time>2026-03-28T10:32:04.952Z</time></trkpt><trkpt lat="43.4910202" lon="11.3537417"><ele>334.0</ele><time>2026-03-28T10:32:05.951Z</time></trkpt><trkpt lat="43.4910691" lon="11.3535854"><ele>333.5</ele><time>2026-03-28T10:32:06.951Z</time></trkpt><trkpt lat="43.4911042" lon="11.3534349"><ele>333.0</ele><time>2026-03-28T10:32:07.95Z</time></trkpt><trkpt lat="43.4911388" lon="11.3532848"><ele>333.0</ele><time>2026-03-28T10:32:08.95Z</time></trkpt><trkpt lat="43.49118" lon="11.3531472"><ele>333.0</ele><time>2026-03-28T10:32:09.95Z</time></trkpt><trkpt lat="43.4912251" lon="11.3530292"><ele>333.0</ele><time>2026-03-28T10:32:10.95Z</time></trkpt><trkpt lat="43.4912797" lon="11.3529209"><ele>333.0</ele><time>2026-03-28T10:32:11.951Z</time></trkpt><trkpt lat="43.4913729" lon="11.352866"><ele>333.0</ele><time>2026-03-28T10:32:12.95Z</time></trkpt><trkpt lat="43.4914634" lon="11.3528201"><ele>331.79999999999995</ele><time>2026-03-28T10:32:13.95Z</time></trkpt><trkpt lat="43.4915462" lon="11.3527477"><ele>330.6</ele><time>2026-03-28T10:32:14.951Z</time></trkpt><trkpt lat="43.4916165" lon="11.3526634"><ele>329.4</ele><time>2026-03-28T10:32:15.952Z</time></trkpt><trkpt lat="43.4916758" lon="11.3525741"><ele>328.20000000000005</ele><time>2026-03-28T10:32:16.952Z</time></trkpt><trkpt lat="43.4917341" lon="11.3524843"><ele>327.0</ele><time>2026-03-28T10:32:17.951Z</time></trkpt><trkpt lat="43.4918026" lon="11.3523891"><ele>327.0</ele><time>2026-03-28T10:32:18.95Z</time></trkpt><trkpt lat="43.4918621" lon="11.3523051"><ele>327.0</ele><time>2026-03-28T10:32:19.95Z</time></trkpt><trkpt lat="43.4919176" lon="11.3522222"><ele>327.0</ele><time>2026-03-28T10:32:20.949Z</time></trkpt><trkpt lat="43.4919749" lon="11.3521688"><ele>327.0</ele><time>2026-03-28T10:32:21.95Z</time></trkpt><trkpt lat="43.4920648" lon="11.3521327"><ele>327.0</ele><time>2026-03-28T10:32:23.95Z</time></trkpt><trkpt lat="43.4921216" lon="11.3521932"><ele>327.0</ele><time>2026-03-28T10:32:25.951Z</time></trkpt><trkpt lat="43.4921833" lon="11.3523232"><ele>327.2857142857143</ele><time>2026-03-28T10:32:27.95Z</time></trkpt><trkpt lat="43.4922197" lon="11.3524114"><ele>327.57142857142856</ele><time>2026-03-28T10:32:28.95Z</time></trkpt><trkpt lat="43.4922546" lon="11.3525072"><ele>327.8571428571429</ele><time>2026-03-28T10:32:29.951Z</time></trkpt><trkpt lat="43.4922931" lon="11.3525917"><ele>328.1428571428571</ele><time>2026-03-28T10:32:30.95Z</time></trkpt><trkpt lat="43.4923411" lon="11.3526741"><ele>328.42857142857144</ele><time>2026-03-28T10:32:31.951Z</time></trkpt><trkpt lat="43.4923988" lon="11.3527212"><ele>328.7142857142857</ele><time>2026-03-28T10:32:32.95Z</time></trkpt><trkpt lat="43.492465" lon="11.3527504"><ele>329.0</ele><time>2026-03-28T10:32:33.951Z</time></trkpt><trkpt lat="43.4925401" lon="11.3527252"><ele>329.0</ele><time>2026-03-28T10:32:34.951Z</time></trkpt><trkpt lat="43.4926325" lon="11.35272"><ele>329.0</ele><time>2026-03-28T10:32:35.95Z</time></trkpt><trkpt lat="43.4927492" lon="11.352733"><ele>329.0</ele><time>2026-03-28T10:32:36.951Z</time></trkpt><trkpt lat="43.4928753" lon="11.3527648"><ele>329.0</ele><time>2026-03-28T10:32:37.95Z</time></trkpt><trkpt lat="43.4929936" lon="11.3527856"><ele>331.2</ele><time>2026-03-28T10:32:38.951Z</time></trkpt><trkpt lat="43.4930959" lon="11.3528154"><ele>333.4</ele><time>2026-03-28T10:32:39.95Z</time></trkpt><trkpt lat="43.4931912" lon="11.3528514"><ele>335.6</ele><time>2026-03-28T10:32:40.951Z</time></trkpt><trkpt lat="43.4932856" lon="11.3529022"><ele>337.8</ele><time>2026-03-28T10:32:41.951Z</time></trkpt><trkpt lat="43.4933791" lon="11.3529672"><ele>340.0</ele><time>2026-03-28T10:32:42.95Z</time></trkpt><trkpt lat="43.493461" lon="11.3530362"><ele>339.66666666666663</ele><time>2026-03-28T10:32:43.951Z</time></trkpt><trkpt lat="43.4935247" lon="11.3530917"><ele>339.3333333333333</ele><time>2026-03-28T10:32:44.951Z</time></trkpt><trkpt lat="43.4935938" lon="11.3531458"><ele>339.0</ele><time>2026-03-28T10:32:45.95Z</time></trkpt><trkpt lat="43.4936626" lon="11.3531895"><ele>338.6666666666667</ele><time>2026-03-28T10:32:46.951Z</time></trkpt><trkpt lat="43.4937534" lon="11.353211"><ele>338.33333333333337</ele><time>2026-03-28T10:32:47.95Z</time></trkpt><trkpt lat="43.4938354" lon="11.3532165"><ele>338.0</ele><time>2026-03-28T10:32:48.95Z</time></trkpt><trkpt lat="43.4939287" lon="11.3531967"><ele>340.6666666666667</ele><time>2026-03-28T10:32:49.951Z</time></trkpt><trkpt lat="43.4940181" lon="11.3531737"><ele>343.33333333333337</ele><time>2026-03-28T10:32:50.95Z</time></trkpt><trkpt lat="43.4940853" lon="11.3531311"><ele>346.0</ele><time>2026-03-28T10:32:51.95Z</time></trkpt><trkpt lat="43.4941762" lon="11.3530655"><ele>348.6666666666667</ele><time>2026-03-28T10:32:52.951Z</time></trkpt><trkpt lat="43.4942435" lon="11.352991"><ele>351.3333333333333</ele><time>2026-03-28T10:32:53.951Z</time></trkpt><trkpt lat="43.4943088" lon="11.3529478"><ele>354.0</ele><time>2026-03-28T10:32:54.95Z</time></trkpt><trkpt lat="43.4944052" lon="11.352983"><ele>354.0</ele><time>2026-03-28T10:32:56.95Z</time></trkpt><trkpt lat="43.4944681" lon="11.3530451"><ele>354.0</ele><time>2026-03-28T10:32:57.95Z</time></trkpt><trkpt lat="43.4945263" lon="11.3531195"><ele>354.0</ele><time>2026-03-28T10:32:58.95Z</time></trkpt><trkpt lat="43.4946013" lon="11.353194"><ele>354.0</ele><time>2026-03-28T10:32:59.951Z</time></trkpt><trkpt lat="43.494681" lon="11.3532544"><ele>354.0</ele><time>2026-03-28T10:33:00.951Z</time></trkpt><trkpt lat="43.4947862" lon="11.3532544"><ele>354.0</ele><time>2026-03-28T10:33:01.951Z</time></trkpt><trkpt lat="43.4948972" lon="11.3532618"><ele>358.5</ele><time>2026-03-28T10:33:02.951Z</time></trkpt><trkpt lat="43.4950231" lon="11.3532733"><ele>363.0</ele><time>2026-03-28T10:33:03.951Z</time></trkpt><trkpt lat="43.4951601" lon="11.3532844"><ele>367.5</ele><time>2026-03-28T10:33:04.952Z</time></trkpt><trkpt lat="43.4953091" lon="11.3532958"><ele>372.0</ele><time>2026-03-28T10:33:05.951Z</time></trkpt><trkpt lat="43.4954377" lon="11.3533113"><ele>375.20000000000005</ele><time>2026-03-28T10:33:06.951Z</time></trkpt><trkpt lat="43.4955535" lon="11.3533262"><ele>378.4</ele><time>2026-03-28T10:33:07.95Z</time></trkpt><trkpt lat="43.4956587" lon="11.3533203"><ele>381.6</ele><time>2026-03-28T10:33:08.951Z</time></trkpt><trkpt lat="43.4957548" lon="11.3533009"><ele>384.79999999999995</ele><time>2026-03-28T10:33:09.951Z</time></trkpt><trkpt lat="43.4958414" lon="11.3532668"><ele>388.0</ele><time>2026-03-28T10:33:10.95Z</time></trkpt><trkpt lat="43.4959465" lon="11.3532028"><ele>388.00000000000006</ele><time>2026-03-28T10:33:11.951Z</time></trkpt><trkpt lat="43.4960302" lon="11.3531483"><ele>388.0</ele><time>2026-03-28T10:33:12.951Z</time></trkpt><trkpt lat="43.4960983" lon="11.3530906"><ele>388.0</ele><time>2026-03-28T10:33:13.951Z</time></trkpt><trkpt lat="43.4961534" lon="11.3530261"><ele>388.0</ele><time>2026-03-28T10:33:14.951Z</time></trkpt><trkpt lat="43.4962091" lon="11.3529346"><ele>388.00000000000006</ele><time>2026-03-28T10:33:15.95Z</time></trkpt><trkpt lat="43.4962574" lon="11.3528457"><ele>388.0</ele><time>2026-03-28T10:33:16.951Z</time></trkpt><trkpt lat="43.4963114" lon="11.3527767"><ele>391.2</ele><time>2026-03-28T10:33:17.951Z</time></trkpt><trkpt lat="43.4963866" lon="11.3527523"><ele>394.4</ele><time>2026-03-28T10:33:18.951Z</time></trkpt><trkpt lat="43.4964667" lon="11.3527345"><ele>397.59999999999997</ele><time>2026-03-28T10:33:19.95Z</time></trkpt><trkpt lat="43.4965705" lon="11.3527283"><ele>400.79999999999995</ele><time>2026-03-28T10:33:20.951Z</time></trkpt><trkpt lat="43.4966807" lon="11.3527321"><ele>404.0</ele><time>2026-03-28T10:33:21.95Z</time></trkpt><trkpt lat="43.4968005" lon="11.3527264"><ele>404.0</ele><time>2026-03-28T10:33:22.95Z</time></trkpt><trkpt lat="43.4969327" lon="11.35269"><ele>404.0</ele><time>2026-03-28T10:33:23.951Z</time></trkpt><trkpt lat="43.4970478" lon="11.3526607"><ele>404.0</ele><time>2026-03-28T10:33:24.951Z</time></trkpt><trkpt lat="43.4971691" lon="11.3525989"><ele>404.0</ele><time>2026-03-28T10:33:25.95Z</time></trkpt><trkpt lat="43.4972924" lon="11.3525251"><ele>405.25</ele><time>2026-03-28T10:33:26.95Z</time></trkpt><trkpt lat="43.4974156" lon="11.352415"><ele>406.5</ele><time>2026-03-28T10:33:27.95Z</time></trkpt><trkpt lat="43.4975356" lon="11.3523267"><ele>407.75</ele><time>2026-03-28T10:33:28.95Z</time></trkpt><trkpt lat="43.4976727" lon="11.3522584"><ele>409.0</ele><time>2026-03-28T10:33:29.95Z</time></trkpt><trkpt lat="43.4978138" lon="11.3521995"><ele>411.6666666666667</ele><time>2026-03-28T10:33:30.952Z</time></trkpt><trkpt lat="43.497968" lon="11.352138"><ele>414.33333333333337</ele><time>2026-03-28T10:33:31.951Z</time></trkpt><trkpt lat="43.4981093" lon="11.3520672"><ele>417.0</ele><time>2026-03-28T10:33:32.951Z</time></trkpt><trkpt lat="43.4982408" lon="11.3519973"><ele>417.0</ele><time>2026-03-28T10:33:33.951Z</time></trkpt><trkpt lat="43.4983579" lon="11.3519323"><ele>417.0</ele><time>2026-03-28T10:33:34.951Z</time></trkpt><trkpt lat="43.4984716" lon="11.3518705"><ele>417.0</ele><time>2026-03-28T10:33:35.951Z</time></trkpt><trkpt lat="43.4985877" lon="11.3518257"><ele>417.0</ele><time>2026-03-28T10:33:36.952Z</time></trkpt><trkpt lat="43.4987138" lon="11.3518067"><ele>416.5</ele><time>2026-03-28T10:33:37.951Z</time></trkpt><trkpt lat="43.4988469" lon="11.3518252"><ele>416.0</ele><time>2026-03-28T10:33:38.951Z</time></trkpt><trkpt lat="43.4989851" lon="11.3518822"><ele>415.5</ele><time>2026-03-28T10:33:39.951Z</time></trkpt><trkpt lat="43.4991314" lon="11.3519698"><ele>415.0</ele><time>2026-03-28T10:33:40.951Z</time></trkpt><trkpt lat="43.4992737" lon="11.3520829"><ele>415.6666666666667</ele><time>2026-03-28T10:33:41.951Z</time></trkpt><trkpt lat="43.4994208" lon="11.3522113"><ele>416.33333333333337</ele><time>2026-03-28T10:33:42.951Z</time></trkpt><trkpt lat="43.4995701" lon="11.3523254"><ele>417.0</ele><time>2026-03-28T10:33:43.951Z</time></trkpt><trkpt lat="43.4997342" lon="11.3524084"><ele>418.66666666666663</ele><time>2026-03-28T10:33:44.95Z</time></trkpt><trkpt lat="43.4999136" lon="11.3524781"><ele>420.3333333333333</ele><time>2026-03-28T10:33:45.951Z</time></trkpt><trkpt lat="43.5000947" lon="11.3525413"><ele>422.0</ele><time>2026-03-28T10:33:46.951Z</time></trkpt><trkpt lat="43.5002635" lon="11.3526059"><ele>422.0</ele><time>2026-03-28T10:33:47.95Z</time></trkpt><trkpt lat="43.5004036" lon="11.3526733"><ele>422.0</ele><time>2026-03-28T10:33:48.95Z</time></trkpt><trkpt lat="43.5005202" lon="11.3527347"><ele>422.0</ele><time>2026-03-28T10:33:49.951Z</time></trkpt><trkpt lat="43.5006249" lon="11.3527839"><ele>422.0</ele><time>2026-03-28T10:33:50.951Z</time></trkpt><trkpt lat="43.5007353" lon="11.3528158"><ele>422.40000000000003</ele><time>2026-03-28T10:33:51.951Z</time></trkpt><trkpt lat="43.5008456" lon="11.3528392"><ele>422.8</ele><time>2026-03-28T10:33:52.95Z</time></trkpt><trkpt lat="43.500955" lon="11.3528707"><ele>423.2</ele><time>2026-03-28T10:33:53.952Z</time></trkpt><trkpt lat="43.501054" lon="11.3529004"><ele>423.6</ele><time>2026-03-28T10:33:54.951Z</time></trkpt><trkpt lat="43.5011418" lon="11.3529158"><ele>424.0</ele><time>2026-03-28T10:33:55.951Z</time></trkpt><trkpt lat="43.5012256" lon="11.3528853"><ele>424.00000000000006</ele><time>2026-03-28T10:33:56.951Z</time></trkpt><trkpt lat="43.5013016" lon="11.352844"><ele>424.0</ele><time>2026-03-28T10:33:57.951Z</time></trkpt><trkpt lat="43.5013743" lon="11.3528099"><ele>424.0</ele><time>2026-03-28T10:33:58.95Z</time></trkpt><trkpt lat="43.5014496" lon="11.3527759"><ele>424.0</ele><time>2026-03-28T10:33:59.95Z</time></trkpt><trkpt lat="43.5015223" lon="11.3527555"><ele>424.00000000000006</ele><time>2026-03-28T10:34:00.95Z</time></trkpt><trkpt lat="43.5015852" lon="11.3527693"><ele>424.0</ele><time>2026-03-28T10:34:01.951Z</time></trkpt><trkpt lat="43.5016658" lon="11.3528746"><ele>424.00000000000006</ele><time>2026-03-28T10:34:03.95Z</time></trkpt><trkpt lat="43.5017124" lon="11.3529345"><ele>424.0</ele><time>2026-03-28T10:34:04.95Z</time></trkpt><trkpt lat="43.5017683" lon="11.352981"><ele>424.0</ele><time>2026-03-28T10:34:05.95Z</time></trkpt><trkpt lat="43.5018368" lon="11.3530106"><ele>424.0</ele><time>2026-03-28T10:34:06.95Z</time></trkpt><trkpt lat="43.5019186" lon="11.3530239"><ele>424.00000000000006</ele><time>2026-03-28T10:34:07.951Z</time></trkpt><trkpt lat="43.5020071" lon="11.3530287"><ele>424.0</ele><time>2026-03-28T10:34:08.95Z</time></trkpt><trkpt lat="43.5020923" lon="11.3530285"><ele>424.50000000000006</ele><time>2026-03-28T10:34:09.951Z</time></trkpt><trkpt lat="43.5021737" lon="11.353038"><ele>425.0</ele><time>2026-03-28T10:34:10.951Z</time></trkpt><trkpt lat="43.5022496" lon="11.3530558"><ele>425.5</ele><time>2026-03-28T10:34:11.95Z</time></trkpt><trkpt lat="43.5023301" lon="11.353078"><ele>426.0</ele><time>2026-03-28T10:34:12.95Z</time></trkpt><trkpt lat="43.5024208" lon="11.353096"><ele>426.50000000000006</ele><time>2026-03-28T10:34:13.951Z</time></trkpt><trkpt lat="43.5025112" lon="11.3531038"><ele>427.0</ele><time>2026-03-28T10:34:14.95Z</time></trkpt><trkpt lat="43.5025899" lon="11.3531095"><ele>427.6</ele><time>2026-03-28T10:34:15.95Z</time></trkpt><trkpt lat="43.5026634" lon="11.3531156"><ele>428.20000000000005</ele><time>2026-03-28T10:34:16.95Z</time></trkpt><trkpt lat="43.5027776" lon="11.353137"><ele>428.8</ele><time>2026-03-28T10:34:18.952Z</time></trkpt><trkpt lat="43.5029058" lon="11.353152"><ele>429.4</ele><time>2026-03-28T10:34:20.951Z</time></trkpt><trkpt lat="43.5029775" lon="11.3531589"><ele>430.0</ele><time>2026-03-28T10:34:21.952Z</time></trkpt><trkpt lat="43.5030596" lon="11.3531666"><ele>431.83333333333337</ele><time>2026-03-28T10:34:22.951Z</time></trkpt><trkpt lat="43.5031375" lon="11.3531683"><ele>433.6666666666667</ele><time>2026-03-28T10:34:23.95Z</time></trkpt><trkpt lat="43.5032276" lon="11.3531757"><ele>435.5</ele><time>2026-03-28T10:34:25.95Z</time></trkpt><trkpt lat="43.5032557" lon="11.3530877"><ele>437.33333333333337</ele><time>2026-03-28T10:34:29.951Z</time></trkpt><trkpt lat="43.5032414" lon="11.3529904"><ele>439.1666666666667</ele><time>2026-03-28T10:34:32.951Z</time></trkpt><trkpt lat="43.5032417" lon="11.3529011"><ele>441.0</ele><time>2026-03-28T10:34:34.951Z</time></trkpt><trkpt lat="43.5032612" lon="11.3527942"><ele>441.0</ele><time>2026-03-28T10:34:36.951Z</time></trkpt><trkpt lat="43.5032942" lon="11.3526833"><ele>441.0</ele><time>2026-03-28T10:34:38.951Z</time></trkpt><trkpt lat="43.5033393" lon="11.3525838"><ele>441.0</ele><time>2026-03-28T10:34:41.95Z</time></trkpt><trkpt lat="43.5033871" lon="11.3524807"><ele>441.0</ele><time>2026-03-28T10:34:44.951Z</time></trkpt><trkpt lat="43.5034355" lon="11.3523539"><ele>441.0</ele><time>2026-03-28T10:34:46.95Z</time></trkpt><trkpt lat="43.5034814" lon="11.3522851"><ele>441.0</ele><time>2026-03-28T10:34:47.951Z</time></trkpt><trkpt lat="43.5035381" lon="11.3522182"><ele>440.0</ele><time>2026-03-28T10:34:48.951Z</time></trkpt><trkpt lat="43.5035999" lon="11.3521578"><ele>439.0</ele><time>2026-03-28T10:34:49.95Z</time></trkpt><trkpt lat="43.5036722" lon="11.352112"><ele>438.0</ele><time>2026-03-28T10:34:50.951Z</time></trkpt><trkpt lat="43.5037428" lon="11.3520495"><ele>437.0</ele><time>2026-03-28T10:34:51.951Z</time></trkpt><trkpt lat="43.5038143" lon="11.3519761"><ele>436.0</ele><time>2026-03-28T10:34:52.952Z</time></trkpt><trkpt lat="43.5038773" lon="11.3518882"><ele>435.0</ele><time>2026-03-28T10:34:53.95Z</time></trkpt><trkpt lat="43.5039322" lon="11.3517904"><ele>437.6</ele><time>2026-03-28T10:34:54.95Z</time></trkpt><trkpt lat="43.5039915" lon="11.3516837"><ele>440.2</ele><time>2026-03-28T10:34:55.951Z</time></trkpt><trkpt lat="43.5040613" lon="11.3515649"><ele>442.79999999999995</ele><time>2026-03-28T10:34:56.95Z</time></trkpt><trkpt lat="43.5041206" lon="11.3514498"><ele>445.4</ele><time>2026-03-28T10:34:57.951Z</time></trkpt><trkpt lat="43.5041772" lon="11.351338"><ele>448.0</ele><time>2026-03-28T10:34:58.95Z</time></trkpt><trkpt lat="43.5042696" lon="11.3512589"><ele>448.0</ele><time>2026-03-28T10:34:59.95Z</time></trkpt><trkpt lat="43.5043527" lon="11.3511771"><ele>447.99999999999994</ele><time>2026-03-28T10:35:00.951Z</time></trkpt><trkpt lat="43.5044407" lon="11.3511101"><ele>447.99999999999994</ele><time>2026-03-28T10:35:01.951Z</time></trkpt><trkpt lat="43.5045098" lon="11.3510535"><ele>448.0</ele><time>2026-03-28T10:35:02.95Z</time></trkpt><trkpt lat="43.5045677" lon="11.3510022"><ele>448.0</ele><time>2026-03-28T10:35:03.95Z</time></trkpt><trkpt lat="43.5046705" lon="11.3509714"><ele>449.4</ele><time>2026-03-28T10:35:05.951Z</time></trkpt><trkpt lat="43.504714" lon="11.3510383"><ele>450.79999999999995</ele><time>2026-03-28T10:35:06.951Z</time></trkpt><trkpt lat="43.5048208" lon="11.3511781"><ele>452.2</ele><time>2026-03-28T10:35:08.951Z</time></trkpt><trkpt lat="43.5048955" lon="11.3512527"><ele>453.6</ele><time>2026-03-28T10:35:09.952Z</time></trkpt><trkpt lat="43.5049615" lon="11.3513527"><ele>455.0</ele><time>2026-03-28T10:35:10.95Z</time></trkpt><trkpt lat="43.5050209" lon="11.351474"><ele>457.25</ele><time>2026-03-28T10:35:11.952Z</time></trkpt><trkpt lat="43.5050735" lon="11.3516317"><ele>459.5</ele><time>2026-03-28T10:35:12.951Z</time></trkpt><trkpt lat="43.5051115" lon="11.3517904"><ele>461.75</ele><time>2026-03-28T10:35:13.952Z</time></trkpt><trkpt lat="43.5051493" lon="11.3519425"><ele>464.0</ele><time>2026-03-28T10:35:14.951Z</time></trkpt><trkpt lat="43.5051978" lon="11.3520515"><ele>464.0</ele><time>2026-03-28T10:35:15.951Z</time></trkpt><trkpt lat="43.5052709" lon="11.3521204"><ele>464.0</ele><time>2026-03-28T10:35:16.952Z</time></trkpt><trkpt lat="43.505329" lon="11.3521852"><ele>464.0</ele><time>2026-03-28T10:35:17.951Z</time></trkpt><trkpt lat="43.5054168" lon="11.3522624"><ele>464.0</ele><time>2026-03-28T10:35:18.95Z</time></trkpt><trkpt lat="43.5055024" lon="11.3523473"><ele>464.0</ele><time>2026-03-28T10:35:19.951Z</time></trkpt><trkpt lat="43.5056059" lon="11.3524181"><ele>467.5</ele><time>2026-03-28T10:35:20.951Z</time></trkpt><trkpt lat="43.5057307" lon="11.3524761"><ele>471.0</ele><time>2026-03-28T10:35:21.95Z</time></trkpt><trkpt lat="43.5058536" lon="11.3525165"><ele>474.5</ele><time>2026-03-28T10:35:22.951Z</time></trkpt><trkpt lat="43.5059713" lon="11.3525379"><ele>478.0</ele><time>2026-03-28T10:35:23.95Z</time></trkpt><trkpt lat="43.5060903" lon="11.3525402"><ele>478.0</ele><time>2026-03-28T10:35:24.951Z</time></trkpt><trkpt lat="43.5062136" lon="11.3525112"><ele>477.99999999999994</ele><time>2026-03-28T10:35:25.951Z</time></trkpt><trkpt lat="43.5063339" lon="11.3524838"><ele>477.99999999999994</ele><time>2026-03-28T10:35:26.95Z</time></trkpt><trkpt lat="43.5064501" lon="11.3524638"><ele>478.0</ele><time>2026-03-28T10:35:27.953Z</time></trkpt><trkpt lat="43.5065331" lon="11.3524861"><ele>478.0</ele><time>2026-03-28T10:35:28.951Z</time></trkpt><trkpt lat="43.5066045" lon="11.3525416"><ele>479.4</ele><time>2026-03-28T10:35:29.951Z</time></trkpt><trkpt lat="43.5066917" lon="11.3526025"><ele>480.79999999999995</ele><time>2026-03-28T10:35:30.95Z</time></trkpt><trkpt lat="43.5067887" lon="11.3526557"><ele>482.2</ele><time>2026-03-28T10:35:31.95Z</time></trkpt><trkpt lat="43.5068708" lon="11.3527179"><ele>483.6</ele><time>2026-03-28T10:35:32.95Z</time></trkpt><trkpt lat="43.5069507" lon="11.3528133"><ele>485.0</ele><time>2026-03-28T10:35:33.95Z</time></trkpt><trkpt lat="43.5070278" lon="11.3529085"><ele>484.8</ele><time>2026-03-28T10:35:34.951Z</time></trkpt><trkpt lat="43.5071034" lon="11.3529723"><ele>484.6</ele><time>2026-03-28T10:35:35.95Z</time></trkpt><trkpt lat="43.5071896" lon="11.3530095"><ele>484.4</ele><time>2026-03-28T10:35:36.949Z</time></trkpt><trkpt lat="43.5072951" lon="11.3530397"><ele>484.2</ele><time>2026-03-28T10:35:37.951Z</time></trkpt><trkpt lat="43.5074088" lon="11.3530856"><ele>484.0</ele><time>2026-03-28T10:35:38.95Z</time></trkpt><trkpt lat="43.5075132" lon="11.3531673"><ele>486.5</ele><time>2026-03-28T10:35:39.951Z</time></trkpt><trkpt lat="43.507627" lon="11.3532309"><ele>489.0</ele><time>2026-03-28T10:35:40.951Z</time></trkpt><trkpt lat="43.5077608" lon="11.3532661"><ele>491.5</ele><time>2026-03-28T10:35:41.951Z</time></trkpt><trkpt lat="43.5079047" lon="11.3532925"><ele>494.0</ele><time>2026-03-28T10:35:42.95Z</time></trkpt><trkpt lat="43.5080573" lon="11.3532965"><ele>494.79999999999995</ele><time>2026-03-28T10:35:43.95Z</time></trkpt><trkpt lat="43.5081997" lon="11.3532864"><ele>495.59999999999997</ele><time>2026-03-28T10:35:44.951Z</time></trkpt><trkpt lat="43.5083134" lon="11.3532732"><ele>496.4</ele><time>2026-03-28T10:35:45.95Z</time></trkpt><trkpt lat="43.5084078" lon="11.353254"><ele>497.2</ele><time>2026-03-28T10:35:46.95Z</time></trkpt><trkpt lat="43.5084989" lon="11.3532369"><ele>498.0</ele><time>2026-03-28T10:35:47.952Z</time></trkpt><trkpt lat="43.5085935" lon="11.3532485"><ele>498.0</ele><time>2026-03-28T10:35:48.95Z</time></trkpt><trkpt lat="43.508706" lon="11.3532955"><ele>497.99999999999994</ele><time>2026-03-28T10:35:49.951Z</time></trkpt><trkpt lat="43.5088108" lon="11.3533418"><ele>497.99999999999994</ele><time>2026-03-28T10:35:50.951Z</time></trkpt><trkpt lat="43.5088978" lon="11.3533757"><ele>498.0</ele><time>2026-03-28T10:35:51.95Z</time></trkpt><trkpt lat="43.5090007" lon="11.353469"><ele>498.0</ele><time>2026-03-28T10:35:53.95Z</time></trkpt><trkpt lat="43.5090498" lon="11.3535595"><ele>499.71428571428567</ele><time>2026-03-28T10:35:54.95Z</time></trkpt><trkpt lat="43.5090887" lon="11.3536425"><ele>501.4285714285714</ele><time>2026-03-28T10:35:55.951Z</time></trkpt><trkpt lat="43.5091276" lon="11.3537122"><ele>503.1428571428571</ele><time>2026-03-28T10:35:56.951Z</time></trkpt><trkpt lat="43.5092017" lon="11.353771"><ele>504.8571428571429</ele><time>2026-03-28T10:35:58.95Z</time></trkpt><trkpt lat="43.509263" lon="11.3537413"><ele>506.5714285714286</ele><time>2026-03-28T10:36:05.951Z</time></trkpt><trkpt lat="43.5092067" lon="11.3536815"><ele>508.28571428571433</ele><time>2026-03-28T10:37:25.951Z</time></trkpt><trkpt lat="43.5091268" lon="11.3536396"><ele>510.0</ele><time>2026-03-28T10:37:27.951Z</time></trkpt><trkpt lat="43.5090571" lon="11.353534"><ele>510.0</ele><time>2026-03-28T10:37:29.95Z</time></trkpt><trkpt lat="43.5090062" lon="11.3534312"><ele>510.0</ele><time>2026-03-28T10:37:31.951Z</time></trkpt><trkpt lat="43.5089165" lon="11.3533652"><ele>510.0</ele><time>2026-03-28T10:37:33.952Z</time></trkpt><trkpt lat="43.5087983" lon="11.3533063"><ele>510.0</ele><time>2026-03-28T10:37:35.951Z</time></trkpt><trkpt lat="43.5086874" lon="11.3532702"><ele>510.0</ele><time>2026-03-28T10:37:37.951Z</time></trkpt><trkpt lat="43.5085931" lon="11.3532359"><ele>507.6</ele><time>2026-03-28T10:37:39.952Z</time></trkpt><trkpt lat="43.5084744" lon="11.353227"><ele>505.2</ele><time>2026-03-28T10:37:41.95Z</time></trkpt><trkpt lat="43.5083992" lon="11.3532458"><ele>502.79999999999995</ele><time>2026-03-28T10:37:42.95Z</time></trkpt><trkpt lat="43.5083125" lon="11.3532614"><ele>500.4</ele><time>2026-03-28T10:37:43.95Z</time></trkpt><trkpt lat="43.5082018" lon="11.3532685"><ele>498.0</ele><time>2026-03-28T10:37:44.951Z</time></trkpt><trkpt lat="43.5081054" lon="11.353286"><ele>498.0</ele><time>2026-03-28T10:37:45.95Z</time></trkpt><trkpt lat="43.5080055" lon="11.353294"><ele>497.99999999999994</ele><time>2026-03-28T10:37:46.95Z</time></trkpt><trkpt lat="43.5079134" lon="11.3532932"><ele>497.99999999999994</ele><time>2026-03-28T10:37:47.951Z</time></trkpt><trkpt lat="43.5078315" lon="11.3532802"><ele>498.0</ele><time>2026-03-28T10:37:48.95Z</time></trkpt><trkpt lat="43.5077561" lon="11.3532592"><ele>498.0</ele><time>2026-03-28T10:37:49.951Z</time></trkpt><trkpt lat="43.5076575" lon="11.3532275"><ele>497.2</ele><time>2026-03-28T10:37:51.951Z</time></trkpt><trkpt lat="43.5075911" lon="11.3531949"><ele>496.4</ele><time>2026-03-28T10:37:53.952Z</time></trkpt><trkpt lat="43.5075223" lon="11.3531555"><ele>495.59999999999997</ele><time>2026-03-28T10:37:55.95Z</time></trkpt><trkpt lat="43.5074625" lon="11.3530871"><ele>494.79999999999995</ele><time>2026-03-28T10:37:57.952Z</time></trkpt><trkpt lat="43.5073545" lon="11.353028"><ele>494.0</ele><time>2026-03-28T10:37:59.951Z</time></trkpt><trkpt lat="43.5072395" lon="11.3529745"><ele>492.2</ele><time>2026-03-28T10:38:01.951Z</time></trkpt><trkpt lat="43.5071567" lon="11.35296"><ele>490.4</ele><time>2026-03-28T10:38:03.952Z</time></trkpt><trkpt lat="43.5070781" lon="11.3529226"><ele>488.6</ele><time>2026-03-28T10:38:05.951Z</time></trkpt><trkpt lat="43.5069837" lon="11.3528522"><ele>486.8</ele><time>2026-03-28T10:38:07.951Z</time></trkpt><trkpt lat="43.506905" lon="11.3527642"><ele>485.0</ele><time>2026-03-28T10:38:09.951Z</time></trkpt><trkpt lat="43.5068143" lon="11.3526613"><ele>485.0</ele><time>2026-03-28T10:38:11.951Z</time></trkpt><trkpt lat="43.5067112" lon="11.3526016"><ele>485.0</ele><time>2026-03-28T10:38:13.951Z</time></trkpt><trkpt lat="43.5066284" lon="11.3525577"><ele>485.0</ele><time>2026-03-28T10:38:15.951Z</time></trkpt><trkpt lat="43.5065479" lon="11.3525039"><ele>485.0</ele><time>2026-03-28T10:38:17.951Z</time></trkpt><trkpt lat="43.5064581" lon="11.3524637"><ele>485.0</ele><time>2026-03-28T10:38:19.95Z</time></trkpt><trkpt lat="43.5063522" lon="11.3524821"><ele>483.25</ele><time>2026-03-28T10:38:21.951Z</time></trkpt><trkpt lat="43.5062427" lon="11.352521"><ele>481.5</ele><time>2026-03-28T10:38:23.951Z</time></trkpt><trkpt lat="43.5061441" lon="11.3525568"><ele>479.75</ele><time>2026-03-28T10:38:25.95Z</time></trkpt><trkpt lat="43.5060333" lon="11.3525789"><ele>478.0</ele><time>2026-03-28T10:38:27.95Z</time></trkpt><trkpt lat="43.5059051" lon="11.3525572"><ele>478.00000000000006</ele><time>2026-03-28T10:38:29.951Z</time></trkpt><trkpt lat="43.5058383" lon="11.3525277"><ele>478.0</ele><time>2026-03-28T10:38:30.951Z</time></trkpt><trkpt lat="43.5057678" lon="11.3525121"><ele>478.00000000000006</ele><time>2026-03-28T10:38:31.952Z</time></trkpt><trkpt lat="43.5056979" lon="11.3524992"><ele>478.00000000000006</ele><time>2026-03-28T10:38:32.951Z</time></trkpt><trkpt lat="43.5056376" lon="11.3524723"><ele>478.0</ele><time>2026-03-28T10:38:33.951Z</time></trkpt><trkpt lat="43.5055681" lon="11.3524338"><ele>478.00000000000006</ele><time>2026-03-28T10:38:34.951Z</time></trkpt><trkpt lat="43.5054971" lon="11.3523778"><ele>478.00000000000006</ele><time>2026-03-28T10:38:35.951Z</time></trkpt><trkpt lat="43.5054413" lon="11.3523264"><ele>476.2</ele><time>2026-03-28T10:38:36.951Z</time></trkpt><trkpt lat="43.5053947" lon="11.3522664"><ele>474.4</ele><time>2026-03-28T10:38:37.951Z</time></trkpt><trkpt lat="43.5052927" lon="11.3521998"><ele>472.59999999999997</ele><time>2026-03-28T10:38:39.951Z</time></trkpt><trkpt lat="43.5052161" lon="11.3521216"><ele>470.79999999999995</ele><time>2026-03-28T10:38:41.951Z</time></trkpt><trkpt lat="43.5051513" lon="11.3519885"><ele>469.0</ele><time>2026-03-28T10:38:43.951Z</time></trkpt><trkpt lat="43.5051275" lon="11.3518982"><ele>468.1666666666667</ele><time>2026-03-28T10:38:44.951Z</time></trkpt><trkpt lat="43.5050834" lon="11.3517298"><ele>467.33333333333337</ele><time>2026-03-28T10:38:46.95Z</time></trkpt><trkpt lat="43.5050606" lon="11.3516402"><ele>466.5</ele><time>2026-03-28T10:38:47.952Z</time></trkpt><trkpt lat="43.5050347" lon="11.3515562"><ele>465.66666666666663</ele><time>2026-03-28T10:38:48.952Z</time></trkpt><trkpt lat="43.5050028" lon="11.3514741"><ele>464.8333333333333</ele><time>2026-03-28T10:38:49.951Z</time></trkpt><trkpt lat="43.5049663" lon="11.3513988"><ele>464.0</ele><time>2026-03-28T10:38:50.952Z</time></trkpt><trkpt lat="43.5049219" lon="11.3513337"><ele>462.49999999999994</ele><time>2026-03-28T10:38:51.951Z</time></trkpt><trkpt lat="43.5048764" lon="11.3512733"><ele>461.0</ele><time>2026-03-28T10:38:52.952Z</time></trkpt><trkpt lat="43.5048225" lon="11.3512173"><ele>459.5</ele><time>2026-03-28T10:38:53.952Z</time></trkpt><trkpt lat="43.5047402" lon="11.3511164"><ele>458.0</ele><time>2026-03-28T10:38:55.952Z</time></trkpt><trkpt lat="43.5046756" lon="11.3510124"><ele>456.49999999999994</ele><time>2026-03-28T10:38:57.952Z</time></trkpt><trkpt lat="43.5046148" lon="11.3509458"><ele>455.0</ele><time>2026-03-28T10:39:00.951Z</time></trkpt><trkpt lat="43.5046881" lon="11.3510367"><ele>454.99999999999994</ele><time>2026-03-28T10:39:29.952Z</time></trkpt><trkpt lat="43.504755" lon="11.3511493"><ele>455.0</ele><time>2026-03-28T10:39:31.952Z</time></trkpt><trkpt lat="43.5048103" lon="11.3512104"><ele>455.0</ele><time>2026-03-28T10:39:32.95Z</time></trkpt><trkpt lat="43.504873" lon="11.3512765"><ele>455.0</ele><time>2026-03-28T10:39:33.951Z</time></trkpt><trkpt lat="43.5049318" lon="11.3513444"><ele>454.99999999999994</ele><time>2026-03-28T10:39:34.951Z</time></trkpt><trkpt lat="43.5049884" lon="11.3514239"><ele>455.0</ele><time>2026-03-28T10:39:35.951Z</time></trkpt><trkpt lat="43.5050231" lon="11.3515007"><ele>456.49999999999994</ele><time>2026-03-28T10:39:36.95Z</time></trkpt><trkpt lat="43.5050565" lon="11.3515819"><ele>458.0</ele><time>2026-03-28T10:39:37.95Z</time></trkpt><trkpt lat="43.5050816" lon="11.351664"><ele>459.5</ele><time>2026-03-28T10:39:38.951Z</time></trkpt><trkpt lat="43.5051205" lon="11.3518276"><ele>461.0</ele><time>2026-03-28T10:39:40.95Z</time></trkpt><trkpt lat="43.5051415" lon="11.3519254"><ele>462.49999999999994</ele><time>2026-03-28T10:39:41.951Z</time></trkpt><trkpt lat="43.505173" lon="11.3520137"><ele>464.0</ele><time>2026-03-28T10:39:42.952Z</time></trkpt><trkpt lat="43.5052174" lon="11.3520982"><ele>464.0</ele><time>2026-03-28T10:39:43.951Z</time></trkpt><trkpt lat="43.5052826" lon="11.3521685"><ele>464.0</ele><time>2026-03-28T10:39:44.95Z</time></trkpt><trkpt lat="43.5053685" lon="11.3522376"><ele>464.0</ele><time>2026-03-28T10:39:45.952Z</time></trkpt><trkpt lat="43.5054731" lon="11.3523208"><ele>464.0</ele><time>2026-03-28T10:39:46.951Z</time></trkpt><trkpt lat="43.5055864" lon="11.3524124"><ele>464.0</ele><time>2026-03-28T10:39:47.951Z</time></trkpt><trkpt lat="43.5057275" lon="11.3524755"><ele>467.5</ele><time>2026-03-28T10:39:48.951Z</time></trkpt><trkpt lat="43.5058601" lon="11.3525176"><ele>471.0</ele><time>2026-03-28T10:39:49.951Z</time></trkpt><trkpt lat="43.5059789" lon="11.3525453"><ele>474.5</ele><time>2026-03-28T10:39:50.952Z</time></trkpt><trkpt lat="43.506104" lon="11.3525429"><ele>478.0</ele><time>2026-03-28T10:39:51.951Z</time></trkpt><trkpt lat="43.5062392" lon="11.352522"><ele>479.4</ele><time>2026-03-28T10:39:52.951Z</time></trkpt><trkpt lat="43.5063644" lon="11.352493"><ele>480.79999999999995</ele><time>2026-03-28T10:39:53.951Z</time></trkpt><trkpt lat="43.5064702" lon="11.3524839"><ele>482.2</ele><time>2026-03-28T10:39:54.951Z</time></trkpt><trkpt lat="43.5065473" lon="11.3524934"><ele>483.6</ele><time>2026-03-28T10:39:55.95Z</time></trkpt><trkpt lat="43.5066207" lon="11.3525502"><ele>485.0</ele><time>2026-03-28T10:39:56.95Z</time></trkpt><trkpt lat="43.5067088" lon="11.3526077"><ele>485.0</ele><time>2026-03-28T10:39:57.95Z</time></trkpt><trkpt lat="43.5068066" lon="11.3526629"><ele>485.0</ele><time>2026-03-28T10:39:58.95Z</time></trkpt><trkpt lat="43.5069008" lon="11.3527509"><ele>485.0</ele><time>2026-03-28T10:39:59.951Z</time></trkpt><trkpt lat="43.5069932" lon="11.3528522"><ele>485.0</ele><time>2026-03-28T10:40:00.951Z</time></trkpt><trkpt lat="43.5070874" lon="11.352921"><ele>485.0</ele><time>2026-03-28T10:40:01.952Z</time></trkpt><trkpt lat="43.5071735" lon="11.3529619"><ele>484.8</ele><time>2026-03-28T10:40:02.95Z</time></trkpt><trkpt lat="43.5072601" lon="11.3529978"><ele>484.6</ele><time>2026-03-28T10:40:03.95Z</time></trkpt><trkpt lat="43.5073668" lon="11.3530418"><ele>484.4</ele><time>2026-03-28T10:40:04.951Z</time></trkpt><trkpt lat="43.507473" lon="11.3531131"><ele>484.2</ele><time>2026-03-28T10:40:05.951Z</time></trkpt><trkpt lat="43.5075696" lon="11.3531913"><ele>484.0</ele><time>2026-03-28T10:40:06.952Z</time></trkpt><trkpt lat="43.507688" lon="11.3532351"><ele>486.5</ele><time>2026-03-28T10:40:07.949Z</time></trkpt><trkpt lat="43.5078263" lon="11.3532601"><ele>489.0</ele><time>2026-03-28T10:40:08.951Z</time></trkpt><trkpt lat="43.5079667" lon="11.3532783"><ele>491.5</ele><time>2026-03-28T10:40:09.952Z</time></trkpt><trkpt lat="43.5081169" lon="11.3532719"><ele>494.0</ele><time>2026-03-28T10:40:10.951Z</time></trkpt><trkpt lat="43.5082536" lon="11.3532554"><ele>494.79999999999995</ele><time>2026-03-28T10:40:11.952Z</time></trkpt><trkpt lat="43.5083654" lon="11.3532498"><ele>495.59999999999997</ele><time>2026-03-28T10:40:12.95Z</time></trkpt><trkpt lat="43.5084655" lon="11.3532343"><ele>496.4</ele><time>2026-03-28T10:40:13.952Z</time></trkpt><trkpt lat="43.5085651" lon="11.3532277"><ele>497.2</ele><time>2026-03-28T10:40:14.951Z</time></trkpt><trkpt lat="43.5086743" lon="11.3532587"><ele>498.0</ele><time>2026-03-28T10:40:15.952Z</time></trkpt><trkpt lat="43.5087945" lon="11.3533133"><ele>500.0</ele><time>2026-03-28T10:40:16.952Z</time></trkpt><trkpt lat="43.508903" lon="11.3533654"><ele>502.0</ele><time>2026-03-28T10:40:17.95Z</time></trkpt><trkpt lat="43.5089766" lon="11.3534132"><ele>504.0</ele><time>2026-03-28T10:40:18.952Z</time></trkpt><trkpt lat="43.5090297" lon="11.353485"><ele>506.0</ele><time>2026-03-28T10:40:19.95Z</time></trkpt><trkpt lat="43.5090745" lon="11.3535781"><ele>508.0</ele><time>2026-03-28T10:40:20.951Z</time></trkpt><trkpt lat="43.5091212" lon="11.3536571"><ele>510.0</ele><time>2026-03-28T10:40:21.952Z</time></trkpt><trkpt lat="43.5091808" lon="11.3537167"><ele>510.0</ele><time>2026-03-28T10:40:22.951Z</time></trkpt><trkpt lat="43.5092416" lon="11.3537477"><ele>510.0</ele><time>2026-03-28T10:40:23.951Z</time></trkpt><trkpt lat="43.5093679" lon="11.353694"><ele>510.0</ele><time>2026-03-28T10:40:25.951Z</time></trkpt><trkpt lat="43.5094586" lon="11.3536488"><ele>510.0</ele><time>2026-03-28T10:40:26.95Z</time></trkpt><trkpt lat="43.5095641" lon="11.3536134"><ele>510.0</ele><time>2026-03-28T10:40:27.951Z</time></trkpt><trkpt lat="43.5096726" lon="11.3535944"><ele>513.0</ele><time>2026-03-28T10:40:28.952Z</time></trkpt><trkpt lat="43.5097871" lon="11.353585"><ele>516.0</ele><time>2026-03-28T10:40:29.951Z</time></trkpt><trkpt lat="43.5099017" lon="11.3535785"><ele>519.0</ele><time>2026-03-28T10:40:30.951Z</time></trkpt><trkpt lat="43.5099965" lon="11.3535531"><ele>522.0</ele><time>2026-03-28T10:40:31.951Z</time></trkpt><trkpt lat="43.5100861" lon="11.3535061"><ele>525.0</ele><time>2026-03-28T10:40:32.949Z</time></trkpt><trkpt lat="43.5101748" lon="11.3534356"><ele>525.0</ele><time>2026-03-28T10:40:33.95Z</time></trkpt><trkpt lat="43.510263" lon="11.3533352"><ele>525.0</ele><time>2026-03-28T10:40:34.951Z</time></trkpt><trkpt lat="43.5103437" lon="11.3532256"><ele>525.0</ele><time>2026-03-28T10:40:35.951Z</time></trkpt><trkpt lat="43.5104082" lon="11.3531438"><ele>525.0</ele><time>2026-03-28T10:40:36.95Z</time></trkpt><trkpt lat="43.510474" lon="11.3530765"><ele>525.0</ele><time>2026-03-28T10:40:38.951Z</time></trkpt><trkpt lat="43.5105414" lon="11.3530802"><ele>526.6</ele><time>2026-03-28T10:41:11.95Z</time></trkpt><trkpt lat="43.510655" lon="11.3531327"><ele>528.2</ele><time>2026-03-28T10:41:13.95Z</time></trkpt><trkpt lat="43.5107181" lon="11.3531795"><ele>529.8</ele><time>2026-03-28T10:41:14.949Z</time></trkpt><trkpt lat="43.5107967" lon="11.3532342"><ele>531.4</ele><time>2026-03-28T10:41:15.952Z</time></trkpt><trkpt lat="43.5108861" lon="11.3533146"><ele>533.0</ele><time>2026-03-28T10:41:16.952Z</time></trkpt><trkpt lat="43.510989" lon="11.3533783"><ele>533.0</ele><time>2026-03-28T10:41:17.95Z</time></trkpt><trkpt lat="43.5110751" lon="11.3534579"><ele>533.0</ele><time>2026-03-28T10:41:18.951Z</time></trkpt><trkpt lat="43.5111733" lon="11.3535283"><ele>533.0</ele><time>2026-03-28T10:41:19.951Z</time></trkpt><trkpt lat="43.5112769" lon="11.3535924"><ele>533.0</ele><time>2026-03-28T10:41:20.951Z</time></trkpt><trkpt lat="43.5113839" lon="11.3536534"><ele>533.0</ele><time>2026-03-28T10:41:21.951Z</time></trkpt><trkpt lat="43.5114872" lon="11.3537267"><ele>533.1999999999999</ele><time>2026-03-28T10:41:22.951Z</time></trkpt><trkpt lat="43.5115815" lon="11.3538051"><ele>533.4</ele><time>2026-03-28T10:41:23.952Z</time></trkpt><trkpt lat="43.5116758" lon="11.3538881"><ele>533.5999999999999</ele><time>2026-03-28T10:41:24.951Z</time></trkpt><trkpt lat="43.5117647" lon="11.3539565"><ele>533.8</ele><time>2026-03-28T10:41:25.95Z</time></trkpt><trkpt lat="43.5118566" lon="11.3540048"><ele>534.0</ele><time>2026-03-28T10:41:26.95Z</time></trkpt><trkpt lat="43.5119548" lon="11.3540577"><ele>534.75</ele><time>2026-03-28T10:41:27.951Z</time></trkpt><trkpt lat="43.5120628" lon="11.3541222"><ele>535.5</ele><time>2026-03-28T10:41:28.951Z</time></trkpt><trkpt lat="43.5121713" lon="11.3541862"><ele>536.25</ele><time>2026-03-28T10:41:29.951Z</time></trkpt><trkpt lat="43.5122814" lon="11.3542295"><ele>537.0</ele><time>2026-03-28T10:41:30.951Z</time></trkpt><trkpt lat="43.5123911" lon="11.3542762"><ele>539.2</ele><time>2026-03-28T10:41:31.95Z</time></trkpt><trkpt lat="43.5124975" lon="11.3543298"><ele>541.4000000000001</ele><time>2026-03-28T10:41:32.952Z</time></trkpt><trkpt lat="43.5125806" lon="11.3543912"><ele>543.5999999999999</ele><time>2026-03-28T10:41:33.95Z</time></trkpt><trkpt lat="43.5126621" lon="11.3544577"><ele>545.8</ele><time>2026-03-28T10:41:34.951Z</time></trkpt><trkpt lat="43.5127512" lon="11.354513"><ele>548.0</ele><time>2026-03-28T10:41:35.951Z</time></trkpt><trkpt lat="43.5128671" lon="11.3545636"><ele>549.25</ele><time>2026-03-28T10:41:36.95Z</time></trkpt><trkpt lat="43.5129866" lon="11.3546081"><ele>550.5</ele><time>2026-03-28T10:41:37.95Z</time></trkpt><trkpt lat="43.5131171" lon="11.3546492"><ele>551.75</ele><time>2026-03-28T10:41:38.95Z</time></trkpt><trkpt lat="43.5132463" lon="11.3546818"><ele>553.0</ele><time>2026-03-28T10:41:39.951Z</time></trkpt><trkpt lat="43.5133642" lon="11.3546903"><ele>553.0</ele><time>2026-03-28T10:41:40.951Z</time></trkpt><trkpt lat="43.5134589" lon="11.3547008"><ele>553.0</ele><time>2026-03-28T10:41:41.951Z</time></trkpt><trkpt lat="43.513542" lon="11.3547001"><ele>553.0</ele><time>2026-03-28T10:41:42.951Z</time></trkpt><trkpt lat="43.5136083" lon="11.3546717"><ele>553.0</ele><time>2026-03-28T10:41:43.951Z</time></trkpt><trkpt lat="43.5136772" lon="11.3546092"><ele>553.0</ele><time>2026-03-28T10:41:44.951Z</time></trkpt><trkpt lat="43.5137416" lon="11.3545223"><ele>553.0</ele><time>2026-03-28T10:41:45.951Z</time></trkpt><trkpt lat="43.5138124" lon="11.3544498"><ele>551.0</ele><time>2026-03-28T10:41:46.95Z</time></trkpt><trkpt lat="43.5139065" lon="11.3543803"><ele>549.0</ele><time>2026-03-28T10:41:47.951Z</time></trkpt><trkpt lat="43.5140223" lon="11.3543299"><ele>547.0</ele><time>2026-03-28T10:41:48.95Z</time></trkpt><trkpt lat="43.5141385" lon="11.3542782"><ele>545.0</ele><time>2026-03-28T10:41:49.951Z</time></trkpt><trkpt lat="43.5142586" lon="11.3542343"><ele>545.0</ele><time>2026-03-28T10:41:50.951Z</time></trkpt><trkpt lat="43.5143882" lon="11.3541867"><ele>545.0</ele><time>2026-03-28T10:41:51.951Z</time></trkpt><trkpt lat="43.5145279" lon="11.3541374"><ele>545.0</ele><time>2026-03-28T10:41:52.952Z</time></trkpt><trkpt lat="43.514661" lon="11.3540962"><ele>545.0</ele><time>2026-03-28T10:41:53.951Z</time></trkpt><trkpt lat="43.5148035" lon="11.354045"><ele>546.0</ele><time>2026-03-28T10:41:54.949Z</time></trkpt><trkpt lat="43.5149434" lon="11.3539945"><ele>547.0</ele><time>2026-03-28T10:41:55.949Z</time></trkpt><trkpt lat="43.5151081" lon="11.3539406"><ele>548.0</ele><time>2026-03-28T10:41:56.952Z</time></trkpt><trkpt lat="43.5152676" lon="11.3539"><ele>551.0</ele><time>2026-03-28T10:41:57.952Z</time></trkpt><trkpt lat="43.5154351" lon="11.3538586"><ele>554.0</ele><time>2026-03-28T10:41:58.952Z</time></trkpt><trkpt lat="43.5156158" lon="11.3538056"><ele>557.0</ele><time>2026-03-28T10:41:59.951Z</time></trkpt><trkpt lat="43.5157991" lon="11.3537496"><ele>557.0</ele><time>2026-03-28T10:42:00.951Z</time></trkpt><trkpt lat="43.515994" lon="11.3536936"><ele>557.0</ele><time>2026-03-28T10:42:01.952Z</time></trkpt><trkpt lat="43.5161981" lon="11.3536406"><ele>557.0</ele><time>2026-03-28T10:42:02.951Z</time></trkpt><trkpt lat="43.5163809" lon="11.3535871"><ele>559.5</ele><time>2026-03-28T10:42:03.951Z</time></trkpt><trkpt lat="43.5165396" lon="11.3535444"><ele>562.0</ele><time>2026-03-28T10:42:04.951Z</time></trkpt><trkpt lat="43.5166929" lon="11.3535034"><ele>564.5</ele><time>2026-03-28T10:42:05.952Z</time></trkpt><trkpt lat="43.516819" lon="11.3534698"><ele>567.0</ele><time>2026-03-28T10:42:06.952Z</time></trkpt><trkpt lat="43.5169239" lon="11.3534315"><ele>567.0</ele><time>2026-03-28T10:42:07.951Z</time></trkpt><trkpt lat="43.517006" lon="11.3533771"><ele>567.0</ele><time>2026-03-28T10:42:08.95Z</time></trkpt><trkpt lat="43.517049" lon="11.3533119"><ele>567.0</ele><time>2026-03-28T10:42:09.952Z</time></trkpt><trkpt lat="43.5170598" lon="11.3531521"><ele>567.0</ele><time>2026-03-28T10:42:11.952Z</time></trkpt><trkpt lat="43.5170472" lon="11.3530524"><ele>567.0</ele><time>2026-03-28T10:42:12.951Z</time></trkpt><trkpt lat="43.5170345" lon="11.3529273"><ele>567.0</ele><time>2026-03-28T10:42:13.951Z</time></trkpt><trkpt lat="43.5170311" lon="11.352775"><ele>568.0</ele><time>2026-03-28T10:42:14.949Z</time></trkpt><trkpt lat="43.5170356" lon="11.352602"><ele>569.0</ele><time>2026-03-28T10:42:15.951Z</time></trkpt><trkpt lat="43.5170477" lon="11.3524449"><ele>570.0</ele><time>2026-03-28T10:42:16.95Z</time></trkpt><trkpt lat="43.5170762" lon="11.3522973"><ele>571.0</ele><time>2026-03-28T10:42:17.952Z</time></trkpt><trkpt lat="43.5171164" lon="11.3522028"><ele>572.0</ele><time>2026-03-28T10:42:18.951Z</time></trkpt><trkpt lat="43.517172" lon="11.352132"><ele>574.1666666666666</ele><time>2026-03-28T10:42:19.949Z</time></trkpt><trkpt lat="43.5172331" lon="11.352105"><ele>576.3333333333333</ele><time>2026-03-28T10:42:20.951Z</time></trkpt><trkpt lat="43.5173085" lon="11.3521002"><ele>578.5</ele><time>2026-03-28T10:42:21.952Z</time></trkpt><trkpt lat="43.5173952" lon="11.3521125"><ele>580.6666666666666</ele><time>2026-03-28T10:42:22.951Z</time></trkpt><trkpt lat="43.5174994" lon="11.3521036"><ele>582.8333333333334</ele><time>2026-03-28T10:42:23.95Z</time></trkpt><trkpt lat="43.5176133" lon="11.3520982"><ele>585.0</ele><time>2026-03-28T10:42:24.95Z</time></trkpt><trkpt lat="43.5177351" lon="11.352075"><ele>585.0</ele><time>2026-03-28T10:42:25.952Z</time></trkpt><trkpt lat="43.5178669" lon="11.3520487"><ele>585.0</ele><time>2026-03-28T10:42:26.951Z</time></trkpt><trkpt lat="43.5180139" lon="11.3520298"><ele>585.0</ele><time>2026-03-28T10:42:27.951Z</time></trkpt><trkpt lat="43.5181546" lon="11.3520203"><ele>585.0</ele><time>2026-03-28T10:42:28.952Z</time></trkpt><trkpt lat="43.5182961" lon="11.3519925"><ele>590.6666666666666</ele><time>2026-03-28T10:42:29.951Z</time></trkpt><trkpt lat="43.5184381" lon="11.3519538"><ele>596.3333333333333</ele><time>2026-03-28T10:42:30.952Z</time></trkpt><trkpt lat="43.5185858" lon="11.3519231"><ele>602.0</ele><time>2026-03-28T10:42:31.951Z</time></trkpt><trkpt lat="43.5187413" lon="11.3519151"><ele>606.6666666666666</ele><time>2026-03-28T10:42:32.95Z</time></trkpt><trkpt lat="43.5188958" lon="11.3519319"><ele>611.3333333333334</ele><time>2026-03-28T10:42:33.951Z</time></trkpt><trkpt lat="43.5190536" lon="11.3519432"><ele>616.0</ele><time>2026-03-28T10:42:34.951Z</time></trkpt><trkpt lat="43.5192161" lon="11.3519434"><ele>616.0</ele><time>2026-03-28T10:42:35.952Z</time></trkpt><trkpt lat="43.5193552" lon="11.3519514"><ele>616.0</ele><time>2026-03-28T10:42:36.952Z</time></trkpt><trkpt lat="43.5194803" lon="11.3519618"><ele>616.0</ele><time>2026-03-28T10:42:37.952Z</time></trkpt><trkpt lat="43.519599" lon="11.3519751"><ele>616.0</ele><time>2026-03-28T10:42:38.952Z</time></trkpt><trkpt lat="43.5197197" lon="11.3520033"><ele>616.0</ele><time>2026-03-28T10:42:39.952Z</time></trkpt><trkpt lat="43.519847" lon="11.3520582"><ele>616.0</ele><time>2026-03-28T10:42:40.951Z</time></trkpt><trkpt lat="43.5199842" lon="11.3521454"><ele>616.0</ele><time>2026-03-28T10:42:41.951Z</time></trkpt><trkpt lat="43.5201025" lon="11.3522517"><ele>616.0</ele><time>2026-03-28T10:42:42.951Z</time></trkpt><trkpt lat="43.5202034" lon="11.3523773"><ele>616.0</ele><time>2026-03-28T10:42:43.95Z</time></trkpt><trkpt lat="43.5202795" lon="11.3525057"><ele>616.0</ele><time>2026-03-28T10:42:44.951Z</time></trkpt><trkpt lat="43.5203527" lon="11.3526214"><ele>616.0</ele><time>2026-03-28T10:42:45.949Z</time></trkpt><trkpt lat="43.5204177" lon="11.3527116"><ele>616.0</ele><time>2026-03-28T10:42:46.951Z</time></trkpt><trkpt lat="43.5204859" lon="11.3527841"><ele>616.0</ele><time>2026-03-28T10:42:47.952Z</time></trkpt><trkpt lat="43.5205475" lon="11.3528186"><ele>616.5</ele><time>2026-03-28T10:42:48.951Z</time></trkpt><trkpt lat="43.520621" lon="11.352837"><ele>617.0</ele><time>2026-03-28T10:42:49.95Z</time></trkpt><trkpt lat="43.5206935" lon="11.3528474"><ele>617.5</ele><time>2026-03-28T10:42:50.95Z</time></trkpt><trkpt lat="43.5207647" lon="11.3528581"><ele>618.0</ele><time>2026-03-28T10:42:51.952Z</time></trkpt><trkpt lat="43.5208303" lon="11.3528784"><ele>618.5</ele><time>2026-03-28T10:42:52.951Z</time></trkpt><trkpt lat="43.520934" lon="11.3529086"><ele>619.0</ele><time>2026-03-28T10:42:54.951Z</time></trkpt><trkpt lat="43.5209961" lon="11.3529239"><ele>619.0</ele><time>2026-03-28T10:42:56.951Z</time></trkpt><trkpt lat="43.5210691" lon="11.3529621"><ele>619.0</ele><time>2026-03-28T10:42:59.951Z</time></trkpt><trkpt lat="43.5211438" lon="11.3530153"><ele>619.0</ele><time>2026-03-28T10:43:01.95Z</time></trkpt><trkpt lat="43.521215" lon="11.3530609"><ele>619.0</ele><time>2026-03-28T10:43:03.949Z</time></trkpt><trkpt lat="43.5212863" lon="11.3531067"><ele>619.0</ele><time>2026-03-28T10:43:06.951Z</time></trkpt><trkpt lat="43.5213584" lon="11.3531476"><ele>619.0</ele><time>2026-03-28T10:44:39.952Z</time></trkpt><trkpt lat="43.5214159" lon="11.3531841"><ele>619.1666666666667</ele><time>2026-03-28T10:44:40.95Z</time></trkpt><trkpt lat="43.5214778" lon="11.3532368"><ele>619.3333333333334</ele><time>2026-03-28T10:44:41.951Z</time></trkpt><trkpt lat="43.5215483" lon="11.3533001"><ele>619.5</ele><time>2026-03-28T10:44:42.951Z</time></trkpt><trkpt lat="43.5216227" lon="11.3533755"><ele>619.6666666666666</ele><time>2026-03-28T10:44:43.951Z</time></trkpt><trkpt lat="43.5217002" lon="11.3534569"><ele>619.8333333333333</ele><time>2026-03-28T10:44:44.952Z</time></trkpt><trkpt lat="43.5217809" lon="11.3535291"><ele>620.0</ele><time>2026-03-28T10:44:45.951Z</time></trkpt><trkpt lat="43.5218572" lon="11.3536069"><ele>620.0</ele><time>2026-03-28T10:44:46.952Z</time></trkpt><trkpt lat="43.5219331" lon="11.3536893"><ele>620.0</ele><time>2026-03-28T10:44:47.951Z</time></trkpt><trkpt lat="43.5219889" lon="11.3537668"><ele>620.0</ele><time>2026-03-28T10:44:48.952Z</time></trkpt><trkpt lat="43.5220173" lon="11.3539104"><ele>620.0</ele><time>2026-03-28T10:44:50.95Z</time></trkpt><trkpt lat="43.5219485" lon="11.3540472"><ele>620.0</ele><time>2026-03-28T10:44:52.951Z</time></trkpt><trkpt lat="43.5218795" lon="11.3541164"><ele>620.0</ele><time>2026-03-28T10:44:53.952Z</time></trkpt><trkpt lat="43.5218095" lon="11.3541599"><ele>620.0</ele><time>2026-03-28T10:44:54.95Z</time></trkpt><trkpt lat="43.5217444" lon="11.3542116"><ele>620.0</ele><time>2026-03-28T10:44:55.951Z</time></trkpt><trkpt lat="43.5216874" lon="11.3542785"><ele>620.0</ele><time>2026-03-28T10:44:56.952Z</time></trkpt><trkpt lat="43.5216374" lon="11.3543715"><ele>620.0</ele><time>2026-03-28T10:44:57.952Z</time></trkpt><trkpt lat="43.5216062" lon="11.3544866"><ele>620.0</ele><time>2026-03-28T10:44:58.951Z</time></trkpt><trkpt lat="43.5215848" lon="11.3546137"><ele>619.6666666666666</ele><time>2026-03-28T10:44:59.951Z</time></trkpt><trkpt lat="43.5215703" lon="11.3547446"><ele>619.3333333333333</ele><time>2026-03-28T10:45:00.952Z</time></trkpt><trkpt lat="43.5215586" lon="11.3548656"><ele>619.0</ele><time>2026-03-28T10:45:01.951Z</time></trkpt><trkpt lat="43.5215481" lon="11.3549799"><ele>618.6666666666666</ele><time>2026-03-28T10:45:02.951Z</time></trkpt><trkpt lat="43.521542" lon="11.3550798"><ele>618.3333333333334</ele><time>2026-03-28T10:45:03.951Z</time></trkpt><trkpt lat="43.5215434" lon="11.3551762"><ele>618.0</ele><time>2026-03-28T10:45:04.951Z</time></trkpt><trkpt lat="43.5215606" lon="11.355273"><ele>618.0</ele><time>2026-03-28T10:45:05.952Z</time></trkpt><trkpt lat="43.521599" lon="11.3553718"><ele>618.0</ele><time>2026-03-28T10:45:06.951Z</time></trkpt><trkpt lat="43.5216455" lon="11.3554795"><ele>618.0</ele><time>2026-03-28T10:45:07.95Z</time></trkpt><trkpt lat="43.5216889" lon="11.3555765"><ele>618.0</ele><time>2026-03-28T10:45:08.951Z</time></trkpt><trkpt lat="43.5217303" lon="11.3556677"><ele>618.0</ele><time>2026-03-28T10:45:09.952Z</time></trkpt><trkpt lat="43.521783" lon="11.3557746"><ele>618.0</ele><time>2026-03-28T10:45:10.952Z</time></trkpt><trkpt lat="43.5218288" lon="11.3558904"><ele>616.4</ele><time>2026-03-28T10:45:11.952Z</time></trkpt><trkpt lat="43.5218607" lon="11.3560194"><ele>614.8</ele><time>2026-03-28T10:45:12.951Z</time></trkpt><trkpt lat="43.5218655" lon="11.3561583"><ele>613.2</ele><time>2026-03-28T10:45:13.95Z</time></trkpt><trkpt lat="43.5218624" lon="11.3563105"><ele>611.6</ele><time>2026-03-28T10:45:14.951Z</time></trkpt><trkpt lat="43.521852" lon="11.356461"><ele>610.0</ele><time>2026-03-28T10:45:15.951Z</time></trkpt><trkpt lat="43.5218545" lon="11.3566096"><ele>609.2</ele><time>2026-03-28T10:45:16.951Z</time></trkpt><trkpt lat="43.5218642" lon="11.3567473"><ele>608.4</ele><time>2026-03-28T10:45:17.951Z</time></trkpt><trkpt lat="43.5218923" lon="11.356888"><ele>607.6</ele><time>2026-03-28T10:45:18.952Z</time></trkpt><trkpt lat="43.5219271" lon="11.3570095"><ele>606.8</ele><time>2026-03-28T10:45:19.95Z</time></trkpt><trkpt lat="43.5219637" lon="11.35711"><ele>606.0</ele><time>2026-03-28T10:45:20.951Z</time></trkpt><trkpt lat="43.5219906" lon="11.3572078"><ele>607.8333333333334</ele><time>2026-03-28T10:45:21.95Z</time></trkpt><trkpt lat="43.5219607" lon="11.3573552"><ele>609.6666666666666</ele><time>2026-03-28T10:45:23.95Z</time></trkpt><trkpt lat="43.521866" lon="11.3573689"><ele>611.5</ele><time>2026-03-28T10:45:25.951Z</time></trkpt><trkpt lat="43.5217987" lon="11.3573329"><ele>613.3333333333333</ele><time>2026-03-28T10:45:26.95Z</time></trkpt><trkpt lat="43.5217233" lon="11.3572992"><ele>615.1666666666666</ele><time>2026-03-28T10:45:27.952Z</time></trkpt><trkpt lat="43.5216419" lon="11.3572964"><ele>617.0</ele><time>2026-03-28T10:45:28.95Z</time></trkpt><trkpt lat="43.521557" lon="11.3573254"><ele>617.0</ele><time>2026-03-28T10:45:29.951Z</time></trkpt><trkpt lat="43.5214738" lon="11.3573789"><ele>617.0</ele><time>2026-03-28T10:45:30.952Z</time></trkpt><trkpt lat="43.5213837" lon="11.3574584"><ele>617.0</ele><time>2026-03-28T10:45:31.951Z</time></trkpt><trkpt lat="43.5212716" lon="11.3575533"><ele>617.0</ele><time>2026-03-28T10:45:32.95Z</time></trkpt><trkpt lat="43.5211445" lon="11.357643"><ele>612.0</ele><time>2026-03-28T10:45:33.951Z</time></trkpt><trkpt lat="43.521017" lon="11.3576986"><ele>607.0</ele><time>2026-03-28T10:45:34.951Z</time></trkpt><trkpt lat="43.5208988" lon="11.3577648"><ele>602.0</ele><time>2026-03-28T10:45:35.951Z</time></trkpt><trkpt lat="43.5207944" lon="11.3578182"><ele>597.0</ele><time>2026-03-28T10:45:36.951Z</time></trkpt><trkpt lat="43.5207002" lon="11.3578662"><ele>597.0</ele><time>2026-03-28T10:45:37.952Z</time></trkpt><trkpt lat="43.5206219" lon="11.3579181"><ele>597.0</ele><time>2026-03-28T10:45:38.952Z</time></trkpt><trkpt lat="43.5205674" lon="11.35799"><ele>597.0</ele><time>2026-03-28T10:45:39.951Z</time></trkpt><trkpt lat="43.5205353" lon="11.3580937"><ele>597.0</ele><time>2026-03-28T10:45:40.951Z</time></trkpt><trkpt lat="43.5205416" lon="11.3582057"><ele>597.0</ele><time>2026-03-28T10:45:41.95Z</time></trkpt><trkpt lat="43.5205649" lon="11.3583237"><ele>597.0</ele><time>2026-03-28T10:45:42.95Z</time></trkpt><trkpt lat="43.5206135" lon="11.3584433"><ele>596.0</ele><time>2026-03-28T10:45:43.952Z</time></trkpt><trkpt lat="43.5206845" lon="11.3585679"><ele>595.0</ele><time>2026-03-28T10:45:44.951Z</time></trkpt><trkpt lat="43.5207719" lon="11.3587007"><ele>594.0</ele><time>2026-03-28T10:45:45.952Z</time></trkpt><trkpt lat="43.5208804" lon="11.3588284"><ele>593.0</ele><time>2026-03-28T10:45:46.951Z</time></trkpt><trkpt lat="43.5209782" lon="11.3589558"><ele>593.0</ele><time>2026-03-28T10:45:47.951Z</time></trkpt><trkpt lat="43.5210604" lon="11.3590764"><ele>593.0</ele><time>2026-03-28T10:45:48.951Z</time></trkpt><trkpt lat="43.5211243" lon="11.3592084"><ele>593.0</ele><time>2026-03-28T10:45:49.951Z</time></trkpt><trkpt lat="43.52116" lon="11.3593479"><ele>593.0</ele><time>2026-03-28T10:45:50.952Z</time></trkpt><trkpt lat="43.5211788" lon="11.3594937"><ele>593.0</ele><time>2026-03-28T10:45:51.951Z</time></trkpt><trkpt lat="43.5211585" lon="11.3596255"><ele>593.0</ele><time>2026-03-28T10:45:52.952Z</time></trkpt><trkpt lat="43.5211171" lon="11.3597477"><ele>593.0</ele><time>2026-03-28T10:45:53.952Z</time></trkpt><trkpt lat="43.5210674" lon="11.3598562"><ele>593.0</ele><time>2026-03-28T10:45:54.952Z</time></trkpt><trkpt lat="43.5210367" lon="11.3599696"><ele>593.0</ele><time>2026-03-28T10:45:55.95Z</time></trkpt><trkpt lat="43.5210364" lon="11.3601037"><ele>590.75</ele><time>2026-03-28T10:45:56.951Z</time></trkpt><trkpt lat="43.5210554" lon="11.3602503"><ele>588.5</ele><time>2026-03-28T10:45:57.95Z</time></trkpt><trkpt lat="43.5210947" lon="11.3604004"><ele>586.25</ele><time>2026-03-28T10:45:58.95Z</time></trkpt><trkpt lat="43.5211551" lon="11.360539"><ele>584.0</ele><time>2026-03-28T10:45:59.951Z</time></trkpt><trkpt lat="43.5212331" lon="11.3606571"><ele>589.75</ele><time>2026-03-28T10:46:00.951Z</time></trkpt><trkpt lat="43.5213308" lon="11.360769"><ele>595.5</ele><time>2026-03-28T10:46:01.951Z</time></trkpt><trkpt lat="43.5214311" lon="11.3608886"><ele>601.25</ele><time>2026-03-28T10:46:02.952Z</time></trkpt><trkpt lat="43.5215105" lon="11.3610313"><ele>607.0</ele><time>2026-03-28T10:46:03.952Z</time></trkpt><trkpt lat="43.5215706" lon="11.361178"><ele>607.0</ele><time>2026-03-28T10:46:04.951Z</time></trkpt><trkpt lat="43.5216348" lon="11.3613156"><ele>607.0</ele><time>2026-03-28T10:46:05.952Z</time></trkpt><trkpt lat="43.5217187" lon="11.3614508"><ele>607.0</ele><time>2026-03-28T10:46:06.95Z</time></trkpt><trkpt lat="43.5218132" lon="11.3615687"><ele>607.0</ele><time>2026-03-28T10:46:07.952Z</time></trkpt><trkpt lat="43.521915" lon="11.361651"><ele>609.4</ele><time>2026-03-28T10:46:08.951Z</time></trkpt><trkpt lat="43.5219986" lon="11.3617272"><ele>611.8000000000001</ele><time>2026-03-28T10:46:09.952Z</time></trkpt><trkpt lat="43.5220629" lon="11.3617996"><ele>614.2</ele><time>2026-03-28T10:46:10.95Z</time></trkpt><trkpt lat="43.5221006" lon="11.3618772"><ele>616.6</ele><time>2026-03-28T10:46:11.95Z</time></trkpt><trkpt lat="43.5220681" lon="11.3620083"><ele>619.0</ele><time>2026-03-28T10:46:13.951Z</time></trkpt><trkpt lat="43.5219533" lon="11.3620214"><ele>614.0</ele><time>2026-03-28T10:46:15.951Z</time></trkpt><trkpt lat="43.5218676" lon="11.3619873"><ele>609.0</ele><time>2026-03-28T10:46:16.95Z</time></trkpt><trkpt lat="43.5217677" lon="11.3619391"><ele>604.0</ele><time>2026-03-28T10:46:17.952Z</time></trkpt><trkpt lat="43.5216594" lon="11.3618957"><ele>599.0</ele><time>2026-03-28T10:46:18.95Z</time></trkpt><trkpt lat="43.5215455" lon="11.3618836"><ele>594.0</ele><time>2026-03-28T10:46:19.951Z</time></trkpt><trkpt lat="43.5214229" lon="11.3619045"><ele>594.0</ele><time>2026-03-28T10:46:20.952Z</time></trkpt><trkpt lat="43.5212892" lon="11.3619406"><ele>594.0</ele><time>2026-03-28T10:46:21.951Z</time></trkpt><trkpt lat="43.5211519" lon="11.3619667"><ele>594.0</ele><time>2026-03-28T10:46:22.949Z</time></trkpt><trkpt lat="43.5209933" lon="11.3619674"><ele>594.0</ele><time>2026-03-28T10:46:23.952Z</time></trkpt><trkpt lat="43.5208453" lon="11.3619601"><ele>587.6666666666666</ele><time>2026-03-28T10:46:24.951Z</time></trkpt><trkpt lat="43.5206889" lon="11.3619161"><ele>581.3333333333333</ele><time>2026-03-28T10:46:25.951Z</time></trkpt><trkpt lat="43.5205376" lon="11.3618611"><ele>575.0</ele><time>2026-03-28T10:46:26.952Z</time></trkpt><trkpt lat="43.5203949" lon="11.3618117"><ele>574.75</ele><time>2026-03-28T10:46:27.952Z</time></trkpt><trkpt lat="43.5202545" lon="11.3617504"><ele>574.5</ele><time>2026-03-28T10:46:28.952Z</time></trkpt><trkpt lat="43.5201209" lon="11.3616679"><ele>574.25</ele><time>2026-03-28T10:46:29.951Z</time></trkpt><trkpt lat="43.5199878" lon="11.3615832"><ele>574.0</ele><time>2026-03-28T10:46:30.952Z</time></trkpt><trkpt lat="43.5198614" lon="11.3615102"><ele>574.0</ele><time>2026-03-28T10:46:31.952Z</time></trkpt><trkpt lat="43.5197295" lon="11.3614487"><ele>574.0</ele><time>2026-03-28T10:46:32.951Z</time></trkpt><trkpt lat="43.5196131" lon="11.3614087"><ele>574.0</ele><time>2026-03-28T10:46:33.95Z</time></trkpt><trkpt lat="43.519503" lon="11.3613979"><ele>574.0</ele><time>2026-03-28T10:46:34.952Z</time></trkpt><trkpt lat="43.519395" lon="11.3614145"><ele>573.8</ele><time>2026-03-28T10:46:35.951Z</time></trkpt><trkpt lat="43.5192812" lon="11.3614637"><ele>573.5999999999999</ele><time>2026-03-28T10:46:36.95Z</time></trkpt><trkpt lat="43.5191728" lon="11.3615142"><ele>573.4</ele><time>2026-03-28T10:46:37.951Z</time></trkpt><trkpt lat="43.5190704" lon="11.3615327"><ele>573.1999999999999</ele><time>2026-03-28T10:46:38.951Z</time></trkpt><trkpt lat="43.5189762" lon="11.361513"><ele>573.0</ele><time>2026-03-28T10:46:39.951Z</time></trkpt><trkpt lat="43.5188942" lon="11.361489"><ele>573.0</ele><time>2026-03-28T10:46:40.95Z</time></trkpt><trkpt lat="43.5188247" lon="11.3614903"><ele>573.0</ele><time>2026-03-28T10:46:41.952Z</time></trkpt><trkpt lat="43.5187401" lon="11.3615768"><ele>573.0</ele><time>2026-03-28T10:46:43.951Z</time></trkpt><trkpt lat="43.5187291" lon="11.3616814"><ele>573.0</ele><time>2026-03-28T10:46:45.951Z</time></trkpt><trkpt lat="43.5187493" lon="11.3617665"><ele>573.0</ele><time>2026-03-28T10:46:48.95Z</time></trkpt><trkpt lat="43.5187834" lon="11.3618494"><ele>573.0</ele><time>2026-03-28T10:47:04.952Z</time></trkpt><trkpt lat="43.5188177" lon="11.3619355"><ele>573.0</ele><time>2026-03-28T10:47:18.952Z</time></trkpt><trkpt lat="43.5188754" lon="11.3620576"><ele>573.0</ele><time>2026-03-28T10:47:21.952Z</time></trkpt><trkpt lat="43.5189071" lon="11.3621646"><ele>573.0</ele><time>2026-03-28T10:47:23.951Z</time></trkpt><trkpt lat="43.5188946" lon="11.3622653"><ele>573.0</ele><time>2026-03-28T10:47:25.951Z</time></trkpt><trkpt lat="43.5188164" lon="11.362293"><ele>573.0</ele><time>2026-03-28T10:47:27.951Z</time></trkpt><trkpt lat="43.5187159" lon="11.3622342"><ele>571.4</ele><time>2026-03-28T10:47:29.952Z</time></trkpt><trkpt lat="43.5186456" lon="11.3621648"><ele>569.8</ele><time>2026-03-28T10:47:30.951Z</time></trkpt><trkpt lat="43.5185657" lon="11.3620846"><ele>568.2</ele><time>2026-03-28T10:47:31.95Z</time></trkpt><trkpt lat="43.5184789" lon="11.3620063"><ele>566.6</ele><time>2026-03-28T10:47:32.95Z</time></trkpt><trkpt lat="43.5184044" lon="11.3619378"><ele>565.0</ele><time>2026-03-28T10:47:33.95Z</time></trkpt><trkpt lat="43.5183367" lon="11.3618624"><ele>565.0</ele><time>2026-03-28T10:47:34.95Z</time></trkpt><trkpt lat="43.5182582" lon="11.3618043"><ele>565.0</ele><time>2026-03-28T10:47:35.95Z</time></trkpt><trkpt lat="43.5181727" lon="11.3617797"><ele>565.0</ele><time>2026-03-28T10:47:36.951Z</time></trkpt><trkpt lat="43.5180839" lon="11.361766"><ele>565.0</ele><time>2026-03-28T10:47:37.95Z</time></trkpt><trkpt lat="43.5179969" lon="11.3618148"><ele>565.0</ele><time>2026-03-28T10:47:38.951Z</time></trkpt><trkpt lat="43.5178944" lon="11.3618633"><ele>565.0</ele><time>2026-03-28T10:47:39.952Z</time></trkpt><trkpt lat="43.5178079" lon="11.3619337"><ele>565.0</ele><time>2026-03-28T10:47:40.951Z</time></trkpt><trkpt lat="43.5177341" lon="11.3619916"><ele>565.0</ele><time>2026-03-28T10:47:41.952Z</time></trkpt><trkpt lat="43.5176564" lon="11.3620308"><ele>565.0</ele><time>2026-03-28T10:47:42.952Z</time></trkpt><trkpt lat="43.5175864" lon="11.3620381"><ele>565.0</ele><time>2026-03-28T10:47:43.951Z</time></trkpt><trkpt lat="43.517523" lon="11.3620061"><ele>565.0</ele><time>2026-03-28T10:47:44.95Z</time></trkpt><trkpt lat="43.5174723" lon="11.3619405"><ele>565.0</ele><time>2026-03-28T10:47:45.951Z</time></trkpt><trkpt lat="43.517446" lon="11.3618483"><ele>565.0</ele><time>2026-03-28T10:47:46.952Z</time></trkpt><trkpt lat="43.5174219" lon="11.3617309"><ele>565.0</ele><time>2026-03-28T10:47:47.952Z</time></trkpt><trkpt lat="43.5173791" lon="11.361598"><ele>565.0</ele><time>2026-03-28T10:47:48.949Z</time></trkpt><trkpt lat="43.5173293" lon="11.3614467"><ele>565.0</ele><time>2026-03-28T10:47:49.951Z</time></trkpt><trkpt lat="43.517265" lon="11.3612982"><ele>563.25</ele><time>2026-03-28T10:47:50.952Z</time></trkpt><trkpt lat="43.5171782" lon="11.3611636"><ele>561.5</ele><time>2026-03-28T10:47:51.95Z</time></trkpt><trkpt lat="43.517077" lon="11.3610416"><ele>559.75</ele><time>2026-03-28T10:47:52.951Z</time></trkpt><trkpt lat="43.5169849" lon="11.3609244"><ele>558.0</ele><time>2026-03-28T10:47:53.952Z</time></trkpt><trkpt lat="43.516889" lon="11.3608192"><ele>558.0</ele><time>2026-03-28T10:47:54.952Z</time></trkpt><trkpt lat="43.5167858" lon="11.3607287"><ele>558.0</ele><time>2026-03-28T10:47:55.95Z</time></trkpt><trkpt lat="43.5166752" lon="11.360667"><ele>558.0</ele><time>2026-03-28T10:47:56.952Z</time></trkpt><trkpt lat="43.5165566" lon="11.3606225"><ele>558.0</ele><time>2026-03-28T10:47:57.951Z</time></trkpt><trkpt lat="43.5164481" lon="11.3605897"><ele>558.0</ele><time>2026-03-28T10:47:58.952Z</time></trkpt><trkpt lat="43.516338" lon="11.3605978"><ele>558.0</ele><time>2026-03-28T10:47:59.95Z</time></trkpt><trkpt lat="43.5162392" lon="11.3606414"><ele>558.0</ele><time>2026-03-28T10:48:00.952Z</time></trkpt><trkpt lat="43.5161324" lon="11.3607169"><ele>558.0</ele><time>2026-03-28T10:48:01.952Z</time></trkpt><trkpt lat="43.5160313" lon="11.360814"><ele>555.75</ele><time>2026-03-28T10:48:02.95Z</time></trkpt><trkpt lat="43.5159419" lon="11.3609417"><ele>553.5</ele><time>2026-03-28T10:48:03.95Z</time></trkpt><trkpt lat="43.5158625" lon="11.3610803"><ele>551.25</ele><time>2026-03-28T10:48:04.95Z</time></trkpt><trkpt lat="43.515782" lon="11.3612086"><ele>549.0</ele><time>2026-03-28T10:48:05.952Z</time></trkpt><trkpt lat="43.5156859" lon="11.3613022"><ele>549.0</ele><time>2026-03-28T10:48:06.951Z</time></trkpt><trkpt lat="43.5155744" lon="11.361362"><ele>549.0</ele><time>2026-03-28T10:48:07.951Z</time></trkpt><trkpt lat="43.5154487" lon="11.3613898"><ele>549.0</ele><time>2026-03-28T10:48:08.95Z</time></trkpt><trkpt lat="43.5153062" lon="11.3613934"><ele>549.0</ele><time>2026-03-28T10:48:09.951Z</time></trkpt><trkpt lat="43.5151639" lon="11.361404"><ele>552.3333333333334</ele><time>2026-03-28T10:48:10.951Z</time></trkpt><trkpt lat="43.5150229" lon="11.3614375"><ele>555.6666666666667</ele><time>2026-03-28T10:48:11.951Z</time></trkpt><trkpt lat="43.5148755" lon="11.3614955"><ele>559.0</ele><time>2026-03-28T10:48:12.951Z</time></trkpt><trkpt lat="43.5147152" lon="11.3615793"><ele>554.0</ele><time>2026-03-28T10:48:13.95Z</time></trkpt><trkpt lat="43.5145531" lon="11.3616771"><ele>549.0</ele><time>2026-03-28T10:48:14.949Z</time></trkpt><trkpt lat="43.5143971" lon="11.3617658"><ele>544.0</ele><time>2026-03-28T10:48:15.95Z</time></trkpt><trkpt lat="43.5142537" lon="11.3618455"><ele>544.0</ele><time>2026-03-28T10:48:16.951Z</time></trkpt><trkpt lat="43.5141192" lon="11.361947"><ele>544.0</ele><time>2026-03-28T10:48:17.952Z</time></trkpt><trkpt lat="43.5139891" lon="11.3620735"><ele>544.0</ele><time>2026-03-28T10:48:18.95Z</time></trkpt><trkpt lat="43.5138536" lon="11.362207"><ele>546.5</ele><time>2026-03-28T10:48:19.952Z</time></trkpt><trkpt lat="43.5137139" lon="11.3623311"><ele>549.0</ele><time>2026-03-28T10:48:20.952Z</time></trkpt><trkpt lat="43.5135845" lon="11.3624299"><ele>551.5</ele><time>2026-03-28T10:48:21.952Z</time></trkpt><trkpt lat="43.5134714" lon="11.3625124"><ele>554.0</ele><time>2026-03-28T10:48:22.951Z</time></trkpt><trkpt lat="43.5133795" lon="11.3626073"><ele>554.0</ele><time>2026-03-28T10:48:23.952Z</time></trkpt><trkpt lat="43.5133062" lon="11.3627079"><ele>554.0</ele><time>2026-03-28T10:48:24.952Z</time></trkpt><trkpt lat="43.5132408" lon="11.3628109"><ele>554.0</ele><time>2026-03-28T10:48:25.951Z</time></trkpt><trkpt lat="43.5131833" lon="11.3629101"><ele>554.0</ele><time>2026-03-28T10:48:26.951Z</time></trkpt><trkpt lat="43.5131428" lon="11.3630158"><ele>554.0</ele><time>2026-03-28T10:48:27.95Z</time></trkpt><trkpt lat="43.513132" lon="11.3631303"><ele>554.5</ele><time>2026-03-28T10:48:28.951Z</time></trkpt><trkpt lat="43.5131438" lon="11.3632451"><ele>555.0</ele><time>2026-03-28T10:48:29.951Z</time></trkpt><trkpt lat="43.5131522" lon="11.3633558"><ele>555.5</ele><time>2026-03-28T10:48:30.952Z</time></trkpt><trkpt lat="43.5131483" lon="11.3634704"><ele>556.0</ele><time>2026-03-28T10:48:31.951Z</time></trkpt><trkpt lat="43.5131116" lon="11.3635896"><ele>556.5</ele><time>2026-03-28T10:48:32.952Z</time></trkpt><trkpt lat="43.5130562" lon="11.3637"><ele>557.0</ele><time>2026-03-28T10:48:33.951Z</time></trkpt><trkpt lat="43.512956" lon="11.3637833"><ele>553.75</ele><time>2026-03-28T10:48:34.951Z</time></trkpt><trkpt lat="43.5128299" lon="11.363855"><ele>550.5</ele><time>2026-03-28T10:48:35.951Z</time></trkpt><trkpt lat="43.5126928" lon="11.3639397"><ele>547.25</ele><time>2026-03-28T10:48:36.951Z</time></trkpt><trkpt lat="43.512568" lon="11.3640491"><ele>544.0</ele><time>2026-03-28T10:48:37.951Z</time></trkpt><trkpt lat="43.5124381" lon="11.3641685"><ele>544.0</ele><time>2026-03-28T10:48:38.951Z</time></trkpt><trkpt lat="43.5123239" lon="11.3643135"><ele>544.0</ele><time>2026-03-28T10:48:39.951Z</time></trkpt><trkpt lat="43.5122109" lon="11.3644648"><ele>544.0</ele><time>2026-03-28T10:48:40.951Z</time></trkpt><trkpt lat="43.5121055" lon="11.36462"><ele>546.5</ele><time>2026-03-28T10:48:41.952Z</time></trkpt><trkpt lat="43.5120099" lon="11.3647604"><ele>549.0</ele><time>2026-03-28T10:48:42.951Z</time></trkpt><trkpt lat="43.5119261" lon="11.3648852"><ele>551.5</ele><time>2026-03-28T10:48:43.952Z</time></trkpt><trkpt lat="43.5118428" lon="11.364999"><ele>554.0</ele><time>2026-03-28T10:48:44.952Z</time></trkpt><trkpt lat="43.5117606" lon="11.3651047"><ele>554.0</ele><time>2026-03-28T10:48:45.951Z</time></trkpt><trkpt lat="43.5116786" lon="11.3651966"><ele>554.0</ele><time>2026-03-28T10:48:46.952Z</time></trkpt><trkpt lat="43.5115887" lon="11.3652898"><ele>554.0</ele><time>2026-03-28T10:48:47.951Z</time></trkpt><trkpt lat="43.5114968" lon="11.365385"><ele>554.0</ele><time>2026-03-28T10:48:48.952Z</time></trkpt><trkpt lat="43.5114185" lon="11.3654683"><ele>554.0</ele><time>2026-03-28T10:48:49.95Z</time></trkpt><trkpt lat="43.5113432" lon="11.3655413"><ele>551.4</ele><time>2026-03-28T10:48:50.951Z</time></trkpt><trkpt lat="43.5112607" lon="11.3655977"><ele>548.8</ele><time>2026-03-28T10:48:51.951Z</time></trkpt><trkpt lat="43.5111726" lon="11.3656219"><ele>546.2</ele><time>2026-03-28T10:48:52.952Z</time></trkpt><trkpt lat="43.5110762" lon="11.3656408"><ele>543.6</ele><time>2026-03-28T10:48:53.951Z</time></trkpt><trkpt lat="43.5109523" lon="11.3656778"><ele>541.0</ele><time>2026-03-28T10:48:54.951Z</time></trkpt><trkpt lat="43.5108231" lon="11.3657435"><ele>541.0</ele><time>2026-03-28T10:48:55.95Z</time></trkpt><trkpt lat="43.5106899" lon="11.3658404"><ele>541.0</ele><time>2026-03-28T10:48:56.952Z</time></trkpt><trkpt lat="43.5105503" lon="11.3659423"><ele>541.0</ele><time>2026-03-28T10:48:57.951Z</time></trkpt><trkpt lat="43.5104198" lon="11.3660369"><ele>540.0</ele><time>2026-03-28T10:48:58.95Z</time></trkpt><trkpt lat="43.5102921" lon="11.3661308"><ele>539.0</ele><time>2026-03-28T10:48:59.951Z</time></trkpt><trkpt lat="43.5101701" lon="11.3662258"><ele>538.0</ele><time>2026-03-28T10:49:00.949Z</time></trkpt><trkpt lat="43.5100565" lon="11.3663058"><ele>537.0</ele><time>2026-03-28T10:49:01.95Z</time></trkpt><trkpt lat="43.509956" lon="11.3663734"><ele>536.0</ele><time>2026-03-28T10:49:02.952Z</time></trkpt><trkpt lat="43.5098746" lon="11.3664424"><ele>535.0</ele><time>2026-03-28T10:49:03.952Z</time></trkpt><trkpt lat="43.5098223" lon="11.3665324"><ele>534.0</ele><time>2026-03-28T10:49:04.952Z</time></trkpt><trkpt lat="43.5098107" lon="11.3666353"><ele>533.0</ele><time>2026-03-28T10:49:05.951Z</time></trkpt><trkpt lat="43.5098435" lon="11.3667353"><ele>532.0</ele><time>2026-03-28T10:49:06.951Z</time></trkpt><trkpt lat="43.5099057" lon="11.3667894"><ele>531.0</ele><time>2026-03-28T10:49:07.951Z</time></trkpt><trkpt lat="43.509983" lon="11.3668213"><ele>531.0</ele><time>2026-03-28T10:49:08.952Z</time></trkpt><trkpt lat="43.5100521" lon="11.3668663"><ele>531.0</ele><time>2026-03-28T10:49:09.952Z</time></trkpt><trkpt lat="43.5100962" lon="11.366944"><ele>531.0</ele><time>2026-03-28T10:49:10.951Z</time></trkpt><trkpt lat="43.5100999" lon="11.3670318"><ele>531.0</ele><time>2026-03-28T10:49:11.951Z</time></trkpt><trkpt lat="43.5100578" lon="11.3671142"><ele>531.0</ele><time>2026-03-28T10:49:12.951Z</time></trkpt><trkpt lat="43.509994" lon="11.3671726"><ele>531.0</ele><time>2026-03-28T10:49:13.951Z</time></trkpt><trkpt lat="43.5099045" lon="11.3672166"><ele>527.0</ele><time>2026-03-28T10:49:14.952Z</time></trkpt><trkpt lat="43.5097922" lon="11.3672904"><ele>523.0</ele><time>2026-03-28T10:49:15.951Z</time></trkpt><trkpt lat="43.5096916" lon="11.3673891"><ele>519.0</ele><time>2026-03-28T10:49:16.952Z</time></trkpt><trkpt lat="43.509589" lon="11.3674802"><ele>515.0</ele><time>2026-03-28T10:49:17.951Z</time></trkpt><trkpt lat="43.5094862" lon="11.3675388"><ele>515.0</ele><time>2026-03-28T10:49:18.95Z</time></trkpt><trkpt lat="43.5093812" lon="11.3675697"><ele>515.0</ele><time>2026-03-28T10:49:19.951Z</time></trkpt><trkpt lat="43.5092709" lon="11.3675584"><ele>515.0</ele><time>2026-03-28T10:49:20.949Z</time></trkpt><trkpt lat="43.509155" lon="11.3675084"><ele>515.0</ele><time>2026-03-28T10:49:21.952Z</time></trkpt><trkpt lat="43.5090246" lon="11.367443"><ele>515.0</ele><time>2026-03-28T10:49:22.951Z</time></trkpt><trkpt lat="43.5088829" lon="11.3673965"><ele>515.0</ele><time>2026-03-28T10:49:23.951Z</time></trkpt><trkpt lat="43.5087339" lon="11.3673641"><ele>515.0</ele><time>2026-03-28T10:49:24.952Z</time></trkpt><trkpt lat="43.5085885" lon="11.3673201"><ele>515.0</ele><time>2026-03-28T10:49:25.952Z</time></trkpt><trkpt lat="43.5084683" lon="11.3672482"><ele>513.8333333333333</ele><time>2026-03-28T10:49:26.951Z</time></trkpt><trkpt lat="43.5083812" lon="11.3671806"><ele>512.6666666666666</ele><time>2026-03-28T10:49:27.951Z</time></trkpt><trkpt lat="43.5083037" lon="11.367137"><ele>511.5</ele><time>2026-03-28T10:49:28.951Z</time></trkpt><trkpt lat="43.5082334" lon="11.3671344"><ele>510.33333333333337</ele><time>2026-03-28T10:49:29.951Z</time></trkpt><trkpt lat="43.5081743" lon="11.3671788"><ele>509.1666666666667</ele><time>2026-03-28T10:49:30.951Z</time></trkpt><trkpt lat="43.5081422" lon="11.3672639"><ele>508.0</ele><time>2026-03-28T10:49:31.95Z</time></trkpt><trkpt lat="43.5081552" lon="11.3673885"><ele>507.28571428571433</ele><time>2026-03-28T10:49:32.951Z</time></trkpt><trkpt lat="43.5081995" lon="11.3675006"><ele>506.57142857142856</ele><time>2026-03-28T10:49:33.951Z</time></trkpt><trkpt lat="43.5082428" lon="11.3676034"><ele>505.8571428571429</ele><time>2026-03-28T10:49:34.951Z</time></trkpt><trkpt lat="43.5082596" lon="11.367696"><ele>505.14285714285717</ele><time>2026-03-28T10:49:35.951Z</time></trkpt><trkpt lat="43.5082344" lon="11.3677762"><ele>504.42857142857144</ele><time>2026-03-28T10:49:36.95Z</time></trkpt><trkpt lat="43.508181" lon="11.3678266"><ele>503.7142857142857</ele><time>2026-03-28T10:49:37.951Z</time></trkpt><trkpt lat="43.5081114" lon="11.3678207"><ele>503.0</ele><time>2026-03-28T10:49:38.951Z</time></trkpt><trkpt lat="43.5080475" lon="11.3677933"><ele>502.99999999999994</ele><time>2026-03-28T10:49:39.952Z</time></trkpt><trkpt lat="43.5079523" lon="11.3678526"><ele>503.0</ele><time>2026-03-28T10:49:41.951Z</time></trkpt><trkpt lat="43.5079449" lon="11.3679457"><ele>503.0</ele><time>2026-03-28T10:49:42.952Z</time></trkpt><trkpt lat="43.5079729" lon="11.3680556"><ele>503.0</ele><time>2026-03-28T10:49:43.95Z</time></trkpt><trkpt lat="43.5080269" lon="11.368163"><ele>502.99999999999994</ele><time>2026-03-28T10:49:44.951Z</time></trkpt><trkpt lat="43.5080981" lon="11.3682549"><ele>503.0</ele><time>2026-03-28T10:49:45.952Z</time></trkpt><trkpt lat="43.5081886" lon="11.368315"><ele>500.2</ele><time>2026-03-28T10:49:46.951Z</time></trkpt><trkpt lat="43.5082761" lon="11.3683434"><ele>497.4</ele><time>2026-03-28T10:49:47.951Z</time></trkpt><trkpt lat="43.5083558" lon="11.3683827"><ele>494.59999999999997</ele><time>2026-03-28T10:49:48.95Z</time></trkpt><trkpt lat="43.5084144" lon="11.3684569"><ele>491.79999999999995</ele><time>2026-03-28T10:49:49.952Z</time></trkpt><trkpt lat="43.5084312" lon="11.3685456"><ele>489.0</ele><time>2026-03-28T10:49:50.952Z</time></trkpt><trkpt lat="43.508343" lon="11.3686812"><ele>489.0</ele><time>2026-03-28T10:49:52.952Z</time></trkpt><trkpt lat="43.5082557" lon="11.3687268"><ele>489.0</ele><time>2026-03-28T10:49:53.95Z</time></trkpt><trkpt lat="43.50814" lon="11.3687527"><ele>489.0</ele><time>2026-03-28T10:49:54.951Z</time></trkpt><trkpt lat="43.50801" lon="11.3687499"><ele>489.0</ele><time>2026-03-28T10:49:55.95Z</time></trkpt><trkpt lat="43.5078748" lon="11.3687169"><ele>486.0</ele><time>2026-03-28T10:49:56.951Z</time></trkpt><trkpt lat="43.5077499" lon="11.3686755"><ele>483.0</ele><time>2026-03-28T10:49:57.95Z</time></trkpt><trkpt lat="43.507641" lon="11.3686149"><ele>480.0</ele><time>2026-03-28T10:49:58.952Z</time></trkpt><trkpt lat="43.5075437" lon="11.3685275"><ele>477.0</ele><time>2026-03-28T10:49:59.95Z</time></trkpt><trkpt lat="43.5074484" lon="11.368435"><ele>477.0</ele><time>2026-03-28T10:50:00.95Z</time></trkpt><trkpt lat="43.5073502" lon="11.3683624"><ele>477.0</ele><time>2026-03-28T10:50:01.951Z</time></trkpt><trkpt lat="43.5072462" lon="11.368326"><ele>477.0</ele><time>2026-03-28T10:50:02.951Z</time></trkpt><trkpt lat="43.5071322" lon="11.3683257"><ele>477.0</ele><time>2026-03-28T10:50:03.95Z</time></trkpt><trkpt lat="43.5070078" lon="11.3683445"><ele>473.5</ele><time>2026-03-28T10:50:04.951Z</time></trkpt><trkpt lat="43.5068868" lon="11.3683665"><ele>470.0</ele><time>2026-03-28T10:50:05.951Z</time></trkpt><trkpt lat="43.5067679" lon="11.3683991"><ele>466.5</ele><time>2026-03-28T10:50:06.95Z</time></trkpt><trkpt lat="43.50665" lon="11.3684551"><ele>463.0</ele><time>2026-03-28T10:50:07.951Z</time></trkpt><trkpt lat="43.5065368" lon="11.3685492"><ele>463.0</ele><time>2026-03-28T10:50:08.951Z</time></trkpt><trkpt lat="43.5064282" lon="11.3686833"><ele>463.0</ele><time>2026-03-28T10:50:09.951Z</time></trkpt><trkpt lat="43.5063134" lon="11.3688296"><ele>463.0</ele><time>2026-03-28T10:50:10.951Z</time></trkpt><trkpt lat="43.506189" lon="11.3689748"><ele>458.33333333333337</ele><time>2026-03-28T10:50:11.951Z</time></trkpt><trkpt lat="43.506055" lon="11.369124"><ele>453.66666666666663</ele><time>2026-03-28T10:50:12.951Z</time></trkpt><trkpt lat="43.5059068" lon="11.369265"><ele>449.0</ele><time>2026-03-28T10:50:13.951Z</time></trkpt><trkpt lat="43.5057664" lon="11.3693859"><ele>449.0</ele><time>2026-03-28T10:50:14.951Z</time></trkpt><trkpt lat="43.5056451" lon="11.3694815"><ele>449.0</ele><time>2026-03-28T10:50:15.951Z</time></trkpt><trkpt lat="43.505527" lon="11.3695334"><ele>449.0</ele><time>2026-03-28T10:50:16.95Z</time></trkpt><trkpt lat="43.5054128" lon="11.3695483"><ele>449.0</ele><time>2026-03-28T10:50:17.952Z</time></trkpt><trkpt lat="43.5052977" lon="11.3695169"><ele>448.5</ele><time>2026-03-28T10:50:18.952Z</time></trkpt><trkpt lat="43.5051804" lon="11.3694462"><ele>448.0</ele><time>2026-03-28T10:50:19.951Z</time></trkpt><trkpt lat="43.5050517" lon="11.3694025"><ele>447.5</ele><time>2026-03-28T10:50:20.952Z</time></trkpt><trkpt lat="43.5049064" lon="11.3693892"><ele>447.0</ele><time>2026-03-28T10:50:21.952Z</time></trkpt><trkpt lat="43.5047551" lon="11.3694328"><ele>447.0</ele><time>2026-03-28T10:50:22.951Z</time></trkpt><trkpt lat="43.5045969" lon="11.3695028"><ele>447.0</ele><time>2026-03-28T10:50:23.951Z</time></trkpt><trkpt lat="43.5044417" lon="11.3696104"><ele>447.0</ele><time>2026-03-28T10:50:24.951Z</time></trkpt><trkpt lat="43.5042908" lon="11.3697308"><ele>442.0</ele><time>2026-03-28T10:50:25.951Z</time></trkpt><trkpt lat="43.5041364" lon="11.3698362"><ele>437.0</ele><time>2026-03-28T10:50:26.95Z</time></trkpt><trkpt lat="43.503994" lon="11.3699135"><ele>432.0</ele><time>2026-03-28T10:50:27.95Z</time></trkpt><trkpt lat="43.5038481" lon="11.3699526"><ele>430.5</ele><time>2026-03-28T10:50:28.952Z</time></trkpt><trkpt lat="43.5037113" lon="11.3699608"><ele>429.0</ele><time>2026-03-28T10:50:29.951Z</time></trkpt><trkpt lat="43.5035726" lon="11.3699632"><ele>427.5</ele><time>2026-03-28T10:50:30.952Z</time></trkpt><trkpt lat="43.5034317" lon="11.370004"><ele>426.0</ele><time>2026-03-28T10:50:31.951Z</time></trkpt><trkpt lat="43.5032794" lon="11.3700703"><ele>426.0</ele><time>2026-03-28T10:50:32.95Z</time></trkpt><trkpt lat="43.5031374" lon="11.3701417"><ele>426.0</ele><time>2026-03-28T10:50:33.952Z</time></trkpt><trkpt lat="43.5029977" lon="11.3702207"><ele>426.0</ele><time>2026-03-28T10:50:34.951Z</time></trkpt><trkpt lat="43.5028598" lon="11.370304"><ele>423.33333333333337</ele><time>2026-03-28T10:50:35.951Z</time></trkpt><trkpt lat="43.5027218" lon="11.3703991"><ele>420.6666666666667</ele><time>2026-03-28T10:50:36.951Z</time></trkpt><trkpt lat="43.5025812" lon="11.3704914"><ele>418.0</ele><time>2026-03-28T10:50:37.951Z</time></trkpt><trkpt lat="43.5024359" lon="11.3705475"><ele>415.0</ele><time>2026-03-28T10:50:38.952Z</time></trkpt><trkpt lat="43.5022822" lon="11.3706013"><ele>412.0</ele><time>2026-03-28T10:50:39.951Z</time></trkpt><trkpt lat="43.5021243" lon="11.3706625"><ele>409.0</ele><time>2026-03-28T10:50:40.951Z</time></trkpt><trkpt lat="43.5019675" lon="11.3707224"><ele>407.0</ele><time>2026-03-28T10:50:41.951Z</time></trkpt><trkpt lat="43.5018144" lon="11.3707834"><ele>405.0</ele><time>2026-03-28T10:50:42.951Z</time></trkpt><trkpt lat="43.5016628" lon="11.3708425"><ele>403.0</ele><time>2026-03-28T10:50:43.951Z</time></trkpt><trkpt lat="43.501525" lon="11.3709033"><ele>403.0</ele><time>2026-03-28T10:50:44.951Z</time></trkpt><trkpt lat="43.5013994" lon="11.3709851"><ele>403.0</ele><time>2026-03-28T10:50:45.952Z</time></trkpt><trkpt lat="43.5013003" lon="11.3711186"><ele>403.0</ele><time>2026-03-28T10:50:46.951Z</time></trkpt><trkpt lat="43.5012029" lon="11.3712403"><ele>403.0</ele><time>2026-03-28T10:50:47.951Z</time></trkpt><trkpt lat="43.5011063" lon="11.3713621"><ele>400.5</ele><time>2026-03-28T10:50:48.95Z</time></trkpt><trkpt lat="43.5009979" lon="11.3714477"><ele>398.0</ele><time>2026-03-28T10:50:49.951Z</time></trkpt><trkpt lat="43.5008855" lon="11.371483"><ele>395.5</ele><time>2026-03-28T10:50:50.951Z</time></trkpt><trkpt lat="43.5007747" lon="11.3714694"><ele>393.0</ele><time>2026-03-28T10:50:51.951Z</time></trkpt><trkpt lat="43.5006574" lon="11.3714111"><ele>396.66666666666663</ele><time>2026-03-28T10:50:52.951Z</time></trkpt><trkpt lat="43.5005161" lon="11.3713457"><ele>400.3333333333333</ele><time>2026-03-28T10:50:53.951Z</time></trkpt><trkpt lat="43.5003532" lon="11.3712983"><ele>404.0</ele><time>2026-03-28T10:50:54.952Z</time></trkpt><trkpt lat="43.5001773" lon="11.3712776"><ele>404.0</ele><time>2026-03-28T10:50:55.95Z</time></trkpt><trkpt lat="43.4999865" lon="11.3713141"><ele>404.0</ele><time>2026-03-28T10:50:56.952Z</time></trkpt><trkpt lat="43.4997845" lon="11.3713799"><ele>404.0</ele><time>2026-03-28T10:50:57.951Z</time></trkpt><trkpt lat="43.4995799" lon="11.3714682"><ele>396.0</ele><time>2026-03-28T10:50:58.951Z</time></trkpt><trkpt lat="43.4993775" lon="11.3715464"><ele>388.0</ele><time>2026-03-28T10:50:59.952Z</time></trkpt><trkpt lat="43.4991786" lon="11.3716108"><ele>380.0</ele><time>2026-03-28T10:51:00.951Z</time></trkpt><trkpt lat="43.4989808" lon="11.3716321"><ele>380.0</ele><time>2026-03-28T10:51:01.95Z</time></trkpt><trkpt lat="43.4987799" lon="11.37165"><ele>380.0</ele><time>2026-03-28T10:51:02.952Z</time></trkpt><trkpt lat="43.498573" lon="11.3717087"><ele>380.0</ele><time>2026-03-28T10:51:03.951Z</time></trkpt><trkpt lat="43.4983779" lon="11.3717542"><ele>378.6666666666667</ele><time>2026-03-28T10:51:04.952Z</time></trkpt><trkpt lat="43.4981867" lon="11.3717932"><ele>377.3333333333333</ele><time>2026-03-28T10:51:05.951Z</time></trkpt><trkpt lat="43.4980099" lon="11.3718145"><ele>376.0</ele><time>2026-03-28T10:51:06.952Z</time></trkpt><trkpt lat="43.4978381" lon="11.3718306"><ele>373.3333333333333</ele><time>2026-03-28T10:51:07.952Z</time></trkpt><trkpt lat="43.4976738" lon="11.3718198"><ele>370.6666666666667</ele><time>2026-03-28T10:51:08.951Z</time></trkpt><trkpt lat="43.4975193" lon="11.3717912"><ele>368.0</ele><time>2026-03-28T10:51:09.951Z</time></trkpt><trkpt lat="43.4973747" lon="11.3717254"><ele>368.0</ele><time>2026-03-28T10:51:10.952Z</time></trkpt><trkpt lat="43.4972376" lon="11.3716657"><ele>368.0</ele><time>2026-03-28T10:51:11.952Z</time></trkpt><trkpt lat="43.4971028" lon="11.3716091"><ele>368.0</ele><time>2026-03-28T10:51:12.952Z</time></trkpt><trkpt lat="43.4969736" lon="11.3715515"><ele>368.0</ele><time>2026-03-28T10:51:13.952Z</time></trkpt><trkpt lat="43.4968546" lon="11.3714855"><ele>367.25</ele><time>2026-03-28T10:51:14.951Z</time></trkpt><trkpt lat="43.4967477" lon="11.3714103"><ele>366.5</ele><time>2026-03-28T10:51:15.951Z</time></trkpt><trkpt lat="43.4966371" lon="11.3713353"><ele>365.75</ele><time>2026-03-28T10:51:16.951Z</time></trkpt><trkpt lat="43.4965312" lon="11.3712576"><ele>365.0</ele><time>2026-03-28T10:51:17.951Z</time></trkpt><trkpt lat="43.496428" lon="11.371181"><ele>365.0</ele><time>2026-03-28T10:51:18.951Z</time></trkpt><trkpt lat="43.4963184" lon="11.3711326"><ele>365.0</ele><time>2026-03-28T10:51:19.95Z</time></trkpt><trkpt lat="43.4962123" lon="11.3710826"><ele>365.0</ele><time>2026-03-28T10:51:20.95Z</time></trkpt><trkpt lat="43.4961148" lon="11.371037"><ele>365.0</ele><time>2026-03-28T10:51:21.951Z</time></trkpt><trkpt lat="43.4960338" lon="11.3710005"><ele>365.0</ele><time>2026-03-28T10:51:22.95Z</time></trkpt><trkpt lat="43.4959643" lon="11.3709637"><ele>363.1666666666667</ele><time>2026-03-28T10:51:23.95Z</time></trkpt><trkpt lat="43.4958911" lon="11.3709015"><ele>361.33333333333337</ele><time>2026-03-28T10:51:25.951Z</time></trkpt><trkpt lat="43.4958339" lon="11.3708195"><ele>359.5</ele><time>2026-03-28T10:51:41.952Z</time></trkpt><trkpt lat="43.4958273" lon="11.3706627"><ele>357.6666666666667</ele><time>2026-03-28T10:51:43.95Z</time></trkpt><trkpt lat="43.4958067" lon="11.3705654"><ele>355.8333333333333</ele><time>2026-03-28T10:51:44.95Z</time></trkpt><trkpt lat="43.4957607" lon="11.3704592"><ele>354.0</ele><time>2026-03-28T10:51:45.951Z</time></trkpt><trkpt lat="43.4956934" lon="11.3703645"><ele>353.25</ele><time>2026-03-28T10:51:46.952Z</time></trkpt><trkpt lat="43.495607" lon="11.3702745"><ele>352.5</ele><time>2026-03-28T10:51:47.952Z</time></trkpt><trkpt lat="43.495515" lon="11.370177"><ele>351.75</ele><time>2026-03-28T10:51:48.952Z</time></trkpt><trkpt lat="43.4954109" lon="11.3700612"><ele>351.0</ele><time>2026-03-28T10:51:49.951Z</time></trkpt><trkpt lat="43.4953027" lon="11.3699486"><ele>348.6666666666667</ele><time>2026-03-28T10:51:50.95Z</time></trkpt><trkpt lat="43.49519" lon="11.3698223"><ele>346.33333333333337</ele><time>2026-03-28T10:51:51.95Z</time></trkpt><trkpt lat="43.4950657" lon="11.3696889"><ele>344.0</ele><time>2026-03-28T10:51:52.951Z</time></trkpt><trkpt lat="43.4949242" lon="11.3695743"><ele>343.0</ele><time>2026-03-28T10:51:53.951Z</time></trkpt><trkpt lat="43.4947521" lon="11.3694723"><ele>342.0</ele><time>2026-03-28T10:51:54.951Z</time></trkpt><trkpt lat="43.4945634" lon="11.3694079"><ele>341.0</ele><time>2026-03-28T10:51:55.951Z</time></trkpt><trkpt lat="43.4943593" lon="11.369357"><ele>344.5</ele><time>2026-03-28T10:51:56.952Z</time></trkpt><trkpt lat="43.4941356" lon="11.3692999"><ele>348.0</ele><time>2026-03-28T10:51:57.951Z</time></trkpt><trkpt lat="43.4939097" lon="11.3692349"><ele>353.5</ele><time>2026-03-28T10:51:58.951Z</time></trkpt><trkpt lat="43.493678" lon="11.3691778"><ele>359.0</ele><time>2026-03-28T10:51:59.951Z</time></trkpt><trkpt lat="43.4934443" lon="11.3691159"><ele>359.0</ele><time>2026-03-28T10:52:00.951Z</time></trkpt><trkpt lat="43.4932198" lon="11.3690541"><ele>359.0</ele><time>2026-03-28T10:52:01.95Z</time></trkpt><trkpt lat="43.492989" lon="11.3689749"><ele>363.0</ele><time>2026-03-28T10:52:02.951Z</time></trkpt><trkpt lat="43.4927662" lon="11.3688871"><ele>367.0</ele><time>2026-03-28T10:52:03.951Z</time></trkpt><trkpt lat="43.4925652" lon="11.3688005"><ele>371.0</ele><time>2026-03-28T10:52:04.952Z</time></trkpt><trkpt lat="43.4923785" lon="11.3686841"><ele>372.33333333333337</ele><time>2026-03-28T10:52:05.951Z</time></trkpt><trkpt lat="43.4922081" lon="11.3685382"><ele>373.6666666666667</ele><time>2026-03-28T10:52:06.951Z</time></trkpt><trkpt lat="43.4920349" lon="11.3683722"><ele>375.0</ele><time>2026-03-28T10:52:07.951Z</time></trkpt><trkpt lat="43.4918594" lon="11.3681978"><ele>382.0</ele><time>2026-03-28T10:52:08.95Z</time></trkpt><trkpt lat="43.4916882" lon="11.3680176"><ele>389.0</ele><time>2026-03-28T10:52:09.951Z</time></trkpt><trkpt lat="43.4915186" lon="11.3678564"><ele>396.0</ele><time>2026-03-28T10:52:10.952Z</time></trkpt><trkpt lat="43.4913435" lon="11.3677314"><ele>396.33333333333337</ele><time>2026-03-28T10:52:11.952Z</time></trkpt><trkpt lat="43.4911706" lon="11.3676518"><ele>396.6666666666667</ele><time>2026-03-28T10:52:12.952Z</time></trkpt><trkpt lat="43.4910102" lon="11.3676111"><ele>397.0</ele><time>2026-03-28T10:52:13.952Z</time></trkpt><trkpt lat="43.4908681" lon="11.3676032"><ele>397.00000000000006</ele><time>2026-03-28T10:52:14.952Z</time></trkpt><trkpt lat="43.4907524" lon="11.3675962"><ele>397.0</ele><time>2026-03-28T10:52:15.952Z</time></trkpt><trkpt lat="43.4906733" lon="11.3676011"><ele>397.0</ele><time>2026-03-28T10:52:16.951Z</time></trkpt><trkpt lat="43.4905984" lon="11.3676042"><ele>397.0</ele><time>2026-03-28T10:52:18.952Z</time></trkpt><trkpt lat="43.4905149" lon="11.3676264"><ele>397.00000000000006</ele><time>2026-03-28T10:52:21.952Z</time></trkpt><trkpt lat="43.4904719" lon="11.3677312"><ele>397.0</ele><time>2026-03-28T10:52:24.951Z</time></trkpt><trkpt lat="43.4904886" lon="11.3678434"><ele>397.00000000000006</ele><time>2026-03-28T10:52:26.952Z</time></trkpt><trkpt lat="43.4905098" lon="11.3679299"><ele>397.0</ele><time>2026-03-28T10:52:27.952Z</time></trkpt><trkpt lat="43.4905507" lon="11.3680136"><ele>397.0</ele><time>2026-03-28T10:52:28.951Z</time></trkpt><trkpt lat="43.4906088" lon="11.3680843"><ele>397.0</ele><time>2026-03-28T10:52:29.951Z</time></trkpt><trkpt lat="43.490715" lon="11.3681292"><ele>397.00000000000006</ele><time>2026-03-28T10:52:30.951Z</time></trkpt><trkpt lat="43.49082" lon="11.3681671"><ele>397.0</ele><time>2026-03-28T10:52:31.95Z</time></trkpt><trkpt lat="43.4909359" lon="11.3682329"><ele>396.6666666666667</ele><time>2026-03-28T10:52:32.952Z</time></trkpt><trkpt lat="43.4910628" lon="11.3683263"><ele>396.33333333333337</ele><time>2026-03-28T10:52:33.952Z</time></trkpt><trkpt lat="43.4911859" lon="11.3684456"><ele>396.0</ele><time>2026-03-28T10:52:34.952Z</time></trkpt><trkpt lat="43.4913041" lon="11.3685998"><ele>396.33333333333337</ele><time>2026-03-28T10:52:35.952Z</time></trkpt><trkpt lat="43.4914145" lon="11.3687779"><ele>396.6666666666667</ele><time>2026-03-28T10:52:36.952Z</time></trkpt><trkpt lat="43.4915258" lon="11.3689754"><ele>397.0</ele><time>2026-03-28T10:52:37.952Z</time></trkpt><trkpt lat="43.4916241" lon="11.3691697"><ele>397.0</ele><time>2026-03-28T10:52:38.951Z</time></trkpt><trkpt lat="43.4917091" lon="11.3693455"><ele>397.0</ele><time>2026-03-28T10:52:39.951Z</time></trkpt><trkpt lat="43.4917692" lon="11.3695353"><ele>397.0</ele><time>2026-03-28T10:52:40.952Z</time></trkpt><trkpt lat="43.4918006" lon="11.3697387"><ele>397.6666666666667</ele><time>2026-03-28T10:52:41.951Z</time></trkpt><trkpt lat="43.4918102" lon="11.369955"><ele>398.33333333333337</ele><time>2026-03-28T10:52:42.952Z</time></trkpt><trkpt lat="43.4917613" lon="11.3701799"><ele>399.0</ele><time>2026-03-28T10:52:43.952Z</time></trkpt><trkpt lat="43.4917055" lon="11.370407"><ele>398.0</ele><time>2026-03-28T10:52:44.951Z</time></trkpt><trkpt lat="43.4916374" lon="11.3706196"><ele>397.0</ele><time>2026-03-28T10:52:45.951Z</time></trkpt><trkpt lat="43.4915611" lon="11.3708241"><ele>396.0</ele><time>2026-03-28T10:52:46.949Z</time></trkpt><trkpt lat="43.4914603" lon="11.3710044"><ele>396.0</ele><time>2026-03-28T10:52:47.951Z</time></trkpt><trkpt lat="43.4913401" lon="11.3711572"><ele>396.0</ele><time>2026-03-28T10:52:48.952Z</time></trkpt><trkpt lat="43.4912057" lon="11.3712761"><ele>396.0</ele><time>2026-03-28T10:52:49.951Z</time></trkpt><trkpt lat="43.4910469" lon="11.3713432"><ele>397.0</ele><time>2026-03-28T10:52:50.95Z</time></trkpt><trkpt lat="43.4908826" lon="11.3713732"><ele>398.0</ele><time>2026-03-28T10:52:51.951Z</time></trkpt><trkpt lat="43.4907332" lon="11.3713722"><ele>399.0</ele><time>2026-03-28T10:52:52.952Z</time></trkpt><trkpt lat="43.4906014" lon="11.3713897"><ele>400.0</ele><time>2026-03-28T10:52:53.952Z</time></trkpt><trkpt lat="43.4904896" lon="11.3714469"><ele>404.5</ele><time>2026-03-28T10:52:54.95Z</time></trkpt><trkpt lat="43.4904085" lon="11.371556"><ele>409.0</ele><time>2026-03-28T10:52:55.95Z</time></trkpt><trkpt lat="43.4903652" lon="11.3716918"><ele>413.5</ele><time>2026-03-28T10:52:56.95Z</time></trkpt><trkpt lat="43.490365" lon="11.3718412"><ele>418.0</ele><time>2026-03-28T10:52:57.951Z</time></trkpt><trkpt lat="43.490417" lon="11.372006"><ele>412.6666666666667</ele><time>2026-03-28T10:52:58.95Z</time></trkpt><trkpt lat="43.4904905" lon="11.3721898"><ele>407.33333333333337</ele><time>2026-03-28T10:52:59.952Z</time></trkpt><trkpt lat="43.4905804" lon="11.3723771"><ele>402.0</ele><time>2026-03-28T10:53:00.951Z</time></trkpt><trkpt lat="43.4906744" lon="11.3725863"><ele>402.0</ele><time>2026-03-28T10:53:01.951Z</time></trkpt><trkpt lat="43.4907455" lon="11.3727895"><ele>402.0</ele><time>2026-03-28T10:53:02.951Z</time></trkpt><trkpt lat="43.4907912" lon="11.372992"><ele>402.0</ele><time>2026-03-28T10:53:03.951Z</time></trkpt><trkpt lat="43.4908038" lon="11.373193"><ele>404.0</ele><time>2026-03-28T10:53:04.951Z</time></trkpt><trkpt lat="43.4907746" lon="11.3733946"><ele>406.0</ele><time>2026-03-28T10:53:05.951Z</time></trkpt><trkpt lat="43.4907139" lon="11.3736044"><ele>408.0</ele><time>2026-03-28T10:53:06.952Z</time></trkpt><trkpt lat="43.4906363" lon="11.3738214"><ele>408.0</ele><time>2026-03-28T10:53:07.951Z</time></trkpt><trkpt lat="43.4905673" lon="11.3740554"><ele>408.0</ele><time>2026-03-28T10:53:08.952Z</time></trkpt><trkpt lat="43.4905047" lon="11.3743026"><ele>408.0</ele><time>2026-03-28T10:53:09.95Z</time></trkpt><trkpt lat="43.4904574" lon="11.3745631"><ele>414.66666666666663</ele><time>2026-03-28T10:53:10.951Z</time></trkpt><trkpt lat="43.4904217" lon="11.3748346"><ele>421.3333333333333</ele><time>2026-03-28T10:53:11.951Z</time></trkpt><trkpt lat="43.4903973" lon="11.3751193"><ele>428.0</ele><time>2026-03-28T10:53:12.951Z</time></trkpt><trkpt lat="43.4903935" lon="11.375409"><ele>428.3333333333333</ele><time>2026-03-28T10:53:13.952Z</time></trkpt><trkpt lat="43.490403" lon="11.375701"><ele>428.66666666666663</ele><time>2026-03-28T10:53:14.952Z</time></trkpt><trkpt lat="43.4904278" lon="11.3759919"><ele>429.0</ele><time>2026-03-28T10:53:15.951Z</time></trkpt><trkpt lat="43.4904587" lon="11.3762899"><ele>424.33333333333337</ele><time>2026-03-28T10:53:16.951Z</time></trkpt><trkpt lat="43.4904931" lon="11.3765749"><ele>419.6666666666667</ele><time>2026-03-28T10:53:17.951Z</time></trkpt><trkpt lat="43.4905271" lon="11.3768477"><ele>415.0</ele><time>2026-03-28T10:53:18.951Z</time></trkpt><trkpt lat="43.490559" lon="11.3771067"><ele>416.6666666666667</ele><time>2026-03-28T10:53:19.952Z</time></trkpt><trkpt lat="43.4905917" lon="11.3773647"><ele>418.33333333333337</ele><time>2026-03-28T10:53:20.951Z</time></trkpt><trkpt lat="43.4906299" lon="11.3776177"><ele>420.0</ele><time>2026-03-28T10:53:21.952Z</time></trkpt><trkpt lat="43.4906665" lon="11.377874"><ele>421.66666666666663</ele><time>2026-03-28T10:53:22.952Z</time></trkpt><trkpt lat="43.4906994" lon="11.378119"><ele>423.3333333333333</ele><time>2026-03-28T10:53:23.951Z</time></trkpt><trkpt lat="43.4907461" lon="11.3783493"><ele>425.0</ele><time>2026-03-28T10:53:24.952Z</time></trkpt><trkpt lat="43.490771" lon="11.3785582"><ele>425.0</ele><time>2026-03-28T10:53:25.952Z</time></trkpt><trkpt lat="43.4907855" lon="11.3787536"><ele>425.0</ele><time>2026-03-28T10:53:26.952Z</time></trkpt><trkpt lat="43.4907772" lon="11.3789508"><ele>425.0</ele><time>2026-03-28T10:53:27.951Z</time></trkpt><trkpt lat="43.4907422" lon="11.3791427"><ele>425.0</ele><time>2026-03-28T10:53:28.952Z</time></trkpt><trkpt lat="43.4906753" lon="11.3793294"><ele>425.3333333333333</ele><time>2026-03-28T10:53:29.951Z</time></trkpt><trkpt lat="43.4905814" lon="11.3795092"><ele>425.66666666666663</ele><time>2026-03-28T10:53:30.951Z</time></trkpt><trkpt lat="43.4904773" lon="11.3796876"><ele>426.0</ele><time>2026-03-28T10:53:31.951Z</time></trkpt><trkpt lat="43.4903826" lon="11.3798816"><ele>430.66666666666663</ele><time>2026-03-28T10:53:32.951Z</time></trkpt><trkpt lat="43.4903054" lon="11.3800912"><ele>435.3333333333333</ele><time>2026-03-28T10:53:33.951Z</time></trkpt><trkpt lat="43.4902422" lon="11.3803036"><ele>440.0</ele><time>2026-03-28T10:53:34.951Z</time></trkpt><trkpt lat="43.4901992" lon="11.3805068"><ele>441.0</ele><time>2026-03-28T10:53:35.951Z</time></trkpt><trkpt lat="43.4901737" lon="11.3807041"><ele>442.0</ele><time>2026-03-28T10:53:36.952Z</time></trkpt><trkpt lat="43.4902169" lon="11.3808921"><ele>443.0</ele><time>2026-03-28T10:53:37.951Z</time></trkpt><trkpt lat="43.4902819" lon="11.3810745"><ele>444.0</ele><time>2026-03-28T10:53:38.951Z</time></trkpt><trkpt lat="43.4903676" lon="11.3812582"><ele>440.0</ele><time>2026-03-28T10:53:39.951Z</time></trkpt><trkpt lat="43.4904571" lon="11.3814399"><ele>436.0</ele><time>2026-03-28T10:53:40.952Z</time></trkpt><trkpt lat="43.4905241" lon="11.3816474"><ele>432.0</ele><time>2026-03-28T10:53:41.952Z</time></trkpt><trkpt lat="43.4905857" lon="11.3818535"><ele>432.0</ele><time>2026-03-28T10:53:42.952Z</time></trkpt><trkpt lat="43.4906606" lon="11.3820601"><ele>432.0</ele><time>2026-03-28T10:53:43.951Z</time></trkpt><trkpt lat="43.490765" lon="11.3822414"><ele>432.0</ele><time>2026-03-28T10:53:44.95Z</time></trkpt><trkpt lat="43.4908968" lon="11.3823821"><ele>431.5</ele><time>2026-03-28T10:53:45.952Z</time></trkpt><trkpt lat="43.4910368" lon="11.3824847"><ele>431.0</ele><time>2026-03-28T10:53:46.952Z</time></trkpt><trkpt lat="43.4911507" lon="11.3826057"><ele>430.5</ele><time>2026-03-28T10:53:47.951Z</time></trkpt><trkpt lat="43.4912356" lon="11.3827628"><ele>430.0</ele><time>2026-03-28T10:53:48.951Z</time></trkpt><trkpt lat="43.4912831" lon="11.3829444"><ele>431.33333333333337</ele><time>2026-03-28T10:53:49.952Z</time></trkpt><trkpt lat="43.4912935" lon="11.3831524"><ele>432.66666666666663</ele><time>2026-03-28T10:53:50.952Z</time></trkpt><trkpt lat="43.4913002" lon="11.3833663"><ele>434.0</ele><time>2026-03-28T10:53:51.951Z</time></trkpt><trkpt lat="43.491237" lon="11.383597"><ele>441.3333333333333</ele><time>2026-03-28T10:53:52.952Z</time></trkpt><trkpt lat="43.4911765" lon="11.3838041"><ele>448.66666666666663</ele><time>2026-03-28T10:53:53.952Z</time></trkpt><trkpt lat="43.491085" lon="11.3839924"><ele>456.0</ele><time>2026-03-28T10:53:54.952Z</time></trkpt><trkpt lat="43.4909664" lon="11.3841629"><ele>456.33333333333337</ele><time>2026-03-28T10:53:55.951Z</time></trkpt><trkpt lat="43.4908328" lon="11.3843177"><ele>456.6666666666667</ele><time>2026-03-28T10:53:56.951Z</time></trkpt><trkpt lat="43.4907014" lon="11.3844579"><ele>457.0</ele><time>2026-03-28T10:53:57.951Z</time></trkpt><trkpt lat="43.4905618" lon="11.3846162"><ele>457.33333333333337</ele><time>2026-03-28T10:53:58.951Z</time></trkpt><trkpt lat="43.4904319" lon="11.3847678"><ele>457.66666666666663</ele><time>2026-03-28T10:53:59.951Z</time></trkpt><trkpt lat="43.4903083" lon="11.3849032"><ele>458.0</ele><time>2026-03-28T10:54:00.95Z</time></trkpt><trkpt lat="43.490194" lon="11.3850302"><ele>458.0</ele><time>2026-03-28T10:54:01.95Z</time></trkpt><trkpt lat="43.4900877" lon="11.3851527"><ele>458.0</ele><time>2026-03-28T10:54:02.951Z</time></trkpt><trkpt lat="43.4899985" lon="11.3852871"><ele>458.0</ele><time>2026-03-28T10:54:03.952Z</time></trkpt><trkpt lat="43.4899296" lon="11.3854432"><ele>458.0</ele><time>2026-03-28T10:54:04.952Z</time></trkpt><trkpt lat="43.4898766" lon="11.3856134"><ele>458.2</ele><time>2026-03-28T10:54:05.952Z</time></trkpt><trkpt lat="43.4898349" lon="11.3857741"><ele>458.4</ele><time>2026-03-28T10:54:06.952Z</time></trkpt><trkpt lat="43.4897956" lon="11.385909"><ele>458.59999999999997</ele><time>2026-03-28T10:54:07.951Z</time></trkpt><trkpt lat="43.4897567" lon="11.3860343"><ele>458.79999999999995</ele><time>2026-03-28T10:54:08.951Z</time></trkpt><trkpt lat="43.4897192" lon="11.3861429"><ele>459.0</ele><time>2026-03-28T10:54:09.95Z</time></trkpt><trkpt lat="43.4896934" lon="11.3862284"><ele>459.0</ele><time>2026-03-28T10:54:10.952Z</time></trkpt><trkpt lat="43.4897017" lon="11.3863726"><ele>459.0</ele><time>2026-03-28T10:54:12.951Z</time></trkpt><trkpt lat="43.4898023" lon="11.3864277"><ele>459.0</ele><time>2026-03-28T10:54:14.951Z</time></trkpt><trkpt lat="43.4898803" lon="11.3864173"><ele>459.0</ele><time>2026-03-28T10:54:15.952Z</time></trkpt><trkpt lat="43.489961" lon="11.3863957"><ele>459.0</ele><time>2026-03-28T10:54:16.951Z</time></trkpt><trkpt lat="43.4900519" lon="11.3863339"><ele>459.0</ele><time>2026-03-28T10:54:17.952Z</time></trkpt><trkpt lat="43.4901339" lon="11.3862556"><ele>459.0</ele><time>2026-03-28T10:54:18.952Z</time></trkpt><trkpt lat="43.4902032" lon="11.3861751"><ele>459.0</ele><time>2026-03-28T10:54:19.951Z</time></trkpt><trkpt lat="43.4902575" lon="11.3860725"><ele>459.0</ele><time>2026-03-28T10:54:20.952Z</time></trkpt><trkpt lat="43.4902981" lon="11.3859601"><ele>459.0</ele><time>2026-03-28T10:54:21.951Z</time></trkpt><trkpt lat="43.4903147" lon="11.3858399"><ele>459.0</ele><time>2026-03-28T10:54:22.952Z</time></trkpt><trkpt lat="43.4903188" lon="11.3857124"><ele>459.0</ele><time>2026-03-28T10:54:23.952Z</time></trkpt><trkpt lat="43.4903147" lon="11.3855873"><ele>459.0</ele><time>2026-03-28T10:54:24.951Z</time></trkpt><trkpt lat="43.490307" lon="11.3854669"><ele>459.0</ele><time>2026-03-28T10:54:25.951Z</time></trkpt><trkpt lat="43.4903617" lon="11.3853422"><ele>459.0</ele><time>2026-03-28T10:54:27.951Z</time></trkpt><trkpt lat="43.4904412" lon="11.385378"><ele>459.0</ele><time>2026-03-28T10:54:29.951Z</time></trkpt><trkpt lat="43.490474" lon="11.3854693"><ele>459.0</ele><time>2026-03-28T10:54:30.95Z</time></trkpt><trkpt lat="43.4905143" lon="11.3855867"><ele>459.0</ele><time>2026-03-28T10:54:31.951Z</time></trkpt><trkpt lat="43.4905577" lon="11.3857043"><ele>459.0</ele><time>2026-03-28T10:54:32.95Z</time></trkpt><trkpt lat="43.4906111" lon="11.3858449"><ele>459.0</ele><time>2026-03-28T10:54:33.952Z</time></trkpt><trkpt lat="43.4906733" lon="11.3860093"><ele>460.25</ele><time>2026-03-28T10:54:34.952Z</time></trkpt><trkpt lat="43.4907351" lon="11.3861694"><ele>461.5</ele><time>2026-03-28T10:54:35.952Z</time></trkpt><trkpt lat="43.4908047" lon="11.3863409"><ele>462.75</ele><time>2026-03-28T10:54:36.951Z</time></trkpt><trkpt lat="43.4908791" lon="11.3865059"><ele>464.0</ele><time>2026-03-28T10:54:37.951Z</time></trkpt><trkpt lat="43.4909963" lon="11.3866735"><ele>465.3333333333333</ele><time>2026-03-28T10:54:38.951Z</time></trkpt><trkpt lat="43.4911194" lon="11.3868312"><ele>466.66666666666663</ele><time>2026-03-28T10:54:39.951Z</time></trkpt><trkpt lat="43.491263" lon="11.3869704"><ele>468.0</ele><time>2026-03-28T10:54:40.952Z</time></trkpt><trkpt lat="43.4914241" lon="11.387108"><ele>466.33333333333337</ele><time>2026-03-28T10:54:41.952Z</time></trkpt><trkpt lat="43.4915843" lon="11.387252"><ele>464.6666666666667</ele><time>2026-03-28T10:54:42.951Z</time></trkpt><trkpt lat="43.4917382" lon="11.3874027"><ele>463.0</ele><time>2026-03-28T10:54:43.951Z</time></trkpt><trkpt lat="43.4918914" lon="11.3875506"><ele>463.0</ele><time>2026-03-28T10:54:44.952Z</time></trkpt><trkpt lat="43.4920414" lon="11.3876667"><ele>463.0</ele><time>2026-03-28T10:54:45.951Z</time></trkpt><trkpt lat="43.4921895" lon="11.3877802"><ele>463.0</ele><time>2026-03-28T10:54:46.952Z</time></trkpt><trkpt lat="43.4923367" lon="11.3878867"><ele>462.5</ele><time>2026-03-28T10:54:47.951Z</time></trkpt><trkpt lat="43.4924763" lon="11.3879983"><ele>462.0</ele><time>2026-03-28T10:54:48.952Z</time></trkpt><trkpt lat="43.4926044" lon="11.3881136"><ele>461.5</ele><time>2026-03-28T10:54:49.951Z</time></trkpt><trkpt lat="43.4926952" lon="11.3882438"><ele>461.0</ele><time>2026-03-28T10:54:50.951Z</time></trkpt><trkpt lat="43.4927626" lon="11.3883641"><ele>461.0</ele><time>2026-03-28T10:54:51.952Z</time></trkpt><trkpt lat="43.4928255" lon="11.3884559"><ele>461.0</ele><time>2026-03-28T10:54:52.952Z</time></trkpt><trkpt lat="43.492907" lon="11.3885078"><ele>461.0</ele><time>2026-03-28T10:54:53.951Z</time></trkpt><trkpt lat="43.4930044" lon="11.388493"><ele>461.0</ele><time>2026-03-28T10:54:54.952Z</time></trkpt><trkpt lat="43.493111" lon="11.3884382"><ele>461.0</ele><time>2026-03-28T10:54:55.951Z</time></trkpt><trkpt lat="43.4932301" lon="11.3883853"><ele>457.3333333333333</ele><time>2026-03-28T10:54:56.951Z</time></trkpt><trkpt lat="43.4933946" lon="11.3883504"><ele>453.66666666666663</ele><time>2026-03-28T10:54:57.952Z</time></trkpt><trkpt lat="43.4935516" lon="11.3883353"><ele>450.0</ele><time>2026-03-28T10:54:58.951Z</time></trkpt><trkpt lat="43.4938755" lon="11.3884232"><ele>444.0</ele><time>2026-03-28T10:55:00.952Z</time></trkpt><trkpt lat="43.4940355" lon="11.3885157"><ele>438.0</ele><time>2026-03-28T10:55:01.952Z</time></trkpt><trkpt lat="43.4941789" lon="11.3886552"><ele>432.0</ele><time>2026-03-28T10:55:02.952Z</time></trkpt><trkpt lat="43.494309" lon="11.3888335"><ele>431.0</ele><time>2026-03-28T10:55:03.952Z</time></trkpt><trkpt lat="43.4944305" lon="11.3890358"><ele>430.0</ele><time>2026-03-28T10:55:04.952Z</time></trkpt><trkpt lat="43.49456" lon="11.3892316"><ele>429.0</ele><time>2026-03-28T10:55:05.951Z</time></trkpt><trkpt lat="43.4947236" lon="11.3894165"><ele>429.0</ele><time>2026-03-28T10:55:06.951Z</time></trkpt><trkpt lat="43.4948816" lon="11.3895728"><ele>429.0</ele><time>2026-03-28T10:55:07.95Z</time></trkpt><trkpt lat="43.495038" lon="11.389727"><ele>429.0</ele><time>2026-03-28T10:55:08.951Z</time></trkpt><trkpt lat="43.4951868" lon="11.3898695"><ele>430.0</ele><time>2026-03-28T10:55:09.952Z</time></trkpt><trkpt lat="43.4953299" lon="11.3899985"><ele>431.0</ele><time>2026-03-28T10:55:10.951Z</time></trkpt><trkpt lat="43.4954648" lon="11.3901141"><ele>432.0</ele><time>2026-03-28T10:55:11.952Z</time></trkpt><trkpt lat="43.4955975" lon="11.3902215"><ele>430.0</ele><time>2026-03-28T10:55:12.952Z</time></trkpt><trkpt lat="43.4957286" lon="11.3903238"><ele>428.0</ele><time>2026-03-28T10:55:13.951Z</time></trkpt><trkpt lat="43.495842" lon="11.3904381"><ele>426.0</ele><time>2026-03-28T10:55:14.952Z</time></trkpt><trkpt lat="43.4959387" lon="11.3905652"><ele>424.0</ele><time>2026-03-28T10:55:15.952Z</time></trkpt><trkpt lat="43.4959981" lon="11.3906892"><ele>423.6</ele><time>2026-03-28T10:55:16.951Z</time></trkpt><trkpt lat="43.4960215" lon="11.3908142"><ele>423.2</ele><time>2026-03-28T10:55:17.952Z</time></trkpt><trkpt lat="43.4960196" lon="11.3909301"><ele>422.8</ele><time>2026-03-28T10:55:18.953Z</time></trkpt><trkpt lat="43.4959426" lon="11.3910263"><ele>422.40000000000003</ele><time>2026-03-28T10:55:19.951Z</time></trkpt><trkpt lat="43.4958499" lon="11.3911252"><ele>422.0</ele><time>2026-03-28T10:55:20.951Z</time></trkpt><trkpt lat="43.4957613" lon="11.3912182"><ele>422.0</ele><time>2026-03-28T10:55:21.951Z</time></trkpt><trkpt lat="43.4956811" lon="11.3913279"><ele>422.0</ele><time>2026-03-28T10:55:22.951Z</time></trkpt><trkpt lat="43.4956532" lon="11.3914893"><ele>422.0</ele><time>2026-03-28T10:55:23.951Z</time></trkpt><trkpt lat="43.4956553" lon="11.3916617"><ele>422.0</ele><time>2026-03-28T10:55:24.951Z</time></trkpt><trkpt lat="43.4956937" lon="11.3918336"><ele>421.5</ele><time>2026-03-28T10:55:25.951Z</time></trkpt><trkpt lat="43.4957724" lon="11.3919908"><ele>421.0</ele><time>2026-03-28T10:55:26.951Z</time></trkpt><trkpt lat="43.4958809" lon="11.3921208"><ele>420.5</ele><time>2026-03-28T10:55:27.952Z</time></trkpt><trkpt lat="43.495995" lon="11.3922335"><ele>420.0</ele><time>2026-03-28T10:55:28.952Z</time></trkpt><trkpt lat="43.496116" lon="11.3923331"><ele>416.33333333333337</ele><time>2026-03-28T10:55:29.952Z</time></trkpt><trkpt lat="43.4962884" lon="11.3923508"><ele>412.6666666666667</ele><time>2026-03-28T10:55:30.952Z</time></trkpt><trkpt lat="43.496459" lon="11.3923454"><ele>409.0</ele><time>2026-03-28T10:55:31.951Z</time></trkpt><trkpt lat="43.496627" lon="11.3923145"><ele>409.0</ele><time>2026-03-28T10:55:32.952Z</time></trkpt><trkpt lat="43.4967931" lon="11.3922847"><ele>409.0</ele><time>2026-03-28T10:55:33.951Z</time></trkpt><trkpt lat="43.4969557" lon="11.3922798"><ele>409.0</ele><time>2026-03-28T10:55:34.952Z</time></trkpt><trkpt lat="43.4971147" lon="11.3923801"><ele>404.0</ele><time>2026-03-28T10:55:35.952Z</time></trkpt><trkpt lat="43.4972631" lon="11.3924592"><ele>399.0</ele><time>2026-03-28T10:55:36.951Z</time></trkpt><trkpt lat="43.4974148" lon="11.3925741"><ele>394.0</ele><time>2026-03-28T10:55:37.951Z</time></trkpt><trkpt lat="43.4975569" lon="11.3927346"><ele>394.0</ele><time>2026-03-28T10:55:38.95Z</time></trkpt><trkpt lat="43.4977034" lon="11.3928982"><ele>394.0</ele><time>2026-03-28T10:55:39.951Z</time></trkpt><trkpt lat="43.4978531" lon="11.3930543"><ele>394.0</ele><time>2026-03-28T10:55:40.951Z</time></trkpt><trkpt lat="43.4980533" lon="11.3931774"><ele>390.0</ele><time>2026-03-28T10:55:41.952Z</time></trkpt><trkpt lat="43.4982304" lon="11.393312"><ele>386.0</ele><time>2026-03-28T10:55:42.952Z</time></trkpt><trkpt lat="43.4983984" lon="11.3934469"><ele>382.0</ele><time>2026-03-28T10:55:43.952Z</time></trkpt><trkpt lat="43.4985621" lon="11.3935808"><ele>382.0</ele><time>2026-03-28T10:55:44.951Z</time></trkpt><trkpt lat="43.4987345" lon="11.3936966"><ele>382.0</ele><time>2026-03-28T10:55:45.951Z</time></trkpt><trkpt lat="43.4989182" lon="11.3937919"><ele>382.0</ele><time>2026-03-28T10:55:46.951Z</time></trkpt><trkpt lat="43.4990991" lon="11.3938846"><ele>379.3333333333333</ele><time>2026-03-28T10:55:47.951Z</time></trkpt><trkpt lat="43.4992867" lon="11.3939787"><ele>376.6666666666667</ele><time>2026-03-28T10:55:48.951Z</time></trkpt><trkpt lat="43.4994804" lon="11.3940711"><ele>374.0</ele><time>2026-03-28T10:55:49.951Z</time></trkpt><trkpt lat="43.49969" lon="11.3941615"><ele>372.5</ele><time>2026-03-28T10:55:50.951Z</time></trkpt><trkpt lat="43.4998964" lon="11.3942839"><ele>371.0</ele><time>2026-03-28T10:55:51.952Z</time></trkpt><trkpt lat="43.5000971" lon="11.3944286"><ele>371.0</ele><time>2026-03-28T10:55:52.952Z</time></trkpt><trkpt lat="43.5002809" lon="11.3945897"><ele>371.0</ele><time>2026-03-28T10:55:53.951Z</time></trkpt><trkpt lat="43.5004682" lon="11.3947595"><ele>371.0</ele><time>2026-03-28T10:55:54.952Z</time></trkpt><trkpt lat="43.5006518" lon="11.3949334"><ele>373.0</ele><time>2026-03-28T10:55:55.951Z</time></trkpt><trkpt lat="43.5008468" lon="11.3951136"><ele>375.0</ele><time>2026-03-28T10:55:56.952Z</time></trkpt><trkpt lat="43.5010449" lon="11.3952916"><ele>375.0</ele><time>2026-03-28T10:55:57.952Z</time></trkpt><trkpt lat="43.5012372" lon="11.395468"><ele>375.0</ele><time>2026-03-28T10:55:58.951Z</time></trkpt><trkpt lat="43.5016237" lon="11.3958212"><ele>375.5</ele><time>2026-03-28T10:56:00.951Z</time></trkpt><trkpt lat="43.5018193" lon="11.3960021"><ele>376.0</ele><time>2026-03-28T10:56:01.951Z</time></trkpt><trkpt lat="43.5020243" lon="11.3961834"><ele>377.0</ele><time>2026-03-28T10:56:02.952Z</time></trkpt><trkpt lat="43.5022296" lon="11.3963635"><ele>378.0</ele><time>2026-03-28T10:56:03.952Z</time></trkpt><trkpt lat="43.5024372" lon="11.3965512"><ele>378.0</ele><time>2026-03-28T10:56:04.951Z</time></trkpt><trkpt lat="43.5026457" lon="11.3967339"><ele>378.0</ele><time>2026-03-28T10:56:05.951Z</time></trkpt><trkpt lat="43.5028562" lon="11.3969191"><ele>378.0</ele><time>2026-03-28T10:56:06.95Z</time></trkpt><trkpt lat="43.5030608" lon="11.3971037"><ele>378.0</ele><time>2026-03-28T10:56:07.952Z</time></trkpt><trkpt lat="43.5032618" lon="11.3972971"><ele>380.0</ele><time>2026-03-28T10:56:08.952Z</time></trkpt><trkpt lat="43.5034587" lon="11.3974929"><ele>382.0</ele><time>2026-03-28T10:56:09.952Z</time></trkpt><trkpt lat="43.5036472" lon="11.397709"><ele>384.5</ele><time>2026-03-28T10:56:10.952Z</time></trkpt><trkpt lat="43.5038209" lon="11.3979423"><ele>387.0</ele><time>2026-03-28T10:56:11.952Z</time></trkpt><trkpt lat="43.5039854" lon="11.398208"><ele>387.0</ele><time>2026-03-28T10:56:12.952Z</time></trkpt><trkpt lat="43.5041476" lon="11.3984726"><ele>387.0</ele><time>2026-03-28T10:56:13.953Z</time></trkpt><trkpt lat="43.50431" lon="11.3987295"><ele>387.66666666666663</ele><time>2026-03-28T10:56:14.952Z</time></trkpt><trkpt lat="43.5044444" lon="11.3989756"><ele>388.3333333333333</ele><time>2026-03-28T10:56:15.951Z</time></trkpt><trkpt lat="43.5045265" lon="11.3992201"><ele>389.0</ele><time>2026-03-28T10:56:16.95Z</time></trkpt><trkpt lat="43.5046126" lon="11.3994492"><ele>389.0</ele><time>2026-03-28T10:56:17.952Z</time></trkpt><trkpt lat="43.5047041" lon="11.3996616"><ele>389.0</ele><time>2026-03-28T10:56:18.952Z</time></trkpt><trkpt lat="43.5048207" lon="11.3998424"><ele>389.0</ele><time>2026-03-28T10:56:19.951Z</time></trkpt><trkpt lat="43.504955" lon="11.3999935"><ele>389.3333333333333</ele><time>2026-03-28T10:56:20.952Z</time></trkpt><trkpt lat="43.5051346" lon="11.4000969"><ele>389.66666666666663</ele><time>2026-03-28T10:56:21.951Z</time></trkpt><trkpt lat="43.5053252" lon="11.4001852"><ele>390.0</ele><time>2026-03-28T10:56:22.952Z</time></trkpt><trkpt lat="43.505524" lon="11.4002716"><ele>394.0</ele><time>2026-03-28T10:56:23.952Z</time></trkpt><trkpt lat="43.5057264" lon="11.4003519"><ele>398.0</ele><time>2026-03-28T10:56:24.951Z</time></trkpt><trkpt lat="43.5059197" lon="11.4004257"><ele>402.0</ele><time>2026-03-28T10:56:25.953Z</time></trkpt><trkpt lat="43.5060825" lon="11.4004939"><ele>402.0</ele><time>2026-03-28T10:56:26.951Z</time></trkpt><trkpt lat="43.5062058" lon="11.4005704"><ele>402.0</ele><time>2026-03-28T10:56:27.952Z</time></trkpt><trkpt lat="43.5062982" lon="11.4006645"><ele>402.0</ele><time>2026-03-28T10:56:28.951Z</time></trkpt><trkpt lat="43.5063406" lon="11.4007835"><ele>402.0</ele><time>2026-03-28T10:56:29.951Z</time></trkpt><trkpt lat="43.5063354" lon="11.4008949"><ele>402.0</ele><time>2026-03-28T10:56:30.952Z</time></trkpt><trkpt lat="43.5063007" lon="11.4009873"><ele>402.0</ele><time>2026-03-28T10:56:31.952Z</time></trkpt><trkpt lat="43.5061859" lon="11.4010267"><ele>402.0</ele><time>2026-03-28T10:56:32.951Z</time></trkpt><trkpt lat="43.5060885" lon="11.401071"><ele>402.0</ele><time>2026-03-28T10:56:33.953Z</time></trkpt><trkpt lat="43.5059845" lon="11.4011617"><ele>402.0</ele><time>2026-03-28T10:56:34.952Z</time></trkpt><trkpt lat="43.5059059" lon="11.4012789"><ele>403.0</ele><time>2026-03-28T10:56:35.951Z</time></trkpt><trkpt lat="43.5058634" lon="11.4014088"><ele>404.0</ele><time>2026-03-28T10:56:36.951Z</time></trkpt><trkpt lat="43.5058642" lon="11.4015143"><ele>405.0</ele><time>2026-03-28T10:56:37.951Z</time></trkpt><trkpt lat="43.5059045" lon="11.4015993"><ele>406.0</ele><time>2026-03-28T10:56:38.951Z</time></trkpt><trkpt lat="43.5059812" lon="11.4016469"><ele>407.0</ele><time>2026-03-28T10:56:39.952Z</time></trkpt><trkpt lat="43.5060773" lon="11.4016514"><ele>408.0</ele><time>2026-03-28T10:56:40.952Z</time></trkpt><trkpt lat="43.5061845" lon="11.4016735"><ele>409.75</ele><time>2026-03-28T10:56:41.952Z</time></trkpt><trkpt lat="43.5062967" lon="11.4017363"><ele>411.5</ele><time>2026-03-28T10:56:42.951Z</time></trkpt><trkpt lat="43.506412" lon="11.4018432"><ele>413.25</ele><time>2026-03-28T10:56:43.951Z</time></trkpt><trkpt lat="43.5065347" lon="11.4019755"><ele>415.0</ele><time>2026-03-28T10:56:44.952Z</time></trkpt><trkpt lat="43.5066789" lon="11.4021027"><ele>419.33333333333337</ele><time>2026-03-28T10:56:45.951Z</time></trkpt><trkpt lat="43.5068305" lon="11.4022173"><ele>423.66666666666663</ele><time>2026-03-28T10:56:46.951Z</time></trkpt><trkpt lat="43.5069995" lon="11.4023255"><ele>428.0</ele><time>2026-03-28T10:56:47.951Z</time></trkpt><trkpt lat="43.5071875" lon="11.4024233"><ele>432.3333333333333</ele><time>2026-03-28T10:56:48.952Z</time></trkpt><trkpt lat="43.507384" lon="11.4024939"><ele>436.66666666666663</ele><time>2026-03-28T10:56:49.951Z</time></trkpt><trkpt lat="43.5075912" lon="11.4025631"><ele>441.0</ele><time>2026-03-28T10:56:50.95Z</time></trkpt><trkpt lat="43.5077998" lon="11.4026185"><ele>443.0</ele><time>2026-03-28T10:56:51.951Z</time></trkpt><trkpt lat="43.5080177" lon="11.4026677"><ele>445.0</ele><time>2026-03-28T10:56:52.951Z</time></trkpt><trkpt lat="43.5082386" lon="11.4027093"><ele>447.0</ele><time>2026-03-28T10:56:53.951Z</time></trkpt><trkpt lat="43.5084698" lon="11.4027489"><ele>447.0</ele><time>2026-03-28T10:56:54.952Z</time></trkpt><trkpt lat="43.5086989" lon="11.4027936"><ele>447.0</ele><time>2026-03-28T10:56:55.951Z</time></trkpt><trkpt lat="43.5088811" lon="11.4028232"><ele>447.0</ele><time>2026-03-28T10:56:56.951Z</time></trkpt><trkpt lat="43.5090506" lon="11.402851"><ele>450.0</ele><time>2026-03-28T10:56:57.952Z</time></trkpt><trkpt lat="43.509192" lon="11.4028871"><ele>453.0</ele><time>2026-03-28T10:56:58.952Z</time></trkpt><trkpt lat="43.509306" lon="11.4029506"><ele>456.0</ele><time>2026-03-28T10:56:59.951Z</time></trkpt><trkpt lat="43.509392" lon="11.4030387"><ele>459.0</ele><time>2026-03-28T10:57:00.952Z</time></trkpt><trkpt lat="43.5094697" lon="11.4031484"><ele>459.5</ele><time>2026-03-28T10:57:01.952Z</time></trkpt><trkpt lat="43.5095292" lon="11.4032673"><ele>460.0</ele><time>2026-03-28T10:57:02.953Z</time></trkpt><trkpt lat="43.5095844" lon="11.4034098"><ele>460.5</ele><time>2026-03-28T10:57:03.951Z</time></trkpt><trkpt lat="43.5096361" lon="11.4035782"><ele>461.0</ele><time>2026-03-28T10:57:04.951Z</time></trkpt><trkpt lat="43.5096969" lon="11.4037632"><ele>461.66666666666663</ele><time>2026-03-28T10:57:05.951Z</time></trkpt><trkpt lat="43.5097673" lon="11.4039681"><ele>462.33333333333337</ele><time>2026-03-28T10:57:06.951Z</time></trkpt><trkpt lat="43.5098427" lon="11.4041718"><ele>463.0</ele><time>2026-03-28T10:57:07.952Z</time></trkpt><trkpt lat="43.5099056" lon="11.4043972"><ele>463.0</ele><time>2026-03-28T10:57:08.953Z</time></trkpt><trkpt lat="43.5099599" lon="11.4046186"><ele>463.0</ele><time>2026-03-28T10:57:09.953Z</time></trkpt><trkpt lat="43.5099664" lon="11.4048195"><ele>463.0</ele><time>2026-03-28T10:57:10.952Z</time></trkpt><trkpt lat="43.5099886" lon="11.405012"><ele>464.0</ele><time>2026-03-28T10:57:11.95Z</time></trkpt><trkpt lat="43.510008" lon="11.4051941"><ele>464.99999999999994</ele><time>2026-03-28T10:57:12.951Z</time></trkpt><trkpt lat="43.5100508" lon="11.4053263"><ele>465.99999999999994</ele><time>2026-03-28T10:57:13.951Z</time></trkpt><trkpt lat="43.5101143" lon="11.4054474"><ele>467.0</ele><time>2026-03-28T10:57:14.952Z</time></trkpt><trkpt lat="43.5101942" lon="11.4055226"><ele>468.0</ele><time>2026-03-28T10:57:15.951Z</time></trkpt><trkpt lat="43.5103111" lon="11.4055507"><ele>468.0</ele><time>2026-03-28T10:57:16.952Z</time></trkpt><trkpt lat="43.5104423" lon="11.4055839"><ele>468.0</ele><time>2026-03-28T10:57:17.951Z</time></trkpt><trkpt lat="43.5105884" lon="11.4056398"><ele>468.0</ele><time>2026-03-28T10:57:18.951Z</time></trkpt><trkpt lat="43.5107462" lon="11.4056916"><ele>468.0</ele><time>2026-03-28T10:57:19.951Z</time></trkpt><trkpt lat="43.5109102" lon="11.4057361"><ele>468.0</ele><time>2026-03-28T10:57:20.953Z</time></trkpt><trkpt lat="43.5110724" lon="11.4057691"><ele>468.0</ele><time>2026-03-28T10:57:21.953Z</time></trkpt><trkpt lat="43.5112256" lon="11.4057844"><ele>468.0</ele><time>2026-03-28T10:57:22.953Z</time></trkpt><trkpt lat="43.5113568" lon="11.4058186"><ele>470.4</ele><time>2026-03-28T10:57:23.953Z</time></trkpt><trkpt lat="43.5114726" lon="11.4058872"><ele>472.79999999999995</ele><time>2026-03-28T10:57:24.953Z</time></trkpt><trkpt lat="43.5115449" lon="11.4059929"><ele>475.2</ele><time>2026-03-28T10:57:25.952Z</time></trkpt><trkpt lat="43.5115849" lon="11.4061229"><ele>477.6</ele><time>2026-03-28T10:57:26.951Z</time></trkpt><trkpt lat="43.5115838" lon="11.4062793"><ele>480.0</ele><time>2026-03-28T10:57:27.952Z</time></trkpt><trkpt lat="43.5115655" lon="11.4064511"><ele>480.66666666666663</ele><time>2026-03-28T10:57:28.951Z</time></trkpt><trkpt lat="43.5115554" lon="11.4066418"><ele>481.3333333333333</ele><time>2026-03-28T10:57:29.95Z</time></trkpt><trkpt lat="43.5115778" lon="11.4068545"><ele>482.0</ele><time>2026-03-28T10:57:30.952Z</time></trkpt><trkpt lat="43.5116315" lon="11.4070644"><ele>481.3333333333333</ele><time>2026-03-28T10:57:31.952Z</time></trkpt><trkpt lat="43.5117181" lon="11.4072682"><ele>480.66666666666663</ele><time>2026-03-28T10:57:32.951Z</time></trkpt><trkpt lat="43.5118154" lon="11.4074633"><ele>480.0</ele><time>2026-03-28T10:57:33.952Z</time></trkpt><trkpt lat="43.511971" lon="11.4076275"><ele>482.25</ele><time>2026-03-28T10:57:34.952Z</time></trkpt><trkpt lat="43.5121044" lon="11.4077824"><ele>484.5</ele><time>2026-03-28T10:57:35.951Z</time></trkpt><trkpt lat="43.5122173" lon="11.4079148"><ele>486.75</ele><time>2026-03-28T10:57:36.951Z</time></trkpt><trkpt lat="43.5123082" lon="11.4080075"><ele>489.0</ele><time>2026-03-28T10:57:37.951Z</time></trkpt><trkpt lat="43.5123934" lon="11.4080558"><ele>489.0</ele><time>2026-03-28T10:57:38.952Z</time></trkpt><trkpt lat="43.5124714" lon="11.4080452"><ele>489.0</ele><time>2026-03-28T10:57:39.953Z</time></trkpt><trkpt lat="43.512532" lon="11.4079792"><ele>489.0</ele><time>2026-03-28T10:57:40.951Z</time></trkpt><trkpt lat="43.5125647" lon="11.407876"><ele>489.0</ele><time>2026-03-28T10:57:41.951Z</time></trkpt><trkpt lat="43.5125577" lon="11.407746"><ele>489.0</ele><time>2026-03-28T10:57:42.952Z</time></trkpt><trkpt lat="43.5125389" lon="11.4075912"><ele>489.0</ele><time>2026-03-28T10:57:43.953Z</time></trkpt><trkpt lat="43.5125331" lon="11.407423"><ele>490.6</ele><time>2026-03-28T10:57:44.952Z</time></trkpt><trkpt lat="43.5125492" lon="11.4072797"><ele>492.2</ele><time>2026-03-28T10:57:45.952Z</time></trkpt><trkpt lat="43.5125925" lon="11.4071712"><ele>493.80000000000007</ele><time>2026-03-28T10:57:46.951Z</time></trkpt><trkpt lat="43.5126653" lon="11.407107"><ele>495.40000000000003</ele><time>2026-03-28T10:57:47.951Z</time></trkpt><trkpt lat="43.5127623" lon="11.4071029"><ele>497.0</ele><time>2026-03-28T10:57:48.952Z</time></trkpt><trkpt lat="43.5128732" lon="11.4071365"><ele>500.25</ele><time>2026-03-28T10:57:49.951Z</time></trkpt><trkpt lat="43.5129928" lon="11.4071769"><ele>503.5</ele><time>2026-03-28T10:57:50.951Z</time></trkpt><trkpt lat="43.5131442" lon="11.4072325"><ele>506.75</ele><time>2026-03-28T10:57:51.951Z</time></trkpt><trkpt lat="43.5132911" lon="11.4072853"><ele>510.0</ele><time>2026-03-28T10:57:52.95Z</time></trkpt><trkpt lat="43.5134167" lon="11.4073272"><ele>510.0</ele><time>2026-03-28T10:57:53.951Z</time></trkpt><trkpt lat="43.5135438" lon="11.4073508"><ele>510.0</ele><time>2026-03-28T10:57:54.951Z</time></trkpt><trkpt lat="43.5136758" lon="11.4073454"><ele>510.0</ele><time>2026-03-28T10:57:55.951Z</time></trkpt><trkpt lat="43.5138153" lon="11.4073266"><ele>510.0</ele><time>2026-03-28T10:57:56.953Z</time></trkpt><trkpt lat="43.513962" lon="11.4072975"><ele>512.3333333333334</ele><time>2026-03-28T10:57:57.952Z</time></trkpt><trkpt lat="43.5141231" lon="11.407201"><ele>514.6666666666667</ele><time>2026-03-28T10:57:58.952Z</time></trkpt><trkpt lat="43.514274" lon="11.4070758"><ele>517.0</ele><time>2026-03-28T10:57:59.951Z</time></trkpt><trkpt lat="43.5144213" lon="11.4069221"><ele>520.6666666666667</ele><time>2026-03-28T10:58:00.951Z</time></trkpt><trkpt lat="43.5145714" lon="11.4067637"><ele>524.3333333333334</ele><time>2026-03-28T10:58:01.952Z</time></trkpt><trkpt lat="43.5147219" lon="11.4066035"><ele>528.0</ele><time>2026-03-28T10:58:02.952Z</time></trkpt><trkpt lat="43.514861" lon="11.4064551"><ele>528.0</ele><time>2026-03-28T10:58:03.952Z</time></trkpt><trkpt lat="43.5150067" lon="11.4063551"><ele>528.0</ele><time>2026-03-28T10:58:04.951Z</time></trkpt><trkpt lat="43.5151681" lon="11.4063138"><ele>528.0</ele><time>2026-03-28T10:58:05.951Z</time></trkpt><trkpt lat="43.5153336" lon="11.4063293"><ele>532.0</ele><time>2026-03-28T10:58:06.953Z</time></trkpt><trkpt lat="43.5155003" lon="11.4063551"><ele>536.0</ele><time>2026-03-28T10:58:07.951Z</time></trkpt><trkpt lat="43.5156434" lon="11.4063732"><ele>540.0</ele><time>2026-03-28T10:58:08.951Z</time></trkpt><trkpt lat="43.5157828" lon="11.4063611"><ele>541.6</ele><time>2026-03-28T10:58:09.952Z</time></trkpt><trkpt lat="43.5158989" lon="11.4062994"><ele>543.2</ele><time>2026-03-28T10:58:10.951Z</time></trkpt><trkpt lat="43.5159932" lon="11.4062042"><ele>544.8</ele><time>2026-03-28T10:58:11.952Z</time></trkpt><trkpt lat="43.5160387" lon="11.4060925"><ele>546.4</ele><time>2026-03-28T10:58:12.952Z</time></trkpt><trkpt lat="43.5160393" lon="11.4059614"><ele>548.0</ele><time>2026-03-28T10:58:13.952Z</time></trkpt><trkpt lat="43.5160202" lon="11.4058092"><ele>548.0</ele><time>2026-03-28T10:58:14.953Z</time></trkpt><trkpt lat="43.5160115" lon="11.4056722"><ele>548.0</ele><time>2026-03-28T10:58:15.952Z</time></trkpt><trkpt lat="43.5160743" lon="11.4055903"><ele>548.0</ele><time>2026-03-28T10:58:16.951Z</time></trkpt><trkpt lat="43.5161462" lon="11.4055451"><ele>548.0</ele><time>2026-03-28T10:58:17.951Z</time></trkpt><trkpt lat="43.5162442" lon="11.4055476"><ele>548.0</ele><time>2026-03-28T10:58:18.951Z</time></trkpt><trkpt lat="43.5163532" lon="11.4055856"><ele>550.5</ele><time>2026-03-28T10:58:19.951Z</time></trkpt><trkpt lat="43.5164738" lon="11.4056281"><ele>553.0</ele><time>2026-03-28T10:58:20.952Z</time></trkpt><trkpt lat="43.5166206" lon="11.40563"><ele>555.5</ele><time>2026-03-28T10:58:21.951Z</time></trkpt><trkpt lat="43.5167358" lon="11.4055778"><ele>558.0</ele><time>2026-03-28T10:58:22.952Z</time></trkpt><trkpt lat="43.51685" lon="11.4055186"><ele>559.6</ele><time>2026-03-28T10:58:23.953Z</time></trkpt><trkpt lat="43.516879" lon="11.4053775"><ele>561.1999999999999</ele><time>2026-03-28T10:58:24.952Z</time></trkpt><trkpt lat="43.5169085" lon="11.4052477"><ele>562.8</ele><time>2026-03-28T10:58:25.952Z</time></trkpt><trkpt lat="43.5168821" lon="11.4051013"><ele>564.4</ele><time>2026-03-28T10:58:26.951Z</time></trkpt><trkpt lat="43.5168374" lon="11.4049742"><ele>566.0</ele><time>2026-03-28T10:58:27.95Z</time></trkpt><trkpt lat="43.5168509" lon="11.4048449"><ele>566.0</ele><time>2026-03-28T10:58:28.953Z</time></trkpt><trkpt lat="43.5169034" lon="11.4047347"><ele>566.0</ele><time>2026-03-28T10:58:29.953Z</time></trkpt><trkpt lat="43.5169973" lon="11.4046437"><ele>566.0</ele><time>2026-03-28T10:58:30.952Z</time></trkpt><trkpt lat="43.5171104" lon="11.4045711"><ele>566.0</ele><time>2026-03-28T10:58:31.951Z</time></trkpt><trkpt lat="43.5172439" lon="11.4044932"><ele>570.6666666666666</ele><time>2026-03-28T10:58:32.952Z</time></trkpt><trkpt lat="43.5173915" lon="11.4044074"><ele>575.3333333333334</ele><time>2026-03-28T10:58:33.952Z</time></trkpt><trkpt lat="43.5175565" lon="11.404317"><ele>580.0</ele><time>2026-03-28T10:58:34.952Z</time></trkpt><trkpt lat="43.517736" lon="11.4042394"><ele>584.3333333333334</ele><time>2026-03-28T10:58:35.951Z</time></trkpt><trkpt lat="43.5179172" lon="11.4041778"><ele>588.6666666666666</ele><time>2026-03-28T10:58:36.952Z</time></trkpt><trkpt lat="43.5181186" lon="11.4041328"><ele>593.0</ele><time>2026-03-28T10:58:37.951Z</time></trkpt><trkpt lat="43.5183173" lon="11.4040693"><ele>593.0</ele><time>2026-03-28T10:58:38.951Z</time></trkpt><trkpt lat="43.5185129" lon="11.4039956"><ele>593.0</ele><time>2026-03-28T10:58:39.952Z</time></trkpt><trkpt lat="43.5187059" lon="11.403923"><ele>593.0</ele><time>2026-03-28T10:58:40.951Z</time></trkpt><trkpt lat="43.5189001" lon="11.4038663"><ele>599.3333333333333</ele><time>2026-03-28T10:58:41.952Z</time></trkpt><trkpt lat="43.5190998" lon="11.4038283"><ele>605.6666666666666</ele><time>2026-03-28T10:58:42.951Z</time></trkpt><trkpt lat="43.5193033" lon="11.4037975"><ele>612.0</ele><time>2026-03-28T10:58:43.951Z</time></trkpt><trkpt lat="43.5195133" lon="11.4038095"><ele>612.0</ele><time>2026-03-28T10:58:44.952Z</time></trkpt><trkpt lat="43.5197236" lon="11.4038462"><ele>612.0</ele><time>2026-03-28T10:58:45.951Z</time></trkpt><trkpt lat="43.5199412" lon="11.4039092"><ele>612.0</ele><time>2026-03-28T10:58:46.953Z</time></trkpt><trkpt lat="43.5201611" lon="11.4039864"><ele>612.0</ele><time>2026-03-28T10:58:47.952Z</time></trkpt><trkpt lat="43.5203857" lon="11.4040727"><ele>612.0</ele><time>2026-03-28T10:58:48.951Z</time></trkpt><trkpt lat="43.5206087" lon="11.4041602"><ele>617.5</ele><time>2026-03-28T10:58:49.951Z</time></trkpt><trkpt lat="43.5208391" lon="11.404248"><ele>623.0</ele><time>2026-03-28T10:58:50.952Z</time></trkpt><trkpt lat="43.521077" lon="11.4043128"><ele>629.0</ele><time>2026-03-28T10:58:51.953Z</time></trkpt><trkpt lat="43.521318" lon="11.4043593"><ele>635.0</ele><time>2026-03-28T10:58:52.952Z</time></trkpt><trkpt lat="43.5215572" lon="11.4043915"><ele>635.0</ele><time>2026-03-28T10:58:53.95Z</time></trkpt><trkpt lat="43.5217854" lon="11.4044155"><ele>635.0</ele><time>2026-03-28T10:58:54.951Z</time></trkpt><trkpt lat="43.5219914" lon="11.4044548"><ele>635.0</ele><time>2026-03-28T10:58:55.951Z</time></trkpt><trkpt lat="43.522182" lon="11.4045232"><ele>636.6666666666666</ele><time>2026-03-28T10:58:56.952Z</time></trkpt><trkpt lat="43.5223588" lon="11.4046345"><ele>638.3333333333334</ele><time>2026-03-28T10:58:57.952Z</time></trkpt><trkpt lat="43.5225047" lon="11.4047726"><ele>640.0</ele><time>2026-03-28T10:58:58.952Z</time></trkpt><trkpt lat="43.522624" lon="11.4049298"><ele>640.0</ele><time>2026-03-28T10:58:59.952Z</time></trkpt><trkpt lat="43.5227576" lon="11.4050613"><ele>640.0</ele><time>2026-03-28T10:59:00.952Z</time></trkpt><trkpt lat="43.5229072" lon="11.4051435"><ele>640.0</ele><time>2026-03-28T10:59:01.951Z</time></trkpt><trkpt lat="43.5230775" lon="11.4051917"><ele>639.6666666666667</ele><time>2026-03-28T10:59:02.952Z</time></trkpt><trkpt lat="43.5232575" lon="11.405263"><ele>639.3333333333334</ele><time>2026-03-28T10:59:03.951Z</time></trkpt><trkpt lat="43.5234463" lon="11.4053638"><ele>639.0</ele><time>2026-03-28T10:59:04.951Z</time></trkpt><trkpt lat="43.5236303" lon="11.4055155"><ele>643.0</ele><time>2026-03-28T10:59:05.951Z</time></trkpt><trkpt lat="43.5238015" lon="11.4057064"><ele>647.0</ele><time>2026-03-28T10:59:06.952Z</time></trkpt><trkpt lat="43.5239685" lon="11.405921"><ele>651.0</ele><time>2026-03-28T10:59:07.951Z</time></trkpt><trkpt lat="43.5241307" lon="11.4061408"><ele>650.3333333333334</ele><time>2026-03-28T10:59:08.951Z</time></trkpt><trkpt lat="43.5242993" lon="11.4063494"><ele>649.6666666666667</ele><time>2026-03-28T10:59:09.952Z</time></trkpt><trkpt lat="43.5244778" lon="11.4065334"><ele>649.0</ele><time>2026-03-28T10:59:10.952Z</time></trkpt><trkpt lat="43.5246712" lon="11.4067032"><ele>652.6666666666667</ele><time>2026-03-28T10:59:11.951Z</time></trkpt><trkpt lat="43.5248544" lon="11.4068681"><ele>656.3333333333334</ele><time>2026-03-28T10:59:12.952Z</time></trkpt><trkpt lat="43.5250278" lon="11.4070353"><ele>660.0</ele><time>2026-03-28T10:59:13.953Z</time></trkpt><trkpt lat="43.5251722" lon="11.4072384"><ele>660.0</ele><time>2026-03-28T10:59:14.951Z</time></trkpt><trkpt lat="43.5252493" lon="11.4075115"><ele>660.0</ele><time>2026-03-28T10:59:15.951Z</time></trkpt><trkpt lat="43.5253197" lon="11.4077461"><ele>660.0</ele><time>2026-03-28T10:59:16.951Z</time></trkpt><trkpt lat="43.5253916" lon="11.4079669"><ele>661.6666666666666</ele><time>2026-03-28T10:59:17.951Z</time></trkpt><trkpt lat="43.5254803" lon="11.4081825"><ele>663.3333333333333</ele><time>2026-03-28T10:59:18.95Z</time></trkpt><trkpt lat="43.5256007" lon="11.4083929"><ele>665.0</ele><time>2026-03-28T10:59:19.952Z</time></trkpt><trkpt lat="43.5257429" lon="11.4085924"><ele>665.0</ele><time>2026-03-28T10:59:20.951Z</time></trkpt><trkpt lat="43.5258913" lon="11.4087937"><ele>665.0</ele><time>2026-03-28T10:59:21.95Z</time></trkpt><trkpt lat="43.5260257" lon="11.409016"><ele>665.0</ele><time>2026-03-28T10:59:22.952Z</time></trkpt><trkpt lat="43.5261048" lon="11.4092893"><ele>664.6666666666666</ele><time>2026-03-28T10:59:23.951Z</time></trkpt><trkpt lat="43.5262045" lon="11.4095632"><ele>664.3333333333334</ele><time>2026-03-28T10:59:24.951Z</time></trkpt><trkpt lat="43.5263047" lon="11.4098365"><ele>664.0</ele><time>2026-03-28T10:59:25.95Z</time></trkpt><trkpt lat="43.5264098" lon="11.4100614"><ele>667.3333333333334</ele><time>2026-03-28T10:59:26.952Z</time></trkpt><trkpt lat="43.5265027" lon="11.4102797"><ele>670.6666666666666</ele><time>2026-03-28T10:59:27.951Z</time></trkpt><trkpt lat="43.5266013" lon="11.410457"><ele>674.0</ele><time>2026-03-28T10:59:28.951Z</time></trkpt><trkpt lat="43.5267194" lon="11.4105865"><ele>674.0</ele><time>2026-03-28T10:59:29.951Z</time></trkpt><trkpt lat="43.526853" lon="11.4107114"><ele>674.0</ele><time>2026-03-28T10:59:30.953Z</time></trkpt><trkpt lat="43.527026" lon="11.4108276"><ele>674.0</ele><time>2026-03-28T10:59:31.953Z</time></trkpt><trkpt lat="43.5271781" lon="11.410974"><ele>674.0</ele><time>2026-03-28T10:59:32.952Z</time></trkpt><trkpt lat="43.5273012" lon="11.4111416"><ele>674.0</ele><time>2026-03-28T10:59:33.952Z</time></trkpt><trkpt lat="43.5274077" lon="11.4112971"><ele>674.0</ele><time>2026-03-28T10:59:34.953Z</time></trkpt><trkpt lat="43.527519" lon="11.4113958"><ele>675.75</ele><time>2026-03-28T10:59:35.952Z</time></trkpt><trkpt lat="43.5276498" lon="11.4114254"><ele>677.5</ele><time>2026-03-28T10:59:36.952Z</time></trkpt><trkpt lat="43.5277956" lon="11.4114021"><ele>679.25</ele><time>2026-03-28T10:59:37.952Z</time></trkpt><trkpt lat="43.5279504" lon="11.4113407"><ele>681.0</ele><time>2026-03-28T10:59:38.952Z</time></trkpt><trkpt lat="43.5281229" lon="11.411304"><ele>681.0</ele><time>2026-03-28T10:59:39.951Z</time></trkpt><trkpt lat="43.5283015" lon="11.4112922"><ele>681.0</ele><time>2026-03-28T10:59:40.952Z</time></trkpt><trkpt lat="43.5284815" lon="11.4112935"><ele>681.0</ele><time>2026-03-28T10:59:41.952Z</time></trkpt><trkpt lat="43.5286404" lon="11.4113255"><ele>684.25</ele><time>2026-03-28T10:59:42.952Z</time></trkpt><trkpt lat="43.5287904" lon="11.4113757"><ele>687.5</ele><time>2026-03-28T10:59:43.951Z</time></trkpt><trkpt lat="43.5289131" lon="11.4114701"><ele>690.75</ele><time>2026-03-28T10:59:44.952Z</time></trkpt><trkpt lat="43.5289612" lon="11.4116674"><ele>694.0</ele><time>2026-03-28T10:59:45.951Z</time></trkpt><trkpt lat="43.5290344" lon="11.411849"><ele>694.0</ele><time>2026-03-28T10:59:46.95Z</time></trkpt><trkpt lat="43.529101" lon="11.412026"><ele>694.0</ele><time>2026-03-28T10:59:47.953Z</time></trkpt><trkpt lat="43.5291911" lon="11.412173"><ele>694.0</ele><time>2026-03-28T10:59:48.952Z</time></trkpt><trkpt lat="43.5292954" lon="11.4122701"><ele>694.0</ele><time>2026-03-28T10:59:49.951Z</time></trkpt><trkpt lat="43.5294143" lon="11.4123027"><ele>696.75</ele><time>2026-03-28T10:59:50.952Z</time></trkpt><trkpt lat="43.5295347" lon="11.4122749"><ele>699.5</ele><time>2026-03-28T10:59:51.952Z</time></trkpt><trkpt lat="43.5296631" lon="11.4122484"><ele>702.25</ele><time>2026-03-28T10:59:52.951Z</time></trkpt><trkpt lat="43.5297851" lon="11.4122741"><ele>705.0</ele><time>2026-03-28T10:59:53.951Z</time></trkpt><trkpt lat="43.5299138" lon="11.4123616"><ele>705.0</ele><time>2026-03-28T10:59:54.951Z</time></trkpt><trkpt lat="43.5300472" lon="11.4124865"><ele>705.0</ele><time>2026-03-28T10:59:55.951Z</time></trkpt><trkpt lat="43.530183" lon="11.4126106"><ele>705.0</ele><time>2026-03-28T10:59:56.951Z</time></trkpt><trkpt lat="43.5303387" lon="11.4126894"><ele>704.3333333333334</ele><time>2026-03-28T10:59:57.952Z</time></trkpt><trkpt lat="43.5304905" lon="11.4127464"><ele>703.6666666666667</ele><time>2026-03-28T10:59:58.951Z</time></trkpt><trkpt lat="43.5306531" lon="11.4127368"><ele>703.0</ele><time>2026-03-28T10:59:59.951Z</time></trkpt><trkpt lat="43.5308068" lon="11.4126633"><ele>703.0</ele><time>2026-03-28T11:00:00.952Z</time></trkpt><trkpt lat="43.530958" lon="11.4125351"><ele>703.0</ele><time>2026-03-28T11:00:01.952Z</time></trkpt><trkpt lat="43.5311058" lon="11.4123876"><ele>703.0</ele><time>2026-03-28T11:00:02.952Z</time></trkpt><trkpt lat="43.5312603" lon="11.4122254"><ele>703.0</ele><time>2026-03-28T11:00:03.952Z</time></trkpt><trkpt lat="43.5314168" lon="11.4120468"><ele>703.0</ele><time>2026-03-28T11:00:04.951Z</time></trkpt><trkpt lat="43.5315729" lon="11.4118422"><ele>703.0</ele><time>2026-03-28T11:00:05.951Z</time></trkpt><trkpt lat="43.5317363" lon="11.4116372"><ele>703.0</ele><time>2026-03-28T11:00:06.952Z</time></trkpt><trkpt lat="43.5319362" lon="11.4114655"><ele>703.0</ele><time>2026-03-28T11:00:07.952Z</time></trkpt><trkpt lat="43.5321278" lon="11.4112971"><ele>703.6666666666667</ele><time>2026-03-28T11:00:08.951Z</time></trkpt><trkpt lat="43.5323086" lon="11.4111595"><ele>704.3333333333334</ele><time>2026-03-28T11:00:09.951Z</time></trkpt><trkpt lat="43.532471" lon="11.4110358"><ele>705.0</ele><time>2026-03-28T11:00:10.951Z</time></trkpt><trkpt lat="43.532618" lon="11.4109412"><ele>705.0</ele><time>2026-03-28T11:00:11.951Z</time></trkpt><trkpt lat="43.5327678" lon="11.4108944"><ele>705.0</ele><time>2026-03-28T11:00:12.951Z</time></trkpt><trkpt lat="43.5329343" lon="11.4108929"><ele>705.0</ele><time>2026-03-28T11:00:13.952Z</time></trkpt><trkpt lat="43.5331265" lon="11.4109477"><ele>704.0</ele><time>2026-03-28T11:00:14.952Z</time></trkpt><trkpt lat="43.5333293" lon="11.4110246"><ele>703.0</ele><time>2026-03-28T11:00:15.952Z</time></trkpt><trkpt lat="43.5335376" lon="11.4111024"><ele>702.0</ele><time>2026-03-28T11:00:16.951Z</time></trkpt><trkpt lat="43.5337381" lon="11.4111896"><ele>700.0</ele><time>2026-03-28T11:00:17.951Z</time></trkpt><trkpt lat="43.5339223" lon="11.4112741"><ele>698.0</ele><time>2026-03-28T11:00:18.951Z</time></trkpt><trkpt lat="43.5340747" lon="11.4113649"><ele>696.0</ele><time>2026-03-28T11:00:19.952Z</time></trkpt><trkpt lat="43.5342042" lon="11.4114768"><ele>698.25</ele><time>2026-03-28T11:00:20.952Z</time></trkpt><trkpt lat="43.5343276" lon="11.4115814"><ele>700.5</ele><time>2026-03-28T11:00:21.951Z</time></trkpt><trkpt lat="43.5344616" lon="11.4116395"><ele>702.75</ele><time>2026-03-28T11:00:22.952Z</time></trkpt><trkpt lat="43.5346074" lon="11.4116384"><ele>705.0</ele><time>2026-03-28T11:00:23.952Z</time></trkpt><trkpt lat="43.5347622" lon="11.411582"><ele>705.0</ele><time>2026-03-28T11:00:24.951Z</time></trkpt><trkpt lat="43.5349139" lon="11.4114642"><ele>705.0</ele><time>2026-03-28T11:00:25.952Z</time></trkpt><trkpt lat="43.5350787" lon="11.4113474"><ele>705.0</ele><time>2026-03-28T11:00:26.951Z</time></trkpt><trkpt lat="43.5352568" lon="11.4112527"><ele>703.6666666666666</ele><time>2026-03-28T11:00:27.952Z</time></trkpt><trkpt lat="43.5354543" lon="11.4111785"><ele>702.3333333333333</ele><time>2026-03-28T11:00:28.952Z</time></trkpt><trkpt lat="43.5356601" lon="11.4111089"><ele>701.0</ele><time>2026-03-28T11:00:29.952Z</time></trkpt><trkpt lat="43.5358732" lon="11.4110359"><ele>701.0</ele><time>2026-03-28T11:00:30.953Z</time></trkpt><trkpt lat="43.5360665" lon="11.4109629"><ele>701.0</ele><time>2026-03-28T11:00:31.951Z</time></trkpt><trkpt lat="43.5362339" lon="11.4109022"><ele>701.0</ele><time>2026-03-28T11:00:32.952Z</time></trkpt><trkpt lat="43.5363835" lon="11.410871"><ele>702.25</ele><time>2026-03-28T11:00:33.951Z</time></trkpt><trkpt lat="43.5365266" lon="11.4108855"><ele>703.5</ele><time>2026-03-28T11:00:34.952Z</time></trkpt><trkpt lat="43.5366677" lon="11.4109239"><ele>704.75</ele><time>2026-03-28T11:00:35.953Z</time></trkpt><trkpt lat="43.5368176" lon="11.4109784"><ele>706.0</ele><time>2026-03-28T11:00:36.953Z</time></trkpt><trkpt lat="43.5369748" lon="11.4110256"><ele>709.0</ele><time>2026-03-28T11:00:37.952Z</time></trkpt><trkpt lat="43.5371421" lon="11.4110401"><ele>712.0</ele><time>2026-03-28T11:00:38.952Z</time></trkpt><trkpt lat="43.5373189" lon="11.4110179"><ele>715.0</ele><time>2026-03-28T11:00:39.952Z</time></trkpt><trkpt lat="43.5375044" lon="11.4109506"><ele>715.0</ele><time>2026-03-28T11:00:40.952Z</time></trkpt><trkpt lat="43.5376799" lon="11.4108587"><ele>715.0</ele><time>2026-03-28T11:00:41.952Z</time></trkpt><trkpt lat="43.537845" lon="11.4107676"><ele>715.0</ele><time>2026-03-28T11:00:42.952Z</time></trkpt><trkpt lat="43.5379777" lon="11.4106672"><ele>716.4</ele><time>2026-03-28T11:00:43.952Z</time></trkpt><trkpt lat="43.5380845" lon="11.4105607"><ele>717.8</ele><time>2026-03-28T11:00:44.953Z</time></trkpt><trkpt lat="43.5381677" lon="11.4104714"><ele>719.2</ele><time>2026-03-28T11:00:45.951Z</time></trkpt><trkpt lat="43.5382378" lon="11.4103892"><ele>720.6</ele><time>2026-03-28T11:00:46.951Z</time></trkpt><trkpt lat="43.5382917" lon="11.4103049"><ele>722.0</ele><time>2026-03-28T11:00:47.951Z</time></trkpt><trkpt lat="43.5383481" lon="11.4102133"><ele>722.0</ele><time>2026-03-28T11:00:48.952Z</time></trkpt><trkpt lat="43.5384029" lon="11.4101093"><ele>722.0</ele><time>2026-03-28T11:00:49.951Z</time></trkpt><trkpt lat="43.5384547" lon="11.4099901"><ele>722.0</ele><time>2026-03-28T11:00:50.952Z</time></trkpt><trkpt lat="43.538503" lon="11.4098563"><ele>722.0</ele><time>2026-03-28T11:00:51.952Z</time></trkpt><trkpt lat="43.5385613" lon="11.4096987"><ele>722.0</ele><time>2026-03-28T11:00:52.953Z</time></trkpt><trkpt lat="43.53864" lon="11.4095155"><ele>716.6666666666666</ele><time>2026-03-28T11:00:53.952Z</time></trkpt><trkpt lat="43.5387231" lon="11.4093302"><ele>711.3333333333334</ele><time>2026-03-28T11:00:54.953Z</time></trkpt><trkpt lat="43.5388042" lon="11.4091291"><ele>706.0</ele><time>2026-03-28T11:00:55.952Z</time></trkpt><trkpt lat="43.5388897" lon="11.4089252"><ele>706.3333333333334</ele><time>2026-03-28T11:00:56.952Z</time></trkpt><trkpt lat="43.5389843" lon="11.4087407"><ele>706.6666666666666</ele><time>2026-03-28T11:00:57.952Z</time></trkpt><trkpt lat="43.5391024" lon="11.4085956"><ele>707.0</ele><time>2026-03-28T11:00:58.952Z</time></trkpt><trkpt lat="43.5392542" lon="11.4084931"><ele>707.0</ele><time>2026-03-28T11:00:59.953Z</time></trkpt><trkpt lat="43.5394312" lon="11.4084387"><ele>707.0</ele><time>2026-03-28T11:01:00.952Z</time></trkpt><trkpt lat="43.5396329" lon="11.4084265"><ele>707.0</ele><time>2026-03-28T11:01:01.951Z</time></trkpt><trkpt lat="43.5398542" lon="11.4084266"><ele>703.0</ele><time>2026-03-28T11:01:02.952Z</time></trkpt><trkpt lat="43.5400958" lon="11.408425"><ele>699.0</ele><time>2026-03-28T11:01:03.951Z</time></trkpt><trkpt lat="43.5403529" lon="11.4084238"><ele>694.5</ele><time>2026-03-28T11:01:04.951Z</time></trkpt><trkpt lat="43.5406193" lon="11.4084309"><ele>690.0</ele><time>2026-03-28T11:01:05.952Z</time></trkpt><trkpt lat="43.5408747" lon="11.4084356"><ele>690.0</ele><time>2026-03-28T11:01:06.952Z</time></trkpt><trkpt lat="43.5411207" lon="11.4084401"><ele>690.0</ele><time>2026-03-28T11:01:07.95Z</time></trkpt><trkpt lat="43.5413567" lon="11.4084451"><ele>685.3333333333334</ele><time>2026-03-28T11:01:08.95Z</time></trkpt><trkpt lat="43.5415776" lon="11.4084444"><ele>680.6666666666667</ele><time>2026-03-28T11:01:09.952Z</time></trkpt><trkpt lat="43.5417867" lon="11.408449"><ele>676.0</ele><time>2026-03-28T11:01:10.952Z</time></trkpt><trkpt lat="43.5419905" lon="11.4084536"><ele>675.3333333333334</ele><time>2026-03-28T11:01:11.951Z</time></trkpt><trkpt lat="43.5421774" lon="11.408457"><ele>674.6666666666666</ele><time>2026-03-28T11:01:12.951Z</time></trkpt><trkpt lat="43.5423513" lon="11.4084594"><ele>674.0</ele><time>2026-03-28T11:01:13.951Z</time></trkpt><trkpt lat="43.5425148" lon="11.4084564"><ele>674.0</ele><time>2026-03-28T11:01:14.953Z</time></trkpt><trkpt lat="43.5426584" lon="11.408445"><ele>674.0</ele><time>2026-03-28T11:01:15.951Z</time></trkpt><trkpt lat="43.5427879" lon="11.4084236"><ele>674.0</ele><time>2026-03-28T11:01:16.952Z</time></trkpt><trkpt lat="43.5429099" lon="11.4083931"><ele>674.0</ele><time>2026-03-28T11:01:17.951Z</time></trkpt><trkpt lat="43.5430266" lon="11.4083551"><ele>676.25</ele><time>2026-03-28T11:01:18.953Z</time></trkpt><trkpt lat="43.5431435" lon="11.408298"><ele>678.5</ele><time>2026-03-28T11:01:19.952Z</time></trkpt><trkpt lat="43.543263" lon="11.4082293"><ele>680.75</ele><time>2026-03-28T11:01:20.952Z</time></trkpt><trkpt lat="43.5433873" lon="11.4081578"><ele>683.0</ele><time>2026-03-28T11:01:21.951Z</time></trkpt><trkpt lat="43.5435204" lon="11.4080831"><ele>683.0</ele><time>2026-03-28T11:01:22.952Z</time></trkpt><trkpt lat="43.5436618" lon="11.4079994"><ele>683.0</ele><time>2026-03-28T11:01:23.952Z</time></trkpt><trkpt lat="43.5438078" lon="11.4079148"><ele>683.0</ele><time>2026-03-28T11:01:24.951Z</time></trkpt><trkpt lat="43.5439611" lon="11.407828"><ele>686.6666666666666</ele><time>2026-03-28T11:01:25.952Z</time></trkpt><trkpt lat="43.5441201" lon="11.4077378"><ele>690.3333333333334</ele><time>2026-03-28T11:01:26.952Z</time></trkpt><trkpt lat="43.5442849" lon="11.4076444"><ele>694.0</ele><time>2026-03-28T11:01:27.95Z</time></trkpt><trkpt lat="43.5444482" lon="11.4075478"><ele>694.3333333333334</ele><time>2026-03-28T11:01:28.952Z</time></trkpt><trkpt lat="43.5446101" lon="11.4074538"><ele>694.6666666666666</ele><time>2026-03-28T11:01:29.953Z</time></trkpt><trkpt lat="43.5447797" lon="11.4073618"><ele>695.0</ele><time>2026-03-28T11:01:30.953Z</time></trkpt><trkpt lat="43.5449604" lon="11.4072624"><ele>694.0</ele><time>2026-03-28T11:01:31.952Z</time></trkpt><trkpt lat="43.5451493" lon="11.4071564"><ele>693.0</ele><time>2026-03-28T11:01:32.951Z</time></trkpt><trkpt lat="43.5453502" lon="11.4070394"><ele>692.0</ele><time>2026-03-28T11:01:33.951Z</time></trkpt><trkpt lat="43.5455497" lon="11.4069021"><ele>692.0</ele><time>2026-03-28T11:01:34.952Z</time></trkpt><trkpt lat="43.5457403" lon="11.4067221"><ele>692.0</ele><time>2026-03-28T11:01:35.952Z</time></trkpt><trkpt lat="43.5459138" lon="11.4065187"><ele>691.5</ele><time>2026-03-28T11:01:36.953Z</time></trkpt><trkpt lat="43.5460715" lon="11.4062898"><ele>691.0</ele><time>2026-03-28T11:01:37.951Z</time></trkpt><trkpt lat="43.5462126" lon="11.4060371"><ele>699.5</ele><time>2026-03-28T11:01:38.951Z</time></trkpt><trkpt lat="43.5463369" lon="11.4057755"><ele>708.0</ele><time>2026-03-28T11:01:39.951Z</time></trkpt><trkpt lat="43.5464594" lon="11.4055106"><ele>707.0</ele><time>2026-03-28T11:01:40.951Z</time></trkpt><trkpt lat="43.5465768" lon="11.4052454"><ele>706.0</ele><time>2026-03-28T11:01:41.951Z</time></trkpt><trkpt lat="43.5466933" lon="11.4049816"><ele>705.0</ele><time>2026-03-28T11:01:42.952Z</time></trkpt><trkpt lat="43.5468084" lon="11.4047219"><ele>702.6666666666666</ele><time>2026-03-28T11:01:43.951Z</time></trkpt><trkpt lat="43.5469196" lon="11.4044653"><ele>700.3333333333333</ele><time>2026-03-28T11:01:44.952Z</time></trkpt><trkpt lat="43.5470227" lon="11.4042305"><ele>698.0</ele><time>2026-03-28T11:01:45.952Z</time></trkpt><trkpt lat="43.5471176" lon="11.4040157"><ele>698.3333333333333</ele><time>2026-03-28T11:01:46.951Z</time></trkpt><trkpt lat="43.5472308" lon="11.4038362"><ele>698.6666666666666</ele><time>2026-03-28T11:01:47.952Z</time></trkpt><trkpt lat="43.5473726" lon="11.4036949"><ele>699.0</ele><time>2026-03-28T11:01:48.953Z</time></trkpt><trkpt lat="43.5475419" lon="11.403587"><ele>699.0</ele><time>2026-03-28T11:01:49.953Z</time></trkpt><trkpt lat="43.5477169" lon="11.4035002"><ele>699.0</ele><time>2026-03-28T11:01:50.952Z</time></trkpt><trkpt lat="43.5478799" lon="11.4034088"><ele>699.0</ele><time>2026-03-28T11:01:51.952Z</time></trkpt><trkpt lat="43.5480232" lon="11.4033258"><ele>700.5</ele><time>2026-03-28T11:01:52.953Z</time></trkpt><trkpt lat="43.5481427" lon="11.4032212"><ele>702.0</ele><time>2026-03-28T11:01:53.951Z</time></trkpt><trkpt lat="43.548232" lon="11.4030836"><ele>703.5</ele><time>2026-03-28T11:01:54.951Z</time></trkpt><trkpt lat="43.5482805" lon="11.4029223"><ele>705.0</ele><time>2026-03-28T11:01:55.952Z</time></trkpt><trkpt lat="43.548285" lon="11.4027385"><ele>705.0</ele><time>2026-03-28T11:01:56.953Z</time></trkpt><trkpt lat="43.5482476" lon="11.4025515"><ele>705.0</ele><time>2026-03-28T11:01:57.953Z</time></trkpt><trkpt lat="43.5481987" lon="11.4023418"><ele>705.0</ele><time>2026-03-28T11:01:58.951Z</time></trkpt><trkpt lat="43.5481763" lon="11.4021114"><ele>706.6666666666666</ele><time>2026-03-28T11:01:59.952Z</time></trkpt><trkpt lat="43.5481821" lon="11.4018605"><ele>708.3333333333333</ele><time>2026-03-28T11:02:00.951Z</time></trkpt><trkpt lat="43.5482043" lon="11.4016117"><ele>710.0</ele><time>2026-03-28T11:02:01.953Z</time></trkpt><trkpt lat="43.5482138" lon="11.4013713"><ele>711.3333333333333</ele><time>2026-03-28T11:02:02.952Z</time></trkpt><trkpt lat="43.5481931" lon="11.4011298"><ele>712.6666666666666</ele><time>2026-03-28T11:02:03.952Z</time></trkpt><trkpt lat="43.5481309" lon="11.4008799"><ele>714.0</ele><time>2026-03-28T11:02:04.953Z</time></trkpt><trkpt lat="43.5480384" lon="11.4006237"><ele>714.0</ele><time>2026-03-28T11:02:05.953Z</time></trkpt><trkpt lat="43.547926" lon="11.4003675"><ele>714.0</ele><time>2026-03-28T11:02:06.952Z</time></trkpt><trkpt lat="43.5478057" lon="11.4000927"><ele>713.0</ele><time>2026-03-28T11:02:07.952Z</time></trkpt><trkpt lat="43.547685" lon="11.3998142"><ele>712.0</ele><time>2026-03-28T11:02:08.952Z</time></trkpt><trkpt lat="43.5475542" lon="11.3995142"><ele>712.0</ele><time>2026-03-28T11:02:09.952Z</time></trkpt><trkpt lat="43.5474316" lon="11.399232"><ele>712.0</ele><time>2026-03-28T11:02:10.951Z</time></trkpt><trkpt lat="43.5473134" lon="11.398969"><ele>712.0</ele><time>2026-03-28T11:02:11.952Z</time></trkpt><trkpt lat="43.5472022" lon="11.3987222"><ele>712.0</ele><time>2026-03-28T11:02:12.952Z</time></trkpt><trkpt lat="43.5470835" lon="11.398509"><ele>712.0</ele><time>2026-03-28T11:02:13.951Z</time></trkpt><trkpt lat="43.5469606" lon="11.398337"><ele>710.75</ele><time>2026-03-28T11:02:14.953Z</time></trkpt><trkpt lat="43.5468488" lon="11.3981808"><ele>709.5</ele><time>2026-03-28T11:02:15.952Z</time></trkpt><trkpt lat="43.5467573" lon="11.3980303"><ele>708.25</ele><time>2026-03-28T11:02:16.951Z</time></trkpt><trkpt lat="43.5467016" lon="11.3978776"><ele>707.0</ele><time>2026-03-28T11:02:17.951Z</time></trkpt><trkpt lat="43.5466942" lon="11.3977304"><ele>707.0</ele><time>2026-03-28T11:02:18.952Z</time></trkpt><trkpt lat="43.5467399" lon="11.3976047"><ele>707.0</ele><time>2026-03-28T11:02:19.952Z</time></trkpt><trkpt lat="43.546826" lon="11.3975171"><ele>707.0</ele><time>2026-03-28T11:02:20.952Z</time></trkpt><trkpt lat="43.5469415" lon="11.3974824"><ele>707.0</ele><time>2026-03-28T11:02:21.951Z</time></trkpt><trkpt lat="43.5470795" lon="11.397485"><ele>711.3333333333333</ele><time>2026-03-28T11:02:22.952Z</time></trkpt><trkpt lat="43.5472271" lon="11.3975108"><ele>715.6666666666666</ele><time>2026-03-28T11:02:23.952Z</time></trkpt><trkpt lat="43.5473991" lon="11.3975617"><ele>720.0</ele><time>2026-03-28T11:02:24.953Z</time></trkpt><trkpt lat="43.5475697" lon="11.3975919"><ele>720.0</ele><time>2026-03-28T11:02:25.952Z</time></trkpt><trkpt lat="43.5477529" lon="11.3976002"><ele>720.0</ele><time>2026-03-28T11:02:26.952Z</time></trkpt><trkpt lat="43.5479451" lon="11.3976008"><ele>720.0</ele><time>2026-03-28T11:02:27.951Z</time></trkpt><trkpt lat="43.5481348" lon="11.3975906"><ele>723.6666666666666</ele><time>2026-03-28T11:02:28.952Z</time></trkpt><trkpt lat="43.5483002" lon="11.397594"><ele>727.3333333333333</ele><time>2026-03-28T11:02:29.951Z</time></trkpt><trkpt lat="43.5484692" lon="11.3976168"><ele>731.0</ele><time>2026-03-28T11:02:30.952Z</time></trkpt><trkpt lat="43.5486311" lon="11.397668"><ele>734.6666666666666</ele><time>2026-03-28T11:02:31.95Z</time></trkpt><trkpt lat="43.5487936" lon="11.3977489"><ele>738.3333333333334</ele><time>2026-03-28T11:02:32.951Z</time></trkpt><trkpt lat="43.5489615" lon="11.3978315"><ele>742.0</ele><time>2026-03-28T11:02:33.953Z</time></trkpt><trkpt lat="43.5491296" lon="11.39792"><ele>742.0</ele><time>2026-03-28T11:02:34.952Z</time></trkpt><trkpt lat="43.5492913" lon="11.3979973"><ele>742.0</ele><time>2026-03-28T11:02:35.952Z</time></trkpt><trkpt lat="43.5494548" lon="11.3980733"><ele>742.0</ele><time>2026-03-28T11:02:36.952Z</time></trkpt><trkpt lat="43.5496027" lon="11.3981431"><ele>742.75</ele><time>2026-03-28T11:02:37.953Z</time></trkpt><trkpt lat="43.5497373" lon="11.3982094"><ele>743.5</ele><time>2026-03-28T11:02:38.952Z</time></trkpt><trkpt lat="43.5498619" lon="11.3982699"><ele>744.25</ele><time>2026-03-28T11:02:39.953Z</time></trkpt><trkpt lat="43.5499737" lon="11.3983275"><ele>745.0</ele><time>2026-03-28T11:02:40.951Z</time></trkpt><trkpt lat="43.5500681" lon="11.3983744"><ele>745.0</ele><time>2026-03-28T11:02:41.951Z</time></trkpt><trkpt lat="43.5501568" lon="11.3984099"><ele>745.0</ele><time>2026-03-28T11:02:42.952Z</time></trkpt><trkpt lat="43.5502362" lon="11.3984216"><ele>745.0</ele><time>2026-03-28T11:02:43.951Z</time></trkpt><trkpt lat="43.5503022" lon="11.398427"><ele>745.0</ele><time>2026-03-28T11:02:44.952Z</time></trkpt><trkpt lat="43.5503873" lon="11.3983701"><ele>745.0</ele><time>2026-03-28T11:02:46.952Z</time></trkpt><trkpt lat="43.5503807" lon="11.3982805"><ele>745.0</ele><time>2026-03-28T11:02:48.953Z</time></trkpt><trkpt lat="43.5502938" lon="11.3982205"><ele>745.0</ele><time>2026-03-28T11:02:50.952Z</time></trkpt><trkpt lat="43.5502304" lon="11.3982058"><ele>745.0</ele><time>2026-03-28T11:02:51.953Z</time></trkpt><trkpt lat="43.5501165" lon="11.3981908"><ele>745.0</ele><time>2026-03-28T11:02:53.952Z</time></trkpt><trkpt lat="43.5500533" lon="11.3981627"><ele>745.0</ele><time>2026-03-28T11:02:54.953Z</time></trkpt><trkpt lat="43.5499967" lon="11.3981243"><ele>745.0</ele><time>2026-03-28T11:02:55.952Z</time></trkpt><trkpt lat="43.5499297" lon="11.3980642"><ele>745.0</ele><time>2026-03-28T11:02:56.952Z</time></trkpt><trkpt lat="43.5498738" lon="11.3980021"><ele>746.2857142857142</ele><time>2026-03-28T11:02:57.952Z</time></trkpt><trkpt lat="43.5498277" lon="11.3979306"><ele>747.5714285714286</ele><time>2026-03-28T11:02:58.953Z</time></trkpt><trkpt lat="43.5497843" lon="11.3978585"><ele>748.8571428571429</ele><time>2026-03-28T11:02:59.953Z</time></trkpt><trkpt lat="43.549752" lon="11.3977779"><ele>750.1428571428571</ele><time>2026-03-28T11:03:00.952Z</time></trkpt><trkpt lat="43.5497308" lon="11.3976763"><ele>751.4285714285714</ele><time>2026-03-28T11:03:01.952Z</time></trkpt><trkpt lat="43.5497151" lon="11.3975758"><ele>752.7142857142857</ele><time>2026-03-28T11:03:02.953Z</time></trkpt><trkpt lat="43.5497094" lon="11.3974678"><ele>754.0</ele><time>2026-03-28T11:03:03.952Z</time></trkpt><trkpt lat="43.5497072" lon="11.3973788"><ele>754.0</ele><time>2026-03-28T11:03:04.951Z</time></trkpt><trkpt lat="43.5497261" lon="11.3972909"><ele>754.0</ele><time>2026-03-28T11:03:05.951Z</time></trkpt><trkpt lat="43.5497666" lon="11.3971178"><ele>754.0</ele><time>2026-03-28T11:03:07.951Z</time></trkpt><trkpt lat="43.5498021" lon="11.3970167"><ele>754.0</ele><time>2026-03-28T11:03:08.951Z</time></trkpt><trkpt lat="43.5498462" lon="11.3969094"><ele>754.0</ele><time>2026-03-28T11:03:09.952Z</time></trkpt><trkpt lat="43.5498869" lon="11.3968071"><ele>755.8333333333334</ele><time>2026-03-28T11:03:10.952Z</time></trkpt><trkpt lat="43.5499415" lon="11.3966507"><ele>757.6666666666667</ele><time>2026-03-28T11:03:12.951Z</time></trkpt><trkpt lat="43.549956" lon="11.3965576"><ele>759.5</ele><time>2026-03-28T11:03:13.952Z</time></trkpt><trkpt lat="43.5499516" lon="11.3964572"><ele>761.3333333333334</ele><time>2026-03-28T11:03:14.953Z</time></trkpt><trkpt lat="43.5499344" lon="11.3963628"><ele>763.1666666666666</ele><time>2026-03-28T11:03:15.952Z</time></trkpt><trkpt lat="43.5499262" lon="11.3962754"><ele>765.0</ele><time>2026-03-28T11:03:16.953Z</time></trkpt><trkpt lat="43.5499986" lon="11.3961872"><ele>765.8333333333334</ele><time>2026-03-28T11:03:18.952Z</time></trkpt><trkpt lat="43.5501046" lon="11.3961161"><ele>766.6666666666667</ele><time>2026-03-28T11:03:20.953Z</time></trkpt><trkpt lat="43.5501591" lon="11.3960469"><ele>767.5</ele><time>2026-03-28T11:03:21.952Z</time></trkpt><trkpt lat="43.5502014" lon="11.3959085"><ele>768.3333333333334</ele><time>2026-03-28T11:03:23.951Z</time></trkpt><trkpt lat="43.5501986" lon="11.3958066"><ele>769.1666666666667</ele><time>2026-03-28T11:03:24.95Z</time></trkpt><trkpt lat="43.5502027" lon="11.3957076"><ele>770.0</ele><time>2026-03-28T11:03:25.952Z</time></trkpt><trkpt lat="43.5502124" lon="11.3955881"><ele>771.5000000000001</ele><time>2026-03-28T11:03:26.952Z</time></trkpt><trkpt lat="43.5502153" lon="11.3954625"><ele>773.0</ele><time>2026-03-28T11:03:27.951Z</time></trkpt><trkpt lat="43.5501844" lon="11.3953334"><ele>774.5</ele><time>2026-03-28T11:03:28.952Z</time></trkpt><trkpt lat="43.550158" lon="11.3952298"><ele>776.0</ele><time>2026-03-28T11:03:29.95Z</time></trkpt><trkpt lat="43.5501573" lon="11.3951305"><ele>777.5000000000001</ele><time>2026-03-28T11:03:30.952Z</time></trkpt><trkpt lat="43.5501636" lon="11.3950426"><ele>779.0</ele><time>2026-03-28T11:03:31.953Z</time></trkpt><trkpt lat="43.5502123" lon="11.3949498"><ele>779.0000000000001</ele><time>2026-03-28T11:03:32.953Z</time></trkpt><trkpt lat="43.5502505" lon="11.3948581"><ele>779.0</ele><time>2026-03-28T11:03:33.953Z</time></trkpt><trkpt lat="43.5502674" lon="11.3947732"><ele>779.0</ele><time>2026-03-28T11:03:34.952Z</time></trkpt><trkpt lat="43.5502751" lon="11.3946268"><ele>779.0</ele><time>2026-03-28T11:03:36.952Z</time></trkpt><trkpt lat="43.5502861" lon="11.3945171"><ele>779.0000000000001</ele><time>2026-03-28T11:03:37.952Z</time></trkpt><trkpt lat="43.5502903" lon="11.3944248"><ele>779.0</ele><time>2026-03-28T11:03:38.951Z</time></trkpt><trkpt lat="43.5503273" lon="11.3942673"><ele>782.6666666666667</ele><time>2026-03-28T11:03:40.952Z</time></trkpt><trkpt lat="43.5503927" lon="11.3941847"><ele>786.3333333333334</ele><time>2026-03-28T11:03:42.952Z</time></trkpt><trkpt lat="43.5504814" lon="11.3942575"><ele>790.0</ele><time>2026-03-28T11:03:44.953Z</time></trkpt><trkpt lat="43.5505234" lon="11.3943418"><ele>793.6666666666667</ele><time>2026-03-28T11:03:45.952Z</time></trkpt><trkpt lat="43.550554" lon="11.3944263"><ele>797.3333333333334</ele><time>2026-03-28T11:03:46.952Z</time></trkpt><trkpt lat="43.5505804" lon="11.3945198"><ele>801.0</ele><time>2026-03-28T11:03:47.951Z</time></trkpt><trkpt lat="43.550602" lon="11.3946118"><ele>800.1666666666666</ele><time>2026-03-28T11:03:48.952Z</time></trkpt><trkpt lat="43.5506036" lon="11.3947159"><ele>799.3333333333333</ele><time>2026-03-28T11:03:49.953Z</time></trkpt><trkpt lat="43.5506056" lon="11.3948191"><ele>798.5</ele><time>2026-03-28T11:03:50.951Z</time></trkpt><trkpt lat="43.5506169" lon="11.3949239"><ele>797.6666666666666</ele><time>2026-03-28T11:03:51.953Z</time></trkpt><trkpt lat="43.550636" lon="11.3950277"><ele>796.8333333333333</ele><time>2026-03-28T11:03:52.952Z</time></trkpt><trkpt lat="43.5506636" lon="11.3951393"><ele>796.0</ele><time>2026-03-28T11:03:53.951Z</time></trkpt><trkpt lat="43.5506981" lon="11.3952418"><ele>795.9999999999999</ele><time>2026-03-28T11:03:54.952Z</time></trkpt><trkpt lat="43.5507422" lon="11.3953213"><ele>796.0</ele><time>2026-03-28T11:03:55.951Z</time></trkpt><trkpt lat="43.5508197" lon="11.3954142"><ele>796.0</ele><time>2026-03-28T11:03:57.953Z</time></trkpt><trkpt lat="43.5509007" lon="11.3954237"><ele>796.0</ele><time>2026-03-28T11:04:46.953Z</time></trkpt><trkpt lat="43.5510002" lon="11.3954161"><ele>795.9999999999999</ele><time>2026-03-28T11:04:48.952Z</time></trkpt><trkpt lat="43.5510691" lon="11.395421"><ele>796.0</ele><time>2026-03-28T11:04:49.952Z</time></trkpt><trkpt lat="43.5511458" lon="11.3954098"><ele>795.3333333333333</ele><time>2026-03-28T11:04:50.953Z</time></trkpt><trkpt lat="43.551229" lon="11.3953787"><ele>794.6666666666666</ele><time>2026-03-28T11:04:51.952Z</time></trkpt><trkpt lat="43.5513174" lon="11.3953447"><ele>794.0</ele><time>2026-03-28T11:04:52.952Z</time></trkpt><trkpt lat="43.5513973" lon="11.3953108"><ele>793.3333333333333</ele><time>2026-03-28T11:04:53.952Z</time></trkpt><trkpt lat="43.551473" lon="11.3952633"><ele>792.6666666666666</ele><time>2026-03-28T11:04:54.951Z</time></trkpt><trkpt lat="43.5515393" lon="11.3952194"><ele>792.0</ele><time>2026-03-28T11:04:55.952Z</time></trkpt><trkpt lat="43.5515658" lon="11.3951142"><ele>792.0</ele><time>2026-03-28T11:04:57.952Z</time></trkpt><trkpt lat="43.5515314" lon="11.3950274"><ele>792.0</ele><time>2026-03-28T11:04:59.952Z</time></trkpt><trkpt lat="43.5514683" lon="11.3949495"><ele>792.0</ele><time>2026-03-28T11:05:01.952Z</time></trkpt><trkpt lat="43.5514035" lon="11.3948196"><ele>792.0</ele><time>2026-03-28T11:05:03.953Z</time></trkpt><trkpt lat="43.5513689" lon="11.3947442"><ele>792.0</ele><time>2026-03-28T11:05:04.952Z</time></trkpt><trkpt lat="43.5512989" lon="11.394603"><ele>792.0</ele><time>2026-03-28T11:05:06.953Z</time></trkpt><trkpt lat="43.5512455" lon="11.3945311"><ele>792.0</ele><time>2026-03-28T11:05:07.952Z</time></trkpt><trkpt lat="43.5511949" lon="11.3944487"><ele>792.0</ele><time>2026-03-28T11:05:08.952Z</time></trkpt><trkpt lat="43.5511314" lon="11.3943348"><ele>792.0</ele><time>2026-03-28T11:05:09.953Z</time></trkpt><trkpt lat="43.5510734" lon="11.3942334"><ele>792.0</ele><time>2026-03-28T11:05:10.952Z</time></trkpt><trkpt lat="43.5510192" lon="11.3941148"><ele>793.8</ele><time>2026-03-28T11:05:11.952Z</time></trkpt><trkpt lat="43.5509645" lon="11.3939821"><ele>795.6</ele><time>2026-03-28T11:05:12.953Z</time></trkpt><trkpt lat="43.5509328" lon="11.3938648"><ele>797.4</ele><time>2026-03-28T11:05:13.953Z</time></trkpt><trkpt lat="43.550905" lon="11.3937561"><ele>799.1999999999999</ele><time>2026-03-28T11:05:14.952Z</time></trkpt><trkpt lat="43.5509562" lon="11.3936047"><ele>801.0</ele><time>2026-03-28T11:05:16.953Z</time></trkpt><trkpt lat="43.5510075" lon="11.3935319"><ele>802.1666666666666</ele><time>2026-03-28T11:05:17.952Z</time></trkpt><trkpt lat="43.551073" lon="11.3934883"><ele>803.3333333333333</ele><time>2026-03-28T11:05:18.952Z</time></trkpt><trkpt lat="43.5511361" lon="11.3934497"><ele>804.5</ele><time>2026-03-28T11:05:19.951Z</time></trkpt><trkpt lat="43.5512026" lon="11.3933668"><ele>805.6666666666666</ele><time>2026-03-28T11:05:21.953Z</time></trkpt><trkpt lat="43.5512435" lon="11.3932621"><ele>806.8333333333333</ele><time>2026-03-28T11:05:23.953Z</time></trkpt><trkpt lat="43.5512652" lon="11.3931564"><ele>808.0</ele><time>2026-03-28T11:05:24.952Z</time></trkpt><trkpt lat="43.5512751" lon="11.3930666"><ele>809.8</ele><time>2026-03-28T11:05:25.953Z</time></trkpt><trkpt lat="43.5511964" lon="11.3929479"><ele>811.5999999999999</ele><time>2026-03-28T11:05:27.953Z</time></trkpt><trkpt lat="43.5510731" lon="11.3929393"><ele>813.4000000000001</ele><time>2026-03-28T11:05:29.953Z</time></trkpt><trkpt lat="43.5510062" lon="11.3929785"><ele>815.2</ele><time>2026-03-28T11:05:30.952Z</time></trkpt><trkpt lat="43.5509421" lon="11.393065"><ele>817.0</ele><time>2026-03-28T11:05:31.953Z</time></trkpt><trkpt lat="43.5508764" lon="11.393132"><ele>817.0</ele><time>2026-03-28T11:05:32.952Z</time></trkpt><trkpt lat="43.5508191" lon="11.3931699"><ele>817.0</ele><time>2026-03-28T11:05:33.953Z</time></trkpt><trkpt lat="43.5506845" lon="11.393128"><ele>817.0</ele><time>2026-03-28T11:05:35.952Z</time></trkpt><trkpt lat="43.5505895" lon="11.393077"><ele>817.0</ele><time>2026-03-28T11:05:36.952Z</time></trkpt><trkpt lat="43.5505209" lon="11.3930139"><ele>817.0</ele><time>2026-03-28T11:05:37.953Z</time></trkpt><trkpt lat="43.5504533" lon="11.3929376"><ele>818.8</ele><time>2026-03-28T11:05:38.953Z</time></trkpt><trkpt lat="43.5503932" lon="11.392862"><ele>820.6</ele><time>2026-03-28T11:05:39.953Z</time></trkpt><trkpt lat="43.5503241" lon="11.3927632"><ele>822.4</ele><time>2026-03-28T11:05:40.953Z</time></trkpt><trkpt lat="43.5502691" lon="11.3926696"><ele>824.1999999999999</ele><time>2026-03-28T11:05:41.953Z</time></trkpt><trkpt lat="43.5502329" lon="11.3925808"><ele>826.0</ele><time>2026-03-28T11:05:42.953Z</time></trkpt><trkpt lat="43.5502225" lon="11.3924135"><ele>826.0</ele><time>2026-03-28T11:05:44.953Z</time></trkpt><trkpt lat="43.5502306" lon="11.3922259"><ele>826.0</ele><time>2026-03-28T11:05:46.952Z</time></trkpt><trkpt lat="43.5502395" lon="11.3921234"><ele>826.0</ele><time>2026-03-28T11:05:47.952Z</time></trkpt><trkpt lat="43.5502639" lon="11.3920139"><ele>826.0</ele><time>2026-03-28T11:05:48.953Z</time></trkpt><trkpt lat="43.5502875" lon="11.3918891"><ele>826.0</ele><time>2026-03-28T11:05:49.952Z</time></trkpt><trkpt lat="43.5503069" lon="11.3917811"><ele>828.3333333333333</ele><time>2026-03-28T11:05:50.953Z</time></trkpt><trkpt lat="43.5503289" lon="11.391678"><ele>830.6666666666666</ele><time>2026-03-28T11:05:51.952Z</time></trkpt><trkpt lat="43.5503487" lon="11.3915807"><ele>833.0</ele><time>2026-03-28T11:05:52.953Z</time></trkpt><trkpt lat="43.5503775" lon="11.3914737"><ele>835.3333333333333</ele><time>2026-03-28T11:05:53.952Z</time></trkpt><trkpt lat="43.5503986" lon="11.3913578"><ele>837.6666666666666</ele><time>2026-03-28T11:05:54.953Z</time></trkpt><trkpt lat="43.550419" lon="11.391241"><ele>840.0</ele><time>2026-03-28T11:05:55.952Z</time></trkpt><trkpt lat="43.5504269" lon="11.3911463"><ele>843.6</ele><time>2026-03-28T11:05:56.953Z</time></trkpt><trkpt lat="43.5504041" lon="11.3910437"><ele>847.2</ele><time>2026-03-28T11:05:58.952Z</time></trkpt><trkpt lat="43.5503389" lon="11.3909962"><ele>850.8</ele><time>2026-03-28T11:06:00.953Z</time></trkpt><trkpt lat="43.5502445" lon="11.3910036"><ele>854.4</ele><time>2026-03-28T11:06:02.952Z</time></trkpt><trkpt lat="43.5501382" lon="11.3910561"><ele>858.0</ele><time>2026-03-28T11:06:04.951Z</time></trkpt><trkpt lat="43.5500429" lon="11.391108"><ele>858.0</ele><time>2026-03-28T11:06:06.953Z</time></trkpt><trkpt lat="43.5499544" lon="11.3911328"><ele>858.0</ele><time>2026-03-28T11:06:28.953Z</time></trkpt><trkpt lat="43.5498558" lon="11.3910866"><ele>858.0</ele><time>2026-03-28T11:06:30.952Z</time></trkpt><trkpt lat="43.5497587" lon="11.3909876"><ele>858.0</ele><time>2026-03-28T11:06:32.952Z</time></trkpt><trkpt lat="43.5497079" lon="11.3909037"><ele>858.0</ele><time>2026-03-28T11:06:33.953Z</time></trkpt><trkpt lat="43.5496568" lon="11.3908005"><ele>858.0</ele><time>2026-03-28T11:06:34.953Z</time></trkpt><trkpt lat="43.5496102" lon="11.3906891"><ele>858.0</ele><time>2026-03-28T11:06:35.951Z</time></trkpt><trkpt lat="43.5495807" lon="11.390568"><ele>858.0</ele><time>2026-03-28T11:06:36.951Z</time></trkpt><trkpt lat="43.5495419" lon="11.3904704"><ele>858.0</ele><time>2026-03-28T11:06:37.952Z</time></trkpt><trkpt lat="43.5495214" lon="11.3903493"><ele>858.0</ele><time>2026-03-28T11:06:38.953Z</time></trkpt><trkpt lat="43.5495036" lon="11.390235"><ele>858.0</ele><time>2026-03-28T11:06:39.953Z</time></trkpt><trkpt lat="43.549443" lon="11.3900769"><ele>857.2</ele><time>2026-03-28T11:06:40.953Z</time></trkpt><trkpt lat="43.5493985" lon="11.389935"><ele>856.4</ele><time>2026-03-28T11:06:41.953Z</time></trkpt><trkpt lat="43.549356" lon="11.3898171"><ele>855.6000000000001</ele><time>2026-03-28T11:06:42.953Z</time></trkpt><trkpt lat="43.5493072" lon="11.3897056"><ele>854.8000000000001</ele><time>2026-03-28T11:06:43.953Z</time></trkpt><trkpt lat="43.5492266" lon="11.3896206"><ele>854.0</ele><time>2026-03-28T11:06:44.953Z</time></trkpt><trkpt lat="43.5491505" lon="11.3895491"><ele>856.6666666666667</ele><time>2026-03-28T11:06:45.952Z</time></trkpt><trkpt lat="43.5490873" lon="11.3894483"><ele>859.3333333333334</ele><time>2026-03-28T11:06:46.952Z</time></trkpt><trkpt lat="43.549036" lon="11.3893666"><ele>862.0</ele><time>2026-03-28T11:06:47.952Z</time></trkpt><trkpt lat="43.5489644" lon="11.3892709"><ele>864.6666666666667</ele><time>2026-03-28T11:06:49.952Z</time></trkpt><trkpt lat="43.5489095" lon="11.3891538"><ele>867.3333333333334</ele><time>2026-03-28T11:06:51.953Z</time></trkpt><trkpt lat="43.5488742" lon="11.3890779"><ele>870.0</ele><time>2026-03-28T11:06:52.952Z</time></trkpt><trkpt lat="43.5488183" lon="11.3889472"><ele>870.1666666666666</ele><time>2026-03-28T11:06:54.953Z</time></trkpt><trkpt lat="43.5487879" lon="11.3888403"><ele>870.3333333333333</ele><time>2026-03-28T11:06:57.953Z</time></trkpt><trkpt lat="43.5487633" lon="11.3887441"><ele>870.5</ele><time>2026-03-28T11:07:00.952Z</time></trkpt><trkpt lat="43.5487734" lon="11.3886383"><ele>870.6666666666666</ele><time>2026-03-28T11:07:03.953Z</time></trkpt><trkpt lat="43.5488005" lon="11.388512"><ele>870.8333333333333</ele><time>2026-03-28T11:07:06.952Z</time></trkpt><trkpt lat="43.5488865" lon="11.3884216"><ele>871.0</ele><time>2026-03-28T11:07:10.718Z</time></trkpt><trkpt lat="43.5489472" lon="11.388395"><ele>871.0</ele><time>2026-03-28T11:07:12.952Z</time></trkpt><trkpt lat="43.5490235" lon="11.3883659"><ele>870.9999999999999</ele><time>2026-03-28T11:07:14.951Z</time></trkpt><trkpt lat="43.5490637" lon="11.3882068"><ele>870.9999999999999</ele><time>2026-03-28T11:07:16.952Z</time></trkpt><trkpt lat="43.5490641" lon="11.3881137"><ele>871.0</ele><time>2026-03-28T11:07:17.952Z</time></trkpt><trkpt lat="43.5490767" lon="11.3879663"><ele>871.0</ele><time>2026-03-28T11:07:19.953Z</time></trkpt><trkpt lat="43.5491117" lon="11.3878451"><ele>870.0</ele><time>2026-03-28T11:07:21.953Z</time></trkpt><trkpt lat="43.5491364" lon="11.3877162"><ele>868.9999999999999</ele><time>2026-03-28T11:07:23.952Z</time></trkpt><trkpt lat="43.5491446" lon="11.387559"><ele>867.9999999999999</ele><time>2026-03-28T11:07:25.952Z</time></trkpt><trkpt lat="43.5491314" lon="11.3874429"><ele>867.0</ele><time>2026-03-28T11:07:27.953Z</time></trkpt><trkpt lat="43.5491321" lon="11.3873239"><ele>866.0</ele><time>2026-03-28T11:07:30.953Z</time></trkpt><trkpt lat="43.5491618" lon="11.3872155"><ele>864.3333333333334</ele><time>2026-03-28T11:07:33.952Z</time></trkpt><trkpt lat="43.5492036" lon="11.3871198"><ele>862.6666666666667</ele><time>2026-03-28T11:07:35.952Z</time></trkpt><trkpt lat="43.5492462" lon="11.3870523"><ele>861.0</ele><time>2026-03-28T11:07:37.952Z</time></trkpt><trkpt lat="43.5493012" lon="11.3869739"><ele>859.3333333333333</ele><time>2026-03-28T11:07:39.952Z</time></trkpt><trkpt lat="43.5493578" lon="11.386873"><ele>857.6666666666666</ele><time>2026-03-28T11:07:41.952Z</time></trkpt><trkpt lat="43.5494032" lon="11.3868097"><ele>856.0</ele><time>2026-03-28T11:07:43.953Z</time></trkpt><trkpt lat="43.5494483" lon="11.3867324"><ele>856.0</ele><time>2026-03-28T11:07:46.953Z</time></trkpt><trkpt lat="43.5495166" lon="11.3866539"><ele>855.9999999999999</ele><time>2026-03-28T11:07:48.952Z</time></trkpt><trkpt lat="43.5495673" lon="11.3865953"><ele>855.9999999999999</ele><time>2026-03-28T11:07:49.953Z</time></trkpt><trkpt lat="43.5496177" lon="11.386535"><ele>856.0</ele><time>2026-03-28T11:07:50.952Z</time></trkpt><trkpt lat="43.5497197" lon="11.3864469"><ele>856.0</ele><time>2026-03-28T11:07:52.951Z</time></trkpt><trkpt lat="43.5498178" lon="11.386382"><ele>856.9999999999999</ele><time>2026-03-28T11:07:54.953Z</time></trkpt><trkpt lat="43.5499397" lon="11.3863194"><ele>858.0</ele><time>2026-03-28T11:07:56.952Z</time></trkpt><trkpt lat="43.5499997" lon="11.38629"><ele>859.0</ele><time>2026-03-28T11:07:57.952Z</time></trkpt><trkpt lat="43.5500597" lon="11.3862471"><ele>860.0</ele><time>2026-03-28T11:07:58.952Z</time></trkpt><trkpt lat="43.5501264" lon="11.3861919"><ele>860.9999999999999</ele><time>2026-03-28T11:07:59.953Z</time></trkpt><trkpt lat="43.5502018" lon="11.3861111"><ele>862.0</ele><time>2026-03-28T11:08:01.953Z</time></trkpt><trkpt lat="43.5502613" lon="11.3860695"><ele>861.9999999999999</ele><time>2026-03-28T11:08:03.952Z</time></trkpt><trkpt lat="43.5503152" lon="11.3861324"><ele>862.0</ele><time>2026-03-28T11:08:06.953Z</time></trkpt><trkpt lat="43.5502436" lon="11.3861391"><ele>862.0</ele><time>2026-03-28T11:09:59.952Z</time></trkpt><trkpt lat="43.5501741" lon="11.3861818"><ele>862.0</ele><time>2026-03-28T11:10:01.953Z</time></trkpt><trkpt lat="43.5500625" lon="11.3862684"><ele>861.9999999999999</ele><time>2026-03-28T11:10:03.953Z</time></trkpt><trkpt lat="43.5499958" lon="11.3863057"><ele>862.0</ele><time>2026-03-28T11:10:04.953Z</time></trkpt><trkpt lat="43.5498921" lon="11.3863502"><ele>860.8</ele><time>2026-03-28T11:10:06.954Z</time></trkpt><trkpt lat="43.5497898" lon="11.3863988"><ele>859.6</ele><time>2026-03-28T11:10:08.953Z</time></trkpt><trkpt lat="43.5496941" lon="11.3864582"><ele>858.3999999999999</ele><time>2026-03-28T11:10:10.952Z</time></trkpt><trkpt lat="43.5496043" lon="11.3865424"><ele>857.1999999999999</ele><time>2026-03-28T11:10:12.952Z</time></trkpt><trkpt lat="43.5495312" lon="11.3866298"><ele>856.0</ele><time>2026-03-28T11:10:14.953Z</time></trkpt><trkpt lat="43.5494682" lon="11.386704"><ele>855.9999999999999</ele><time>2026-03-28T11:10:16.953Z</time></trkpt><trkpt lat="43.5494178" lon="11.3867708"><ele>856.0</ele><time>2026-03-28T11:10:18.953Z</time></trkpt><trkpt lat="43.5493609" lon="11.3868548"><ele>856.0</ele><time>2026-03-28T11:10:21.952Z</time></trkpt><trkpt lat="43.549316" lon="11.3869312"><ele>856.0</ele><time>2026-03-28T11:10:24.952Z</time></trkpt><trkpt lat="43.5492632" lon="11.3870379"><ele>855.9999999999999</ele><time>2026-03-28T11:10:27.952Z</time></trkpt><trkpt lat="43.549225" lon="11.3871223"><ele>856.0</ele><time>2026-03-28T11:10:30.951Z</time></trkpt><trkpt lat="43.5492607" lon="11.3870316"><ele>855.9999999999999</ele><time>2026-03-28T11:11:47.953Z</time></trkpt><trkpt lat="43.5493062" lon="11.3869517"><ele>856.0</ele><time>2026-03-28T11:11:50.953Z</time></trkpt><trkpt lat="43.5493502" lon="11.3868586"><ele>856.0</ele><time>2026-03-28T11:11:54.952Z</time></trkpt><trkpt lat="43.5494148" lon="11.3867852"><ele>856.0</ele><time>2026-03-28T11:11:57.954Z</time></trkpt><trkpt lat="43.5494641" lon="11.3867053"><ele>855.9999999999999</ele><time>2026-03-28T11:12:00.951Z</time></trkpt><trkpt lat="43.5495281" lon="11.3866411"><ele>856.0</ele><time>2026-03-28T11:12:02.951Z</time></trkpt><trkpt lat="43.5495765" lon="11.3865784"><ele>857.1999999999999</ele><time>2026-03-28T11:12:03.952Z</time></trkpt><trkpt lat="43.5496801" lon="11.3864818"><ele>858.3999999999999</ele><time>2026-03-28T11:12:05.952Z</time></trkpt><trkpt lat="43.5497709" lon="11.3864126"><ele>859.6</ele><time>2026-03-28T11:12:07.953Z</time></trkpt><trkpt lat="43.5498852" lon="11.3863486"><ele>860.8</ele><time>2026-03-28T11:12:09.952Z</time></trkpt><trkpt lat="43.5499524" lon="11.3863203"><ele>862.0</ele><time>2026-03-28T11:12:10.953Z</time></trkpt><trkpt lat="43.5500234" lon="11.386288"><ele>861.9999999999999</ele><time>2026-03-28T11:12:11.952Z</time></trkpt><trkpt lat="43.5500883" lon="11.3862287"><ele>862.0</ele><time>2026-03-28T11:12:12.954Z</time></trkpt><trkpt lat="43.5501428" lon="11.386178"><ele>862.0</ele><time>2026-03-28T11:12:13.953Z</time></trkpt><trkpt lat="43.550224" lon="11.3861255"><ele>862.0</ele><time>2026-03-28T11:12:15.953Z</time></trkpt><trkpt lat="43.5502976" lon="11.3861297"><ele>861.9999999999999</ele><time>2026-03-28T11:12:18.951Z</time></trkpt><trkpt lat="43.5503589" lon="11.3862057"><ele>862.0</ele><time>2026-03-28T11:12:21.953Z</time></trkpt><trkpt lat="43.5503995" lon="11.3862913"><ele>864.0</ele><time>2026-03-28T11:12:24.953Z</time></trkpt><trkpt lat="43.5504314" lon="11.3863802"><ele>866.0</ele><time>2026-03-28T11:12:27.953Z</time></trkpt><trkpt lat="43.5504695" lon="11.386494"><ele>868.0</ele><time>2026-03-28T11:12:50.953Z</time></trkpt><trkpt lat="43.5504967" lon="11.386641"><ele>870.0</ele><time>2026-03-28T11:12:52.953Z</time></trkpt><trkpt lat="43.5505228" lon="11.3867703"><ele>872.0</ele><time>2026-03-28T11:12:54.954Z</time></trkpt><trkpt lat="43.5505861" lon="11.3868688"><ele>872.0000000000001</ele><time>2026-03-28T11:12:56.952Z</time></trkpt><trkpt lat="43.5506934" lon="11.3868886"><ele>872.0</ele><time>2026-03-28T11:12:58.953Z</time></trkpt><trkpt lat="43.5507552" lon="11.3868512"><ele>872.0</ele><time>2026-03-28T11:12:59.953Z</time></trkpt><trkpt lat="43.5508602" lon="11.3867667"><ele>872.0</ele><time>2026-03-28T11:13:01.954Z</time></trkpt><trkpt lat="43.5509276" lon="11.3867344"><ele>872.0000000000001</ele><time>2026-03-28T11:13:02.954Z</time></trkpt><trkpt lat="43.5509961" lon="11.3867049"><ele>872.0</ele><time>2026-03-28T11:13:03.952Z</time></trkpt><trkpt lat="43.5510847" lon="11.3866821"><ele>872.0000000000001</ele><time>2026-03-28T11:13:04.954Z</time></trkpt><trkpt lat="43.5511827" lon="11.3866548"><ele>872.0</ele><time>2026-03-28T11:13:05.951Z</time></trkpt><trkpt lat="43.5512622" lon="11.3866292"><ele>872.0</ele><time>2026-03-28T11:13:06.953Z</time></trkpt><trkpt lat="43.5513322" lon="11.3866051"><ele>872.0</ele><time>2026-03-28T11:13:07.952Z</time></trkpt><trkpt lat="43.551397" lon="11.3865897"><ele>872.0000000000001</ele><time>2026-03-28T11:13:08.953Z</time></trkpt><trkpt lat="43.551462" lon="11.3866045"><ele>872.0</ele><time>2026-03-28T11:13:09.953Z</time></trkpt><trkpt lat="43.5515363" lon="11.3866406"><ele>871.6666666666667</ele><time>2026-03-28T11:13:10.953Z</time></trkpt><trkpt lat="43.5516232" lon="11.3866789"><ele>871.3333333333334</ele><time>2026-03-28T11:13:11.952Z</time></trkpt><trkpt lat="43.5516924" lon="11.3867512"><ele>871.0</ele><time>2026-03-28T11:13:12.954Z</time></trkpt><trkpt lat="43.5517601" lon="11.3868187"><ele>870.6666666666667</ele><time>2026-03-28T11:13:13.952Z</time></trkpt><trkpt lat="43.5518319" lon="11.3868986"><ele>870.3333333333334</ele><time>2026-03-28T11:13:14.953Z</time></trkpt><trkpt lat="43.5518955" lon="11.3869845"><ele>870.0</ele><time>2026-03-28T11:13:15.953Z</time></trkpt><trkpt lat="43.5519549" lon="11.3870446"><ele>871.25</ele><time>2026-03-28T11:13:16.953Z</time></trkpt><trkpt lat="43.552084" lon="11.3870767"><ele>872.5</ele><time>2026-03-28T11:13:18.953Z</time></trkpt><trkpt lat="43.552173" lon="11.3870631"><ele>873.75</ele><time>2026-03-28T11:13:19.953Z</time></trkpt><trkpt lat="43.5522845" lon="11.3870388"><ele>875.0</ele><time>2026-03-28T11:13:21.954Z</time></trkpt><trkpt lat="43.5523984" lon="11.3870779"><ele>875.0</ele><time>2026-03-28T11:13:23.954Z</time></trkpt><trkpt lat="43.5524696" lon="11.3870954"><ele>875.0</ele><time>2026-03-28T11:13:24.952Z</time></trkpt><trkpt lat="43.5525673" lon="11.3871148"><ele>875.0</ele><time>2026-03-28T11:13:26.953Z</time></trkpt><trkpt lat="43.5526741" lon="11.3870558"><ele>875.0</ele><time>2026-03-28T11:13:28.953Z</time></trkpt><trkpt lat="43.5527414" lon="11.3870196"><ele>875.0</ele><time>2026-03-28T11:13:29.953Z</time></trkpt><trkpt lat="43.5528515" lon="11.386975"><ele>876.0</ele><time>2026-03-28T11:13:31.952Z</time></trkpt><trkpt lat="43.5529792" lon="11.3869039"><ele>877.0</ele><time>2026-03-28T11:13:33.953Z</time></trkpt><trkpt lat="43.5530955" lon="11.3868861"><ele>878.0</ele><time>2026-03-28T11:13:35.953Z</time></trkpt><trkpt lat="43.5532531" lon="11.3868682"><ele>879.0</ele><time>2026-03-28T11:13:37.952Z</time></trkpt><trkpt lat="43.5533323" lon="11.3868662"><ele>879.0</ele><time>2026-03-28T11:13:38.953Z</time></trkpt><trkpt lat="43.5534083" lon="11.3868508"><ele>879.0</ele><time>2026-03-28T11:13:39.954Z</time></trkpt><trkpt lat="43.5534888" lon="11.3868125"><ele>879.0</ele><time>2026-03-28T11:13:40.953Z</time></trkpt><trkpt lat="43.5535632" lon="11.3867593"><ele>879.0</ele><time>2026-03-28T11:13:41.953Z</time></trkpt><trkpt lat="43.5536205" lon="11.3867104"><ele>879.0</ele><time>2026-03-28T11:13:42.952Z</time></trkpt><trkpt lat="43.5536894" lon="11.3866754"><ele>879.0</ele><time>2026-03-28T11:13:43.952Z</time></trkpt><trkpt lat="43.5537591" lon="11.3866409"><ele>879.3333333333334</ele><time>2026-03-28T11:13:44.952Z</time></trkpt><trkpt lat="43.553839" lon="11.3866178"><ele>879.6666666666667</ele><time>2026-03-28T11:13:45.954Z</time></trkpt><trkpt lat="43.5539246" lon="11.3865926"><ele>880.0</ele><time>2026-03-28T11:13:46.952Z</time></trkpt><trkpt lat="43.5540011" lon="11.38658"><ele>880.3333333333334</ele><time>2026-03-28T11:13:47.953Z</time></trkpt><trkpt lat="43.5540674" lon="11.3865514"><ele>880.6666666666667</ele><time>2026-03-28T11:13:48.951Z</time></trkpt><trkpt lat="43.5541246" lon="11.3865128"><ele>881.0</ele><time>2026-03-28T11:13:49.953Z</time></trkpt><trkpt lat="43.5542153" lon="11.3864351"><ele>881.0</ele><time>2026-03-28T11:13:51.952Z</time></trkpt><trkpt lat="43.554271" lon="11.3863628"><ele>880.9999999999999</ele><time>2026-03-28T11:13:53.953Z</time></trkpt><trkpt lat="43.5542797" lon="11.3862348"><ele>880.9999999999999</ele><time>2026-03-28T11:14:41.953Z</time></trkpt><trkpt lat="43.5543452" lon="11.3860524"><ele>881.0</ele><time>2026-03-28T11:14:43.953Z</time></trkpt><trkpt lat="43.5543972" lon="11.385942"><ele>881.0</ele><time>2026-03-28T11:14:44.953Z</time></trkpt><trkpt lat="43.5544712" lon="11.3858023"><ele>881.5999999999999</ele><time>2026-03-28T11:14:45.952Z</time></trkpt><trkpt lat="43.5545299" lon="11.3856638"><ele>882.1999999999999</ele><time>2026-03-28T11:14:46.952Z</time></trkpt><trkpt lat="43.5545846" lon="11.3855317"><ele>882.8000000000001</ele><time>2026-03-28T11:14:47.952Z</time></trkpt><trkpt lat="43.5546364" lon="11.3854243"><ele>883.4000000000001</ele><time>2026-03-28T11:14:48.953Z</time></trkpt><trkpt lat="43.5546815" lon="11.385326"><ele>884.0</ele><time>2026-03-28T11:14:49.953Z</time></trkpt><trkpt lat="43.5547231" lon="11.3852291"><ele>880.8000000000001</ele><time>2026-03-28T11:14:50.952Z</time></trkpt><trkpt lat="43.5547543" lon="11.3851456"><ele>877.6000000000001</ele><time>2026-03-28T11:14:51.954Z</time></trkpt><trkpt lat="43.5547849" lon="11.385061"><ele>874.4</ele><time>2026-03-28T11:14:52.953Z</time></trkpt><trkpt lat="43.5548244" lon="11.3849168"><ele>871.2</ele><time>2026-03-28T11:14:54.953Z</time></trkpt><trkpt lat="43.5548813" lon="11.3847762"><ele>868.0</ele><time>2026-03-28T11:14:56.954Z</time></trkpt><trkpt lat="43.5549306" lon="11.3846346"><ele>865.1666666666666</ele><time>2026-03-28T11:14:58.952Z</time></trkpt><trkpt lat="43.5549914" lon="11.3845179"><ele>862.3333333333333</ele><time>2026-03-28T11:15:00.953Z</time></trkpt><trkpt lat="43.5550663" lon="11.384421"><ele>859.5</ele><time>2026-03-28T11:15:02.951Z</time></trkpt><trkpt lat="43.5551116" lon="11.3843445"><ele>856.6666666666667</ele><time>2026-03-28T11:15:04.954Z</time></trkpt><trkpt lat="43.555186" lon="11.3843959"><ele>853.8333333333334</ele><time>2026-03-28T11:17:31.954Z</time></trkpt><trkpt lat="43.5552372" lon="11.3844526"><ele>851.0</ele><time>2026-03-28T11:17:34.953Z</time></trkpt><trkpt lat="43.5553106" lon="11.384454"><ele>853.1999999999999</ele><time>2026-03-28T11:17:36.954Z</time></trkpt><trkpt lat="43.5554058" lon="11.3844421"><ele>855.4</ele><time>2026-03-28T11:17:39.952Z</time></trkpt><trkpt lat="43.555531" lon="11.3844092"><ele>857.6</ele><time>2026-03-28T11:17:41.952Z</time></trkpt><trkpt lat="43.5556183" lon="11.3843709"><ele>859.8</ele><time>2026-03-28T11:17:42.952Z</time></trkpt><trkpt lat="43.5557069" lon="11.3843055"><ele>862.0</ele><time>2026-03-28T11:17:43.952Z</time></trkpt><trkpt lat="43.5557912" lon="11.3842217"><ele>862.0</ele><time>2026-03-28T11:17:44.952Z</time></trkpt><trkpt lat="43.5558812" lon="11.3841303"><ele>862.0</ele><time>2026-03-28T11:17:45.953Z</time></trkpt><trkpt lat="43.5559821" lon="11.384053"><ele>862.0</ele><time>2026-03-28T11:17:46.952Z</time></trkpt><trkpt lat="43.5561018" lon="11.3839876"><ele>862.0</ele><time>2026-03-28T11:17:47.952Z</time></trkpt><trkpt lat="43.5562207" lon="11.3839229"><ele>860.0</ele><time>2026-03-28T11:17:48.954Z</time></trkpt><trkpt lat="43.5563351" lon="11.3838638"><ele>858.0</ele><time>2026-03-28T11:17:49.952Z</time></trkpt><trkpt lat="43.5564503" lon="11.383805"><ele>856.0</ele><time>2026-03-28T11:17:50.953Z</time></trkpt><trkpt lat="43.5565615" lon="11.3837498"><ele>854.0</ele><time>2026-03-28T11:17:51.953Z</time></trkpt><trkpt lat="43.5566672" lon="11.3837041"><ele>854.0</ele><time>2026-03-28T11:17:52.953Z</time></trkpt><trkpt lat="43.5567746" lon="11.3836815"><ele>854.0000000000001</ele><time>2026-03-28T11:17:53.953Z</time></trkpt><trkpt lat="43.5568835" lon="11.3836925"><ele>854.0000000000001</ele><time>2026-03-28T11:17:54.953Z</time></trkpt><trkpt lat="43.5569968" lon="11.3837332"><ele>854.0</ele><time>2026-03-28T11:17:55.954Z</time></trkpt><trkpt lat="43.5571031" lon="11.3837783"><ele>854.0</ele><time>2026-03-28T11:17:56.953Z</time></trkpt><trkpt lat="43.5572171" lon="11.3838007"><ele>854.0</ele><time>2026-03-28T11:17:57.953Z</time></trkpt><trkpt lat="43.5573207" lon="11.3837892"><ele>854.0</ele><time>2026-03-28T11:17:58.953Z</time></trkpt><trkpt lat="43.5574368" lon="11.3837521"><ele>854.0</ele><time>2026-03-28T11:17:59.953Z</time></trkpt><trkpt lat="43.557561" lon="11.3837003"><ele>854.0</ele><time>2026-03-28T11:18:00.953Z</time></trkpt><trkpt lat="43.5576889" lon="11.383622"><ele>854.0</ele><time>2026-03-28T11:18:01.953Z</time></trkpt><trkpt lat="43.5578019" lon="11.3835686"><ele>854.0000000000001</ele><time>2026-03-28T11:18:02.953Z</time></trkpt><trkpt lat="43.5579027" lon="11.3834957"><ele>854.0000000000001</ele><time>2026-03-28T11:18:03.952Z</time></trkpt><trkpt lat="43.5579944" lon="11.3834286"><ele>854.0</ele><time>2026-03-28T11:18:04.953Z</time></trkpt><trkpt lat="43.5580714" lon="11.3833708"><ele>854.0</ele><time>2026-03-28T11:18:05.954Z</time></trkpt><trkpt lat="43.5581538" lon="11.3833131"><ele>854.4000000000001</ele><time>2026-03-28T11:18:06.953Z</time></trkpt><trkpt lat="43.5582271" lon="11.3832382"><ele>854.8000000000001</ele><time>2026-03-28T11:18:07.954Z</time></trkpt><trkpt lat="43.5583034" lon="11.3831688"><ele>855.1999999999999</ele><time>2026-03-28T11:18:08.954Z</time></trkpt><trkpt lat="43.5583762" lon="11.3830924"><ele>855.5999999999999</ele><time>2026-03-28T11:18:09.953Z</time></trkpt><trkpt lat="43.5584571" lon="11.3830167"><ele>856.0</ele><time>2026-03-28T11:18:10.952Z</time></trkpt><trkpt lat="43.5585415" lon="11.3829567"><ele>854.0</ele><time>2026-03-28T11:18:11.952Z</time></trkpt><trkpt lat="43.5586396" lon="11.3829104"><ele>851.9999999999999</ele><time>2026-03-28T11:18:12.953Z</time></trkpt><trkpt lat="43.5587311" lon="11.3828685"><ele>850.0</ele><time>2026-03-28T11:18:13.953Z</time></trkpt><trkpt lat="43.5588313" lon="11.3828379"><ele>848.0</ele><time>2026-03-28T11:18:14.952Z</time></trkpt><trkpt lat="43.5589313" lon="11.3828158"><ele>846.0</ele><time>2026-03-28T11:18:15.952Z</time></trkpt><trkpt lat="43.5590319" lon="11.3827625"><ele>845.5</ele><time>2026-03-28T11:18:16.953Z</time></trkpt><trkpt lat="43.5591312" lon="11.382686"><ele>845.0</ele><time>2026-03-28T11:18:17.953Z</time></trkpt><trkpt lat="43.5592336" lon="11.3825874"><ele>844.5</ele><time>2026-03-28T11:18:18.952Z</time></trkpt><trkpt lat="43.5593255" lon="11.3824735"><ele>844.0</ele><time>2026-03-28T11:18:19.954Z</time></trkpt><trkpt lat="43.5594086" lon="11.3823612"><ele>844.0</ele><time>2026-03-28T11:18:20.953Z</time></trkpt><trkpt lat="43.5594924" lon="11.3822288"><ele>844.0</ele><time>2026-03-28T11:18:21.954Z</time></trkpt><trkpt lat="43.5595905" lon="11.382075"><ele>844.0</ele><time>2026-03-28T11:18:22.954Z</time></trkpt><trkpt lat="43.5596863" lon="11.381925"><ele>844.0</ele><time>2026-03-28T11:18:23.952Z</time></trkpt><trkpt lat="43.5597797" lon="11.3817624"><ele>845.0</ele><time>2026-03-28T11:18:24.954Z</time></trkpt><trkpt lat="43.5598759" lon="11.381588"><ele>846.0</ele><time>2026-03-28T11:18:25.952Z</time></trkpt><trkpt lat="43.5599768" lon="11.3814056"><ele>847.0</ele><time>2026-03-28T11:18:26.954Z</time></trkpt><trkpt lat="43.5600842" lon="11.3812143"><ele>847.0</ele><time>2026-03-28T11:18:27.953Z</time></trkpt><trkpt lat="43.5601793" lon="11.3810395"><ele>847.0</ele><time>2026-03-28T11:18:28.953Z</time></trkpt><trkpt lat="43.5602661" lon="11.380896"><ele>847.0</ele><time>2026-03-28T11:18:29.953Z</time></trkpt><trkpt lat="43.5603448" lon="11.3807826"><ele>847.0</ele><time>2026-03-28T11:18:30.953Z</time></trkpt><trkpt lat="43.5604265" lon="11.3807077"><ele>846.75</ele><time>2026-03-28T11:18:31.954Z</time></trkpt><trkpt lat="43.5605208" lon="11.3806542"><ele>846.5</ele><time>2026-03-28T11:18:32.953Z</time></trkpt><trkpt lat="43.5606339" lon="11.3806162"><ele>846.25</ele><time>2026-03-28T11:18:33.952Z</time></trkpt><trkpt lat="43.5607486" lon="11.3805774"><ele>846.0</ele><time>2026-03-28T11:18:34.952Z</time></trkpt><trkpt lat="43.5608748" lon="11.3805196"><ele>847.75</ele><time>2026-03-28T11:18:35.953Z</time></trkpt><trkpt lat="43.5610076" lon="11.3804604"><ele>849.5</ele><time>2026-03-28T11:18:36.951Z</time></trkpt><trkpt lat="43.5611298" lon="11.3803964"><ele>851.25</ele><time>2026-03-28T11:18:37.954Z</time></trkpt><trkpt lat="43.5612307" lon="11.3803428"><ele>853.0</ele><time>2026-03-28T11:18:38.951Z</time></trkpt><trkpt lat="43.5613232" lon="11.3802638"><ele>853.0</ele><time>2026-03-28T11:18:39.953Z</time></trkpt><trkpt lat="43.5614082" lon="11.3801633"><ele>853.0</ele><time>2026-03-28T11:18:40.953Z</time></trkpt><trkpt lat="43.5614907" lon="11.3800406"><ele>853.0</ele><time>2026-03-28T11:18:41.954Z</time></trkpt><trkpt lat="43.5615735" lon="11.3799117"><ele>853.0</ele><time>2026-03-28T11:18:42.953Z</time></trkpt><trkpt lat="43.5616671" lon="11.3797629"><ele>857.3333333333333</ele><time>2026-03-28T11:18:43.953Z</time></trkpt><trkpt lat="43.561764" lon="11.3796111"><ele>861.6666666666667</ele><time>2026-03-28T11:18:44.952Z</time></trkpt><trkpt lat="43.5618654" lon="11.3794481"><ele>866.0</ele><time>2026-03-28T11:18:45.952Z</time></trkpt><trkpt lat="43.561964" lon="11.379275"><ele>860.25</ele><time>2026-03-28T11:18:46.953Z</time></trkpt><trkpt lat="43.5620497" lon="11.3791072"><ele>854.5</ele><time>2026-03-28T11:18:47.953Z</time></trkpt><trkpt lat="43.5621297" lon="11.3789324"><ele>848.75</ele><time>2026-03-28T11:18:48.952Z</time></trkpt><trkpt lat="43.562215" lon="11.3787683"><ele>843.0</ele><time>2026-03-28T11:18:49.953Z</time></trkpt><trkpt lat="43.5623052" lon="11.3786201"><ele>843.0</ele><time>2026-03-28T11:18:50.952Z</time></trkpt><trkpt lat="43.5624039" lon="11.3784837"><ele>843.0</ele><time>2026-03-28T11:18:51.952Z</time></trkpt><trkpt lat="43.5625119" lon="11.378371"><ele>843.0</ele><time>2026-03-28T11:18:52.952Z</time></trkpt><trkpt lat="43.5626358" lon="11.3782719"><ele>843.0</ele><time>2026-03-28T11:18:53.952Z</time></trkpt><trkpt lat="43.5627779" lon="11.3781941"><ele>839.6666666666667</ele><time>2026-03-28T11:18:54.953Z</time></trkpt><trkpt lat="43.5629332" lon="11.3781197"><ele>836.3333333333334</ele><time>2026-03-28T11:18:55.953Z</time></trkpt><trkpt lat="43.5630808" lon="11.3780508"><ele>833.0</ele><time>2026-03-28T11:18:56.953Z</time></trkpt><trkpt lat="43.563212" lon="11.3779835"><ele>832.2</ele><time>2026-03-28T11:18:57.954Z</time></trkpt><trkpt lat="43.5633374" lon="11.3779211"><ele>831.4</ele><time>2026-03-28T11:18:58.954Z</time></trkpt><trkpt lat="43.5634479" lon="11.3778644"><ele>830.6</ele><time>2026-03-28T11:18:59.954Z</time></trkpt><trkpt lat="43.5635472" lon="11.377827"><ele>829.8000000000001</ele><time>2026-03-28T11:19:00.952Z</time></trkpt><trkpt lat="43.5636272" lon="11.3777992"><ele>829.0</ele><time>2026-03-28T11:19:01.953Z</time></trkpt><trkpt lat="43.5637008" lon="11.3777972"><ele>828.2857142857142</ele><time>2026-03-28T11:19:02.954Z</time></trkpt><trkpt lat="43.5637779" lon="11.3778251"><ele>827.5714285714286</ele><time>2026-03-28T11:19:03.953Z</time></trkpt><trkpt lat="43.563843" lon="11.3778718"><ele>826.8571428571429</ele><time>2026-03-28T11:19:04.953Z</time></trkpt><trkpt lat="43.5638912" lon="11.3779402"><ele>826.1428571428571</ele><time>2026-03-28T11:19:05.953Z</time></trkpt><trkpt lat="43.5639248" lon="11.3780297"><ele>825.4285714285714</ele><time>2026-03-28T11:19:06.953Z</time></trkpt><trkpt lat="43.5639235" lon="11.3781203"><ele>824.7142857142857</ele><time>2026-03-28T11:19:07.953Z</time></trkpt><trkpt lat="43.5638979" lon="11.3782221"><ele>824.0</ele><time>2026-03-28T11:19:08.952Z</time></trkpt><trkpt lat="43.5638662" lon="11.3783285"><ele>823.6666666666667</ele><time>2026-03-28T11:19:09.952Z</time></trkpt><trkpt lat="43.563842" lon="11.3784395"><ele>823.3333333333334</ele><time>2026-03-28T11:19:10.953Z</time></trkpt><trkpt lat="43.5638484" lon="11.3785542"><ele>823.0</ele><time>2026-03-28T11:19:11.952Z</time></trkpt><trkpt lat="43.5638787" lon="11.3786522"><ele>822.6666666666667</ele><time>2026-03-28T11:19:12.952Z</time></trkpt><trkpt lat="43.5639315" lon="11.3787348"><ele>822.3333333333334</ele><time>2026-03-28T11:19:13.954Z</time></trkpt><trkpt lat="43.5639999" lon="11.3787867"><ele>822.0</ele><time>2026-03-28T11:19:14.953Z</time></trkpt><trkpt lat="43.5640876" lon="11.3788032"><ele>822.0</ele><time>2026-03-28T11:19:15.952Z</time></trkpt><trkpt lat="43.5642032" lon="11.3787999"><ele>822.0</ele><time>2026-03-28T11:19:16.953Z</time></trkpt><trkpt lat="43.5643293" lon="11.3787868"><ele>822.0</ele><time>2026-03-28T11:19:17.952Z</time></trkpt><trkpt lat="43.5644639" lon="11.3787529"><ele>822.0</ele><time>2026-03-28T11:19:18.953Z</time></trkpt><trkpt lat="43.5646062" lon="11.3787053"><ele>817.0</ele><time>2026-03-28T11:19:19.953Z</time></trkpt><trkpt lat="43.5647513" lon="11.3786462"><ele>812.0</ele><time>2026-03-28T11:19:20.953Z</time></trkpt><trkpt lat="43.5648949" lon="11.3785614"><ele>807.0</ele><time>2026-03-28T11:19:21.953Z</time></trkpt><trkpt lat="43.5650281" lon="11.3784708"><ele>807.0</ele><time>2026-03-28T11:19:22.952Z</time></trkpt><trkpt lat="43.5651416" lon="11.3783708"><ele>807.0</ele><time>2026-03-28T11:19:23.953Z</time></trkpt><trkpt lat="43.5652494" lon="11.3782471"><ele>807.0</ele><time>2026-03-28T11:19:24.954Z</time></trkpt><trkpt lat="43.5653508" lon="11.3781228"><ele>807.0</ele><time>2026-03-28T11:19:25.952Z</time></trkpt><trkpt lat="43.5654357" lon="11.3779972"><ele>803.75</ele><time>2026-03-28T11:19:26.953Z</time></trkpt><trkpt lat="43.565532" lon="11.3778832"><ele>800.5</ele><time>2026-03-28T11:19:27.954Z</time></trkpt><trkpt lat="43.5656302" lon="11.3777858"><ele>797.25</ele><time>2026-03-28T11:19:28.953Z</time></trkpt><trkpt lat="43.565737" lon="11.377714"><ele>794.0</ele><time>2026-03-28T11:19:29.953Z</time></trkpt><trkpt lat="43.5658447" lon="11.3776791"><ele>794.0</ele><time>2026-03-28T11:19:30.952Z</time></trkpt><trkpt lat="43.5659509" lon="11.3776666"><ele>794.0</ele><time>2026-03-28T11:19:31.954Z</time></trkpt><trkpt lat="43.5660536" lon="11.3776881"><ele>794.0</ele><time>2026-03-28T11:19:32.952Z</time></trkpt><trkpt lat="43.5661642" lon="11.3777323"><ele>794.0</ele><time>2026-03-28T11:19:33.953Z</time></trkpt><trkpt lat="43.5662841" lon="11.3777983"><ele>792.0</ele><time>2026-03-28T11:19:34.953Z</time></trkpt><trkpt lat="43.566406" lon="11.3778804"><ele>790.0</ele><time>2026-03-28T11:19:35.953Z</time></trkpt><trkpt lat="43.5665336" lon="11.3779565"><ele>788.0</ele><time>2026-03-28T11:19:36.953Z</time></trkpt><trkpt lat="43.5666685" lon="11.3780064"><ele>786.0</ele><time>2026-03-28T11:19:37.953Z</time></trkpt><trkpt lat="43.5668026" lon="11.3780513"><ele>786.0</ele><time>2026-03-28T11:19:38.953Z</time></trkpt><trkpt lat="43.5669294" lon="11.378095"><ele>786.0</ele><time>2026-03-28T11:19:39.952Z</time></trkpt><trkpt lat="43.5670553" lon="11.3781311"><ele>786.0</ele><time>2026-03-28T11:19:40.953Z</time></trkpt><trkpt lat="43.5671707" lon="11.3781685"><ele>786.0</ele><time>2026-03-28T11:19:41.953Z</time></trkpt><trkpt lat="43.5672883" lon="11.3781975"><ele>784.0</ele><time>2026-03-28T11:19:42.953Z</time></trkpt><trkpt lat="43.5673982" lon="11.3782142"><ele>782.0</ele><time>2026-03-28T11:19:43.954Z</time></trkpt><trkpt lat="43.5675012" lon="11.3782131"><ele>780.0</ele><time>2026-03-28T11:19:44.953Z</time></trkpt><trkpt lat="43.5675978" lon="11.3781872"><ele>778.0</ele><time>2026-03-28T11:19:45.954Z</time></trkpt><trkpt lat="43.5677012" lon="11.3781349"><ele>776.0</ele><time>2026-03-28T11:19:46.953Z</time></trkpt><trkpt lat="43.5677968" lon="11.3780552"><ele>773.8</ele><time>2026-03-28T11:19:47.954Z</time></trkpt><trkpt lat="43.5678846" lon="11.3779696"><ele>771.5999999999999</ele><time>2026-03-28T11:19:48.952Z</time></trkpt><trkpt lat="43.5679628" lon="11.377875"><ele>769.4</ele><time>2026-03-28T11:19:49.951Z</time></trkpt><trkpt lat="43.568024" lon="11.3777745"><ele>767.2</ele><time>2026-03-28T11:19:50.954Z</time></trkpt><trkpt lat="43.5680694" lon="11.377668"><ele>765.0</ele><time>2026-03-28T11:19:51.952Z</time></trkpt><trkpt lat="43.568097" lon="11.3775487"><ele>765.0</ele><time>2026-03-28T11:19:52.952Z</time></trkpt><trkpt lat="43.5681122" lon="11.3774198"><ele>765.0</ele><time>2026-03-28T11:19:53.953Z</time></trkpt><trkpt lat="43.5681271" lon="11.3773035"><ele>765.0</ele><time>2026-03-28T11:19:54.952Z</time></trkpt><trkpt lat="43.5681622" lon="11.3772127"><ele>765.0</ele><time>2026-03-28T11:19:55.952Z</time></trkpt><trkpt lat="43.5682052" lon="11.3771448"><ele>765.0</ele><time>2026-03-28T11:19:56.955Z</time></trkpt><trkpt lat="43.5682665" lon="11.3771222"><ele>765.0</ele><time>2026-03-28T11:19:57.954Z</time></trkpt><trkpt lat="43.5683321" lon="11.3771492"><ele>765.0</ele><time>2026-03-28T11:19:58.954Z</time></trkpt><trkpt lat="43.5683796" lon="11.3772074"><ele>765.0</ele><time>2026-03-28T11:19:59.953Z</time></trkpt><trkpt lat="43.5684402" lon="11.3772739"><ele>765.0</ele><time>2026-03-28T11:20:01.952Z</time></trkpt><trkpt lat="43.5685288" lon="11.3773348"><ele>765.0</ele><time>2026-03-28T11:20:07.954Z</time></trkpt><trkpt lat="43.5685949" lon="11.3774326"><ele>765.0</ele><time>2026-03-28T11:20:09.953Z</time></trkpt><trkpt lat="43.5686856" lon="11.3774969"><ele>765.0</ele><time>2026-03-28T11:20:11.952Z</time></trkpt><trkpt lat="43.5687798" lon="11.3775647"><ele>762.3333333333334</ele><time>2026-03-28T11:20:13.953Z</time></trkpt><trkpt lat="43.5688597" lon="11.3776417"><ele>759.6666666666666</ele><time>2026-03-28T11:20:15.954Z</time></trkpt><trkpt lat="43.5689119" lon="11.3777027"><ele>757.0</ele><time>2026-03-28T11:20:17.953Z</time></trkpt><trkpt lat="43.5689838" lon="11.3777669"><ele>754.3333333333333</ele><time>2026-03-28T11:20:20.953Z</time></trkpt><trkpt lat="43.5690373" lon="11.3778147"><ele>751.6666666666666</ele><time>2026-03-28T11:20:22.953Z</time></trkpt><trkpt lat="43.5690966" lon="11.3778468"><ele>749.0</ele><time>2026-03-28T11:20:24.952Z</time></trkpt><trkpt lat="43.5691716" lon="11.3778865"><ele>749.0</ele><time>2026-03-28T11:20:26.952Z</time></trkpt><trkpt lat="43.5692505" lon="11.3779455"><ele>749.0</ele><time>2026-03-28T11:20:29.951Z</time></trkpt><trkpt lat="43.5693247" lon="11.3779297"><ele>749.0</ele><time>2026-03-28T11:20:31.953Z</time></trkpt><trkpt lat="43.5693913" lon="11.3778955"><ele>749.0</ele><time>2026-03-28T11:20:33.952Z</time></trkpt><trkpt lat="43.5694558" lon="11.3778581"><ele>749.0</ele><time>2026-03-28T11:20:38.952Z</time></trkpt><trkpt lat="43.5695372" lon="11.3778036"><ele>749.0</ele><time>2026-03-28T11:20:40.954Z</time></trkpt><trkpt lat="43.569599" lon="11.3777558"><ele>748.2</ele><time>2026-03-28T11:20:41.953Z</time></trkpt><trkpt lat="43.5696822" lon="11.3776962"><ele>747.4000000000001</ele><time>2026-03-28T11:20:42.954Z</time></trkpt><trkpt lat="43.5697704" lon="11.3776281"><ele>746.6</ele><time>2026-03-28T11:20:43.953Z</time></trkpt><trkpt lat="43.5698705" lon="11.3775648"><ele>745.8</ele><time>2026-03-28T11:20:44.953Z</time></trkpt><trkpt lat="43.5699883" lon="11.3774941"><ele>745.0</ele><time>2026-03-28T11:20:45.954Z</time></trkpt><trkpt lat="43.5701074" lon="11.3774204"><ele>745.0</ele><time>2026-03-28T11:20:46.953Z</time></trkpt><trkpt lat="43.5702351" lon="11.3773389"><ele>745.0</ele><time>2026-03-28T11:20:47.952Z</time></trkpt><trkpt lat="43.5703813" lon="11.3772466"><ele>745.0</ele><time>2026-03-28T11:20:48.953Z</time></trkpt><trkpt lat="43.5705277" lon="11.3771587"><ele>746.0</ele><time>2026-03-28T11:20:49.953Z</time></trkpt><trkpt lat="43.5706607" lon="11.37708"><ele>747.0</ele><time>2026-03-28T11:20:50.953Z</time></trkpt><trkpt lat="43.5707843" lon="11.3770174"><ele>748.0</ele><time>2026-03-28T11:20:51.954Z</time></trkpt><trkpt lat="43.5709132" lon="11.3769777"><ele>749.0</ele><time>2026-03-28T11:20:52.953Z</time></trkpt><trkpt lat="43.5710565" lon="11.376948"><ele>749.6666666666666</ele><time>2026-03-28T11:20:53.954Z</time></trkpt><trkpt lat="43.5712142" lon="11.3769162"><ele>750.3333333333334</ele><time>2026-03-28T11:20:54.953Z</time></trkpt><trkpt lat="43.5713817" lon="11.376869"><ele>751.0</ele><time>2026-03-28T11:20:55.951Z</time></trkpt><trkpt lat="43.5715511" lon="11.376803"><ele>751.0</ele><time>2026-03-28T11:20:56.953Z</time></trkpt><trkpt lat="43.571726" lon="11.3767209"><ele>751.0</ele><time>2026-03-28T11:20:57.953Z</time></trkpt><trkpt lat="43.5719015" lon="11.3766352"><ele>751.0</ele><time>2026-03-28T11:20:58.953Z</time></trkpt><trkpt lat="43.5720744" lon="11.3765596"><ele>750.0</ele><time>2026-03-28T11:20:59.952Z</time></trkpt><trkpt lat="43.5722399" lon="11.3764937"><ele>749.0</ele><time>2026-03-28T11:21:00.953Z</time></trkpt><trkpt lat="43.5723913" lon="11.3764242"><ele>748.0</ele><time>2026-03-28T11:21:01.954Z</time></trkpt><trkpt lat="43.572544" lon="11.3763573"><ele>746.3333333333334</ele><time>2026-03-28T11:21:02.954Z</time></trkpt><trkpt lat="43.572703" lon="11.3762886"><ele>744.6666666666666</ele><time>2026-03-28T11:21:03.953Z</time></trkpt><trkpt lat="43.5728641" lon="11.3762445"><ele>743.0</ele><time>2026-03-28T11:21:04.954Z</time></trkpt><trkpt lat="43.5730105" lon="11.3761989"><ele>742.3333333333333</ele><time>2026-03-28T11:21:05.953Z</time></trkpt><trkpt lat="43.5731678" lon="11.3761237"><ele>741.6666666666666</ele><time>2026-03-28T11:21:06.953Z</time></trkpt><trkpt lat="43.5733243" lon="11.3760338"><ele>741.0</ele><time>2026-03-28T11:21:07.952Z</time></trkpt><trkpt lat="43.5734921" lon="11.3759293"><ele>741.0</ele><time>2026-03-28T11:21:08.952Z</time></trkpt><trkpt lat="43.5736573" lon="11.375825"><ele>741.0</ele><time>2026-03-28T11:21:09.953Z</time></trkpt><trkpt lat="43.573812" lon="11.3757347"><ele>741.0</ele><time>2026-03-28T11:21:10.953Z</time></trkpt><trkpt lat="43.5739597" lon="11.3756602"><ele>742.25</ele><time>2026-03-28T11:21:11.953Z</time></trkpt><trkpt lat="43.5740959" lon="11.3755851"><ele>743.5</ele><time>2026-03-28T11:21:12.952Z</time></trkpt><trkpt lat="43.574226" lon="11.3755124"><ele>744.75</ele><time>2026-03-28T11:21:13.953Z</time></trkpt><trkpt lat="43.574349" lon="11.3754326"><ele>746.0</ele><time>2026-03-28T11:21:14.954Z</time></trkpt><trkpt lat="43.5744515" lon="11.3753391"><ele>743.0</ele><time>2026-03-28T11:21:15.953Z</time></trkpt><trkpt lat="43.5745493" lon="11.3752298"><ele>740.0</ele><time>2026-03-28T11:21:16.954Z</time></trkpt><trkpt lat="43.5746534" lon="11.375098"><ele>737.0</ele><time>2026-03-28T11:21:17.953Z</time></trkpt><trkpt lat="43.5747606" lon="11.374943"><ele>734.0</ele><time>2026-03-28T11:21:18.954Z</time></trkpt><trkpt lat="43.5748631" lon="11.3747869"><ele>731.0</ele><time>2026-03-28T11:21:19.953Z</time></trkpt><trkpt lat="43.57498" lon="11.3746299"><ele>728.0</ele><time>2026-03-28T11:21:20.954Z</time></trkpt><trkpt lat="43.5750952" lon="11.3744702"><ele>725.0</ele><time>2026-03-28T11:21:21.952Z</time></trkpt><trkpt lat="43.5752023" lon="11.3743239"><ele>725.0</ele><time>2026-03-28T11:21:22.954Z</time></trkpt><trkpt lat="43.575307" lon="11.3741828"><ele>725.0</ele><time>2026-03-28T11:21:23.954Z</time></trkpt><trkpt lat="43.5754011" lon="11.3740461"><ele>725.0</ele><time>2026-03-28T11:21:24.953Z</time></trkpt><trkpt lat="43.5754953" lon="11.3739148"><ele>725.0</ele><time>2026-03-28T11:21:25.953Z</time></trkpt><trkpt lat="43.5755952" lon="11.3738035"><ele>724.5</ele><time>2026-03-28T11:21:26.952Z</time></trkpt><trkpt lat="43.5756941" lon="11.3737113"><ele>724.0</ele><time>2026-03-28T11:21:27.953Z</time></trkpt><trkpt lat="43.5758038" lon="11.3736345"><ele>723.5</ele><time>2026-03-28T11:21:28.954Z</time></trkpt><trkpt lat="43.5759361" lon="11.373573"><ele>723.0</ele><time>2026-03-28T11:21:29.953Z</time></trkpt><trkpt lat="43.5760757" lon="11.3735386"><ele>724.25</ele><time>2026-03-28T11:21:30.954Z</time></trkpt><trkpt lat="43.5762143" lon="11.3735372"><ele>725.5</ele><time>2026-03-28T11:21:31.952Z</time></trkpt><trkpt lat="43.576358" lon="11.3735617"><ele>726.75</ele><time>2026-03-28T11:21:32.952Z</time></trkpt><trkpt lat="43.5765021" lon="11.3735972"><ele>728.0</ele><time>2026-03-28T11:21:33.952Z</time></trkpt><trkpt lat="43.5766409" lon="11.3736211"><ele>728.0</ele><time>2026-03-28T11:21:34.952Z</time></trkpt><trkpt lat="43.5767678" lon="11.3736441"><ele>728.0</ele><time>2026-03-28T11:21:35.953Z</time></trkpt><trkpt lat="43.5768785" lon="11.3736322"><ele>728.0</ele><time>2026-03-28T11:21:36.953Z</time></trkpt><trkpt lat="43.5769866" lon="11.3736028"><ele>728.0</ele><time>2026-03-28T11:21:37.952Z</time></trkpt><trkpt lat="43.5771067" lon="11.3735484"><ele>727.25</ele><time>2026-03-28T11:21:38.953Z</time></trkpt><trkpt lat="43.5772337" lon="11.3734971"><ele>726.5</ele><time>2026-03-28T11:21:39.954Z</time></trkpt><trkpt lat="43.5773703" lon="11.3734769"><ele>725.75</ele><time>2026-03-28T11:21:40.953Z</time></trkpt><trkpt lat="43.5775109" lon="11.373474"><ele>725.0</ele><time>2026-03-28T11:21:41.952Z</time></trkpt><trkpt lat="43.5776468" lon="11.3734584"><ele>725.0</ele><time>2026-03-28T11:21:42.953Z</time></trkpt><trkpt lat="43.5777616" lon="11.3734345"><ele>725.0</ele><time>2026-03-28T11:21:43.952Z</time></trkpt><trkpt lat="43.5778372" lon="11.3733852"><ele>725.0</ele><time>2026-03-28T11:21:44.952Z</time></trkpt><trkpt lat="43.5779033" lon="11.3733179"><ele>725.0</ele><time>2026-03-28T11:21:45.953Z</time></trkpt><trkpt lat="43.5779654" lon="11.373231"><ele>725.0</ele><time>2026-03-28T11:21:46.954Z</time></trkpt><trkpt lat="43.5780244" lon="11.373117"><ele>724.25</ele><time>2026-03-28T11:21:47.953Z</time></trkpt><trkpt lat="43.5780844" lon="11.3729935"><ele>723.5</ele><time>2026-03-28T11:21:48.953Z</time></trkpt><trkpt lat="43.5781531" lon="11.372867"><ele>722.75</ele><time>2026-03-28T11:21:49.953Z</time></trkpt><trkpt lat="43.578234" lon="11.3727308"><ele>722.0</ele><time>2026-03-28T11:21:50.954Z</time></trkpt><trkpt lat="43.5783376" lon="11.3726111"><ele>722.0</ele><time>2026-03-28T11:21:51.953Z</time></trkpt><trkpt lat="43.5784511" lon="11.3724911"><ele>722.0</ele><time>2026-03-28T11:21:52.954Z</time></trkpt><trkpt lat="43.5785648" lon="11.3723804"><ele>722.0</ele><time>2026-03-28T11:21:53.953Z</time></trkpt><trkpt lat="43.5786765" lon="11.3722841"><ele>722.0</ele><time>2026-03-28T11:21:54.953Z</time></trkpt><trkpt lat="43.5787924" lon="11.3722027"><ele>718.75</ele><time>2026-03-28T11:21:55.952Z</time></trkpt><trkpt lat="43.5788955" lon="11.3721317"><ele>715.5</ele><time>2026-03-28T11:21:56.951Z</time></trkpt><trkpt lat="43.578992" lon="11.3720506"><ele>712.25</ele><time>2026-03-28T11:21:57.951Z</time></trkpt><trkpt lat="43.5790854" lon="11.3719413"><ele>709.0</ele><time>2026-03-28T11:21:58.952Z</time></trkpt><trkpt lat="43.5791646" lon="11.3718347"><ele>709.0</ele><time>2026-03-28T11:21:59.953Z</time></trkpt><trkpt lat="43.5792453" lon="11.3717242"><ele>709.0</ele><time>2026-03-28T11:22:00.953Z</time></trkpt><trkpt lat="43.5793315" lon="11.3716291"><ele>709.0</ele><time>2026-03-28T11:22:01.954Z</time></trkpt><trkpt lat="43.5794218" lon="11.3715529"><ele>709.0</ele><time>2026-03-28T11:22:02.954Z</time></trkpt><trkpt lat="43.579528" lon="11.3715021"><ele>709.0</ele><time>2026-03-28T11:22:03.952Z</time></trkpt><trkpt lat="43.5796335" lon="11.3714851"><ele>709.6</ele><time>2026-03-28T11:22:04.953Z</time></trkpt><trkpt lat="43.5797375" lon="11.3714723"><ele>710.2</ele><time>2026-03-28T11:22:05.952Z</time></trkpt><trkpt lat="43.579839" lon="11.3714354"><ele>710.8000000000001</ele><time>2026-03-28T11:22:06.953Z</time></trkpt><trkpt lat="43.579941" lon="11.3713665"><ele>711.4000000000001</ele><time>2026-03-28T11:22:07.952Z</time></trkpt><trkpt lat="43.5800357" lon="11.3712742"><ele>712.0</ele><time>2026-03-28T11:22:08.953Z</time></trkpt><trkpt lat="43.5801142" lon="11.3711722"><ele>709.0</ele><time>2026-03-28T11:22:09.954Z</time></trkpt><trkpt lat="43.5801859" lon="11.3710729"><ele>706.0</ele><time>2026-03-28T11:22:10.953Z</time></trkpt><trkpt lat="43.5802552" lon="11.3710028"><ele>703.0</ele><time>2026-03-28T11:22:11.953Z</time></trkpt><trkpt lat="43.5803289" lon="11.3709549"><ele>700.0</ele><time>2026-03-28T11:22:12.953Z</time></trkpt><trkpt lat="43.5803988" lon="11.3709578"><ele>697.0</ele><time>2026-03-28T11:22:13.952Z</time></trkpt><trkpt lat="43.5804858" lon="11.3710009"><ele>694.0</ele><time>2026-03-28T11:22:14.953Z</time></trkpt><trkpt lat="43.5805738" lon="11.3710598"><ele>692.75</ele><time>2026-03-28T11:22:15.953Z</time></trkpt><trkpt lat="43.5806696" lon="11.3711382"><ele>691.5</ele><time>2026-03-28T11:22:16.953Z</time></trkpt><trkpt lat="43.5807736" lon="11.3711935"><ele>690.25</ele><time>2026-03-28T11:22:17.952Z</time></trkpt><trkpt lat="43.5808973" lon="11.3712344"><ele>689.0</ele><time>2026-03-28T11:22:18.953Z</time></trkpt><trkpt lat="43.5810259" lon="11.3712567"><ele>689.0</ele><time>2026-03-28T11:22:19.952Z</time></trkpt><trkpt lat="43.5811642" lon="11.3712548"><ele>689.0</ele><time>2026-03-28T11:22:20.953Z</time></trkpt><trkpt lat="43.5812956" lon="11.3712438"><ele>689.0</ele><time>2026-03-28T11:22:21.953Z</time></trkpt><trkpt lat="43.5814416" lon="11.3712317"><ele>689.0</ele><time>2026-03-28T11:22:22.953Z</time></trkpt><trkpt lat="43.5815772" lon="11.3712084"><ele>686.5</ele><time>2026-03-28T11:22:23.954Z</time></trkpt><trkpt lat="43.581709" lon="11.3711827"><ele>684.0</ele><time>2026-03-28T11:22:24.953Z</time></trkpt><trkpt lat="43.5818377" lon="11.3711545"><ele>681.5</ele><time>2026-03-28T11:22:25.952Z</time></trkpt><trkpt lat="43.58196" lon="11.3711166"><ele>679.0</ele><time>2026-03-28T11:22:26.954Z</time></trkpt><trkpt lat="43.5820796" lon="11.3710807"><ele>676.75</ele><time>2026-03-28T11:22:27.954Z</time></trkpt><trkpt lat="43.5821976" lon="11.3710391"><ele>674.5</ele><time>2026-03-28T11:22:28.954Z</time></trkpt><trkpt lat="43.5823087" lon="11.3709946"><ele>672.25</ele><time>2026-03-28T11:22:29.953Z</time></trkpt><trkpt lat="43.5824206" lon="11.3709429"><ele>670.0</ele><time>2026-03-28T11:22:30.953Z</time></trkpt><trkpt lat="43.5825334" lon="11.3708919"><ele>670.0</ele><time>2026-03-28T11:22:31.953Z</time></trkpt><trkpt lat="43.5826519" lon="11.370833"><ele>670.0</ele><time>2026-03-28T11:22:32.953Z</time></trkpt><trkpt lat="43.5827686" lon="11.3707526"><ele>670.0</ele><time>2026-03-28T11:22:33.952Z</time></trkpt><trkpt lat="43.5828796" lon="11.3706646"><ele>670.0</ele><time>2026-03-28T11:22:34.953Z</time></trkpt><trkpt lat="43.5829777" lon="11.3705724"><ele>668.25</ele><time>2026-03-28T11:22:35.953Z</time></trkpt><trkpt lat="43.583074" lon="11.3704756"><ele>666.5</ele><time>2026-03-28T11:22:36.953Z</time></trkpt><trkpt lat="43.5831652" lon="11.3703721"><ele>664.75</ele><time>2026-03-28T11:22:37.952Z</time></trkpt><trkpt lat="43.5832512" lon="11.3702714"><ele>663.0</ele><time>2026-03-28T11:22:38.953Z</time></trkpt><trkpt lat="43.5833316" lon="11.3701826"><ele>663.0</ele><time>2026-03-28T11:22:39.952Z</time></trkpt><trkpt lat="43.583417" lon="11.3700897"><ele>663.0</ele><time>2026-03-28T11:22:40.954Z</time></trkpt><trkpt lat="43.583499" lon="11.3699957"><ele>663.0</ele><time>2026-03-28T11:22:41.953Z</time></trkpt><trkpt lat="43.5835732" lon="11.3699043"><ele>663.0</ele><time>2026-03-28T11:22:42.951Z</time></trkpt><trkpt lat="43.5836435" lon="11.3698146"><ele>663.0</ele><time>2026-03-28T11:22:43.954Z</time></trkpt><trkpt lat="43.5837155" lon="11.369732"><ele>662.2</ele><time>2026-03-28T11:22:44.954Z</time></trkpt><trkpt lat="43.5837925" lon="11.3696447"><ele>661.4</ele><time>2026-03-28T11:22:45.953Z</time></trkpt><trkpt lat="43.5838747" lon="11.369564"><ele>660.6</ele><time>2026-03-28T11:22:46.952Z</time></trkpt><trkpt lat="43.5839594" lon="11.3694816"><ele>659.8000000000001</ele><time>2026-03-28T11:22:47.952Z</time></trkpt><trkpt lat="43.5840446" lon="11.3693836"><ele>659.0</ele><time>2026-03-28T11:22:48.953Z</time></trkpt><trkpt lat="43.5841396" lon="11.3692775"><ele>659.0</ele><time>2026-03-28T11:22:49.954Z</time></trkpt><trkpt lat="43.5842397" lon="11.3691798"><ele>659.0</ele><time>2026-03-28T11:22:50.952Z</time></trkpt><trkpt lat="43.58434" lon="11.3690862"><ele>659.0</ele><time>2026-03-28T11:22:51.952Z</time></trkpt><trkpt lat="43.5844461" lon="11.3689836"><ele>659.0</ele><time>2026-03-28T11:22:52.953Z</time></trkpt><trkpt lat="43.5845559" lon="11.3688801"><ele>656.0</ele><time>2026-03-28T11:22:53.954Z</time></trkpt><trkpt lat="43.5846746" lon="11.3687707"><ele>653.0</ele><time>2026-03-28T11:22:54.954Z</time></trkpt><trkpt lat="43.5847965" lon="11.3686547"><ele>650.0</ele><time>2026-03-28T11:22:55.954Z</time></trkpt><trkpt lat="43.584912" lon="11.3685466"><ele>647.0</ele><time>2026-03-28T11:22:56.953Z</time></trkpt><trkpt lat="43.5850227" lon="11.3684451"><ele>647.0</ele><time>2026-03-28T11:22:57.953Z</time></trkpt><trkpt lat="43.58512" lon="11.3683529"><ele>647.0</ele><time>2026-03-28T11:22:58.952Z</time></trkpt><trkpt lat="43.5852088" lon="11.3682788"><ele>647.0</ele><time>2026-03-28T11:22:59.952Z</time></trkpt><trkpt lat="43.5852939" lon="11.3682043"><ele>647.0</ele><time>2026-03-28T11:23:00.954Z</time></trkpt><trkpt lat="43.5853557" lon="11.3681083"><ele>647.0</ele><time>2026-03-28T11:23:01.954Z</time></trkpt><trkpt lat="43.5853918" lon="11.3679998"><ele>646.2</ele><time>2026-03-28T11:23:02.953Z</time></trkpt><trkpt lat="43.5854004" lon="11.3678814"><ele>645.4000000000001</ele><time>2026-03-28T11:23:03.954Z</time></trkpt><trkpt lat="43.5853887" lon="11.3677351"><ele>644.5999999999999</ele><time>2026-03-28T11:23:04.954Z</time></trkpt><trkpt lat="43.5853612" lon="11.3675693"><ele>643.8</ele><time>2026-03-28T11:23:05.951Z</time></trkpt><trkpt lat="43.5853447" lon="11.3673983"><ele>643.0</ele><time>2026-03-28T11:23:06.953Z</time></trkpt><trkpt lat="43.5853491" lon="11.3671912"><ele>637.6666666666667</ele><time>2026-03-28T11:23:07.954Z</time></trkpt><trkpt lat="43.5853675" lon="11.3669709"><ele>632.3333333333334</ele><time>2026-03-28T11:23:08.953Z</time></trkpt><trkpt lat="43.5853797" lon="11.3667458"><ele>627.0</ele><time>2026-03-28T11:23:09.954Z</time></trkpt><trkpt lat="43.5854071" lon="11.366524"><ele>627.0</ele><time>2026-03-28T11:23:10.953Z</time></trkpt><trkpt lat="43.5854276" lon="11.3663037"><ele>627.0</ele><time>2026-03-28T11:23:11.952Z</time></trkpt><trkpt lat="43.5854517" lon="11.3660994"><ele>627.0</ele><time>2026-03-28T11:23:12.954Z</time></trkpt><trkpt lat="43.5854582" lon="11.36589"><ele>627.0</ele><time>2026-03-28T11:23:13.951Z</time></trkpt><trkpt lat="43.5854616" lon="11.3656879"><ele>627.0</ele><time>2026-03-28T11:23:14.954Z</time></trkpt><trkpt lat="43.5854603" lon="11.3654873"><ele>627.0</ele><time>2026-03-28T11:23:15.952Z</time></trkpt><trkpt lat="43.5854619" lon="11.3653149"><ele>627.0</ele><time>2026-03-28T11:23:16.954Z</time></trkpt><trkpt lat="43.5854567" lon="11.3651495"><ele>627.2</ele><time>2026-03-28T11:23:17.953Z</time></trkpt><trkpt lat="43.5854334" lon="11.3649964"><ele>627.4000000000001</ele><time>2026-03-28T11:23:18.954Z</time></trkpt><trkpt lat="43.5853981" lon="11.3648547"><ele>627.5999999999999</ele><time>2026-03-28T11:23:19.954Z</time></trkpt><trkpt lat="43.5853544" lon="11.3647209"><ele>627.8</ele><time>2026-03-28T11:23:20.955Z</time></trkpt><trkpt lat="43.5853062" lon="11.3646115"><ele>628.0</ele><time>2026-03-28T11:23:21.953Z</time></trkpt><trkpt lat="43.5852662" lon="11.3644938"><ele>627.0</ele><time>2026-03-28T11:23:22.953Z</time></trkpt><trkpt lat="43.585244" lon="11.3643792"><ele>626.0</ele><time>2026-03-28T11:23:23.952Z</time></trkpt><trkpt lat="43.5852423" lon="11.3642581"><ele>625.0</ele><time>2026-03-28T11:23:24.954Z</time></trkpt><trkpt lat="43.585263" lon="11.3641423"><ele>624.0</ele><time>2026-03-28T11:23:25.952Z</time></trkpt><trkpt lat="43.5853064" lon="11.3640272"><ele>623.0</ele><time>2026-03-28T11:23:26.952Z</time></trkpt><trkpt lat="43.5853687" lon="11.3639167"><ele>620.4</ele><time>2026-03-28T11:23:27.954Z</time></trkpt><trkpt lat="43.5854345" lon="11.3638194"><ele>617.8</ele><time>2026-03-28T11:23:28.953Z</time></trkpt><trkpt lat="43.5854971" lon="11.3637232"><ele>615.2</ele><time>2026-03-28T11:23:29.953Z</time></trkpt><trkpt lat="43.5855546" lon="11.3636211"><ele>612.6</ele><time>2026-03-28T11:23:30.953Z</time></trkpt><trkpt lat="43.5856111" lon="11.363524"><ele>610.0</ele><time>2026-03-28T11:23:31.953Z</time></trkpt><trkpt lat="43.5856637" lon="11.3634211"><ele>610.0</ele><time>2026-03-28T11:23:32.954Z</time></trkpt><trkpt lat="43.5857053" lon="11.3633049"><ele>610.0</ele><time>2026-03-28T11:23:33.953Z</time></trkpt><trkpt lat="43.5857344" lon="11.3631783"><ele>610.0</ele><time>2026-03-28T11:23:34.954Z</time></trkpt><trkpt lat="43.5857506" lon="11.3630513"><ele>610.0</ele><time>2026-03-28T11:23:35.952Z</time></trkpt><trkpt lat="43.5857745" lon="11.3629151"><ele>610.0</ele><time>2026-03-28T11:23:36.953Z</time></trkpt><trkpt lat="43.5857938" lon="11.3627884"><ele>607.2</ele><time>2026-03-28T11:23:37.953Z</time></trkpt><trkpt lat="43.5858119" lon="11.3626577"><ele>604.4</ele><time>2026-03-28T11:23:38.953Z</time></trkpt><trkpt lat="43.5858357" lon="11.3625153"><ele>601.6</ele><time>2026-03-28T11:23:39.954Z</time></trkpt><trkpt lat="43.5858579" lon="11.3623841"><ele>598.8</ele><time>2026-03-28T11:23:40.954Z</time></trkpt><trkpt lat="43.5858856" lon="11.3622536"><ele>596.0</ele><time>2026-03-28T11:23:41.954Z</time></trkpt><trkpt lat="43.5859071" lon="11.3621316"><ele>594.4</ele><time>2026-03-28T11:23:42.954Z</time></trkpt><trkpt lat="43.5859292" lon="11.3620097"><ele>592.8</ele><time>2026-03-28T11:23:43.953Z</time></trkpt><trkpt lat="43.5859556" lon="11.3618687"><ele>591.1999999999999</ele><time>2026-03-28T11:23:44.954Z</time></trkpt><trkpt lat="43.5859876" lon="11.3617382"><ele>589.6</ele><time>2026-03-28T11:23:45.954Z</time></trkpt><trkpt lat="43.5860047" lon="11.3616004"><ele>588.0</ele><time>2026-03-28T11:23:46.954Z</time></trkpt><trkpt lat="43.5860222" lon="11.3614685"><ele>586.6</ele><time>2026-03-28T11:23:47.953Z</time></trkpt><trkpt lat="43.5860323" lon="11.3613396"><ele>585.1999999999999</ele><time>2026-03-28T11:23:48.953Z</time></trkpt><trkpt lat="43.5860414" lon="11.361214"><ele>583.8</ele><time>2026-03-28T11:23:49.953Z</time></trkpt><trkpt lat="43.5860562" lon="11.3610728"><ele>582.4</ele><time>2026-03-28T11:23:50.954Z</time></trkpt><trkpt lat="43.5860642" lon="11.3609218"><ele>581.0</ele><time>2026-03-28T11:23:51.953Z</time></trkpt><trkpt lat="43.5860862" lon="11.3607569"><ele>581.0</ele><time>2026-03-28T11:23:52.952Z</time></trkpt><trkpt lat="43.5861208" lon="11.3605912"><ele>581.0</ele><time>2026-03-28T11:23:53.953Z</time></trkpt><trkpt lat="43.5861556" lon="11.3604253"><ele>581.0</ele><time>2026-03-28T11:23:54.953Z</time></trkpt><trkpt lat="43.5861883" lon="11.3602591"><ele>581.0</ele><time>2026-03-28T11:23:55.953Z</time></trkpt><trkpt lat="43.5862123" lon="11.3601043"><ele>580.4</ele><time>2026-03-28T11:23:56.952Z</time></trkpt><trkpt lat="43.5862238" lon="11.3599617"><ele>579.8</ele><time>2026-03-28T11:23:57.953Z</time></trkpt><trkpt lat="43.5862267" lon="11.3598287"><ele>579.1999999999999</ele><time>2026-03-28T11:23:58.953Z</time></trkpt><trkpt lat="43.5862138" lon="11.359715"><ele>578.6</ele><time>2026-03-28T11:23:59.954Z</time></trkpt><trkpt lat="43.5861719" lon="11.3596062"><ele>578.0</ele><time>2026-03-28T11:24:00.952Z</time></trkpt><trkpt lat="43.5861227" lon="11.3594931"><ele>578.0</ele><time>2026-03-28T11:24:01.953Z</time></trkpt><trkpt lat="43.5860615" lon="11.3593736"><ele>578.0</ele><time>2026-03-28T11:24:02.954Z</time></trkpt><trkpt lat="43.5859973" lon="11.3592248"><ele>578.0</ele><time>2026-03-28T11:24:03.954Z</time></trkpt><trkpt lat="43.5859435" lon="11.359085"><ele>578.0</ele><time>2026-03-28T11:24:04.954Z</time></trkpt><trkpt lat="43.5858839" lon="11.3589535"><ele>578.0</ele><time>2026-03-28T11:24:05.952Z</time></trkpt><trkpt lat="43.5858331" lon="11.358818"><ele>578.0</ele><time>2026-03-28T11:24:06.953Z</time></trkpt><trkpt lat="43.5857985" lon="11.358676"><ele>578.0</ele><time>2026-03-28T11:24:07.953Z</time></trkpt><trkpt lat="43.5857798" lon="11.3585263"><ele>578.0</ele><time>2026-03-28T11:24:08.954Z</time></trkpt><trkpt lat="43.5857952" lon="11.3583561"><ele>578.0</ele><time>2026-03-28T11:24:09.954Z</time></trkpt><trkpt lat="43.5858351" lon="11.3581624"><ele>578.0</ele><time>2026-03-28T11:24:10.954Z</time></trkpt><trkpt lat="43.5858829" lon="11.3579511"><ele>578.0</ele><time>2026-03-28T11:24:11.953Z</time></trkpt><trkpt lat="43.5859328" lon="11.3577341"><ele>577.3333333333333</ele><time>2026-03-28T11:24:12.954Z</time></trkpt><trkpt lat="43.5859809" lon="11.3575049"><ele>576.6666666666666</ele><time>2026-03-28T11:24:13.955Z</time></trkpt><trkpt lat="43.586031" lon="11.3572882"><ele>576.0</ele><time>2026-03-28T11:24:14.953Z</time></trkpt><trkpt lat="43.5860846" lon="11.3570805"><ele>574.3333333333334</ele><time>2026-03-28T11:24:15.954Z</time></trkpt><trkpt lat="43.5861523" lon="11.3568967"><ele>572.6666666666667</ele><time>2026-03-28T11:24:16.953Z</time></trkpt><trkpt lat="43.5862388" lon="11.356725"><ele>571.0</ele><time>2026-03-28T11:24:17.954Z</time></trkpt><trkpt lat="43.5863508" lon="11.3565747"><ele>570.0</ele><time>2026-03-28T11:24:18.954Z</time></trkpt><trkpt lat="43.5864748" lon="11.3564168"><ele>569.0</ele><time>2026-03-28T11:24:19.953Z</time></trkpt><trkpt lat="43.5865853" lon="11.3562626"><ele>568.0</ele><time>2026-03-28T11:24:20.953Z</time></trkpt><trkpt lat="43.5866858" lon="11.356082"><ele>568.0</ele><time>2026-03-28T11:24:21.952Z</time></trkpt><trkpt lat="43.5867814" lon="11.3558954"><ele>568.0</ele><time>2026-03-28T11:24:22.953Z</time></trkpt><trkpt lat="43.5868846" lon="11.3557368"><ele>568.0</ele><time>2026-03-28T11:24:23.954Z</time></trkpt><trkpt lat="43.5869973" lon="11.3555846"><ele>566.5</ele><time>2026-03-28T11:24:24.953Z</time></trkpt><trkpt lat="43.5871007" lon="11.3554656"><ele>565.0</ele><time>2026-03-28T11:24:25.954Z</time></trkpt><trkpt lat="43.5871992" lon="11.3553526"><ele>563.5</ele><time>2026-03-28T11:24:26.952Z</time></trkpt><trkpt lat="43.5872793" lon="11.3552317"><ele>562.0</ele><time>2026-03-28T11:24:27.954Z</time></trkpt><trkpt lat="43.5873346" lon="11.3551125"><ele>562.0</ele><time>2026-03-28T11:24:28.952Z</time></trkpt><trkpt lat="43.5873731" lon="11.3549674"><ele>562.0</ele><time>2026-03-28T11:24:29.953Z</time></trkpt><trkpt lat="43.5874002" lon="11.354802"><ele>562.0</ele><time>2026-03-28T11:24:30.954Z</time></trkpt><trkpt lat="43.5874127" lon="11.3546179"><ele>562.0</ele><time>2026-03-28T11:24:31.954Z</time></trkpt><trkpt lat="43.5874215" lon="11.3544258"><ele>562.25</ele><time>2026-03-28T11:24:32.954Z</time></trkpt><trkpt lat="43.5874353" lon="11.3542487"><ele>562.5</ele><time>2026-03-28T11:24:33.953Z</time></trkpt><trkpt lat="43.5874297" lon="11.3540884"><ele>562.75</ele><time>2026-03-28T11:24:34.953Z</time></trkpt><trkpt lat="43.5874105" lon="11.3539452"><ele>563.0</ele><time>2026-03-28T11:24:35.954Z</time></trkpt><trkpt lat="43.587369" lon="11.3538101"><ele>563.5</ele><time>2026-03-28T11:24:36.954Z</time></trkpt><trkpt lat="43.5873024" lon="11.3536796"><ele>564.0</ele><time>2026-03-28T11:24:37.954Z</time></trkpt><trkpt lat="43.5872175" lon="11.3535532"><ele>564.5</ele><time>2026-03-28T11:24:38.953Z</time></trkpt><trkpt lat="43.5871217" lon="11.3534342"><ele>565.0</ele><time>2026-03-28T11:24:39.953Z</time></trkpt><trkpt lat="43.587009" lon="11.3532992"><ele>563.25</ele><time>2026-03-28T11:24:40.953Z</time></trkpt><trkpt lat="43.5869058" lon="11.3531705"><ele>561.5</ele><time>2026-03-28T11:24:41.954Z</time></trkpt><trkpt lat="43.5868074" lon="11.3530552"><ele>559.75</ele><time>2026-03-28T11:24:42.954Z</time></trkpt><trkpt lat="43.5867134" lon="11.3529449"><ele>558.0</ele><time>2026-03-28T11:24:43.953Z</time></trkpt><trkpt lat="43.5866273" lon="11.3528403"><ele>558.0</ele><time>2026-03-28T11:24:44.954Z</time></trkpt><trkpt lat="43.5865442" lon="11.352742"><ele>558.0</ele><time>2026-03-28T11:24:45.953Z</time></trkpt><trkpt lat="43.5864657" lon="11.3526398"><ele>558.0</ele><time>2026-03-28T11:24:46.953Z</time></trkpt><trkpt lat="43.5863899" lon="11.3525327"><ele>558.0</ele><time>2026-03-28T11:24:47.954Z</time></trkpt><trkpt lat="43.5863248" lon="11.352424"><ele>558.0</ele><time>2026-03-28T11:24:48.953Z</time></trkpt><trkpt lat="43.5862679" lon="11.3523039"><ele>558.0</ele><time>2026-03-28T11:24:49.954Z</time></trkpt><trkpt lat="43.5862242" lon="11.3521774"><ele>558.0</ele><time>2026-03-28T11:24:50.953Z</time></trkpt><trkpt lat="43.5861998" lon="11.3520429"><ele>558.0</ele><time>2026-03-28T11:24:51.953Z</time></trkpt><trkpt lat="43.5861952" lon="11.3519041"><ele>558.0</ele><time>2026-03-28T11:24:52.953Z</time></trkpt><trkpt lat="43.5862079" lon="11.3517562"><ele>558.0</ele><time>2026-03-28T11:24:53.954Z</time></trkpt><trkpt lat="43.5862307" lon="11.3516017"><ele>558.0</ele><time>2026-03-28T11:24:54.954Z</time></trkpt><trkpt lat="43.5862599" lon="11.3514599"><ele>558.0</ele><time>2026-03-28T11:24:55.953Z</time></trkpt><trkpt lat="43.5863037" lon="11.3513315"><ele>558.0</ele><time>2026-03-28T11:24:56.953Z</time></trkpt><trkpt lat="43.5863586" lon="11.3512145"><ele>558.0</ele><time>2026-03-28T11:24:57.953Z</time></trkpt><trkpt lat="43.5864261" lon="11.3511099"><ele>558.0</ele><time>2026-03-28T11:24:58.954Z</time></trkpt><trkpt lat="43.5865061" lon="11.3510217"><ele>556.3333333333334</ele><time>2026-03-28T11:24:59.954Z</time></trkpt><trkpt lat="43.5865802" lon="11.3509517"><ele>554.6666666666666</ele><time>2026-03-28T11:25:00.954Z</time></trkpt><trkpt lat="43.5866492" lon="11.3508875"><ele>553.0</ele><time>2026-03-28T11:25:01.954Z</time></trkpt><trkpt lat="43.5867061" lon="11.3508073"><ele>551.3333333333333</ele><time>2026-03-28T11:25:02.954Z</time></trkpt><trkpt lat="43.5867393" lon="11.3507077"><ele>549.6666666666666</ele><time>2026-03-28T11:25:03.954Z</time></trkpt><trkpt lat="43.5867512" lon="11.3506112"><ele>548.0</ele><time>2026-03-28T11:25:04.953Z</time></trkpt><trkpt lat="43.5867377" lon="11.3504888"><ele>546.5</ele><time>2026-03-28T11:25:05.954Z</time></trkpt><trkpt lat="43.5867101" lon="11.3503526"><ele>545.0</ele><time>2026-03-28T11:25:06.953Z</time></trkpt><trkpt lat="43.5866618" lon="11.3501981"><ele>543.5</ele><time>2026-03-28T11:25:07.953Z</time></trkpt><trkpt lat="43.5866098" lon="11.3500508"><ele>542.0</ele><time>2026-03-28T11:25:08.953Z</time></trkpt><trkpt lat="43.5865538" lon="11.3499105"><ele>542.0</ele><time>2026-03-28T11:25:09.954Z</time></trkpt><trkpt lat="43.5864997" lon="11.349771"><ele>542.0</ele><time>2026-03-28T11:25:10.953Z</time></trkpt><trkpt lat="43.5864594" lon="11.3496371"><ele>542.0</ele><time>2026-03-28T11:25:11.954Z</time></trkpt><trkpt lat="43.5864363" lon="11.349488"><ele>542.0</ele><time>2026-03-28T11:25:12.953Z</time></trkpt><trkpt lat="43.5864294" lon="11.3493174"><ele>540.0</ele><time>2026-03-28T11:25:13.954Z</time></trkpt><trkpt lat="43.5864223" lon="11.3491182"><ele>538.0</ele><time>2026-03-28T11:25:14.954Z</time></trkpt><trkpt lat="43.5864175" lon="11.3489062"><ele>536.0</ele><time>2026-03-28T11:25:15.954Z</time></trkpt><trkpt lat="43.5864073" lon="11.348688"><ele>534.75</ele><time>2026-03-28T11:25:16.953Z</time></trkpt><trkpt lat="43.5864022" lon="11.3484745"><ele>533.5</ele><time>2026-03-28T11:25:17.953Z</time></trkpt><trkpt lat="43.5863909" lon="11.3482685"><ele>532.25</ele><time>2026-03-28T11:25:18.952Z</time></trkpt><trkpt lat="43.5863768" lon="11.3480833"><ele>531.0</ele><time>2026-03-28T11:25:19.953Z</time></trkpt><trkpt lat="43.5863636" lon="11.3479135"><ele>529.4</ele><time>2026-03-28T11:25:20.954Z</time></trkpt><trkpt lat="43.5863268" lon="11.3477573"><ele>527.8</ele><time>2026-03-28T11:25:21.953Z</time></trkpt><trkpt lat="43.5862686" lon="11.3476151"><ele>526.1999999999999</ele><time>2026-03-28T11:25:22.954Z</time></trkpt><trkpt lat="43.5862032" lon="11.3474949"><ele>524.6</ele><time>2026-03-28T11:25:23.953Z</time></trkpt><trkpt lat="43.5861512" lon="11.3473872"><ele>523.0</ele><time>2026-03-28T11:25:24.953Z</time></trkpt><trkpt lat="43.5861106" lon="11.3472942"><ele>519.0</ele><time>2026-03-28T11:25:25.953Z</time></trkpt><trkpt lat="43.5860963" lon="11.3471808"><ele>515.0</ele><time>2026-03-28T11:25:26.954Z</time></trkpt><trkpt lat="43.5860973" lon="11.3470406"><ele>510.99999999999994</ele><time>2026-03-28T11:25:27.953Z</time></trkpt><trkpt lat="43.5860985" lon="11.3468867"><ele>507.0</ele><time>2026-03-28T11:25:28.954Z</time></trkpt><trkpt lat="43.5860885" lon="11.3467317"><ele>503.0</ele><time>2026-03-28T11:25:29.954Z</time></trkpt><trkpt lat="43.5860666" lon="11.346588"><ele>503.0</ele><time>2026-03-28T11:25:30.953Z</time></trkpt><trkpt lat="43.5860202" lon="11.346466"><ele>502.99999999999994</ele><time>2026-03-28T11:25:31.953Z</time></trkpt><trkpt lat="43.5859586" lon="11.3463765"><ele>502.99999999999994</ele><time>2026-03-28T11:25:32.952Z</time></trkpt><trkpt lat="43.5858813" lon="11.3463178"><ele>503.0</ele><time>2026-03-28T11:25:33.953Z</time></trkpt><trkpt lat="43.5857874" lon="11.3462918"><ele>503.0</ele><time>2026-03-28T11:25:34.952Z</time></trkpt><trkpt lat="43.5856704" lon="11.3462896"><ele>504.25</ele><time>2026-03-28T11:25:35.953Z</time></trkpt><trkpt lat="43.5855397" lon="11.346301"><ele>505.5</ele><time>2026-03-28T11:25:36.952Z</time></trkpt><trkpt lat="43.5853935" lon="11.3463514"><ele>506.75</ele><time>2026-03-28T11:25:37.953Z</time></trkpt><trkpt lat="43.5852513" lon="11.3463919"><ele>508.0</ele><time>2026-03-28T11:25:38.954Z</time></trkpt><trkpt lat="43.5851176" lon="11.346421"><ele>505.5</ele><time>2026-03-28T11:25:39.954Z</time></trkpt><trkpt lat="43.5849772" lon="11.3464361"><ele>503.0</ele><time>2026-03-28T11:25:40.954Z</time></trkpt><trkpt lat="43.5848562" lon="11.3464221"><ele>500.5</ele><time>2026-03-28T11:25:41.953Z</time></trkpt><trkpt lat="43.5847504" lon="11.3463913"><ele>498.0</ele><time>2026-03-28T11:25:42.953Z</time></trkpt><trkpt lat="43.5846465" lon="11.3463255"><ele>498.0</ele><time>2026-03-28T11:25:43.953Z</time></trkpt><trkpt lat="43.5845359" lon="11.3462253"><ele>498.0</ele><time>2026-03-28T11:25:44.953Z</time></trkpt><trkpt lat="43.5844252" lon="11.3460973"><ele>498.0</ele><time>2026-03-28T11:25:45.954Z</time></trkpt><trkpt lat="43.584315" lon="11.3459642"><ele>498.0</ele><time>2026-03-28T11:25:46.952Z</time></trkpt><trkpt lat="43.5842188" lon="11.3458223"><ele>495.0</ele><time>2026-03-28T11:25:47.953Z</time></trkpt><trkpt lat="43.5841444" lon="11.3456632"><ele>492.0</ele><time>2026-03-28T11:25:48.953Z</time></trkpt><trkpt lat="43.5840832" lon="11.3454907"><ele>489.0</ele><time>2026-03-28T11:25:49.953Z</time></trkpt><trkpt lat="43.5840377" lon="11.3453198"><ele>486.0</ele><time>2026-03-28T11:25:50.953Z</time></trkpt><trkpt lat="43.5840102" lon="11.345147"><ele>485.8</ele><time>2026-03-28T11:25:51.953Z</time></trkpt><trkpt lat="43.583996" lon="11.3449947"><ele>485.6</ele><time>2026-03-28T11:25:52.953Z</time></trkpt><trkpt lat="43.5840135" lon="11.3448607"><ele>485.4</ele><time>2026-03-28T11:25:53.953Z</time></trkpt><trkpt lat="43.5840608" lon="11.3447557"><ele>485.2</ele><time>2026-03-28T11:25:54.953Z</time></trkpt><trkpt lat="43.584141" lon="11.3446771"><ele>485.0</ele><time>2026-03-28T11:25:55.954Z</time></trkpt><trkpt lat="43.5842231" lon="11.3446318"><ele>485.8</ele><time>2026-03-28T11:25:56.953Z</time></trkpt><trkpt lat="43.584323" lon="11.3446087"><ele>486.6</ele><time>2026-03-28T11:25:57.953Z</time></trkpt><trkpt lat="43.5844344" lon="11.3446016"><ele>487.4</ele><time>2026-03-28T11:25:58.953Z</time></trkpt><trkpt lat="43.5845428" lon="11.3445917"><ele>488.2</ele><time>2026-03-28T11:25:59.953Z</time></trkpt><trkpt lat="43.5846479" lon="11.3445777"><ele>489.0</ele><time>2026-03-28T11:26:00.954Z</time></trkpt><trkpt lat="43.5847414" lon="11.3445501"><ele>489.0</ele><time>2026-03-28T11:26:01.954Z</time></trkpt><trkpt lat="43.5848212" lon="11.344509"><ele>489.0</ele><time>2026-03-28T11:26:02.953Z</time></trkpt><trkpt lat="43.5848745" lon="11.3444337"><ele>489.0</ele><time>2026-03-28T11:26:03.954Z</time></trkpt><trkpt lat="43.5849074" lon="11.3443395"><ele>489.0</ele><time>2026-03-28T11:26:04.953Z</time></trkpt><trkpt lat="43.5849182" lon="11.3442218"><ele>489.0</ele><time>2026-03-28T11:26:05.953Z</time></trkpt><trkpt lat="43.5848953" lon="11.3440901"><ele>489.0</ele><time>2026-03-28T11:26:06.954Z</time></trkpt><trkpt lat="43.5847937" lon="11.3437756"><ele>488.0</ele><time>2026-03-28T11:26:08.952Z</time></trkpt><trkpt lat="43.5847489" lon="11.3436218"><ele>487.0</ele><time>2026-03-28T11:26:09.954Z</time></trkpt><trkpt lat="43.5847193" lon="11.3434768"><ele>486.0</ele><time>2026-03-28T11:26:10.953Z</time></trkpt><trkpt lat="43.5847061" lon="11.3433321"><ele>485.0</ele><time>2026-03-28T11:26:11.954Z</time></trkpt><trkpt lat="43.5847155" lon="11.3431832"><ele>484.0</ele><time>2026-03-28T11:26:12.953Z</time></trkpt><trkpt lat="43.5847443" lon="11.3430216"><ele>482.25</ele><time>2026-03-28T11:26:13.953Z</time></trkpt><trkpt lat="43.5847807" lon="11.3428431"><ele>480.5</ele><time>2026-03-28T11:26:14.953Z</time></trkpt><trkpt lat="43.5848264" lon="11.3426647"><ele>478.75</ele><time>2026-03-28T11:26:15.954Z</time></trkpt><trkpt lat="43.584876" lon="11.3424958"><ele>477.0</ele><time>2026-03-28T11:26:16.954Z</time></trkpt><trkpt lat="43.5849164" lon="11.3423283"><ele>474.8</ele><time>2026-03-28T11:26:17.954Z</time></trkpt><trkpt lat="43.5849512" lon="11.342171"><ele>472.6</ele><time>2026-03-28T11:26:18.952Z</time></trkpt><trkpt lat="43.5849711" lon="11.3420275"><ele>470.40000000000003</ele><time>2026-03-28T11:26:19.951Z</time></trkpt><trkpt lat="43.5849727" lon="11.3418919"><ele>468.20000000000005</ele><time>2026-03-28T11:26:20.954Z</time></trkpt><trkpt lat="43.5849557" lon="11.3417711"><ele>466.0</ele><time>2026-03-28T11:26:21.953Z</time></trkpt><trkpt lat="43.5849126" lon="11.3416553"><ele>466.0</ele><time>2026-03-28T11:26:22.953Z</time></trkpt><trkpt lat="43.5848456" lon="11.3415333"><ele>466.0</ele><time>2026-03-28T11:26:23.952Z</time></trkpt><trkpt lat="43.584756" lon="11.3414009"><ele>466.0</ele><time>2026-03-28T11:26:24.953Z</time></trkpt><trkpt lat="43.5846576" lon="11.3412513"><ele>466.0</ele><time>2026-03-28T11:26:25.954Z</time></trkpt><trkpt lat="43.5845591" lon="11.3410991"><ele>463.0</ele><time>2026-03-28T11:26:26.953Z</time></trkpt><trkpt lat="43.5844595" lon="11.3409536"><ele>460.0</ele><time>2026-03-28T11:26:27.953Z</time></trkpt><trkpt lat="43.5843699" lon="11.3408106"><ele>457.0</ele><time>2026-03-28T11:26:28.953Z</time></trkpt><trkpt lat="43.5842859" lon="11.3406795"><ele>454.0</ele><time>2026-03-28T11:26:29.953Z</time></trkpt><trkpt lat="43.5842116" lon="11.3405608"><ele>453.6666666666667</ele><time>2026-03-28T11:26:30.953Z</time></trkpt><trkpt lat="43.5841587" lon="11.3404517"><ele>453.33333333333337</ele><time>2026-03-28T11:26:31.952Z</time></trkpt><trkpt lat="43.5841234" lon="11.3403451"><ele>453.0</ele><time>2026-03-28T11:26:32.953Z</time></trkpt><trkpt lat="43.5841066" lon="11.3402447"><ele>452.66666666666663</ele><time>2026-03-28T11:26:33.954Z</time></trkpt><trkpt lat="43.5840893" lon="11.3400951"><ele>452.3333333333333</ele><time>2026-03-28T11:26:35.953Z</time></trkpt><trkpt lat="43.5840626" lon="11.3400042"><ele>452.0</ele><time>2026-03-28T11:26:37.954Z</time></trkpt><trkpt lat="43.5840479" lon="11.3398807"><ele>452.0</ele><time>2026-03-28T11:26:40.954Z</time></trkpt><trkpt lat="43.5840101" lon="11.3398006"><ele>452.00000000000006</ele><time>2026-03-28T11:26:47.953Z</time></trkpt><trkpt lat="43.5839608" lon="11.3396632"><ele>452.00000000000006</ele><time>2026-03-28T11:26:49.953Z</time></trkpt><trkpt lat="43.5839098" lon="11.3395507"><ele>452.0</ele><time>2026-03-28T11:26:50.953Z</time></trkpt><trkpt lat="43.5838529" lon="11.3394168"><ele>452.0</ele><time>2026-03-28T11:26:51.953Z</time></trkpt><trkpt lat="43.583784" lon="11.3392731"><ele>449.75</ele><time>2026-03-28T11:26:52.953Z</time></trkpt><trkpt lat="43.5837069" lon="11.3391226"><ele>447.5</ele><time>2026-03-28T11:26:53.953Z</time></trkpt><trkpt lat="43.583623" lon="11.3389756"><ele>445.25</ele><time>2026-03-28T11:26:54.953Z</time></trkpt><trkpt lat="43.5835409" lon="11.3388284"><ele>443.0</ele><time>2026-03-28T11:26:55.954Z</time></trkpt><trkpt lat="43.5834672" lon="11.3386847"><ele>440.75</ele><time>2026-03-28T11:26:56.953Z</time></trkpt><trkpt lat="43.5834091" lon="11.3385353"><ele>438.5</ele><time>2026-03-28T11:26:57.953Z</time></trkpt><trkpt lat="43.583362" lon="11.3383845"><ele>436.25</ele><time>2026-03-28T11:26:58.953Z</time></trkpt><trkpt lat="43.5833158" lon="11.3382212"><ele>434.0</ele><time>2026-03-28T11:26:59.953Z</time></trkpt><trkpt lat="43.5832595" lon="11.3380578"><ele>429.5</ele><time>2026-03-28T11:27:00.953Z</time></trkpt><trkpt lat="43.5832063" lon="11.3378925"><ele>425.0</ele><time>2026-03-28T11:27:01.953Z</time></trkpt><trkpt lat="43.5831568" lon="11.3377363"><ele>420.5</ele><time>2026-03-28T11:27:02.954Z</time></trkpt><trkpt lat="43.5831092" lon="11.3375812"><ele>416.0</ele><time>2026-03-28T11:27:03.954Z</time></trkpt><trkpt lat="43.5830683" lon="11.3374312"><ele>415.99999999999994</ele><time>2026-03-28T11:27:04.953Z</time></trkpt><trkpt lat="43.5830373" lon="11.337296"><ele>416.0</ele><time>2026-03-28T11:27:05.954Z</time></trkpt><trkpt lat="43.5830053" lon="11.3371958"><ele>416.0</ele><time>2026-03-28T11:27:06.953Z</time></trkpt><trkpt lat="43.5829697" lon="11.3371021"><ele>416.0</ele><time>2026-03-28T11:27:07.953Z</time></trkpt><trkpt lat="43.5829289" lon="11.3370313"><ele>415.99999999999994</ele><time>2026-03-28T11:27:08.953Z</time></trkpt><trkpt lat="43.5828723" lon="11.3369913"><ele>416.0</ele><time>2026-03-28T11:27:09.953Z</time></trkpt><trkpt lat="43.5827936" lon="11.3369614"><ele>414.4</ele><time>2026-03-28T11:27:10.954Z</time></trkpt><trkpt lat="43.5826991" lon="11.3369339"><ele>412.8</ele><time>2026-03-28T11:27:11.954Z</time></trkpt><trkpt lat="43.582617" lon="11.3369159"><ele>411.2</ele><time>2026-03-28T11:27:12.953Z</time></trkpt><trkpt lat="43.5825178" lon="11.3368584"><ele>409.59999999999997</ele><time>2026-03-28T11:27:13.954Z</time></trkpt><trkpt lat="43.5824186" lon="11.3367974"><ele>408.0</ele><time>2026-03-28T11:27:14.954Z</time></trkpt><trkpt lat="43.5823195" lon="11.336733"><ele>408.0</ele><time>2026-03-28T11:27:15.952Z</time></trkpt><trkpt lat="43.5822299" lon="11.3366789"><ele>408.0</ele><time>2026-03-28T11:27:16.952Z</time></trkpt><trkpt lat="43.5821339" lon="11.3366447"><ele>408.0</ele><time>2026-03-28T11:27:17.954Z</time></trkpt><trkpt lat="43.5820287" lon="11.3366505"><ele>408.0</ele><time>2026-03-28T11:27:18.954Z</time></trkpt><trkpt lat="43.5819326" lon="11.3366697"><ele>408.0</ele><time>2026-03-28T11:27:19.954Z</time></trkpt><trkpt lat="43.58183" lon="11.3366593"><ele>407.75</ele><time>2026-03-28T11:27:20.954Z</time></trkpt><trkpt lat="43.5817261" lon="11.3366393"><ele>407.5</ele><time>2026-03-28T11:27:21.954Z</time></trkpt><trkpt lat="43.5816279" lon="11.3365615"><ele>407.25</ele><time>2026-03-28T11:27:22.953Z</time></trkpt><trkpt lat="43.5815666" lon="11.3364023"><ele>407.0</ele><time>2026-03-28T11:27:23.954Z</time></trkpt><trkpt lat="43.5814972" lon="11.3362425"><ele>403.25</ele><time>2026-03-28T11:27:24.953Z</time></trkpt><trkpt lat="43.5814423" lon="11.3360818"><ele>399.5</ele><time>2026-03-28T11:27:25.954Z</time></trkpt><trkpt lat="43.581375" lon="11.3359121"><ele>395.75</ele><time>2026-03-28T11:27:26.952Z</time></trkpt><trkpt lat="43.5812972" lon="11.3357441"><ele>392.0</ele><time>2026-03-28T11:27:27.952Z</time></trkpt><trkpt lat="43.5812069" lon="11.3355854"><ele>391.75</ele><time>2026-03-28T11:27:28.954Z</time></trkpt><trkpt lat="43.5811101" lon="11.3354195"><ele>391.5</ele><time>2026-03-28T11:27:29.954Z</time></trkpt><trkpt lat="43.5810236" lon="11.3352596"><ele>391.25</ele><time>2026-03-28T11:27:30.953Z</time></trkpt><trkpt lat="43.5809401" lon="11.3350983"><ele>391.0</ele><time>2026-03-28T11:27:31.953Z</time></trkpt><trkpt lat="43.5808707" lon="11.334929"><ele>391.0</ele><time>2026-03-28T11:27:32.954Z</time></trkpt><trkpt lat="43.5808009" lon="11.3347793"><ele>391.0</ele><time>2026-03-28T11:27:33.954Z</time></trkpt><trkpt lat="43.5807324" lon="11.3346289"><ele>391.0</ele><time>2026-03-28T11:27:34.953Z</time></trkpt><trkpt lat="43.5806597" lon="11.3344751"><ele>391.0</ele><time>2026-03-28T11:27:35.954Z</time></trkpt><trkpt lat="43.5805826" lon="11.3343252"><ele>389.0</ele><time>2026-03-28T11:27:36.953Z</time></trkpt><trkpt lat="43.5805048" lon="11.3341772"><ele>387.0</ele><time>2026-03-28T11:27:37.953Z</time></trkpt><trkpt lat="43.5804184" lon="11.3340356"><ele>385.0</ele><time>2026-03-28T11:27:38.954Z</time></trkpt><trkpt lat="43.5803347" lon="11.3338976"><ele>383.0</ele><time>2026-03-28T11:27:39.954Z</time></trkpt><trkpt lat="43.5802552" lon="11.3337694"><ele>380.4</ele><time>2026-03-28T11:27:40.953Z</time></trkpt><trkpt lat="43.5801888" lon="11.3336541"><ele>377.79999999999995</ele><time>2026-03-28T11:27:41.953Z</time></trkpt><trkpt lat="43.5801366" lon="11.3335403"><ele>375.2</ele><time>2026-03-28T11:27:42.954Z</time></trkpt><trkpt lat="43.5800982" lon="11.3334234"><ele>372.6</ele><time>2026-03-28T11:27:43.954Z</time></trkpt><trkpt lat="43.5800912" lon="11.3333099"><ele>370.0</ele><time>2026-03-28T11:27:44.954Z</time></trkpt><trkpt lat="43.5801026" lon="11.3331864"><ele>370.0</ele><time>2026-03-28T11:27:45.954Z</time></trkpt><trkpt lat="43.5801231" lon="11.3330695"><ele>370.0</ele><time>2026-03-28T11:27:46.954Z</time></trkpt><trkpt lat="43.5801437" lon="11.3329266"><ele>370.0</ele><time>2026-03-28T11:27:47.954Z</time></trkpt><trkpt lat="43.580165" lon="11.3327529"><ele>370.0</ele><time>2026-03-28T11:27:48.954Z</time></trkpt><trkpt lat="43.5801894" lon="11.3325784"><ele>370.0</ele><time>2026-03-28T11:27:49.953Z</time></trkpt><trkpt lat="43.5802192" lon="11.3324007"><ele>368.0</ele><time>2026-03-28T11:27:50.954Z</time></trkpt><trkpt lat="43.5802477" lon="11.3322274"><ele>366.0</ele><time>2026-03-28T11:27:51.953Z</time></trkpt><trkpt lat="43.5802597" lon="11.3320408"><ele>364.0</ele><time>2026-03-28T11:27:52.953Z</time></trkpt><trkpt lat="43.5802444" lon="11.3318382"><ele>362.0</ele><time>2026-03-28T11:27:53.953Z</time></trkpt><trkpt lat="43.5802089" lon="11.3316414"><ele>361.5</ele><time>2026-03-28T11:27:54.953Z</time></trkpt><trkpt lat="43.5801669" lon="11.3314572"><ele>361.0</ele><time>2026-03-28T11:27:55.953Z</time></trkpt><trkpt lat="43.5801369" lon="11.3312832"><ele>360.5</ele><time>2026-03-28T11:27:56.953Z</time></trkpt><trkpt lat="43.5801146" lon="11.3311222"><ele>360.0</ele><time>2026-03-28T11:27:57.954Z</time></trkpt><trkpt lat="43.5801084" lon="11.3309679"><ele>359.25</ele><time>2026-03-28T11:27:58.954Z</time></trkpt><trkpt lat="43.5801106" lon="11.3308134"><ele>358.5</ele><time>2026-03-28T11:27:59.953Z</time></trkpt><trkpt lat="43.5801377" lon="11.3306658"><ele>357.75</ele><time>2026-03-28T11:28:00.954Z</time></trkpt><trkpt lat="43.5801804" lon="11.330525"><ele>357.0</ele><time>2026-03-28T11:28:01.954Z</time></trkpt><trkpt lat="43.5802537" lon="11.3303908"><ele>354.5</ele><time>2026-03-28T11:28:02.954Z</time></trkpt><trkpt lat="43.5803482" lon="11.3302594"><ele>352.0</ele><time>2026-03-28T11:28:03.954Z</time></trkpt><trkpt lat="43.5804518" lon="11.3301276"><ele>349.5</ele><time>2026-03-28T11:28:04.953Z</time></trkpt><trkpt lat="43.5805556" lon="11.3299964"><ele>347.0</ele><time>2026-03-28T11:28:05.953Z</time></trkpt><trkpt lat="43.5806549" lon="11.3298775"><ele>347.0</ele><time>2026-03-28T11:28:06.954Z</time></trkpt><trkpt lat="43.5807482" lon="11.3297557"><ele>347.0</ele><time>2026-03-28T11:28:07.954Z</time></trkpt><trkpt lat="43.5808293" lon="11.3296319"><ele>347.0</ele><time>2026-03-28T11:28:08.954Z</time></trkpt><trkpt lat="43.5808861" lon="11.329507"><ele>347.0</ele><time>2026-03-28T11:28:09.954Z</time></trkpt><trkpt lat="43.5809271" lon="11.3293837"><ele>345.8</ele><time>2026-03-28T11:28:10.954Z</time></trkpt><trkpt lat="43.5809565" lon="11.329267"><ele>344.6</ele><time>2026-03-28T11:28:11.953Z</time></trkpt><trkpt lat="43.5809646" lon="11.3291455"><ele>343.40000000000003</ele><time>2026-03-28T11:28:12.954Z</time></trkpt><trkpt lat="43.5809566" lon="11.3290406"><ele>342.20000000000005</ele><time>2026-03-28T11:28:13.954Z</time></trkpt><trkpt lat="43.5809061" lon="11.3289294"><ele>341.0</ele><time>2026-03-28T11:28:14.954Z</time></trkpt><trkpt lat="43.5808272" lon="11.3288116"><ele>339.5</ele><time>2026-03-28T11:28:15.953Z</time></trkpt><trkpt lat="43.5807373" lon="11.3286793"><ele>338.0</ele><time>2026-03-28T11:28:16.953Z</time></trkpt><trkpt lat="43.5806452" lon="11.3285111"><ele>336.5</ele><time>2026-03-28T11:28:17.954Z</time></trkpt><trkpt lat="43.5805519" lon="11.3283409"><ele>335.0</ele><time>2026-03-28T11:28:18.954Z</time></trkpt><trkpt lat="43.5804406" lon="11.3281619"><ele>331.33333333333337</ele><time>2026-03-28T11:28:19.953Z</time></trkpt><trkpt lat="43.5803249" lon="11.3279927"><ele>327.6666666666667</ele><time>2026-03-28T11:28:20.955Z</time></trkpt><trkpt lat="43.5802241" lon="11.3278177"><ele>324.0</ele><time>2026-03-28T11:28:21.953Z</time></trkpt><trkpt lat="43.5801462" lon="11.3276414"><ele>324.0</ele><time>2026-03-28T11:28:22.955Z</time></trkpt><trkpt lat="43.5800766" lon="11.3274713"><ele>324.0</ele><time>2026-03-28T11:28:23.954Z</time></trkpt><trkpt lat="43.5800234" lon="11.3272952"><ele>324.0</ele><time>2026-03-28T11:28:24.954Z</time></trkpt><trkpt lat="43.5799882" lon="11.3271075"><ele>324.0</ele><time>2026-03-28T11:28:25.953Z</time></trkpt><trkpt lat="43.5799577" lon="11.326913"><ele>323.75</ele><time>2026-03-28T11:28:26.953Z</time></trkpt><trkpt lat="43.5799344" lon="11.3267271"><ele>323.5</ele><time>2026-03-28T11:28:27.952Z</time></trkpt><trkpt lat="43.5799186" lon="11.3265568"><ele>323.25</ele><time>2026-03-28T11:28:28.953Z</time></trkpt><trkpt lat="43.5798995" lon="11.3263999"><ele>323.0</ele><time>2026-03-28T11:28:29.953Z</time></trkpt><trkpt lat="43.5798698" lon="11.3262349"><ele>322.0</ele><time>2026-03-28T11:28:30.954Z</time></trkpt><trkpt lat="43.5798406" lon="11.3260574"><ele>321.0</ele><time>2026-03-28T11:28:31.953Z</time></trkpt><trkpt lat="43.5798071" lon="11.3258745"><ele>320.0</ele><time>2026-03-28T11:28:32.953Z</time></trkpt><trkpt lat="43.5797619" lon="11.3256794"><ele>319.0</ele><time>2026-03-28T11:28:33.954Z</time></trkpt><trkpt lat="43.5797144" lon="11.3254675"><ele>315.0</ele><time>2026-03-28T11:28:34.953Z</time></trkpt><trkpt lat="43.5796702" lon="11.3252615"><ele>311.0</ele><time>2026-03-28T11:28:35.954Z</time></trkpt><trkpt lat="43.5796206" lon="11.3250586"><ele>307.0</ele><time>2026-03-28T11:28:36.953Z</time></trkpt><trkpt lat="43.5795731" lon="11.3248621"><ele>305.0</ele><time>2026-03-28T11:28:37.954Z</time></trkpt><trkpt lat="43.5795396" lon="11.324681"><ele>303.0</ele><time>2026-03-28T11:28:38.954Z</time></trkpt><trkpt lat="43.5795186" lon="11.3245005"><ele>301.0</ele><time>2026-03-28T11:28:39.954Z</time></trkpt><trkpt lat="43.5795254" lon="11.3243155"><ele>299.0</ele><time>2026-03-28T11:28:40.954Z</time></trkpt><trkpt lat="43.5795565" lon="11.3241359"><ele>299.0</ele><time>2026-03-28T11:28:41.953Z</time></trkpt><trkpt lat="43.5795973" lon="11.32396"><ele>299.0</ele><time>2026-03-28T11:28:42.954Z</time></trkpt><trkpt lat="43.5796079" lon="11.3237915"><ele>299.0</ele><time>2026-03-28T11:28:43.954Z</time></trkpt><trkpt lat="43.5795961" lon="11.3236151"><ele>299.0</ele><time>2026-03-28T11:28:44.954Z</time></trkpt><trkpt lat="43.5795871" lon="11.3234434"><ele>298.0</ele><time>2026-03-28T11:28:45.953Z</time></trkpt><trkpt lat="43.5795981" lon="11.323256"><ele>297.0</ele><time>2026-03-28T11:28:46.954Z</time></trkpt><trkpt lat="43.5796647" lon="11.3230825"><ele>296.0</ele><time>2026-03-28T11:28:47.953Z</time></trkpt><trkpt lat="43.5797308" lon="11.3228913"><ele>295.0</ele><time>2026-03-28T11:28:48.954Z</time></trkpt><trkpt lat="43.5797972" lon="11.3227022"><ele>294.2</ele><time>2026-03-28T11:28:49.954Z</time></trkpt><trkpt lat="43.5798658" lon="11.3225375"><ele>293.4</ele><time>2026-03-28T11:28:50.953Z</time></trkpt><trkpt lat="43.579919" lon="11.322388"><ele>292.6</ele><time>2026-03-28T11:28:51.954Z</time></trkpt><trkpt lat="43.5799433" lon="11.3222516"><ele>291.8</ele><time>2026-03-28T11:28:52.953Z</time></trkpt><trkpt lat="43.5799219" lon="11.3221406"><ele>291.0</ele><time>2026-03-28T11:28:53.954Z</time></trkpt><trkpt lat="43.5798714" lon="11.3220587"><ele>289.3333333333333</ele><time>2026-03-28T11:28:54.953Z</time></trkpt><trkpt lat="43.5797903" lon="11.3220187"><ele>287.6666666666667</ele><time>2026-03-28T11:28:55.952Z</time></trkpt><trkpt lat="43.5797016" lon="11.3220405"><ele>286.0</ele><time>2026-03-28T11:28:56.954Z</time></trkpt><trkpt lat="43.5796192" lon="11.3221011"><ele>284.33333333333337</ele><time>2026-03-28T11:28:57.954Z</time></trkpt><trkpt lat="43.579538" lon="11.3221356"><ele>282.6666666666667</ele><time>2026-03-28T11:28:58.954Z</time></trkpt><trkpt lat="43.5794602" lon="11.3221166"><ele>281.0</ele><time>2026-03-28T11:28:59.954Z</time></trkpt><trkpt lat="43.5793984" lon="11.3220527"><ele>281.0</ele><time>2026-03-28T11:29:00.954Z</time></trkpt><trkpt lat="43.5793833" lon="11.3219522"><ele>281.0</ele><time>2026-03-28T11:29:01.953Z</time></trkpt><trkpt lat="43.579411" lon="11.3218543"><ele>281.0</ele><time>2026-03-28T11:29:02.953Z</time></trkpt><trkpt lat="43.5794861" lon="11.3217869"><ele>281.0</ele><time>2026-03-28T11:29:03.954Z</time></trkpt><trkpt lat="43.5795875" lon="11.3217312"><ele>281.0</ele><time>2026-03-28T11:29:04.954Z</time></trkpt><trkpt lat="43.579697" lon="11.3216808"><ele>281.0</ele><time>2026-03-28T11:29:05.953Z</time></trkpt><trkpt lat="43.5798082" lon="11.3216147"><ele>281.0</ele><time>2026-03-28T11:29:06.954Z</time></trkpt><trkpt lat="43.5799074" lon="11.3215077"><ele>281.0</ele><time>2026-03-28T11:29:07.954Z</time></trkpt><trkpt lat="43.5799942" lon="11.3213605"><ele>281.0</ele><time>2026-03-28T11:29:08.954Z</time></trkpt><trkpt lat="43.58006" lon="11.3212037"><ele>279.0</ele><time>2026-03-28T11:29:09.955Z</time></trkpt><trkpt lat="43.5801124" lon="11.3210546"><ele>277.0</ele><time>2026-03-28T11:29:10.953Z</time></trkpt><trkpt lat="43.5801763" lon="11.3209209"><ele>275.0</ele><time>2026-03-28T11:29:11.954Z</time></trkpt><trkpt lat="43.5802508" lon="11.3208173"><ele>273.0</ele><time>2026-03-28T11:29:12.953Z</time></trkpt><trkpt lat="43.580329" lon="11.3207288"><ele>271.0</ele><time>2026-03-28T11:29:13.954Z</time></trkpt><trkpt lat="43.5804485" lon="11.3206838"><ele>271.0</ele><time>2026-03-28T11:29:14.953Z</time></trkpt><trkpt lat="43.5805545" lon="11.3207662"><ele>271.0</ele><time>2026-03-28T11:29:15.953Z</time></trkpt><trkpt lat="43.5806455" lon="11.3208122"><ele>271.0</ele><time>2026-03-28T11:29:16.953Z</time></trkpt><trkpt lat="43.580717" lon="11.3208061"><ele>271.0</ele><time>2026-03-28T11:29:17.953Z</time></trkpt><trkpt lat="43.5807782" lon="11.3207813"><ele>271.0</ele><time>2026-03-28T11:29:18.953Z</time></trkpt><trkpt lat="43.5808446" lon="11.3207244"><ele>271.0</ele><time>2026-03-28T11:29:20.953Z</time></trkpt><trkpt lat="43.5808646" lon="11.3206257"><ele>268.40000000000003</ele><time>2026-03-28T11:29:48.952Z</time></trkpt><trkpt lat="43.580844" lon="11.3205317"><ele>265.8</ele><time>2026-03-28T11:29:51.954Z</time></trkpt><trkpt lat="43.5807737" lon="11.3204411"><ele>263.20000000000005</ele><time>2026-03-28T11:29:53.953Z</time></trkpt><trkpt lat="43.5807117" lon="11.3203958"><ele>260.6</ele><time>2026-03-28T11:29:54.954Z</time></trkpt><trkpt lat="43.5806115" lon="11.3203803"><ele>258.0</ele><time>2026-03-28T11:29:55.953Z</time></trkpt><trkpt lat="43.5804966" lon="11.3203753"><ele>258.0</ele><time>2026-03-28T11:29:56.953Z</time></trkpt><trkpt lat="43.5803819" lon="11.3203656"><ele>258.0</ele><time>2026-03-28T11:29:57.953Z</time></trkpt><trkpt lat="43.5802777" lon="11.3203393"><ele>258.0</ele><time>2026-03-28T11:29:58.953Z</time></trkpt><trkpt lat="43.5801909" lon="11.3202924"><ele>258.0</ele><time>2026-03-28T11:29:59.953Z</time></trkpt><trkpt lat="43.5801067" lon="11.320233"><ele>258.0</ele><time>2026-03-28T11:30:00.953Z</time></trkpt><trkpt lat="43.5800134" lon="11.320149"><ele>258.2</ele><time>2026-03-28T11:30:01.953Z</time></trkpt><trkpt lat="43.5799282" lon="11.3200649"><ele>258.4</ele><time>2026-03-28T11:30:02.953Z</time></trkpt><trkpt lat="43.5798551" lon="11.3199741"><ele>258.59999999999997</ele><time>2026-03-28T11:30:03.953Z</time></trkpt><trkpt lat="43.579795" lon="11.3198749"><ele>258.8</ele><time>2026-03-28T11:30:04.953Z</time></trkpt><trkpt lat="43.579763" lon="11.3197638"><ele>259.0</ele><time>2026-03-28T11:30:05.954Z</time></trkpt><trkpt lat="43.5797621" lon="11.3196493"><ele>257.3333333333333</ele><time>2026-03-28T11:30:06.953Z</time></trkpt><trkpt lat="43.5797711" lon="11.3195202"><ele>255.66666666666666</ele><time>2026-03-28T11:30:07.954Z</time></trkpt><trkpt lat="43.579798" lon="11.3193945"><ele>254.0</ele><time>2026-03-28T11:30:08.954Z</time></trkpt><trkpt lat="43.5798203" lon="11.3192742"><ele>252.33333333333331</ele><time>2026-03-28T11:30:09.954Z</time></trkpt><trkpt lat="43.5798563" lon="11.3191668"><ele>250.66666666666666</ele><time>2026-03-28T11:30:10.954Z</time></trkpt><trkpt lat="43.5799134" lon="11.3190874"><ele>249.0</ele><time>2026-03-28T11:30:11.954Z</time></trkpt><trkpt lat="43.579995" lon="11.3190416"><ele>249.0</ele><time>2026-03-28T11:30:12.953Z</time></trkpt><trkpt lat="43.5801069" lon="11.3190156"><ele>249.0</ele><time>2026-03-28T11:30:13.954Z</time></trkpt><trkpt lat="43.5802392" lon="11.3189945"><ele>249.0</ele><time>2026-03-28T11:30:14.954Z</time></trkpt><trkpt lat="43.5803614" lon="11.3189692"><ele>249.0</ele><time>2026-03-28T11:30:15.954Z</time></trkpt><trkpt lat="43.5804794" lon="11.318948"><ele>247.5</ele><time>2026-03-28T11:30:16.954Z</time></trkpt><trkpt lat="43.5806088" lon="11.3189364"><ele>246.0</ele><time>2026-03-28T11:30:17.954Z</time></trkpt><trkpt lat="43.5807476" lon="11.3189351"><ele>244.5</ele><time>2026-03-28T11:30:18.955Z</time></trkpt><trkpt lat="43.5808835" lon="11.3189269"><ele>243.0</ele><time>2026-03-28T11:30:19.953Z</time></trkpt><trkpt lat="43.5810157" lon="11.3189202"><ele>243.0</ele><time>2026-03-28T11:30:20.954Z</time></trkpt><trkpt lat="43.5811354" lon="11.3189135"><ele>243.0</ele><time>2026-03-28T11:30:21.954Z</time></trkpt><trkpt lat="43.5812443" lon="11.3189027"><ele>243.0</ele><time>2026-03-28T11:30:22.953Z</time></trkpt><trkpt lat="43.5813387" lon="11.3188943"><ele>243.0</ele><time>2026-03-28T11:30:23.954Z</time></trkpt><trkpt lat="43.5814132" lon="11.3188911"><ele>243.0</ele><time>2026-03-28T11:30:24.954Z</time></trkpt><trkpt lat="43.5814769" lon="11.3189105"><ele>243.0</ele><time>2026-03-28T11:30:25.954Z</time></trkpt><trkpt lat="43.5815543" lon="11.3189464"><ele>243.0</ele><time>2026-03-28T11:30:26.953Z</time></trkpt><trkpt lat="43.5816483" lon="11.3189995"><ele>243.0</ele><time>2026-03-28T11:30:27.955Z</time></trkpt><trkpt lat="43.5817563" lon="11.3190704"><ele>243.0</ele><time>2026-03-28T11:30:28.954Z</time></trkpt><trkpt lat="43.5818786" lon="11.3191394"><ele>243.0</ele><time>2026-03-28T11:30:29.954Z</time></trkpt><trkpt lat="43.5820038" lon="11.3191998"><ele>241.75</ele><time>2026-03-28T11:30:30.953Z</time></trkpt><trkpt lat="43.5821229" lon="11.3192422"><ele>240.5</ele><time>2026-03-28T11:30:31.954Z</time></trkpt><trkpt lat="43.582238" lon="11.3192831"><ele>239.25</ele><time>2026-03-28T11:30:32.955Z</time></trkpt><trkpt lat="43.582357" lon="11.3193214"><ele>238.0</ele><time>2026-03-28T11:30:33.955Z</time></trkpt><trkpt lat="43.5824829" lon="11.319356"><ele>238.0</ele><time>2026-03-28T11:30:34.953Z</time></trkpt><trkpt lat="43.5826104" lon="11.3193958"><ele>238.0</ele><time>2026-03-28T11:30:35.953Z</time></trkpt><trkpt lat="43.5827332" lon="11.3194144"><ele>238.0</ele><time>2026-03-28T11:30:36.955Z</time></trkpt><trkpt lat="43.5828411" lon="11.3194166"><ele>238.0</ele><time>2026-03-28T11:30:37.954Z</time></trkpt><trkpt lat="43.5829391" lon="11.319417"><ele>238.99999999999997</ele><time>2026-03-28T11:30:38.953Z</time></trkpt><trkpt lat="43.5830165" lon="11.3194106"><ele>240.0</ele><time>2026-03-28T11:30:39.953Z</time></trkpt><trkpt lat="43.5830854" lon="11.3193865"><ele>241.0</ele><time>2026-03-28T11:30:41.954Z</time></trkpt><trkpt lat="43.5831011" lon="11.3192677"><ele>242.0</ele><time>2026-03-28T11:30:43.953Z</time></trkpt><trkpt lat="43.5830902" lon="11.3191696"><ele>242.99999999999997</ele><time>2026-03-28T11:30:44.954Z</time></trkpt><trkpt lat="43.5830721" lon="11.31904"><ele>244.0</ele><time>2026-03-28T11:30:45.954Z</time></trkpt><trkpt lat="43.5830579" lon="11.3189091"><ele>242.2</ele><time>2026-03-28T11:30:46.954Z</time></trkpt><trkpt lat="43.5830451" lon="11.3187532"><ele>240.39999999999998</ele><time>2026-03-28T11:30:47.954Z</time></trkpt><trkpt lat="43.5830276" lon="11.3185908"><ele>238.6</ele><time>2026-03-28T11:30:48.955Z</time></trkpt><trkpt lat="43.583016" lon="11.3184373"><ele>236.8</ele><time>2026-03-28T11:30:49.953Z</time></trkpt><trkpt lat="43.5830067" lon="11.3182975"><ele>235.0</ele><time>2026-03-28T11:30:50.953Z</time></trkpt><trkpt lat="43.5829885" lon="11.3181756"><ele>234.99999999999997</ele><time>2026-03-28T11:30:51.955Z</time></trkpt><trkpt lat="43.5829853" lon="11.3180874"><ele>235.0</ele><time>2026-03-28T11:30:52.954Z</time></trkpt><trkpt lat="43.5829955" lon="11.3179995"><ele>235.0</ele><time>2026-03-28T11:30:54.953Z</time></trkpt><trkpt lat="43.5830524" lon="11.3178483"><ele>235.0</ele><time>2026-03-28T11:31:55.955Z</time></trkpt><trkpt lat="43.5831044" lon="11.3177945"><ele>234.99999999999997</ele><time>2026-03-28T11:31:56.954Z</time></trkpt><trkpt lat="43.5831867" lon="11.3177263"><ele>235.0</ele><time>2026-03-28T11:31:57.953Z</time></trkpt><trkpt lat="43.5832679" lon="11.3176513"><ele>234.8</ele><time>2026-03-28T11:31:58.953Z</time></trkpt><trkpt lat="43.5833496" lon="11.317572"><ele>234.6</ele><time>2026-03-28T11:31:59.954Z</time></trkpt><trkpt lat="43.583426" lon="11.3174755"><ele>234.39999999999998</ele><time>2026-03-28T11:32:00.954Z</time></trkpt><trkpt lat="43.583508" lon="11.317357"><ele>234.2</ele><time>2026-03-28T11:32:01.954Z</time></trkpt><trkpt lat="43.5835826" lon="11.3172256"><ele>234.0</ele><time>2026-03-28T11:32:02.953Z</time></trkpt><trkpt lat="43.583652" lon="11.3170686"><ele>233.25</ele><time>2026-03-28T11:32:03.953Z</time></trkpt><trkpt lat="43.5837315" lon="11.3168876"><ele>232.5</ele><time>2026-03-28T11:32:04.953Z</time></trkpt><trkpt lat="43.5838022" lon="11.3167075"><ele>231.75</ele><time>2026-03-28T11:32:05.955Z</time></trkpt><trkpt lat="43.5838719" lon="11.3165337"><ele>231.0</ele><time>2026-03-28T11:32:06.955Z</time></trkpt><trkpt lat="43.5839314" lon="11.3163629"><ele>231.0</ele><time>2026-03-28T11:32:07.954Z</time></trkpt><trkpt lat="43.5839932" lon="11.3162224"><ele>231.00000000000003</ele><time>2026-03-28T11:32:08.953Z</time></trkpt><trkpt lat="43.5840483" lon="11.3161035"><ele>231.00000000000003</ele><time>2026-03-28T11:32:09.953Z</time></trkpt><trkpt lat="43.5841135" lon="11.315998"><ele>231.0</ele><time>2026-03-28T11:32:10.953Z</time></trkpt><trkpt lat="43.5841908" lon="11.315888"><ele>231.0</ele><time>2026-03-28T11:32:11.953Z</time></trkpt><trkpt lat="43.5842889" lon="11.3157809"><ele>231.0</ele><time>2026-03-28T11:32:12.953Z</time></trkpt><trkpt lat="43.5844054" lon="11.3157"><ele>231.0</ele><time>2026-03-28T11:32:13.954Z</time></trkpt><trkpt lat="43.5845399" lon="11.3156286"><ele>231.0</ele><time>2026-03-28T11:32:14.954Z</time></trkpt><trkpt lat="43.5846779" lon="11.315558"><ele>231.0</ele><time>2026-03-28T11:32:15.953Z</time></trkpt><trkpt lat="43.5848183" lon="11.3155013"><ele>230.75</ele><time>2026-03-28T11:32:16.955Z</time></trkpt><trkpt lat="43.5849542" lon="11.3154583"><ele>230.5</ele><time>2026-03-28T11:32:17.954Z</time></trkpt><trkpt lat="43.5850906" lon="11.315415"><ele>230.25</ele><time>2026-03-28T11:32:18.953Z</time></trkpt><trkpt lat="43.5852147" lon="11.3153808"><ele>230.0</ele><time>2026-03-28T11:32:19.953Z</time></trkpt><trkpt lat="43.585334" lon="11.3153576"><ele>229.5</ele><time>2026-03-28T11:32:20.954Z</time></trkpt><trkpt lat="43.5854613" lon="11.3153212"><ele>229.0</ele><time>2026-03-28T11:32:21.953Z</time></trkpt><trkpt lat="43.585583" lon="11.3152882"><ele>228.5</ele><time>2026-03-28T11:32:22.954Z</time></trkpt><trkpt lat="43.5856955" lon="11.3152616"><ele>228.0</ele><time>2026-03-28T11:32:23.954Z</time></trkpt><trkpt lat="43.585802" lon="11.315245"><ele>228.0</ele><time>2026-03-28T11:32:24.953Z</time></trkpt><trkpt lat="43.5859026" lon="11.3152289"><ele>228.0</ele><time>2026-03-28T11:32:25.953Z</time></trkpt><trkpt lat="43.5859928" lon="11.3152244"><ele>228.0</ele><time>2026-03-28T11:32:26.954Z</time></trkpt><trkpt lat="43.5860736" lon="11.315206"><ele>228.0</ele><time>2026-03-28T11:32:27.954Z</time></trkpt><trkpt lat="43.5861486" lon="11.3151886"><ele>228.0</ele><time>2026-03-28T11:32:28.954Z</time></trkpt><trkpt lat="43.5862267" lon="11.315172"><ele>228.0</ele><time>2026-03-28T11:32:29.954Z</time></trkpt><trkpt lat="43.5863172" lon="11.3151481"><ele>228.0</ele><time>2026-03-28T11:32:30.954Z</time></trkpt><trkpt lat="43.5864269" lon="11.3151181"><ele>228.0</ele><time>2026-03-28T11:32:31.954Z</time></trkpt><trkpt lat="43.5865552" lon="11.3150923"><ele>228.0</ele><time>2026-03-28T11:32:32.953Z</time></trkpt><trkpt lat="43.586685" lon="11.3150715"><ele>228.0</ele><time>2026-03-28T11:32:33.955Z</time></trkpt><trkpt lat="43.5868063" lon="11.3150526"><ele>228.0</ele><time>2026-03-28T11:32:34.955Z</time></trkpt><trkpt lat="43.5869177" lon="11.3150269"><ele>228.0</ele><time>2026-03-28T11:32:35.953Z</time></trkpt><trkpt lat="43.5870265" lon="11.3150083"><ele>228.0</ele><time>2026-03-28T11:32:36.954Z</time></trkpt><trkpt lat="43.5871304" lon="11.3149879"><ele>228.0</ele><time>2026-03-28T11:32:37.954Z</time></trkpt><trkpt lat="43.5872257" lon="11.3149682"><ele>228.0</ele><time>2026-03-28T11:32:38.955Z</time></trkpt><trkpt lat="43.58732" lon="11.3149562"><ele>227.8</ele><time>2026-03-28T11:32:39.954Z</time></trkpt><trkpt lat="43.5874222" lon="11.314935"><ele>227.60000000000002</ele><time>2026-03-28T11:32:40.954Z</time></trkpt><trkpt lat="43.5875302" lon="11.3149186"><ele>227.39999999999998</ele><time>2026-03-28T11:32:41.954Z</time></trkpt><trkpt lat="43.5876397" lon="11.3148982"><ele>227.2</ele><time>2026-03-28T11:32:42.953Z</time></trkpt><trkpt lat="43.5877545" lon="11.3148798"><ele>227.0</ele><time>2026-03-28T11:32:43.955Z</time></trkpt><trkpt lat="43.587872" lon="11.3148566"><ele>227.0</ele><time>2026-03-28T11:32:44.953Z</time></trkpt><trkpt lat="43.58799" lon="11.3148379"><ele>227.0</ele><time>2026-03-28T11:32:45.953Z</time></trkpt><trkpt lat="43.5881047" lon="11.3148178"><ele>227.0</ele><time>2026-03-28T11:32:46.954Z</time></trkpt><trkpt lat="43.5882385" lon="11.3147842"><ele>227.0</ele><time>2026-03-28T11:32:47.955Z</time></trkpt><trkpt lat="43.5883955" lon="11.3147472"><ele>226.66666666666669</ele><time>2026-03-28T11:32:48.954Z</time></trkpt><trkpt lat="43.5885715" lon="11.314728"><ele>226.33333333333331</ele><time>2026-03-28T11:32:49.953Z</time></trkpt><trkpt lat="43.5887387" lon="11.3147076"><ele>226.0</ele><time>2026-03-28T11:32:50.953Z</time></trkpt><trkpt lat="43.5888876" lon="11.3146638"><ele>225.75</ele><time>2026-03-28T11:32:51.954Z</time></trkpt><trkpt lat="43.5890313" lon="11.3146385"><ele>225.5</ele><time>2026-03-28T11:32:52.955Z</time></trkpt><trkpt lat="43.5891677" lon="11.3146137"><ele>225.25</ele><time>2026-03-28T11:32:53.953Z</time></trkpt><trkpt lat="43.5893002" lon="11.3145909"><ele>225.0</ele><time>2026-03-28T11:32:54.953Z</time></trkpt><trkpt lat="43.5894287" lon="11.3145684"><ele>224.5</ele><time>2026-03-28T11:32:55.954Z</time></trkpt><trkpt lat="43.5895628" lon="11.3145426"><ele>224.0</ele><time>2026-03-28T11:32:56.954Z</time></trkpt><trkpt lat="43.5896973" lon="11.3145152"><ele>223.5</ele><time>2026-03-28T11:32:57.953Z</time></trkpt><trkpt lat="43.589837" lon="11.3144826"><ele>223.0</ele><time>2026-03-28T11:32:58.954Z</time></trkpt><trkpt lat="43.5899713" lon="11.3144537"><ele>223.0</ele><time>2026-03-28T11:32:59.954Z</time></trkpt><trkpt lat="43.5901051" lon="11.3144335"><ele>223.0</ele><time>2026-03-28T11:33:00.955Z</time></trkpt><trkpt lat="43.5902419" lon="11.3144231"><ele>223.0</ele><time>2026-03-28T11:33:01.954Z</time></trkpt><trkpt lat="43.590376" lon="11.3144147"><ele>223.0</ele><time>2026-03-28T11:33:02.953Z</time></trkpt><trkpt lat="43.5905124" lon="11.314404"><ele>222.75</ele><time>2026-03-28T11:33:03.954Z</time></trkpt><trkpt lat="43.5906475" lon="11.3144161"><ele>222.5</ele><time>2026-03-28T11:33:04.954Z</time></trkpt><trkpt lat="43.5907859" lon="11.31445"><ele>222.25</ele><time>2026-03-28T11:33:05.954Z</time></trkpt><trkpt lat="43.5909312" lon="11.3144966"><ele>222.0</ele><time>2026-03-28T11:33:06.952Z</time></trkpt><trkpt lat="43.5910721" lon="11.3145435"><ele>222.0</ele><time>2026-03-28T11:33:07.954Z</time></trkpt><trkpt lat="43.5912066" lon="11.3145972"><ele>222.0</ele><time>2026-03-28T11:33:08.954Z</time></trkpt><trkpt lat="43.5913269" lon="11.3146521"><ele>222.0</ele><time>2026-03-28T11:33:09.952Z</time></trkpt><trkpt lat="43.5914419" lon="11.3147158"><ele>222.0</ele><time>2026-03-28T11:33:10.953Z</time></trkpt><trkpt lat="43.5915488" lon="11.3147861"><ele>222.0</ele><time>2026-03-28T11:33:11.955Z</time></trkpt><trkpt lat="43.5916519" lon="11.314853"><ele>222.0</ele><time>2026-03-28T11:33:12.955Z</time></trkpt><trkpt lat="43.5917332" lon="11.3149188"><ele>222.0</ele><time>2026-03-28T11:33:13.954Z</time></trkpt><trkpt lat="43.5918095" lon="11.3149695"><ele>222.0</ele><time>2026-03-28T11:33:14.954Z</time></trkpt><trkpt lat="43.5918721" lon="11.3150318"><ele>222.0</ele><time>2026-03-28T11:33:15.953Z</time></trkpt><trkpt lat="43.591916" lon="11.3151076"><ele>222.0</ele><time>2026-03-28T11:33:16.953Z</time></trkpt><trkpt lat="43.5919665" lon="11.315173"><ele>221.8</ele><time>2026-03-28T11:33:17.954Z</time></trkpt><trkpt lat="43.5920343" lon="11.3152107"><ele>221.6</ele><time>2026-03-28T11:33:18.953Z</time></trkpt><trkpt lat="43.5921249" lon="11.3152354"><ele>221.40000000000003</ele><time>2026-03-28T11:33:19.953Z</time></trkpt><trkpt lat="43.592235" lon="11.3152692"><ele>221.20000000000002</ele><time>2026-03-28T11:33:20.954Z</time></trkpt><trkpt lat="43.5923658" lon="11.3153325"><ele>221.0</ele><time>2026-03-28T11:33:21.953Z</time></trkpt><trkpt lat="43.5925064" lon="11.3154103"><ele>221.0</ele><time>2026-03-28T11:33:22.954Z</time></trkpt><trkpt lat="43.5926524" lon="11.3154956"><ele>221.0</ele><time>2026-03-28T11:33:23.955Z</time></trkpt><trkpt lat="43.5928111" lon="11.3155889"><ele>221.0</ele><time>2026-03-28T11:33:24.954Z</time></trkpt><trkpt lat="43.5929913" lon="11.3156682"><ele>222.0</ele><time>2026-03-28T11:33:25.954Z</time></trkpt><trkpt lat="43.5931763" lon="11.3157687"><ele>223.0</ele><time>2026-03-28T11:33:26.954Z</time></trkpt><trkpt lat="43.5933625" lon="11.3158866"><ele>224.0</ele><time>2026-03-28T11:33:27.955Z</time></trkpt><trkpt lat="43.5935453" lon="11.3160176"><ele>222.66666666666669</ele><time>2026-03-28T11:33:28.953Z</time></trkpt><trkpt lat="43.5937369" lon="11.3161502"><ele>221.33333333333331</ele><time>2026-03-28T11:33:29.954Z</time></trkpt><trkpt lat="43.5939321" lon="11.3162786"><ele>220.0</ele><time>2026-03-28T11:33:30.954Z</time></trkpt><trkpt lat="43.594116" lon="11.3164061"><ele>220.66666666666666</ele><time>2026-03-28T11:33:31.953Z</time></trkpt><trkpt lat="43.5942996" lon="11.3165308"><ele>221.33333333333331</ele><time>2026-03-28T11:33:32.953Z</time></trkpt><trkpt lat="43.5944877" lon="11.3166311"><ele>222.0</ele><time>2026-03-28T11:33:33.955Z</time></trkpt><trkpt lat="43.5946878" lon="11.3166883"><ele>222.0</ele><time>2026-03-28T11:33:34.955Z</time></trkpt><trkpt lat="43.5948998" lon="11.3167063"><ele>222.0</ele><time>2026-03-28T11:33:35.953Z</time></trkpt><trkpt lat="43.5951198" lon="11.31669"><ele>222.0</ele><time>2026-03-28T11:33:36.954Z</time></trkpt><trkpt lat="43.5953445" lon="11.3166953"><ele>220.0</ele><time>2026-03-28T11:33:37.954Z</time></trkpt><trkpt lat="43.5955696" lon="11.3167427"><ele>218.0</ele><time>2026-03-28T11:33:38.954Z</time></trkpt><trkpt lat="43.5957971" lon="11.3168091"><ele>218.0</ele><time>2026-03-28T11:33:39.954Z</time></trkpt><trkpt lat="43.5960155" lon="11.316877"><ele>218.0</ele><time>2026-03-28T11:33:40.954Z</time></trkpt><trkpt lat="43.5962216" lon="11.3169295"><ele>218.0</ele><time>2026-03-28T11:33:41.954Z</time></trkpt><trkpt lat="43.5964319" lon="11.3169635"><ele>218.0</ele><time>2026-03-28T11:33:42.953Z</time></trkpt><trkpt lat="43.5966458" lon="11.3169613"><ele>218.0</ele><time>2026-03-28T11:33:43.953Z</time></trkpt><trkpt lat="43.5968564" lon="11.3169069"><ele>218.0</ele><time>2026-03-28T11:33:44.955Z</time></trkpt><trkpt lat="43.5970749" lon="11.3168039"><ele>219.0</ele><time>2026-03-28T11:33:45.954Z</time></trkpt><trkpt lat="43.5972887" lon="11.3166719"><ele>220.0</ele><time>2026-03-28T11:33:46.954Z</time></trkpt><trkpt lat="43.5974964" lon="11.3165261"><ele>220.0</ele><time>2026-03-28T11:33:47.954Z</time></trkpt><trkpt lat="43.5976981" lon="11.3163847"><ele>220.0</ele><time>2026-03-28T11:33:48.953Z</time></trkpt><trkpt lat="43.5978833" lon="11.316225"><ele>220.0</ele><time>2026-03-28T11:33:49.954Z</time></trkpt><trkpt lat="43.5980406" lon="11.3160247"><ele>220.0</ele><time>2026-03-28T11:33:50.954Z</time></trkpt><trkpt lat="43.5981809" lon="11.3157951"><ele>220.0</ele><time>2026-03-28T11:33:51.954Z</time></trkpt><trkpt lat="43.5983261" lon="11.3155546"><ele>220.0</ele><time>2026-03-28T11:33:52.955Z</time></trkpt><trkpt lat="43.5984588" lon="11.3153084"><ele>219.0</ele><time>2026-03-28T11:33:53.955Z</time></trkpt><trkpt lat="43.5985919" lon="11.3150619"><ele>218.0</ele><time>2026-03-28T11:33:54.953Z</time></trkpt><trkpt lat="43.5987273" lon="11.3148172"><ele>217.0</ele><time>2026-03-28T11:33:55.955Z</time></trkpt><trkpt lat="43.5988621" lon="11.3145725"><ele>217.0</ele><time>2026-03-28T11:33:56.953Z</time></trkpt><trkpt lat="43.5990002" lon="11.3143285"><ele>217.0</ele><time>2026-03-28T11:33:57.955Z</time></trkpt><trkpt lat="43.5991311" lon="11.3140892"><ele>217.0</ele><time>2026-03-28T11:33:58.954Z</time></trkpt><trkpt lat="43.5992508" lon="11.313858"><ele>216.66666666666666</ele><time>2026-03-28T11:33:59.954Z</time></trkpt><trkpt lat="43.5993701" lon="11.3136389"><ele>216.33333333333331</ele><time>2026-03-28T11:34:00.953Z</time></trkpt><trkpt lat="43.5994887" lon="11.3134276"><ele>216.0</ele><time>2026-03-28T11:34:01.955Z</time></trkpt><trkpt lat="43.5996122" lon="11.3132162"><ele>215.0</ele><time>2026-03-28T11:34:02.954Z</time></trkpt><trkpt lat="43.5997176" lon="11.3129879"><ele>214.0</ele><time>2026-03-28T11:34:03.954Z</time></trkpt><trkpt lat="43.5998199" lon="11.3127672"><ele>213.0</ele><time>2026-03-28T11:34:04.952Z</time></trkpt><trkpt lat="43.5999301" lon="11.3125415"><ele>213.0</ele><time>2026-03-28T11:34:05.953Z</time></trkpt><trkpt lat="43.6000521" lon="11.3123"><ele>213.0</ele><time>2026-03-28T11:34:06.954Z</time></trkpt><trkpt lat="43.6001834" lon="11.3120508"><ele>213.0</ele><time>2026-03-28T11:34:07.953Z</time></trkpt><trkpt lat="43.6003339" lon="11.3118067"><ele>214.0</ele><time>2026-03-28T11:34:08.953Z</time></trkpt><trkpt lat="43.6004779" lon="11.3115575"><ele>215.0</ele><time>2026-03-28T11:34:09.954Z</time></trkpt><trkpt lat="43.6006271" lon="11.3113048"><ele>215.0</ele><time>2026-03-28T11:34:10.955Z</time></trkpt><trkpt lat="43.6007769" lon="11.3110855"><ele>215.0</ele><time>2026-03-28T11:34:11.954Z</time></trkpt><trkpt lat="43.6009402" lon="11.310898"><ele>215.0</ele><time>2026-03-28T11:34:12.953Z</time></trkpt><trkpt lat="43.6011239" lon="11.3107351"><ele>213.5</ele><time>2026-03-28T11:34:13.955Z</time></trkpt><trkpt lat="43.6013267" lon="11.3106039"><ele>212.0</ele><time>2026-03-28T11:34:14.953Z</time></trkpt><trkpt lat="43.601544" lon="11.3104794"><ele>212.0</ele><time>2026-03-28T11:34:15.953Z</time></trkpt><trkpt lat="43.6017686" lon="11.3103488"><ele>212.0</ele><time>2026-03-28T11:34:16.953Z</time></trkpt><trkpt lat="43.6019974" lon="11.310221"><ele>213.0</ele><time>2026-03-28T11:34:17.954Z</time></trkpt><trkpt lat="43.6022232" lon="11.3101024"><ele>214.0</ele><time>2026-03-28T11:34:18.954Z</time></trkpt><trkpt lat="43.6024452" lon="11.3099848"><ele>214.0</ele><time>2026-03-28T11:34:19.955Z</time></trkpt><trkpt lat="43.6026672" lon="11.3098671"><ele>214.0</ele><time>2026-03-28T11:34:20.955Z</time></trkpt><trkpt lat="43.6028911" lon="11.3097493"><ele>213.5</ele><time>2026-03-28T11:34:21.954Z</time></trkpt><trkpt lat="43.6031052" lon="11.3096264"><ele>213.0</ele><time>2026-03-28T11:34:22.953Z</time></trkpt><trkpt lat="43.6033083" lon="11.3095144"><ele>213.0</ele><time>2026-03-28T11:34:23.953Z</time></trkpt><trkpt lat="43.6034934" lon="11.3094049"><ele>213.0</ele><time>2026-03-28T11:34:24.954Z</time></trkpt><trkpt lat="43.603661" lon="11.3092859"><ele>213.0</ele><time>2026-03-28T11:34:25.955Z</time></trkpt><trkpt lat="43.603811" lon="11.3091326"><ele>214.0</ele><time>2026-03-28T11:34:26.955Z</time></trkpt><trkpt lat="43.603936" lon="11.3089537"><ele>215.0</ele><time>2026-03-28T11:34:27.952Z</time></trkpt><trkpt lat="43.6040294" lon="11.3087489"><ele>216.0</ele><time>2026-03-28T11:34:28.955Z</time></trkpt><trkpt lat="43.6040939" lon="11.3085231"><ele>216.0</ele><time>2026-03-28T11:34:29.954Z</time></trkpt><trkpt lat="43.60413" lon="11.3082699"><ele>216.0</ele><time>2026-03-28T11:34:30.953Z</time></trkpt><trkpt lat="43.6041489" lon="11.3080011"><ele>216.0</ele><time>2026-03-28T11:34:31.954Z</time></trkpt><trkpt lat="43.6041609" lon="11.3077293"><ele>215.33333333333331</ele><time>2026-03-28T11:34:32.953Z</time></trkpt><trkpt lat="43.6041647" lon="11.3074697"><ele>214.66666666666666</ele><time>2026-03-28T11:34:33.954Z</time></trkpt><trkpt lat="43.6041727" lon="11.3072275"><ele>214.0</ele><time>2026-03-28T11:34:34.953Z</time></trkpt><trkpt lat="43.6042066" lon="11.3070003"><ele>214.33333333333331</ele><time>2026-03-28T11:34:35.955Z</time></trkpt><trkpt lat="43.6042715" lon="11.3068025"><ele>214.66666666666669</ele><time>2026-03-28T11:34:36.954Z</time></trkpt><trkpt lat="43.6043793" lon="11.3066246"><ele>215.0</ele><time>2026-03-28T11:34:37.954Z</time></trkpt><trkpt lat="43.6045168" lon="11.3064744"><ele>212.66666666666669</ele><time>2026-03-28T11:34:38.954Z</time></trkpt><trkpt lat="43.6046743" lon="11.3063307"><ele>210.33333333333331</ele><time>2026-03-28T11:34:39.953Z</time></trkpt><trkpt lat="43.6048545" lon="11.3061828"><ele>208.0</ele><time>2026-03-28T11:34:40.954Z</time></trkpt><trkpt lat="43.6050226" lon="11.3060387"><ele>208.0</ele><time>2026-03-28T11:34:41.954Z</time></trkpt><trkpt lat="43.6051717" lon="11.3059111"><ele>208.0</ele><time>2026-03-28T11:34:42.954Z</time></trkpt><trkpt lat="43.605305" lon="11.3057988"><ele>208.0</ele><time>2026-03-28T11:34:43.954Z</time></trkpt><trkpt lat="43.6054216" lon="11.305698"><ele>208.0</ele><time>2026-03-28T11:34:44.954Z</time></trkpt><trkpt lat="43.6055172" lon="11.3056177"><ele>208.0</ele><time>2026-03-28T11:34:45.954Z</time></trkpt><trkpt lat="43.605609" lon="11.3055441"><ele>208.0</ele><time>2026-03-28T11:34:46.953Z</time></trkpt><trkpt lat="43.6056983" lon="11.3054756"><ele>208.0</ele><time>2026-03-28T11:34:47.954Z</time></trkpt><trkpt lat="43.6057946" lon="11.3054025"><ele>208.0</ele><time>2026-03-28T11:34:48.953Z</time></trkpt><trkpt lat="43.6058931" lon="11.3053213"><ele>208.0</ele><time>2026-03-28T11:34:49.953Z</time></trkpt><trkpt lat="43.6060096" lon="11.3052241"><ele>208.0</ele><time>2026-03-28T11:34:50.955Z</time></trkpt><trkpt lat="43.6061375" lon="11.305116"><ele>208.0</ele><time>2026-03-28T11:34:51.953Z</time></trkpt><trkpt lat="43.606275" lon="11.3049975"><ele>208.0</ele><time>2026-03-28T11:34:52.955Z</time></trkpt><trkpt lat="43.6064225" lon="11.3048783"><ele>208.33333333333331</ele><time>2026-03-28T11:34:53.952Z</time></trkpt><trkpt lat="43.6065782" lon="11.3047586"><ele>208.66666666666669</ele><time>2026-03-28T11:34:54.954Z</time></trkpt><trkpt lat="43.6067354" lon="11.3045919"><ele>209.0</ele><time>2026-03-28T11:34:55.954Z</time></trkpt><trkpt lat="43.6068662" lon="11.3043895"><ele>209.0</ele><time>2026-03-28T11:34:56.955Z</time></trkpt><trkpt lat="43.6069861" lon="11.3041619"><ele>209.0</ele><time>2026-03-28T11:34:57.954Z</time></trkpt><trkpt lat="43.6071076" lon="11.3039341"><ele>209.0</ele><time>2026-03-28T11:34:58.954Z</time></trkpt><trkpt lat="43.6072229" lon="11.3037006"><ele>209.0</ele><time>2026-03-28T11:34:59.953Z</time></trkpt><trkpt lat="43.6073412" lon="11.3034693"><ele>209.0</ele><time>2026-03-28T11:35:00.955Z</time></trkpt><trkpt lat="43.6074619" lon="11.3032348"><ele>209.0</ele><time>2026-03-28T11:35:01.953Z</time></trkpt><trkpt lat="43.6075839" lon="11.3030047"><ele>208.0</ele><time>2026-03-28T11:35:02.954Z</time></trkpt><trkpt lat="43.6077056" lon="11.3027755"><ele>207.0</ele><time>2026-03-28T11:35:03.954Z</time></trkpt><trkpt lat="43.6078057" lon="11.3025434"><ele>206.0</ele><time>2026-03-28T11:35:04.955Z</time></trkpt><trkpt lat="43.6078753" lon="11.3022873"><ele>208.66666666666669</ele><time>2026-03-28T11:35:05.954Z</time></trkpt><trkpt lat="43.6079078" lon="11.3020273"><ele>211.33333333333331</ele><time>2026-03-28T11:35:06.954Z</time></trkpt><trkpt lat="43.6079369" lon="11.3017755"><ele>214.0</ele><time>2026-03-28T11:35:07.953Z</time></trkpt><trkpt lat="43.6079819" lon="11.3015365"><ele>212.0</ele><time>2026-03-28T11:35:08.955Z</time></trkpt><trkpt lat="43.6080372" lon="11.3012986"><ele>210.0</ele><time>2026-03-28T11:35:09.954Z</time></trkpt><trkpt lat="43.6081089" lon="11.3010656"><ele>208.0</ele><time>2026-03-28T11:35:10.954Z</time></trkpt><trkpt lat="43.6081928" lon="11.3008416"><ele>208.0</ele><time>2026-03-28T11:35:11.953Z</time></trkpt><trkpt lat="43.6082858" lon="11.3006204"><ele>208.0</ele><time>2026-03-28T11:35:12.953Z</time></trkpt><trkpt lat="43.6083809" lon="11.3004217"><ele>208.0</ele><time>2026-03-28T11:35:13.954Z</time></trkpt><trkpt lat="43.6084819" lon="11.3002237"><ele>207.5</ele><time>2026-03-28T11:35:14.954Z</time></trkpt><trkpt lat="43.6085878" lon="11.30004"><ele>207.0</ele><time>2026-03-28T11:35:15.954Z</time></trkpt><trkpt lat="43.6086911" lon="11.2998924"><ele>206.5</ele><time>2026-03-28T11:35:16.953Z</time></trkpt><trkpt lat="43.6087902" lon="11.2997767"><ele>206.0</ele><time>2026-03-28T11:35:17.953Z</time></trkpt><trkpt lat="43.6089146" lon="11.2997129"><ele>206.0</ele><time>2026-03-28T11:35:18.953Z</time></trkpt><trkpt lat="43.6090466" lon="11.2997311"><ele>206.0</ele><time>2026-03-28T11:35:19.954Z</time></trkpt><trkpt lat="43.6091878" lon="11.2997866"><ele>206.0</ele><time>2026-03-28T11:35:20.953Z</time></trkpt><trkpt lat="43.6093419" lon="11.299866"><ele>206.0</ele><time>2026-03-28T11:35:21.955Z</time></trkpt><trkpt lat="43.60952" lon="11.2999176"><ele>207.66666666666669</ele><time>2026-03-28T11:35:22.952Z</time></trkpt><trkpt lat="43.6097029" lon="11.2999365"><ele>209.33333333333331</ele><time>2026-03-28T11:35:23.955Z</time></trkpt><trkpt lat="43.6098839" lon="11.2999144"><ele>211.0</ele><time>2026-03-28T11:35:24.954Z</time></trkpt><trkpt lat="43.6100709" lon="11.2998468"><ele>214.66666666666666</ele><time>2026-03-28T11:35:25.953Z</time></trkpt><trkpt lat="43.6102621" lon="11.299733"><ele>218.33333333333331</ele><time>2026-03-28T11:35:26.954Z</time></trkpt><trkpt lat="43.6104469" lon="11.2996103"><ele>222.0</ele><time>2026-03-28T11:35:27.953Z</time></trkpt><trkpt lat="43.6106195" lon="11.299501"><ele>222.0</ele><time>2026-03-28T11:35:28.953Z</time></trkpt><trkpt lat="43.6107951" lon="11.2994452"><ele>222.0</ele><time>2026-03-28T11:35:29.953Z</time></trkpt><trkpt lat="43.6109759" lon="11.299407"><ele>222.0</ele><time>2026-03-28T11:35:30.954Z</time></trkpt><trkpt lat="43.6111263" lon="11.299484"><ele>223.25</ele><time>2026-03-28T11:35:31.954Z</time></trkpt><trkpt lat="43.6112685" lon="11.2995364"><ele>224.5</ele><time>2026-03-28T11:35:32.954Z</time></trkpt><trkpt lat="43.6114095" lon="11.2995442"><ele>225.75</ele><time>2026-03-28T11:35:33.954Z</time></trkpt><trkpt lat="43.6115363" lon="11.299508"><ele>227.0</ele><time>2026-03-28T11:35:34.953Z</time></trkpt><trkpt lat="43.6116634" lon="11.2994225"><ele>227.0</ele><time>2026-03-28T11:35:35.954Z</time></trkpt><trkpt lat="43.611799" lon="11.2993321"><ele>227.0</ele><time>2026-03-28T11:35:36.953Z</time></trkpt><trkpt lat="43.6119442" lon="11.2992545"><ele>227.0</ele><time>2026-03-28T11:35:37.955Z</time></trkpt><trkpt lat="43.6120947" lon="11.2993057"><ele>227.66666666666669</ele><time>2026-03-28T11:35:38.953Z</time></trkpt><trkpt lat="43.6122646" lon="11.2993533"><ele>228.33333333333331</ele><time>2026-03-28T11:35:39.953Z</time></trkpt><trkpt lat="43.6124417" lon="11.2994386"><ele>229.0</ele><time>2026-03-28T11:35:40.953Z</time></trkpt><trkpt lat="43.6126238" lon="11.2995309"><ele>229.0</ele><time>2026-03-28T11:35:41.954Z</time></trkpt><trkpt lat="43.6128129" lon="11.2996287"><ele>229.0</ele><time>2026-03-28T11:35:42.955Z</time></trkpt><trkpt lat="43.6130086" lon="11.2997361"><ele>229.0</ele><time>2026-03-28T11:35:43.953Z</time></trkpt><trkpt lat="43.6132104" lon="11.2998509"><ele>228.66666666666666</ele><time>2026-03-28T11:35:44.953Z</time></trkpt><trkpt lat="43.6134185" lon="11.2999673"><ele>228.33333333333331</ele><time>2026-03-28T11:35:45.954Z</time></trkpt><trkpt lat="43.6136033" lon="11.3000746"><ele>228.0</ele><time>2026-03-28T11:35:46.953Z</time></trkpt><trkpt lat="43.6137752" lon="11.3001695"><ele>230.5</ele><time>2026-03-28T11:35:47.955Z</time></trkpt><trkpt lat="43.6139312" lon="11.3002467"><ele>233.0</ele><time>2026-03-28T11:35:48.955Z</time></trkpt><trkpt lat="43.6140522" lon="11.3003181"><ele>235.5</ele><time>2026-03-28T11:35:49.953Z</time></trkpt><trkpt lat="43.6141696" lon="11.3003473"><ele>238.0</ele><time>2026-03-28T11:35:50.953Z</time></trkpt><trkpt lat="43.6142607" lon="11.3003095"><ele>238.0</ele><time>2026-03-28T11:35:51.954Z</time></trkpt><trkpt lat="43.6143247" lon="11.3002201"><ele>238.0</ele><time>2026-03-28T11:35:52.953Z</time></trkpt><trkpt lat="43.6143418" lon="11.3000946"><ele>238.0</ele><time>2026-03-28T11:35:53.954Z</time></trkpt><trkpt lat="43.6143063" lon="11.2999683"><ele>238.0</ele><time>2026-03-28T11:35:54.954Z</time></trkpt><trkpt lat="43.6142172" lon="11.2998658"><ele>238.0</ele><time>2026-03-28T11:35:55.954Z</time></trkpt><trkpt lat="43.6140943" lon="11.299781"><ele>241.33333333333331</ele><time>2026-03-28T11:35:56.953Z</time></trkpt><trkpt lat="43.6139498" lon="11.2996866"><ele>244.66666666666669</ele><time>2026-03-28T11:35:57.953Z</time></trkpt><trkpt lat="43.6138072" lon="11.2995845"><ele>248.0</ele><time>2026-03-28T11:35:58.954Z</time></trkpt><trkpt lat="43.6136712" lon="11.2994581"><ele>247.0</ele><time>2026-03-28T11:35:59.953Z</time></trkpt><trkpt lat="43.6135509" lon="11.2992925"><ele>246.0</ele><time>2026-03-28T11:36:00.952Z</time></trkpt><trkpt lat="43.613437" lon="11.2990978"><ele>245.0</ele><time>2026-03-28T11:36:01.954Z</time></trkpt><trkpt lat="43.6133239" lon="11.2988851"><ele>245.0</ele><time>2026-03-28T11:36:02.953Z</time></trkpt><trkpt lat="43.6132198" lon="11.2987014"><ele>245.0</ele><time>2026-03-28T11:36:03.953Z</time></trkpt><trkpt lat="43.6131345" lon="11.2985284"><ele>245.0</ele><time>2026-03-28T11:36:04.954Z</time></trkpt><trkpt lat="43.6130862" lon="11.2983607"><ele>245.0</ele><time>2026-03-28T11:36:05.953Z</time></trkpt><trkpt lat="43.6130722" lon="11.2982043"><ele>245.0</ele><time>2026-03-28T11:36:06.952Z</time></trkpt><trkpt lat="43.6130991" lon="11.2980413"><ele>245.0</ele><time>2026-03-28T11:36:07.953Z</time></trkpt><trkpt lat="43.6131646" lon="11.2979113"><ele>245.0</ele><time>2026-03-28T11:36:08.953Z</time></trkpt><trkpt lat="43.613264" lon="11.2978307"><ele>244.4</ele><time>2026-03-28T11:36:09.954Z</time></trkpt><trkpt lat="43.6133728" lon="11.2977988"><ele>243.8</ele><time>2026-03-28T11:36:10.952Z</time></trkpt><trkpt lat="43.6134797" lon="11.2978345"><ele>243.2</ele><time>2026-03-28T11:36:11.954Z</time></trkpt><trkpt lat="43.6135666" lon="11.2979039"><ele>242.6</ele><time>2026-03-28T11:36:12.954Z</time></trkpt><trkpt lat="43.6136459" lon="11.2979698"><ele>242.0</ele><time>2026-03-28T11:36:13.954Z</time></trkpt><trkpt lat="43.6137211" lon="11.2980058"><ele>240.5</ele><time>2026-03-28T11:36:14.953Z</time></trkpt><trkpt lat="43.6138019" lon="11.298011"><ele>239.0</ele><time>2026-03-28T11:36:15.953Z</time></trkpt><trkpt lat="43.6139027" lon="11.2979658"><ele>237.5</ele><time>2026-03-28T11:36:16.954Z</time></trkpt><trkpt lat="43.6140295" lon="11.297922"><ele>236.0</ele><time>2026-03-28T11:36:17.954Z</time></trkpt><trkpt lat="43.6141793" lon="11.2978782"><ele>236.0</ele><time>2026-03-28T11:36:18.953Z</time></trkpt><trkpt lat="43.6143492" lon="11.2978294"><ele>236.0</ele><time>2026-03-28T11:36:19.954Z</time></trkpt><trkpt lat="43.6145374" lon="11.2977729"><ele>236.0</ele><time>2026-03-28T11:36:20.954Z</time></trkpt><trkpt lat="43.6147283" lon="11.2977005"><ele>235.66666666666669</ele><time>2026-03-28T11:36:21.953Z</time></trkpt><trkpt lat="43.6149329" lon="11.297622"><ele>235.33333333333331</ele><time>2026-03-28T11:36:22.952Z</time></trkpt><trkpt lat="43.6151513" lon="11.2975462"><ele>235.0</ele><time>2026-03-28T11:36:23.953Z</time></trkpt><trkpt lat="43.6153486" lon="11.2974798"><ele>235.0</ele><time>2026-03-28T11:36:24.953Z</time></trkpt><trkpt lat="43.6155396" lon="11.2974123"><ele>235.0</ele><time>2026-03-28T11:36:25.954Z</time></trkpt><trkpt lat="43.6157133" lon="11.2973371"><ele>235.0</ele><time>2026-03-28T11:36:26.953Z</time></trkpt><trkpt lat="43.6158758" lon="11.2972296"><ele>234.33333333333331</ele><time>2026-03-28T11:36:27.954Z</time></trkpt><trkpt lat="43.6160224" lon="11.2970837"><ele>233.66666666666669</ele><time>2026-03-28T11:36:28.955Z</time></trkpt><trkpt lat="43.6161586" lon="11.2969286"><ele>233.0</ele><time>2026-03-28T11:36:29.954Z</time></trkpt><trkpt lat="43.6162882" lon="11.2967822"><ele>233.0</ele><time>2026-03-28T11:36:30.954Z</time></trkpt><trkpt lat="43.6163992" lon="11.2966316"><ele>233.0</ele><time>2026-03-28T11:36:31.954Z</time></trkpt><trkpt lat="43.6165071" lon="11.2964899"><ele>233.0</ele><time>2026-03-28T11:36:32.954Z</time></trkpt><trkpt lat="43.6166167" lon="11.2963641"><ele>233.0</ele><time>2026-03-28T11:36:33.953Z</time></trkpt><trkpt lat="43.6167301" lon="11.2962633"><ele>229.75</ele><time>2026-03-28T11:36:34.955Z</time></trkpt><trkpt lat="43.6168534" lon="11.2961885"><ele>226.5</ele><time>2026-03-28T11:36:35.954Z</time></trkpt><trkpt lat="43.6169879" lon="11.2961423"><ele>223.25</ele><time>2026-03-28T11:36:36.953Z</time></trkpt><trkpt lat="43.6171324" lon="11.2961057"><ele>220.0</ele><time>2026-03-28T11:36:37.955Z</time></trkpt><trkpt lat="43.6172753" lon="11.2960782"><ele>220.0</ele><time>2026-03-28T11:36:38.954Z</time></trkpt><trkpt lat="43.6174268" lon="11.2960468"><ele>220.0</ele><time>2026-03-28T11:36:39.954Z</time></trkpt><trkpt lat="43.6175715" lon="11.2960235"><ele>220.0</ele><time>2026-03-28T11:36:40.954Z</time></trkpt><trkpt lat="43.617706" lon="11.2959932"><ele>220.0</ele><time>2026-03-28T11:36:41.953Z</time></trkpt><trkpt lat="43.617836" lon="11.2959691"><ele>218.5</ele><time>2026-03-28T11:36:42.954Z</time></trkpt><trkpt lat="43.6179619" lon="11.2959748"><ele>217.0</ele><time>2026-03-28T11:36:43.954Z</time></trkpt><trkpt lat="43.6180858" lon="11.2960013"><ele>215.5</ele><time>2026-03-28T11:36:44.953Z</time></trkpt><trkpt lat="43.618207" lon="11.2960501"><ele>214.0</ele><time>2026-03-28T11:36:45.954Z</time></trkpt><trkpt lat="43.6183332" lon="11.2961359"><ele>214.0</ele><time>2026-03-28T11:36:46.953Z</time></trkpt><trkpt lat="43.6184531" lon="11.2962351"><ele>214.0</ele><time>2026-03-28T11:36:47.953Z</time></trkpt><trkpt lat="43.6185728" lon="11.2963422"><ele>214.0</ele><time>2026-03-28T11:36:48.953Z</time></trkpt><trkpt lat="43.6186984" lon="11.2964321"><ele>214.0</ele><time>2026-03-28T11:36:49.953Z</time></trkpt><trkpt lat="43.6188304" lon="11.2964868"><ele>214.75</ele><time>2026-03-28T11:36:50.954Z</time></trkpt><trkpt lat="43.6189634" lon="11.2965139"><ele>215.5</ele><time>2026-03-28T11:36:51.952Z</time></trkpt><trkpt lat="43.6190954" lon="11.2965328"><ele>216.25</ele><time>2026-03-28T11:36:52.953Z</time></trkpt><trkpt lat="43.6192339" lon="11.2965619"><ele>217.0</ele><time>2026-03-28T11:36:53.954Z</time></trkpt><trkpt lat="43.6193598" lon="11.2966068"><ele>217.0</ele><time>2026-03-28T11:36:54.954Z</time></trkpt><trkpt lat="43.6194725" lon="11.2966775"><ele>217.0</ele><time>2026-03-28T11:36:55.954Z</time></trkpt><trkpt lat="43.6195583" lon="11.2967875"><ele>217.0</ele><time>2026-03-28T11:36:56.953Z</time></trkpt><trkpt lat="43.6196218" lon="11.2969195"><ele>217.0</ele><time>2026-03-28T11:36:57.953Z</time></trkpt><trkpt lat="43.6196712" lon="11.2970589"><ele>215.6</ele><time>2026-03-28T11:36:58.953Z</time></trkpt><trkpt lat="43.6197429" lon="11.2971761"><ele>214.2</ele><time>2026-03-28T11:36:59.953Z</time></trkpt><trkpt lat="43.6198313" lon="11.2972681"><ele>212.8</ele><time>2026-03-28T11:37:00.953Z</time></trkpt><trkpt lat="43.6199239" lon="11.2973292"><ele>211.4</ele><time>2026-03-28T11:37:01.953Z</time></trkpt><trkpt lat="43.6200141" lon="11.2973761"><ele>210.0</ele><time>2026-03-28T11:37:02.955Z</time></trkpt><trkpt lat="43.6201078" lon="11.2973963"><ele>210.0</ele><time>2026-03-28T11:37:03.954Z</time></trkpt><trkpt lat="43.6201964" lon="11.2973693"><ele>210.0</ele><time>2026-03-28T11:37:04.955Z</time></trkpt><trkpt lat="43.6202692" lon="11.2973066"><ele>210.0</ele><time>2026-03-28T11:37:05.954Z</time></trkpt><trkpt lat="43.6203164" lon="11.2972158"><ele>210.0</ele><time>2026-03-28T11:37:06.953Z</time></trkpt><trkpt lat="43.6203374" lon="11.2971051"><ele>210.0</ele><time>2026-03-28T11:37:07.953Z</time></trkpt><trkpt lat="43.6203279" lon="11.2969564"><ele>210.0</ele><time>2026-03-28T11:37:08.954Z</time></trkpt><trkpt lat="43.6203011" lon="11.2967879"><ele>209.0</ele><time>2026-03-28T11:37:09.953Z</time></trkpt><trkpt lat="43.6202736" lon="11.2966062"><ele>208.0</ele><time>2026-03-28T11:37:10.953Z</time></trkpt><trkpt lat="43.6202316" lon="11.2964028"><ele>207.0</ele><time>2026-03-28T11:37:11.952Z</time></trkpt><trkpt lat="43.6201739" lon="11.2961789"><ele>205.66666666666669</ele><time>2026-03-28T11:37:12.954Z</time></trkpt><trkpt lat="43.6201006" lon="11.2959376"><ele>204.33333333333334</ele><time>2026-03-28T11:37:13.953Z</time></trkpt><trkpt lat="43.6200276" lon="11.295693"><ele>203.0</ele><time>2026-03-28T11:37:14.954Z</time></trkpt><trkpt lat="43.619958" lon="11.295463"><ele>202.33333333333334</ele><time>2026-03-28T11:37:15.953Z</time></trkpt><trkpt lat="43.6198956" lon="11.2952465"><ele>201.66666666666669</ele><time>2026-03-28T11:37:16.954Z</time></trkpt><trkpt lat="43.6198164" lon="11.2950609"><ele>201.0</ele><time>2026-03-28T11:37:17.954Z</time></trkpt><trkpt lat="43.6197084" lon="11.2949033"><ele>201.0</ele><time>2026-03-28T11:37:18.954Z</time></trkpt><trkpt lat="43.6195601" lon="11.2947755"><ele>201.0</ele><time>2026-03-28T11:37:19.953Z</time></trkpt><trkpt lat="43.6194017" lon="11.294649"><ele>201.0</ele><time>2026-03-28T11:37:20.953Z</time></trkpt><trkpt lat="43.6192605" lon="11.2944977"><ele>199.0</ele><time>2026-03-28T11:37:21.953Z</time></trkpt><trkpt lat="43.6191322" lon="11.2943064"><ele>197.0</ele><time>2026-03-28T11:37:22.953Z</time></trkpt><trkpt lat="43.6190185" lon="11.2940743"><ele>195.0</ele><time>2026-03-28T11:37:23.954Z</time></trkpt><trkpt lat="43.6189203" lon="11.2938239"><ele>195.0</ele><time>2026-03-28T11:37:24.953Z</time></trkpt><trkpt lat="43.6188127" lon="11.2935599"><ele>195.0</ele><time>2026-03-28T11:37:25.954Z</time></trkpt><trkpt lat="43.6187084" lon="11.2933"><ele>195.0</ele><time>2026-03-28T11:37:26.953Z</time></trkpt><trkpt lat="43.6186127" lon="11.2930457"><ele>192.33333333333334</ele><time>2026-03-28T11:37:27.955Z</time></trkpt><trkpt lat="43.6185421" lon="11.292797"><ele>189.66666666666669</ele><time>2026-03-28T11:37:28.954Z</time></trkpt><trkpt lat="43.6185002" lon="11.2925501"><ele>187.0</ele><time>2026-03-28T11:37:29.954Z</time></trkpt><trkpt lat="43.6184928" lon="11.2923124"><ele>186.0</ele><time>2026-03-28T11:37:30.952Z</time></trkpt><trkpt lat="43.6185211" lon="11.2920739"><ele>185.0</ele><time>2026-03-28T11:37:31.953Z</time></trkpt><trkpt lat="43.6185749" lon="11.2918257"><ele>184.0</ele><time>2026-03-28T11:37:32.953Z</time></trkpt><trkpt lat="43.6186312" lon="11.2915678"><ele>187.0</ele><time>2026-03-28T11:37:33.953Z</time></trkpt><trkpt lat="43.6186936" lon="11.2912995"><ele>190.0</ele><time>2026-03-28T11:37:34.954Z</time></trkpt><trkpt lat="43.6187628" lon="11.2910334"><ele>193.0</ele><time>2026-03-28T11:37:35.953Z</time></trkpt><trkpt lat="43.6188264" lon="11.2907447"><ele>191.0</ele><time>2026-03-28T11:37:36.955Z</time></trkpt><trkpt lat="43.6188886" lon="11.2904431"><ele>189.0</ele><time>2026-03-28T11:37:37.955Z</time></trkpt><trkpt lat="43.6189459" lon="11.2901325"><ele>189.0</ele><time>2026-03-28T11:37:38.954Z</time></trkpt><trkpt lat="43.6190028" lon="11.2898179"><ele>189.0</ele><time>2026-03-28T11:37:39.954Z</time></trkpt><trkpt lat="43.6190591" lon="11.2894908"><ele>187.0</ele><time>2026-03-28T11:37:40.954Z</time></trkpt><trkpt lat="43.6191313" lon="11.2891685"><ele>185.0</ele><time>2026-03-28T11:37:41.954Z</time></trkpt><trkpt lat="43.6192151" lon="11.2888576"><ele>182.0</ele><time>2026-03-28T11:37:42.954Z</time></trkpt><trkpt lat="43.6192986" lon="11.2885663"><ele>179.0</ele><time>2026-03-28T11:37:43.954Z</time></trkpt><trkpt lat="43.6193924" lon="11.288287"><ele>181.0</ele><time>2026-03-28T11:37:44.953Z</time></trkpt><trkpt lat="43.6195012" lon="11.2880193"><ele>183.0</ele><time>2026-03-28T11:37:45.955Z</time></trkpt><trkpt lat="43.619617" lon="11.2877504"><ele>185.0</ele><time>2026-03-28T11:37:46.955Z</time></trkpt><trkpt lat="43.6197469" lon="11.2874834"><ele>182.0</ele><time>2026-03-28T11:37:47.954Z</time></trkpt><trkpt lat="43.6198668" lon="11.2872321"><ele>179.0</ele><time>2026-03-28T11:37:48.954Z</time></trkpt><trkpt lat="43.6199853" lon="11.2870014"><ele>176.0</ele><time>2026-03-28T11:37:49.954Z</time></trkpt><trkpt lat="43.6201094" lon="11.2868023"><ele>176.0</ele><time>2026-03-28T11:37:50.955Z</time></trkpt><trkpt lat="43.6202285" lon="11.2866219"><ele>176.0</ele><time>2026-03-28T11:37:51.953Z</time></trkpt><trkpt lat="43.6203544" lon="11.2864754"><ele>176.0</ele><time>2026-03-28T11:37:52.953Z</time></trkpt><trkpt lat="43.6204888" lon="11.2863547"><ele>174.66666666666666</ele><time>2026-03-28T11:37:53.954Z</time></trkpt><trkpt lat="43.6206384" lon="11.286274"><ele>173.33333333333334</ele><time>2026-03-28T11:37:54.954Z</time></trkpt><trkpt lat="43.6207998" lon="11.2862238"><ele>172.0</ele><time>2026-03-28T11:37:55.954Z</time></trkpt><trkpt lat="43.6209764" lon="11.2861975"><ele>171.66666666666669</ele><time>2026-03-28T11:37:56.952Z</time></trkpt><trkpt lat="43.6211622" lon="11.2861742"><ele>171.33333333333334</ele><time>2026-03-28T11:37:57.953Z</time></trkpt><trkpt lat="43.6213563" lon="11.2861528"><ele>171.0</ele><time>2026-03-28T11:37:58.955Z</time></trkpt><trkpt lat="43.6215405" lon="11.2861331"><ele>171.0</ele><time>2026-03-28T11:37:59.954Z</time></trkpt><trkpt lat="43.62171" lon="11.2861097"><ele>171.0</ele><time>2026-03-28T11:38:00.954Z</time></trkpt><trkpt lat="43.6218751" lon="11.2860544"><ele>171.0</ele><time>2026-03-28T11:38:01.953Z</time></trkpt><trkpt lat="43.622045" lon="11.2859787"><ele>172.66666666666666</ele><time>2026-03-28T11:38:02.954Z</time></trkpt><trkpt lat="43.6222097" lon="11.285891"><ele>174.33333333333331</ele><time>2026-03-28T11:38:03.955Z</time></trkpt><trkpt lat="43.6223708" lon="11.2857677"><ele>176.0</ele><time>2026-03-28T11:38:04.954Z</time></trkpt><trkpt lat="43.6225248" lon="11.2856138"><ele>175.66666666666666</ele><time>2026-03-28T11:38:05.953Z</time></trkpt><trkpt lat="43.6226785" lon="11.2854453"><ele>175.33333333333334</ele><time>2026-03-28T11:38:06.955Z</time></trkpt><trkpt lat="43.622835" lon="11.285274"><ele>175.0</ele><time>2026-03-28T11:38:07.954Z</time></trkpt><trkpt lat="43.6229785" lon="11.2851123"><ele>175.0</ele><time>2026-03-28T11:38:08.955Z</time></trkpt><trkpt lat="43.6231248" lon="11.2849693"><ele>175.0</ele><time>2026-03-28T11:38:09.953Z</time></trkpt><trkpt lat="43.623272" lon="11.2848421"><ele>175.0</ele><time>2026-03-28T11:38:10.954Z</time></trkpt><trkpt lat="43.6234305" lon="11.2847374"><ele>174.0</ele><time>2026-03-28T11:38:11.953Z</time></trkpt><trkpt lat="43.6235971" lon="11.2846421"><ele>173.0</ele><time>2026-03-28T11:38:12.954Z</time></trkpt><trkpt lat="43.6237642" lon="11.2845492"><ele>172.0</ele><time>2026-03-28T11:38:13.954Z</time></trkpt><trkpt lat="43.6239147" lon="11.2844258"><ele>172.0</ele><time>2026-03-28T11:38:14.954Z</time></trkpt><trkpt lat="43.6240423" lon="11.2842812"><ele>172.0</ele><time>2026-03-28T11:38:15.953Z</time></trkpt><trkpt lat="43.6241496" lon="11.2840957"><ele>172.0</ele><time>2026-03-28T11:38:16.955Z</time></trkpt><trkpt lat="43.6242443" lon="11.2839005"><ele>171.33333333333334</ele><time>2026-03-28T11:38:17.953Z</time></trkpt><trkpt lat="43.6243332" lon="11.2837042"><ele>170.66666666666666</ele><time>2026-03-28T11:38:18.954Z</time></trkpt><trkpt lat="43.6244195" lon="11.2835078"><ele>170.0</ele><time>2026-03-28T11:38:19.954Z</time></trkpt><trkpt lat="43.624512" lon="11.2833091"><ele>170.0</ele><time>2026-03-28T11:38:20.953Z</time></trkpt><trkpt lat="43.6246016" lon="11.2831058"><ele>170.0</ele><time>2026-03-28T11:38:21.954Z</time></trkpt><trkpt lat="43.624689" lon="11.2829126"><ele>170.0</ele><time>2026-03-28T11:38:22.953Z</time></trkpt><trkpt lat="43.6247707" lon="11.2827259"><ele>169.0</ele><time>2026-03-28T11:38:23.954Z</time></trkpt><trkpt lat="43.624849" lon="11.2825488"><ele>168.0</ele><time>2026-03-28T11:38:24.953Z</time></trkpt><trkpt lat="43.6249179" lon="11.2823833"><ele>167.0</ele><time>2026-03-28T11:38:25.954Z</time></trkpt><trkpt lat="43.6249823" lon="11.2822316"><ele>166.0</ele><time>2026-03-28T11:38:26.953Z</time></trkpt><trkpt lat="43.6250413" lon="11.282092"><ele>165.60000000000002</ele><time>2026-03-28T11:38:27.954Z</time></trkpt><trkpt lat="43.625095" lon="11.2819628"><ele>165.2</ele><time>2026-03-28T11:38:28.953Z</time></trkpt><trkpt lat="43.6251533" lon="11.2818457"><ele>164.8</ele><time>2026-03-28T11:38:29.953Z</time></trkpt><trkpt lat="43.6252068" lon="11.2817181"><ele>164.39999999999998</ele><time>2026-03-28T11:38:30.954Z</time></trkpt><trkpt lat="43.6252677" lon="11.2815871"><ele>164.0</ele><time>2026-03-28T11:38:31.954Z</time></trkpt><trkpt lat="43.6253282" lon="11.2814441"><ele>164.25</ele><time>2026-03-28T11:38:32.955Z</time></trkpt><trkpt lat="43.6253966" lon="11.2813019"><ele>164.5</ele><time>2026-03-28T11:38:33.955Z</time></trkpt><trkpt lat="43.625467" lon="11.2811484"><ele>164.75</ele><time>2026-03-28T11:38:34.954Z</time></trkpt><trkpt lat="43.6255439" lon="11.2809712"><ele>165.0</ele><time>2026-03-28T11:38:35.954Z</time></trkpt><trkpt lat="43.6256268" lon="11.2807805"><ele>164.66666666666666</ele><time>2026-03-28T11:38:36.953Z</time></trkpt><trkpt lat="43.6257256" lon="11.280572"><ele>164.33333333333331</ele><time>2026-03-28T11:38:37.954Z</time></trkpt><trkpt lat="43.6258246" lon="11.2803426"><ele>164.0</ele><time>2026-03-28T11:38:38.954Z</time></trkpt><trkpt lat="43.6259289" lon="11.2800969"><ele>164.0</ele><time>2026-03-28T11:38:39.953Z</time></trkpt><trkpt lat="43.626036" lon="11.2798397"><ele>164.0</ele><time>2026-03-28T11:38:40.952Z</time></trkpt><trkpt lat="43.6261633" lon="11.2795907"><ele>164.0</ele><time>2026-03-28T11:38:41.953Z</time></trkpt><trkpt lat="43.6263063" lon="11.2793454"><ele>163.0</ele><time>2026-03-28T11:38:42.955Z</time></trkpt><trkpt lat="43.6264606" lon="11.2790918"><ele>162.0</ele><time>2026-03-28T11:38:43.955Z</time></trkpt><trkpt lat="43.6266269" lon="11.2788438"><ele>162.0</ele><time>2026-03-28T11:38:44.953Z</time></trkpt><trkpt lat="43.626791" lon="11.2785971"><ele>162.0</ele><time>2026-03-28T11:38:45.953Z</time></trkpt><trkpt lat="43.6269558" lon="11.278361"><ele>162.0</ele><time>2026-03-28T11:38:46.953Z</time></trkpt><trkpt lat="43.6271234" lon="11.2781424"><ele>162.0</ele><time>2026-03-28T11:38:47.954Z</time></trkpt><trkpt lat="43.6272987" lon="11.277946"><ele>162.0</ele><time>2026-03-28T11:38:48.952Z</time></trkpt><trkpt lat="43.6274851" lon="11.2777482"><ele>162.0</ele><time>2026-03-28T11:38:49.953Z</time></trkpt><trkpt lat="43.6276867" lon="11.2775776"><ele>169.5</ele><time>2026-03-28T11:38:50.955Z</time></trkpt><trkpt lat="43.6278959" lon="11.2774131"><ele>177.0</ele><time>2026-03-28T11:38:51.954Z</time></trkpt><trkpt lat="43.6281172" lon="11.2772811"><ele>169.5</ele><time>2026-03-28T11:38:52.954Z</time></trkpt><trkpt lat="43.6283493" lon="11.277155"><ele>162.0</ele><time>2026-03-28T11:38:53.953Z</time></trkpt><trkpt lat="43.6285766" lon="11.2770431"><ele>162.66666666666666</ele><time>2026-03-28T11:38:54.954Z</time></trkpt><trkpt lat="43.628793" lon="11.2769372"><ele>163.33333333333331</ele><time>2026-03-28T11:38:55.954Z</time></trkpt><trkpt lat="43.6289926" lon="11.2768223"><ele>164.0</ele><time>2026-03-28T11:38:56.954Z</time></trkpt><trkpt lat="43.6291917" lon="11.2766801"><ele>164.0</ele><time>2026-03-28T11:38:57.954Z</time></trkpt><trkpt lat="43.6293754" lon="11.2764976"><ele>164.0</ele><time>2026-03-28T11:38:58.954Z</time></trkpt><trkpt lat="43.629554" lon="11.2762945"><ele>162.5</ele><time>2026-03-28T11:38:59.954Z</time></trkpt><trkpt lat="43.6297409" lon="11.2760752"><ele>161.0</ele><time>2026-03-28T11:39:00.955Z</time></trkpt><trkpt lat="43.6299416" lon="11.2758749"><ele>161.0</ele><time>2026-03-28T11:39:01.953Z</time></trkpt><trkpt lat="43.6301527" lon="11.2756818"><ele>161.0</ele><time>2026-03-28T11:39:02.954Z</time></trkpt><trkpt lat="43.6303626" lon="11.2755047"><ele>159.0</ele><time>2026-03-28T11:39:03.955Z</time></trkpt><trkpt lat="43.6305632" lon="11.2753451"><ele>157.0</ele><time>2026-03-28T11:39:04.955Z</time></trkpt><trkpt lat="43.6307611" lon="11.2751986"><ele>157.0</ele><time>2026-03-28T11:39:05.953Z</time></trkpt><trkpt lat="43.6309653" lon="11.2750687"><ele>157.0</ele><time>2026-03-28T11:39:06.954Z</time></trkpt><trkpt lat="43.6311802" lon="11.2749699"><ele>157.0</ele><time>2026-03-28T11:39:07.954Z</time></trkpt><trkpt lat="43.6314029" lon="11.2748986"><ele>157.0</ele><time>2026-03-28T11:39:08.954Z</time></trkpt><trkpt lat="43.631615" lon="11.2748421"><ele>157.0</ele><time>2026-03-28T11:39:09.953Z</time></trkpt><trkpt lat="43.6318161" lon="11.2747986"><ele>156.33333333333334</ele><time>2026-03-28T11:39:10.953Z</time></trkpt><trkpt lat="43.6319902" lon="11.2747502"><ele>155.66666666666666</ele><time>2026-03-28T11:39:11.954Z</time></trkpt><trkpt lat="43.6321455" lon="11.2746849"><ele>155.0</ele><time>2026-03-28T11:39:12.954Z</time></trkpt><trkpt lat="43.6322684" lon="11.2745855"><ele>155.0</ele><time>2026-03-28T11:39:13.953Z</time></trkpt><trkpt lat="43.6323601" lon="11.2744466"><ele>155.0</ele><time>2026-03-28T11:39:14.954Z</time></trkpt><trkpt lat="43.632407" lon="11.2742753"><ele>155.0</ele><time>2026-03-28T11:39:15.954Z</time></trkpt><trkpt lat="43.6324179" lon="11.2740829"><ele>155.0</ele><time>2026-03-28T11:39:16.954Z</time></trkpt><trkpt lat="43.6323798" lon="11.2738894"><ele>154.33333333333331</ele><time>2026-03-28T11:39:17.955Z</time></trkpt><trkpt lat="43.6322956" lon="11.273707"><ele>153.66666666666666</ele><time>2026-03-28T11:39:18.955Z</time></trkpt><trkpt lat="43.6321883" lon="11.2735468"><ele>153.0</ele><time>2026-03-28T11:39:19.955Z</time></trkpt><trkpt lat="43.6320957" lon="11.2733751"><ele>153.0</ele><time>2026-03-28T11:39:20.955Z</time></trkpt><trkpt lat="43.6320242" lon="11.2731682"><ele>153.0</ele><time>2026-03-28T11:39:21.954Z</time></trkpt><trkpt lat="43.6319937" lon="11.2729561"><ele>153.0</ele><time>2026-03-28T11:39:22.953Z</time></trkpt><trkpt lat="43.6319976" lon="11.2727296"><ele>153.66666666666666</ele><time>2026-03-28T11:39:23.954Z</time></trkpt><trkpt lat="43.6320525" lon="11.2725157"><ele>154.33333333333331</ele><time>2026-03-28T11:39:24.954Z</time></trkpt><trkpt lat="43.6321529" lon="11.2723105"><ele>155.0</ele><time>2026-03-28T11:39:25.955Z</time></trkpt><trkpt lat="43.6322784" lon="11.2721204"><ele>155.0</ele><time>2026-03-28T11:39:26.953Z</time></trkpt><trkpt lat="43.6324148" lon="11.2719196"><ele>155.0</ele><time>2026-03-28T11:39:27.953Z</time></trkpt><trkpt lat="43.6325642" lon="11.2717069"><ele>155.0</ele><time>2026-03-28T11:39:28.954Z</time></trkpt><trkpt lat="43.6327226" lon="11.2714855"><ele>154.5</ele><time>2026-03-28T11:39:29.955Z</time></trkpt><trkpt lat="43.6328859" lon="11.2712669"><ele>154.0</ele><time>2026-03-28T11:39:30.953Z</time></trkpt><trkpt lat="43.6330529" lon="11.2710412"><ele>154.0</ele><time>2026-03-28T11:39:31.953Z</time></trkpt><trkpt lat="43.6332207" lon="11.2708125"><ele>154.0</ele><time>2026-03-28T11:39:32.953Z</time></trkpt><trkpt lat="43.6333911" lon="11.2705788"><ele>153.66666666666669</ele><time>2026-03-28T11:39:33.955Z</time></trkpt><trkpt lat="43.6335505" lon="11.2703497"><ele>153.33333333333334</ele><time>2026-03-28T11:39:34.954Z</time></trkpt><trkpt lat="43.6337006" lon="11.2701344"><ele>153.0</ele><time>2026-03-28T11:39:35.954Z</time></trkpt><trkpt lat="43.6338594" lon="11.2699455"><ele>153.0</ele><time>2026-03-28T11:39:36.955Z</time></trkpt><trkpt lat="43.6340366" lon="11.2698098"><ele>153.0</ele><time>2026-03-28T11:39:37.954Z</time></trkpt><trkpt lat="43.6342307" lon="11.2697129"><ele>153.0</ele><time>2026-03-28T11:39:38.953Z</time></trkpt><trkpt lat="43.6344365" lon="11.2696351"><ele>153.33333333333334</ele><time>2026-03-28T11:39:39.954Z</time></trkpt><trkpt lat="43.6346457" lon="11.2695333"><ele>153.66666666666669</ele><time>2026-03-28T11:39:40.953Z</time></trkpt><trkpt lat="43.6348502" lon="11.2693953"><ele>154.0</ele><time>2026-03-28T11:39:41.955Z</time></trkpt><trkpt lat="43.6350437" lon="11.2692283"><ele>154.0</ele><time>2026-03-28T11:39:42.955Z</time></trkpt><trkpt lat="43.6352114" lon="11.2690483"><ele>154.0</ele><time>2026-03-28T11:39:43.953Z</time></trkpt><trkpt lat="43.6353465" lon="11.2688484"><ele>154.0</ele><time>2026-03-28T11:39:44.955Z</time></trkpt><trkpt lat="43.6354553" lon="11.2686286"><ele>153.66666666666669</ele><time>2026-03-28T11:39:45.954Z</time></trkpt><trkpt lat="43.6355283" lon="11.2683636"><ele>153.33333333333334</ele><time>2026-03-28T11:39:46.953Z</time></trkpt><trkpt lat="43.6355794" lon="11.2680773"><ele>153.0</ele><time>2026-03-28T11:39:47.953Z</time></trkpt><trkpt lat="43.6356224" lon="11.2677833"><ele>153.0</ele><time>2026-03-28T11:39:48.955Z</time></trkpt><trkpt lat="43.6356644" lon="11.2675045"><ele>153.0</ele><time>2026-03-28T11:39:49.954Z</time></trkpt><trkpt lat="43.6357087" lon="11.2672503"><ele>153.0</ele><time>2026-03-28T11:39:50.953Z</time></trkpt><trkpt lat="43.6357831" lon="11.267016"><ele>152.66666666666666</ele><time>2026-03-28T11:39:51.954Z</time></trkpt><trkpt lat="43.6358931" lon="11.2668048"><ele>152.33333333333331</ele><time>2026-03-28T11:39:52.955Z</time></trkpt><trkpt lat="43.6360205" lon="11.2666198"><ele>152.0</ele><time>2026-03-28T11:39:53.954Z</time></trkpt><trkpt lat="43.6361791" lon="11.2664753"><ele>153.66666666666666</ele><time>2026-03-28T11:39:54.953Z</time></trkpt><trkpt lat="43.6363669" lon="11.2663644"><ele>155.33333333333334</ele><time>2026-03-28T11:39:55.952Z</time></trkpt><trkpt lat="43.6365693" lon="11.2662673"><ele>157.0</ele><time>2026-03-28T11:39:56.954Z</time></trkpt><trkpt lat="43.6367786" lon="11.2661759"><ele>156.0</ele><time>2026-03-28T11:39:57.953Z</time></trkpt><trkpt lat="43.6369971" lon="11.2660764"><ele>155.0</ele><time>2026-03-28T11:39:58.952Z</time></trkpt><trkpt lat="43.6372187" lon="11.2659802"><ele>155.0</ele><time>2026-03-28T11:39:59.953Z</time></trkpt><trkpt lat="43.6374414" lon="11.2658771"><ele>155.0</ele><time>2026-03-28T11:40:00.952Z</time></trkpt><trkpt lat="43.6376618" lon="11.265768"><ele>155.0</ele><time>2026-03-28T11:40:01.954Z</time></trkpt><trkpt lat="43.6378874" lon="11.2656467"><ele>155.0</ele><time>2026-03-28T11:40:02.954Z</time></trkpt><trkpt lat="43.638122" lon="11.2655149"><ele>155.0</ele><time>2026-03-28T11:40:03.955Z</time></trkpt><trkpt lat="43.6383572" lon="11.2653905"><ele>155.0</ele><time>2026-03-28T11:40:04.953Z</time></trkpt><trkpt lat="43.638604" lon="11.265255"><ele>153.5</ele><time>2026-03-28T11:40:05.955Z</time></trkpt><trkpt lat="43.6388519" lon="11.2651242"><ele>152.0</ele><time>2026-03-28T11:40:06.955Z</time></trkpt><trkpt lat="43.6390986" lon="11.2650013"><ele>152.0</ele><time>2026-03-28T11:40:07.954Z</time></trkpt><trkpt lat="43.639351" lon="11.2648769"><ele>152.0</ele><time>2026-03-28T11:40:08.954Z</time></trkpt><trkpt lat="43.6396068" lon="11.2647504"><ele>153.0</ele><time>2026-03-28T11:40:09.954Z</time></trkpt><trkpt lat="43.6398482" lon="11.264624"><ele>154.0</ele><time>2026-03-28T11:40:10.953Z</time></trkpt><trkpt lat="43.6400706" lon="11.2645064"><ele>154.0</ele><time>2026-03-28T11:40:11.953Z</time></trkpt><trkpt lat="43.6402824" lon="11.2643865"><ele>154.0</ele><time>2026-03-28T11:40:12.955Z</time></trkpt><trkpt lat="43.6404763" lon="11.2642873"><ele>154.0</ele><time>2026-03-28T11:40:13.953Z</time></trkpt><trkpt lat="43.6406652" lon="11.2642059"><ele>153.33333333333334</ele><time>2026-03-28T11:40:14.955Z</time></trkpt><trkpt lat="43.6408589" lon="11.2641655"><ele>152.66666666666666</ele><time>2026-03-28T11:40:15.954Z</time></trkpt><trkpt lat="43.6410679" lon="11.264169"><ele>152.0</ele><time>2026-03-28T11:40:16.953Z</time></trkpt><trkpt lat="43.6412798" lon="11.2642096"><ele>152.0</ele><time>2026-03-28T11:40:17.953Z</time></trkpt><trkpt lat="43.6414854" lon="11.2642918"><ele>152.0</ele><time>2026-03-28T11:40:18.954Z</time></trkpt><trkpt lat="43.641698" lon="11.2644093"><ele>152.0</ele><time>2026-03-28T11:40:19.954Z</time></trkpt><trkpt lat="43.641905" lon="11.2645564"><ele>151.5</ele><time>2026-03-28T11:40:20.953Z</time></trkpt><trkpt lat="43.6421045" lon="11.2647227"><ele>151.0</ele><time>2026-03-28T11:40:21.954Z</time></trkpt><trkpt lat="43.6423119" lon="11.2648975"><ele>151.0</ele><time>2026-03-28T11:40:22.953Z</time></trkpt><trkpt lat="43.6425172" lon="11.2650754"><ele>151.0</ele><time>2026-03-28T11:40:23.954Z</time></trkpt><trkpt lat="43.6427093" lon="11.2652524"><ele>150.0</ele><time>2026-03-28T11:40:24.955Z</time></trkpt><trkpt lat="43.642894" lon="11.2654201"><ele>149.0</ele><time>2026-03-28T11:40:25.954Z</time></trkpt><trkpt lat="43.6430867" lon="11.2655717"><ele>148.0</ele><time>2026-03-28T11:40:26.954Z</time></trkpt><trkpt lat="43.643276" lon="11.265715"><ele>148.0</ele><time>2026-03-28T11:40:27.953Z</time></trkpt><trkpt lat="43.6434801" lon="11.2658247"><ele>148.0</ele><time>2026-03-28T11:40:28.953Z</time></trkpt><trkpt lat="43.64369" lon="11.2659005"><ele>148.0</ele><time>2026-03-28T11:40:29.952Z</time></trkpt><trkpt lat="43.6438989" lon="11.265931"><ele>147.66666666666669</ele><time>2026-03-28T11:40:30.953Z</time></trkpt><trkpt lat="43.6441132" lon="11.2659088"><ele>147.33333333333334</ele><time>2026-03-28T11:40:31.954Z</time></trkpt><trkpt lat="43.6443245" lon="11.2658312"><ele>147.0</ele><time>2026-03-28T11:40:32.954Z</time></trkpt><trkpt lat="43.6445306" lon="11.2657174"><ele>146.0</ele><time>2026-03-28T11:40:33.955Z</time></trkpt><trkpt lat="43.6447472" lon="11.2655936"><ele>145.0</ele><time>2026-03-28T11:40:34.955Z</time></trkpt><trkpt lat="43.6449705" lon="11.2654633"><ele>145.0</ele><time>2026-03-28T11:40:35.954Z</time></trkpt><trkpt lat="43.6451975" lon="11.2653283"><ele>145.0</ele><time>2026-03-28T11:40:36.953Z</time></trkpt><trkpt lat="43.6454369" lon="11.2651955"><ele>146.0</ele><time>2026-03-28T11:40:37.954Z</time></trkpt><trkpt lat="43.6456731" lon="11.2650579"><ele>147.0</ele><time>2026-03-28T11:40:38.953Z</time></trkpt><trkpt lat="43.6459166" lon="11.2649155"><ele>147.5</ele><time>2026-03-28T11:40:39.955Z</time></trkpt><trkpt lat="43.6461535" lon="11.2647798"><ele>148.0</ele><time>2026-03-28T11:40:40.955Z</time></trkpt><trkpt lat="43.6463751" lon="11.2646573"><ele>146.66666666666669</ele><time>2026-03-28T11:40:41.955Z</time></trkpt><trkpt lat="43.6465805" lon="11.2645366"><ele>145.33333333333334</ele><time>2026-03-28T11:40:42.955Z</time></trkpt><trkpt lat="43.6467729" lon="11.2644196"><ele>144.0</ele><time>2026-03-28T11:40:43.954Z</time></trkpt><trkpt lat="43.646952" lon="11.2643108"><ele>145.0</ele><time>2026-03-28T11:40:44.954Z</time></trkpt><trkpt lat="43.6471153" lon="11.2642123"><ele>146.0</ele><time>2026-03-28T11:40:45.952Z</time></trkpt><trkpt lat="43.6472835" lon="11.264106"><ele>147.0</ele><time>2026-03-28T11:40:46.954Z</time></trkpt><trkpt lat="43.647448" lon="11.263993"><ele>145.66666666666666</ele><time>2026-03-28T11:40:47.953Z</time></trkpt><trkpt lat="43.6476048" lon="11.2638563"><ele>144.33333333333331</ele><time>2026-03-28T11:40:48.955Z</time></trkpt><trkpt lat="43.6477515" lon="11.2637078"><ele>143.0</ele><time>2026-03-28T11:40:49.954Z</time></trkpt><trkpt lat="43.6478915" lon="11.2635382"><ele>143.0</ele><time>2026-03-28T11:40:50.953Z</time></trkpt><trkpt lat="43.648013" lon="11.2633452"><ele>143.0</ele><time>2026-03-28T11:40:51.954Z</time></trkpt><trkpt lat="43.6481207" lon="11.2631393"><ele>143.0</ele><time>2026-03-28T11:40:52.954Z</time></trkpt><trkpt lat="43.6482098" lon="11.2629182"><ele>142.66666666666666</ele><time>2026-03-28T11:40:53.954Z</time></trkpt><trkpt lat="43.6482716" lon="11.2626783"><ele>142.33333333333334</ele><time>2026-03-28T11:40:54.954Z</time></trkpt><trkpt lat="43.6483103" lon="11.2624256"><ele>142.0</ele><time>2026-03-28T11:40:55.954Z</time></trkpt><trkpt lat="43.6483234" lon="11.2621658"><ele>142.0</ele><time>2026-03-28T11:40:56.955Z</time></trkpt><trkpt lat="43.648322" lon="11.2618974"><ele>142.0</ele><time>2026-03-28T11:40:57.953Z</time></trkpt><trkpt lat="43.6483019" lon="11.2616206"><ele>142.0</ele><time>2026-03-28T11:40:58.953Z</time></trkpt><trkpt lat="43.6482775" lon="11.26134"><ele>142.0</ele><time>2026-03-28T11:40:59.953Z</time></trkpt><trkpt lat="43.6482581" lon="11.2610745"><ele>142.0</ele><time>2026-03-28T11:41:00.954Z</time></trkpt><trkpt lat="43.6482383" lon="11.2608356"><ele>142.0</ele><time>2026-03-28T11:41:01.955Z</time></trkpt><trkpt lat="43.6482234" lon="11.2606251"><ele>141.75</ele><time>2026-03-28T11:41:02.953Z</time></trkpt><trkpt lat="43.6482146" lon="11.2604276"><ele>141.5</ele><time>2026-03-28T11:41:03.955Z</time></trkpt><trkpt lat="43.648221" lon="11.2602453"><ele>141.25</ele><time>2026-03-28T11:41:04.955Z</time></trkpt><trkpt lat="43.6482507" lon="11.2600767"><ele>141.0</ele><time>2026-03-28T11:41:05.954Z</time></trkpt><trkpt lat="43.6482989" lon="11.2599313"><ele>141.0</ele><time>2026-03-28T11:41:06.954Z</time></trkpt><trkpt lat="43.6483736" lon="11.2598099"><ele>141.0</ele><time>2026-03-28T11:41:07.954Z</time></trkpt><trkpt lat="43.6484549" lon="11.2597187"><ele>141.0</ele><time>2026-03-28T11:41:08.953Z</time></trkpt><trkpt lat="43.6485451" lon="11.2596583"><ele>141.0</ele><time>2026-03-28T11:41:09.953Z</time></trkpt><trkpt lat="43.6486381" lon="11.2596097"><ele>141.0</ele><time>2026-03-28T11:41:10.953Z</time></trkpt><trkpt lat="43.6487534" lon="11.2595797"><ele>140.33333333333334</ele><time>2026-03-28T11:41:11.955Z</time></trkpt><trkpt lat="43.6488847" lon="11.2595716"><ele>139.66666666666669</ele><time>2026-03-28T11:41:12.953Z</time></trkpt><trkpt lat="43.6490456" lon="11.2595763"><ele>139.0</ele><time>2026-03-28T11:41:13.954Z</time></trkpt><trkpt lat="43.6492195" lon="11.2595933"><ele>139.0</ele><time>2026-03-28T11:41:14.954Z</time></trkpt><trkpt lat="43.6494055" lon="11.2596129"><ele>139.0</ele><time>2026-03-28T11:41:15.953Z</time></trkpt><trkpt lat="43.6495909" lon="11.2596306"><ele>139.0</ele><time>2026-03-28T11:41:16.954Z</time></trkpt><trkpt lat="43.6497632" lon="11.2596397"><ele>138.66666666666669</ele><time>2026-03-28T11:41:17.955Z</time></trkpt><trkpt lat="43.6499249" lon="11.259635"><ele>138.33333333333334</ele><time>2026-03-28T11:41:18.954Z</time></trkpt><trkpt lat="43.6500685" lon="11.259575"><ele>138.0</ele><time>2026-03-28T11:41:19.954Z</time></trkpt><trkpt lat="43.6502056" lon="11.2594663"><ele>137.66666666666666</ele><time>2026-03-28T11:41:20.955Z</time></trkpt><trkpt lat="43.6503368" lon="11.259316"><ele>137.33333333333331</ele><time>2026-03-28T11:41:21.954Z</time></trkpt><trkpt lat="43.650476" lon="11.2591544"><ele>137.0</ele><time>2026-03-28T11:41:22.953Z</time></trkpt><trkpt lat="43.6506213" lon="11.2589916"><ele>136.66666666666666</ele><time>2026-03-28T11:41:23.953Z</time></trkpt><trkpt lat="43.6507786" lon="11.2588409"><ele>136.33333333333334</ele><time>2026-03-28T11:41:24.953Z</time></trkpt><trkpt lat="43.6509446" lon="11.2587272"><ele>136.0</ele><time>2026-03-28T11:41:25.954Z</time></trkpt><trkpt lat="43.6511245" lon="11.2586543"><ele>135.33333333333334</ele><time>2026-03-28T11:41:26.954Z</time></trkpt><trkpt lat="43.6513224" lon="11.2586301"><ele>134.66666666666666</ele><time>2026-03-28T11:41:27.954Z</time></trkpt><trkpt lat="43.6515308" lon="11.2586378"><ele>134.0</ele><time>2026-03-28T11:41:28.955Z</time></trkpt><trkpt lat="43.6517487" lon="11.2586553"><ele>134.0</ele><time>2026-03-28T11:41:29.953Z</time></trkpt><trkpt lat="43.6519749" lon="11.2586764"><ele>134.0</ele><time>2026-03-28T11:41:30.953Z</time></trkpt><trkpt lat="43.6521879" lon="11.2586971"><ele>134.0</ele><time>2026-03-28T11:41:31.955Z</time></trkpt><trkpt lat="43.6523906" lon="11.2587118"><ele>134.0</ele><time>2026-03-28T11:41:32.955Z</time></trkpt><trkpt lat="43.6525866" lon="11.2587238"><ele>134.0</ele><time>2026-03-28T11:41:33.954Z</time></trkpt><trkpt lat="43.6527607" lon="11.2587372"><ele>134.0</ele><time>2026-03-28T11:41:34.954Z</time></trkpt><trkpt lat="43.6529181" lon="11.2587483"><ele>134.25</ele><time>2026-03-28T11:41:35.952Z</time></trkpt><trkpt lat="43.6530581" lon="11.2587497"><ele>134.5</ele><time>2026-03-28T11:41:36.955Z</time></trkpt><trkpt lat="43.6531952" lon="11.2587424"><ele>134.75</ele><time>2026-03-28T11:41:37.953Z</time></trkpt><trkpt lat="43.6533296" lon="11.2587088"><ele>135.0</ele><time>2026-03-28T11:41:38.954Z</time></trkpt><trkpt lat="43.6534678" lon="11.2586496"><ele>135.0</ele><time>2026-03-28T11:41:39.954Z</time></trkpt><trkpt lat="43.6536132" lon="11.2585824"><ele>135.0</ele><time>2026-03-28T11:41:40.954Z</time></trkpt><trkpt lat="43.6537679" lon="11.2585083"><ele>135.0</ele><time>2026-03-28T11:41:41.954Z</time></trkpt><trkpt lat="43.6539249" lon="11.2584391"><ele>136.0</ele><time>2026-03-28T11:41:42.954Z</time></trkpt><trkpt lat="43.6540766" lon="11.2583687"><ele>137.0</ele><time>2026-03-28T11:41:43.953Z</time></trkpt><trkpt lat="43.6542322" lon="11.2583027"><ele>138.0</ele><time>2026-03-28T11:41:44.953Z</time></trkpt><trkpt lat="43.6543869" lon="11.2582578"><ele>138.0</ele><time>2026-03-28T11:41:45.953Z</time></trkpt><trkpt lat="43.6545428" lon="11.2582363"><ele>138.0</ele><time>2026-03-28T11:41:46.954Z</time></trkpt><trkpt lat="43.6546964" lon="11.2582296"><ele>138.0</ele><time>2026-03-28T11:41:47.954Z</time></trkpt><trkpt lat="43.6548385" lon="11.2582144"><ele>138.0</ele><time>2026-03-28T11:41:48.954Z</time></trkpt><trkpt lat="43.6549703" lon="11.2581766"><ele>138.0</ele><time>2026-03-28T11:41:49.955Z</time></trkpt><trkpt lat="43.6550876" lon="11.2581247"><ele>138.0</ele><time>2026-03-28T11:41:50.953Z</time></trkpt><trkpt lat="43.6551796" lon="11.2580544"><ele>138.0</ele><time>2026-03-28T11:41:51.954Z</time></trkpt><trkpt lat="43.6552699" lon="11.2579911"><ele>136.75</ele><time>2026-03-28T11:41:52.954Z</time></trkpt><trkpt lat="43.655364" lon="11.25795"><ele>135.5</ele><time>2026-03-28T11:41:53.954Z</time></trkpt><trkpt lat="43.6555825" lon="11.2579133"><ele>134.25</ele><time>2026-03-28T11:41:55.952Z</time></trkpt><trkpt lat="43.6557113" lon="11.2579295"><ele>133.0</ele><time>2026-03-28T11:41:56.953Z</time></trkpt><trkpt lat="43.6558436" lon="11.257953"><ele>133.0</ele><time>2026-03-28T11:41:57.955Z</time></trkpt><trkpt lat="43.6559818" lon="11.257975"><ele>133.0</ele><time>2026-03-28T11:41:58.954Z</time></trkpt><trkpt lat="43.6561276" lon="11.2580006"><ele>133.0</ele><time>2026-03-28T11:41:59.954Z</time></trkpt><trkpt lat="43.6562772" lon="11.2580292"><ele>133.0</ele><time>2026-03-28T11:42:00.954Z</time></trkpt><trkpt lat="43.6564362" lon="11.2580648"><ele>132.5</ele><time>2026-03-28T11:42:01.954Z</time></trkpt><trkpt lat="43.6565836" lon="11.2581252"><ele>132.0</ele><time>2026-03-28T11:42:02.955Z</time></trkpt><trkpt lat="43.6567192" lon="11.2581973"><ele>131.5</ele><time>2026-03-28T11:42:03.954Z</time></trkpt><trkpt lat="43.6568474" lon="11.2582658"><ele>131.0</ele><time>2026-03-28T11:42:04.954Z</time></trkpt><trkpt lat="43.6569697" lon="11.2583122"><ele>131.0</ele><time>2026-03-28T11:42:05.953Z</time></trkpt><trkpt lat="43.657087" lon="11.2583415"><ele>131.0</ele><time>2026-03-28T11:42:06.954Z</time></trkpt><trkpt lat="43.6572015" lon="11.258349"><ele>131.0</ele><time>2026-03-28T11:42:07.954Z</time></trkpt><trkpt lat="43.6573188" lon="11.2583348"><ele>131.0</ele><time>2026-03-28T11:42:08.953Z</time></trkpt><trkpt lat="43.6574321" lon="11.2583104"><ele>131.0</ele><time>2026-03-28T11:42:09.953Z</time></trkpt><trkpt lat="43.6575565" lon="11.2582579"><ele>131.0</ele><time>2026-03-28T11:42:10.954Z</time></trkpt><trkpt lat="43.6576973" lon="11.2581968"><ele>131.0</ele><time>2026-03-28T11:42:11.953Z</time></trkpt><trkpt lat="43.6578422" lon="11.2581381"><ele>131.0</ele><time>2026-03-28T11:42:12.953Z</time></trkpt><trkpt lat="43.6579867" lon="11.2580607"><ele>131.33333333333331</ele><time>2026-03-28T11:42:13.954Z</time></trkpt><trkpt lat="43.6581309" lon="11.2579515"><ele>131.66666666666666</ele><time>2026-03-28T11:42:14.953Z</time></trkpt><trkpt lat="43.6582636" lon="11.2578207"><ele>132.0</ele><time>2026-03-28T11:42:15.953Z</time></trkpt><trkpt lat="43.6583947" lon="11.2576672"><ele>132.0</ele><time>2026-03-28T11:42:16.953Z</time></trkpt><trkpt lat="43.6585286" lon="11.2575009"><ele>132.0</ele><time>2026-03-28T11:42:17.953Z</time></trkpt><trkpt lat="43.6586552" lon="11.2573461"><ele>132.0</ele><time>2026-03-28T11:42:18.954Z</time></trkpt><trkpt lat="43.6587747" lon="11.2571933"><ele>132.33333333333334</ele><time>2026-03-28T11:42:19.955Z</time></trkpt><trkpt lat="43.6588768" lon="11.2570233"><ele>132.66666666666669</ele><time>2026-03-28T11:42:20.954Z</time></trkpt><trkpt lat="43.6589564" lon="11.2568376"><ele>133.0</ele><time>2026-03-28T11:42:21.954Z</time></trkpt><trkpt lat="43.6590118" lon="11.2566381"><ele>134.0</ele><time>2026-03-28T11:42:22.953Z</time></trkpt><trkpt lat="43.6590352" lon="11.2564141"><ele>135.0</ele><time>2026-03-28T11:42:23.955Z</time></trkpt><trkpt lat="43.6590261" lon="11.2561678"><ele>136.0</ele><time>2026-03-28T11:42:24.954Z</time></trkpt><trkpt lat="43.6590089" lon="11.2558988"><ele>135.66666666666669</ele><time>2026-03-28T11:42:25.954Z</time></trkpt><trkpt lat="43.6590027" lon="11.255607"><ele>135.33333333333334</ele><time>2026-03-28T11:42:26.953Z</time></trkpt><trkpt lat="43.6589939" lon="11.2553246"><ele>135.0</ele><time>2026-03-28T11:42:27.953Z</time></trkpt><trkpt lat="43.6589809" lon="11.2550244"><ele>134.0</ele><time>2026-03-28T11:42:28.954Z</time></trkpt><trkpt lat="43.6589603" lon="11.2547187"><ele>133.0</ele><time>2026-03-28T11:42:29.953Z</time></trkpt><trkpt lat="43.6589436" lon="11.2544182"><ele>132.0</ele><time>2026-03-28T11:42:30.954Z</time></trkpt><trkpt lat="43.6589259" lon="11.2541368"><ele>132.0</ele><time>2026-03-28T11:42:31.954Z</time></trkpt><trkpt lat="43.6589069" lon="11.2538809"><ele>132.0</ele><time>2026-03-28T11:42:32.955Z</time></trkpt><trkpt lat="43.6588948" lon="11.2536427"><ele>132.0</ele><time>2026-03-28T11:42:33.954Z</time></trkpt><trkpt lat="43.6588754" lon="11.253413"><ele>132.0</ele><time>2026-03-28T11:42:34.954Z</time></trkpt><trkpt lat="43.6588631" lon="11.2531847"><ele>132.0</ele><time>2026-03-28T11:42:35.955Z</time></trkpt><trkpt lat="43.6588553" lon="11.2529684"><ele>132.0</ele><time>2026-03-28T11:42:36.955Z</time></trkpt><trkpt lat="43.6588449" lon="11.252742"><ele>132.33333333333334</ele><time>2026-03-28T11:42:37.955Z</time></trkpt><trkpt lat="43.6588303" lon="11.2525066"><ele>132.66666666666669</ele><time>2026-03-28T11:42:38.955Z</time></trkpt><trkpt lat="43.6588247" lon="11.2522585"><ele>133.0</ele><time>2026-03-28T11:42:39.954Z</time></trkpt><trkpt lat="43.6588131" lon="11.2520079"><ele>133.0</ele><time>2026-03-28T11:42:40.953Z</time></trkpt><trkpt lat="43.6587976" lon="11.251754"><ele>133.0</ele><time>2026-03-28T11:42:41.954Z</time></trkpt><trkpt lat="43.6587808" lon="11.2514859"><ele>133.0</ele><time>2026-03-28T11:42:42.953Z</time></trkpt><trkpt lat="43.6587612" lon="11.2512104"><ele>132.66666666666669</ele><time>2026-03-28T11:42:43.953Z</time></trkpt><trkpt lat="43.6587424" lon="11.2509289"><ele>132.33333333333334</ele><time>2026-03-28T11:42:44.954Z</time></trkpt><trkpt lat="43.6587237" lon="11.25064"><ele>132.0</ele><time>2026-03-28T11:42:45.954Z</time></trkpt><trkpt lat="43.6587053" lon="11.2503387"><ele>131.5</ele><time>2026-03-28T11:42:46.953Z</time></trkpt><trkpt lat="43.6587013" lon="11.2500314"><ele>131.0</ele><time>2026-03-28T11:42:47.953Z</time></trkpt><trkpt lat="43.6587075" lon="11.2497155"><ele>131.0</ele><time>2026-03-28T11:42:48.954Z</time></trkpt><trkpt lat="43.658716" lon="11.2493884"><ele>131.0</ele><time>2026-03-28T11:42:49.954Z</time></trkpt><trkpt lat="43.6587254" lon="11.2490529"><ele>132.5</ele><time>2026-03-28T11:42:50.954Z</time></trkpt><trkpt lat="43.658744" lon="11.2487141"><ele>134.0</ele><time>2026-03-28T11:42:51.954Z</time></trkpt><trkpt lat="43.6587605" lon="11.2483669"><ele>132.5</ele><time>2026-03-28T11:42:52.954Z</time></trkpt><trkpt lat="43.6587778" lon="11.2480147"><ele>131.0</ele><time>2026-03-28T11:42:53.954Z</time></trkpt><trkpt lat="43.6587969" lon="11.2476591"><ele>131.0</ele><time>2026-03-28T11:42:54.955Z</time></trkpt><trkpt lat="43.6588143" lon="11.2473118"><ele>131.0</ele><time>2026-03-28T11:42:55.955Z</time></trkpt><trkpt lat="43.6588332" lon="11.2469567"><ele>131.0</ele><time>2026-03-28T11:42:56.954Z</time></trkpt><trkpt lat="43.6588492" lon="11.2466008"><ele>131.0</ele><time>2026-03-28T11:42:57.954Z</time></trkpt><trkpt lat="43.6588684" lon="11.2462444"><ele>131.5</ele><time>2026-03-28T11:42:58.954Z</time></trkpt><trkpt lat="43.658885" lon="11.2459175"><ele>132.0</ele><time>2026-03-28T11:42:59.955Z</time></trkpt><trkpt lat="43.6589034" lon="11.2456106"><ele>132.33333333333334</ele><time>2026-03-28T11:43:00.954Z</time></trkpt><trkpt lat="43.6588988" lon="11.2453076"><ele>132.66666666666669</ele><time>2026-03-28T11:43:01.953Z</time></trkpt><trkpt lat="43.6588772" lon="11.2450146"><ele>133.0</ele><time>2026-03-28T11:43:02.954Z</time></trkpt><trkpt lat="43.6588159" lon="11.2447175"><ele>133.0</ele><time>2026-03-28T11:43:03.954Z</time></trkpt><trkpt lat="43.6587356" lon="11.2444154"><ele>133.0</ele><time>2026-03-28T11:43:04.954Z</time></trkpt><trkpt lat="43.6586371" lon="11.2441094"><ele>129.5</ele><time>2026-03-28T11:43:05.954Z</time></trkpt><trkpt lat="43.6585327" lon="11.2438038"><ele>126.0</ele><time>2026-03-28T11:43:06.953Z</time></trkpt><trkpt lat="43.6584383" lon="11.2435115"><ele>126.0</ele><time>2026-03-28T11:43:07.952Z</time></trkpt><trkpt lat="43.6583525" lon="11.2432287"><ele>126.0</ele><time>2026-03-28T11:43:08.954Z</time></trkpt><trkpt lat="43.6582812" lon="11.2429488"><ele>126.0</ele><time>2026-03-28T11:43:09.955Z</time></trkpt><trkpt lat="43.6582445" lon="11.2426813"><ele>126.33333333333334</ele><time>2026-03-28T11:43:10.954Z</time></trkpt><trkpt lat="43.6582409" lon="11.2424067"><ele>126.66666666666667</ele><time>2026-03-28T11:43:11.955Z</time></trkpt><trkpt lat="43.6582751" lon="11.2421397"><ele>127.0</ele><time>2026-03-28T11:43:12.954Z</time></trkpt><trkpt lat="43.6583429" lon="11.2418944"><ele>126.33333333333334</ele><time>2026-03-28T11:43:13.953Z</time></trkpt><trkpt lat="43.6584638" lon="11.2416833"><ele>125.66666666666666</ele><time>2026-03-28T11:43:14.955Z</time></trkpt><trkpt lat="43.6586064" lon="11.2414966"><ele>125.0</ele><time>2026-03-28T11:43:15.953Z</time></trkpt><trkpt lat="43.6587838" lon="11.2413282"><ele>124.0</ele><time>2026-03-28T11:43:16.954Z</time></trkpt><trkpt lat="43.6589753" lon="11.2411871"><ele>123.0</ele><time>2026-03-28T11:43:17.955Z</time></trkpt><trkpt lat="43.6591836" lon="11.2410744"><ele>122.0</ele><time>2026-03-28T11:43:18.954Z</time></trkpt><trkpt lat="43.6594036" lon="11.2409837"><ele>123.5</ele><time>2026-03-28T11:43:19.953Z</time></trkpt><trkpt lat="43.6596343" lon="11.2409132"><ele>125.0</ele><time>2026-03-28T11:43:20.954Z</time></trkpt><trkpt lat="43.6598752" lon="11.2408391"><ele>125.0</ele><time>2026-03-28T11:43:21.955Z</time></trkpt><trkpt lat="43.6601133" lon="11.2407701"><ele>125.0</ele><time>2026-03-28T11:43:22.955Z</time></trkpt><trkpt lat="43.6603544" lon="11.2407013"><ele>124.0</ele><time>2026-03-28T11:43:23.955Z</time></trkpt><trkpt lat="43.6605986" lon="11.2406334"><ele>123.0</ele><time>2026-03-28T11:43:24.955Z</time></trkpt><trkpt lat="43.6608448" lon="11.2405705"><ele>123.0</ele><time>2026-03-28T11:43:25.955Z</time></trkpt><trkpt lat="43.6610889" lon="11.2405099"><ele>123.0</ele><time>2026-03-28T11:43:26.954Z</time></trkpt><trkpt lat="43.6613241" lon="11.2404562"><ele>122.66666666666666</ele><time>2026-03-28T11:43:27.955Z</time></trkpt><trkpt lat="43.6615398" lon="11.2404128"><ele>122.33333333333333</ele><time>2026-03-28T11:43:28.955Z</time></trkpt><trkpt lat="43.6617358" lon="11.2403719"><ele>122.0</ele><time>2026-03-28T11:43:29.952Z</time></trkpt><trkpt lat="43.6619077" lon="11.2403332"><ele>122.8</ele><time>2026-03-28T11:43:30.955Z</time></trkpt><trkpt lat="43.6620526" lon="11.2402952"><ele>123.6</ele><time>2026-03-28T11:43:31.955Z</time></trkpt><trkpt lat="43.6621677" lon="11.2402688"><ele>124.39999999999999</ele><time>2026-03-28T11:43:32.954Z</time></trkpt><trkpt lat="43.6622601" lon="11.240248"><ele>125.19999999999999</ele><time>2026-03-28T11:43:33.953Z</time></trkpt><trkpt lat="43.6623289" lon="11.2402244"><ele>126.0</ele><time>2026-03-28T11:43:34.954Z</time></trkpt><trkpt lat="43.6623498" lon="11.2401379"><ele>126.0</ele><time>2026-03-28T11:43:36.953Z</time></trkpt><trkpt lat="43.6622789" lon="11.2399938"><ele>126.0</ele><time>2026-03-28T11:43:38.954Z</time></trkpt><trkpt lat="43.6622353" lon="11.2398608"><ele>126.0</ele><time>2026-03-28T11:43:39.953Z</time></trkpt><trkpt lat="43.6621847" lon="11.2396975"><ele>126.0</ele><time>2026-03-28T11:43:40.954Z</time></trkpt><trkpt lat="43.6621327" lon="11.2395081"><ele>125.0</ele><time>2026-03-28T11:43:41.952Z</time></trkpt><trkpt lat="43.6620764" lon="11.2392938"><ele>124.0</ele><time>2026-03-28T11:43:42.955Z</time></trkpt><trkpt lat="43.662011" lon="11.23907"><ele>123.0</ele><time>2026-03-28T11:43:43.954Z</time></trkpt><trkpt lat="43.6619491" lon="11.2388612"><ele>124.25</ele><time>2026-03-28T11:43:44.954Z</time></trkpt><trkpt lat="43.661894" lon="11.2386729"><ele>125.5</ele><time>2026-03-28T11:43:45.954Z</time></trkpt><trkpt lat="43.6618652" lon="11.2385093"><ele>126.75</ele><time>2026-03-28T11:43:46.953Z</time></trkpt><trkpt lat="43.6618681" lon="11.2383589"><ele>128.0</ele><time>2026-03-28T11:43:47.953Z</time></trkpt><trkpt lat="43.6619089" lon="11.2382216"><ele>127.25</ele><time>2026-03-28T11:43:48.954Z</time></trkpt><trkpt lat="43.6620074" lon="11.2380924"><ele>126.5</ele><time>2026-03-28T11:43:49.955Z</time></trkpt><trkpt lat="43.6621273" lon="11.2379757"><ele>125.75</ele><time>2026-03-28T11:43:50.954Z</time></trkpt><trkpt lat="43.6622469" lon="11.2378594"><ele>125.0</ele><time>2026-03-28T11:43:51.953Z</time></trkpt><trkpt lat="43.6623467" lon="11.2377323"><ele>125.0</ele><time>2026-03-28T11:43:52.953Z</time></trkpt><trkpt lat="43.6624261" lon="11.2375722"><ele>125.0</ele><time>2026-03-28T11:43:53.953Z</time></trkpt><trkpt lat="43.6624768" lon="11.2373789"><ele>125.0</ele><time>2026-03-28T11:43:54.953Z</time></trkpt><trkpt lat="43.6625056" lon="11.2372024"><ele>125.0</ele><time>2026-03-28T11:43:55.953Z</time></trkpt><trkpt lat="43.662505" lon="11.2370189"><ele>125.75</ele><time>2026-03-28T11:43:56.954Z</time></trkpt><trkpt lat="43.6624767" lon="11.2368354"><ele>126.5</ele><time>2026-03-28T11:43:57.953Z</time></trkpt><trkpt lat="43.6624216" lon="11.2366395"><ele>127.25</ele><time>2026-03-28T11:43:58.954Z</time></trkpt><trkpt lat="43.6623645" lon="11.2364595"><ele>128.0</ele><time>2026-03-28T11:43:59.955Z</time></trkpt><trkpt lat="43.6622905" lon="11.2363145"><ele>129.0</ele><time>2026-03-28T11:44:00.954Z</time></trkpt><trkpt lat="43.6621858" lon="11.2361987"><ele>130.0</ele><time>2026-03-28T11:44:01.954Z</time></trkpt><trkpt lat="43.6620503" lon="11.2361151"><ele>131.0</ele><time>2026-03-28T11:44:02.953Z</time></trkpt><trkpt lat="43.6618893" lon="11.2360505"><ele>136.33333333333331</ele><time>2026-03-28T11:44:03.955Z</time></trkpt><trkpt lat="43.6617178" lon="11.2359778"><ele>141.66666666666666</ele><time>2026-03-28T11:44:04.953Z</time></trkpt><trkpt lat="43.6615643" lon="11.2359177"><ele>147.0</ele><time>2026-03-28T11:44:05.953Z</time></trkpt><trkpt lat="43.661427" lon="11.2358742"><ele>147.0</ele><time>2026-03-28T11:44:06.954Z</time></trkpt><trkpt lat="43.6612994" lon="11.2358754"><ele>147.0</ele><time>2026-03-28T11:44:07.954Z</time></trkpt><trkpt lat="43.6611849" lon="11.2359414"><ele>147.0</ele><time>2026-03-28T11:44:08.954Z</time></trkpt><trkpt lat="43.661063" lon="11.2360099"><ele>147.0</ele><time>2026-03-28T11:44:09.954Z</time></trkpt><trkpt lat="43.660941" lon="11.2360478"><ele>149.0</ele><time>2026-03-28T11:44:10.953Z</time></trkpt><trkpt lat="43.6608315" lon="11.2360883"><ele>151.0</ele><time>2026-03-28T11:44:11.953Z</time></trkpt><trkpt lat="43.6607578" lon="11.2361613"><ele>153.0</ele><time>2026-03-28T11:44:12.954Z</time></trkpt><trkpt lat="43.6607189" lon="11.2362532"><ele>155.0</ele><time>2026-03-28T11:44:13.953Z</time></trkpt><trkpt lat="43.6607031" lon="11.2363594"><ele>157.0</ele><time>2026-03-28T11:44:14.954Z</time></trkpt><trkpt lat="43.6607884" lon="11.2364145"><ele>156.25</ele><time>2026-03-28T11:44:15.954Z</time></trkpt><trkpt lat="43.6608745" lon="11.2364714"><ele>155.5</ele><time>2026-03-28T11:44:16.955Z</time></trkpt><trkpt lat="43.6609941" lon="11.2365112"><ele>154.75</ele><time>2026-03-28T11:44:17.954Z</time></trkpt><trkpt lat="43.6611277" lon="11.2365732"><ele>154.0</ele><time>2026-03-28T11:44:18.954Z</time></trkpt><trkpt lat="43.661252" lon="11.2366352"><ele>151.0</ele><time>2026-03-28T11:44:19.953Z</time></trkpt><trkpt lat="43.6613652" lon="11.236711"><ele>148.0</ele><time>2026-03-28T11:44:20.954Z</time></trkpt><trkpt lat="43.6614601" lon="11.2368275"><ele>145.0</ele><time>2026-03-28T11:44:21.953Z</time></trkpt><trkpt lat="43.6615377" lon="11.2369709"><ele>142.0</ele><time>2026-03-28T11:44:22.953Z</time></trkpt><trkpt lat="43.6615458" lon="11.2371225"><ele>142.0</ele><time>2026-03-28T11:44:23.953Z</time></trkpt><trkpt lat="43.6615344" lon="11.2372637"><ele>142.0</ele><time>2026-03-28T11:44:24.954Z</time></trkpt><trkpt lat="43.6614848" lon="11.2373723"><ele>142.0</ele><time>2026-03-28T11:44:25.953Z</time></trkpt><trkpt lat="43.6614062" lon="11.2374411"><ele>142.0</ele><time>2026-03-28T11:44:26.953Z</time></trkpt><trkpt lat="43.661292" lon="11.2374666"><ele>142.0</ele><time>2026-03-28T11:44:27.955Z</time></trkpt><trkpt lat="43.6611538" lon="11.2374702"><ele>145.33333333333334</ele><time>2026-03-28T11:44:28.955Z</time></trkpt><trkpt lat="43.6610013" lon="11.2374604"><ele>148.66666666666666</ele><time>2026-03-28T11:44:29.954Z</time></trkpt><trkpt lat="43.6608374" lon="11.2374223"><ele>152.0</ele><time>2026-03-28T11:44:30.955Z</time></trkpt><trkpt lat="43.6606706" lon="11.2373644"><ele>152.66666666666666</ele><time>2026-03-28T11:44:31.954Z</time></trkpt><trkpt lat="43.6605077" lon="11.2372777"><ele>153.33333333333334</ele><time>2026-03-28T11:44:32.954Z</time></trkpt><trkpt lat="43.660344" lon="11.237172"><ele>154.0</ele><time>2026-03-28T11:44:33.953Z</time></trkpt><trkpt lat="43.660184" lon="11.2370531"><ele>156.33333333333334</ele><time>2026-03-28T11:44:34.953Z</time></trkpt><trkpt lat="43.6600456" lon="11.2369364"><ele>158.66666666666666</ele><time>2026-03-28T11:44:35.955Z</time></trkpt><trkpt lat="43.6598855" lon="11.2368449"><ele>161.0</ele><time>2026-03-28T11:44:36.953Z</time></trkpt><trkpt lat="43.6597235" lon="11.236778"><ele>161.0</ele><time>2026-03-28T11:44:37.954Z</time></trkpt><trkpt lat="43.6595603" lon="11.2367296"><ele>161.0</ele><time>2026-03-28T11:44:38.955Z</time></trkpt><trkpt lat="43.6594107" lon="11.2366972"><ele>161.0</ele><time>2026-03-28T11:44:39.953Z</time></trkpt><trkpt lat="43.6592692" lon="11.2366863"><ele>164.0</ele><time>2026-03-28T11:44:40.955Z</time></trkpt><trkpt lat="43.6591319" lon="11.2367215"><ele>167.0</ele><time>2026-03-28T11:44:41.953Z</time></trkpt><trkpt lat="43.6589882" lon="11.2368006"><ele>170.0</ele><time>2026-03-28T11:44:42.954Z</time></trkpt><trkpt lat="43.6588503" lon="11.2369223"><ele>170.0</ele><time>2026-03-28T11:44:43.953Z</time></trkpt><trkpt lat="43.6586972" lon="11.2370555"><ele>170.0</ele><time>2026-03-28T11:44:44.954Z</time></trkpt><trkpt lat="43.6585483" lon="11.2371904"><ele>170.0</ele><time>2026-03-28T11:44:45.954Z</time></trkpt><trkpt lat="43.6584271" lon="11.2372988"><ele>171.6</ele><time>2026-03-28T11:44:46.952Z</time></trkpt><trkpt lat="43.6583365" lon="11.2373987"><ele>173.2</ele><time>2026-03-28T11:44:47.953Z</time></trkpt><trkpt lat="43.6582509" lon="11.2374759"><ele>174.8</ele><time>2026-03-28T11:44:48.953Z</time></trkpt><trkpt lat="43.6581686" lon="11.2374879"><ele>176.4</ele><time>2026-03-28T11:44:49.954Z</time></trkpt><trkpt lat="43.6581083" lon="11.2374525"><ele>178.0</ele><time>2026-03-28T11:44:50.954Z</time></trkpt><trkpt lat="43.6581038" lon="11.2373171"><ele>180.75</ele><time>2026-03-28T11:44:52.954Z</time></trkpt><trkpt lat="43.6582352" lon="11.2372272"><ele>183.5</ele><time>2026-03-28T11:44:54.954Z</time></trkpt><trkpt lat="43.6583287" lon="11.2371731"><ele>186.25</ele><time>2026-03-28T11:44:55.954Z</time></trkpt><trkpt lat="43.6584271" lon="11.2371179"><ele>189.0</ele><time>2026-03-28T11:44:56.954Z</time></trkpt><trkpt lat="43.6585105" lon="11.2370329"><ele>189.0</ele><time>2026-03-28T11:44:57.953Z</time></trkpt><trkpt lat="43.6585646" lon="11.2369411"><ele>189.0</ele><time>2026-03-28T11:44:58.953Z</time></trkpt><trkpt lat="43.6585859" lon="11.2368468"><ele>189.0</ele><time>2026-03-28T11:44:59.953Z</time></trkpt><trkpt lat="43.6585746" lon="11.2367597"><ele>189.0</ele><time>2026-03-28T11:45:00.955Z</time></trkpt><trkpt lat="43.6584653" lon="11.2367006"><ele>189.0</ele><time>2026-03-28T11:45:02.953Z</time></trkpt><trkpt lat="43.6583791" lon="11.2367539"><ele>189.0</ele><time>2026-03-28T11:45:03.955Z</time></trkpt><trkpt lat="43.6582819" lon="11.2368305"><ele>189.0</ele><time>2026-03-28T11:45:04.955Z</time></trkpt><trkpt lat="43.6581568" lon="11.236909"><ele>189.0</ele><time>2026-03-28T11:45:05.955Z</time></trkpt><trkpt lat="43.6580208" lon="11.2369937"><ele>189.0</ele><time>2026-03-28T11:45:06.953Z</time></trkpt><trkpt lat="43.657867" lon="11.2370927"><ele>188.66666666666666</ele><time>2026-03-28T11:45:07.954Z</time></trkpt><trkpt lat="43.6577047" lon="11.2371916"><ele>188.33333333333331</ele><time>2026-03-28T11:45:08.953Z</time></trkpt><trkpt lat="43.657552" lon="11.2372839"><ele>188.0</ele><time>2026-03-28T11:45:09.954Z</time></trkpt><trkpt lat="43.6574067" lon="11.2373602"><ele>188.0</ele><time>2026-03-28T11:45:10.952Z</time></trkpt><trkpt lat="43.6572704" lon="11.2373946"><ele>188.0</ele><time>2026-03-28T11:45:11.955Z</time></trkpt><trkpt lat="43.6571484" lon="11.2373843"><ele>188.0</ele><time>2026-03-28T11:45:12.955Z</time></trkpt><trkpt lat="43.6570447" lon="11.2373341"><ele>188.0</ele><time>2026-03-28T11:45:13.955Z</time></trkpt><trkpt lat="43.6569616" lon="11.2372231"><ele>190.0</ele><time>2026-03-28T11:45:14.953Z</time></trkpt><trkpt lat="43.656893" lon="11.2370609"><ele>192.0</ele><time>2026-03-28T11:45:15.954Z</time></trkpt><trkpt lat="43.6568219" lon="11.2368702"><ele>194.0</ele><time>2026-03-28T11:45:16.953Z</time></trkpt><trkpt lat="43.6567525" lon="11.236692"><ele>196.0</ele><time>2026-03-28T11:45:17.954Z</time></trkpt><trkpt lat="43.6567028" lon="11.2365246"><ele>198.25</ele><time>2026-03-28T11:45:18.953Z</time></trkpt><trkpt lat="43.6566858" lon="11.2363617"><ele>200.5</ele><time>2026-03-28T11:45:19.954Z</time></trkpt><trkpt lat="43.6567172" lon="11.2362212"><ele>202.75</ele><time>2026-03-28T11:45:20.954Z</time></trkpt><trkpt lat="43.6567904" lon="11.2361115"><ele>205.0</ele><time>2026-03-28T11:45:21.954Z</time></trkpt><trkpt lat="43.6568998" lon="11.236043"><ele>204.25</ele><time>2026-03-28T11:45:22.953Z</time></trkpt><trkpt lat="43.6570357" lon="11.2359788"><ele>203.5</ele><time>2026-03-28T11:45:23.953Z</time></trkpt><trkpt lat="43.6571821" lon="11.2359266"><ele>202.75</ele><time>2026-03-28T11:45:24.955Z</time></trkpt><trkpt lat="43.6573074" lon="11.2358835"><ele>202.0</ele><time>2026-03-28T11:45:25.954Z</time></trkpt><trkpt lat="43.6574213" lon="11.235843"><ele>202.0</ele><time>2026-03-28T11:45:26.953Z</time></trkpt><trkpt lat="43.6575067" lon="11.2357793"><ele>202.0</ele><time>2026-03-28T11:45:27.955Z</time></trkpt><trkpt lat="43.6575647" lon="11.2356899"><ele>202.0</ele><time>2026-03-28T11:45:28.955Z</time></trkpt><trkpt lat="43.6575909" lon="11.2355694"><ele>202.0</ele><time>2026-03-28T11:45:29.953Z</time></trkpt><trkpt lat="43.6575762" lon="11.2354338"><ele>202.0</ele><time>2026-03-28T11:45:30.955Z</time></trkpt><trkpt lat="43.6575361" lon="11.235279"><ele>202.0</ele><time>2026-03-28T11:45:31.955Z</time></trkpt><trkpt lat="43.6574778" lon="11.2350996"><ele>202.0</ele><time>2026-03-28T11:45:32.954Z</time></trkpt><trkpt lat="43.6574235" lon="11.2349219"><ele>202.0</ele><time>2026-03-28T11:45:33.955Z</time></trkpt><trkpt lat="43.6573566" lon="11.2347802"><ele>202.0</ele><time>2026-03-28T11:45:34.953Z</time></trkpt><trkpt lat="43.6572811" lon="11.2346805"><ele>202.0</ele><time>2026-03-28T11:45:35.953Z</time></trkpt><trkpt lat="43.6571744" lon="11.2346157"><ele>202.0</ele><time>2026-03-28T11:45:36.954Z</time></trkpt><trkpt lat="43.6570384" lon="11.2345762"><ele>202.0</ele><time>2026-03-28T11:45:37.953Z</time></trkpt><trkpt lat="43.6568805" lon="11.2345428"><ele>202.0</ele><time>2026-03-28T11:45:38.953Z</time></trkpt><trkpt lat="43.6567102" lon="11.2345005"><ele>206.0</ele><time>2026-03-28T11:45:39.953Z</time></trkpt><trkpt lat="43.6565344" lon="11.2344454"><ele>210.0</ele><time>2026-03-28T11:45:40.955Z</time></trkpt><trkpt lat="43.6563525" lon="11.2343738"><ele>214.0</ele><time>2026-03-28T11:45:41.955Z</time></trkpt><trkpt lat="43.6561688" lon="11.2342918"><ele>217.33333333333331</ele><time>2026-03-28T11:45:42.955Z</time></trkpt><trkpt lat="43.6559854" lon="11.2342029"><ele>220.66666666666669</ele><time>2026-03-28T11:45:43.953Z</time></trkpt><trkpt lat="43.6557995" lon="11.2341015"><ele>224.0</ele><time>2026-03-28T11:45:44.953Z</time></trkpt><trkpt lat="43.6556198" lon="11.2339966"><ele>222.33333333333334</ele><time>2026-03-28T11:45:45.954Z</time></trkpt><trkpt lat="43.6554465" lon="11.2338779"><ele>220.66666666666669</ele><time>2026-03-28T11:45:46.954Z</time></trkpt><trkpt lat="43.6552747" lon="11.2337559"><ele>219.0</ele><time>2026-03-28T11:45:47.954Z</time></trkpt><trkpt lat="43.6550981" lon="11.2336246"><ele>222.33333333333331</ele><time>2026-03-28T11:45:48.953Z</time></trkpt><trkpt lat="43.6549176" lon="11.2334984"><ele>225.66666666666666</ele><time>2026-03-28T11:45:49.954Z</time></trkpt><trkpt lat="43.6547282" lon="11.2333683"><ele>229.0</ele><time>2026-03-28T11:45:50.954Z</time></trkpt><trkpt lat="43.65454" lon="11.2332617"><ele>233.33333333333331</ele><time>2026-03-28T11:45:51.954Z</time></trkpt><trkpt lat="43.6543576" lon="11.2331723"><ele>237.66666666666669</ele><time>2026-03-28T11:45:52.955Z</time></trkpt><trkpt lat="43.6541886" lon="11.2331033"><ele>242.0</ele><time>2026-03-28T11:45:53.954Z</time></trkpt><trkpt lat="43.6540427" lon="11.2330353"><ele>242.5</ele><time>2026-03-28T11:45:54.953Z</time></trkpt><trkpt lat="43.6539054" lon="11.2329764"><ele>243.0</ele><time>2026-03-28T11:45:55.953Z</time></trkpt><trkpt lat="43.6537865" lon="11.2329189"><ele>243.5</ele><time>2026-03-28T11:45:56.953Z</time></trkpt><trkpt lat="43.6536883" lon="11.2328608"><ele>244.0</ele><time>2026-03-28T11:45:57.954Z</time></trkpt><trkpt lat="43.6535972" lon="11.2327985"><ele>245.16666666666666</ele><time>2026-03-28T11:45:58.954Z</time></trkpt><trkpt lat="43.6535096" lon="11.2327262"><ele>246.33333333333331</ele><time>2026-03-28T11:45:59.954Z</time></trkpt><trkpt lat="43.6534255" lon="11.2326549"><ele>247.5</ele><time>2026-03-28T11:46:00.955Z</time></trkpt><trkpt lat="43.6533611" lon="11.2325814"><ele>248.66666666666669</ele><time>2026-03-28T11:46:01.955Z</time></trkpt><trkpt lat="43.6533102" lon="11.2325062"><ele>249.83333333333334</ele><time>2026-03-28T11:46:02.954Z</time></trkpt><trkpt lat="43.6532837" lon="11.2324035"><ele>251.0</ele><time>2026-03-28T11:46:03.954Z</time></trkpt><trkpt lat="43.6532806" lon="11.2322877"><ele>251.83333333333334</ele><time>2026-03-28T11:46:04.954Z</time></trkpt><trkpt lat="43.6533132" lon="11.2321903"><ele>252.66666666666669</ele><time>2026-03-28T11:46:05.954Z</time></trkpt><trkpt lat="43.6533602" lon="11.2321159"><ele>253.5</ele><time>2026-03-28T11:46:06.954Z</time></trkpt><trkpt lat="43.6534276" lon="11.2320772"><ele>254.33333333333331</ele><time>2026-03-28T11:46:07.954Z</time></trkpt><trkpt lat="43.6535197" lon="11.2320687"><ele>255.16666666666666</ele><time>2026-03-28T11:46:08.955Z</time></trkpt><trkpt lat="43.6536466" lon="11.2320824"><ele>256.0</ele><time>2026-03-28T11:46:09.953Z</time></trkpt><trkpt lat="43.6537866" lon="11.2321204"><ele>256.0</ele><time>2026-03-28T11:46:10.952Z</time></trkpt><trkpt lat="43.6539208" lon="11.2321523"><ele>256.0</ele><time>2026-03-28T11:46:11.954Z</time></trkpt><trkpt lat="43.6540372" lon="11.2321575"><ele>256.0</ele><time>2026-03-28T11:46:12.952Z</time></trkpt><trkpt lat="43.6541426" lon="11.2321258"><ele>256.0</ele><time>2026-03-28T11:46:13.954Z</time></trkpt><trkpt lat="43.6542279" lon="11.2320589"><ele>256.0</ele><time>2026-03-28T11:46:14.954Z</time></trkpt><trkpt lat="43.6542827" lon="11.2319525"><ele>256.0</ele><time>2026-03-28T11:46:15.953Z</time></trkpt><trkpt lat="43.6543013" lon="11.2317978"><ele>256.0</ele><time>2026-03-28T11:46:16.953Z</time></trkpt><trkpt lat="43.6542883" lon="11.2314143"><ele>257.0</ele><time>2026-03-28T11:46:18.953Z</time></trkpt><trkpt lat="43.6542482" lon="11.2312027"><ele>258.0</ele><time>2026-03-28T11:46:19.954Z</time></trkpt><trkpt lat="43.6541895" lon="11.2310026"><ele>259.0</ele><time>2026-03-28T11:46:20.955Z</time></trkpt><trkpt lat="43.654119" lon="11.2308281"><ele>259.0</ele><time>2026-03-28T11:46:21.955Z</time></trkpt><trkpt lat="43.6540321" lon="11.2306988"><ele>259.0</ele><time>2026-03-28T11:46:22.954Z</time></trkpt><trkpt lat="43.653936" lon="11.2306048"><ele>259.0</ele><time>2026-03-28T11:46:23.953Z</time></trkpt><trkpt lat="43.6538363" lon="11.2305389"><ele>259.0</ele><time>2026-03-28T11:46:24.953Z</time></trkpt><trkpt lat="43.6537094" lon="11.2305746"><ele>260.3333333333333</ele><time>2026-03-28T11:46:25.954Z</time></trkpt><trkpt lat="43.6535747" lon="11.2306214"><ele>261.6666666666667</ele><time>2026-03-28T11:46:26.955Z</time></trkpt><trkpt lat="43.6534269" lon="11.2306882"><ele>263.0</ele><time>2026-03-28T11:46:27.955Z</time></trkpt><trkpt lat="43.653264" lon="11.2307684"><ele>263.33333333333337</ele><time>2026-03-28T11:46:28.952Z</time></trkpt><trkpt lat="43.6530953" lon="11.23086"><ele>263.6666666666667</ele><time>2026-03-28T11:46:29.955Z</time></trkpt><trkpt lat="43.6529206" lon="11.2309447"><ele>264.0</ele><time>2026-03-28T11:46:30.952Z</time></trkpt><trkpt lat="43.6527404" lon="11.2310378"><ele>264.0</ele><time>2026-03-28T11:46:31.955Z</time></trkpt><trkpt lat="43.6525564" lon="11.2311329"><ele>264.0</ele><time>2026-03-28T11:46:32.955Z</time></trkpt><trkpt lat="43.6523645" lon="11.2312467"><ele>264.0</ele><time>2026-03-28T11:46:33.954Z</time></trkpt><trkpt lat="43.6521711" lon="11.2313926"><ele>263.5</ele><time>2026-03-28T11:46:34.954Z</time></trkpt><trkpt lat="43.6519824" lon="11.2315559"><ele>263.0</ele><time>2026-03-28T11:46:35.954Z</time></trkpt><trkpt lat="43.6517835" lon="11.2317225"><ele>263.0</ele><time>2026-03-28T11:46:36.955Z</time></trkpt><trkpt lat="43.6515933" lon="11.2318814"><ele>263.0</ele><time>2026-03-28T11:46:37.955Z</time></trkpt><trkpt lat="43.6514149" lon="11.2320326"><ele>263.0</ele><time>2026-03-28T11:46:38.954Z</time></trkpt><trkpt lat="43.6512491" lon="11.2321754"><ele>263.33333333333337</ele><time>2026-03-28T11:46:39.954Z</time></trkpt><trkpt lat="43.6510809" lon="11.2323079"><ele>263.6666666666667</ele><time>2026-03-28T11:46:40.955Z</time></trkpt><trkpt lat="43.6508948" lon="11.2323979"><ele>264.0</ele><time>2026-03-28T11:46:41.955Z</time></trkpt><trkpt lat="43.6506931" lon="11.2324539"><ele>264.0</ele><time>2026-03-28T11:46:42.953Z</time></trkpt><trkpt lat="43.6505047" lon="11.232497"><ele>264.0</ele><time>2026-03-28T11:46:43.954Z</time></trkpt><trkpt lat="43.6503255" lon="11.2325205"><ele>264.0</ele><time>2026-03-28T11:46:44.954Z</time></trkpt><trkpt lat="43.6501398" lon="11.232509"><ele>264.6666666666667</ele><time>2026-03-28T11:46:45.955Z</time></trkpt><trkpt lat="43.6499497" lon="11.232471"><ele>265.33333333333337</ele><time>2026-03-28T11:46:46.953Z</time></trkpt><trkpt lat="43.64975" lon="11.2324136"><ele>266.0</ele><time>2026-03-28T11:46:47.954Z</time></trkpt><trkpt lat="43.6495654" lon="11.2323484"><ele>266.33333333333337</ele><time>2026-03-28T11:46:48.954Z</time></trkpt><trkpt lat="43.6493944" lon="11.2322712"><ele>266.6666666666667</ele><time>2026-03-28T11:46:49.954Z</time></trkpt><trkpt lat="43.6492346" lon="11.2321769"><ele>267.0</ele><time>2026-03-28T11:46:50.955Z</time></trkpt><trkpt lat="43.6490868" lon="11.2320635"><ele>267.0</ele><time>2026-03-28T11:46:51.954Z</time></trkpt><trkpt lat="43.6489351" lon="11.2319253"><ele>267.0</ele><time>2026-03-28T11:46:52.954Z</time></trkpt><trkpt lat="43.6487755" lon="11.2317915"><ele>267.0</ele><time>2026-03-28T11:46:53.953Z</time></trkpt><trkpt lat="43.6486099" lon="11.2316196"><ele>269.3333333333333</ele><time>2026-03-28T11:46:54.954Z</time></trkpt><trkpt lat="43.6484425" lon="11.2314326"><ele>271.66666666666663</ele><time>2026-03-28T11:46:55.953Z</time></trkpt><trkpt lat="43.6482767" lon="11.2312464"><ele>274.0</ele><time>2026-03-28T11:46:56.953Z</time></trkpt><trkpt lat="43.6481076" lon="11.2310642"><ele>274.0</ele><time>2026-03-28T11:46:57.954Z</time></trkpt><trkpt lat="43.6479337" lon="11.2308949"><ele>274.0</ele><time>2026-03-28T11:46:58.954Z</time></trkpt><trkpt lat="43.6477537" lon="11.2307459"><ele>274.0</ele><time>2026-03-28T11:46:59.954Z</time></trkpt><trkpt lat="43.6475659" lon="11.2305915"><ele>273.5</ele><time>2026-03-28T11:47:00.953Z</time></trkpt><trkpt lat="43.6473657" lon="11.2304357"><ele>273.0</ele><time>2026-03-28T11:47:01.955Z</time></trkpt><trkpt lat="43.6471721" lon="11.2302871"><ele>273.0</ele><time>2026-03-28T11:47:02.953Z</time></trkpt><trkpt lat="43.647003" lon="11.2301693"><ele>273.0</ele><time>2026-03-28T11:47:03.954Z</time></trkpt><trkpt lat="43.6468379" lon="11.2300795"><ele>273.0</ele><time>2026-03-28T11:47:04.955Z</time></trkpt><trkpt lat="43.6466715" lon="11.2300344"><ele>274.3333333333333</ele><time>2026-03-28T11:47:05.955Z</time></trkpt><trkpt lat="43.6465016" lon="11.2300151"><ele>275.66666666666663</ele><time>2026-03-28T11:47:06.954Z</time></trkpt><trkpt lat="43.6463411" lon="11.2299856"><ele>277.0</ele><time>2026-03-28T11:47:07.954Z</time></trkpt><trkpt lat="43.6461815" lon="11.229919"><ele>276.0</ele><time>2026-03-28T11:47:08.955Z</time></trkpt><trkpt lat="43.6460203" lon="11.2298217"><ele>275.0</ele><time>2026-03-28T11:47:09.954Z</time></trkpt><trkpt lat="43.6458543" lon="11.2297222"><ele>274.0</ele><time>2026-03-28T11:47:10.954Z</time></trkpt><trkpt lat="43.6456672" lon="11.2296139"><ele>273.3333333333333</ele><time>2026-03-28T11:47:11.954Z</time></trkpt><trkpt lat="43.6454668" lon="11.2295008"><ele>272.6666666666667</ele><time>2026-03-28T11:47:12.953Z</time></trkpt><trkpt lat="43.6452692" lon="11.2293875"><ele>272.0</ele><time>2026-03-28T11:47:13.954Z</time></trkpt><trkpt lat="43.6450631" lon="11.2292652"><ele>274.0</ele><time>2026-03-28T11:47:14.953Z</time></trkpt><trkpt lat="43.6448492" lon="11.2291421"><ele>276.0</ele><time>2026-03-28T11:47:15.954Z</time></trkpt><trkpt lat="43.6446313" lon="11.229014"><ele>277.0</ele><time>2026-03-28T11:47:16.955Z</time></trkpt><trkpt lat="43.6444247" lon="11.2288926"><ele>278.0</ele><time>2026-03-28T11:47:17.954Z</time></trkpt><trkpt lat="43.6442392" lon="11.2287515"><ele>279.0</ele><time>2026-03-28T11:47:18.954Z</time></trkpt><trkpt lat="43.6440753" lon="11.2286097"><ele>279.0</ele><time>2026-03-28T11:47:19.954Z</time></trkpt><trkpt lat="43.6439064" lon="11.2284789"><ele>279.0</ele><time>2026-03-28T11:47:20.955Z</time></trkpt><trkpt lat="43.6437354" lon="11.2283746"><ele>279.0</ele><time>2026-03-28T11:47:21.954Z</time></trkpt><trkpt lat="43.6435602" lon="11.2282867"><ele>278.3333333333333</ele><time>2026-03-28T11:47:22.952Z</time></trkpt><trkpt lat="43.6433672" lon="11.2282245"><ele>277.66666666666663</ele><time>2026-03-28T11:47:23.955Z</time></trkpt><trkpt lat="43.6431692" lon="11.2281759"><ele>277.0</ele><time>2026-03-28T11:47:24.954Z</time></trkpt><trkpt lat="43.6429557" lon="11.2281315"><ele>278.0</ele><time>2026-03-28T11:47:25.955Z</time></trkpt><trkpt lat="43.6427359" lon="11.2280927"><ele>279.0</ele><time>2026-03-28T11:47:26.954Z</time></trkpt><trkpt lat="43.6425128" lon="11.2280508"><ele>280.0</ele><time>2026-03-28T11:47:27.954Z</time></trkpt><trkpt lat="43.6422884" lon="11.2280058"><ele>280.0</ele><time>2026-03-28T11:47:28.953Z</time></trkpt><trkpt lat="43.6420544" lon="11.2279596"><ele>280.0</ele><time>2026-03-28T11:47:29.953Z</time></trkpt><trkpt lat="43.6418165" lon="11.227914"><ele>281.66666666666663</ele><time>2026-03-28T11:47:30.955Z</time></trkpt><trkpt lat="43.6415945" lon="11.2278892"><ele>283.3333333333333</ele><time>2026-03-28T11:47:31.952Z</time></trkpt><trkpt lat="43.6413892" lon="11.2278669"><ele>285.0</ele><time>2026-03-28T11:47:32.954Z</time></trkpt><trkpt lat="43.6411961" lon="11.2278405"><ele>287.0</ele><time>2026-03-28T11:47:33.955Z</time></trkpt><trkpt lat="43.6410347" lon="11.2278156"><ele>289.0</ele><time>2026-03-28T11:47:34.955Z</time></trkpt><trkpt lat="43.6408718" lon="11.2277782"><ele>291.0</ele><time>2026-03-28T11:47:35.955Z</time></trkpt><trkpt lat="43.6407133" lon="11.2276938"><ele>291.0</ele><time>2026-03-28T11:47:36.954Z</time></trkpt><trkpt lat="43.6405636" lon="11.2275798"><ele>291.0</ele><time>2026-03-28T11:47:37.953Z</time></trkpt><trkpt lat="43.6404172" lon="11.2274333"><ele>291.0</ele><time>2026-03-28T11:47:38.954Z</time></trkpt><trkpt lat="43.6402718" lon="11.2272749"><ele>291.3333333333333</ele><time>2026-03-28T11:47:39.955Z</time></trkpt><trkpt lat="43.6401251" lon="11.2270988"><ele>291.66666666666663</ele><time>2026-03-28T11:47:40.954Z</time></trkpt><trkpt lat="43.6399767" lon="11.2268998"><ele>292.0</ele><time>2026-03-28T11:47:41.954Z</time></trkpt><trkpt lat="43.6398294" lon="11.2266996"><ele>292.0</ele><time>2026-03-28T11:47:42.953Z</time></trkpt><trkpt lat="43.6396832" lon="11.2264911"><ele>292.0</ele><time>2026-03-28T11:47:43.954Z</time></trkpt><trkpt lat="43.6395285" lon="11.226283"><ele>292.0</ele><time>2026-03-28T11:47:44.955Z</time></trkpt><trkpt lat="43.6393585" lon="11.2260776"><ele>293.5</ele><time>2026-03-28T11:47:45.954Z</time></trkpt><trkpt lat="43.6391902" lon="11.2258784"><ele>295.0</ele><time>2026-03-28T11:47:46.954Z</time></trkpt><trkpt lat="43.6390106" lon="11.2256781"><ele>297.0</ele><time>2026-03-28T11:47:47.954Z</time></trkpt><trkpt lat="43.6388201" lon="11.2254745"><ele>299.0</ele><time>2026-03-28T11:47:48.953Z</time></trkpt><trkpt lat="43.6386271" lon="11.225272"><ele>299.0</ele><time>2026-03-28T11:47:49.954Z</time></trkpt><trkpt lat="43.6384323" lon="11.2250678"><ele>299.0</ele><time>2026-03-28T11:47:50.954Z</time></trkpt><trkpt lat="43.6382486" lon="11.2248765"><ele>299.0</ele><time>2026-03-28T11:47:51.954Z</time></trkpt><trkpt lat="43.6380745" lon="11.2246952"><ele>299.0</ele><time>2026-03-28T11:47:52.954Z</time></trkpt><trkpt lat="43.637917" lon="11.2245261"><ele>299.0</ele><time>2026-03-28T11:47:53.954Z</time></trkpt><trkpt lat="43.6377623" lon="11.224374"><ele>299.0</ele><time>2026-03-28T11:47:54.954Z</time></trkpt><trkpt lat="43.6376074" lon="11.2242453"><ele>299.0</ele><time>2026-03-28T11:47:55.953Z</time></trkpt><trkpt lat="43.6374361" lon="11.2241415"><ele>299.0</ele><time>2026-03-28T11:47:56.954Z</time></trkpt><trkpt lat="43.6372566" lon="11.224053"><ele>298.6666666666667</ele><time>2026-03-28T11:47:57.955Z</time></trkpt><trkpt lat="43.6370844" lon="11.2239788"><ele>298.3333333333333</ele><time>2026-03-28T11:47:58.955Z</time></trkpt><trkpt lat="43.6369243" lon="11.223912"><ele>298.0</ele><time>2026-03-28T11:47:59.955Z</time></trkpt><trkpt lat="43.6367909" lon="11.2238544"><ele>298.0</ele><time>2026-03-28T11:48:00.954Z</time></trkpt><trkpt lat="43.6366809" lon="11.2237502"><ele>298.0</ele><time>2026-03-28T11:48:01.955Z</time></trkpt><trkpt lat="43.6365892" lon="11.2236325"><ele>298.0</ele><time>2026-03-28T11:48:02.952Z</time></trkpt><trkpt lat="43.6365169" lon="11.2235144"><ele>298.0</ele><time>2026-03-28T11:48:03.953Z</time></trkpt><trkpt lat="43.6364499" lon="11.2234044"><ele>298.0</ele><time>2026-03-28T11:48:04.954Z</time></trkpt><trkpt lat="43.636406" lon="11.2232904"><ele>298.0</ele><time>2026-03-28T11:48:05.954Z</time></trkpt><trkpt lat="43.6363783" lon="11.2231493"><ele>298.0</ele><time>2026-03-28T11:48:06.953Z</time></trkpt><trkpt lat="43.6363728" lon="11.2229916"><ele>298.0</ele><time>2026-03-28T11:48:07.954Z</time></trkpt><trkpt lat="43.6363933" lon="11.222796"><ele>297.66666666666663</ele><time>2026-03-28T11:48:08.954Z</time></trkpt><trkpt lat="43.6364501" lon="11.2226022"><ele>297.3333333333333</ele><time>2026-03-28T11:48:09.954Z</time></trkpt><trkpt lat="43.6365484" lon="11.2224207"><ele>297.0</ele><time>2026-03-28T11:48:10.954Z</time></trkpt><trkpt lat="43.6366635" lon="11.2222468"><ele>297.0</ele><time>2026-03-28T11:48:11.952Z</time></trkpt><trkpt lat="43.6367949" lon="11.2220601"><ele>297.0</ele><time>2026-03-28T11:48:12.954Z</time></trkpt><trkpt lat="43.6369336" lon="11.2218598"><ele>297.0</ele><time>2026-03-28T11:48:13.954Z</time></trkpt><trkpt lat="43.6370785" lon="11.2216555"><ele>298.0</ele><time>2026-03-28T11:48:14.954Z</time></trkpt><trkpt lat="43.637217" lon="11.221441"><ele>299.0</ele><time>2026-03-28T11:48:15.953Z</time></trkpt><trkpt lat="43.6373452" lon="11.2212198"><ele>300.0</ele><time>2026-03-28T11:48:16.953Z</time></trkpt><trkpt lat="43.6374439" lon="11.2209913"><ele>300.0</ele><time>2026-03-28T11:48:17.955Z</time></trkpt><trkpt lat="43.6375268" lon="11.2207772"><ele>300.0</ele><time>2026-03-28T11:48:18.954Z</time></trkpt><trkpt lat="43.6375997" lon="11.2205761"><ele>300.0</ele><time>2026-03-28T11:48:19.953Z</time></trkpt><trkpt lat="43.6376903" lon="11.2203993"><ele>300.3333333333333</ele><time>2026-03-28T11:48:20.954Z</time></trkpt><trkpt lat="43.6377886" lon="11.2202365"><ele>300.66666666666663</ele><time>2026-03-28T11:48:21.953Z</time></trkpt><trkpt lat="43.6378904" lon="11.2200826"><ele>301.0</ele><time>2026-03-28T11:48:22.954Z</time></trkpt><trkpt lat="43.6380076" lon="11.219937"><ele>302.0</ele><time>2026-03-28T11:48:23.955Z</time></trkpt><trkpt lat="43.6381234" lon="11.2198195"><ele>303.0</ele><time>2026-03-28T11:48:24.953Z</time></trkpt><trkpt lat="43.6382371" lon="11.2197182"><ele>304.0</ele><time>2026-03-28T11:48:25.954Z</time></trkpt><trkpt lat="43.6383434" lon="11.2196234"><ele>305.0</ele><time>2026-03-28T11:48:26.955Z</time></trkpt><trkpt lat="43.6384403" lon="11.2195288"><ele>305.0</ele><time>2026-03-28T11:48:27.953Z</time></trkpt><trkpt lat="43.6385363" lon="11.2194313"><ele>305.0</ele><time>2026-03-28T11:48:28.954Z</time></trkpt><trkpt lat="43.6386364" lon="11.2193217"><ele>305.0</ele><time>2026-03-28T11:48:29.953Z</time></trkpt><trkpt lat="43.6387425" lon="11.2192096"><ele>305.0</ele><time>2026-03-28T11:48:30.954Z</time></trkpt><trkpt lat="43.638852" lon="11.2190673"><ele>306.33333333333337</ele><time>2026-03-28T11:48:31.954Z</time></trkpt><trkpt lat="43.6389763" lon="11.218901"><ele>307.6666666666667</ele><time>2026-03-28T11:48:32.955Z</time></trkpt><trkpt lat="43.6391049" lon="11.2187228"><ele>309.0</ele><time>2026-03-28T11:48:33.955Z</time></trkpt><trkpt lat="43.6392188" lon="11.2185112"><ele>309.0</ele><time>2026-03-28T11:48:34.955Z</time></trkpt><trkpt lat="43.6393345" lon="11.2182769"><ele>309.0</ele><time>2026-03-28T11:48:35.954Z</time></trkpt><trkpt lat="43.6394445" lon="11.2180451"><ele>309.0</ele><time>2026-03-28T11:48:36.955Z</time></trkpt><trkpt lat="43.6395529" lon="11.2177911"><ele>307.3333333333333</ele><time>2026-03-28T11:48:37.954Z</time></trkpt><trkpt lat="43.6396747" lon="11.2175378"><ele>305.66666666666663</ele><time>2026-03-28T11:48:38.955Z</time></trkpt><trkpt lat="43.6397865" lon="11.2172949"><ele>304.0</ele><time>2026-03-28T11:48:39.955Z</time></trkpt><trkpt lat="43.6399032" lon="11.2170577"><ele>302.3333333333333</ele><time>2026-03-28T11:48:40.954Z</time></trkpt><trkpt lat="43.64003" lon="11.2168815"><ele>300.6666666666667</ele><time>2026-03-28T11:48:41.954Z</time></trkpt><trkpt lat="43.6401772" lon="11.2166875"><ele>299.0</ele><time>2026-03-28T11:48:42.952Z</time></trkpt><trkpt lat="43.6403168" lon="11.2165012"><ele>297.0</ele><time>2026-03-28T11:48:43.955Z</time></trkpt><trkpt lat="43.6404661" lon="11.2163055"><ele>295.0</ele><time>2026-03-28T11:48:44.954Z</time></trkpt><trkpt lat="43.6406039" lon="11.2161014"><ele>293.0</ele><time>2026-03-28T11:48:45.955Z</time></trkpt><trkpt lat="43.640738" lon="11.2158682"><ele>291.6666666666667</ele><time>2026-03-28T11:48:46.953Z</time></trkpt><trkpt lat="43.6408424" lon="11.2156068"><ele>290.3333333333333</ele><time>2026-03-28T11:48:47.955Z</time></trkpt><trkpt lat="43.6409285" lon="11.2153145"><ele>289.0</ele><time>2026-03-28T11:48:48.954Z</time></trkpt><trkpt lat="43.6409808" lon="11.215037"><ele>291.3333333333333</ele><time>2026-03-28T11:48:49.953Z</time></trkpt><trkpt lat="43.6410101" lon="11.2147817"><ele>293.6666666666667</ele><time>2026-03-28T11:48:50.954Z</time></trkpt><trkpt lat="43.6410363" lon="11.2145447"><ele>296.0</ele><time>2026-03-28T11:48:51.953Z</time></trkpt><trkpt lat="43.6410638" lon="11.2143114"><ele>296.0</ele><time>2026-03-28T11:48:52.955Z</time></trkpt><trkpt lat="43.6410923" lon="11.214098"><ele>296.0</ele><time>2026-03-28T11:48:53.955Z</time></trkpt><trkpt lat="43.6411184" lon="11.2139041"><ele>296.0</ele><time>2026-03-28T11:48:54.954Z</time></trkpt><trkpt lat="43.6411432" lon="11.2137261"><ele>296.0</ele><time>2026-03-28T11:48:55.954Z</time></trkpt><trkpt lat="43.6411637" lon="11.2135629"><ele>296.0</ele><time>2026-03-28T11:48:56.954Z</time></trkpt><trkpt lat="43.6411914" lon="11.2133997"><ele>296.0</ele><time>2026-03-28T11:48:57.955Z</time></trkpt><trkpt lat="43.6412267" lon="11.2132267"><ele>296.0</ele><time>2026-03-28T11:48:58.954Z</time></trkpt><trkpt lat="43.6412688" lon="11.2130418"><ele>296.0</ele><time>2026-03-28T11:48:59.953Z</time></trkpt><trkpt lat="43.6413297" lon="11.2128616"><ele>296.0</ele><time>2026-03-28T11:49:00.955Z</time></trkpt><trkpt lat="43.6414118" lon="11.2126956"><ele>296.0</ele><time>2026-03-28T11:49:01.955Z</time></trkpt><trkpt lat="43.6415059" lon="11.2125596"><ele>296.0</ele><time>2026-03-28T11:49:02.954Z</time></trkpt><trkpt lat="43.6416082" lon="11.2124452"><ele>296.0</ele><time>2026-03-28T11:49:03.955Z</time></trkpt><trkpt lat="43.6417276" lon="11.2123194"><ele>296.6666666666667</ele><time>2026-03-28T11:49:04.954Z</time></trkpt><trkpt lat="43.6418531" lon="11.2121674"><ele>297.3333333333333</ele><time>2026-03-28T11:49:05.954Z</time></trkpt><trkpt lat="43.6419967" lon="11.2120099"><ele>298.0</ele><time>2026-03-28T11:49:06.954Z</time></trkpt><trkpt lat="43.6421455" lon="11.2118573"><ele>298.0</ele><time>2026-03-28T11:49:07.954Z</time></trkpt><trkpt lat="43.6423136" lon="11.2117091"><ele>298.0</ele><time>2026-03-28T11:49:08.954Z</time></trkpt><trkpt lat="43.6424988" lon="11.2115673"><ele>298.0</ele><time>2026-03-28T11:49:09.955Z</time></trkpt><trkpt lat="43.6426904" lon="11.21144"><ele>297.3333333333333</ele><time>2026-03-28T11:49:10.953Z</time></trkpt><trkpt lat="43.642888" lon="11.211311"><ele>296.6666666666667</ele><time>2026-03-28T11:49:11.955Z</time></trkpt><trkpt lat="43.6430802" lon="11.211184"><ele>296.0</ele><time>2026-03-28T11:49:12.954Z</time></trkpt><trkpt lat="43.6432615" lon="11.2110529"><ele>296.0</ele><time>2026-03-28T11:49:13.955Z</time></trkpt><trkpt lat="43.643427" lon="11.2109057"><ele>296.0</ele><time>2026-03-28T11:49:14.954Z</time></trkpt><trkpt lat="43.643574" lon="11.210714"><ele>296.0</ele><time>2026-03-28T11:49:15.953Z</time></trkpt><trkpt lat="43.6436962" lon="11.2105022"><ele>296.6666666666667</ele><time>2026-03-28T11:49:16.955Z</time></trkpt><trkpt lat="43.6437912" lon="11.2102603"><ele>297.3333333333333</ele><time>2026-03-28T11:49:17.954Z</time></trkpt><trkpt lat="43.6438469" lon="11.2099942"><ele>298.0</ele><time>2026-03-28T11:49:18.955Z</time></trkpt><trkpt lat="43.6438787" lon="11.209707"><ele>298.66666666666663</ele><time>2026-03-28T11:49:19.955Z</time></trkpt><trkpt lat="43.6439216" lon="11.2094315"><ele>299.3333333333333</ele><time>2026-03-28T11:49:20.955Z</time></trkpt><trkpt lat="43.6439743" lon="11.2091981"><ele>300.0</ele><time>2026-03-28T11:49:21.954Z</time></trkpt><trkpt lat="43.6440396" lon="11.2089815"><ele>300.0</ele><time>2026-03-28T11:49:22.952Z</time></trkpt><trkpt lat="43.6441309" lon="11.2088034"><ele>300.0</ele><time>2026-03-28T11:49:23.955Z</time></trkpt><trkpt lat="43.6442543" lon="11.2086501"><ele>300.0</ele><time>2026-03-28T11:49:24.954Z</time></trkpt><trkpt lat="43.6443986" lon="11.2085066"><ele>301.0</ele><time>2026-03-28T11:49:25.953Z</time></trkpt><trkpt lat="43.6445598" lon="11.208371"><ele>302.0</ele><time>2026-03-28T11:49:26.955Z</time></trkpt><trkpt lat="43.6447427" lon="11.2082724"><ele>303.0</ele><time>2026-03-28T11:49:27.955Z</time></trkpt><trkpt lat="43.6449323" lon="11.2081657"><ele>303.0</ele><time>2026-03-28T11:49:28.954Z</time></trkpt><trkpt lat="43.6451283" lon="11.2080726"><ele>303.0</ele><time>2026-03-28T11:49:29.955Z</time></trkpt><trkpt lat="43.6453283" lon="11.2079832"><ele>303.0</ele><time>2026-03-28T11:49:30.954Z</time></trkpt><trkpt lat="43.6455284" lon="11.2079165"><ele>303.0</ele><time>2026-03-28T11:49:31.954Z</time></trkpt><trkpt lat="43.6457221" lon="11.207871"><ele>303.0</ele><time>2026-03-28T11:49:32.954Z</time></trkpt><trkpt lat="43.6459222" lon="11.2078395"><ele>303.0</ele><time>2026-03-28T11:49:33.955Z</time></trkpt><trkpt lat="43.6461359" lon="11.2078377"><ele>300.3333333333333</ele><time>2026-03-28T11:49:34.954Z</time></trkpt><trkpt lat="43.6463547" lon="11.2078507"><ele>297.66666666666663</ele><time>2026-03-28T11:49:35.955Z</time></trkpt><trkpt lat="43.6465762" lon="11.2078775"><ele>295.0</ele><time>2026-03-28T11:49:36.953Z</time></trkpt><trkpt lat="43.6467867" lon="11.2078941"><ele>295.3333333333333</ele><time>2026-03-28T11:49:37.954Z</time></trkpt><trkpt lat="43.6469909" lon="11.207884"><ele>295.6666666666667</ele><time>2026-03-28T11:49:38.954Z</time></trkpt><trkpt lat="43.6471806" lon="11.2078352"><ele>296.0</ele><time>2026-03-28T11:49:39.954Z</time></trkpt><trkpt lat="43.6473639" lon="11.2077416"><ele>296.0</ele><time>2026-03-28T11:49:40.955Z</time></trkpt><trkpt lat="43.647681" lon="11.2074318"><ele>296.0</ele><time>2026-03-28T11:49:42.955Z</time></trkpt><trkpt lat="43.6478125" lon="11.2072193"><ele>296.6666666666667</ele><time>2026-03-28T11:49:43.955Z</time></trkpt><trkpt lat="43.647906" lon="11.2069683"><ele>297.3333333333333</ele><time>2026-03-28T11:49:44.954Z</time></trkpt><trkpt lat="43.6479675" lon="11.2066899"><ele>298.0</ele><time>2026-03-28T11:49:45.955Z</time></trkpt><trkpt lat="43.6480011" lon="11.2063876"><ele>298.5</ele><time>2026-03-28T11:49:46.955Z</time></trkpt><trkpt lat="43.6480215" lon="11.2060674"><ele>299.0</ele><time>2026-03-28T11:49:47.954Z</time></trkpt><trkpt lat="43.6480352" lon="11.2057516"><ele>298.33333333333337</ele><time>2026-03-28T11:49:48.954Z</time></trkpt><trkpt lat="43.6480407" lon="11.205452"><ele>297.6666666666667</ele><time>2026-03-28T11:49:49.954Z</time></trkpt><trkpt lat="43.6480228" lon="11.2051518"><ele>297.0</ele><time>2026-03-28T11:49:50.955Z</time></trkpt><trkpt lat="43.6479887" lon="11.2048762"><ele>294.6666666666667</ele><time>2026-03-28T11:49:51.954Z</time></trkpt><trkpt lat="43.6479428" lon="11.2046085"><ele>292.33333333333337</ele><time>2026-03-28T11:49:52.954Z</time></trkpt><trkpt lat="43.647899" lon="11.2043509"><ele>290.0</ele><time>2026-03-28T11:49:53.955Z</time></trkpt><trkpt lat="43.6478584" lon="11.2041073"><ele>287.33333333333337</ele><time>2026-03-28T11:49:54.955Z</time></trkpt><trkpt lat="43.6478213" lon="11.2038679"><ele>284.6666666666667</ele><time>2026-03-28T11:49:55.955Z</time></trkpt><trkpt lat="43.647802" lon="11.2036215"><ele>282.0</ele><time>2026-03-28T11:49:56.955Z</time></trkpt><trkpt lat="43.6478086" lon="11.2033683"><ele>284.6666666666667</ele><time>2026-03-28T11:49:57.954Z</time></trkpt><trkpt lat="43.6478523" lon="11.2030989"><ele>287.33333333333337</ele><time>2026-03-28T11:49:58.954Z</time></trkpt><trkpt lat="43.6479182" lon="11.2028706"><ele>290.0</ele><time>2026-03-28T11:49:59.954Z</time></trkpt><trkpt lat="43.6479945" lon="11.2026414"><ele>290.0</ele><time>2026-03-28T11:50:00.953Z</time></trkpt><trkpt lat="43.6480656" lon="11.2024215"><ele>290.0</ele><time>2026-03-28T11:50:01.954Z</time></trkpt><trkpt lat="43.648139" lon="11.2022121"><ele>290.0</ele><time>2026-03-28T11:50:02.953Z</time></trkpt><trkpt lat="43.6482131" lon="11.2020127"><ele>292.6666666666667</ele><time>2026-03-28T11:50:03.954Z</time></trkpt><trkpt lat="43.6483029" lon="11.2018253"><ele>295.3333333333333</ele><time>2026-03-28T11:50:04.954Z</time></trkpt><trkpt lat="43.648399" lon="11.2016483"><ele>298.0</ele><time>2026-03-28T11:50:05.955Z</time></trkpt><trkpt lat="43.6485041" lon="11.2014915"><ele>298.0</ele><time>2026-03-28T11:50:06.953Z</time></trkpt><trkpt lat="43.6486051" lon="11.2013329"><ele>298.0</ele><time>2026-03-28T11:50:07.955Z</time></trkpt><trkpt lat="43.6487113" lon="11.2011533"><ele>298.0</ele><time>2026-03-28T11:50:08.955Z</time></trkpt><trkpt lat="43.6488222" lon="11.2009539"><ele>297.3333333333333</ele><time>2026-03-28T11:50:09.955Z</time></trkpt><trkpt lat="43.6489576" lon="11.2007281"><ele>296.6666666666667</ele><time>2026-03-28T11:50:10.954Z</time></trkpt><trkpt lat="43.6491017" lon="11.2005059"><ele>296.0</ele><time>2026-03-28T11:50:11.954Z</time></trkpt><trkpt lat="43.6492378" lon="11.20028"><ele>294.0</ele><time>2026-03-28T11:50:12.954Z</time></trkpt><trkpt lat="43.6493549" lon="11.2000409"><ele>292.0</ele><time>2026-03-28T11:50:13.953Z</time></trkpt><trkpt lat="43.6494265" lon="11.1997712"><ele>290.0</ele><time>2026-03-28T11:50:14.953Z</time></trkpt><trkpt lat="43.6494627" lon="11.1994846"><ele>290.0</ele><time>2026-03-28T11:50:15.955Z</time></trkpt><trkpt lat="43.6494606" lon="11.1991802"><ele>290.0</ele><time>2026-03-28T11:50:16.955Z</time></trkpt><trkpt lat="43.6494422" lon="11.1988828"><ele>290.0</ele><time>2026-03-28T11:50:17.953Z</time></trkpt><trkpt lat="43.6494233" lon="11.1986041"><ele>290.0</ele><time>2026-03-28T11:50:18.955Z</time></trkpt><trkpt lat="43.6494218" lon="11.1983483"><ele>290.0</ele><time>2026-03-28T11:50:19.954Z</time></trkpt><trkpt lat="43.6494423" lon="11.1981018"><ele>290.0</ele><time>2026-03-28T11:50:20.953Z</time></trkpt><trkpt lat="43.6494802" lon="11.1978768"><ele>290.0</ele><time>2026-03-28T11:50:21.955Z</time></trkpt><trkpt lat="43.6495322" lon="11.1976817"><ele>290.0</ele><time>2026-03-28T11:50:22.955Z</time></trkpt><trkpt lat="43.6496118" lon="11.1975119"><ele>290.0</ele><time>2026-03-28T11:50:23.955Z</time></trkpt><trkpt lat="43.6497249" lon="11.1973823"><ele>290.0</ele><time>2026-03-28T11:50:24.955Z</time></trkpt><trkpt lat="43.6498697" lon="11.197276"><ele>293.0</ele><time>2026-03-28T11:50:25.954Z</time></trkpt><trkpt lat="43.6500431" lon="11.1971799"><ele>296.0</ele><time>2026-03-28T11:50:26.955Z</time></trkpt><trkpt lat="43.6502221" lon="11.1970888"><ele>299.0</ele><time>2026-03-28T11:50:27.954Z</time></trkpt><trkpt lat="43.6504133" lon="11.1969921"><ele>299.33333333333337</ele><time>2026-03-28T11:50:28.954Z</time></trkpt><trkpt lat="43.650613" lon="11.1968874"><ele>299.6666666666667</ele><time>2026-03-28T11:50:29.955Z</time></trkpt><trkpt lat="43.6508156" lon="11.1967848"><ele>300.0</ele><time>2026-03-28T11:50:30.954Z</time></trkpt><trkpt lat="43.6510061" lon="11.1966819"><ele>300.3333333333333</ele><time>2026-03-28T11:50:31.955Z</time></trkpt><trkpt lat="43.6511968" lon="11.1966066"><ele>300.66666666666663</ele><time>2026-03-28T11:50:32.955Z</time></trkpt><trkpt lat="43.6513742" lon="11.1965439"><ele>301.0</ele><time>2026-03-28T11:50:33.955Z</time></trkpt><trkpt lat="43.6515446" lon="11.1964889"><ele>301.0</ele><time>2026-03-28T11:50:34.955Z</time></trkpt><trkpt lat="43.6517087" lon="11.1964046"><ele>301.0</ele><time>2026-03-28T11:50:35.954Z</time></trkpt><trkpt lat="43.6518769" lon="11.1962788"><ele>301.0</ele><time>2026-03-28T11:50:36.953Z</time></trkpt><trkpt lat="43.6520423" lon="11.1961224"><ele>298.3333333333333</ele><time>2026-03-28T11:50:37.954Z</time></trkpt><trkpt lat="43.6522155" lon="11.1959464"><ele>295.6666666666667</ele><time>2026-03-28T11:50:38.953Z</time></trkpt><trkpt lat="43.6524024" lon="11.1957714"><ele>293.0</ele><time>2026-03-28T11:50:39.955Z</time></trkpt><trkpt lat="43.6526087" lon="11.1956157"><ele>289.5</ele><time>2026-03-28T11:50:40.954Z</time></trkpt><trkpt lat="43.652833" lon="11.1954827"><ele>286.0</ele><time>2026-03-28T11:50:41.954Z</time></trkpt><trkpt lat="43.6530576" lon="11.1953332"><ele>286.0</ele><time>2026-03-28T11:50:42.954Z</time></trkpt><trkpt lat="43.6532755" lon="11.1951483"><ele>286.0</ele><time>2026-03-28T11:50:43.954Z</time></trkpt><trkpt lat="43.6534922" lon="11.1949413"><ele>286.0</ele><time>2026-03-28T11:50:44.954Z</time></trkpt><trkpt lat="43.6537109" lon="11.1947294"><ele>286.0</ele><time>2026-03-28T11:50:45.954Z</time></trkpt><trkpt lat="43.6539192" lon="11.194518"><ele>286.0</ele><time>2026-03-28T11:50:46.954Z</time></trkpt><trkpt lat="43.6541303" lon="11.1942911"><ele>286.0</ele><time>2026-03-28T11:50:47.954Z</time></trkpt><trkpt lat="43.6543254" lon="11.1940705"><ele>288.66666666666663</ele><time>2026-03-28T11:50:48.953Z</time></trkpt><trkpt lat="43.6545011" lon="11.1938589"><ele>291.3333333333333</ele><time>2026-03-28T11:50:49.954Z</time></trkpt><trkpt lat="43.6546632" lon="11.1936678"><ele>294.0</ele><time>2026-03-28T11:50:50.954Z</time></trkpt><trkpt lat="43.6548082" lon="11.1935005"><ele>294.0</ele><time>2026-03-28T11:50:51.955Z</time></trkpt><trkpt lat="43.654936" lon="11.1933407"><ele>294.0</ele><time>2026-03-28T11:50:52.955Z</time></trkpt><trkpt lat="43.6550532" lon="11.1931836"><ele>294.0</ele><time>2026-03-28T11:50:53.955Z</time></trkpt><trkpt lat="43.655152" lon="11.1929986"><ele>294.0</ele><time>2026-03-28T11:50:54.954Z</time></trkpt><trkpt lat="43.6552423" lon="11.19281"><ele>294.0</ele><time>2026-03-28T11:50:55.953Z</time></trkpt><trkpt lat="43.6553285" lon="11.1926046"><ele>294.0</ele><time>2026-03-28T11:50:56.955Z</time></trkpt><trkpt lat="43.655408" lon="11.1923861"><ele>295.0</ele><time>2026-03-28T11:50:57.955Z</time></trkpt><trkpt lat="43.6554782" lon="11.1921785"><ele>296.0</ele><time>2026-03-28T11:50:58.954Z</time></trkpt><trkpt lat="43.6555453" lon="11.1919868"><ele>297.0</ele><time>2026-03-28T11:50:59.953Z</time></trkpt><trkpt lat="43.6556029" lon="11.1918145"><ele>297.0</ele><time>2026-03-28T11:51:00.955Z</time></trkpt><trkpt lat="43.655653" lon="11.191647"><ele>297.0</ele><time>2026-03-28T11:51:01.955Z</time></trkpt><trkpt lat="43.6557002" lon="11.1914736"><ele>297.0</ele><time>2026-03-28T11:51:02.953Z</time></trkpt><trkpt lat="43.6557274" lon="11.1912901"><ele>297.0</ele><time>2026-03-28T11:51:03.954Z</time></trkpt><trkpt lat="43.6557161" lon="11.1911056"><ele>296.3333333333333</ele><time>2026-03-28T11:51:04.954Z</time></trkpt><trkpt lat="43.6556812" lon="11.1909112"><ele>295.66666666666663</ele><time>2026-03-28T11:51:05.955Z</time></trkpt><trkpt lat="43.6556342" lon="11.1907065"><ele>295.0</ele><time>2026-03-28T11:51:06.953Z</time></trkpt><trkpt lat="43.6555841" lon="11.1904978"><ele>294.66666666666663</ele><time>2026-03-28T11:51:07.952Z</time></trkpt><trkpt lat="43.6555257" lon="11.1902678"><ele>294.3333333333333</ele><time>2026-03-28T11:51:08.954Z</time></trkpt><trkpt lat="43.6554717" lon="11.1900235"><ele>294.0</ele><time>2026-03-28T11:51:09.954Z</time></trkpt><trkpt lat="43.65542" lon="11.1897767"><ele>294.0</ele><time>2026-03-28T11:51:10.953Z</time></trkpt><trkpt lat="43.6553779" lon="11.1895322"><ele>294.0</ele><time>2026-03-28T11:51:11.954Z</time></trkpt><trkpt lat="43.6553449" lon="11.1892806"><ele>294.0</ele><time>2026-03-28T11:51:12.954Z</time></trkpt><trkpt lat="43.6553349" lon="11.1890318"><ele>295.0</ele><time>2026-03-28T11:51:13.953Z</time></trkpt><trkpt lat="43.6553368" lon="11.1888057"><ele>296.0</ele><time>2026-03-28T11:51:14.954Z</time></trkpt><trkpt lat="43.6553369" lon="11.1885989"><ele>297.0</ele><time>2026-03-28T11:51:15.955Z</time></trkpt><trkpt lat="43.6553536" lon="11.1883921"><ele>297.0</ele><time>2026-03-28T11:51:16.954Z</time></trkpt><trkpt lat="43.655389" lon="11.1881795"><ele>297.0</ele><time>2026-03-28T11:51:17.954Z</time></trkpt><trkpt lat="43.6554409" lon="11.1879928"><ele>297.0</ele><time>2026-03-28T11:51:18.954Z</time></trkpt><trkpt lat="43.6555031" lon="11.1878409"><ele>297.0</ele><time>2026-03-28T11:51:19.955Z</time></trkpt><trkpt lat="43.6555629" lon="11.1877284"><ele>298.2</ele><time>2026-03-28T11:51:20.955Z</time></trkpt><trkpt lat="43.6556169" lon="11.187638"><ele>299.4</ele><time>2026-03-28T11:51:21.954Z</time></trkpt><trkpt lat="43.6556478" lon="11.1875579"><ele>300.6</ele><time>2026-03-28T11:51:22.954Z</time></trkpt><trkpt lat="43.6556221" lon="11.1874302"><ele>301.8</ele><time>2026-03-28T11:51:24.954Z</time></trkpt><trkpt lat="43.6554804" lon="11.1873859"><ele>303.0</ele><time>2026-03-28T11:51:26.955Z</time></trkpt><trkpt lat="43.6553848" lon="11.1873476"><ele>302.3333333333333</ele><time>2026-03-28T11:51:27.955Z</time></trkpt><trkpt lat="43.6552999" lon="11.187287"><ele>301.6666666666667</ele><time>2026-03-28T11:51:28.953Z</time></trkpt><trkpt lat="43.6552366" lon="11.1872092"><ele>301.0</ele><time>2026-03-28T11:51:29.954Z</time></trkpt><trkpt lat="43.655206" lon="11.1870988"><ele>300.33333333333337</ele><time>2026-03-28T11:51:30.955Z</time></trkpt><trkpt lat="43.6552127" lon="11.1869801"><ele>299.6666666666667</ele><time>2026-03-28T11:51:31.955Z</time></trkpt><trkpt lat="43.6552434" lon="11.186862"><ele>299.0</ele><time>2026-03-28T11:51:32.955Z</time></trkpt><trkpt lat="43.655279" lon="11.1867738"><ele>300.2</ele><time>2026-03-28T11:51:33.955Z</time></trkpt><trkpt lat="43.6553193" lon="11.1866773"><ele>301.4</ele><time>2026-03-28T11:51:35.955Z</time></trkpt><trkpt lat="43.6553895" lon="11.1865462"><ele>302.6</ele><time>2026-03-28T11:51:37.953Z</time></trkpt><trkpt lat="43.6554384" lon="11.1864608"><ele>303.8</ele><time>2026-03-28T11:51:38.954Z</time></trkpt><trkpt lat="43.6555032" lon="11.1863221"><ele>305.0</ele><time>2026-03-28T11:51:39.954Z</time></trkpt><trkpt lat="43.6555829" lon="11.1861715"><ele>305.0</ele><time>2026-03-28T11:51:40.954Z</time></trkpt><trkpt lat="43.6556679" lon="11.1860068"><ele>305.0</ele><time>2026-03-28T11:51:41.954Z</time></trkpt><trkpt lat="43.6557548" lon="11.1858324"><ele>305.0</ele><time>2026-03-28T11:51:42.955Z</time></trkpt><trkpt lat="43.6558507" lon="11.185643"><ele>303.0</ele><time>2026-03-28T11:51:43.954Z</time></trkpt><trkpt lat="43.6559387" lon="11.1854746"><ele>301.0</ele><time>2026-03-28T11:51:44.954Z</time></trkpt><trkpt lat="43.6560145" lon="11.1853239"><ele>299.0</ele><time>2026-03-28T11:51:45.955Z</time></trkpt><trkpt lat="43.6560736" lon="11.1852015"><ele>297.0</ele><time>2026-03-28T11:51:46.954Z</time></trkpt><trkpt lat="43.6561266" lon="11.1851257"><ele>300.0</ele><time>2026-03-28T11:51:47.955Z</time></trkpt><trkpt lat="43.6561687" lon="11.185034"><ele>303.0</ele><time>2026-03-28T11:51:49.954Z</time></trkpt><trkpt lat="43.6562171" lon="11.1849615"><ele>306.0</ele><time>2026-03-28T11:51:52.956Z</time></trkpt><trkpt lat="43.6562597" lon="11.1848476"><ele>309.0</ele><time>2026-03-28T11:51:55.954Z</time></trkpt><trkpt lat="43.6563008" lon="11.1847236"><ele>312.0</ele><time>2026-03-28T11:51:57.953Z</time></trkpt><trkpt lat="43.6563548" lon="11.1845802"><ele>312.0</ele><time>2026-03-28T11:51:59.954Z</time></trkpt><trkpt lat="43.6564044" lon="11.1844287"><ele>312.0</ele><time>2026-03-28T11:52:01.953Z</time></trkpt><trkpt lat="43.6564146" lon="11.1842682"><ele>312.0</ele><time>2026-03-28T11:52:03.953Z</time></trkpt><trkpt lat="43.6563602" lon="11.1842066"><ele>312.0</ele><time>2026-03-28T11:52:04.953Z</time></trkpt><trkpt lat="43.6562932" lon="11.1841638"><ele>312.0</ele><time>2026-03-28T11:52:05.954Z</time></trkpt><trkpt lat="43.6562037" lon="11.1841267"><ele>310.25</ele><time>2026-03-28T11:52:06.955Z</time></trkpt><trkpt lat="43.6561022" lon="11.1840849"><ele>308.5</ele><time>2026-03-28T11:52:07.955Z</time></trkpt><trkpt lat="43.6559919" lon="11.1840398"><ele>306.75</ele><time>2026-03-28T11:52:08.955Z</time></trkpt><trkpt lat="43.6558794" lon="11.1839852"><ele>305.0</ele><time>2026-03-28T11:52:09.954Z</time></trkpt><trkpt lat="43.6557605" lon="11.1839486"><ele>305.0</ele><time>2026-03-28T11:52:10.955Z</time></trkpt><trkpt lat="43.6556414" lon="11.1839006"><ele>305.0</ele><time>2026-03-28T11:52:11.954Z</time></trkpt><trkpt lat="43.6555212" lon="11.1838509"><ele>305.0</ele><time>2026-03-28T11:52:12.955Z</time></trkpt><trkpt lat="43.6554001" lon="11.1838152"><ele>305.0</ele><time>2026-03-28T11:52:13.954Z</time></trkpt><trkpt lat="43.6552744" lon="11.1837783"><ele>305.0</ele><time>2026-03-28T11:52:14.955Z</time></trkpt><trkpt lat="43.6551426" lon="11.1837609"><ele>305.0</ele><time>2026-03-28T11:52:15.954Z</time></trkpt><trkpt lat="43.6550017" lon="11.1837356"><ele>305.0</ele><time>2026-03-28T11:52:16.954Z</time></trkpt><trkpt lat="43.6548561" lon="11.1837189"><ele>305.0</ele><time>2026-03-28T11:52:17.954Z</time></trkpt><trkpt lat="43.6547167" lon="11.183696"><ele>305.0</ele><time>2026-03-28T11:52:18.954Z</time></trkpt><trkpt lat="43.6545869" lon="11.1836822"><ele>305.0</ele><time>2026-03-28T11:52:19.955Z</time></trkpt><trkpt lat="43.6544772" lon="11.183666"><ele>305.0</ele><time>2026-03-28T11:52:20.954Z</time></trkpt><trkpt lat="43.6543758" lon="11.1836493"><ele>305.0</ele><time>2026-03-28T11:52:21.955Z</time></trkpt><trkpt lat="43.654288" lon="11.183615"><ele>305.0</ele><time>2026-03-28T11:52:22.953Z</time></trkpt><trkpt lat="43.6542183" lon="11.1835519"><ele>304.6666666666667</ele><time>2026-03-28T11:52:23.955Z</time></trkpt><trkpt lat="43.654143" lon="11.1834732"><ele>304.33333333333337</ele><time>2026-03-28T11:52:25.954Z</time></trkpt><trkpt lat="43.6541919" lon="11.1833861"><ele>304.0</ele><time>2026-03-28T11:52:27.954Z</time></trkpt><trkpt lat="43.6542684" lon="11.1833199"><ele>303.6666666666667</ele><time>2026-03-28T11:52:29.954Z</time></trkpt><trkpt lat="43.6542896" lon="11.183231"><ele>303.3333333333333</ele><time>2026-03-28T11:52:30.955Z</time></trkpt><trkpt lat="43.6543053" lon="11.1831399"><ele>303.0</ele><time>2026-03-28T11:52:31.955Z</time></trkpt><trkpt lat="43.6543416" lon="11.1830667"><ele>303.3333333333333</ele><time>2026-03-28T11:52:32.955Z</time></trkpt><trkpt lat="43.654454" lon="11.1830359"><ele>303.6666666666667</ele><time>2026-03-28T11:52:34.954Z</time></trkpt><trkpt lat="43.6545207" lon="11.1830434"><ele>304.0</ele><time>2026-03-28T11:52:36.955Z</time></trkpt><trkpt lat="43.6546045" lon="11.1830452"><ele>304.33333333333337</ele><time>2026-03-28T11:52:46.955Z</time></trkpt><trkpt lat="43.6547166" lon="11.1830629"><ele>304.6666666666667</ele><time>2026-03-28T11:52:48.954Z</time></trkpt><trkpt lat="43.6547735" lon="11.1831117"><ele>305.0</ele><time>2026-03-28T11:53:08.955Z</time></trkpt><trkpt lat="43.6547828" lon="11.1831995"><ele>305.0</ele><time>2026-03-28T11:53:25.955Z</time></trkpt><trkpt lat="43.6548444" lon="11.183142"><ele>293.0</ele><time>2026-03-28T11:57:15.955Z</time></trkpt><trkpt lat="43.6549031" lon="11.18311"><ele>293.0</ele><time>2026-03-28T11:57:19.953Z</time></trkpt><trkpt lat="43.6550236" lon="11.1830996"><ele>293.0</ele><time>2026-03-28T11:57:29.955Z</time></trkpt></trkseg></trk></gpx>